<?xml version='1.0' encoding='UTF-8'?><gpx version="1.1" creator="JPX - https://github.com/jenetics/jpx" xmlns="http://www.topografix.com/GPX/1/1"><trk><trkseg><trkpt lat="44.634557889725436" lon="10.172143261522457"><ele>304.66666666666663</ele><time>2026-04-18T07:27:13Z</time></trkpt><trkpt lat="44.634436223794005" lon="10.172094947477092"><ele>305.3333333333333</ele><time>2026-04-18T07:27:14Z</time></trkpt><trkpt lat="44.634288664435935" lon="10.172045652219714"><ele>306.0</ele><time>2026-04-18T07:27:15Z</time></trkpt><trkpt lat="44.63410258441682" lon="10.171969409593974"><ele>306.0</ele><time>2026-04-18T07:27:16Z</time></trkpt><trkpt lat="44.63392337347673" lon="10.171911386785068"><ele>306.0</ele><time>2026-04-18T07:27:17Z</time></trkpt><trkpt lat="44.633708238456656" lon="10.171859674007196"><ele>306.0</ele><time>2026-04-18T07:27:18Z</time></trkpt><trkpt lat="44.63351747851935" lon="10.171733386293958"><ele>306.3333333333333</ele><time>2026-04-18T07:27:19Z</time></trkpt><trkpt lat="44.63335431104847" lon="10.171636277019255"><ele>306.66666666666663</ele><time>2026-04-18T07:27:20Z</time></trkpt><trkpt lat="44.63317868801578" lon="10.171560679721033"><ele>307.0</ele><time>2026-04-18T07:27:21Z</time></trkpt><trkpt lat="44.63299905074684" lon="10.171518401175947"><ele>308.66666666666663</ele><time>2026-04-18T07:27:22Z</time></trkpt><trkpt lat="44.63282677557955" lon="10.171534149962843"><ele>310.3333333333333</ele><time>2026-04-18T07:27:23Z</time></trkpt><trkpt lat="44.6326446479619" lon="10.171609934896065"><ele>312.0</ele><time>2026-04-18T07:27:24Z</time></trkpt><trkpt lat="44.63245508402404" lon="10.17175957314822"><ele>312.0</ele><time>2026-04-18T07:27:25Z</time></trkpt><trkpt lat="44.63227393295575" lon="10.171951480737993"><ele>312.0</ele><time>2026-04-18T07:27:26Z</time></trkpt><trkpt lat="44.63208957286918" lon="10.172114153980582"><ele>312.0</ele><time>2026-04-18T07:27:27Z</time></trkpt><trkpt lat="44.63189714129954" lon="10.172148182616453"><ele>312.0</ele><time>2026-04-18T07:27:28Z</time></trkpt><trkpt lat="44.63169518042097" lon="10.172172910185575"><ele>312.0</ele><time>2026-04-18T07:27:29Z</time></trkpt><trkpt lat="44.6315016643926" lon="10.172193348686006"><ele>312.0</ele><time>2026-04-18T07:27:30Z</time></trkpt><trkpt lat="44.63133600455185" lon="10.172228566586003"><ele>312.0</ele><time>2026-04-18T07:27:31Z</time></trkpt><trkpt lat="44.631180993964904" lon="10.172223212744234"><ele>312.0</ele><time>2026-04-18T07:27:32Z</time></trkpt><trkpt lat="44.631014145182654" lon="10.172211308017282"><ele>312.0</ele><time>2026-04-18T07:27:33Z</time></trkpt><trkpt lat="44.63086766733903" lon="10.172057919656284"><ele>314.0</ele><time>2026-04-18T07:27:34Z</time></trkpt><trkpt lat="44.63073948371156" lon="10.17186187798643"><ele>316.0</ele><time>2026-04-18T07:27:35Z</time></trkpt><trkpt lat="44.630609016810716" lon="10.171688570092694"><ele>318.0</ele><time>2026-04-18T07:27:36Z</time></trkpt><trkpt lat="44.63050332480901" lon="10.171526642666349"><ele>318.0</ele><time>2026-04-18T07:27:37Z</time></trkpt><trkpt lat="44.630376007149174" lon="10.171416577521875"><ele>318.0</ele><time>2026-04-18T07:27:38Z</time></trkpt><trkpt lat="44.6302201273185" lon="10.171341276370354"><ele>318.0</ele><time>2026-04-18T07:27:39Z</time></trkpt><trkpt lat="44.63004190897041" lon="10.171319967796697"><ele>318.0</ele><time>2026-04-18T07:27:40Z</time></trkpt><trkpt lat="44.62986139260709" lon="10.1712935869821"><ele>318.0</ele><time>2026-04-18T07:27:41Z</time></trkpt><trkpt lat="44.629685053461095" lon="10.171266514763543"><ele>318.0</ele><time>2026-04-18T07:27:42Z</time></trkpt><trkpt lat="44.629506789742294" lon="10.171223953405157"><ele>319.3333333333333</ele><time>2026-04-18T07:27:43Z</time></trkpt><trkpt lat="44.62932684947872" lon="10.171180680247817"><ele>320.66666666666663</ele><time>2026-04-18T07:27:44Z</time></trkpt><trkpt lat="44.62914455210136" lon="10.171138417820796"><ele>322.0</ele><time>2026-04-18T07:27:45Z</time></trkpt><trkpt lat="44.628959281589836" lon="10.171093964036345"><ele>322.0</ele><time>2026-04-18T07:27:46Z</time></trkpt><trkpt lat="44.62880049303245" lon="10.170973689562727"><ele>322.0</ele><time>2026-04-18T07:27:47Z</time></trkpt><trkpt lat="44.628656794701214" lon="10.1708352943253"><ele>322.0</ele><time>2026-04-18T07:27:48Z</time></trkpt><trkpt lat="44.628539959041554" lon="10.17065773635236"><ele>323.0</ele><time>2026-04-18T07:27:49Z</time></trkpt><trkpt lat="44.62841459374018" lon="10.17049971787755"><ele>324.0</ele><time>2026-04-18T07:27:50Z</time></trkpt><trkpt lat="44.62832461470709" lon="10.170306549415608"><ele>325.0</ele><time>2026-04-18T07:27:51Z</time></trkpt><trkpt lat="44.62823048988401" lon="10.17010373076051"><ele>325.0</ele><time>2026-04-18T07:27:52Z</time></trkpt><trkpt lat="44.62814083315691" lon="10.169906360514744"><ele>325.0</ele><time>2026-04-18T07:27:53Z</time></trkpt><trkpt lat="44.628043489680934" lon="10.169723042550117"><ele>325.0</ele><time>2026-04-18T07:27:54Z</time></trkpt><trkpt lat="44.62793655316323" lon="10.169551242870698"><ele>327.0</ele><time>2026-04-18T07:27:55Z</time></trkpt><trkpt lat="44.62780114470938" lon="10.169393709303263"><ele>329.0</ele><time>2026-04-18T07:27:56Z</time></trkpt><trkpt lat="44.62765919667271" lon="10.169236670919775"><ele>331.0</ele><time>2026-04-18T07:27:57Z</time></trkpt><trkpt lat="44.62751434136965" lon="10.169075734459188"><ele>329.3333333333333</ele><time>2026-04-18T07:27:58Z</time></trkpt><trkpt lat="44.627373572695944" lon="10.168902415494532"><ele>327.6666666666667</ele><time>2026-04-18T07:27:59Z</time></trkpt><trkpt lat="44.62722023252879" lon="10.168740335526605"><ele>326.0</ele><time>2026-04-18T07:28:00Z</time></trkpt><trkpt lat="44.62708317020236" lon="10.168602840755357"><ele>328.33333333333337</ele><time>2026-04-18T07:28:01Z</time></trkpt><trkpt lat="44.626928094715765" lon="10.168491181483923"><ele>330.6666666666667</ele><time>2026-04-18T07:28:02Z</time></trkpt><trkpt lat="44.62675221112629" lon="10.168385640175849"><ele>333.0</ele><time>2026-04-18T07:28:02.999Z</time></trkpt><trkpt lat="44.62658076951097" lon="10.16828994617225"><ele>333.0</ele><time>2026-04-18T07:28:03.999Z</time></trkpt><trkpt lat="44.626412256190655" lon="10.168198572353676"><ele>333.0</ele><time>2026-04-18T07:28:04.999Z</time></trkpt><trkpt lat="44.62624018960433" lon="10.16810580523574"><ele>333.0</ele><time>2026-04-18T07:28:05.999Z</time></trkpt><trkpt lat="44.626063809777705" lon="10.168007317199466"><ele>334.0</ele><time>2026-04-18T07:28:06.999Z</time></trkpt><trkpt lat="44.62588887365962" lon="10.167911933829608"><ele>335.0</ele><time>2026-04-18T07:28:07.999Z</time></trkpt><trkpt lat="44.625715415179265" lon="10.167808981840755"><ele>336.0</ele><time>2026-04-18T07:28:08.999Z</time></trkpt><trkpt lat="44.625538418483465" lon="10.167711040529463"><ele>336.0</ele><time>2026-04-18T07:28:09.999Z</time></trkpt><trkpt lat="44.62535108541444" lon="10.167612241424353"><ele>336.0</ele><time>2026-04-18T07:28:10.999Z</time></trkpt><trkpt lat="44.62516251986306" lon="10.167510005146024"><ele>336.0</ele><time>2026-04-18T07:28:11.999Z</time></trkpt><trkpt lat="44.62497084798593" lon="10.167401735462523"><ele>336.3333333333333</ele><time>2026-04-18T07:28:12.999Z</time></trkpt><trkpt lat="44.6247801819009" lon="10.167290937106324"><ele>336.66666666666663</ele><time>2026-04-18T07:28:13.999Z</time></trkpt><trkpt lat="44.624592694669346" lon="10.16718228432429"><ele>337.0</ele><time>2026-04-18T07:28:14.999Z</time></trkpt><trkpt lat="44.624413043864" lon="10.167079694018689"><ele>337.0</ele><time>2026-04-18T07:28:15.999Z</time></trkpt><trkpt lat="44.62425107938519" lon="10.167001422944733"><ele>337.0</ele><time>2026-04-18T07:28:16.999Z</time></trkpt><trkpt lat="44.624089672299576" lon="10.16696590590031"><ele>337.0</ele><time>2026-04-18T07:28:17.999Z</time></trkpt><trkpt lat="44.62390720022952" lon="10.167019067494794"><ele>337.0</ele><time>2026-04-18T07:28:18.999Z</time></trkpt><trkpt lat="44.62371014242621" lon="10.167160190126843"><ele>337.0</ele><time>2026-04-18T07:28:19.999Z</time></trkpt><trkpt lat="44.623517934755355" lon="10.167261137555055"><ele>337.0</ele><time>2026-04-18T07:28:20.999Z</time></trkpt><trkpt lat="44.62330642406046" lon="10.167270771420615"><ele>337.0</ele><time>2026-04-18T07:28:21.999Z</time></trkpt><trkpt lat="44.623067315359926" lon="10.167213738484433"><ele>337.0</ele><time>2026-04-18T07:28:22.999Z</time></trkpt><trkpt lat="44.62282589249392" lon="10.167164268253709"><ele>339.66666666666663</ele><time>2026-04-18T07:28:23.999Z</time></trkpt><trkpt lat="44.62259730394013" lon="10.167109606995462"><ele>342.3333333333333</ele><time>2026-04-18T07:28:24.999Z</time></trkpt><trkpt lat="44.62239200903449" lon="10.16706362291849"><ele>345.0</ele><time>2026-04-18T07:28:25.999Z</time></trkpt><trkpt lat="44.62218483127866" lon="10.167032985464752"><ele>347.0</ele><time>2026-04-18T07:28:26.999Z</time></trkpt><trkpt lat="44.62195945029419" lon="10.167057714454966"><ele>349.0</ele><time>2026-04-18T07:28:27.999Z</time></trkpt><trkpt lat="44.62174039509878" lon="10.167024030206147"><ele>351.0</ele><time>2026-04-18T07:28:28.999Z</time></trkpt><trkpt lat="44.62151274574747" lon="10.16697412621077"><ele>351.0</ele><time>2026-04-18T07:28:29.999Z</time></trkpt><trkpt lat="44.62129570353513" lon="10.166866434773917"><ele>351.0</ele><time>2026-04-18T07:28:30.999Z</time></trkpt><trkpt lat="44.62109208890387" lon="10.166713711624702"><ele>352.0</ele><time>2026-04-18T07:28:31.999Z</time></trkpt><trkpt lat="44.62090744934466" lon="10.166567787348301"><ele>353.0</ele><time>2026-04-18T07:28:32.999Z</time></trkpt><trkpt lat="44.620749526525394" lon="10.166466011810021"><ele>354.0</ele><time>2026-04-18T07:28:33.999Z</time></trkpt><trkpt lat="44.62064484507695" lon="10.16638021720633"><ele>354.0</ele><time>2026-04-18T07:28:34.999Z</time></trkpt><trkpt lat="44.620546234674684" lon="10.166303738859284"><ele>354.0</ele><time>2026-04-18T07:28:35.999Z</time></trkpt><trkpt lat="44.620436160094705" lon="10.166195642768002"><ele>354.0</ele><time>2026-04-18T07:28:36.999Z</time></trkpt><trkpt lat="44.62029802619422" lon="10.166088029572741"><ele>354.0</ele><time>2026-04-18T07:28:37.999Z</time></trkpt><trkpt lat="44.62014253801689" lon="10.165966899480592"><ele>354.3333333333333</ele><time>2026-04-18T07:28:38.999Z</time></trkpt><trkpt lat="44.61996271580089" lon="10.165835196855756"><ele>354.66666666666663</ele><time>2026-04-18T07:28:39.999Z</time></trkpt><trkpt lat="44.61978234841658" lon="10.165688024749592"><ele>355.0</ele><time>2026-04-18T07:28:40.999Z</time></trkpt><trkpt lat="44.61958286168631" lon="10.165544314326583"><ele>356.0</ele><time>2026-04-18T07:28:41.999Z</time></trkpt><trkpt lat="44.61938522141782" lon="10.16539964342975"><ele>357.0</ele><time>2026-04-18T07:28:42.999Z</time></trkpt><trkpt lat="44.61919897328513" lon="10.165263765093927"><ele>358.0</ele><time>2026-04-18T07:28:44Z</time></trkpt><trkpt lat="44.61903688025856" lon="10.165130108601202"><ele>358.0</ele><time>2026-04-18T07:28:45Z</time></trkpt><trkpt lat="44.6189280371831" lon="10.164941998702735"><ele>358.0</ele><time>2026-04-18T07:28:46Z</time></trkpt><trkpt lat="44.61885735085927" lon="10.16472593742155"><ele>358.0</ele><time>2026-04-18T07:28:47Z</time></trkpt><trkpt lat="44.618831465910276" lon="10.164454269366605"><ele>355.0</ele><time>2026-04-18T07:28:48Z</time></trkpt><trkpt lat="44.61884300316947" lon="10.164136693525977"><ele>352.0</ele><time>2026-04-18T07:28:49Z</time></trkpt><trkpt lat="44.61886128041334" lon="10.163815626840295"><ele>351.66666666666663</ele><time>2026-04-18T07:28:50Z</time></trkpt><trkpt lat="44.61887954239017" lon="10.1635022220538"><ele>351.3333333333333</ele><time>2026-04-18T07:28:51Z</time></trkpt><trkpt lat="44.61890791835935" lon="10.163206764617621"><ele>351.0</ele><time>2026-04-18T07:28:52Z</time></trkpt><trkpt lat="44.61896539972998" lon="10.162944797474742"><ele>351.0</ele><time>2026-04-18T07:28:53Z</time></trkpt><trkpt lat="44.61902581583965" lon="10.162711703482579"><ele>351.0</ele><time>2026-04-18T07:28:54Z</time></trkpt><trkpt lat="44.619052759889286" lon="10.162475745719997"><ele>351.0</ele><time>2026-04-18T07:28:55Z</time></trkpt><trkpt lat="44.61901292977233" lon="10.162247152741108"><ele>349.3333333333333</ele><time>2026-04-18T07:28:56Z</time></trkpt><trkpt lat="44.61891527149969" lon="10.162009428795503"><ele>347.66666666666663</ele><time>2026-04-18T07:28:57Z</time></trkpt><trkpt lat="44.61885739709345" lon="10.161774759264633"><ele>346.0</ele><time>2026-04-18T07:28:58Z</time></trkpt><trkpt lat="44.618810422089624" lon="10.161592559258597"><ele>344.25</ele><time>2026-04-18T07:28:59Z</time></trkpt><trkpt lat="44.61879029880557" lon="10.161426608069911"><ele>342.5</ele><time>2026-04-18T07:29:00Z</time></trkpt><trkpt lat="44.618764974171725" lon="10.161263019623599"><ele>340.75</ele><time>2026-04-18T07:29:01Z</time></trkpt><trkpt lat="44.6187366340329" lon="10.161091393793837"><ele>339.0</ele><time>2026-04-18T07:29:02Z</time></trkpt><trkpt lat="44.61870482162756" lon="10.160924918169437"><ele>339.0</ele><time>2026-04-18T07:29:03Z</time></trkpt><trkpt lat="44.61867021767493" lon="10.16076811993539"><ele>339.0</ele><time>2026-04-18T07:29:04Z</time></trkpt><trkpt lat="44.618617819472114" lon="10.16061555610703"><ele>339.0</ele><time>2026-04-18T07:29:05Z</time></trkpt><trkpt lat="44.61855376083564" lon="10.160488131648803"><ele>339.0</ele><time>2026-04-18T07:29:06Z</time></trkpt><trkpt lat="44.61845849530057" lon="10.160395252476992"><ele>342.25</ele><time>2026-04-18T07:29:07Z</time></trkpt><trkpt lat="44.61834178131659" lon="10.160335374325035"><ele>345.5</ele><time>2026-04-18T07:29:08Z</time></trkpt><trkpt lat="44.61822073046677" lon="10.16029067066054"><ele>348.75</ele><time>2026-04-18T07:29:09Z</time></trkpt><trkpt lat="44.61811247951496" lon="10.160247371253622"><ele>352.0</ele><time>2026-04-18T07:29:10Z</time></trkpt><trkpt lat="44.61802758152127" lon="10.160159329574617"><ele>352.0</ele><time>2026-04-18T07:29:11Z</time></trkpt><trkpt lat="44.61794470096626" lon="10.160061899170186"><ele>352.0</ele><time>2026-04-18T07:29:12Z</time></trkpt><trkpt lat="44.617901126302684" lon="10.15993840496266"><ele>352.0</ele><time>2026-04-18T07:29:13Z</time></trkpt><trkpt lat="44.61787674111788" lon="10.159796104422485"><ele>352.0</ele><time>2026-04-18T07:29:14Z</time></trkpt><trkpt lat="44.6178826970021" lon="10.159649755468367"><ele>352.0</ele><time>2026-04-18T07:29:15Z</time></trkpt><trkpt lat="44.617904448241056" lon="10.15949331082664"><ele>352.0</ele><time>2026-04-18T07:29:16Z</time></trkpt><trkpt lat="44.61793950544034" lon="10.15931774325339"><ele>352.0</ele><time>2026-04-18T07:29:17Z</time></trkpt><trkpt lat="44.61799244923945" lon="10.159064644168819"><ele>352.0</ele><time>2026-04-18T07:29:18Z</time></trkpt><trkpt lat="44.618041022427334" lon="10.158775374016741"><ele>352.0</ele><time>2026-04-18T07:29:19Z</time></trkpt><trkpt lat="44.61810029881964" lon="10.15851599491154"><ele>352.0</ele><time>2026-04-18T07:29:20Z</time></trkpt><trkpt lat="44.61810442208028" lon="10.1582518532876"><ele>352.0</ele><time>2026-04-18T07:29:21Z</time></trkpt><trkpt lat="44.618053104795194" lon="10.157949734385666"><ele>352.0</ele><time>2026-04-18T07:29:22Z</time></trkpt><trkpt lat="44.6179702027006" lon="10.157652162256467"><ele>352.0</ele><time>2026-04-18T07:29:23Z</time></trkpt><trkpt lat="44.617838930747325" lon="10.1574104206011"><ele>352.0</ele><time>2026-04-18T07:29:24Z</time></trkpt><trkpt lat="44.61765856133097" lon="10.157190399135331"><ele>352.0</ele><time>2026-04-18T07:29:25Z</time></trkpt><trkpt lat="44.61745062887841" lon="10.156958036239157"><ele>352.0</ele><time>2026-04-18T07:29:26Z</time></trkpt><trkpt lat="44.61729761350629" lon="10.15672874886984"><ele>352.0</ele><time>2026-04-18T07:29:27Z</time></trkpt><trkpt lat="44.61720219629085" lon="10.156541483234088"><ele>352.0</ele><time>2026-04-18T07:29:28Z</time></trkpt><trkpt lat="44.61698072285091" lon="10.156342128719594"><ele>352.0</ele><time>2026-04-18T07:29:29Z</time></trkpt><trkpt lat="44.61676313013786" lon="10.15621073980978"><ele>355.0</ele><time>2026-04-18T07:29:30Z</time></trkpt><trkpt lat="44.61653686838551" lon="10.156085316156682"><ele>358.0</ele><time>2026-04-18T07:29:31Z</time></trkpt><trkpt lat="44.61633865937407" lon="10.155864290459615"><ele>358.5</ele><time>2026-04-18T07:29:32Z</time></trkpt><trkpt lat="44.61613247070885" lon="10.155635965077183"><ele>359.0</ele><time>2026-04-18T07:29:33Z</time></trkpt><trkpt lat="44.61598210259166" lon="10.155427865316286"><ele>359.0</ele><time>2026-04-18T07:29:34Z</time></trkpt><trkpt lat="44.61585994933696" lon="10.155160452310275"><ele>359.0</ele><time>2026-04-18T07:29:35Z</time></trkpt><trkpt lat="44.615767224903834" lon="10.154902329447683"><ele>359.0</ele><time>2026-04-18T07:29:36Z</time></trkpt><trkpt lat="44.61572962030825" lon="10.154635029957431"><ele>361.5</ele><time>2026-04-18T07:29:37Z</time></trkpt><trkpt lat="44.615703439480306" lon="10.15431943995839"><ele>364.0</ele><time>2026-04-18T07:29:38Z</time></trkpt><trkpt lat="44.61570809874241" lon="10.153981110021961"><ele>364.0</ele><time>2026-04-18T07:29:39Z</time></trkpt><trkpt lat="44.615689243350545" lon="10.153636112339619"><ele>364.0</ele><time>2026-04-18T07:29:40Z</time></trkpt><trkpt lat="44.61567891039721" lon="10.153319817265297"><ele>363.5</ele><time>2026-04-18T07:29:41Z</time></trkpt><trkpt lat="44.615687277188485" lon="10.153085866873093"><ele>363.0</ele><time>2026-04-18T07:29:42Z</time></trkpt><trkpt lat="44.61565297203546" lon="10.152647575106693"><ele>363.3333333333333</ele><time>2026-04-18T07:29:43Z</time></trkpt><trkpt lat="44.61569638641057" lon="10.152335089264081"><ele>363.66666666666663</ele><time>2026-04-18T07:29:44Z</time></trkpt><trkpt lat="44.61574274249484" lon="10.152044883300341"><ele>364.0</ele><time>2026-04-18T07:29:45Z</time></trkpt><trkpt lat="44.61576193643802" lon="10.151778052403133"><ele>362.5</ele><time>2026-04-18T07:29:46Z</time></trkpt><trkpt lat="44.61576419577869" lon="10.151471825260554"><ele>361.0</ele><time>2026-04-18T07:29:47Z</time></trkpt><trkpt lat="44.61571807360065" lon="10.151141976403759"><ele>361.0</ele><time>2026-04-18T07:29:48Z</time></trkpt><trkpt lat="44.61561232886758" lon="10.150828474069803"><ele>361.0</ele><time>2026-04-18T07:29:49Z</time></trkpt><trkpt lat="44.61550915843892" lon="10.150576295868815"><ele>362.3333333333333</ele><time>2026-04-18T07:29:50Z</time></trkpt><trkpt lat="44.615491580527085" lon="10.150348050291514"><ele>363.6666666666667</ele><time>2026-04-18T07:29:51Z</time></trkpt><trkpt lat="44.61550833953861" lon="10.150062953008717"><ele>365.0</ele><time>2026-04-18T07:29:52Z</time></trkpt><trkpt lat="44.615531297034764" lon="10.149748876751248"><ele>367.33333333333337</ele><time>2026-04-18T07:29:53Z</time></trkpt><trkpt lat="44.61555386193774" lon="10.149439745972954"><ele>369.6666666666667</ele><time>2026-04-18T07:29:54Z</time></trkpt><trkpt lat="44.61559793280981" lon="10.149142611624834"><ele>372.0</ele><time>2026-04-18T07:29:55Z</time></trkpt><trkpt lat="44.61568328654544" lon="10.148893733024545"><ele>375.0</ele><time>2026-04-18T07:29:56Z</time></trkpt><trkpt lat="44.61578806812889" lon="10.148688337513905"><ele>378.0</ele><time>2026-04-18T07:29:57Z</time></trkpt><trkpt lat="44.6158785037291" lon="10.14851621168966"><ele>381.0</ele><time>2026-04-18T07:29:58Z</time></trkpt><trkpt lat="44.61594061112527" lon="10.14838086366868"><ele>384.0</ele><time>2026-04-18T07:29:59Z</time></trkpt><trkpt lat="44.615996963901644" lon="10.148223624487468"><ele>386.33333333333337</ele><time>2026-04-18T07:30:00Z</time></trkpt><trkpt lat="44.616041858787604" lon="10.148022481973518"><ele>388.6666666666667</ele><time>2026-04-18T07:30:01Z</time></trkpt><trkpt lat="44.616100678429035" lon="10.14778918284639"><ele>391.0</ele><time>2026-04-18T07:30:02Z</time></trkpt><trkpt lat="44.61609784609385" lon="10.147472337110129"><ele>392.5</ele><time>2026-04-18T07:30:03Z</time></trkpt><trkpt lat="44.61603761805506" lon="10.147110930376472"><ele>394.0</ele><time>2026-04-18T07:30:04Z</time></trkpt><trkpt lat="44.61601558027713" lon="10.146726198598577"><ele>397.0</ele><time>2026-04-18T07:30:05Z</time></trkpt><trkpt lat="44.616030859119334" lon="10.146322900448613"><ele>400.0</ele><time>2026-04-18T07:30:06Z</time></trkpt><trkpt lat="44.616078831244785" lon="10.145931726425966"><ele>400.5</ele><time>2026-04-18T07:30:07Z</time></trkpt><trkpt lat="44.616129465651774" lon="10.145530792821434"><ele>401.0</ele><time>2026-04-18T07:30:08Z</time></trkpt><trkpt lat="44.616168883095675" lon="10.145128622746626"><ele>382.0</ele><time>2026-04-18T07:30:09Z</time></trkpt><trkpt lat="44.61621668242698" lon="10.144755155196412"><ele>363.0</ele><time>2026-04-18T07:30:10Z</time></trkpt><trkpt lat="44.61624994170648" lon="10.144411629639329"><ele>363.0</ele><time>2026-04-18T07:30:11Z</time></trkpt><trkpt lat="44.61627737197091" lon="10.144121884815926"><ele>363.0</ele><time>2026-04-18T07:30:12Z</time></trkpt><trkpt lat="44.61628027369661" lon="10.143876588577927"><ele>363.0</ele><time>2026-04-18T07:30:12.999Z</time></trkpt><trkpt lat="44.616243593917204" lon="10.14362327867376"><ele>369.0</ele><time>2026-04-18T07:30:13.999Z</time></trkpt><trkpt lat="44.61611216692053" lon="10.143397709716982"><ele>375.0</ele><time>2026-04-18T07:30:14.999Z</time></trkpt><trkpt lat="44.6159605509577" lon="10.143156241849928"><ele>381.0</ele><time>2026-04-18T07:30:15.999Z</time></trkpt><trkpt lat="44.615796015799525" lon="10.14293833768055"><ele>381.0</ele><time>2026-04-18T07:30:16.999Z</time></trkpt><trkpt lat="44.615668486659175" lon="10.142669539995667"><ele>381.0</ele><time>2026-04-18T07:30:17.999Z</time></trkpt><trkpt lat="44.615695278671204" lon="10.142362575180545"><ele>382.0</ele><time>2026-04-18T07:30:18.999Z</time></trkpt><trkpt lat="44.61571232492385" lon="10.142013495212668"><ele>383.0</ele><time>2026-04-18T07:30:19.999Z</time></trkpt><trkpt lat="44.6157085513568" lon="10.141655218461663"><ele>379.33333333333337</ele><time>2026-04-18T07:30:20.999Z</time></trkpt><trkpt lat="44.615707453675746" lon="10.141352764397963"><ele>375.6666666666667</ele><time>2026-04-18T07:30:21.999Z</time></trkpt><trkpt lat="44.61564313068266" lon="10.141051944234633"><ele>372.0</ele><time>2026-04-18T07:30:22.999Z</time></trkpt><trkpt lat="44.615520938614935" lon="10.140735112743752"><ele>368.5</ele><time>2026-04-18T07:30:23.999Z</time></trkpt><trkpt lat="44.61540736448183" lon="10.140429110512263"><ele>365.0</ele><time>2026-04-18T07:30:24.999Z</time></trkpt><trkpt lat="44.615303713528796" lon="10.140134259555685"><ele>375.0</ele><time>2026-04-18T07:30:25.999Z</time></trkpt><trkpt lat="44.61519869785441" lon="10.139834647759919"><ele>385.0</ele><time>2026-04-18T07:30:26.999Z</time></trkpt><trkpt lat="44.61510635986086" lon="10.13953556500064"><ele>385.0</ele><time>2026-04-18T07:30:27.999Z</time></trkpt><trkpt lat="44.61493317209629" lon="10.139219781389466"><ele>385.0</ele><time>2026-04-18T07:30:28.999Z</time></trkpt><trkpt lat="44.61476827590624" lon="10.138876768710205"><ele>377.5</ele><time>2026-04-18T07:30:29.999Z</time></trkpt><trkpt lat="44.614621694226706" lon="10.138552866365298"><ele>370.0</ele><time>2026-04-18T07:30:30.999Z</time></trkpt><trkpt lat="44.61448090276471" lon="10.138224492663582"><ele>381.0</ele><time>2026-04-18T07:30:31.999Z</time></trkpt><trkpt lat="44.61435086160981" lon="10.137907643502512"><ele>392.0</ele><time>2026-04-18T07:30:32.999Z</time></trkpt><trkpt lat="44.61424847621576" lon="10.137618077481564"><ele>382.0</ele><time>2026-04-18T07:30:33.999Z</time></trkpt><trkpt lat="44.61414011999015" lon="10.137306585742664"><ele>372.0</ele><time>2026-04-18T07:30:34.999Z</time></trkpt><trkpt lat="44.6139915658364" lon="10.137041478958942"><ele>372.0</ele><time>2026-04-18T07:30:35.999Z</time></trkpt><trkpt lat="44.6138371869465" lon="10.13677446849507"><ele>372.0</ele><time>2026-04-18T07:30:36.999Z</time></trkpt><trkpt lat="44.61367046524478" lon="10.136492899752792"><ele>382.5</ele><time>2026-04-18T07:30:37.999Z</time></trkpt><trkpt lat="44.613517955967055" lon="10.136211657804829"><ele>393.0</ele><time>2026-04-18T07:30:38.999Z</time></trkpt><trkpt lat="44.613364941966495" lon="10.135919637059576"><ele>386.6666666666667</ele><time>2026-04-18T07:30:39.999Z</time></trkpt><trkpt lat="44.61323766965936" lon="10.13564149990931"><ele>380.33333333333337</ele><time>2026-04-18T07:30:40.999Z</time></trkpt><trkpt lat="44.61315201059152" lon="10.13539054503423"><ele>374.0</ele><time>2026-04-18T07:30:41.999Z</time></trkpt><trkpt lat="44.61304325648009" lon="10.135199227967918"><ele>374.0</ele><time>2026-04-18T07:30:42.999Z</time></trkpt><trkpt lat="44.612877864363625" lon="10.135042109465935"><ele>374.0</ele><time>2026-04-18T07:30:43.999Z</time></trkpt><trkpt lat="44.61265478837393" lon="10.13488881195787"><ele>374.0</ele><time>2026-04-18T07:30:44.999Z</time></trkpt><trkpt lat="44.6124173883128" lon="10.134730599232666"><ele>375.5</ele><time>2026-04-18T07:30:45.999Z</time></trkpt><trkpt lat="44.61217986036604" lon="10.134570527894791"><ele>377.0</ele><time>2026-04-18T07:30:46.999Z</time></trkpt><trkpt lat="44.61196460245465" lon="10.134417342498926"><ele>379.0</ele><time>2026-04-18T07:30:47.999Z</time></trkpt><trkpt lat="44.61178395315992" lon="10.134275093246488"><ele>381.0</ele><time>2026-04-18T07:30:48.999Z</time></trkpt><trkpt lat="44.61163955485984" lon="10.134096078437771"><ele>383.0</ele><time>2026-04-18T07:30:50Z</time></trkpt><trkpt lat="44.61151960565555" lon="10.13385445213821"><ele>383.0</ele><time>2026-04-18T07:30:51Z</time></trkpt><trkpt lat="44.61139859565292" lon="10.133606296626986"><ele>383.0</ele><time>2026-04-18T07:30:52Z</time></trkpt><trkpt lat="44.61126964128581" lon="10.133364602668186"><ele>383.0</ele><time>2026-04-18T07:30:53Z</time></trkpt><trkpt lat="44.611156154620396" lon="10.133125098442873"><ele>387.33333333333337</ele><time>2026-04-18T07:30:54Z</time></trkpt><trkpt lat="44.61104930909666" lon="10.132881382803099"><ele>391.6666666666667</ele><time>2026-04-18T07:30:55Z</time></trkpt><trkpt lat="44.6109419657732" lon="10.132643530764744"><ele>396.0</ele><time>2026-04-18T07:30:56Z</time></trkpt><trkpt lat="44.61084708950076" lon="10.132423088641916"><ele>396.0</ele><time>2026-04-18T07:30:57Z</time></trkpt><trkpt lat="44.61077297730915" lon="10.132222738119822"><ele>396.0</ele><time>2026-04-18T07:30:58Z</time></trkpt><trkpt lat="44.61073739426954" lon="10.132015423702407"><ele>396.0</ele><time>2026-04-18T07:30:59Z</time></trkpt><trkpt lat="44.61073643041091" lon="10.13176130301952"><ele>391.3333333333333</ele><time>2026-04-18T07:31:00Z</time></trkpt><trkpt lat="44.61075060943089" lon="10.131503213032325"><ele>386.66666666666663</ele><time>2026-04-18T07:31:01Z</time></trkpt><trkpt lat="44.61073313702207" lon="10.131287025297759"><ele>382.0</ele><time>2026-04-18T07:31:02Z</time></trkpt><trkpt lat="44.610645166728" lon="10.131051381969247"><ele>382.0</ele><time>2026-04-18T07:31:03Z</time></trkpt><trkpt lat="44.61049506002785" lon="10.130800926072492"><ele>382.0</ele><time>2026-04-18T07:31:04Z</time></trkpt><trkpt lat="44.61032502760563" lon="10.130541456100529"><ele>392.0</ele><time>2026-04-18T07:31:05Z</time></trkpt><trkpt lat="44.6101464321173" lon="10.130280665826474"><ele>402.0</ele><time>2026-04-18T07:31:06Z</time></trkpt><trkpt lat="44.60996563277323" lon="10.130000304203381"><ele>390.0</ele><time>2026-04-18T07:31:07Z</time></trkpt><trkpt lat="44.60980756984521" lon="10.129727177464373"><ele>378.0</ele><time>2026-04-18T07:31:08Z</time></trkpt><trkpt lat="44.609656318242365" lon="10.12948090147658"><ele>378.0</ele><time>2026-04-18T07:31:09Z</time></trkpt><trkpt lat="44.609526585625105" lon="10.129297026069986"><ele>378.0</ele><time>2026-04-18T07:31:10Z</time></trkpt><trkpt lat="44.609400585062986" lon="10.129170643722553"><ele>378.0</ele><time>2026-04-18T07:31:11Z</time></trkpt><trkpt lat="44.60922884018145" lon="10.12911327916968"><ele>386.0</ele><time>2026-04-18T07:31:12Z</time></trkpt><trkpt lat="44.60901171803834" lon="10.129141634764629"><ele>394.0</ele><time>2026-04-18T07:31:13Z</time></trkpt><trkpt lat="44.60878379637155" lon="10.12924340078427"><ele>393.0</ele><time>2026-04-18T07:31:14Z</time></trkpt><trkpt lat="44.6085590822868" lon="10.129324862593274"><ele>392.0</ele><time>2026-04-18T07:31:15Z</time></trkpt><trkpt lat="44.608328993956384" lon="10.129302586260353"><ele>392.0</ele><time>2026-04-18T07:31:16Z</time></trkpt><trkpt lat="44.60812095708076" lon="10.129245921597292"><ele>392.0</ele><time>2026-04-18T07:31:17Z</time></trkpt><trkpt lat="44.60794069206311" lon="10.129162271379222"><ele>392.0</ele><time>2026-04-18T07:31:18Z</time></trkpt><trkpt lat="44.607786627494185" lon="10.128993629670456"><ele>390.3333333333333</ele><time>2026-04-18T07:31:19Z</time></trkpt><trkpt lat="44.60766343240521" lon="10.128747212152843"><ele>388.66666666666663</ele><time>2026-04-18T07:31:20Z</time></trkpt><trkpt lat="44.607567773831015" lon="10.12851277062535"><ele>387.0</ele><time>2026-04-18T07:31:21Z</time></trkpt><trkpt lat="44.60742868826693" lon="10.12834398669362"><ele>387.0</ele><time>2026-04-18T07:31:22Z</time></trkpt><trkpt lat="44.607209164566754" lon="10.128237344181546"><ele>387.0</ele><time>2026-04-18T07:31:23Z</time></trkpt><trkpt lat="44.606986367386256" lon="10.128155450135356"><ele>388.66666666666663</ele><time>2026-04-18T07:31:24Z</time></trkpt><trkpt lat="44.606820224892445" lon="10.12803956891604"><ele>390.3333333333333</ele><time>2026-04-18T07:31:25Z</time></trkpt><trkpt lat="44.60672046322308" lon="10.127856827992357"><ele>392.0</ele><time>2026-04-18T07:31:26Z</time></trkpt><trkpt lat="44.60666413271325" lon="10.12763475256384"><ele>392.0</ele><time>2026-04-18T07:31:27Z</time></trkpt><trkpt lat="44.60662530537538" lon="10.12742460449264"><ele>392.0</ele><time>2026-04-18T07:31:28Z</time></trkpt><trkpt lat="44.606573288017444" lon="10.12722539828689"><ele>392.0</ele><time>2026-04-18T07:31:29Z</time></trkpt><trkpt lat="44.60651218105945" lon="10.127027719570075"><ele>390.3333333333333</ele><time>2026-04-18T07:31:30Z</time></trkpt><trkpt lat="44.60643645921136" lon="10.126836630479131"><ele>388.66666666666663</ele><time>2026-04-18T07:31:31Z</time></trkpt><trkpt lat="44.60633258417502" lon="10.126664834022057"><ele>387.0</ele><time>2026-04-18T07:31:32Z</time></trkpt><trkpt lat="44.60619995690387" lon="10.126511552484695"><ele>386.66666666666663</ele><time>2026-04-18T07:31:33Z</time></trkpt><trkpt lat="44.60605885510452" lon="10.126387247914098"><ele>386.3333333333333</ele><time>2026-04-18T07:31:34Z</time></trkpt><trkpt lat="44.60592398901905" lon="10.126282178078084"><ele>386.0</ele><time>2026-04-18T07:31:35Z</time></trkpt><trkpt lat="44.605789254013175" lon="10.126167928299655"><ele>386.0</ele><time>2026-04-18T07:31:36Z</time></trkpt><trkpt lat="44.60566246826229" lon="10.126054062021664"><ele>386.0</ele><time>2026-04-18T07:31:37Z</time></trkpt><trkpt lat="44.605533330617334" lon="10.125937144469297"><ele>386.0</ele><time>2026-04-18T07:31:38Z</time></trkpt><trkpt lat="44.60540581208571" lon="10.125829335153462"><ele>386.5</ele><time>2026-04-18T07:31:39Z</time></trkpt><trkpt lat="44.60527963824955" lon="10.125715186940226"><ele>387.0</ele><time>2026-04-18T07:31:40Z</time></trkpt><trkpt lat="44.605156594298" lon="10.125598865362548"><ele>387.5</ele><time>2026-04-18T07:31:41Z</time></trkpt><trkpt lat="44.60505092328396" lon="10.125504846336582"><ele>388.0</ele><time>2026-04-18T07:31:42Z</time></trkpt><trkpt lat="44.60493847620038" lon="10.125410944560597"><ele>388.0</ele><time>2026-04-18T07:31:43Z</time></trkpt><trkpt lat="44.604827165966604" lon="10.12531416654064"><ele>388.0</ele><time>2026-04-18T07:31:44Z</time></trkpt><trkpt lat="44.60471872237894" lon="10.125209163056024"><ele>388.0</ele><time>2026-04-18T07:31:45Z</time></trkpt><trkpt lat="44.60460569669393" lon="10.125112914750947"><ele>388.0</ele><time>2026-04-18T07:31:46Z</time></trkpt><trkpt lat="44.60450254920252" lon="10.12502488708919"><ele>389.0</ele><time>2026-04-18T07:31:47Z</time></trkpt><trkpt lat="44.60441212323085" lon="10.124936179672652"><ele>390.0</ele><time>2026-04-18T07:31:48Z</time></trkpt><trkpt lat="44.60431385513958" lon="10.124849383541358"><ele>391.0</ele><time>2026-04-18T07:31:49Z</time></trkpt><trkpt lat="44.60421574673757" lon="10.124772662877474"><ele>392.0</ele><time>2026-04-18T07:31:50Z</time></trkpt><trkpt lat="44.604148984539066" lon="10.124688953826892"><ele>393.0</ele><time>2026-04-18T07:31:51Z</time></trkpt><trkpt lat="44.60409381876595" lon="10.124640041807591"><ele>393.0</ele><time>2026-04-18T07:31:52Z</time></trkpt><trkpt lat="44.60393422259634" lon="10.124869033303277"><ele>393.0</ele><time>2026-04-18T07:31:54Z</time></trkpt><trkpt lat="44.60386749493822" lon="10.125022554936654"><ele>393.0</ele><time>2026-04-18T07:31:55Z</time></trkpt><trkpt lat="44.60376497273954" lon="10.125164780882015"><ele>395.33333333333337</ele><time>2026-04-18T07:31:56Z</time></trkpt><trkpt lat="44.603617257468315" lon="10.125301468388361"><ele>397.6666666666667</ele><time>2026-04-18T07:31:57Z</time></trkpt><trkpt lat="44.6034695035925" lon="10.125435525356956"><ele>400.0</ele><time>2026-04-18T07:31:58Z</time></trkpt><trkpt lat="44.60329983953888" lon="10.12553109810875"><ele>400.0</ele><time>2026-04-18T07:31:59Z</time></trkpt><trkpt lat="44.603156417408236" lon="10.12561445766786"><ele>400.0</ele><time>2026-04-18T07:32:00Z</time></trkpt><trkpt lat="44.60303520142049" lon="10.125671354978543"><ele>400.0</ele><time>2026-04-18T07:32:01Z</time></trkpt><trkpt lat="44.602937539840774" lon="10.12579354457149"><ele>400.0</ele><time>2026-04-18T07:32:02Z</time></trkpt><trkpt lat="44.602837206072316" lon="10.125984358354042"><ele>402.0</ele><time>2026-04-18T07:32:03Z</time></trkpt><trkpt lat="44.60274110488391" lon="10.126219854366228"><ele>404.0</ele><time>2026-04-18T07:32:04Z</time></trkpt><trkpt lat="44.60263839785747" lon="10.126451212601967"><ele>406.0</ele><time>2026-04-18T07:32:05Z</time></trkpt><trkpt lat="44.602530239467725" lon="10.126662313742026"><ele>409.6666666666667</ele><time>2026-04-18T07:32:06Z</time></trkpt><trkpt lat="44.60242268957379" lon="10.126872366850447"><ele>413.33333333333337</ele><time>2026-04-18T07:32:07Z</time></trkpt><trkpt lat="44.60231415223081" lon="10.127076986130847"><ele>417.0</ele><time>2026-04-18T07:32:08Z</time></trkpt><trkpt lat="44.602197386379174" lon="10.12725171387198"><ele>419.0</ele><time>2026-04-18T07:32:09Z</time></trkpt><trkpt lat="44.60208304214833" lon="10.12739882606147"><ele>421.0</ele><time>2026-04-18T07:32:10Z</time></trkpt><trkpt lat="44.60197158888336" lon="10.127548615071706"><ele>423.0</ele><time>2026-04-18T07:32:11Z</time></trkpt><trkpt lat="44.60185123729755" lon="10.127690566134463"><ele>423.0</ele><time>2026-04-18T07:32:12Z</time></trkpt><trkpt lat="44.60172144830713" lon="10.127837929911507"><ele>423.0</ele><time>2026-04-18T07:32:13Z</time></trkpt><trkpt lat="44.60158858671098" lon="10.128009405921185"><ele>423.0</ele><time>2026-04-18T07:32:13.999Z</time></trkpt><trkpt lat="44.601457761360955" lon="10.128232293297255"><ele>424.0</ele><time>2026-04-18T07:32:14.999Z</time></trkpt><trkpt lat="44.6013378156355" lon="10.128491915436728"><ele>425.0</ele><time>2026-04-18T07:32:15.999Z</time></trkpt><trkpt lat="44.601214089737084" lon="10.128757708153616"><ele>426.0</ele><time>2026-04-18T07:32:16.999Z</time></trkpt><trkpt lat="44.60109127836827" lon="10.128991538406053"><ele>430.66666666666663</ele><time>2026-04-18T07:32:17.999Z</time></trkpt><trkpt lat="44.60099114478791" lon="10.12918789798801"><ele>435.3333333333333</ele><time>2026-04-18T07:32:18.999Z</time></trkpt><trkpt lat="44.60092410466626" lon="10.129410646506527"><ele>440.0</ele><time>2026-04-18T07:32:19.999Z</time></trkpt><trkpt lat="44.600880313124975" lon="10.129687323217581"><ele>444.0</ele><time>2026-04-18T07:32:20.999Z</time></trkpt><trkpt lat="44.6008360355797" lon="10.129980483725138"><ele>448.0</ele><time>2026-04-18T07:32:21.999Z</time></trkpt><trkpt lat="44.600788008732366" lon="10.130261062471353"><ele>452.0</ele><time>2026-04-18T07:32:22.999Z</time></trkpt><trkpt lat="44.600731400072824" lon="10.13054591534851"><ele>456.3333333333333</ele><time>2026-04-18T07:32:23.999Z</time></trkpt><trkpt lat="44.600651824776364" lon="10.130779474601507"><ele>460.66666666666663</ele><time>2026-04-18T07:32:24.999Z</time></trkpt><trkpt lat="44.60057150299093" lon="10.130978938233056"><ele>465.0</ele><time>2026-04-18T07:32:25.999Z</time></trkpt><trkpt lat="44.60044197924293" lon="10.131128059920407"><ele>463.66666666666663</ele><time>2026-04-18T07:32:26.999Z</time></trkpt><trkpt lat="44.60027563218506" lon="10.131288831551183"><ele>462.3333333333333</ele><time>2026-04-18T07:32:27.999Z</time></trkpt><trkpt lat="44.60010179141911" lon="10.131445082950963"><ele>461.0</ele><time>2026-04-18T07:32:28.999Z</time></trkpt><trkpt lat="44.59994214372479" lon="10.13161441110592"><ele>464.0</ele><time>2026-04-18T07:32:29.999Z</time></trkpt><trkpt lat="44.599768159199655" lon="10.131769625040022"><ele>467.0</ele><time>2026-04-18T07:32:30.999Z</time></trkpt><trkpt lat="44.5995933546529" lon="10.131899796006035"><ele>470.0</ele><time>2026-04-18T07:32:31.999Z</time></trkpt><trkpt lat="44.59942959856283" lon="10.132058359839299"><ele>470.0</ele><time>2026-04-18T07:32:32.999Z</time></trkpt><trkpt lat="44.59923435420147" lon="10.13215271800232"><ele>470.0</ele><time>2026-04-18T07:32:33.999Z</time></trkpt><trkpt lat="44.59903318713188" lon="10.13225387973181"><ele>470.0</ele><time>2026-04-18T07:32:34.999Z</time></trkpt><trkpt lat="44.59883613482717" lon="10.132375402820568"><ele>474.66666666666663</ele><time>2026-04-18T07:32:35.999Z</time></trkpt><trkpt lat="44.5986270066253" lon="10.132482445897073"><ele>479.33333333333337</ele><time>2026-04-18T07:32:36.999Z</time></trkpt><trkpt lat="44.59841968591667" lon="10.132588168135808"><ele>484.0</ele><time>2026-04-18T07:32:37.999Z</time></trkpt><trkpt lat="44.598203206940035" lon="10.132699468317076"><ele>484.0</ele><time>2026-04-18T07:32:38.999Z</time></trkpt><trkpt lat="44.597991485878545" lon="10.132809636788469"><ele>484.0</ele><time>2026-04-18T07:32:39.999Z</time></trkpt><trkpt lat="44.59778284527426" lon="10.132916965274548"><ele>484.0</ele><time>2026-04-18T07:32:40.999Z</time></trkpt><trkpt lat="44.59758640631905" lon="10.133006096109098"><ele>484.0</ele><time>2026-04-18T07:32:41.999Z</time></trkpt><trkpt lat="44.597407584504005" lon="10.133086840409131"><ele>484.0</ele><time>2026-04-18T07:32:42.999Z</time></trkpt><trkpt lat="44.59723959996894" lon="10.13317436070908"><ele>484.0</ele><time>2026-04-18T07:32:43.999Z</time></trkpt><trkpt lat="44.59708681881924" lon="10.133282896544678"><ele>487.0</ele><time>2026-04-18T07:32:44.999Z</time></trkpt><trkpt lat="44.596942670465886" lon="10.133456901271186"><ele>490.0</ele><time>2026-04-18T07:32:45.999Z</time></trkpt><trkpt lat="44.596818384019365" lon="10.13369921868333"><ele>493.0</ele><time>2026-04-18T07:32:46.999Z</time></trkpt><trkpt lat="44.59671572442725" lon="10.1339495352243"><ele>497.25</ele><time>2026-04-18T07:32:47.999Z</time></trkpt><trkpt lat="44.596608050343065" lon="10.1341300300492"><ele>501.5</ele><time>2026-04-18T07:32:48.999Z</time></trkpt><trkpt lat="44.59650460065823" lon="10.13426240003898"><ele>505.75</ele><time>2026-04-18T07:32:49.999Z</time></trkpt><trkpt lat="44.596375838625754" lon="10.134336323332883"><ele>510.0</ele><time>2026-04-18T07:32:50.999Z</time></trkpt><trkpt lat="44.59623277383944" lon="10.134438595938475"><ele>508.0</ele><time>2026-04-18T07:32:51.999Z</time></trkpt><trkpt lat="44.59608873199188" lon="10.134512254338201"><ele>506.0</ele><time>2026-04-18T07:32:52.999Z</time></trkpt><trkpt lat="44.595952164390354" lon="10.134611688312168"><ele>504.0</ele><time>2026-04-18T07:32:53.999Z</time></trkpt><trkpt lat="44.59578999346556" lon="10.134747352027011"><ele>511.5</ele><time>2026-04-18T07:32:54.999Z</time></trkpt><trkpt lat="44.5956111747033" lon="10.134954568606036"><ele>519.0</ele><time>2026-04-18T07:32:56Z</time></trkpt><trkpt lat="44.59543193748284" lon="10.135170053957157"><ele>513.0</ele><time>2026-04-18T07:32:57Z</time></trkpt><trkpt lat="44.595261385334105" lon="10.135386329787334"><ele>507.0</ele><time>2026-04-18T07:32:58Z</time></trkpt><trkpt lat="44.59507939950977" lon="10.135599225122943"><ele>513.6666666666666</ele><time>2026-04-18T07:32:59Z</time></trkpt><trkpt lat="44.59492082231424" lon="10.135793627624917"><ele>520.3333333333333</ele><time>2026-04-18T07:33:00Z</time></trkpt><trkpt lat="44.59478123468575" lon="10.135964778223798"><ele>527.0</ele><time>2026-04-18T07:33:01Z</time></trkpt><trkpt lat="44.59467192612807" lon="10.136114054072394"><ele>527.0</ele><time>2026-04-18T07:33:02Z</time></trkpt><trkpt lat="44.59459752384569" lon="10.1362762188302"><ele>527.0</ele><time>2026-04-18T07:33:03Z</time></trkpt><trkpt lat="44.59455146383998" lon="10.136502388925507"><ele>527.0</ele><time>2026-04-18T07:33:04Z</time></trkpt><trkpt lat="44.59454682595618" lon="10.136760016189033"><ele>530.6666666666666</ele><time>2026-04-18T07:33:05Z</time></trkpt><trkpt lat="44.59460048101708" lon="10.13702217010053"><ele>534.3333333333334</ele><time>2026-04-18T07:33:06Z</time></trkpt><trkpt lat="44.59470979791458" lon="10.137298639227625"><ele>538.0</ele><time>2026-04-18T07:33:07Z</time></trkpt><trkpt lat="44.594838720933986" lon="10.137567114001222"><ele>538.3333333333334</ele><time>2026-04-18T07:33:08Z</time></trkpt><trkpt lat="44.59492014810661" lon="10.137854396844874"><ele>538.6666666666666</ele><time>2026-04-18T07:33:09Z</time></trkpt><trkpt lat="44.59503647101927" lon="10.138128894663604"><ele>539.0</ele><time>2026-04-18T07:33:10Z</time></trkpt><trkpt lat="44.59511697023312" lon="10.138438354593653"><ele>539.0</ele><time>2026-04-18T07:33:11Z</time></trkpt><trkpt lat="44.5951970437233" lon="10.138738691550403"><ele>539.0</ele><time>2026-04-18T07:33:12Z</time></trkpt><trkpt lat="44.595273658473936" lon="10.139005173155686"><ele>539.0</ele><time>2026-04-18T07:33:13Z</time></trkpt><trkpt lat="44.5953148878649" lon="10.139251034561712"><ele>538.0</ele><time>2026-04-18T07:33:14Z</time></trkpt><trkpt lat="44.59532949257406" lon="10.139455046810177"><ele>537.0</ele><time>2026-04-18T07:33:15Z</time></trkpt><trkpt lat="44.59529926072596" lon="10.13964643822085"><ele>536.0</ele><time>2026-04-18T07:33:16Z</time></trkpt><trkpt lat="44.59522768374874" lon="10.13988239150476"><ele>539.0</ele><time>2026-04-18T07:33:17Z</time></trkpt><trkpt lat="44.59515940190908" lon="10.140150136904202"><ele>542.0</ele><time>2026-04-18T07:33:18Z</time></trkpt><trkpt lat="44.59507821122311" lon="10.140396769317539"><ele>545.0</ele><time>2026-04-18T07:33:19Z</time></trkpt><trkpt lat="44.59499939772483" lon="10.140669480172406"><ele>549.6666666666666</ele><time>2026-04-18T07:33:20Z</time></trkpt><trkpt lat="44.59492337264011" lon="10.140939903920332"><ele>554.3333333333334</ele><time>2026-04-18T07:33:21Z</time></trkpt><trkpt lat="44.5948392096012" lon="10.1412121202835"><ele>559.0</ele><time>2026-04-18T07:33:22Z</time></trkpt><trkpt lat="44.59474550763795" lon="10.141476438130352"><ele>556.3333333333334</ele><time>2026-04-18T07:33:23Z</time></trkpt><trkpt lat="44.59460590747661" lon="10.14167551699732"><ele>553.6666666666666</ele><time>2026-04-18T07:33:24Z</time></trkpt><trkpt lat="44.59447863554061" lon="10.141842501986066"><ele>551.0</ele><time>2026-04-18T07:33:25Z</time></trkpt><trkpt lat="44.59438021673345" lon="10.142000788739521"><ele>551.0</ele><time>2026-04-18T07:33:26Z</time></trkpt><trkpt lat="44.59429508555407" lon="10.142184833939456"><ele>551.0</ele><time>2026-04-18T07:33:27Z</time></trkpt><trkpt lat="44.594273810198025" lon="10.142426879318384"><ele>551.0</ele><time>2026-04-18T07:33:28Z</time></trkpt><trkpt lat="44.594287790577084" lon="10.142713251894463"><ele>555.6666666666666</ele><time>2026-04-18T07:33:29Z</time></trkpt><trkpt lat="44.5942988420931" lon="10.142974505671566"><ele>560.3333333333334</ele><time>2026-04-18T07:33:30Z</time></trkpt><trkpt lat="44.594271281330606" lon="10.143170979831035"><ele>565.0</ele><time>2026-04-18T07:33:31Z</time></trkpt><trkpt lat="44.594191680683906" lon="10.143303843882975"><ele>570.3333333333334</ele><time>2026-04-18T07:33:32Z</time></trkpt><trkpt lat="44.59406247440722" lon="10.14338702427858"><ele>575.6666666666666</ele><time>2026-04-18T07:33:33Z</time></trkpt><trkpt lat="44.59389307644961" lon="10.143510001825145"><ele>581.0</ele><time>2026-04-18T07:33:34Z</time></trkpt><trkpt lat="44.59371918610052" lon="10.143664066592024"><ele>578.5</ele><time>2026-04-18T07:33:35Z</time></trkpt><trkpt lat="44.59350791780851" lon="10.143792206598963"><ele>576.0</ele><time>2026-04-18T07:33:36Z</time></trkpt><trkpt lat="44.593308506024826" lon="10.143939567207328"><ele>581.3333333333334</ele><time>2026-04-18T07:33:37Z</time></trkpt><trkpt lat="44.593116110027424" lon="10.144086055291679"><ele>586.6666666666667</ele><time>2026-04-18T07:33:38Z</time></trkpt><trkpt lat="44.5929492750225" lon="10.144198972702393"><ele>592.0</ele><time>2026-04-18T07:33:39Z</time></trkpt><trkpt lat="44.59279445734317" lon="10.144244550351486"><ele>592.0</ele><time>2026-04-18T07:33:40Z</time></trkpt><trkpt lat="44.59262249919972" lon="10.144216878938439"><ele>592.0</ele><time>2026-04-18T07:33:41Z</time></trkpt><trkpt lat="44.59244763759249" lon="10.144104610052503"><ele>592.0</ele><time>2026-04-18T07:33:42Z</time></trkpt><trkpt lat="44.592258544528676" lon="10.143958565990193"><ele>594.0</ele><time>2026-04-18T07:33:43Z</time></trkpt><trkpt lat="44.59207358435211" lon="10.14382238875703"><ele>596.0</ele><time>2026-04-18T07:33:44Z</time></trkpt><trkpt lat="44.59192037791699" lon="10.14369958309446"><ele>598.0</ele><time>2026-04-18T07:33:45Z</time></trkpt><trkpt lat="44.59178421498327" lon="10.143607357979539"><ele>598.0</ele><time>2026-04-18T07:33:46Z</time></trkpt><trkpt lat="44.591654484918834" lon="10.143555599693137"><ele>598.0</ele><time>2026-04-18T07:33:47Z</time></trkpt><trkpt lat="44.59154193149907" lon="10.143598037723619"><ele>598.0</ele><time>2026-04-18T07:33:48Z</time></trkpt><trkpt lat="44.59142601273956" lon="10.1437220644203"><ele>598.0</ele><time>2026-04-18T07:33:49Z</time></trkpt><trkpt lat="44.591348114688344" lon="10.143929592191133"><ele>598.3333333333334</ele><time>2026-04-18T07:33:50Z</time></trkpt><trkpt lat="44.59134270393766" lon="10.144175669638225"><ele>598.6666666666666</ele><time>2026-04-18T07:33:51Z</time></trkpt><trkpt lat="44.59139693073673" lon="10.144447235245243"><ele>599.0</ele><time>2026-04-18T07:33:52Z</time></trkpt><trkpt lat="44.591449772065886" lon="10.144742651156571"><ele>602.6666666666666</ele><time>2026-04-18T07:33:53Z</time></trkpt><trkpt lat="44.59149230603095" lon="10.145054167256061"><ele>606.3333333333334</ele><time>2026-04-18T07:33:54Z</time></trkpt><trkpt lat="44.59151083930855" lon="10.145346346460334"><ele>610.0</ele><time>2026-04-18T07:33:55Z</time></trkpt><trkpt lat="44.59153326070996" lon="10.145620393740437"><ele>613.0</ele><time>2026-04-18T07:33:56Z</time></trkpt><trkpt lat="44.5914846931525" lon="10.145865240875231"><ele>616.0</ele><time>2026-04-18T07:33:57Z</time></trkpt><trkpt lat="44.591415658403136" lon="10.146154431381603"><ele>619.0</ele><time>2026-04-18T07:33:58Z</time></trkpt><trkpt lat="44.591350530275754" lon="10.14648114004861"><ele>614.3333333333334</ele><time>2026-04-18T07:33:59Z</time></trkpt><trkpt lat="44.591265538925356" lon="10.146779205580897"><ele>609.6666666666666</ele><time>2026-04-18T07:34:00Z</time></trkpt><trkpt lat="44.59114405289313" lon="10.147032613173431"><ele>605.0</ele><time>2026-04-18T07:34:01Z</time></trkpt><trkpt lat="44.59106987719586" lon="10.147260397998744"><ele>608.0</ele><time>2026-04-18T07:34:02Z</time></trkpt><trkpt lat="44.591032670997265" lon="10.14747217939148"><ele>611.0</ele><time>2026-04-18T07:34:03Z</time></trkpt><trkpt lat="44.591064097231296" lon="10.147739124174421"><ele>614.0</ele><time>2026-04-18T07:34:04Z</time></trkpt><trkpt lat="44.59111243134898" lon="10.1480343390626"><ele>618.3333333333333</ele><time>2026-04-18T07:34:05Z</time></trkpt><trkpt lat="44.59104750713426" lon="10.148235198162633"><ele>622.6666666666666</ele><time>2026-04-18T07:34:06Z</time></trkpt><trkpt lat="44.59094700618989" lon="10.148384814898652"><ele>627.0</ele><time>2026-04-18T07:34:07Z</time></trkpt><trkpt lat="44.590788713684724" lon="10.148518034895782"><ele>627.0</ele><time>2026-04-18T07:34:08Z</time></trkpt><trkpt lat="44.59059647418777" lon="10.148670728779267"><ele>627.0</ele><time>2026-04-18T07:34:09Z</time></trkpt><trkpt lat="44.59039682762702" lon="10.148850842031038"><ele>630.3333333333334</ele><time>2026-04-18T07:34:10Z</time></trkpt><trkpt lat="44.59020124816124" lon="10.14902584890623"><ele>633.6666666666667</ele><time>2026-04-18T07:34:11Z</time></trkpt><trkpt lat="44.59002194558645" lon="10.149188016641986"><ele>637.0</ele><time>2026-04-18T07:34:12Z</time></trkpt><trkpt lat="44.58984569874399" lon="10.149257954287508"><ele>637.0</ele><time>2026-04-18T07:34:13Z</time></trkpt><trkpt lat="44.589623841847185" lon="10.149319614009721"><ele>637.0</ele><time>2026-04-18T07:34:14Z</time></trkpt><trkpt lat="44.589398499270054" lon="10.149413694760474"><ele>637.5</ele><time>2026-04-18T07:34:14.999Z</time></trkpt><trkpt lat="44.58917871856139" lon="10.149497672993018"><ele>638.0</ele><time>2026-04-18T07:34:15.999Z</time></trkpt><trkpt lat="44.58896416978845" lon="10.149608289632143"><ele>638.0</ele><time>2026-04-18T07:34:16.999Z</time></trkpt><trkpt lat="44.58877713536422" lon="10.149723908538455"><ele>638.0</ele><time>2026-04-18T07:34:17.999Z</time></trkpt><trkpt lat="44.58862332041319" lon="10.149826813320288"><ele>638.0</ele><time>2026-04-18T07:34:18.999Z</time></trkpt><trkpt lat="44.588508709652594" lon="10.149933811923992"><ele>640.3333333333333</ele><time>2026-04-18T07:34:19.999Z</time></trkpt><trkpt lat="44.588418741559096" lon="10.150133796816505"><ele>642.6666666666666</ele><time>2026-04-18T07:34:20.999Z</time></trkpt><trkpt lat="44.58835952781208" lon="10.150405085298802"><ele>645.0</ele><time>2026-04-18T07:34:21.999Z</time></trkpt><trkpt lat="44.58829099242515" lon="10.150709869982983"><ele>650.0</ele><time>2026-04-18T07:34:22.999Z</time></trkpt><trkpt lat="44.58821038085993" lon="10.15091914014077"><ele>655.0</ele><time>2026-04-18T07:34:23.999Z</time></trkpt><trkpt lat="44.58812405386741" lon="10.151032527290985"><ele>660.0</ele><time>2026-04-18T07:34:24.999Z</time></trkpt><trkpt lat="44.587980247115695" lon="10.151213736982257"><ele>660.0</ele><time>2026-04-18T07:34:25.999Z</time></trkpt><trkpt lat="44.58781683303944" lon="10.151396297976408"><ele>660.0</ele><time>2026-04-18T07:34:26.999Z</time></trkpt><trkpt lat="44.58766273901706" lon="10.151592985395082"><ele>660.0</ele><time>2026-04-18T07:34:27.999Z</time></trkpt><trkpt lat="44.58753885493648" lon="10.151737127994227"><ele>660.0</ele><time>2026-04-18T07:34:28.999Z</time></trkpt><trkpt lat="44.58745175324398" lon="10.151908636347263"><ele>660.0</ele><time>2026-04-18T07:34:29.999Z</time></trkpt><trkpt lat="44.587393936208386" lon="10.152100001476082"><ele>660.0</ele><time>2026-04-18T07:34:30.999Z</time></trkpt><trkpt lat="44.587422883730866" lon="10.152384731285943"><ele>663.3333333333334</ele><time>2026-04-18T07:34:31.999Z</time></trkpt><trkpt lat="44.58743946379327" lon="10.152708701681725"><ele>666.6666666666667</ele><time>2026-04-18T07:34:32.999Z</time></trkpt><trkpt lat="44.587429100893615" lon="10.152995664762669"><ele>670.0</ele><time>2026-04-18T07:34:33.999Z</time></trkpt><trkpt lat="44.587439826711766" lon="10.153248109667071"><ele>671.3333333333334</ele><time>2026-04-18T07:34:34.999Z</time></trkpt><trkpt lat="44.5874445563431" lon="10.153463679203835"><ele>672.6666666666666</ele><time>2026-04-18T07:34:35.999Z</time></trkpt><trkpt lat="44.587507222402174" lon="10.153671010575389"><ele>674.0</ele><time>2026-04-18T07:34:36.999Z</time></trkpt><trkpt lat="44.587638825086394" lon="10.153904104000457"><ele>672.3333333333333</ele><time>2026-04-18T07:34:37.999Z</time></trkpt><trkpt lat="44.587733803973485" lon="10.154148314252383"><ele>670.6666666666666</ele><time>2026-04-18T07:34:38.999Z</time></trkpt><trkpt lat="44.58774271119767" lon="10.154423145209018"><ele>669.0</ele><time>2026-04-18T07:34:39.999Z</time></trkpt><trkpt lat="44.587762273805275" lon="10.15474674713343"><ele>670.5</ele><time>2026-04-18T07:34:40.999Z</time></trkpt><trkpt lat="44.587818082504704" lon="10.155077617968558"><ele>672.0</ele><time>2026-04-18T07:34:41.999Z</time></trkpt><trkpt lat="44.58789450500933" lon="10.155375561782089"><ele>682.0</ele><time>2026-04-18T07:34:42.999Z</time></trkpt><trkpt lat="44.5878864048023" lon="10.155662715936408"><ele>692.0</ele><time>2026-04-18T07:34:43.999Z</time></trkpt><trkpt lat="44.58786295476679" lon="10.155965709277448"><ele>702.0</ele><time>2026-04-18T07:34:44.999Z</time></trkpt><trkpt lat="44.587844739076615" lon="10.156288999060035"><ele>696.6666666666666</ele><time>2026-04-18T07:34:45.999Z</time></trkpt><trkpt lat="44.58782550930622" lon="10.156585275237763"><ele>691.3333333333333</ele><time>2026-04-18T07:34:46.999Z</time></trkpt><trkpt lat="44.58777677995646" lon="10.156841368695085"><ele>686.0</ele><time>2026-04-18T07:34:47.999Z</time></trkpt><trkpt lat="44.58768614665259" lon="10.15702608317373"><ele>686.0</ele><time>2026-04-18T07:34:48.999Z</time></trkpt><trkpt lat="44.58758504381183" lon="10.15720470543644"><ele>686.0</ele><time>2026-04-18T07:34:49.999Z</time></trkpt><trkpt lat="44.58746748173229" lon="10.157340589329051"><ele>686.0</ele><time>2026-04-18T07:34:50.999Z</time></trkpt><trkpt lat="44.587319529122006" lon="10.157431281638349"><ele>688.25</ele><time>2026-04-18T07:34:51.999Z</time></trkpt><trkpt lat="44.58717629437879" lon="10.157538982731102"><ele>690.5</ele><time>2026-04-18T07:34:52.999Z</time></trkpt><trkpt lat="44.58706188267477" lon="10.157636036838"><ele>692.75</ele><time>2026-04-18T07:34:53.999Z</time></trkpt><trkpt lat="44.58698528770536" lon="10.157779731477424"><ele>695.0</ele><time>2026-04-18T07:34:54.999Z</time></trkpt><trkpt lat="44.58695160734371" lon="10.157983948425251"><ele>697.0</ele><time>2026-04-18T07:34:55.999Z</time></trkpt><trkpt lat="44.58695269232702" lon="10.158218269125033"><ele>699.0</ele><time>2026-04-18T07:34:56.999Z</time></trkpt><trkpt lat="44.58692734086289" lon="10.158433405903665"><ele>701.0</ele><time>2026-04-18T07:34:57.999Z</time></trkpt><trkpt lat="44.58689519229447" lon="10.158614345310395"><ele>701.0</ele><time>2026-04-18T07:34:58.999Z</time></trkpt><trkpt lat="44.58682993655287" lon="10.158758904448787"><ele>701.0</ele><time>2026-04-18T07:34:59.999Z</time></trkpt><trkpt lat="44.58672601995177" lon="10.158861847163829"><ele>701.0</ele><time>2026-04-18T07:35:00.999Z</time></trkpt><trkpt lat="44.58657951375643" lon="10.159005116874775"><ele>701.0</ele><time>2026-04-18T07:35:02Z</time></trkpt><trkpt lat="44.586408509496145" lon="10.159097138208613"><ele>700.0</ele><time>2026-04-18T07:35:03Z</time></trkpt><trkpt lat="44.58625214545039" lon="10.159204029367398"><ele>699.0</ele><time>2026-04-18T07:35:04Z</time></trkpt><trkpt lat="44.58611478621477" lon="10.159311266813106"><ele>698.0</ele><time>2026-04-18T07:35:05Z</time></trkpt><trkpt lat="44.585967681727354" lon="10.159423605731169"><ele>698.0</ele><time>2026-04-18T07:35:06Z</time></trkpt><trkpt lat="44.58580846012339" lon="10.159538961952181"><ele>698.0</ele><time>2026-04-18T07:35:07Z</time></trkpt><trkpt lat="44.58564543075077" lon="10.159663017000355"><ele>698.0</ele><time>2026-04-18T07:35:08Z</time></trkpt><trkpt lat="44.58548546442489" lon="10.159751781287744"><ele>698.75</ele><time>2026-04-18T07:35:09Z</time></trkpt><trkpt lat="44.58533838454367" lon="10.159813325930848"><ele>699.5</ele><time>2026-04-18T07:35:10Z</time></trkpt><trkpt lat="44.58522085281336" lon="10.159768408166961"><ele>700.25</ele><time>2026-04-18T07:35:11Z</time></trkpt><trkpt lat="44.58515944117113" lon="10.159654639678292"><ele>701.0</ele><time>2026-04-18T07:35:12Z</time></trkpt><trkpt lat="44.585143436711974" lon="10.159504849258214"><ele>701.0</ele><time>2026-04-18T07:35:13Z</time></trkpt><trkpt lat="44.58508585236521" lon="10.159314848770006"><ele>701.0</ele><time>2026-04-18T07:35:14Z</time></trkpt><trkpt lat="44.58504189443583" lon="10.159156560839435"><ele>701.0</ele><time>2026-04-18T07:35:15Z</time></trkpt><trkpt lat="44.58494879188752" lon="10.15906192039549"><ele>701.0</ele><time>2026-04-18T07:35:16Z</time></trkpt><trkpt lat="44.584808577148145" lon="10.159060647641967"><ele>701.0</ele><time>2026-04-18T07:35:17Z</time></trkpt><trkpt lat="44.58467048535096" lon="10.159158758160483"><ele>701.0</ele><time>2026-04-18T07:35:18Z</time></trkpt><trkpt lat="44.58458884647517" lon="10.15934363574822"><ele>701.0</ele><time>2026-04-18T07:35:19Z</time></trkpt><trkpt lat="44.584558801429125" lon="10.159603769307127"><ele>701.3333333333333</ele><time>2026-04-18T07:35:20Z</time></trkpt><trkpt lat="44.584506405398685" lon="10.159889041323762"><ele>701.6666666666666</ele><time>2026-04-18T07:35:21Z</time></trkpt><trkpt lat="44.584446547242" lon="10.160168130982996"><ele>702.0</ele><time>2026-04-18T07:35:22Z</time></trkpt><trkpt lat="44.58437016762759" lon="10.160419338947358"><ele>702.0</ele><time>2026-04-18T07:35:23Z</time></trkpt><trkpt lat="44.58426571751533" lon="10.16068279132973"><ele>702.0</ele><time>2026-04-18T07:35:24Z</time></trkpt><trkpt lat="44.584151010152624" lon="10.16095816199992"><ele>702.0</ele><time>2026-04-18T07:35:25Z</time></trkpt><trkpt lat="44.584042225628984" lon="10.16122458479837"><ele>706.6666666666666</ele><time>2026-04-18T07:35:26Z</time></trkpt><trkpt lat="44.583955436783576" lon="10.161483400437577"><ele>711.3333333333333</ele><time>2026-04-18T07:35:27Z</time></trkpt><trkpt lat="44.583849659058714" lon="10.161698284629814"><ele>716.0</ele><time>2026-04-18T07:35:28Z</time></trkpt><trkpt lat="44.5837652063297" lon="10.1618962855524"><ele>717.6666666666666</ele><time>2026-04-18T07:35:29Z</time></trkpt><trkpt lat="44.58366175448093" lon="10.162045307243403"><ele>719.3333333333334</ele><time>2026-04-18T07:35:30Z</time></trkpt><trkpt lat="44.583535468776326" lon="10.162197199083893"><ele>721.0</ele><time>2026-04-18T07:35:31Z</time></trkpt><trkpt lat="44.583356876724935" lon="10.162282724301148"><ele>721.0</ele><time>2026-04-18T07:35:32Z</time></trkpt><trkpt lat="44.583194859311405" lon="10.162310699168618"><ele>721.0</ele><time>2026-04-18T07:35:33Z</time></trkpt><trkpt lat="44.5830519780844" lon="10.162238364945583"><ele>721.0</ele><time>2026-04-18T07:35:34Z</time></trkpt><trkpt lat="44.58292823940878" lon="10.162041773258732"><ele>723.0</ele><time>2026-04-18T07:35:35Z</time></trkpt><trkpt lat="44.58277648258155" lon="10.161830192791363"><ele>725.0</ele><time>2026-04-18T07:35:36Z</time></trkpt><trkpt lat="44.58261378542711" lon="10.161619884253259"><ele>727.0</ele><time>2026-04-18T07:35:37Z</time></trkpt><trkpt lat="44.582453605410024" lon="10.161395630550548"><ele>727.0</ele><time>2026-04-18T07:35:38Z</time></trkpt><trkpt lat="44.58229925453041" lon="10.161169666062264"><ele>727.0</ele><time>2026-04-18T07:35:39Z</time></trkpt><trkpt lat="44.582194469982134" lon="10.160898103970073"><ele>727.0</ele><time>2026-04-18T07:35:40Z</time></trkpt><trkpt lat="44.582084593836" lon="10.160628024531999"><ele>731.3333333333334</ele><time>2026-04-18T07:35:41Z</time></trkpt><trkpt lat="44.581963753152735" lon="10.160391905327563"><ele>735.6666666666666</ele><time>2026-04-18T07:35:42Z</time></trkpt><trkpt lat="44.58184372548431" lon="10.1601704013006"><ele>740.0</ele><time>2026-04-18T07:35:43Z</time></trkpt><trkpt lat="44.58174566153313" lon="10.160008621212173"><ele>740.0</ele><time>2026-04-18T07:35:44Z</time></trkpt><trkpt lat="44.5816487066406" lon="10.159920931381306"><ele>740.0</ele><time>2026-04-18T07:35:45Z</time></trkpt><trkpt lat="44.581528089010845" lon="10.159912917196793"><ele>740.0</ele><time>2026-04-18T07:35:46Z</time></trkpt><trkpt lat="44.581371609536184" lon="10.159982982158626"><ele>740.0</ele><time>2026-04-18T07:35:47Z</time></trkpt><trkpt lat="44.58119324315153" lon="10.160105240402205"><ele>740.5</ele><time>2026-04-18T07:35:48Z</time></trkpt><trkpt lat="44.580987055304" lon="10.160213614348997"><ele>741.0</ele><time>2026-04-18T07:35:49Z</time></trkpt><trkpt lat="44.58076606823071" lon="10.160321145659898"><ele>741.0</ele><time>2026-04-18T07:35:50Z</time></trkpt><trkpt lat="44.580543287874185" lon="10.160429125878892"><ele>741.0</ele><time>2026-04-18T07:35:51Z</time></trkpt><trkpt lat="44.580338145106474" lon="10.160532340698008"><ele>739.0</ele><time>2026-04-18T07:35:52Z</time></trkpt><trkpt lat="44.580154727855025" lon="10.160629966157515"><ele>737.0</ele><time>2026-04-18T07:35:53Z</time></trkpt><trkpt lat="44.5799963528281" lon="10.160726845814349"><ele>735.0</ele><time>2026-04-18T07:35:54Z</time></trkpt><trkpt lat="44.57985916985942" lon="10.160875037260682"><ele>740.5</ele><time>2026-04-18T07:35:55Z</time></trkpt><trkpt lat="44.57974140104105" lon="10.161053270939902"><ele>746.0</ele><time>2026-04-18T07:35:56Z</time></trkpt><trkpt lat="44.5796276466915" lon="10.161127392635205"><ele>751.5</ele><time>2026-04-18T07:35:57Z</time></trkpt><trkpt lat="44.57952070653668" lon="10.161120843330687"><ele>757.0</ele><time>2026-04-18T07:35:58Z</time></trkpt><trkpt lat="44.579409469564816" lon="10.161043327652122"><ele>755.6666666666667</ele><time>2026-04-18T07:35:59Z</time></trkpt><trkpt lat="44.57932116586553" lon="10.160836328820242"><ele>754.3333333333334</ele><time>2026-04-18T07:36:00Z</time></trkpt><trkpt lat="44.57919132864072" lon="10.16061991659349"><ele>753.0</ele><time>2026-04-18T07:36:01Z</time></trkpt><trkpt lat="44.57907196440991" lon="10.160372072719689"><ele>753.0</ele><time>2026-04-18T07:36:02Z</time></trkpt><trkpt lat="44.57895851190423" lon="10.16017395842165"><ele>753.0</ele><time>2026-04-18T07:36:03Z</time></trkpt><trkpt lat="44.57886000888911" lon="10.160053719963189"><ele>753.0</ele><time>2026-04-18T07:36:04Z</time></trkpt><trkpt lat="44.57874297121195" lon="10.16000127416708"><ele>753.0</ele><time>2026-04-18T07:36:05Z</time></trkpt><trkpt lat="44.57859625272634" lon="10.160043365227452"><ele>757.0</ele><time>2026-04-18T07:36:06Z</time></trkpt><trkpt lat="44.57842731299836" lon="10.160170943795496"><ele>761.0</ele><time>2026-04-18T07:36:07Z</time></trkpt><trkpt lat="44.578252975125096" lon="10.160323127831942"><ele>765.0</ele><time>2026-04-18T07:36:08Z</time></trkpt><trkpt lat="44.57808413036127" lon="10.16035728803705"><ele>765.0</ele><time>2026-04-18T07:36:09Z</time></trkpt><trkpt lat="44.57791971458433" lon="10.160283250725078"><ele>765.0</ele><time>2026-04-18T07:36:10Z</time></trkpt><trkpt lat="44.577744484428564" lon="10.160167620485089"><ele>765.0</ele><time>2026-04-18T07:36:11Z</time></trkpt><trkpt lat="44.5776214602113" lon="10.160100294992068"><ele>765.75</ele><time>2026-04-18T07:36:12Z</time></trkpt><trkpt lat="44.57750398019381" lon="10.160086917276722"><ele>766.5</ele><time>2026-04-18T07:36:13Z</time></trkpt><trkpt lat="44.57739893799092" lon="10.160184279066453"><ele>767.25</ele><time>2026-04-18T07:36:14Z</time></trkpt><trkpt lat="44.577294109735625" lon="10.16040135953608"><ele>768.0</ele><time>2026-04-18T07:36:15Z</time></trkpt><trkpt lat="44.577201951095006" lon="10.160668146615134"><ele>770.3333333333333</ele><time>2026-04-18T07:36:16Z</time></trkpt><trkpt lat="44.57709183972079" lon="10.160917012136764"><ele>772.6666666666666</ele><time>2026-04-18T07:36:16.999Z</time></trkpt><trkpt lat="44.57692237255165" lon="10.161065280945117"><ele>775.0</ele><time>2026-04-18T07:36:17.999Z</time></trkpt><trkpt lat="44.57681303170609" lon="10.161234631369465"><ele>775.0</ele><time>2026-04-18T07:36:18.999Z</time></trkpt><trkpt lat="44.576708358186316" lon="10.161396954295098"><ele>775.0</ele><time>2026-04-18T07:36:19.999Z</time></trkpt><trkpt lat="44.57663981105348" lon="10.1616689550733"><ele>775.0</ele><time>2026-04-18T07:36:20.999Z</time></trkpt><trkpt lat="44.576582935152686" lon="10.161816199265889"><ele>779.25</ele><time>2026-04-18T07:36:21.999Z</time></trkpt><trkpt lat="44.576552073254135" lon="10.162051660836328"><ele>783.5</ele><time>2026-04-18T07:36:22.999Z</time></trkpt><trkpt lat="44.57649856618934" lon="10.162173635616906"><ele>787.75</ele><time>2026-04-18T07:36:23.999Z</time></trkpt><trkpt lat="44.57647073116041" lon="10.162298216356811"><ele>792.0</ele><time>2026-04-18T07:36:24.999Z</time></trkpt><trkpt lat="44.57641247763114" lon="10.162453581768427"><ele>791.5</ele><time>2026-04-18T07:36:25.999Z</time></trkpt><trkpt lat="44.57632991748054" lon="10.162605064266716"><ele>791.0</ele><time>2026-04-18T07:36:26.999Z</time></trkpt><trkpt lat="44.576219040493164" lon="10.16271083818429"><ele>790.5</ele><time>2026-04-18T07:36:27.999Z</time></trkpt><trkpt lat="44.576090206637694" lon="10.16277853065425"><ele>790.0</ele><time>2026-04-18T07:36:28.999Z</time></trkpt><trkpt lat="44.57596764811859" lon="10.16286088219861"><ele>790.0</ele><time>2026-04-18T07:36:29.999Z</time></trkpt><trkpt lat="44.575859329055476" lon="10.162993061768093"><ele>790.0</ele><time>2026-04-18T07:36:30.999Z</time></trkpt><trkpt lat="44.57574842370735" lon="10.163138260001862"><ele>790.0</ele><time>2026-04-18T07:36:31.999Z</time></trkpt><trkpt lat="44.57565113966214" lon="10.163342656805051"><ele>796.3333333333333</ele><time>2026-04-18T07:36:32.999Z</time></trkpt><trkpt lat="44.57556694401302" lon="10.163584851995036"><ele>802.6666666666667</ele><time>2026-04-18T07:36:33.999Z</time></trkpt><trkpt lat="44.57549370253758" lon="10.163837321002188"><ele>809.0</ele><time>2026-04-18T07:36:34.999Z</time></trkpt><trkpt lat="44.57544107973557" lon="10.164093376858595"><ele>805.6666666666667</ele><time>2026-04-18T07:36:35.999Z</time></trkpt><trkpt lat="44.57541901205022" lon="10.164353289665243"><ele>802.3333333333333</ele><time>2026-04-18T07:36:36.999Z</time></trkpt><trkpt lat="44.575363416909724" lon="10.16460035181414"><ele>799.0</ele><time>2026-04-18T07:36:37.999Z</time></trkpt><trkpt lat="44.575272458681994" lon="10.164821840935087"><ele>801.75</ele><time>2026-04-18T07:36:38.999Z</time></trkpt><trkpt lat="44.57521698606525" lon="10.165038251068152"><ele>804.5</ele><time>2026-04-18T07:36:39.999Z</time></trkpt><trkpt lat="44.57519448071723" lon="10.165216085927174"><ele>807.25</ele><time>2026-04-18T07:36:40.999Z</time></trkpt><trkpt lat="44.575269260195945" lon="10.16539198140769"><ele>810.0</ele><time>2026-04-18T07:36:41.999Z</time></trkpt><trkpt lat="44.575381473617895" lon="10.165583480787781"><ele>812.0</ele><time>2026-04-18T07:36:42.999Z</time></trkpt><trkpt lat="44.575498551342285" lon="10.165778793124224"><ele>814.0</ele><time>2026-04-18T07:36:43.999Z</time></trkpt><trkpt lat="44.57550471652701" lon="10.165962278983713"><ele>816.0</ele><time>2026-04-18T07:36:44.999Z</time></trkpt><trkpt lat="44.57546023106427" lon="10.166133209352749"><ele>818.0</ele><time>2026-04-18T07:36:45.999Z</time></trkpt><trkpt lat="44.575346947095106" lon="10.166244596382564"><ele>818.0</ele><time>2026-04-18T07:36:46.999Z</time></trkpt><trkpt lat="44.57522022938184" lon="10.166295542298096"><ele>818.0</ele><time>2026-04-18T07:36:47.999Z</time></trkpt><trkpt lat="44.57508798320636" lon="10.166382433573204"><ele>818.0</ele><time>2026-04-18T07:36:48.999Z</time></trkpt><trkpt lat="44.57499249189931" lon="10.16653137664541"><ele>818.0</ele><time>2026-04-18T07:36:49.999Z</time></trkpt><trkpt lat="44.5749189552002" lon="10.16674916278137"><ele>822.6666666666667</ele><time>2026-04-18T07:36:50.999Z</time></trkpt><trkpt lat="44.57486389030623" lon="10.16703044574417"><ele>827.3333333333333</ele><time>2026-04-18T07:36:51.999Z</time></trkpt><trkpt lat="44.574794688829506" lon="10.167310021858244"><ele>832.0</ele><time>2026-04-18T07:36:52.999Z</time></trkpt><trkpt lat="44.57470589934876" lon="10.167536340765286"><ele>831.0</ele><time>2026-04-18T07:36:53.999Z</time></trkpt><trkpt lat="44.574594144037164" lon="10.167707813772045"><ele>830.0</ele><time>2026-04-18T07:36:54.999Z</time></trkpt><trkpt lat="44.57442730029079" lon="10.167830191398252"><ele>829.0</ele><time>2026-04-18T07:36:55.999Z</time></trkpt><trkpt lat="44.57423916789522" lon="10.16794707019391"><ele>829.0</ele><time>2026-04-18T07:36:56.999Z</time></trkpt><trkpt lat="44.57409451481473" lon="10.168044153664606"><ele>829.0</ele><time>2026-04-18T07:36:57.999Z</time></trkpt><trkpt lat="44.573966358466684" lon="10.168140852699366"><ele>829.0</ele><time>2026-04-18T07:36:58.999Z</time></trkpt><trkpt lat="44.5738411406249" lon="10.168236076738335"><ele>829.0</ele><time>2026-04-18T07:36:59.999Z</time></trkpt><trkpt lat="44.57373194533704" lon="10.16831165616832"><ele>831.75</ele><time>2026-04-18T07:37:00.999Z</time></trkpt><trkpt lat="44.57365116303376" lon="10.168405406165443"><ele>834.5</ele><time>2026-04-18T07:37:01.999Z</time></trkpt><trkpt lat="44.573595061499525" lon="10.168546160428242"><ele>837.25</ele><time>2026-04-18T07:37:02.999Z</time></trkpt><trkpt lat="44.57358280396486" lon="10.16873033584271"><ele>840.0</ele><time>2026-04-18T07:37:03.999Z</time></trkpt><trkpt lat="44.57362635888709" lon="10.168912511816247"><ele>845.0</ele><time>2026-04-18T07:37:04.999Z</time></trkpt><trkpt lat="44.5737130232107" lon="10.169082090104943"><ele>850.0</ele><time>2026-04-18T07:37:05.999Z</time></trkpt><trkpt lat="44.573843850061785" lon="10.169276970890868"><ele>855.0</ele><time>2026-04-18T07:37:06.999Z</time></trkpt><trkpt lat="44.57395298953478" lon="10.169520876669663"><ele>855.0</ele><time>2026-04-18T07:37:08Z</time></trkpt><trkpt lat="44.57407412155079" lon="10.169757477554162"><ele>855.0</ele><time>2026-04-18T07:37:09Z</time></trkpt><trkpt lat="44.57420214802977" lon="10.169977081857954"><ele>855.0</ele><time>2026-04-18T07:37:10Z</time></trkpt><trkpt lat="44.57431096465976" lon="10.170207157259997"><ele>856.6666666666667</ele><time>2026-04-18T07:37:11Z</time></trkpt><trkpt lat="44.574421076911705" lon="10.170426845074806"><ele>858.3333333333334</ele><time>2026-04-18T07:37:12Z</time></trkpt><trkpt lat="44.574528812598544" lon="10.170623362378558"><ele>860.0</ele><time>2026-04-18T07:37:13Z</time></trkpt><trkpt lat="44.574624571433624" lon="10.170804592133097"><ele>860.0</ele><time>2026-04-18T07:37:14Z</time></trkpt><trkpt lat="44.574654941555984" lon="10.170980695309494"><ele>860.0</ele><time>2026-04-18T07:37:15Z</time></trkpt><trkpt lat="44.57465175405044" lon="10.17116701438711"><ele>860.0</ele><time>2026-04-18T07:37:16Z</time></trkpt><trkpt lat="44.57456488886488" lon="10.171359511851458"><ele>860.0</ele><time>2026-04-18T07:37:17Z</time></trkpt><trkpt lat="44.57449823286961" lon="10.171609063436716"><ele>849.0</ele><time>2026-04-18T07:37:18Z</time></trkpt><trkpt lat="44.57444138713893" lon="10.171878930578078"><ele>838.0</ele><time>2026-04-18T07:37:19Z</time></trkpt><trkpt lat="44.57442005750223" lon="10.172150349226392"><ele>827.0</ele><time>2026-04-18T07:37:20Z</time></trkpt><trkpt lat="44.574419616973785" lon="10.172376414685868"><ele>825.6666666666667</ele><time>2026-04-18T07:37:21Z</time></trkpt><trkpt lat="44.574472093199546" lon="10.17255846798059"><ele>824.3333333333333</ele><time>2026-04-18T07:37:22Z</time></trkpt><trkpt lat="44.57459682582371" lon="10.172732905042333"><ele>823.0</ele><time>2026-04-18T07:37:23Z</time></trkpt><trkpt lat="44.57475645996775" lon="10.172896694498624"><ele>824.3333333333333</ele><time>2026-04-18T07:37:24Z</time></trkpt><trkpt lat="44.57483996425154" lon="10.1731058930116"><ele>825.6666666666667</ele><time>2026-04-18T07:37:25Z</time></trkpt><trkpt lat="44.57486563493456" lon="10.173364411804155"><ele>827.0</ele><time>2026-04-18T07:37:26Z</time></trkpt><trkpt lat="44.574888809620965" lon="10.17370419695576"><ele>825.5</ele><time>2026-04-18T07:37:27Z</time></trkpt><trkpt lat="44.574909223795416" lon="10.174036963082338"><ele>824.0</ele><time>2026-04-18T07:37:28Z</time></trkpt><trkpt lat="44.57492954393147" lon="10.174373945153869"><ele>824.0</ele><time>2026-04-18T07:37:29Z</time></trkpt><trkpt lat="44.57495642697328" lon="10.174682486038336"><ele>824.0</ele><time>2026-04-18T07:37:30Z</time></trkpt><trkpt lat="44.57497322880528" lon="10.17497645279367"><ele>824.0</ele><time>2026-04-18T07:37:31Z</time></trkpt><trkpt lat="44.57497951915318" lon="10.17524439192411"><ele>821.3333333333334</ele><time>2026-04-18T07:37:32Z</time></trkpt><trkpt lat="44.57500384593204" lon="10.175487114777253"><ele>818.6666666666667</ele><time>2026-04-18T07:37:33Z</time></trkpt><trkpt lat="44.57505270940245" lon="10.175704015637642"><ele>816.0</ele><time>2026-04-18T07:37:34Z</time></trkpt><trkpt lat="44.57516395332837" lon="10.175865984089674"><ele>812.0</ele><time>2026-04-18T07:37:35Z</time></trkpt><trkpt lat="44.57533328775598" lon="10.176000734437624"><ele>808.0</ele><time>2026-04-18T07:37:36Z</time></trkpt><trkpt lat="44.57547965056409" lon="10.176139059590454"><ele>804.0</ele><time>2026-04-18T07:37:37Z</time></trkpt><trkpt lat="44.57555417567491" lon="10.176352576880504"><ele>809.3333333333333</ele><time>2026-04-18T07:37:38Z</time></trkpt><trkpt lat="44.57560503360067" lon="10.176584606995865"><ele>814.6666666666666</ele><time>2026-04-18T07:37:39Z</time></trkpt><trkpt lat="44.575579477952296" lon="10.176852013453358"><ele>820.0</ele><time>2026-04-18T07:37:40Z</time></trkpt><trkpt lat="44.57548729985567" lon="10.177146761379062"><ele>822.0</ele><time>2026-04-18T07:37:41Z</time></trkpt><trkpt lat="44.57539686257644" lon="10.177458576773317"><ele>824.0</ele><time>2026-04-18T07:37:42Z</time></trkpt><trkpt lat="44.57528589141524" lon="10.17772027267243"><ele>812.3333333333334</ele><time>2026-04-18T07:37:43Z</time></trkpt><trkpt lat="44.57521197164714" lon="10.177965636311797"><ele>800.6666666666667</ele><time>2026-04-18T07:37:44Z</time></trkpt><trkpt lat="44.575173801452834" lon="10.178254780478952"><ele>789.0</ele><time>2026-04-18T07:37:45Z</time></trkpt><trkpt lat="44.575182623102485" lon="10.178586701824242"><ele>787.0</ele><time>2026-04-18T07:37:46Z</time></trkpt><trkpt lat="44.57521693994207" lon="10.17896174542319"><ele>785.0</ele><time>2026-04-18T07:37:47Z</time></trkpt><trkpt lat="44.57520707814954" lon="10.179306583785817"><ele>781.0</ele><time>2026-04-18T07:37:48Z</time></trkpt><trkpt lat="44.575218580890954" lon="10.179667116740093"><ele>777.0</ele><time>2026-04-18T07:37:49Z</time></trkpt><trkpt lat="44.57518881820261" lon="10.180089589250695"><ele>777.3333333333333</ele><time>2026-04-18T07:37:50Z</time></trkpt><trkpt lat="44.575155137853585" lon="10.180534924514225"><ele>777.6666666666666</ele><time>2026-04-18T07:37:51Z</time></trkpt><trkpt lat="44.575088977496314" lon="10.180645457586557"><ele>778.0</ele><time>2026-04-18T07:37:53Z</time></trkpt><trkpt lat="44.57496173586662" lon="10.180874920663621"><ele>778.0</ele><time>2026-04-18T07:37:54Z</time></trkpt><trkpt lat="44.574824062920044" lon="10.18113283330053"><ele>778.0</ele><time>2026-04-18T07:37:55Z</time></trkpt><trkpt lat="44.574737139640085" lon="10.18140258531909"><ele>778.0</ele><time>2026-04-18T07:37:56Z</time></trkpt><trkpt lat="44.57462705258173" lon="10.18164359499281"><ele>768.6666666666666</ele><time>2026-04-18T07:37:57Z</time></trkpt><trkpt lat="44.57450156715759" lon="10.18183357159647"><ele>759.3333333333333</ele><time>2026-04-18T07:37:58Z</time></trkpt><trkpt lat="44.57442555152949" lon="10.182031375445732"><ele>750.0</ele><time>2026-04-18T07:37:59Z</time></trkpt><trkpt lat="44.57435064665557" lon="10.1822245248778"><ele>751.0</ele><time>2026-04-18T07:38:00Z</time></trkpt><trkpt lat="44.57431805423359" lon="10.182459334088854"><ele>752.0</ele><time>2026-04-18T07:38:01Z</time></trkpt><trkpt lat="44.5743033203661" lon="10.182701885035701"><ele>753.0</ele><time>2026-04-18T07:38:02Z</time></trkpt><trkpt lat="44.57431594608523" lon="10.18296149835845"><ele>753.0</ele><time>2026-04-18T07:38:03Z</time></trkpt><trkpt lat="44.57437090888801" lon="10.183226578980415"><ele>753.0</ele><time>2026-04-18T07:38:04Z</time></trkpt><trkpt lat="44.57445039529502" lon="10.183511800812024"><ele>753.0</ele><time>2026-04-18T07:38:05Z</time></trkpt><trkpt lat="44.57452624661657" lon="10.183811935309471"><ele>759.0</ele><time>2026-04-18T07:38:06Z</time></trkpt><trkpt lat="44.574592798526375" lon="10.18412540493335"><ele>765.0</ele><time>2026-04-18T07:38:07Z</time></trkpt><trkpt lat="44.57465248251615" lon="10.184434232610764"><ele>765.0</ele><time>2026-04-18T07:38:08Z</time></trkpt><trkpt lat="44.57471773267367" lon="10.184747040666997"><ele>765.0</ele><time>2026-04-18T07:38:09Z</time></trkpt><trkpt lat="44.5747736511832" lon="10.185045815065353"><ele>762.0</ele><time>2026-04-18T07:38:10Z</time></trkpt><trkpt lat="44.57483678376352" lon="10.185328333434144"><ele>759.0</ele><time>2026-04-18T07:38:11Z</time></trkpt><trkpt lat="44.574900144962115" lon="10.185599974251474"><ele>756.0</ele><time>2026-04-18T07:38:12Z</time></trkpt><trkpt lat="44.574948763555945" lon="10.18584815648215"><ele>754.0</ele><time>2026-04-18T07:38:13Z</time></trkpt><trkpt lat="44.57494014777674" lon="10.186068046693649"><ele>752.0</ele><time>2026-04-18T07:38:14Z</time></trkpt><trkpt lat="44.574850444700346" lon="10.186263834312305"><ele>750.0</ele><time>2026-04-18T07:38:15Z</time></trkpt><trkpt lat="44.57473943432316" lon="10.186422802887929"><ele>749.3333333333334</ele><time>2026-04-18T07:38:16Z</time></trkpt><trkpt lat="44.57467656884695" lon="10.186584077022674"><ele>748.6666666666667</ele><time>2026-04-18T07:38:17Z</time></trkpt><trkpt lat="44.57468112714869" lon="10.186800526048382"><ele>748.0</ele><time>2026-04-18T07:38:18Z</time></trkpt><trkpt lat="44.574737911837595" lon="10.18707172271333"><ele>745.3333333333334</ele><time>2026-04-18T07:38:19Z</time></trkpt><trkpt lat="44.574791841132175" lon="10.187351660311187"><ele>742.6666666666666</ele><time>2026-04-18T07:38:20Z</time></trkpt><trkpt lat="44.57480416286781" lon="10.187622189272721"><ele>740.0</ele><time>2026-04-18T07:38:20.999Z</time></trkpt><trkpt lat="44.57477504924365" lon="10.1878961947728"><ele>740.0</ele><time>2026-04-18T07:38:21.999Z</time></trkpt><trkpt lat="44.57469206456684" lon="10.188162000833586"><ele>740.0</ele><time>2026-04-18T07:38:22.999Z</time></trkpt><trkpt lat="44.5746011254461" lon="10.18842158384867"><ele>740.0</ele><time>2026-04-18T07:38:23.999Z</time></trkpt><trkpt lat="44.57453972383378" lon="10.188684078893527"><ele>730.6666666666666</ele><time>2026-04-18T07:38:24.999Z</time></trkpt><trkpt lat="44.57451072692483" lon="10.188966246444025"><ele>721.3333333333334</ele><time>2026-04-18T07:38:25.999Z</time></trkpt><trkpt lat="44.57450428342355" lon="10.189254240117528"><ele>712.0</ele><time>2026-04-18T07:38:26.999Z</time></trkpt><trkpt lat="44.57450447261393" lon="10.189517375453425"><ele>712.0</ele><time>2026-04-18T07:38:27.999Z</time></trkpt><trkpt lat="44.574485009225725" lon="10.189757267421065"><ele>712.0</ele><time>2026-04-18T07:38:28.999Z</time></trkpt><trkpt lat="44.57441763780641" lon="10.18996860512939"><ele>712.0</ele><time>2026-04-18T07:38:29.999Z</time></trkpt><trkpt lat="44.57430635062564" lon="10.190137044740915"><ele>712.0</ele><time>2026-04-18T07:38:30.999Z</time></trkpt><trkpt lat="44.57419674105397" lon="10.19029358042025"><ele>712.0</ele><time>2026-04-18T07:38:31.999Z</time></trkpt><trkpt lat="44.57411478947502" lon="10.190468810592328"><ele>712.0</ele><time>2026-04-18T07:38:32.999Z</time></trkpt><trkpt lat="44.57406275673802" lon="10.190679640276201"><ele>713.3333333333334</ele><time>2026-04-18T07:38:33.999Z</time></trkpt><trkpt lat="44.57401945107776" lon="10.19090610673388"><ele>714.6666666666666</ele><time>2026-04-18T07:38:34.999Z</time></trkpt><trkpt lat="44.57397670627584" lon="10.191129337323407"><ele>716.0</ele><time>2026-04-18T07:38:35.999Z</time></trkpt><trkpt lat="44.57392939444934" lon="10.191347320341261"><ele>716.6666666666666</ele><time>2026-04-18T07:38:36.999Z</time></trkpt><trkpt lat="44.57388536662791" lon="10.191554198425345"><ele>717.3333333333334</ele><time>2026-04-18T07:38:37.999Z</time></trkpt><trkpt lat="44.573843520473986" lon="10.191758488340135"><ele>718.0</ele><time>2026-04-18T07:38:38.999Z</time></trkpt><trkpt lat="44.57379687181015" lon="10.19197806176668"><ele>718.0</ele><time>2026-04-18T07:38:39.999Z</time></trkpt><trkpt lat="44.57375552806027" lon="10.192208408902962"><ele>718.0</ele><time>2026-04-18T07:38:40.999Z</time></trkpt><trkpt lat="44.573706213853924" lon="10.192445218335836"><ele>718.0</ele><time>2026-04-18T07:38:41.999Z</time></trkpt><trkpt lat="44.57365897378248" lon="10.192678488206043"><ele>713.0</ele><time>2026-04-18T07:38:42.999Z</time></trkpt><trkpt lat="44.5736147697436" lon="10.192912880541503"><ele>708.0</ele><time>2026-04-18T07:38:43.999Z</time></trkpt><trkpt lat="44.57356628482347" lon="10.193152841027326"><ele>703.0</ele><time>2026-04-18T07:38:44.999Z</time></trkpt><trkpt lat="44.57351375216945" lon="10.193388237518258"><ele>703.0</ele><time>2026-04-18T07:38:45.999Z</time></trkpt><trkpt lat="44.57345789489615" lon="10.193623110830899"><ele>703.0</ele><time>2026-04-18T07:38:46.999Z</time></trkpt><trkpt lat="44.57340568120027" lon="10.19386187062379"><ele>703.0</ele><time>2026-04-18T07:38:47.999Z</time></trkpt><trkpt lat="44.57334856881559" lon="10.194097672567407"><ele>704.0</ele><time>2026-04-18T07:38:48.999Z</time></trkpt><trkpt lat="44.57327574401609" lon="10.194322347704825"><ele>705.0</ele><time>2026-04-18T07:38:49.999Z</time></trkpt><trkpt lat="44.57317599060572" lon="10.194529583698296"><ele>706.0</ele><time>2026-04-18T07:38:50.999Z</time></trkpt><trkpt lat="44.573071100234124" lon="10.194732142102135"><ele>707.6666666666667</ele><time>2026-04-18T07:38:51.999Z</time></trkpt><trkpt lat="44.57298311935242" lon="10.19491881551592"><ele>709.3333333333334</ele><time>2026-04-18T07:38:52.999Z</time></trkpt><trkpt lat="44.57292061959099" lon="10.195110688853037"><ele>711.0</ele><time>2026-04-18T07:38:53.999Z</time></trkpt><trkpt lat="44.572857617352966" lon="10.195285999291945"><ele>704.6666666666666</ele><time>2026-04-18T07:38:54.999Z</time></trkpt><trkpt lat="44.572750219984314" lon="10.19542518497733"><ele>698.3333333333333</ele><time>2026-04-18T07:38:55.999Z</time></trkpt><trkpt lat="44.57260324366241" lon="10.195518426413377"><ele>692.0</ele><time>2026-04-18T07:38:56.999Z</time></trkpt><trkpt lat="44.572434274064335" lon="10.19558339027211"><ele>692.0</ele><time>2026-04-18T07:38:57.999Z</time></trkpt><trkpt lat="44.572265890526815" lon="10.195663214643867"><ele>692.0</ele><time>2026-04-18T07:38:58.999Z</time></trkpt><trkpt lat="44.57211335818157" lon="10.195762163604238"><ele>692.0</ele><time>2026-04-18T07:38:59.999Z</time></trkpt><trkpt lat="44.571990625787954" lon="10.195891672224564"><ele>690.6666666666666</ele><time>2026-04-18T07:39:00.999Z</time></trkpt><trkpt lat="44.57188697564941" lon="10.196088761593082"><ele>689.3333333333334</ele><time>2026-04-18T07:39:01.999Z</time></trkpt><trkpt lat="44.57177483397671" lon="10.196314737455667"><ele>688.0</ele><time>2026-04-18T07:39:02.999Z</time></trkpt><trkpt lat="44.57167015341206" lon="10.196524718495207"><ele>690.6666666666667</ele><time>2026-04-18T07:39:03.999Z</time></trkpt><trkpt lat="44.57156993443209" lon="10.19672089731756"><ele>693.3333333333334</ele><time>2026-04-18T07:39:04.999Z</time></trkpt><trkpt lat="44.57146616092271" lon="10.19690900330737"><ele>696.0</ele><time>2026-04-18T07:39:05.999Z</time></trkpt><trkpt lat="44.57136826899294" lon="10.197083259185488"><ele>696.0</ele><time>2026-04-18T07:39:06.999Z</time></trkpt><trkpt lat="44.571294240066784" lon="10.197231802527948"><ele>696.0</ele><time>2026-04-18T07:39:07.999Z</time></trkpt><trkpt lat="44.5712675407004" lon="10.197338177171812"><ele>696.0</ele><time>2026-04-18T07:39:08.999Z</time></trkpt><trkpt lat="44.57118103838889" lon="10.197510259969507"><ele>696.0</ele><time>2026-04-18T07:39:10.999Z</time></trkpt><trkpt lat="44.57108671426562" lon="10.197624979401567"><ele>693.25</ele><time>2026-04-18T07:39:11.999Z</time></trkpt><trkpt lat="44.570976897199415" lon="10.197761048605965"><ele>690.5</ele><time>2026-04-18T07:39:12.999Z</time></trkpt><trkpt lat="44.570870208250376" lon="10.197887299948109"><ele>687.75</ele><time>2026-04-18T07:39:14Z</time></trkpt><trkpt lat="44.5707523266878" lon="10.197953736934563"><ele>685.0</ele><time>2026-04-18T07:39:15Z</time></trkpt><trkpt lat="44.57063232275552" lon="10.198007555222796"><ele>685.0</ele><time>2026-04-18T07:39:16Z</time></trkpt><trkpt lat="44.57051158654001" lon="10.1980265287216"><ele>685.0</ele><time>2026-04-18T07:39:17Z</time></trkpt><trkpt lat="44.570399546621644" lon="10.19791736397683"><ele>685.0</ele><time>2026-04-18T07:39:18Z</time></trkpt><trkpt lat="44.57031943038421" lon="10.197777933346341"><ele>685.0</ele><time>2026-04-18T07:39:19Z</time></trkpt><trkpt lat="44.57022753779143" lon="10.197653157103368"><ele>683.25</ele><time>2026-04-18T07:39:20Z</time></trkpt><trkpt lat="44.570148821356526" lon="10.197557973568708"><ele>681.5</ele><time>2026-04-18T07:39:21Z</time></trkpt><trkpt lat="44.570064909676134" lon="10.197542426316382"><ele>679.75</ele><time>2026-04-18T07:39:22Z</time></trkpt><trkpt lat="44.569960656654885" lon="10.197594832666752"><ele>678.0</ele><time>2026-04-18T07:39:23Z</time></trkpt><trkpt lat="44.56981248603219" lon="10.197677562653354"><ele>678.0</ele><time>2026-04-18T07:39:24Z</time></trkpt><trkpt lat="44.56964848816316" lon="10.197747757471944"><ele>678.0</ele><time>2026-04-18T07:39:25Z</time></trkpt><trkpt lat="44.569490763027254" lon="10.197800371135306"><ele>678.0</ele><time>2026-04-18T07:39:26Z</time></trkpt><trkpt lat="44.569349090123396" lon="10.197855907555509"><ele>674.75</ele><time>2026-04-18T07:39:27Z</time></trkpt><trkpt lat="44.569217965543146" lon="10.197933030867771"><ele>671.5</ele><time>2026-04-18T07:39:28Z</time></trkpt><trkpt lat="44.569094666965036" lon="10.198009609699648"><ele>668.25</ele><time>2026-04-18T07:39:29Z</time></trkpt><trkpt lat="44.56897041257899" lon="10.19808039804578"><ele>665.0</ele><time>2026-04-18T07:39:30Z</time></trkpt><trkpt lat="44.56884217123582" lon="10.198136802863996"><ele>663.25</ele><time>2026-04-18T07:39:31Z</time></trkpt><trkpt lat="44.56870063137916" lon="10.19817723100686"><ele>661.5</ele><time>2026-04-18T07:39:32Z</time></trkpt><trkpt lat="44.56858794593069" lon="10.198226763580392"><ele>659.75</ele><time>2026-04-18T07:39:33Z</time></trkpt><trkpt lat="44.56849798305583" lon="10.19835133475453"><ele>658.0</ele><time>2026-04-18T07:39:34Z</time></trkpt><trkpt lat="44.56842873131626" lon="10.19856304674848"><ele>658.0</ele><time>2026-04-18T07:39:35Z</time></trkpt><trkpt lat="44.568348859463754" lon="10.198777299439039"><ele>658.0</ele><time>2026-04-18T07:39:36Z</time></trkpt><trkpt lat="44.56827299488946" lon="10.198970309568091"><ele>658.0</ele><time>2026-04-18T07:39:37Z</time></trkpt><trkpt lat="44.56820782711794" lon="10.199172303637473"><ele>659.75</ele><time>2026-04-18T07:39:38Z</time></trkpt><trkpt lat="44.568167056988436" lon="10.19938688061297"><ele>661.5</ele><time>2026-04-18T07:39:39Z</time></trkpt><trkpt lat="44.56811582419941" lon="10.199589726633038"><ele>663.25</ele><time>2026-04-18T07:39:40Z</time></trkpt><trkpt lat="44.568076880244476" lon="10.199724407713216"><ele>665.0</ele><time>2026-04-18T07:39:41Z</time></trkpt><trkpt lat="44.56800005256104" lon="10.19981582715766"><ele>665.0</ele><time>2026-04-18T07:39:43Z</time></trkpt><trkpt lat="44.567921567698626" lon="10.19974082372011"><ele>665.0</ele><time>2026-04-18T07:39:44Z</time></trkpt><trkpt lat="44.56788192700723" lon="10.199569050357198"><ele>665.0</ele><time>2026-04-18T07:39:45Z</time></trkpt><trkpt lat="44.567803236369855" lon="10.199397752532088"><ele>665.0</ele><time>2026-04-18T07:39:46Z</time></trkpt><trkpt lat="44.567729022385635" lon="10.199199862119755"><ele>661.0</ele><time>2026-04-18T07:39:47Z</time></trkpt><trkpt lat="44.56765916598641" lon="10.199022195539467"><ele>657.0</ele><time>2026-04-18T07:39:48Z</time></trkpt><trkpt lat="44.56759294557496" lon="10.198878919041151"><ele>653.0</ele><time>2026-04-18T07:39:49Z</time></trkpt><trkpt lat="44.56753584439282" lon="10.198773177716102"><ele>649.0</ele><time>2026-04-18T07:39:50Z</time></trkpt><trkpt lat="44.56747520738369" lon="10.19872816898107"><ele>645.0</ele><time>2026-04-18T07:39:51Z</time></trkpt><trkpt lat="44.56739530199769" lon="10.198779564861619"><ele>645.0</ele><time>2026-04-18T07:39:52Z</time></trkpt><trkpt lat="44.56732626801534" lon="10.198902197403209"><ele>645.0</ele><time>2026-04-18T07:39:53Z</time></trkpt><trkpt lat="44.56728064211746" lon="10.199093794527693"><ele>645.0</ele><time>2026-04-18T07:39:54Z</time></trkpt><trkpt lat="44.567241296727175" lon="10.199262855991257"><ele>645.0</ele><time>2026-04-18T07:39:55Z</time></trkpt><trkpt lat="44.567254600948246" lon="10.199422912350437"><ele>645.0</ele><time>2026-04-18T07:39:56Z</time></trkpt><trkpt lat="44.56731679224979" lon="10.199583606767787"><ele>645.0</ele><time>2026-04-18T07:39:57Z</time></trkpt><trkpt lat="44.56734446627156" lon="10.199687955842556"><ele>645.0</ele><time>2026-04-18T07:39:58Z</time></trkpt><trkpt lat="44.5672897522184" lon="10.199736474118088"><ele>645.0</ele><time>2026-04-18T07:40:00Z</time></trkpt><trkpt lat="44.56722037512084" lon="10.1996808268793"><ele>645.0</ele><time>2026-04-18T07:40:01Z</time></trkpt><trkpt lat="44.56716426844794" lon="10.199556891267816"><ele>645.0</ele><time>2026-04-18T07:40:02Z</time></trkpt><trkpt lat="44.567077129575694" lon="10.199382811714303"><ele>645.0</ele><time>2026-04-18T07:40:03Z</time></trkpt><trkpt lat="44.56697378710794" lon="10.19921138628751"><ele>645.0</ele><time>2026-04-18T07:40:04Z</time></trkpt><trkpt lat="44.56684945645543" lon="10.199078800686902"><ele>639.0</ele><time>2026-04-18T07:40:05Z</time></trkpt><trkpt lat="44.56669765248905" lon="10.198999820393325"><ele>633.0</ele><time>2026-04-18T07:40:06Z</time></trkpt><trkpt lat="44.56656773565683" lon="10.198900554654022"><ele>627.0</ele><time>2026-04-18T07:40:07Z</time></trkpt><trkpt lat="44.566494743010715" lon="10.19872524600132"><ele>627.0</ele><time>2026-04-18T07:40:08Z</time></trkpt><trkpt lat="44.566401100951545" lon="10.198544303781945"><ele>627.0</ele><time>2026-04-18T07:40:09Z</time></trkpt><trkpt lat="44.566311654690665" lon="10.198363226858"><ele>627.0</ele><time>2026-04-18T07:40:10Z</time></trkpt><trkpt lat="44.56625278077645" lon="10.198195061395609"><ele>625.4</ele><time>2026-04-18T07:40:11Z</time></trkpt><trkpt lat="44.566218972242446" lon="10.198047281694478"><ele>623.8000000000001</ele><time>2026-04-18T07:40:12Z</time></trkpt><trkpt lat="44.566226846552155" lon="10.197917806007702"><ele>622.2</ele><time>2026-04-18T07:40:13Z</time></trkpt><trkpt lat="44.56625969071914" lon="10.197784136301403"><ele>620.6</ele><time>2026-04-18T07:40:14Z</time></trkpt><trkpt lat="44.56629159643361" lon="10.197629819106837"><ele>619.0</ele><time>2026-04-18T07:40:15Z</time></trkpt><trkpt lat="44.566367494537005" lon="10.197511888373619"><ele>619.0</ele><time>2026-04-18T07:40:16Z</time></trkpt><trkpt lat="44.56640337430153" lon="10.197388829047474"><ele>619.0</ele><time>2026-04-18T07:40:17Z</time></trkpt><trkpt lat="44.566444138724094" lon="10.19726467472388"><ele>619.0</ele><time>2026-04-18T07:40:19Z</time></trkpt><trkpt lat="44.56632777178211" lon="10.197190334691161"><ele>619.0</ele><time>2026-04-18T07:40:20Z</time></trkpt><trkpt lat="44.56621420189658" lon="10.197158880179233"><ele>619.0</ele><time>2026-04-18T07:40:22Z</time></trkpt><trkpt lat="44.56615031095872" lon="10.197135703015192"><ele>614.5</ele><time>2026-04-18T07:40:23Z</time></trkpt><trkpt lat="44.5660437097622" lon="10.197117553009672"><ele>610.0</ele><time>2026-04-18T07:40:25Z</time></trkpt><trkpt lat="44.565955889726695" lon="10.197083970316427"><ele>605.5</ele><time>2026-04-18T07:40:26.999Z</time></trkpt><trkpt lat="44.565817049280206" lon="10.19713484660278"><ele>601.0</ele><time>2026-04-18T07:40:28.999Z</time></trkpt><trkpt lat="44.56571233421301" lon="10.197259287312344"><ele>599.75</ele><time>2026-04-18T07:40:29.999Z</time></trkpt><trkpt lat="44.5655871347234" lon="10.197360298394074"><ele>598.5</ele><time>2026-04-18T07:40:30.999Z</time></trkpt><trkpt lat="44.56544838722998" lon="10.197454984572085"><ele>597.25</ele><time>2026-04-18T07:40:31.999Z</time></trkpt><trkpt lat="44.56531172942806" lon="10.197533576170589"><ele>596.0</ele><time>2026-04-18T07:40:32.999Z</time></trkpt><trkpt lat="44.56518792591963" lon="10.197618639482604"><ele>596.0</ele><time>2026-04-18T07:40:33.999Z</time></trkpt><trkpt lat="44.565077382835675" lon="10.197699720282273"><ele>596.0</ele><time>2026-04-18T07:40:34.999Z</time></trkpt><trkpt lat="44.56496620879254" lon="10.197791116627878"><ele>596.0</ele><time>2026-04-18T07:40:35.999Z</time></trkpt><trkpt lat="44.56488970795402" lon="10.197888591101414"><ele>596.0</ele><time>2026-04-18T07:40:36.999Z</time></trkpt><trkpt lat="44.56484326480503" lon="10.198023667947078"><ele>595.5</ele><time>2026-04-18T07:40:37.999Z</time></trkpt><trkpt lat="44.564831438321306" lon="10.198199841365254"><ele>595.0</ele><time>2026-04-18T07:40:38.999Z</time></trkpt><trkpt lat="44.56485823565061" lon="10.198380487818161"><ele>594.5</ele><time>2026-04-18T07:40:39.999Z</time></trkpt><trkpt lat="44.564937584365246" lon="10.198517994903327"><ele>594.0</ele><time>2026-04-18T07:40:40.999Z</time></trkpt><trkpt lat="44.565044568285124" lon="10.19864221307425"><ele>594.0</ele><time>2026-04-18T07:40:41.999Z</time></trkpt><trkpt lat="44.56513060607353" lon="10.198783085473297"><ele>594.0</ele><time>2026-04-18T07:40:42.999Z</time></trkpt><trkpt lat="44.56517799803735" lon="10.19889926775853"><ele>594.0</ele><time>2026-04-18T07:40:43.999Z</time></trkpt><trkpt lat="44.56517181301529" lon="10.1990186237437"><ele>594.0</ele><time>2026-04-18T07:40:44.999Z</time></trkpt><trkpt lat="44.56508038673584" lon="10.19913206103102"><ele>594.0</ele><time>2026-04-18T07:40:45.999Z</time></trkpt><trkpt lat="44.56496616652109" lon="10.199263893749402"><ele>592.5</ele><time>2026-04-18T07:40:46.999Z</time></trkpt><trkpt lat="44.56486397923671" lon="10.199405879654773"><ele>591.0</ele><time>2026-04-18T07:40:47.999Z</time></trkpt><trkpt lat="44.564825888897694" lon="10.199541845082784"><ele>589.5</ele><time>2026-04-18T07:40:48.999Z</time></trkpt><trkpt lat="44.56485457238149" lon="10.199667146098282"><ele>588.0</ele><time>2026-04-18T07:40:49.999Z</time></trkpt><trkpt lat="44.56493364670547" lon="10.199803980670719"><ele>588.0</ele><time>2026-04-18T07:40:50.999Z</time></trkpt><trkpt lat="44.56495971344276" lon="10.199968702249155"><ele>588.0</ele><time>2026-04-18T07:40:51.999Z</time></trkpt><trkpt lat="44.56486128911007" lon="10.200138911208647"><ele>588.0</ele><time>2026-04-18T07:40:52.999Z</time></trkpt><trkpt lat="44.564798849497194" lon="10.200367399948588"><ele>588.0</ele><time>2026-04-18T07:40:53.999Z</time></trkpt><trkpt lat="44.56472942031466" lon="10.200554295264704"><ele>588.0</ele><time>2026-04-18T07:40:54.999Z</time></trkpt><trkpt lat="44.564671098959984" lon="10.200708927223276"><ele>588.0</ele><time>2026-04-18T07:40:55.999Z</time></trkpt><trkpt lat="44.56463037590941" lon="10.200878396197712"><ele>588.0</ele><time>2026-04-18T07:40:56.999Z</time></trkpt><trkpt lat="44.56460624286542" lon="10.201090331255598"><ele>588.0</ele><time>2026-04-18T07:40:57.999Z</time></trkpt><trkpt lat="44.56457847460195" lon="10.20130386186659"><ele>588.0</ele><time>2026-04-18T07:40:58.999Z</time></trkpt><trkpt lat="44.564582295194086" lon="10.201528231449448"><ele>588.0</ele><time>2026-04-18T07:40:59.999Z</time></trkpt><trkpt lat="44.56457534055658" lon="10.201742322147991"><ele>586.0</ele><time>2026-04-18T07:41:00.999Z</time></trkpt><trkpt lat="44.56454293081467" lon="10.201923523712715"><ele>584.0</ele><time>2026-04-18T07:41:01.999Z</time></trkpt><trkpt lat="44.56448926601117" lon="10.202116267203962"><ele>582.0</ele><time>2026-04-18T07:41:02.999Z</time></trkpt><trkpt lat="44.56445812063747" lon="10.20231403828249"><ele>580.0</ele><time>2026-04-18T07:41:03.999Z</time></trkpt><trkpt lat="44.56445708404899" lon="10.202503256103125"><ele>575.6666666666667</ele><time>2026-04-18T07:41:04.999Z</time></trkpt><trkpt lat="44.564506021954905" lon="10.20269120289242"><ele>571.3333333333334</ele><time>2026-04-18T07:41:05.999Z</time></trkpt><trkpt lat="44.5645844157446" lon="10.202895968823128"><ele>567.0</ele><time>2026-04-18T07:41:06.999Z</time></trkpt><trkpt lat="44.56462474329752" lon="10.203117564304069"><ele>564.5</ele><time>2026-04-18T07:41:07.999Z</time></trkpt><trkpt lat="44.564634980115855" lon="10.203322664925537"><ele>562.0</ele><time>2026-04-18T07:41:08.999Z</time></trkpt><trkpt lat="44.56461046325227" lon="10.203520966107058"><ele>559.5</ele><time>2026-04-18T07:41:09.999Z</time></trkpt><trkpt lat="44.56457460232785" lon="10.203724736892775"><ele>557.0</ele><time>2026-04-18T07:41:10.999Z</time></trkpt><trkpt lat="44.564552632422576" lon="10.203921145543095"><ele>555.5</ele><time>2026-04-18T07:41:11.999Z</time></trkpt><trkpt lat="44.564550257071325" lon="10.204084287910698"><ele>554.0</ele><time>2026-04-18T07:41:12.999Z</time></trkpt><trkpt lat="44.56460058770389" lon="10.204251858403795"><ele>552.5</ele><time>2026-04-18T07:41:13.999Z</time></trkpt><trkpt lat="44.56466145422477" lon="10.204412034536052"><ele>551.0</ele><time>2026-04-18T07:41:14.999Z</time></trkpt><trkpt lat="44.56465571343569" lon="10.20456681455549"><ele>551.0</ele><time>2026-04-18T07:41:15.999Z</time></trkpt><trkpt lat="44.564624105985104" lon="10.20471178482656"><ele>551.0</ele><time>2026-04-18T07:41:16.999Z</time></trkpt><trkpt lat="44.56460394900903" lon="10.20490853481485"><ele>551.0</ele><time>2026-04-18T07:41:17.999Z</time></trkpt><trkpt lat="44.564584674759544" lon="10.205071799453338"><ele>551.0</ele><time>2026-04-18T07:41:18.999Z</time></trkpt><trkpt lat="44.56455541657479" lon="10.20517368137282"><ele>551.0</ele><time>2026-04-18T07:41:20Z</time></trkpt><trkpt lat="44.56446283207382" lon="10.205132952418067"><ele>548.4</ele><time>2026-04-18T07:41:23Z</time></trkpt><trkpt lat="44.56445440810838" lon="10.205016336014978"><ele>545.8</ele><time>2026-04-18T07:41:24Z</time></trkpt><trkpt lat="44.564432149537666" lon="10.204870650303162"><ele>543.1999999999999</ele><time>2026-04-18T07:41:25Z</time></trkpt><trkpt lat="44.56436601252034" lon="10.204749342863975"><ele>540.6</ele><time>2026-04-18T07:41:26Z</time></trkpt><trkpt lat="44.564246730083276" lon="10.204688366354823"><ele>538.0</ele><time>2026-04-18T07:41:27Z</time></trkpt><trkpt lat="44.564084384736645" lon="10.204723206771984"><ele>538.0</ele><time>2026-04-18T07:41:28Z</time></trkpt><trkpt lat="44.56393180106134" lon="10.204741248541529"><ele>538.0</ele><time>2026-04-18T07:41:29Z</time></trkpt><trkpt lat="44.5638041543887" lon="10.20475728007418"><ele>538.0</ele><time>2026-04-18T07:41:30Z</time></trkpt><trkpt lat="44.563704176198875" lon="10.20476584335981"><ele>538.0</ele><time>2026-04-18T07:41:31Z</time></trkpt><trkpt lat="44.56361846086687" lon="10.204699411410722"><ele>533.25</ele><time>2026-04-18T07:41:32Z</time></trkpt><trkpt lat="44.5635612694094" lon="10.204549258441645"><ele>528.5</ele><time>2026-04-18T07:41:33Z</time></trkpt><trkpt lat="44.56353725980215" lon="10.204369294131496"><ele>523.75</ele><time>2026-04-18T07:41:34Z</time></trkpt><trkpt lat="44.563527984205464" lon="10.204170908606665"><ele>519.0</ele><time>2026-04-18T07:41:35Z</time></trkpt><trkpt lat="44.563493336894375" lon="10.204004644696933"><ele>521.6666666666666</ele><time>2026-04-18T07:41:36Z</time></trkpt><trkpt lat="44.5634295416362" lon="10.203865309998225"><ele>524.3333333333333</ele><time>2026-04-18T07:41:37Z</time></trkpt><trkpt lat="44.563300992594236" lon="10.203754532104272"><ele>527.0</ele><time>2026-04-18T07:41:38Z</time></trkpt><trkpt lat="44.56311599860605" lon="10.203661788863181"><ele>527.0</ele><time>2026-04-18T07:41:39Z</time></trkpt><trkpt lat="44.562957277767765" lon="10.203536793732598"><ele>527.0</ele><time>2026-04-18T07:41:40Z</time></trkpt><trkpt lat="44.562816507928424" lon="10.203419131045022"><ele>527.0</ele><time>2026-04-18T07:41:41Z</time></trkpt><trkpt lat="44.562685249884865" lon="10.203312562528255"><ele>523.5</ele><time>2026-04-18T07:41:42Z</time></trkpt><trkpt lat="44.5625569573607" lon="10.203218992421021"><ele>520.0</ele><time>2026-04-18T07:41:43Z</time></trkpt><trkpt lat="44.562466549608665" lon="10.203090300054955"><ele>516.5</ele><time>2026-04-18T07:41:44Z</time></trkpt><trkpt lat="44.56239589402403" lon="10.202956235041297"><ele>513.0</ele><time>2026-04-18T07:41:45Z</time></trkpt><trkpt lat="44.56233805976134" lon="10.202839080906138"><ele>513.0</ele><time>2026-04-18T07:41:46Z</time></trkpt><trkpt lat="44.56230128209984" lon="10.202753799627777"><ele>513.0</ele><time>2026-04-18T07:41:47Z</time></trkpt><trkpt lat="44.56223212854195" lon="10.202732463294772"><ele>513.0</ele><time>2026-04-18T07:41:48Z</time></trkpt><trkpt lat="44.56214429781028" lon="10.202796002480826"><ele>513.0</ele><time>2026-04-18T07:41:49Z</time></trkpt><trkpt lat="44.562086783045146" lon="10.202938725940522"><ele>513.0</ele><time>2026-04-18T07:41:50Z</time></trkpt><trkpt lat="44.56202987600973" lon="10.203063203753615"><ele>508.59999999999997</ele><time>2026-04-18T07:41:51Z</time></trkpt><trkpt lat="44.56196841615493" lon="10.2030970082728"><ele>504.19999999999993</ele><time>2026-04-18T07:41:52Z</time></trkpt><trkpt lat="44.561908861265955" lon="10.203039459967162"><ele>499.8</ele><time>2026-04-18T07:41:53Z</time></trkpt><trkpt lat="44.56188771973301" lon="10.202883295128416"><ele>495.4</ele><time>2026-04-18T07:41:54Z</time></trkpt><trkpt lat="44.56180696318565" lon="10.202683036422751"><ele>491.0</ele><time>2026-04-18T07:41:55Z</time></trkpt><trkpt lat="44.56170044423654" lon="10.202471692556907"><ele>491.25</ele><time>2026-04-18T07:41:56Z</time></trkpt><trkpt lat="44.561595959486354" lon="10.202302194090597"><ele>491.5</ele><time>2026-04-18T07:41:57Z</time></trkpt><trkpt lat="44.561525609515016" lon="10.202123991988623"><ele>491.75</ele><time>2026-04-18T07:41:58Z</time></trkpt><trkpt lat="44.56146015243175" lon="10.201992585260873"><ele>492.0</ele><time>2026-04-18T07:41:59Z</time></trkpt><trkpt lat="44.561418362846986" lon="10.20191192522324"><ele>492.0</ele><time>2026-04-18T07:42:00Z</time></trkpt><trkpt lat="44.56127769943112" lon="10.201940990438166"><ele>492.0</ele><time>2026-04-18T07:42:02Z</time></trkpt><trkpt lat="44.561218121182584" lon="10.202087322191224"><ele>492.0</ele><time>2026-04-18T07:42:03Z</time></trkpt><trkpt lat="44.56116967334429" lon="10.20226954698972"><ele>492.0</ele><time>2026-04-18T07:42:04Z</time></trkpt><trkpt lat="44.56117722074359" lon="10.202463730660675"><ele>491.8333333333333</ele><time>2026-04-18T07:42:05Z</time></trkpt><trkpt lat="44.56122197840317" lon="10.202574664349383"><ele>491.66666666666663</ele><time>2026-04-18T07:42:06Z</time></trkpt><trkpt lat="44.5612707000562" lon="10.202696137393804"><ele>491.5</ele><time>2026-04-18T07:42:07Z</time></trkpt><trkpt lat="44.561293449751794" lon="10.202792938680437"><ele>491.3333333333333</ele><time>2026-04-18T07:42:08Z</time></trkpt><trkpt lat="44.56126333944025" lon="10.202876282725992"><ele>491.16666666666663</ele><time>2026-04-18T07:42:09Z</time></trkpt><trkpt lat="44.561168931787805" lon="10.202933289416865"><ele>491.0</ele><time>2026-04-18T07:42:10Z</time></trkpt><trkpt lat="44.56106765165713" lon="10.202943432019033"><ele>486.4</ele><time>2026-04-18T07:42:11Z</time></trkpt><trkpt lat="44.56098347080399" lon="10.202893457959977"><ele>481.8</ele><time>2026-04-18T07:42:12Z</time></trkpt><trkpt lat="44.5609544944649" lon="10.20270123296117"><ele>477.19999999999993</ele><time>2026-04-18T07:42:13Z</time></trkpt><trkpt lat="44.56091007960494" lon="10.202556485357196"><ele>472.59999999999997</ele><time>2026-04-18T07:42:14Z</time></trkpt><trkpt lat="44.56085770731975" lon="10.20247733607563"><ele>468.0</ele><time>2026-04-18T07:42:15Z</time></trkpt><trkpt lat="44.560793037591566" lon="10.20248856493832"><ele>468.0</ele><time>2026-04-18T07:42:16Z</time></trkpt><trkpt lat="44.56073409199262" lon="10.20259260894676"><ele>467.99999999999994</ele><time>2026-04-18T07:42:17Z</time></trkpt><trkpt lat="44.560712973547076" lon="10.202729646033102"><ele>467.99999999999994</ele><time>2026-04-18T07:42:18Z</time></trkpt><trkpt lat="44.560708560017595" lon="10.202906478363877"><ele>468.0</ele><time>2026-04-18T07:42:19Z</time></trkpt><trkpt lat="44.560710800880784" lon="10.203074149947723"><ele>468.0</ele><time>2026-04-18T07:42:20Z</time></trkpt><trkpt lat="44.56073770388183" lon="10.203197683598933"><ele>468.0</ele><time>2026-04-18T07:42:21Z</time></trkpt><trkpt lat="44.56073038329592" lon="10.203337872712332"><ele>468.0</ele><time>2026-04-18T07:42:23Z</time></trkpt><trkpt lat="44.56065078838285" lon="10.203339316694379"><ele>468.0</ele><time>2026-04-18T07:42:24Z</time></trkpt><trkpt lat="44.5605974574325" lon="10.203246834332028"><ele>468.0</ele><time>2026-04-18T07:42:25Z</time></trkpt><trkpt lat="44.56057177085331" lon="10.203127347253899"><ele>468.0</ele><time>2026-04-18T07:42:26Z</time></trkpt><trkpt lat="44.560544131006075" lon="10.203029131901376"><ele>468.0</ele><time>2026-04-18T07:42:27Z</time></trkpt><trkpt lat="44.560430764015386" lon="10.203136499323804"><ele>465.75</ele><time>2026-04-18T07:42:29Z</time></trkpt><trkpt lat="44.56042934970656" lon="10.203297295088426"><ele>463.5</ele><time>2026-04-18T07:42:30Z</time></trkpt><trkpt lat="44.56047904283724" lon="10.203480656019993"><ele>461.25</ele><time>2026-04-18T07:42:31Z</time></trkpt><trkpt lat="44.56057114296823" lon="10.203675772228571"><ele>459.0</ele><time>2026-04-18T07:42:32Z</time></trkpt><trkpt lat="44.56066739948796" lon="10.203839477317365"><ele>455.25</ele><time>2026-04-18T07:42:33Z</time></trkpt><trkpt lat="44.56073946593754" lon="10.204009042554405"><ele>451.5</ele><time>2026-04-18T07:42:34Z</time></trkpt><trkpt lat="44.560788299551355" lon="10.204153263418933"><ele>447.75</ele><time>2026-04-18T07:42:35Z</time></trkpt><trkpt lat="44.56077671476076" lon="10.204294935285937"><ele>444.0</ele><time>2026-04-18T07:42:36Z</time></trkpt><trkpt lat="44.56068801930778" lon="10.204444756481134"><ele>444.0</ele><time>2026-04-18T07:42:37Z</time></trkpt><trkpt lat="44.56055907213696" lon="10.204617907373231"><ele>444.0</ele><time>2026-04-18T07:42:37.999Z</time></trkpt><trkpt lat="44.56044152992451" lon="10.204802009313383"><ele>444.0</ele><time>2026-04-18T07:42:38.999Z</time></trkpt><trkpt lat="44.560342176256476" lon="10.204965261093387"><ele>439.4</ele><time>2026-04-18T07:42:39.999Z</time></trkpt><trkpt lat="44.5602376328707" lon="10.205054773666545"><ele>434.79999999999995</ele><time>2026-04-18T07:42:40.999Z</time></trkpt><trkpt lat="44.56015260173777" lon="10.205107899896314"><ele>430.20000000000005</ele><time>2026-04-18T07:42:41.999Z</time></trkpt><trkpt lat="44.56006208984962" lon="10.205122044084657"><ele>425.6</ele><time>2026-04-18T07:42:42.999Z</time></trkpt><trkpt lat="44.55995517280858" lon="10.205017461336947"><ele>421.0</ele><time>2026-04-18T07:42:43.999Z</time></trkpt><trkpt lat="44.55989182547544" lon="10.204832882627803"><ele>421.8</ele><time>2026-04-18T07:42:44.999Z</time></trkpt><trkpt lat="44.559825695014084" lon="10.204667345332435"><ele>422.6</ele><time>2026-04-18T07:42:45.999Z</time></trkpt><trkpt lat="44.5597903920018" lon="10.204515359618663"><ele>423.4</ele><time>2026-04-18T07:42:46.999Z</time></trkpt><trkpt lat="44.55977694158668" lon="10.204416240849138"><ele>424.2</ele><time>2026-04-18T07:42:47.999Z</time></trkpt><trkpt lat="44.559753996447256" lon="10.204317734455362"><ele>425.0</ele><time>2026-04-18T07:42:50.999Z</time></trkpt><trkpt lat="44.55972511651637" lon="10.204223820494555"><ele>425.0</ele><time>2026-04-18T07:42:55.999Z</time></trkpt><trkpt lat="44.559642792545816" lon="10.204516186204788"><ele>425.0</ele><time>2026-04-18T07:43:07.999Z</time></trkpt><trkpt lat="44.55968682333459" lon="10.204703269971867"><ele>425.0</ele><time>2026-04-18T07:43:08.999Z</time></trkpt><trkpt lat="44.55971367516426" lon="10.204922725488407"><ele>423.66666666666663</ele><time>2026-04-18T07:43:09.999Z</time></trkpt><trkpt lat="44.559748656593506" lon="10.205126637418445"><ele>422.33333333333337</ele><time>2026-04-18T07:43:10.999Z</time></trkpt><trkpt lat="44.559797844611445" lon="10.205454435966226"><ele>421.0</ele><time>2026-04-18T07:43:11.999Z</time></trkpt><trkpt lat="44.55984901077988" lon="10.205765244826344"><ele>419.6666666666667</ele><time>2026-04-18T07:43:12.999Z</time></trkpt><trkpt lat="44.55988881662317" lon="10.206044742314708"><ele>418.33333333333337</ele><time>2026-04-18T07:43:13.999Z</time></trkpt><trkpt lat="44.55992549086117" lon="10.206322475832913"><ele>417.0</ele><time>2026-04-18T07:43:14.999Z</time></trkpt><trkpt lat="44.55996749965498" lon="10.206582188203873"><ele>415.33333333333337</ele><time>2026-04-18T07:43:15.999Z</time></trkpt><trkpt lat="44.56001697167745" lon="10.20683256489449"><ele>413.6666666666667</ele><time>2026-04-18T07:43:16.999Z</time></trkpt><trkpt lat="44.560091753475376" lon="10.207079824029268"><ele>412.0</ele><time>2026-04-18T07:43:17.999Z</time></trkpt><trkpt lat="44.56019370593032" lon="10.207321668425765"><ele>413.0</ele><time>2026-04-18T07:43:18.999Z</time></trkpt><trkpt lat="44.56031825198547" lon="10.20755188119702"><ele>414.0</ele><time>2026-04-18T07:43:19.999Z</time></trkpt><trkpt lat="44.5604629426769" lon="10.20775982326418"><ele>415.0</ele><time>2026-04-18T07:43:20.999Z</time></trkpt><trkpt lat="44.56058423583606" lon="10.207960640051297"><ele>410.6666666666667</ele><time>2026-04-18T07:43:21.999Z</time></trkpt><trkpt lat="44.56068808420583" lon="10.208166191734918"><ele>406.33333333333337</ele><time>2026-04-18T07:43:22.999Z</time></trkpt><trkpt lat="44.560788090891236" lon="10.208373763691913"><ele>402.0</ele><time>2026-04-18T07:43:23.999Z</time></trkpt><trkpt lat="44.560917447746526" lon="10.208574660058872"><ele>402.0</ele><time>2026-04-18T07:43:24.999Z</time></trkpt><trkpt lat="44.56103161676788" lon="10.208773382190852"><ele>402.0</ele><time>2026-04-18T07:43:26Z</time></trkpt><trkpt lat="44.561142026405776" lon="10.208965972463977"><ele>402.0</ele><time>2026-04-18T07:43:27Z</time></trkpt><trkpt lat="44.561255875055586" lon="10.209157654437043"><ele>406.0</ele><time>2026-04-18T07:43:28Z</time></trkpt><trkpt lat="44.56137419835988" lon="10.209356987924135"><ele>410.0</ele><time>2026-04-18T07:43:29Z</time></trkpt><trkpt lat="44.56149156221663" lon="10.209567949371454"><ele>414.0</ele><time>2026-04-18T07:43:30Z</time></trkpt><trkpt lat="44.56157435525911" lon="10.209813170224333"><ele>410.33333333333337</ele><time>2026-04-18T07:43:31Z</time></trkpt><trkpt lat="44.56164833156911" lon="10.210063379488457"><ele>406.6666666666667</ele><time>2026-04-18T07:43:32Z</time></trkpt><trkpt lat="44.561713028379195" lon="10.210318598356872"><ele>403.0</ele><time>2026-04-18T07:43:33Z</time></trkpt><trkpt lat="44.56176905815718" lon="10.21057613531258"><ele>399.6666666666667</ele><time>2026-04-18T07:43:34Z</time></trkpt><trkpt lat="44.561780659893785" lon="10.210843643691465"><ele>396.33333333333337</ele><time>2026-04-18T07:43:35Z</time></trkpt><trkpt lat="44.56180820115445" lon="10.211106135199229"><ele>393.0</ele><time>2026-04-18T07:43:36Z</time></trkpt><trkpt lat="44.56183080828614" lon="10.211351680406704"><ele>390.0</ele><time>2026-04-18T07:43:37Z</time></trkpt><trkpt lat="44.561895949424695" lon="10.211590612822532"><ele>387.0</ele><time>2026-04-18T07:43:38Z</time></trkpt><trkpt lat="44.56200691791106" lon="10.211800172066775"><ele>384.0</ele><time>2026-04-18T07:43:39Z</time></trkpt><trkpt lat="44.56216217626141" lon="10.211972639916794"><ele>387.0</ele><time>2026-04-18T07:43:40Z</time></trkpt><trkpt lat="44.56233009732535" lon="10.212128147355076"><ele>390.0</ele><time>2026-04-18T07:43:41Z</time></trkpt><trkpt lat="44.562458950553584" lon="10.212337151271154"><ele>393.0</ele><time>2026-04-18T07:43:42Z</time></trkpt><trkpt lat="44.562576582867536" lon="10.212549763025418"><ele>393.0</ele><time>2026-04-18T07:43:43Z</time></trkpt><trkpt lat="44.56267245487293" lon="10.212768906468096"><ele>393.0</ele><time>2026-04-18T07:43:44Z</time></trkpt><trkpt lat="44.56275136702768" lon="10.213003275488196"><ele>393.0</ele><time>2026-04-18T07:43:45Z</time></trkpt><trkpt lat="44.562821184010296" lon="10.213251543580515"><ele>394.33333333333337</ele><time>2026-04-18T07:43:46Z</time></trkpt><trkpt lat="44.562855871353904" lon="10.213527687312164"><ele>395.6666666666667</ele><time>2026-04-18T07:43:47Z</time></trkpt><trkpt lat="44.56286810248019" lon="10.213813212341828"><ele>397.0</ele><time>2026-04-18T07:43:48Z</time></trkpt><trkpt lat="44.56283707707811" lon="10.214093346313943"><ele>391.6666666666667</ele><time>2026-04-18T07:43:49Z</time></trkpt><trkpt lat="44.56282138462066" lon="10.21437289190371"><ele>386.33333333333337</ele><time>2026-04-18T07:43:50Z</time></trkpt><trkpt lat="44.56279113011689" lon="10.214629742413948"><ele>381.0</ele><time>2026-04-18T07:43:51Z</time></trkpt><trkpt lat="44.56276830324504" lon="10.214874994555016"><ele>380.0</ele><time>2026-04-18T07:43:52Z</time></trkpt><trkpt lat="44.562765363643884" lon="10.2151099793182"><ele>379.0</ele><time>2026-04-18T07:43:53Z</time></trkpt><trkpt lat="44.56280783867487" lon="10.215349624934895"><ele>378.0</ele><time>2026-04-18T07:43:54Z</time></trkpt><trkpt lat="44.562898407855485" lon="10.215574261083633"><ele>383.33333333333337</ele><time>2026-04-18T07:43:55Z</time></trkpt><trkpt lat="44.563010043332795" lon="10.215795080252986"><ele>388.6666666666667</ele><time>2026-04-18T07:43:56Z</time></trkpt><trkpt lat="44.563118666170695" lon="10.216004055869526"><ele>394.0</ele><time>2026-04-18T07:43:57Z</time></trkpt><trkpt lat="44.563212519911175" lon="10.21619634169904"><ele>394.0</ele><time>2026-04-18T07:43:58Z</time></trkpt><trkpt lat="44.563300392857705" lon="10.216395925859239"><ele>394.0</ele><time>2026-04-18T07:43:59Z</time></trkpt><trkpt lat="44.563372252009614" lon="10.21657787245899"><ele>394.0</ele><time>2026-04-18T07:44:00Z</time></trkpt><trkpt lat="44.56343914052601" lon="10.216770860276222"><ele>393.0</ele><time>2026-04-18T07:44:01Z</time></trkpt><trkpt lat="44.56349383039352" lon="10.216970288840923"><ele>392.0</ele><time>2026-04-18T07:44:02Z</time></trkpt><trkpt lat="44.56353965571121" lon="10.217184868905418"><ele>391.0</ele><time>2026-04-18T07:44:03Z</time></trkpt><trkpt lat="44.56357488717419" lon="10.2174074266641"><ele>389.6666666666667</ele><time>2026-04-18T07:44:04Z</time></trkpt><trkpt lat="44.56361306521042" lon="10.217633276379699"><ele>388.33333333333337</ele><time>2026-04-18T07:44:05Z</time></trkpt><trkpt lat="44.5636495835932" lon="10.217874115701168"><ele>387.0</ele><time>2026-04-18T07:44:06Z</time></trkpt><trkpt lat="44.56368606597832" lon="10.218118047595206"><ele>394.66666666666663</ele><time>2026-04-18T07:44:07Z</time></trkpt><trkpt lat="44.563721857540536" lon="10.218373244385893"><ele>402.3333333333333</ele><time>2026-04-18T07:44:08Z</time></trkpt><trkpt lat="44.56376444837155" lon="10.218621687879772"><ele>410.0</ele><time>2026-04-18T07:44:09Z</time></trkpt><trkpt lat="44.563768514397964" lon="10.218880481236193"><ele>409.0</ele><time>2026-04-18T07:44:10Z</time></trkpt><trkpt lat="44.56374947928816" lon="10.219139286879516"><ele>408.0</ele><time>2026-04-18T07:44:11Z</time></trkpt><trkpt lat="44.56372118112012" lon="10.219386842357869"><ele>407.0</ele><time>2026-04-18T07:44:12Z</time></trkpt><trkpt lat="44.56367370860282" lon="10.219621983742421"><ele>396.0</ele><time>2026-04-18T07:44:13Z</time></trkpt><trkpt lat="44.563655184713866" lon="10.21984748397986"><ele>385.0</ele><time>2026-04-18T07:44:14Z</time></trkpt><trkpt lat="44.56365686687793" lon="10.220072623017773"><ele>374.0</ele><time>2026-04-18T07:44:15Z</time></trkpt><trkpt lat="44.56369239529653" lon="10.220284416454982"><ele>381.33333333333337</ele><time>2026-04-18T07:44:16Z</time></trkpt><trkpt lat="44.56375875762577" lon="10.220501303008207"><ele>388.6666666666667</ele><time>2026-04-18T07:44:17Z</time></trkpt><trkpt lat="44.56383853643693" lon="10.220707329980957"><ele>396.0</ele><time>2026-04-18T07:44:18Z</time></trkpt><trkpt lat="44.56391144337267" lon="10.220907662049633"><ele>396.0</ele><time>2026-04-18T07:44:19Z</time></trkpt><trkpt lat="44.56397806490397" lon="10.221092943344825"><ele>396.0</ele><time>2026-04-18T07:44:20Z</time></trkpt><trkpt lat="44.56404059880818" lon="10.221274154676967"><ele>396.0</ele><time>2026-04-18T07:44:21Z</time></trkpt><trkpt lat="44.56410709648721" lon="10.221463141837637"><ele>396.0</ele><time>2026-04-18T07:44:22Z</time></trkpt><trkpt lat="44.564170442675405" lon="10.221651748969768"><ele>393.0</ele><time>2026-04-18T07:44:23Z</time></trkpt><trkpt lat="44.56423118971165" lon="10.221831111189644"><ele>390.0</ele><time>2026-04-18T07:44:24Z</time></trkpt><trkpt lat="44.56430359549532" lon="10.22200331404781"><ele>387.0</ele><time>2026-04-18T07:44:25Z</time></trkpt><trkpt lat="44.56440961706118" lon="10.222160700136719"><ele>384.0</ele><time>2026-04-18T07:44:26Z</time></trkpt><trkpt lat="44.56452999309583" lon="10.222278518333379"><ele>385.75</ele><time>2026-04-18T07:44:27Z</time></trkpt><trkpt lat="44.56465903112656" lon="10.222360529494978"><ele>387.5</ele><time>2026-04-18T07:44:28Z</time></trkpt><trkpt lat="44.564758363647584" lon="10.222490876702418"><ele>389.25</ele><time>2026-04-18T07:44:29Z</time></trkpt><trkpt lat="44.564862107292456" lon="10.222620595351385"><ele>391.0</ele><time>2026-04-18T07:44:30Z</time></trkpt><trkpt lat="44.56493770489536" lon="10.222805348447428"><ele>391.0</ele><time>2026-04-18T07:44:31Z</time></trkpt><trkpt lat="44.5649924057855" lon="10.223008173674257"><ele>391.0</ele><time>2026-04-18T07:44:32Z</time></trkpt><trkpt lat="44.565031708526135" lon="10.22320727726845"><ele>391.0</ele><time>2026-04-18T07:44:33Z</time></trkpt><trkpt lat="44.565060695821444" lon="10.223392218269783"><ele>391.0</ele><time>2026-04-18T07:44:34Z</time></trkpt><trkpt lat="44.56509500642449" lon="10.223578078858012"><ele>388.5</ele><time>2026-04-18T07:44:35Z</time></trkpt><trkpt lat="44.565127487563316" lon="10.223758471706283"><ele>386.0</ele><time>2026-04-18T07:44:36Z</time></trkpt><trkpt lat="44.565141936820275" lon="10.223932771252935"><ele>383.5</ele><time>2026-04-18T07:44:37Z</time></trkpt><trkpt lat="44.56513565982916" lon="10.22411567040584"><ele>381.0</ele><time>2026-04-18T07:44:38Z</time></trkpt><trkpt lat="44.56510035374499" lon="10.224286028513516"><ele>379.75</ele><time>2026-04-18T07:44:39Z</time></trkpt><trkpt lat="44.56505522513817" lon="10.224452201796822"><ele>378.5</ele><time>2026-04-18T07:44:40Z</time></trkpt><trkpt lat="44.565018047453115" lon="10.22461743617312"><ele>377.25</ele><time>2026-04-18T07:44:41Z</time></trkpt><trkpt lat="44.564988062493306" lon="10.224783265735368"><ele>376.0</ele><time>2026-04-18T07:44:42Z</time></trkpt><trkpt lat="44.564967561162376" lon="10.224950512972871"><ele>374.5</ele><time>2026-04-18T07:44:43Z</time></trkpt><trkpt lat="44.56495943087232" lon="10.225122587565918"><ele>373.0</ele><time>2026-04-18T07:44:44Z</time></trkpt><trkpt lat="44.56497392464129" lon="10.225290226790264"><ele>371.5</ele><time>2026-04-18T07:44:45Z</time></trkpt><trkpt lat="44.56502654935464" lon="10.225450480681321"><ele>370.0</ele><time>2026-04-18T07:44:46Z</time></trkpt><trkpt lat="44.56512116976879" lon="10.225595925806596"><ele>370.0</ele><time>2026-04-18T07:44:47Z</time></trkpt><trkpt lat="44.565261613528016" lon="10.225748394679105"><ele>370.0</ele><time>2026-04-18T07:44:47.999Z</time></trkpt><trkpt lat="44.56539482573708" lon="10.225947020877543"><ele>370.0</ele><time>2026-04-18T07:44:48.999Z</time></trkpt><trkpt lat="44.56555032389965" lon="10.226154109321351"><ele>370.0</ele><time>2026-04-18T07:44:49.999Z</time></trkpt><trkpt lat="44.5657155673389" lon="10.22637469424808"><ele>370.0</ele><time>2026-04-18T07:44:50.999Z</time></trkpt><trkpt lat="44.56587261430803" lon="10.22658605874121"><ele>370.0</ele><time>2026-04-18T07:44:51.999Z</time></trkpt><trkpt lat="44.56602043918689" lon="10.226784809362206"><ele>371.3333333333333</ele><time>2026-04-18T07:44:52.999Z</time></trkpt><trkpt lat="44.56616303402847" lon="10.226952431082909"><ele>372.6666666666667</ele><time>2026-04-18T07:44:53.999Z</time></trkpt><trkpt lat="44.56623684110376" lon="10.227124593354409"><ele>374.0</ele><time>2026-04-18T07:44:54.999Z</time></trkpt><trkpt lat="44.566270261026816" lon="10.227295239827185"><ele>371.0</ele><time>2026-04-18T07:44:55.999Z</time></trkpt><trkpt lat="44.5662660511332" lon="10.227521930960368"><ele>368.0</ele><time>2026-04-18T07:44:56.999Z</time></trkpt><trkpt lat="44.566257227024415" lon="10.227778417967746"><ele>365.0</ele><time>2026-04-18T07:44:57.999Z</time></trkpt><trkpt lat="44.56624373384528" lon="10.228022447341216"><ele>362.33333333333337</ele><time>2026-04-18T07:44:58.999Z</time></trkpt><trkpt lat="44.566246571772815" lon="10.228242829527723"><ele>359.6666666666667</ele><time>2026-04-18T07:44:59.999Z</time></trkpt><trkpt lat="44.566276801733" lon="10.228445317870355"><ele>357.0</ele><time>2026-04-18T07:45:00.999Z</time></trkpt><trkpt lat="44.56635600308407" lon="10.228629500479324"><ele>357.0</ele><time>2026-04-18T07:45:01.999Z</time></trkpt><trkpt lat="44.566458368477974" lon="10.228774396099453"><ele>357.0</ele><time>2026-04-18T07:45:02.999Z</time></trkpt><trkpt lat="44.566536769083676" lon="10.228880408978"><ele>357.0</ele><time>2026-04-18T07:45:03.999Z</time></trkpt><trkpt lat="44.566587343608106" lon="10.228955743572518"><ele>357.0</ele><time>2026-04-18T07:45:04.999Z</time></trkpt><trkpt lat="44.56666530780327" lon="10.229058571409114"><ele>357.0</ele><time>2026-04-18T07:45:06.999Z</time></trkpt><trkpt lat="44.56660764604277" lon="10.22912242766537"><ele>357.0</ele><time>2026-04-18T07:45:10.999Z</time></trkpt><trkpt lat="44.566556078949574" lon="10.229066628856915"><ele>357.0</ele><time>2026-04-18T07:45:11.999Z</time></trkpt><trkpt lat="44.56649290376415" lon="10.22892257610112"><ele>357.0</ele><time>2026-04-18T07:45:12.999Z</time></trkpt><trkpt lat="44.5664094293386" lon="10.22874978808794"><ele>357.0</ele><time>2026-04-18T07:45:13.999Z</time></trkpt><trkpt lat="44.56631766825906" lon="10.228587947016589"><ele>357.0</ele><time>2026-04-18T07:45:14.999Z</time></trkpt><trkpt lat="44.56620760703213" lon="10.228401328409438"><ele>357.0</ele><time>2026-04-18T07:45:15.999Z</time></trkpt><trkpt lat="44.56608833122026" lon="10.228230748026952"><ele>357.0</ele><time>2026-04-18T07:45:16.999Z</time></trkpt><trkpt lat="44.56595491682681" lon="10.228062890379878"><ele>355.0</ele><time>2026-04-18T07:45:17.999Z</time></trkpt><trkpt lat="44.56583030060079" lon="10.22792040866389"><ele>353.0</ele><time>2026-04-18T07:45:18.999Z</time></trkpt><trkpt lat="44.56571204932723" lon="10.227781240384948"><ele>351.0</ele><time>2026-04-18T07:45:19.999Z</time></trkpt><trkpt lat="44.56559301975603" lon="10.227644869397986"><ele>351.0</ele><time>2026-04-18T07:45:20.999Z</time></trkpt><trkpt lat="44.56547985804357" lon="10.227500570855181"><ele>351.0</ele><time>2026-04-18T07:45:21.999Z</time></trkpt><trkpt lat="44.56537274703535" lon="10.227347775776865"><ele>351.0</ele><time>2026-04-18T07:45:22.999Z</time></trkpt><trkpt lat="44.56526803646311" lon="10.227216292811882"><ele>351.0</ele><time>2026-04-18T07:45:23.999Z</time></trkpt><trkpt lat="44.565147210096484" lon="10.227116863981609"><ele>350.75</ele><time>2026-04-18T07:45:24.999Z</time></trkpt><trkpt lat="44.565014466976365" lon="10.227033744825862"><ele>350.5</ele><time>2026-04-18T07:45:25.999Z</time></trkpt><trkpt lat="44.56488313697269" lon="10.226955944579064"><ele>350.25</ele><time>2026-04-18T07:45:26.999Z</time></trkpt><trkpt lat="44.56478823244989" lon="10.226812969472796"><ele>350.0</ele><time>2026-04-18T07:45:27.999Z</time></trkpt><trkpt lat="44.56473656645846" lon="10.22665464457462"><ele>350.0</ele><time>2026-04-18T07:45:28.999Z</time></trkpt><trkpt lat="44.564668396309635" lon="10.22650521276078"><ele>350.0</ele><time>2026-04-18T07:45:29.999Z</time></trkpt><trkpt lat="44.5646197633103" lon="10.226367676058079"><ele>350.0</ele><time>2026-04-18T07:45:30.999Z</time></trkpt><trkpt lat="44.56453355656595" lon="10.226286107556373"><ele>350.0</ele><time>2026-04-18T07:45:32Z</time></trkpt><trkpt lat="44.56442031644593" lon="10.226264554632301"><ele>348.25</ele><time>2026-04-18T07:45:33Z</time></trkpt><trkpt lat="44.56429370790407" lon="10.22629748778295"><ele>346.5</ele><time>2026-04-18T07:45:34Z</time></trkpt><trkpt lat="44.56415864047028" lon="10.226387317520896"><ele>344.75</ele><time>2026-04-18T07:45:35Z</time></trkpt><trkpt lat="44.56401560176198" lon="10.22651705478794"><ele>343.0</ele><time>2026-04-18T07:45:36Z</time></trkpt><trkpt lat="44.56382517971624" lon="10.226646077968503"><ele>339.5</ele><time>2026-04-18T07:45:37Z</time></trkpt><trkpt lat="44.56362307175284" lon="10.226766170789329"><ele>336.0</ele><time>2026-04-18T07:45:38Z</time></trkpt><trkpt lat="44.563389618382104" lon="10.226900383299038"><ele>336.0</ele><time>2026-04-18T07:45:39Z</time></trkpt><trkpt lat="44.563162440611876" lon="10.22702486195256"><ele>336.0</ele><time>2026-04-18T07:45:40Z</time></trkpt><trkpt lat="44.562927835313296" lon="10.227155527686334"><ele>336.0</ele><time>2026-04-18T07:45:41Z</time></trkpt><trkpt lat="44.5627218918211" lon="10.227270812252051"><ele>336.0</ele><time>2026-04-18T07:45:42Z</time></trkpt><trkpt lat="44.56255094510131" lon="10.2273815449272"><ele>336.0</ele><time>2026-04-18T07:45:43Z</time></trkpt><trkpt lat="44.56239405785714" lon="10.227476283316063"><ele>336.25</ele><time>2026-04-18T07:45:44Z</time></trkpt><trkpt lat="44.56225313367476" lon="10.227561593600733"><ele>336.5</ele><time>2026-04-18T07:45:45Z</time></trkpt><trkpt lat="44.56211622562229" lon="10.227645820201998"><ele>336.75</ele><time>2026-04-18T07:45:46Z</time></trkpt><trkpt lat="44.561996255864955" lon="10.227709749194466"><ele>337.0</ele><time>2026-04-18T07:45:47Z</time></trkpt><trkpt lat="44.56188271026507" lon="10.22776536980767"><ele>337.8</ele><time>2026-04-18T07:45:48Z</time></trkpt><trkpt lat="44.5617898873487" lon="10.227823378815714"><ele>338.6</ele><time>2026-04-18T07:45:49Z</time></trkpt><trkpt lat="44.561720203240526" lon="10.227876376308593"><ele>339.40000000000003</ele><time>2026-04-18T07:45:50Z</time></trkpt><trkpt lat="44.56165565373168" lon="10.22792985807519"><ele>340.20000000000005</ele><time>2026-04-18T07:45:51Z</time></trkpt><trkpt lat="44.56158061230416" lon="10.227999787542"><ele>341.0</ele><time>2026-04-18T07:45:52Z</time></trkpt><trkpt lat="44.56150669560847" lon="10.228123419799688"><ele>341.25</ele><time>2026-04-18T07:45:53Z</time></trkpt><trkpt lat="44.561441459090666" lon="10.228291884670815"><ele>341.5</ele><time>2026-04-18T07:45:54Z</time></trkpt><trkpt lat="44.561374654388985" lon="10.228466671843275"><ele>341.75</ele><time>2026-04-18T07:45:55Z</time></trkpt><trkpt lat="44.56129813410223" lon="10.228643313202152"><ele>342.0</ele><time>2026-04-18T07:45:56Z</time></trkpt><trkpt lat="44.56119888881208" lon="10.22881753261205"><ele>344.6666666666667</ele><time>2026-04-18T07:45:57Z</time></trkpt><trkpt lat="44.56108383449014" lon="10.2289848537728"><ele>347.33333333333337</ele><time>2026-04-18T07:45:58Z</time></trkpt><trkpt lat="44.56096307227568" lon="10.229117569088798"><ele>350.0</ele><time>2026-04-18T07:45:59Z</time></trkpt><trkpt lat="44.56081597176928" lon="10.229242329215317"><ele>350.0</ele><time>2026-04-18T07:46:00Z</time></trkpt><trkpt lat="44.5606478530978" lon="10.229337355271385"><ele>350.0</ele><time>2026-04-18T07:46:01Z</time></trkpt><trkpt lat="44.56048376692037" lon="10.229419640175733"><ele>350.0</ele><time>2026-04-18T07:46:02Z</time></trkpt><trkpt lat="44.560324856649764" lon="10.229514247020036"><ele>353.33333333333337</ele><time>2026-04-18T07:46:03Z</time></trkpt><trkpt lat="44.56015351986062" lon="10.229587313171278"><ele>356.6666666666667</ele><time>2026-04-18T07:46:04Z</time></trkpt><trkpt lat="44.559980124118006" lon="10.2296210540649"><ele>360.0</ele><time>2026-04-18T07:46:05Z</time></trkpt><trkpt lat="44.55979388451202" lon="10.229598321150727"><ele>360.0</ele><time>2026-04-18T07:46:06Z</time></trkpt><trkpt lat="44.559608188842915" lon="10.229530215085092"><ele>360.0</ele><time>2026-04-18T07:46:07Z</time></trkpt><trkpt lat="44.55943885471534" lon="10.229446577012878"><ele>360.0</ele><time>2026-04-18T07:46:08Z</time></trkpt><trkpt lat="44.55926181210805" lon="10.229379562481256"><ele>360.6666666666667</ele><time>2026-04-18T07:46:09Z</time></trkpt><trkpt lat="44.55906929536367" lon="10.229378032004384"><ele>361.33333333333337</ele><time>2026-04-18T07:46:10Z</time></trkpt><trkpt lat="44.55886019053713" lon="10.229448752260229"><ele>362.0</ele><time>2026-04-18T07:46:11Z</time></trkpt><trkpt lat="44.558662651815695" lon="10.229556073470564"><ele>364.33333333333337</ele><time>2026-04-18T07:46:12Z</time></trkpt><trkpt lat="44.55848696259492" lon="10.229718669117728"><ele>366.6666666666667</ele><time>2026-04-18T07:46:13Z</time></trkpt><trkpt lat="44.55832483878632" lon="10.229954862186684"><ele>369.0</ele><time>2026-04-18T07:46:14Z</time></trkpt><trkpt lat="44.558179840232945" lon="10.230222498306599"><ele>369.0</ele><time>2026-04-18T07:46:15Z</time></trkpt><trkpt lat="44.55803413876125" lon="10.230445184837585"><ele>369.0</ele><time>2026-04-18T07:46:16Z</time></trkpt><trkpt lat="44.557873553918796" lon="10.230564146888655"><ele>369.0</ele><time>2026-04-18T07:46:17Z</time></trkpt><trkpt lat="44.5577025623225" lon="10.230651449661526"><ele>369.0</ele><time>2026-04-18T07:46:18Z</time></trkpt><trkpt lat="44.557511546643944" lon="10.230752672530635"><ele>369.0</ele><time>2026-04-18T07:46:19Z</time></trkpt><trkpt lat="44.557310142260626" lon="10.230862992900777"><ele>369.0</ele><time>2026-04-18T07:46:20Z</time></trkpt><trkpt lat="44.557110718510884" lon="10.230979895454364"><ele>370.6666666666667</ele><time>2026-04-18T07:46:21Z</time></trkpt><trkpt lat="44.55690093070986" lon="10.231060236224817"><ele>372.33333333333337</ele><time>2026-04-18T07:46:22Z</time></trkpt><trkpt lat="44.55669171129686" lon="10.231174208183624"><ele>374.0</ele><time>2026-04-18T07:46:23Z</time></trkpt><trkpt lat="44.55647241417216" lon="10.231250931007462"><ele>374.0</ele><time>2026-04-18T07:46:24Z</time></trkpt><trkpt lat="44.55624576161532" lon="10.231267402459947"><ele>374.0</ele><time>2026-04-18T07:46:25Z</time></trkpt><trkpt lat="44.556032774563874" lon="10.231217791187833"><ele>374.0</ele><time>2026-04-18T07:46:26Z</time></trkpt><trkpt lat="44.55583018389671" lon="10.23112832873261"><ele>375.0</ele><time>2026-04-18T07:46:27Z</time></trkpt><trkpt lat="44.55564178735928" lon="10.231058243886903"><ele>376.0</ele><time>2026-04-18T07:46:28Z</time></trkpt><trkpt lat="44.55542611216238" lon="10.231063292191449"><ele>377.0</ele><time>2026-04-18T07:46:29Z</time></trkpt><trkpt lat="44.555190197294166" lon="10.2311664809363"><ele>380.5</ele><time>2026-04-18T07:46:30Z</time></trkpt><trkpt lat="44.55493684741652" lon="10.231287419837997"><ele>384.0</ele><time>2026-04-18T07:46:31Z</time></trkpt><trkpt lat="44.55467490159243" lon="10.231385996312444"><ele>385.0</ele><time>2026-04-18T07:46:32Z</time></trkpt><trkpt lat="44.55441574399255" lon="10.231480467810155"><ele>386.0</ele><time>2026-04-18T07:46:33Z</time></trkpt><trkpt lat="44.55414999043763" lon="10.231582320523094"><ele>386.0</ele><time>2026-04-18T07:46:34Z</time></trkpt><trkpt lat="44.55388837532422" lon="10.231670434662641"><ele>386.0</ele><time>2026-04-18T07:46:35Z</time></trkpt><trkpt lat="44.553628583219265" lon="10.231760367599085"><ele>389.0</ele><time>2026-04-18T07:46:36Z</time></trkpt><trkpt lat="44.553388331860624" lon="10.231847217633037"><ele>392.0</ele><time>2026-04-18T07:46:37Z</time></trkpt><trkpt lat="44.55316908517255" lon="10.231938152760868"><ele>392.0</ele><time>2026-04-18T07:46:38Z</time></trkpt><trkpt lat="44.55297507353085" lon="10.232061853003449"><ele>392.0</ele><time>2026-04-18T07:46:39Z</time></trkpt><trkpt lat="44.55278170777647" lon="10.232247927448793"><ele>392.0</ele><time>2026-04-18T07:46:40Z</time></trkpt><trkpt lat="44.55262775638362" lon="10.232508129629144"><ele>396.0</ele><time>2026-04-18T07:46:41Z</time></trkpt><trkpt lat="44.55251818259304" lon="10.232799710297964"><ele>400.0</ele><time>2026-04-18T07:46:42Z</time></trkpt><trkpt lat="44.55246148888367" lon="10.233124992437167"><ele>400.0</ele><time>2026-04-18T07:46:43Z</time></trkpt><trkpt lat="44.55244432096246" lon="10.233476809089295"><ele>400.0</ele><time>2026-04-18T07:46:44Z</time></trkpt><trkpt lat="44.55246389348419" lon="10.233837347171924"><ele>400.5</ele><time>2026-04-18T07:46:45Z</time></trkpt><trkpt lat="44.552452710507986" lon="10.234174555661586"><ele>401.0</ele><time>2026-04-18T07:46:46Z</time></trkpt><trkpt lat="44.55241681187508" lon="10.234483003555834"><ele>401.0</ele><time>2026-04-18T07:46:47Z</time></trkpt><trkpt lat="44.55233892266963" lon="10.234770015543093"><ele>401.0</ele><time>2026-04-18T07:46:48Z</time></trkpt><trkpt lat="44.55220847525578" lon="10.235045823273866"><ele>407.5</ele><time>2026-04-18T07:46:49Z</time></trkpt><trkpt lat="44.552033489555114" lon="10.235278213192778"><ele>414.0</ele><time>2026-04-18T07:46:50Z</time></trkpt><trkpt lat="44.55182380318635" lon="10.235479098517285"><ele>413.5</ele><time>2026-04-18T07:46:51Z</time></trkpt><trkpt lat="44.55160075831819" lon="10.235685770795953"><ele>413.0</ele><time>2026-04-18T07:46:51.999Z</time></trkpt><trkpt lat="44.55139319486661" lon="10.235890734066382"><ele>415.5</ele><time>2026-04-18T07:46:52.999Z</time></trkpt><trkpt lat="44.55118275388557" lon="10.236036003541251"><ele>418.0</ele><time>2026-04-18T07:46:53.999Z</time></trkpt><trkpt lat="44.55095085975918" lon="10.236122480742168"><ele>418.0</ele><time>2026-04-18T07:46:54.999Z</time></trkpt><trkpt lat="44.5507467799707" lon="10.236260062386796"><ele>418.0</ele><time>2026-04-18T07:46:55.999Z</time></trkpt><trkpt lat="44.55048489667902" lon="10.236121259239694"><ele>421.5</ele><time>2026-04-18T07:46:56.999Z</time></trkpt><trkpt lat="44.550260023289475" lon="10.236024129315753"><ele>425.0</ele><time>2026-04-18T07:46:57.999Z</time></trkpt><trkpt lat="44.55005078671231" lon="10.235915805848826"><ele>425.0</ele><time>2026-04-18T07:46:58.999Z</time></trkpt><trkpt lat="44.5498689290967" lon="10.235775700280701"><ele>425.0</ele><time>2026-04-18T07:46:59.999Z</time></trkpt><trkpt lat="44.5497003150456" lon="10.235576077007998"><ele>425.0</ele><time>2026-04-18T07:47:00.999Z</time></trkpt><trkpt lat="44.54952907379447" lon="10.235343927867946"><ele>430.0</ele><time>2026-04-18T07:47:01.999Z</time></trkpt><trkpt lat="44.549356427994155" lon="10.235123640588498"><ele>435.0</ele><time>2026-04-18T07:47:02.999Z</time></trkpt><trkpt lat="44.549175369815316" lon="10.23493386827568"><ele>438.5</ele><time>2026-04-18T07:47:03.999Z</time></trkpt><trkpt lat="44.54896391700618" lon="10.234784317993789"><ele>442.0</ele><time>2026-04-18T07:47:04.999Z</time></trkpt><trkpt lat="44.54872779333312" lon="10.23468313303674"><ele>444.0</ele><time>2026-04-18T07:47:05.999Z</time></trkpt><trkpt lat="44.54849136674589" lon="10.234610083076454"><ele>446.0</ele><time>2026-04-18T07:47:06.999Z</time></trkpt><trkpt lat="44.54828325974874" lon="10.234490532197036"><ele>446.0</ele><time>2026-04-18T07:47:07.999Z</time></trkpt><trkpt lat="44.54809905037565" lon="10.234293249140388"><ele>446.0</ele><time>2026-04-18T07:47:08.999Z</time></trkpt><trkpt lat="44.54791412729376" lon="10.234055957151757"><ele>452.5</ele><time>2026-04-18T07:47:09.999Z</time></trkpt><trkpt lat="44.547725396689344" lon="10.233799104186927"><ele>459.0</ele><time>2026-04-18T07:47:10.999Z</time></trkpt><trkpt lat="44.54753899219511" lon="10.233572886532283"><ele>459.0</ele><time>2026-04-18T07:47:11.999Z</time></trkpt><trkpt lat="44.54736180037051" lon="10.233393805103193"><ele>459.0</ele><time>2026-04-18T07:47:12.999Z</time></trkpt><trkpt lat="44.54719258119785" lon="10.233238390788062"><ele>459.0</ele><time>2026-04-18T07:47:13.999Z</time></trkpt><trkpt lat="44.54702888763301" lon="10.233106873066347"><ele>460.66666666666663</ele><time>2026-04-18T07:47:14.999Z</time></trkpt><trkpt lat="44.546860577109946" lon="10.233042086884506"><ele>462.3333333333333</ele><time>2026-04-18T07:47:15.999Z</time></trkpt><trkpt lat="44.54666326915805" lon="10.233036633332492"><ele>464.0</ele><time>2026-04-18T07:47:16.999Z</time></trkpt><trkpt lat="44.546463979234375" lon="10.233114674910219"><ele>462.0</ele><time>2026-04-18T07:47:17.999Z</time></trkpt><trkpt lat="44.546289675258755" lon="10.23325304887232"><ele>460.0</ele><time>2026-04-18T07:47:18.999Z</time></trkpt><trkpt lat="44.54614625045127" lon="10.233475877837844"><ele>458.0</ele><time>2026-04-18T07:47:19.999Z</time></trkpt><trkpt lat="44.546008094197134" lon="10.23370670733942"><ele>466.3333333333333</ele><time>2026-04-18T07:47:20.999Z</time></trkpt><trkpt lat="44.5458663106195" lon="10.233840759678126"><ele>474.66666666666663</ele><time>2026-04-18T07:47:21.999Z</time></trkpt><trkpt lat="44.54568857549506" lon="10.233906215182824"><ele>483.0</ele><time>2026-04-18T07:47:22.999Z</time></trkpt><trkpt lat="44.54547097519137" lon="10.233912169158986"><ele>481.0</ele><time>2026-04-18T07:47:23.999Z</time></trkpt><trkpt lat="44.54525735940202" lon="10.233900437788249"><ele>479.0</ele><time>2026-04-18T07:47:24.999Z</time></trkpt><trkpt lat="44.54506586469134" lon="10.23393306555889"><ele>477.0</ele><time>2026-04-18T07:47:25.999Z</time></trkpt><trkpt lat="44.54487121742314" lon="10.234087204401401"><ele>477.0</ele><time>2026-04-18T07:47:26.999Z</time></trkpt><trkpt lat="44.54471471300379" lon="10.23432715471345"><ele>477.0</ele><time>2026-04-18T07:47:27.999Z</time></trkpt><trkpt lat="44.54455937781797" lon="10.234526121115104"><ele>477.0</ele><time>2026-04-18T07:47:28.999Z</time></trkpt><trkpt lat="44.544388978204815" lon="10.234650346077826"><ele>481.0</ele><time>2026-04-18T07:47:29.999Z</time></trkpt><trkpt lat="44.54419659997354" lon="10.23467198699355"><ele>485.0</ele><time>2026-04-18T07:47:30.999Z</time></trkpt><trkpt lat="44.5439961805994" lon="10.234645306424193"><ele>489.0</ele><time>2026-04-18T07:47:31.999Z</time></trkpt><trkpt lat="44.54381690243663" lon="10.234530548404646"><ele>486.0</ele><time>2026-04-18T07:47:32.999Z</time></trkpt><trkpt lat="44.54362447467696" lon="10.234368237356312"><ele>483.0</ele><time>2026-04-18T07:47:33.999Z</time></trkpt><trkpt lat="44.54343449637667" lon="10.234181800061004"><ele>488.0</ele><time>2026-04-18T07:47:34.999Z</time></trkpt><trkpt lat="44.54326621641319" lon="10.233954538589016"><ele>493.0</ele><time>2026-04-18T07:47:35.999Z</time></trkpt><trkpt lat="44.54311683927331" lon="10.233710997880106"><ele>493.0</ele><time>2026-04-18T07:47:36.999Z</time></trkpt><trkpt lat="44.54297474171433" lon="10.23350749035659"><ele>493.0</ele><time>2026-04-18T07:47:38Z</time></trkpt><trkpt lat="44.54279475412232" lon="10.233338325882016"><ele>493.0</ele><time>2026-04-18T07:47:39Z</time></trkpt><trkpt lat="44.5425614974165" lon="10.233228943900276"><ele>493.5</ele><time>2026-04-18T07:47:40Z</time></trkpt><trkpt lat="44.542275799303134" lon="10.233194162746006"><ele>494.0</ele><time>2026-04-18T07:47:41Z</time></trkpt><trkpt lat="44.542035665819355" lon="10.233244204885997"><ele>494.0</ele><time>2026-04-18T07:47:42Z</time></trkpt><trkpt lat="44.5417726715264" lon="10.233359991306394"><ele>494.0</ele><time>2026-04-18T07:47:43Z</time></trkpt><trkpt lat="44.541552244543425" lon="10.23348087795238"><ele>494.0</ele><time>2026-04-18T07:47:44Z</time></trkpt><trkpt lat="44.54132942493322" lon="10.233566608416565"><ele>494.0</ele><time>2026-04-18T07:47:45Z</time></trkpt><trkpt lat="44.54107764052145" lon="10.233640271403186"><ele>497.0</ele><time>2026-04-18T07:47:46Z</time></trkpt><trkpt lat="44.54078458940301" lon="10.233686727471124"><ele>500.0</ele><time>2026-04-18T07:47:47Z</time></trkpt><trkpt lat="44.54059884829863" lon="10.23371649160198"><ele>500.0</ele><time>2026-04-18T07:47:48Z</time></trkpt><trkpt lat="44.540357474287646" lon="10.233680769978175"><ele>500.0</ele><time>2026-04-18T07:47:49Z</time></trkpt><trkpt lat="44.54009873227008" lon="10.233585821776824"><ele>500.0</ele><time>2026-04-18T07:47:50Z</time></trkpt><trkpt lat="44.539839814382795" lon="10.233469495490034"><ele>500.0</ele><time>2026-04-18T07:47:51Z</time></trkpt><trkpt lat="44.53960580181428" lon="10.23334686844609"><ele>501.3333333333333</ele><time>2026-04-18T07:47:52Z</time></trkpt><trkpt lat="44.53941404533734" lon="10.23323419855024"><ele>502.66666666666663</ele><time>2026-04-18T07:47:53Z</time></trkpt><trkpt lat="44.539207214368794" lon="10.23315027844758"><ele>504.0</ele><time>2026-04-18T07:47:54Z</time></trkpt><trkpt lat="44.538977622631855" lon="10.233138226150091"><ele>510.5</ele><time>2026-04-18T07:47:55Z</time></trkpt><trkpt lat="44.53870425531988" lon="10.233215893701372"><ele>517.0</ele><time>2026-04-18T07:47:56Z</time></trkpt><trkpt lat="44.53851172819988" lon="10.233337467415474"><ele>517.0</ele><time>2026-04-18T07:47:57Z</time></trkpt><trkpt lat="44.53832142886069" lon="10.233471251610714"><ele>517.0</ele><time>2026-04-18T07:47:58Z</time></trkpt><trkpt lat="44.53812105522796" lon="10.233515818662681"><ele>517.0</ele><time>2026-04-18T07:47:59Z</time></trkpt><trkpt lat="44.5378725805829" lon="10.233479610033832"><ele>518.5</ele><time>2026-04-18T07:48:00Z</time></trkpt><trkpt lat="44.53760914861306" lon="10.23343505848511"><ele>520.0</ele><time>2026-04-18T07:48:01Z</time></trkpt><trkpt lat="44.537342458344376" lon="10.233412315437644"><ele>520.0</ele><time>2026-04-18T07:48:02Z</time></trkpt><trkpt lat="44.53707328888377" lon="10.233372353050054"><ele>520.0</ele><time>2026-04-18T07:48:03Z</time></trkpt><trkpt lat="44.53680197089041" lon="10.233330723789416"><ele>522.0</ele><time>2026-04-18T07:48:04Z</time></trkpt><trkpt lat="44.536550202463175" lon="10.233310288008505"><ele>524.0</ele><time>2026-04-18T07:48:05Z</time></trkpt><trkpt lat="44.53633707900762" lon="10.233232024431215"><ele>530.0</ele><time>2026-04-18T07:48:06Z</time></trkpt><trkpt lat="44.53615319968292" lon="10.23310524433356"><ele>536.0</ele><time>2026-04-18T07:48:07Z</time></trkpt><trkpt lat="44.53592885641551" lon="10.232916210971958"><ele>536.0</ele><time>2026-04-18T07:48:08Z</time></trkpt><trkpt lat="44.53572843461163" lon="10.232735622006764"><ele>536.0</ele><time>2026-04-18T07:48:09Z</time></trkpt><trkpt lat="44.53558516352791" lon="10.232550376643617"><ele>536.0</ele><time>2026-04-18T07:48:10Z</time></trkpt><trkpt lat="44.535431068245195" lon="10.232306994131312"><ele>535.5</ele><time>2026-04-18T07:48:11Z</time></trkpt><trkpt lat="44.53526705985416" lon="10.232026859046146"><ele>535.0</ele><time>2026-04-18T07:48:12Z</time></trkpt><trkpt lat="44.535112304085445" lon="10.231759044887754"><ele>535.0</ele><time>2026-04-18T07:48:13Z</time></trkpt><trkpt lat="44.53493859805744" lon="10.23152941839257"><ele>535.0</ele><time>2026-04-18T07:48:14Z</time></trkpt><trkpt lat="44.534790394595774" lon="10.231286736001872"><ele>537.0</ele><time>2026-04-18T07:48:15Z</time></trkpt><trkpt lat="44.534641036175515" lon="10.23107152130417"><ele>539.0</ele><time>2026-04-18T07:48:16Z</time></trkpt><trkpt lat="44.534484521087705" lon="10.230875683171414"><ele>541.0</ele><time>2026-04-18T07:48:17Z</time></trkpt><trkpt lat="44.53431929358095" lon="10.230696473586619"><ele>545.6666666666667</ele><time>2026-04-18T07:48:18Z</time></trkpt><trkpt lat="44.53414750217317" lon="10.23052195607434"><ele>550.3333333333334</ele><time>2026-04-18T07:48:19Z</time></trkpt><trkpt lat="44.533961689407796" lon="10.230386354489408"><ele>555.0</ele><time>2026-04-18T07:48:20Z</time></trkpt><trkpt lat="44.53378093766725" lon="10.230244239736136"><ele>553.3333333333334</ele><time>2026-04-18T07:48:21Z</time></trkpt><trkpt lat="44.533597287887886" lon="10.230104181133113"><ele>551.6666666666667</ele><time>2026-04-18T07:48:22Z</time></trkpt><trkpt lat="44.53341282453143" lon="10.229966300875258"><ele>550.0</ele><time>2026-04-18T07:48:23Z</time></trkpt><trkpt lat="44.53322921698892" lon="10.229829157839548"><ele>553.6666666666667</ele><time>2026-04-18T07:48:24Z</time></trkpt><trkpt lat="44.533044561021455" lon="10.22969523371313"><ele>557.3333333333334</ele><time>2026-04-18T07:48:25Z</time></trkpt><trkpt lat="44.532859398454306" lon="10.229567279036345"><ele>561.0</ele><time>2026-04-18T07:48:26Z</time></trkpt><trkpt lat="44.53266330098285" lon="10.229419578193783"><ele>561.0</ele><time>2026-04-18T07:48:27Z</time></trkpt><trkpt lat="44.532487329647154" lon="10.229235462771863"><ele>561.0</ele><time>2026-04-18T07:48:28Z</time></trkpt><trkpt lat="44.532301921583276" lon="10.229078956481116"><ele>561.0</ele><time>2026-04-18T07:48:29Z</time></trkpt><trkpt lat="44.532151086992066" lon="10.228928736662764"><ele>564.6666666666666</ele><time>2026-04-18T07:48:30Z</time></trkpt><trkpt lat="44.53199890788692" lon="10.228812547161704"><ele>568.3333333333333</ele><time>2026-04-18T07:48:31Z</time></trkpt><trkpt lat="44.53181132879233" lon="10.228749485908763"><ele>572.0</ele><time>2026-04-18T07:48:32Z</time></trkpt><trkpt lat="44.531590274903536" lon="10.228744078713271"><ele>572.0</ele><time>2026-04-18T07:48:33Z</time></trkpt><trkpt lat="44.531354090513545" lon="10.228793128051045"><ele>572.0</ele><time>2026-04-18T07:48:34Z</time></trkpt><trkpt lat="44.531133393740774" lon="10.228877036532761"><ele>570.0</ele><time>2026-04-18T07:48:35Z</time></trkpt><trkpt lat="44.530875865488326" lon="10.228823551701032"><ele>568.0</ele><time>2026-04-18T07:48:36Z</time></trkpt><trkpt lat="44.53071897345902" lon="10.228701264182227"><ele>566.0</ele><time>2026-04-18T07:48:37Z</time></trkpt><trkpt lat="44.53052941218759" lon="10.228723222015377"><ele>565.3333333333333</ele><time>2026-04-18T07:48:38Z</time></trkpt><trkpt lat="44.53034496590608" lon="10.228858859573592"><ele>564.6666666666666</ele><time>2026-04-18T07:48:39Z</time></trkpt><trkpt lat="44.53016197970391" lon="10.228996525830594"><ele>564.0</ele><time>2026-04-18T07:48:40Z</time></trkpt><trkpt lat="44.530021414164395" lon="10.229164673007487"><ele>560.75</ele><time>2026-04-18T07:48:41Z</time></trkpt><trkpt lat="44.52987064490975" lon="10.229221588766395"><ele>557.5</ele><time>2026-04-18T07:48:42Z</time></trkpt><trkpt lat="44.52972799715694" lon="10.229244041784805"><ele>554.25</ele><time>2026-04-18T07:48:43Z</time></trkpt><trkpt lat="44.529593805762524" lon="10.22916132096669"><ele>551.0</ele><time>2026-04-18T07:48:44Z</time></trkpt><trkpt lat="44.52944459902951" lon="10.229011721751714"><ele>552.5</ele><time>2026-04-18T07:48:45Z</time></trkpt><trkpt lat="44.529302895927394" lon="10.22875227142939"><ele>554.0</ele><time>2026-04-18T07:48:46Z</time></trkpt><trkpt lat="44.529142679513185" lon="10.228503835016973"><ele>554.0</ele><time>2026-04-18T07:48:47Z</time></trkpt><trkpt lat="44.52900516884704" lon="10.228293127042576"><ele>554.0</ele><time>2026-04-18T07:48:48Z</time></trkpt><trkpt lat="44.52885775236853" lon="10.228145302129805"><ele>554.0</ele><time>2026-04-18T07:48:49Z</time></trkpt><trkpt lat="44.52868593852852" lon="10.227998412363018"><ele>553.6666666666666</ele><time>2026-04-18T07:48:50Z</time></trkpt><trkpt lat="44.528553509360584" lon="10.227812704795848"><ele>553.3333333333334</ele><time>2026-04-18T07:48:51Z</time></trkpt><trkpt lat="44.52841420489423" lon="10.22766358909358"><ele>553.0</ele><time>2026-04-18T07:48:52Z</time></trkpt><trkpt lat="44.52844061297514" lon="10.227263342959798"><ele>553.0</ele><time>2026-04-18T07:48:53Z</time></trkpt><trkpt lat="44.528418378927896" lon="10.226954948639742"><ele>553.0</ele><time>2026-04-18T07:48:54Z</time></trkpt><trkpt lat="44.52837198169793" lon="10.226682741449656"><ele>553.0</ele><time>2026-04-18T07:48:55Z</time></trkpt><trkpt lat="44.52832073427465" lon="10.226418956739456"><ele>557.5</ele><time>2026-04-18T07:48:55.999Z</time></trkpt><trkpt lat="44.52815772451746" lon="10.226185624899854"><ele>562.0</ele><time>2026-04-18T07:48:56.999Z</time></trkpt><trkpt lat="44.52800819851139" lon="10.225917645040028"><ele>560.6666666666667</ele><time>2026-04-18T07:48:57.999Z</time></trkpt><trkpt lat="44.52787078225385" lon="10.225668466738586"><ele>559.3333333333334</ele><time>2026-04-18T07:48:58.999Z</time></trkpt><trkpt lat="44.52771385178329" lon="10.225458531354922"><ele>558.0</ele><time>2026-04-18T07:48:59.999Z</time></trkpt><trkpt lat="44.5275408097792" lon="10.225292542717947"><ele>558.0</ele><time>2026-04-18T07:49:00.999Z</time></trkpt><trkpt lat="44.527410601927215" lon="10.225120254329802"><ele>558.0</ele><time>2026-04-18T07:49:01.999Z</time></trkpt><trkpt lat="44.527352492214156" lon="10.224883205481378"><ele>558.0</ele><time>2026-04-18T07:49:02.999Z</time></trkpt><trkpt lat="44.52733529087043" lon="10.224615535153458"><ele>560.0</ele><time>2026-04-18T07:49:03.999Z</time></trkpt><trkpt lat="44.527296623072274" lon="10.224363558790852"><ele>562.0</ele><time>2026-04-18T07:49:04.999Z</time></trkpt><trkpt lat="44.527264436930565" lon="10.22414471674321"><ele>564.0</ele><time>2026-04-18T07:49:05.999Z</time></trkpt><trkpt lat="44.52716081689506" lon="10.22398647484511"><ele>562.6666666666666</ele><time>2026-04-18T07:49:06.999Z</time></trkpt><trkpt lat="44.52700119183565" lon="10.223858285865719"><ele>561.3333333333333</ele><time>2026-04-18T07:49:07.999Z</time></trkpt><trkpt lat="44.52683692402219" lon="10.223767914959293"><ele>560.0</ele><time>2026-04-18T07:49:08.999Z</time></trkpt><trkpt lat="44.526706949505055" lon="10.223667860148673"><ele>560.0</ele><time>2026-04-18T07:49:09.999Z</time></trkpt><trkpt lat="44.52660286815412" lon="10.223535150287896"><ele>560.0</ele><time>2026-04-18T07:49:10.999Z</time></trkpt><trkpt lat="44.52656395430748" lon="10.223370489913064"><ele>560.0</ele><time>2026-04-18T07:49:11.999Z</time></trkpt><trkpt lat="44.5265782066558" lon="10.223204024682591"><ele>560.0</ele><time>2026-04-18T07:49:12.999Z</time></trkpt><trkpt lat="44.52658581005165" lon="10.223087546496298"><ele>560.8</ele><time>2026-04-18T07:49:14.999Z</time></trkpt><trkpt lat="44.52658360565792" lon="10.222997972186386"><ele>561.6</ele><time>2026-04-18T07:50:23Z</time></trkpt><trkpt lat="44.52657011913952" lon="10.222877480900022"><ele>562.4</ele><time>2026-04-18T07:50:24Z</time></trkpt><trkpt lat="44.52658244152977" lon="10.22274744292826"><ele>563.2</ele><time>2026-04-18T07:50:25Z</time></trkpt><trkpt lat="44.52657282413026" lon="10.222614635615209"><ele>564.0</ele><time>2026-04-18T07:50:26Z</time></trkpt><trkpt lat="44.526547127562786" lon="10.222464618025942"><ele>564.0</ele><time>2026-04-18T07:50:27Z</time></trkpt><trkpt lat="44.526507296901805" lon="10.222331695467759"><ele>564.0</ele><time>2026-04-18T07:50:28Z</time></trkpt><trkpt lat="44.526467950004886" lon="10.222237168027272"><ele>564.0</ele><time>2026-04-18T07:50:29Z</time></trkpt><trkpt lat="44.526415713482514" lon="10.222135338446027"><ele>564.0</ele><time>2026-04-18T07:50:30Z</time></trkpt><trkpt lat="44.52637261018603" lon="10.222059332330947"><ele>564.0</ele><time>2026-04-18T07:50:31Z</time></trkpt><trkpt lat="44.52631843610638" lon="10.221966292460587"><ele>564.0</ele><time>2026-04-18T07:50:32Z</time></trkpt><trkpt lat="44.52624525841418" lon="10.221842104527205"><ele>562.6</ele><time>2026-04-18T07:50:33Z</time></trkpt><trkpt lat="44.52619122691523" lon="10.221757026554664"><ele>561.2</ele><time>2026-04-18T07:50:34Z</time></trkpt><trkpt lat="44.52610838376119" lon="10.22166550000459"><ele>559.8000000000001</ele><time>2026-04-18T07:50:35Z</time></trkpt><trkpt lat="44.526038510685545" lon="10.2216195944328"><ele>558.4</ele><time>2026-04-18T07:50:36Z</time></trkpt><trkpt lat="44.525921613172336" lon="10.221627219268113"><ele>557.0</ele><time>2026-04-18T07:50:37Z</time></trkpt><trkpt lat="44.52579931246263" lon="10.22161719935456"><ele>557.0</ele><time>2026-04-18T07:50:38Z</time></trkpt><trkpt lat="44.52564768715404" lon="10.221604330903853"><ele>557.0</ele><time>2026-04-18T07:50:39Z</time></trkpt><trkpt lat="44.52549232381448" lon="10.221608783485957"><ele>557.0</ele><time>2026-04-18T07:50:40Z</time></trkpt><trkpt lat="44.52534397830321" lon="10.221593727096566"><ele>556.75</ele><time>2026-04-18T07:50:41Z</time></trkpt><trkpt lat="44.52520287513235" lon="10.221551271954663"><ele>556.5</ele><time>2026-04-18T07:50:42Z</time></trkpt><trkpt lat="44.52506760707346" lon="10.221450234457059"><ele>556.25</ele><time>2026-04-18T07:50:43Z</time></trkpt><trkpt lat="44.52495602412392" lon="10.221339630043254"><ele>556.0</ele><time>2026-04-18T07:50:44Z</time></trkpt><trkpt lat="44.52485393752034" lon="10.221244971399795"><ele>557.5</ele><time>2026-04-18T07:50:45Z</time></trkpt><trkpt lat="44.524741106989936" lon="10.221177819364208"><ele>559.0</ele><time>2026-04-18T07:50:46Z</time></trkpt><trkpt lat="44.524603184875296" lon="10.22113689160064"><ele>560.5</ele><time>2026-04-18T07:50:47Z</time></trkpt><trkpt lat="44.524457941499485" lon="10.221158460044158"><ele>562.0</ele><time>2026-04-18T07:50:48Z</time></trkpt><trkpt lat="44.524311111141415" lon="10.221237475458803"><ele>561.25</ele><time>2026-04-18T07:50:49Z</time></trkpt><trkpt lat="44.52418620671872" lon="10.221351602306104"><ele>560.5</ele><time>2026-04-18T07:50:50Z</time></trkpt><trkpt lat="44.52410064878748" lon="10.221490577014558"><ele>559.75</ele><time>2026-04-18T07:50:51Z</time></trkpt><trkpt lat="44.52402397298345" lon="10.221624114679127"><ele>559.0</ele><time>2026-04-18T07:50:52Z</time></trkpt><trkpt lat="44.523936305396504" lon="10.221754843560081"><ele>559.0</ele><time>2026-04-18T07:50:53Z</time></trkpt><trkpt lat="44.52381848265338" lon="10.22185862742776"><ele>559.0</ele><time>2026-04-18T07:50:54Z</time></trkpt><trkpt lat="44.523649736406874" lon="10.221899094070158"><ele>559.0</ele><time>2026-04-18T07:50:55Z</time></trkpt><trkpt lat="44.52345441784489" lon="10.221913332405892"><ele>561.0</ele><time>2026-04-18T07:50:56Z</time></trkpt><trkpt lat="44.52325962335984" lon="10.221864962161305"><ele>563.0</ele><time>2026-04-18T07:50:57Z</time></trkpt><trkpt lat="44.523053790498885" lon="10.22181799732367"><ele>565.0</ele><time>2026-04-18T07:50:58Z</time></trkpt><trkpt lat="44.5228443402573" lon="10.221695979905315"><ele>565.0</ele><time>2026-04-18T07:50:58.999Z</time></trkpt><trkpt lat="44.52262574274885" lon="10.221578134053756"><ele>565.0</ele><time>2026-04-18T07:50:59.999Z</time></trkpt><trkpt lat="44.52242781264369" lon="10.221495988667952"><ele>565.0</ele><time>2026-04-18T07:51:00.999Z</time></trkpt><trkpt lat="44.52223371610895" lon="10.221469987665712"><ele>565.5</ele><time>2026-04-18T07:51:01.999Z</time></trkpt><trkpt lat="44.522018701942145" lon="10.221531195720704"><ele>566.0</ele><time>2026-04-18T07:51:02.999Z</time></trkpt><trkpt lat="44.52180692846359" lon="10.22167429570114"><ele>566.0</ele><time>2026-04-18T07:51:03.999Z</time></trkpt><trkpt lat="44.521618872659595" lon="10.22179759795149"><ele>566.0</ele><time>2026-04-18T07:51:04.999Z</time></trkpt><trkpt lat="44.521422991096294" lon="10.221783725590909"><ele>566.0</ele><time>2026-04-18T07:51:05.999Z</time></trkpt><trkpt lat="44.5212256281186" lon="10.221763554886937"><ele>569.5</ele><time>2026-04-18T07:51:06.999Z</time></trkpt><trkpt lat="44.52101350880936" lon="10.221663966996791"><ele>573.0</ele><time>2026-04-18T07:51:07.999Z</time></trkpt><trkpt lat="44.52079404381855" lon="10.221558967520075"><ele>575.5</ele><time>2026-04-18T07:51:08.999Z</time></trkpt><trkpt lat="44.52057317047167" lon="10.221467599074906"><ele>578.0</ele><time>2026-04-18T07:51:09.999Z</time></trkpt><trkpt lat="44.520355478390925" lon="10.22138234847965"><ele>578.3333333333333</ele><time>2026-04-18T07:51:10.999Z</time></trkpt><trkpt lat="44.52014364501605" lon="10.22130646343022"><ele>578.6666666666666</ele><time>2026-04-18T07:51:11.999Z</time></trkpt><trkpt lat="44.51992577216991" lon="10.221234484721363"><ele>579.0</ele><time>2026-04-18T07:51:12.999Z</time></trkpt><trkpt lat="44.51971444571015" lon="10.221142451458922"><ele>577.0</ele><time>2026-04-18T07:51:13.999Z</time></trkpt><trkpt lat="44.5195216147033" lon="10.22097533864024"><ele>575.0</ele><time>2026-04-18T07:51:14.999Z</time></trkpt><trkpt lat="44.51931218349605" lon="10.220803479993007"><ele>580.5</ele><time>2026-04-18T07:51:15.999Z</time></trkpt><trkpt lat="44.51912673549654" lon="10.220619809626532"><ele>586.0</ele><time>2026-04-18T07:51:16.999Z</time></trkpt><trkpt lat="44.5189307090152" lon="10.220448407832356"><ele>585.5</ele><time>2026-04-18T07:51:17.999Z</time></trkpt><trkpt lat="44.51872676320747" lon="10.220300344615998"><ele>585.0</ele><time>2026-04-18T07:51:18.999Z</time></trkpt><trkpt lat="44.51851577673504" lon="10.220173756411635"><ele>585.0</ele><time>2026-04-18T07:51:19.999Z</time></trkpt><trkpt lat="44.51830728383917" lon="10.220040566419145"><ele>585.0</ele><time>2026-04-18T07:51:20.999Z</time></trkpt><trkpt lat="44.51810131690808" lon="10.219901937875504"><ele>587.6666666666666</ele><time>2026-04-18T07:51:21.999Z</time></trkpt><trkpt lat="44.517894180637924" lon="10.219781992581241"><ele>590.3333333333333</ele><time>2026-04-18T07:51:22.999Z</time></trkpt><trkpt lat="44.51768973598013" lon="10.219672321805781"><ele>593.0</ele><time>2026-04-18T07:51:23.999Z</time></trkpt><trkpt lat="44.51750061559093" lon="10.21957923693212"><ele>593.0</ele><time>2026-04-18T07:51:24.999Z</time></trkpt><trkpt lat="44.51731986592281" lon="10.21947764499275"><ele>593.0</ele><time>2026-04-18T07:51:25.999Z</time></trkpt><trkpt lat="44.517168070028795" lon="10.219350637628041"><ele>593.0</ele><time>2026-04-18T07:51:26.999Z</time></trkpt><trkpt lat="44.51702918859157" lon="10.21918454137856"><ele>591.6666666666666</ele><time>2026-04-18T07:51:27.999Z</time></trkpt><trkpt lat="44.51688870248897" lon="10.21898667448485"><ele>590.3333333333334</ele><time>2026-04-18T07:51:28.999Z</time></trkpt><trkpt lat="44.51674468361183" lon="10.218788800026118"><ele>589.0</ele><time>2026-04-18T07:51:29.999Z</time></trkpt><trkpt lat="44.51660827972907" lon="10.218615182150902"><ele>589.0</ele><time>2026-04-18T07:51:30.999Z</time></trkpt><trkpt lat="44.51647085248049" lon="10.218465446898033"><ele>589.0</ele><time>2026-04-18T07:51:31.999Z</time></trkpt><trkpt lat="44.516328363835875" lon="10.218377537970298"><ele>589.0</ele><time>2026-04-18T07:51:32.999Z</time></trkpt><trkpt lat="44.51615558698638" lon="10.218410678418692"><ele>589.3333333333334</ele><time>2026-04-18T07:51:33.999Z</time></trkpt><trkpt lat="44.515947031498435" lon="10.218502352053694"><ele>589.6666666666666</ele><time>2026-04-18T07:51:34.999Z</time></trkpt><trkpt lat="44.51573871303661" lon="10.218623662059022"><ele>590.0</ele><time>2026-04-18T07:51:35.999Z</time></trkpt><trkpt lat="44.515520909531375" lon="10.21871585079124"><ele>590.6666666666666</ele><time>2026-04-18T07:51:36.999Z</time></trkpt><trkpt lat="44.51530722366399" lon="10.21880435655162"><ele>591.3333333333334</ele><time>2026-04-18T07:51:37.999Z</time></trkpt><trkpt lat="44.51509212131888" lon="10.218887429909282"><ele>592.0</ele><time>2026-04-18T07:51:38.999Z</time></trkpt><trkpt lat="44.51488772693118" lon="10.218984789336552"><ele>589.0</ele><time>2026-04-18T07:51:39.999Z</time></trkpt><trkpt lat="44.51471567763123" lon="10.21909332962396"><ele>586.0</ele><time>2026-04-18T07:51:40.999Z</time></trkpt><trkpt lat="44.51455608160308" lon="10.219230004357566"><ele>583.0</ele><time>2026-04-18T07:51:41.999Z</time></trkpt><trkpt lat="44.514416784913934" lon="10.219350364862516"><ele>582.75</ele><time>2026-04-18T07:51:42.999Z</time></trkpt><trkpt lat="44.51428781301037" lon="10.21939460818457"><ele>582.5</ele><time>2026-04-18T07:51:43.999Z</time></trkpt><trkpt lat="44.51417896048559" lon="10.219338694983133"><ele>582.25</ele><time>2026-04-18T07:51:44.999Z</time></trkpt><trkpt lat="44.514056281878716" lon="10.21929249139391"><ele>582.0</ele><time>2026-04-18T07:51:45.999Z</time></trkpt><trkpt lat="44.513891748348385" lon="10.219206974156979"><ele>580.3333333333334</ele><time>2026-04-18T07:51:46.999Z</time></trkpt><trkpt lat="44.51370435157701" lon="10.219132735328772"><ele>578.6666666666667</ele><time>2026-04-18T07:51:47.999Z</time></trkpt><trkpt lat="44.51353174032037" lon="10.219051535160864"><ele>577.0</ele><time>2026-04-18T07:51:48.999Z</time></trkpt><trkpt lat="44.513399260241535" lon="10.218932751349536"><ele>577.0</ele><time>2026-04-18T07:51:50Z</time></trkpt><trkpt lat="44.51331113737718" lon="10.218769831404277"><ele>577.0</ele><time>2026-04-18T07:51:51Z</time></trkpt><trkpt lat="44.51326508243822" lon="10.218559513347193"><ele>577.0</ele><time>2026-04-18T07:51:52Z</time></trkpt><trkpt lat="44.51320164259001" lon="10.21830744243494"><ele>576.6666666666667</ele><time>2026-04-18T07:51:53Z</time></trkpt><trkpt lat="44.51312340463088" lon="10.218055913094803"><ele>576.3333333333334</ele><time>2026-04-18T07:51:54Z</time></trkpt><trkpt lat="44.51301622477033" lon="10.217817226579633"><ele>576.0</ele><time>2026-04-18T07:51:55Z</time></trkpt><trkpt lat="44.51288710602211" lon="10.217607489658993"><ele>575.3333333333334</ele><time>2026-04-18T07:51:56Z</time></trkpt><trkpt lat="44.512738010812015" lon="10.217411815448125"><ele>574.6666666666667</ele><time>2026-04-18T07:51:57Z</time></trkpt><trkpt lat="44.512554084304014" lon="10.21727342098337"><ele>574.0</ele><time>2026-04-18T07:51:58Z</time></trkpt><trkpt lat="44.512360606698806" lon="10.217161710647943"><ele>574.0</ele><time>2026-04-18T07:51:59Z</time></trkpt><trkpt lat="44.512201502429576" lon="10.217013654487449"><ele>574.0</ele><time>2026-04-18T07:52:00Z</time></trkpt><trkpt lat="44.51208419580574" lon="10.216769631792866"><ele>574.0</ele><time>2026-04-18T07:52:01Z</time></trkpt><trkpt lat="44.51193296101892" lon="10.21650643329229"><ele>570.5</ele><time>2026-04-18T07:52:02Z</time></trkpt><trkpt lat="44.511786671441094" lon="10.216252000123484"><ele>567.0</ele><time>2026-04-18T07:52:03Z</time></trkpt><trkpt lat="44.51164241446875" lon="10.216024907763359"><ele>567.0</ele><time>2026-04-18T07:52:04Z</time></trkpt><trkpt lat="44.51148846939061" lon="10.215825907782694"><ele>567.0</ele><time>2026-04-18T07:52:05Z</time></trkpt><trkpt lat="44.51131136170947" lon="10.215636030793238"><ele>567.0</ele><time>2026-04-18T07:52:06Z</time></trkpt><trkpt lat="44.511136834414906" lon="10.215486272235204"><ele>566.3333333333334</ele><time>2026-04-18T07:52:07Z</time></trkpt><trkpt lat="44.51095786370834" lon="10.215399699578406"><ele>565.6666666666667</ele><time>2026-04-18T07:52:08Z</time></trkpt><trkpt lat="44.51076489928892" lon="10.215381346697363"><ele>565.0</ele><time>2026-04-18T07:52:09Z</time></trkpt><trkpt lat="44.51056687895304" lon="10.215449222603965"><ele>564.3333333333334</ele><time>2026-04-18T07:52:10Z</time></trkpt><trkpt lat="44.5103622242275" lon="10.215579952043118"><ele>563.6666666666666</ele><time>2026-04-18T07:52:11Z</time></trkpt><trkpt lat="44.51016447202211" lon="10.215709304944857"><ele>563.0</ele><time>2026-04-18T07:52:12Z</time></trkpt><trkpt lat="44.509979070734985" lon="10.215739480356332"><ele>563.0</ele><time>2026-04-18T07:52:13Z</time></trkpt><trkpt lat="44.50979431354642" lon="10.215729296943179"><ele>563.0</ele><time>2026-04-18T07:52:14Z</time></trkpt><trkpt lat="44.509604874013455" lon="10.215644186338464"><ele>563.0</ele><time>2026-04-18T07:52:15Z</time></trkpt><trkpt lat="44.509398763055735" lon="10.21552994548439"><ele>561.3333333333333</ele><time>2026-04-18T07:52:16Z</time></trkpt><trkpt lat="44.50921534617187" lon="10.215387657567108"><ele>559.6666666666666</ele><time>2026-04-18T07:52:17Z</time></trkpt><trkpt lat="44.50901933492174" lon="10.215297172496435"><ele>558.0</ele><time>2026-04-18T07:52:18Z</time></trkpt><trkpt lat="44.50881854475722" lon="10.215259943798397"><ele>556.0</ele><time>2026-04-18T07:52:19Z</time></trkpt><trkpt lat="44.50861187688338" lon="10.215249993619546"><ele>554.0</ele><time>2026-04-18T07:52:20Z</time></trkpt><trkpt lat="44.50841912431955" lon="10.215236133110114"><ele>552.0</ele><time>2026-04-18T07:52:21Z</time></trkpt><trkpt lat="44.50822760737309" lon="10.215222136464115"><ele>552.0</ele><time>2026-04-18T07:52:22Z</time></trkpt><trkpt lat="44.508041832604974" lon="10.215204512901797"><ele>552.0</ele><time>2026-04-18T07:52:23Z</time></trkpt><trkpt lat="44.50786213530012" lon="10.215173946230527"><ele>552.0</ele><time>2026-04-18T07:52:24Z</time></trkpt><trkpt lat="44.50769085005994" lon="10.215097824765389"><ele>549.3333333333334</ele><time>2026-04-18T07:52:25Z</time></trkpt><trkpt lat="44.507541770595246" lon="10.214923967506003"><ele>546.6666666666667</ele><time>2026-04-18T07:52:26Z</time></trkpt><trkpt lat="44.50741199389515" lon="10.214694508841319"><ele>544.0</ele><time>2026-04-18T07:52:27Z</time></trkpt><trkpt lat="44.507282873232164" lon="10.214439829775863"><ele>544.0</ele><time>2026-04-18T07:52:28Z</time></trkpt><trkpt lat="44.50715246325178" lon="10.214184002720293"><ele>544.0</ele><time>2026-04-18T07:52:29Z</time></trkpt><trkpt lat="44.507029015507186" lon="10.213925827869236"><ele>544.0</ele><time>2026-04-18T07:52:30Z</time></trkpt><trkpt lat="44.50689463915795" lon="10.213663552375085"><ele>545.0</ele><time>2026-04-18T07:52:31Z</time></trkpt><trkpt lat="44.50675261286897" lon="10.213392994480799"><ele>546.0</ele><time>2026-04-18T07:52:32Z</time></trkpt><trkpt lat="44.506611250589195" lon="10.21311763102978"><ele>546.0</ele><time>2026-04-18T07:52:33Z</time></trkpt><trkpt lat="44.50647033025382" lon="10.21284073139285"><ele>546.0</ele><time>2026-04-18T07:52:34Z</time></trkpt><trkpt lat="44.50632799153851" lon="10.21256110188827"><ele>549.5</ele><time>2026-04-18T07:52:35Z</time></trkpt><trkpt lat="44.50619006375416" lon="10.21229051209893"><ele>553.0</ele><time>2026-04-18T07:52:36Z</time></trkpt><trkpt lat="44.506062499385564" lon="10.212012262678707"><ele>553.0</ele><time>2026-04-18T07:52:37Z</time></trkpt><trkpt lat="44.505939912220406" lon="10.21177200883656"><ele>553.0</ele><time>2026-04-18T07:52:38Z</time></trkpt><trkpt lat="44.505799472822375" lon="10.21158375709309"><ele>553.0</ele><time>2026-04-18T07:52:39Z</time></trkpt><trkpt lat="44.50570369027451" lon="10.211412047619486"><ele>552.25</ele><time>2026-04-18T07:52:40Z</time></trkpt><trkpt lat="44.505609678361616" lon="10.21129608105593"><ele>551.5</ele><time>2026-04-18T07:52:41Z</time></trkpt><trkpt lat="44.505513035339284" lon="10.211207154108884"><ele>550.75</ele><time>2026-04-18T07:52:42Z</time></trkpt><trkpt lat="44.50538851747152" lon="10.211189760623967"><ele>550.0</ele><time>2026-04-18T07:52:43Z</time></trkpt><trkpt lat="44.50527156418502" lon="10.211295183009597"><ele>554.0</ele><time>2026-04-18T07:52:44Z</time></trkpt><trkpt lat="44.50517736618873" lon="10.211481622611453"><ele>558.0</ele><time>2026-04-18T07:52:45Z</time></trkpt><trkpt lat="44.50512673542731" lon="10.21174484123254"><ele>562.0</ele><time>2026-04-18T07:52:46Z</time></trkpt><trkpt lat="44.50507372587506" lon="10.212034774465211"><ele>565.0</ele><time>2026-04-18T07:52:47Z</time></trkpt><trkpt lat="44.50503204089706" lon="10.2123545941407"><ele>568.0</ele><time>2026-04-18T07:52:48Z</time></trkpt><trkpt lat="44.50501857564892" lon="10.212602494245399"><ele>571.0</ele><time>2026-04-18T07:52:49Z</time></trkpt><trkpt lat="44.505006545063395" lon="10.212874300135589"><ele>572.3333333333334</ele><time>2026-04-18T07:52:50Z</time></trkpt><trkpt lat="44.505001652668454" lon="10.213208361986345"><ele>573.6666666666666</ele><time>2026-04-18T07:52:51Z</time></trkpt><trkpt lat="44.50500899404433" lon="10.213465630248573"><ele>575.0</ele><time>2026-04-18T07:52:52Z</time></trkpt><trkpt lat="44.50504945481918" lon="10.213714961015967"><ele>575.0</ele><time>2026-04-18T07:52:53Z</time></trkpt><trkpt lat="44.50508323047476" lon="10.213946788970233"><ele>575.0</ele><time>2026-04-18T07:52:54Z</time></trkpt><trkpt lat="44.50506139681368" lon="10.214130924677782"><ele>575.0</ele><time>2026-04-18T07:52:55Z</time></trkpt><trkpt lat="44.50497818156211" lon="10.214296897816423"><ele>575.0</ele><time>2026-04-18T07:52:56Z</time></trkpt><trkpt lat="44.50481627557887" lon="10.214442689280592"><ele>575.6666666666666</ele><time>2026-04-18T07:52:57Z</time></trkpt><trkpt lat="44.50464072031058" lon="10.214605987071929"><ele>576.3333333333334</ele><time>2026-04-18T07:52:58Z</time></trkpt><trkpt lat="44.50444644141674" lon="10.214754798597088"><ele>577.0</ele><time>2026-04-18T07:52:59Z</time></trkpt><trkpt lat="44.504231695958914" lon="10.214863095230715"><ele>580.0</ele><time>2026-04-18T07:53:00Z</time></trkpt><trkpt lat="44.50404076072651" lon="10.214980920481088"><ele>583.0</ele><time>2026-04-18T07:53:01Z</time></trkpt><trkpt lat="44.50389094591905" lon="10.21515208439739"><ele>586.0</ele><time>2026-04-18T07:53:02Z</time></trkpt><trkpt lat="44.50380112658348" lon="10.215402365705748"><ele>592.0</ele><time>2026-04-18T07:53:03Z</time></trkpt><trkpt lat="44.503708211489155" lon="10.215699761500343"><ele>598.0</ele><time>2026-04-18T07:53:04Z</time></trkpt><trkpt lat="44.50356763870834" lon="10.21596489989543"><ele>598.0</ele><time>2026-04-18T07:53:05Z</time></trkpt><trkpt lat="44.50340619852969" lon="10.216151136241983"><ele>598.0</ele><time>2026-04-18T07:53:06Z</time></trkpt><trkpt lat="44.503196838677226" lon="10.216390585655255"><ele>598.6666666666667</ele><time>2026-04-18T07:53:07Z</time></trkpt><trkpt lat="44.50302609376128" lon="10.216602055529872"><ele>599.3333333333334</ele><time>2026-04-18T07:53:08Z</time></trkpt><trkpt lat="44.502978478713516" lon="10.21674353573334"><ele>600.0</ele><time>2026-04-18T07:53:08.999Z</time></trkpt><trkpt lat="44.50296201901566" lon="10.216976594230657"><ele>600.0</ele><time>2026-04-18T07:53:09.999Z</time></trkpt><trkpt lat="44.502986996105726" lon="10.217273922355611"><ele>600.0</ele><time>2026-04-18T07:53:10.999Z</time></trkpt><trkpt lat="44.503023741007006" lon="10.21760051362125"><ele>600.0</ele><time>2026-04-18T07:53:11.999Z</time></trkpt><trkpt lat="44.50305103430472" lon="10.217962503454011"><ele>602.0</ele><time>2026-04-18T07:53:12.999Z</time></trkpt><trkpt lat="44.503077814094254" lon="10.218374407487902"><ele>604.0</ele><time>2026-04-18T07:53:13.999Z</time></trkpt><trkpt lat="44.503070964043594" lon="10.218633892580616"><ele>604.0</ele><time>2026-04-18T07:53:14.999Z</time></trkpt><trkpt lat="44.503081198108866" lon="10.218904565274158"><ele>604.0</ele><time>2026-04-18T07:53:15.999Z</time></trkpt><trkpt lat="44.50304175582568" lon="10.219107876571854"><ele>604.0</ele><time>2026-04-18T07:53:16.999Z</time></trkpt><trkpt lat="44.50295392695274" lon="10.2193220548159"><ele>610.6666666666667</ele><time>2026-04-18T07:53:17.999Z</time></trkpt><trkpt lat="44.50283223545991" lon="10.219572181811863"><ele>617.3333333333334</ele><time>2026-04-18T07:53:18.999Z</time></trkpt><trkpt lat="44.50271931404406" lon="10.21981770974806"><ele>624.0</ele><time>2026-04-18T07:53:19.999Z</time></trkpt><trkpt lat="44.50267581935609" lon="10.220108978211252"><ele>624.0</ele><time>2026-04-18T07:53:20.999Z</time></trkpt><trkpt lat="44.50266200063736" lon="10.220438716100032"><ele>624.0</ele><time>2026-04-18T07:53:21.999Z</time></trkpt><trkpt lat="44.50266230831014" lon="10.220709098696503"><ele>624.0</ele><time>2026-04-18T07:53:22.999Z</time></trkpt><trkpt lat="44.50272048064152" lon="10.220934024797398"><ele>625.6666666666666</ele><time>2026-04-18T07:53:23.999Z</time></trkpt><trkpt lat="44.50284364589581" lon="10.221114626142796"><ele>627.3333333333333</ele><time>2026-04-18T07:53:24.999Z</time></trkpt><trkpt lat="44.502979815887635" lon="10.221288302969144"><ele>629.0</ele><time>2026-04-18T07:53:25.999Z</time></trkpt><trkpt lat="44.50310293120427" lon="10.221477161363769"><ele>629.0</ele><time>2026-04-18T07:53:26.999Z</time></trkpt><trkpt lat="44.503191732010926" lon="10.221706861559252"><ele>629.0</ele><time>2026-04-18T07:53:27.999Z</time></trkpt><trkpt lat="44.50323798113644" lon="10.221953107077955"><ele>629.0</ele><time>2026-04-18T07:53:28.999Z</time></trkpt><trkpt lat="44.50325652076159" lon="10.22213882449479"><ele>629.0</ele><time>2026-04-18T07:53:29.999Z</time></trkpt><trkpt lat="44.503228749185574" lon="10.222266115241371"><ele>629.0</ele><time>2026-04-18T07:53:30.999Z</time></trkpt><trkpt lat="44.50314423187758" lon="10.22237848747565"><ele>629.0</ele><time>2026-04-18T07:53:31.999Z</time></trkpt><trkpt lat="44.503000440245366" lon="10.222437185378498"><ele>629.0</ele><time>2026-04-18T07:53:32.999Z</time></trkpt><trkpt lat="44.502804305088596" lon="10.222428530006143"><ele>632.3333333333333</ele><time>2026-04-18T07:53:33.999Z</time></trkpt><trkpt lat="44.502583960503564" lon="10.222418296239978"><ele>635.6666666666666</ele><time>2026-04-18T07:53:34.999Z</time></trkpt><trkpt lat="44.50237278823422" lon="10.22239823646157"><ele>639.0</ele><time>2026-04-18T07:53:35.999Z</time></trkpt><trkpt lat="44.50216650905694" lon="10.222348461229853"><ele>641.6666666666666</ele><time>2026-04-18T07:53:36.999Z</time></trkpt><trkpt lat="44.50193608992108" lon="10.222312625630767"><ele>644.3333333333333</ele><time>2026-04-18T07:53:37.999Z</time></trkpt><trkpt lat="44.501728380548315" lon="10.222373421758702"><ele>647.0</ele><time>2026-04-18T07:53:38.999Z</time></trkpt><trkpt lat="44.50155231120598" lon="10.222467937526364"><ele>647.0</ele><time>2026-04-18T07:53:39.999Z</time></trkpt><trkpt lat="44.501402821638244" lon="10.222511160482016"><ele>647.0</ele><time>2026-04-18T07:53:40.999Z</time></trkpt><trkpt lat="44.501247871924974" lon="10.222449795359594"><ele>647.0</ele><time>2026-04-18T07:53:41.999Z</time></trkpt><trkpt lat="44.50108623282648" lon="10.222297264653218"><ele>651.3333333333333</ele><time>2026-04-18T07:53:42.999Z</time></trkpt><trkpt lat="44.50093127055335" lon="10.222079467624038"><ele>655.6666666666666</ele><time>2026-04-18T07:53:43.999Z</time></trkpt><trkpt lat="44.500756227702915" lon="10.22190191392968"><ele>660.0</ele><time>2026-04-18T07:53:44.999Z</time></trkpt><trkpt lat="44.50056010704674" lon="10.221809372139868"><ele>660.5</ele><time>2026-04-18T07:53:45.999Z</time></trkpt><trkpt lat="44.50034181396273" lon="10.2217746406774"><ele>661.0</ele><time>2026-04-18T07:53:46.999Z</time></trkpt><trkpt lat="44.50011259454088" lon="10.22174631460104"><ele>661.0</ele><time>2026-04-18T07:53:47.999Z</time></trkpt><trkpt lat="44.49988455345266" lon="10.221708777429788"><ele>661.0</ele><time>2026-04-18T07:53:48.999Z</time></trkpt><trkpt lat="44.49965771700852" lon="10.221660908328891"><ele>662.6666666666667</ele><time>2026-04-18T07:53:49.999Z</time></trkpt><trkpt lat="44.499454418756955" lon="10.221619027459722"><ele>664.3333333333334</ele><time>2026-04-18T07:53:50.999Z</time></trkpt><trkpt lat="44.49926518594611" lon="10.22157794427563"><ele>666.0</ele><time>2026-04-18T07:53:51.999Z</time></trkpt><trkpt lat="44.49910495113768" lon="10.221548796343967"><ele>666.0</ele><time>2026-04-18T07:53:52.999Z</time></trkpt><trkpt lat="44.49899957339873" lon="10.22159033479222"><ele>666.0</ele><time>2026-04-18T07:53:53.999Z</time></trkpt><trkpt lat="44.49891977623296" lon="10.221703982786428"><ele>666.0</ele><time>2026-04-18T07:53:54.999Z</time></trkpt><trkpt lat="44.49884592440735" lon="10.221930253317124"><ele>666.0</ele><time>2026-04-18T07:53:56Z</time></trkpt><trkpt lat="44.49877202353517" lon="10.222203559927333"><ele>668.0</ele><time>2026-04-18T07:53:57Z</time></trkpt><trkpt lat="44.498659671425585" lon="10.222440655496296"><ele>670.0</ele><time>2026-04-18T07:53:58Z</time></trkpt><trkpt lat="44.498499922784674" lon="10.222590799103346"><ele>672.0</ele><time>2026-04-18T07:53:59Z</time></trkpt><trkpt lat="44.49833791430332" lon="10.222762267835067"><ele>672.0</ele><time>2026-04-18T07:54:00Z</time></trkpt><trkpt lat="44.49822595262373" lon="10.222952493556749"><ele>672.0</ele><time>2026-04-18T07:54:01Z</time></trkpt><trkpt lat="44.49816063127896" lon="10.22320019221813"><ele>672.0</ele><time>2026-04-18T07:54:02Z</time></trkpt><trkpt lat="44.49814693479422" lon="10.223523520429438"><ele>671.3333333333334</ele><time>2026-04-18T07:54:03Z</time></trkpt><trkpt lat="44.49811905256381" lon="10.223812893003755"><ele>670.6666666666667</ele><time>2026-04-18T07:54:04Z</time></trkpt><trkpt lat="44.49805460850334" lon="10.224065540746853"><ele>670.0</ele><time>2026-04-18T07:54:05Z</time></trkpt><trkpt lat="44.49792905646762" lon="10.224268951403383"><ele>674.3333333333334</ele><time>2026-04-18T07:54:06Z</time></trkpt><trkpt lat="44.49777322745582" lon="10.224411575858962"><ele>678.6666666666666</ele><time>2026-04-18T07:54:07Z</time></trkpt><trkpt lat="44.49762857281558" lon="10.224499408368438"><ele>683.0</ele><time>2026-04-18T07:54:08Z</time></trkpt><trkpt lat="44.49745376771323" lon="10.224576820264803"><ele>683.0</ele><time>2026-04-18T07:54:09Z</time></trkpt><trkpt lat="44.49725197932005" lon="10.224602932785105"><ele>683.0</ele><time>2026-04-18T07:54:10Z</time></trkpt><trkpt lat="44.497043536347384" lon="10.224627798974835"><ele>683.0</ele><time>2026-04-18T07:54:11Z</time></trkpt><trkpt lat="44.496864714750416" lon="10.224602411837783"><ele>687.0</ele><time>2026-04-18T07:54:12Z</time></trkpt><trkpt lat="44.49669142443221" lon="10.224565852059305"><ele>691.0</ele><time>2026-04-18T07:54:13Z</time></trkpt><trkpt lat="44.49654787708671" lon="10.224541196621361"><ele>695.0</ele><time>2026-04-18T07:54:14Z</time></trkpt><trkpt lat="44.49639955611047" lon="10.224557137342815"><ele>695.0</ele><time>2026-04-18T07:54:15Z</time></trkpt><trkpt lat="44.49623766024563" lon="10.224661800074252"><ele>695.0</ele><time>2026-04-18T07:54:16Z</time></trkpt><trkpt lat="44.496094188122505" lon="10.224855508945582"><ele>695.0</ele><time>2026-04-18T07:54:17Z</time></trkpt><trkpt lat="44.49600992969178" lon="10.225134261076548"><ele>695.0</ele><time>2026-04-18T07:54:18Z</time></trkpt><trkpt lat="44.49592198594606" lon="10.22544981516887"><ele>695.0</ele><time>2026-04-18T07:54:19Z</time></trkpt><trkpt lat="44.49586189325537" lon="10.22574184634848"><ele>693.0</ele><time>2026-04-18T07:54:20Z</time></trkpt><trkpt lat="44.49583547760006" lon="10.226017639562656"><ele>691.0</ele><time>2026-04-18T07:54:21Z</time></trkpt><trkpt lat="44.495824790220624" lon="10.226287160463086"><ele>689.0</ele><time>2026-04-18T07:54:22Z</time></trkpt><trkpt lat="44.49581193207468" lon="10.226516177456594"><ele>689.0</ele><time>2026-04-18T07:54:23Z</time></trkpt><trkpt lat="44.49580523489359" lon="10.226713225752272"><ele>689.0</ele><time>2026-04-18T07:54:24Z</time></trkpt><trkpt lat="44.49583072951686" lon="10.226918012402265"><ele>689.0</ele><time>2026-04-18T07:54:25Z</time></trkpt><trkpt lat="44.49588596918359" lon="10.227129369914227"><ele>690.0</ele><time>2026-04-18T07:54:26Z</time></trkpt><trkpt lat="44.4959515093296" lon="10.22731800880748"><ele>691.0</ele><time>2026-04-18T07:54:27Z</time></trkpt><trkpt lat="44.49599794533656" lon="10.227503006814851"><ele>692.0</ele><time>2026-04-18T07:54:28Z</time></trkpt><trkpt lat="44.49605427384611" lon="10.227670436474604"><ele>693.0</ele><time>2026-04-18T07:54:29Z</time></trkpt><trkpt lat="44.496152258526706" lon="10.227818267590216"><ele>691.75</ele><time>2026-04-18T07:54:30Z</time></trkpt><trkpt lat="44.49627991221587" lon="10.227931723372071"><ele>690.5</ele><time>2026-04-18T07:54:31Z</time></trkpt><trkpt lat="44.49640253894764" lon="10.228035596171715"><ele>689.25</ele><time>2026-04-18T07:54:32Z</time></trkpt><trkpt lat="44.49649942999789" lon="10.228144999194681"><ele>688.0</ele><time>2026-04-18T07:54:33Z</time></trkpt><trkpt lat="44.49655841432388" lon="10.228305697000044"><ele>688.0</ele><time>2026-04-18T07:54:34Z</time></trkpt><trkpt lat="44.496581646780605" lon="10.228486316281987"><ele>688.0</ele><time>2026-04-18T07:54:35Z</time></trkpt><trkpt lat="44.49658418522677" lon="10.228693639348394"><ele>688.0</ele><time>2026-04-18T07:54:36Z</time></trkpt><trkpt lat="44.49654141088591" lon="10.22891468268111"><ele>688.0</ele><time>2026-04-18T07:54:37Z</time></trkpt><trkpt lat="44.49648762323855" lon="10.229171929964892"><ele>687.6666666666667</ele><time>2026-04-18T07:54:38Z</time></trkpt><trkpt lat="44.4964250558356" lon="10.229440425273808"><ele>687.3333333333334</ele><time>2026-04-18T07:54:39Z</time></trkpt><trkpt lat="44.49636495199302" lon="10.229752209348348"><ele>687.0</ele><time>2026-04-18T07:54:40Z</time></trkpt><trkpt lat="44.49631048932915" lon="10.230066445967827"><ele>686.3333333333334</ele><time>2026-04-18T07:54:41Z</time></trkpt><trkpt lat="44.4962622626898" lon="10.230370895269871"><ele>685.6666666666667</ele><time>2026-04-18T07:54:42Z</time></trkpt><trkpt lat="44.49622130734924" lon="10.230667579252414"><ele>685.0</ele><time>2026-04-18T07:54:43Z</time></trkpt><trkpt lat="44.49622277564805" lon="10.230950019092832"><ele>685.5</ele><time>2026-04-18T07:54:44Z</time></trkpt><trkpt lat="44.49626754222629" lon="10.231254093900475"><ele>686.0</ele><time>2026-04-18T07:54:45Z</time></trkpt><trkpt lat="44.49634726553411" lon="10.23155638884625"><ele>688.3333333333333</ele><time>2026-04-18T07:54:46Z</time></trkpt><trkpt lat="44.49640473603007" lon="10.231827293389888"><ele>690.6666666666666</ele><time>2026-04-18T07:54:47Z</time></trkpt><trkpt lat="44.49642294667727" lon="10.232084022998261"><ele>693.0</ele><time>2026-04-18T07:54:48Z</time></trkpt><trkpt lat="44.49639524381101" lon="10.232356041933867"><ele>693.3333333333334</ele><time>2026-04-18T07:54:49Z</time></trkpt><trkpt lat="44.49635072044966" lon="10.232644716854177"><ele>693.6666666666667</ele><time>2026-04-18T07:54:50Z</time></trkpt><trkpt lat="44.4963296145742" lon="10.23289257516065"><ele>694.0</ele><time>2026-04-18T07:54:51Z</time></trkpt><trkpt lat="44.49637183988835" lon="10.233131307656462"><ele>694.6666666666667</ele><time>2026-04-18T07:54:52Z</time></trkpt><trkpt lat="44.49645466176003" lon="10.233331415871849"><ele>695.3333333333334</ele><time>2026-04-18T07:54:53Z</time></trkpt><trkpt lat="44.496554175325485" lon="10.23350967110946"><ele>696.0</ele><time>2026-04-18T07:54:54Z</time></trkpt><trkpt lat="44.49663772634298" lon="10.23368914406837"><ele>696.0</ele><time>2026-04-18T07:54:55Z</time></trkpt><trkpt lat="44.49667377664047" lon="10.233887889478341"><ele>696.0</ele><time>2026-04-18T07:54:56Z</time></trkpt><trkpt lat="44.49671957112373" lon="10.234069619919698"><ele>696.0</ele><time>2026-04-18T07:54:57Z</time></trkpt><trkpt lat="44.49674397532678" lon="10.234237723619716"><ele>696.0</ele><time>2026-04-18T07:54:58Z</time></trkpt><trkpt lat="44.49673915451431" lon="10.234421719382377"><ele>698.3333333333334</ele><time>2026-04-18T07:54:59Z</time></trkpt><trkpt lat="44.496735149336736" lon="10.234625107750139"><ele>700.6666666666667</ele><time>2026-04-18T07:55:00Z</time></trkpt><trkpt lat="44.496685785066" lon="10.234834226789385"><ele>703.0</ele><time>2026-04-18T07:55:01Z</time></trkpt><trkpt lat="44.496635587539295" lon="10.235029772859125"><ele>703.25</ele><time>2026-04-18T07:55:02Z</time></trkpt><trkpt lat="44.49659220237331" lon="10.235201100971814"><ele>703.5</ele><time>2026-04-18T07:55:03Z</time></trkpt><trkpt lat="44.49655281094895" lon="10.235369610174033"><ele>703.75</ele><time>2026-04-18T07:55:04Z</time></trkpt><trkpt lat="44.49651585556707" lon="10.235545681385327"><ele>704.0</ele><time>2026-04-18T07:55:05Z</time></trkpt><trkpt lat="44.49646571582725" lon="10.235716807393903"><ele>705.5</ele><time>2026-04-18T07:55:06Z</time></trkpt><trkpt lat="44.49635507320131" lon="10.235838171645913"><ele>707.0</ele><time>2026-04-18T07:55:07Z</time></trkpt><trkpt lat="44.49622366913381" lon="10.23590445411017"><ele>708.5</ele><time>2026-04-18T07:55:08Z</time></trkpt><trkpt lat="44.49609045835776" lon="10.23596776918676"><ele>710.0</ele><time>2026-04-18T07:55:09Z</time></trkpt><trkpt lat="44.495966521518376" lon="10.236013814489231"><ele>710.0</ele><time>2026-04-18T07:55:10Z</time></trkpt><trkpt lat="44.49585346322792" lon="10.23606100610419"><ele>710.0</ele><time>2026-04-18T07:55:10.999Z</time></trkpt><trkpt lat="44.49573986971082" lon="10.236118093562379"><ele>710.0</ele><time>2026-04-18T07:55:11.999Z</time></trkpt><trkpt lat="44.49563030344617" lon="10.236181657071535"><ele>710.0</ele><time>2026-04-18T07:55:12.999Z</time></trkpt><trkpt lat="44.49551776004619" lon="10.236276299538108"><ele>710.0</ele><time>2026-04-18T07:55:13.999Z</time></trkpt><trkpt lat="44.49542936673392" lon="10.236429624363216"><ele>710.0</ele><time>2026-04-18T07:55:14.999Z</time></trkpt><trkpt lat="44.4953587826588" lon="10.236613727014666"><ele>710.0</ele><time>2026-04-18T07:55:15.999Z</time></trkpt><trkpt lat="44.495301349982455" lon="10.236797098436975"><ele>710.0</ele><time>2026-04-18T07:55:16.999Z</time></trkpt><trkpt lat="44.495244799482194" lon="10.236970303779492"><ele>711.0</ele><time>2026-04-18T07:55:17.999Z</time></trkpt><trkpt lat="44.495188426648056" lon="10.237143438868378"><ele>712.0</ele><time>2026-04-18T07:55:18.999Z</time></trkpt><trkpt lat="44.49513572193669" lon="10.237314335286106"><ele>713.0</ele><time>2026-04-18T07:55:19.999Z</time></trkpt><trkpt lat="44.49509036547324" lon="10.237466291662301"><ele>714.0</ele><time>2026-04-18T07:55:20.999Z</time></trkpt><trkpt lat="44.49505691857072" lon="10.237594276165801"><ele>714.0</ele><time>2026-04-18T07:55:21.999Z</time></trkpt><trkpt lat="44.49503268566737" lon="10.237688030018287"><ele>714.0</ele><time>2026-04-18T07:55:22.999Z</time></trkpt><trkpt lat="44.49499986522201" lon="10.237799005301865"><ele>714.0</ele><time>2026-04-18T07:55:23.999Z</time></trkpt><trkpt lat="44.4949445044855" lon="10.237922039812002"><ele>714.0</ele><time>2026-04-18T07:55:24.999Z</time></trkpt><trkpt lat="44.49490827390834" lon="10.238037080169528"><ele>714.0</ele><time>2026-04-18T07:55:25.999Z</time></trkpt><trkpt lat="44.49487009081872" lon="10.238180631025356"><ele>713.0</ele><time>2026-04-18T07:55:27.999Z</time></trkpt><trkpt lat="44.494831230730384" lon="10.238336121478172"><ele>712.0</ele><time>2026-04-18T07:55:29.999Z</time></trkpt><trkpt lat="44.49479641451876" lon="10.238447565809011"><ele>711.0</ele><time>2026-04-18T07:55:30.999Z</time></trkpt><trkpt lat="44.49475618843544" lon="10.238568401852024"><ele>710.0</ele><time>2026-04-18T07:55:31.999Z</time></trkpt><trkpt lat="44.49471440726871" lon="10.238693785335027"><ele>709.0</ele><time>2026-04-18T07:55:32.999Z</time></trkpt><trkpt lat="44.494675953676506" lon="10.238820619982073"><ele>709.0</ele><time>2026-04-18T07:55:33.999Z</time></trkpt><trkpt lat="44.49463487294744" lon="10.23895438997339"><ele>709.0</ele><time>2026-04-18T07:55:34.999Z</time></trkpt><trkpt lat="44.49459674052718" lon="10.239083393044282"><ele>709.0</ele><time>2026-04-18T07:55:35.999Z</time></trkpt><trkpt lat="44.494557089723365" lon="10.23920154982709"><ele>709.0</ele><time>2026-04-18T07:55:36.999Z</time></trkpt><trkpt lat="44.49451374927649" lon="10.2393190718547"><ele>709.0</ele><time>2026-04-18T07:55:37.999Z</time></trkpt><trkpt lat="44.49446393547864" lon="10.239411393274914"><ele>710.0</ele><time>2026-04-18T07:55:38.999Z</time></trkpt><trkpt lat="44.49439804877318" lon="10.239505037847927"><ele>711.0</ele><time>2026-04-18T07:55:39.999Z</time></trkpt><trkpt lat="44.49432230233305" lon="10.239592145562044"><ele>712.0</ele><time>2026-04-18T07:55:40.999Z</time></trkpt><trkpt lat="44.49422711151176" lon="10.239652619461795"><ele>713.0</ele><time>2026-04-18T07:55:41.999Z</time></trkpt><trkpt lat="44.49413038126914" lon="10.239666969440721"><ele>714.0</ele><time>2026-04-18T07:55:42.999Z</time></trkpt><trkpt lat="44.49402335867859" lon="10.239648826057909"><ele>714.0</ele><time>2026-04-18T07:55:43.999Z</time></trkpt><trkpt lat="44.49390563421313" lon="10.23959791812993"><ele>714.0</ele><time>2026-04-18T07:55:44.999Z</time></trkpt><trkpt lat="44.49378990890671" lon="10.239529605397689"><ele>714.0</ele><time>2026-04-18T07:55:45.999Z</time></trkpt><trkpt lat="44.4936555213435" lon="10.239469886487147"><ele>714.0</ele><time>2026-04-18T07:55:46.999Z</time></trkpt><trkpt lat="44.49352757859413" lon="10.239408443293762"><ele>713.0</ele><time>2026-04-18T07:55:47.999Z</time></trkpt><trkpt lat="44.49339074503223" lon="10.239359242032055"><ele>712.0</ele><time>2026-04-18T07:55:48.999Z</time></trkpt><trkpt lat="44.49323987509463" lon="10.23934799117825"><ele>711.0</ele><time>2026-04-18T07:55:49.999Z</time></trkpt><trkpt lat="44.49308001096145" lon="10.239385750620851"><ele>709.6666666666666</ele><time>2026-04-18T07:55:50.999Z</time></trkpt><trkpt lat="44.49291905591881" lon="10.239444187836307"><ele>708.3333333333333</ele><time>2026-04-18T07:55:51.999Z</time></trkpt><trkpt lat="44.49275709066604" lon="10.239482315178567"><ele>707.0</ele><time>2026-04-18T07:55:52.999Z</time></trkpt><trkpt lat="44.49257530905225" lon="10.239527596135233"><ele>707.0</ele><time>2026-04-18T07:55:53.999Z</time></trkpt><trkpt lat="44.49234042429362" lon="10.239543864425503"><ele>707.0</ele><time>2026-04-18T07:55:54.999Z</time></trkpt><trkpt lat="44.492155825819395" lon="10.239561485247975"><ele>707.0</ele><time>2026-04-18T07:55:55.999Z</time></trkpt><trkpt lat="44.491996836646884" lon="10.239564292215778"><ele>707.25</ele><time>2026-04-18T07:55:56.999Z</time></trkpt><trkpt lat="44.491850898736224" lon="10.239587452766932"><ele>707.5</ele><time>2026-04-18T07:55:57.999Z</time></trkpt><trkpt lat="44.49170779650486" lon="10.239603449785847"><ele>707.75</ele><time>2026-04-18T07:55:58.999Z</time></trkpt><trkpt lat="44.49158163170121" lon="10.239664603013646"><ele>708.0</ele><time>2026-04-18T07:55:59.999Z</time></trkpt><trkpt lat="44.491468499015035" lon="10.239758523956878"><ele>704.5</ele><time>2026-04-18T07:56:00.999Z</time></trkpt><trkpt lat="44.49134874928875" lon="10.23984558870514"><ele>701.0</ele><time>2026-04-18T07:56:02Z</time></trkpt><trkpt lat="44.4912381484466" lon="10.23996023509316"><ele>697.5</ele><time>2026-04-18T07:56:03Z</time></trkpt><trkpt lat="44.49113861525632" lon="10.240103243115403"><ele>694.0</ele><time>2026-04-18T07:56:04Z</time></trkpt><trkpt lat="44.491025767154945" lon="10.240206951532318"><ele>694.0</ele><time>2026-04-18T07:56:05Z</time></trkpt><trkpt lat="44.49089940850362" lon="10.240262305103661"><ele>694.0</ele><time>2026-04-18T07:56:06Z</time></trkpt><trkpt lat="44.490754990072396" lon="10.240280692303278"><ele>694.0</ele><time>2026-04-18T07:56:07Z</time></trkpt><trkpt lat="44.49060705667476" lon="10.240283729544034"><ele>694.0</ele><time>2026-04-18T07:56:08Z</time></trkpt><trkpt lat="44.4904619005135" lon="10.240305780273573"><ele>691.75</ele><time>2026-04-18T07:56:09Z</time></trkpt><trkpt lat="44.490315753570876" lon="10.240276720921262"><ele>689.5</ele><time>2026-04-18T07:56:10Z</time></trkpt><trkpt lat="44.490174463409176" lon="10.240225302071206"><ele>687.25</ele><time>2026-04-18T07:56:11Z</time></trkpt><trkpt lat="44.490037514541946" lon="10.24015130305493"><ele>685.0</ele><time>2026-04-18T07:56:12Z</time></trkpt><trkpt lat="44.48990247834547" lon="10.240091933695458"><ele>685.0</ele><time>2026-04-18T07:56:13Z</time></trkpt><trkpt lat="44.48974779531547" lon="10.240090746541956"><ele>685.0</ele><time>2026-04-18T07:56:14Z</time></trkpt><trkpt lat="44.48959653969513" lon="10.240124326055081"><ele>685.0</ele><time>2026-04-18T07:56:15Z</time></trkpt><trkpt lat="44.489447319575156" lon="10.240187126214714"><ele>684.3333333333334</ele><time>2026-04-18T07:56:16Z</time></trkpt><trkpt lat="44.48930115515909" lon="10.24025257838668"><ele>683.6666666666666</ele><time>2026-04-18T07:56:17Z</time></trkpt><trkpt lat="44.48915864761824" lon="10.240311816159753"><ele>683.0</ele><time>2026-04-18T07:56:18Z</time></trkpt><trkpt lat="44.48900461892197" lon="10.240374557189295"><ele>683.0</ele><time>2026-04-18T07:56:19Z</time></trkpt><trkpt lat="44.488824437550086" lon="10.240450382851275"><ele>683.0</ele><time>2026-04-18T07:56:20Z</time></trkpt><trkpt lat="44.48859661402119" lon="10.240479741547356"><ele>683.0</ele><time>2026-04-18T07:56:21Z</time></trkpt><trkpt lat="44.48836114585858" lon="10.240546786779543"><ele>683.0</ele><time>2026-04-18T07:56:22Z</time></trkpt><trkpt lat="44.488137660997324" lon="10.240604684277972"><ele>683.0</ele><time>2026-04-18T07:56:23Z</time></trkpt><trkpt lat="44.48794698452708" lon="10.240617865411556"><ele>683.0</ele><time>2026-04-18T07:56:24Z</time></trkpt><trkpt lat="44.48779832176746" lon="10.240615990580357"><ele>680.4</ele><time>2026-04-18T07:56:25Z</time></trkpt><trkpt lat="44.48768670886098" lon="10.240616028436797"><ele>677.8</ele><time>2026-04-18T07:56:26Z</time></trkpt><trkpt lat="44.48761438455672" lon="10.240635310918142"><ele>675.2</ele><time>2026-04-18T07:56:27Z</time></trkpt><trkpt lat="44.487556089380035" lon="10.240799660028193"><ele>672.6</ele><time>2026-04-18T07:56:29Z</time></trkpt><trkpt lat="44.48758831341376" lon="10.240907307214531"><ele>670.0</ele><time>2026-04-18T07:56:30Z</time></trkpt><trkpt lat="44.48774435609026" lon="10.240918227231164"><ele>668.6666666666667</ele><time>2026-04-18T07:56:31Z</time></trkpt><trkpt lat="44.48789134390318" lon="10.240884104808366"><ele>667.3333333333334</ele><time>2026-04-18T07:56:32Z</time></trkpt><trkpt lat="44.4880653640034" lon="10.240896593636352"><ele>666.0</ele><time>2026-04-18T07:56:33Z</time></trkpt><trkpt lat="44.48824054007574" lon="10.240941599259273"><ele>666.0</ele><time>2026-04-18T07:56:34Z</time></trkpt><trkpt lat="44.48838989750298" lon="10.240990261812112"><ele>666.0</ele><time>2026-04-18T07:56:35Z</time></trkpt><trkpt lat="44.48850031434604" lon="10.241027484754355"><ele>666.0</ele><time>2026-04-18T07:56:36Z</time></trkpt><trkpt lat="44.48858294133009" lon="10.241114322675308"><ele>666.0</ele><time>2026-04-18T07:56:38Z</time></trkpt><trkpt lat="44.48853951772866" lon="10.241222924437801"><ele>666.0</ele><time>2026-04-18T07:56:39Z</time></trkpt><trkpt lat="44.48841727048106" lon="10.241268568612831"><ele>666.0</ele><time>2026-04-18T07:56:40Z</time></trkpt><trkpt lat="44.48825834257641" lon="10.241274197424879"><ele>666.0</ele><time>2026-04-18T07:56:41Z</time></trkpt><trkpt lat="44.4880652061671" lon="10.241293129436945"><ele>664.3333333333334</ele><time>2026-04-18T07:56:42Z</time></trkpt><trkpt lat="44.48786508326483" lon="10.241311926562952"><ele>662.6666666666667</ele><time>2026-04-18T07:56:43Z</time></trkpt><trkpt lat="44.48767595556809" lon="10.24136148461957"><ele>661.0</ele><time>2026-04-18T07:56:44Z</time></trkpt><trkpt lat="44.48751594663045" lon="10.241431617577087"><ele>661.0</ele><time>2026-04-18T07:56:45Z</time></trkpt><trkpt lat="44.48736051682648" lon="10.241410960323261"><ele>661.0</ele><time>2026-04-18T07:56:46Z</time></trkpt><trkpt lat="44.48719727671999" lon="10.241364911637637"><ele>661.0</ele><time>2026-04-18T07:56:47Z</time></trkpt><trkpt lat="44.48702574369433" lon="10.24125831490663"><ele>656.25</ele><time>2026-04-18T07:56:48Z</time></trkpt><trkpt lat="44.48691469193007" lon="10.241116936671775"><ele>651.5</ele><time>2026-04-18T07:56:49Z</time></trkpt><trkpt lat="44.486826992759276" lon="10.241026657004586"><ele>646.75</ele><time>2026-04-18T07:56:50Z</time></trkpt><trkpt lat="44.486726995549326" lon="10.241038280309011"><ele>642.0</ele><time>2026-04-18T07:56:51Z</time></trkpt><trkpt lat="44.48662430179157" lon="10.241144213447033"><ele>642.0</ele><time>2026-04-18T07:56:52Z</time></trkpt><trkpt lat="44.486559015890954" lon="10.241297761018856"><ele>642.0</ele><time>2026-04-18T07:56:53Z</time></trkpt><trkpt lat="44.48653645657772" lon="10.241475818475863"><ele>642.0</ele><time>2026-04-18T07:56:54Z</time></trkpt><trkpt lat="44.4865722911172" lon="10.241653389564272"><ele>642.0</ele><time>2026-04-18T07:56:55Z</time></trkpt><trkpt lat="44.486660118767745" lon="10.241797190188967"><ele>640.25</ele><time>2026-04-18T07:56:56Z</time></trkpt><trkpt lat="44.48675053398929" lon="10.241958234362379"><ele>638.5</ele><time>2026-04-18T07:56:57Z</time></trkpt><trkpt lat="44.486790932268136" lon="10.24210390048042"><ele>636.75</ele><time>2026-04-18T07:56:58Z</time></trkpt><trkpt lat="44.48677539024156" lon="10.242227289445607"><ele>635.0</ele><time>2026-04-18T07:56:59Z</time></trkpt><trkpt lat="44.48669971773518" lon="10.242361706705072"><ele>633.6</ele><time>2026-04-18T07:57:00Z</time></trkpt><trkpt lat="44.486601566192135" lon="10.242523163174244"><ele>632.2</ele><time>2026-04-18T07:57:01Z</time></trkpt><trkpt lat="44.48653574818135" lon="10.242628305146768"><ele>630.8</ele><time>2026-04-18T07:57:02Z</time></trkpt><trkpt lat="44.48653141832787" lon="10.242719824020437"><ele>629.4</ele><time>2026-04-18T07:57:03Z</time></trkpt><trkpt lat="44.4866078589158" lon="10.242821289950799"><ele>628.0</ele><time>2026-04-18T07:57:04Z</time></trkpt><trkpt lat="44.486742311628504" lon="10.242812271586258"><ele>628.0</ele><time>2026-04-18T07:57:05Z</time></trkpt><trkpt lat="44.486859559069906" lon="10.242733908022352"><ele>628.0</ele><time>2026-04-18T07:57:06Z</time></trkpt><trkpt lat="44.487016641041734" lon="10.242610815000207"><ele>628.0</ele><time>2026-04-18T07:57:07Z</time></trkpt><trkpt lat="44.48715828087807" lon="10.242566315979396"><ele>628.5</ele><time>2026-04-18T07:57:08Z</time></trkpt><trkpt lat="44.487244148994904" lon="10.242555079241363"><ele>629.0</ele><time>2026-04-18T07:57:09Z</time></trkpt><trkpt lat="44.48732274784445" lon="10.242735552059834"><ele>629.5</ele><time>2026-04-18T07:57:11Z</time></trkpt><trkpt lat="44.487248709646494" lon="10.242874549146187"><ele>630.0</ele><time>2026-04-18T07:57:12Z</time></trkpt><trkpt lat="44.48713660474527" lon="10.243029072337706"><ele>627.3333333333334</ele><time>2026-04-18T07:57:12.999Z</time></trkpt><trkpt lat="44.48700169740862" lon="10.24326288947455"><ele>624.6666666666667</ele><time>2026-04-18T07:57:13.999Z</time></trkpt><trkpt lat="44.48687081983444" lon="10.24349807057064"><ele>622.0</ele><time>2026-04-18T07:57:14.999Z</time></trkpt><trkpt lat="44.486722937123915" lon="10.243765741122303"><ele>620.6666666666667</ele><time>2026-04-18T07:57:15.999Z</time></trkpt><trkpt lat="44.48657769257816" lon="10.244007318494102"><ele>619.3333333333334</ele><time>2026-04-18T07:57:16.999Z</time></trkpt><trkpt lat="44.48645027204174" lon="10.24422033739929"><ele>618.0</ele><time>2026-04-18T07:57:17.999Z</time></trkpt><trkpt lat="44.48633631289969" lon="10.244435740315808"><ele>616.0</ele><time>2026-04-18T07:57:18.999Z</time></trkpt><trkpt lat="44.48624416142836" lon="10.244642217385007"><ele>614.0</ele><time>2026-04-18T07:57:19.999Z</time></trkpt><trkpt lat="44.48613621488353" lon="10.24481464874307"><ele>612.0</ele><time>2026-04-18T07:57:20.999Z</time></trkpt><trkpt lat="44.48604324710586" lon="10.244961466560339"><ele>611.3333333333334</ele><time>2026-04-18T07:57:21.999Z</time></trkpt><trkpt lat="44.485862435905965" lon="10.244991546871859"><ele>610.6666666666667</ele><time>2026-04-18T07:57:22.999Z</time></trkpt><trkpt lat="44.48565983949834" lon="10.245071819067206"><ele>610.0</ele><time>2026-04-18T07:57:23.999Z</time></trkpt><trkpt lat="44.48547210102547" lon="10.245118425582447"><ele>606.6666666666667</ele><time>2026-04-18T07:57:24.999Z</time></trkpt><trkpt lat="44.48531373260449" lon="10.245109995866434"><ele>603.3333333333334</ele><time>2026-04-18T07:57:25.999Z</time></trkpt><trkpt lat="44.485152539665435" lon="10.245039466539755"><ele>600.0</ele><time>2026-04-18T07:57:26.999Z</time></trkpt><trkpt lat="44.48499159486167" lon="10.244882319031557"><ele>598.3333333333334</ele><time>2026-04-18T07:57:27.999Z</time></trkpt><trkpt lat="44.48481644823356" lon="10.244710537315587"><ele>596.6666666666667</ele><time>2026-04-18T07:57:28.999Z</time></trkpt><trkpt lat="44.484652316978426" lon="10.244523219566885"><ele>595.0</ele><time>2026-04-18T07:57:29.999Z</time></trkpt><trkpt lat="44.484494123859704" lon="10.244356002766562"><ele>594.6666666666667</ele><time>2026-04-18T07:57:30.999Z</time></trkpt><trkpt lat="44.48433653691044" lon="10.244219504605352"><ele>594.3333333333334</ele><time>2026-04-18T07:57:31.999Z</time></trkpt><trkpt lat="44.484145943046386" lon="10.244125591607556"><ele>594.0</ele><time>2026-04-18T07:57:32.999Z</time></trkpt><trkpt lat="44.48393339630172" lon="10.244064687705233"><ele>599.3333333333334</ele><time>2026-04-18T07:57:33.999Z</time></trkpt><trkpt lat="44.48374147090218" lon="10.244015397534982"><ele>604.6666666666667</ele><time>2026-04-18T07:57:34.999Z</time></trkpt><trkpt lat="44.4835908228754" lon="10.243976114291039"><ele>610.0</ele><time>2026-04-18T07:57:35.999Z</time></trkpt><trkpt lat="44.48347145481358" lon="10.243970910079673"><ele>610.0</ele><time>2026-04-18T07:57:36.999Z</time></trkpt><trkpt lat="44.483366417995846" lon="10.24404225232225"><ele>610.0</ele><time>2026-04-18T07:57:37.999Z</time></trkpt><trkpt lat="44.4832856743046" lon="10.244220450480658"><ele>610.0</ele><time>2026-04-18T07:57:38.999Z</time></trkpt><trkpt lat="44.48326586503313" lon="10.24447112231346"><ele>610.0</ele><time>2026-04-18T07:57:39.999Z</time></trkpt><trkpt lat="44.48329459196121" lon="10.244767922651643"><ele>608.0</ele><time>2026-04-18T07:57:40.999Z</time></trkpt><trkpt lat="44.483296394580336" lon="10.245092439013424"><ele>606.0</ele><time>2026-04-18T07:57:41.999Z</time></trkpt><trkpt lat="44.48331040663564" lon="10.245418705386136"><ele>606.3333333333334</ele><time>2026-04-18T07:57:42.999Z</time></trkpt><trkpt lat="44.48331225317316" lon="10.245734567748316"><ele>606.6666666666667</ele><time>2026-04-18T07:57:43.999Z</time></trkpt><trkpt lat="44.483294384613394" lon="10.246011756159655"><ele>607.0</ele><time>2026-04-18T07:57:44.999Z</time></trkpt><trkpt lat="44.483235133437326" lon="10.246248525363008"><ele>604.6666666666667</ele><time>2026-04-18T07:57:45.999Z</time></trkpt><trkpt lat="44.48313927878039" lon="10.246480141578242"><ele>602.3333333333334</ele><time>2026-04-18T07:57:46.999Z</time></trkpt><trkpt lat="44.482995866746705" lon="10.246706432476993"><ele>600.0</ele><time>2026-04-18T07:57:47.999Z</time></trkpt><trkpt lat="44.48284870742672" lon="10.24697012692062"><ele>609.5</ele><time>2026-04-18T07:57:48.999Z</time></trkpt><trkpt lat="44.482687547679745" lon="10.247245783175776"><ele>619.0</ele><time>2026-04-18T07:57:49.999Z</time></trkpt><trkpt lat="44.482546644009304" lon="10.247564332596925"><ele>619.0</ele><time>2026-04-18T07:57:50.999Z</time></trkpt><trkpt lat="44.48240263901143" lon="10.247834871965425"><ele>619.0</ele><time>2026-04-18T07:57:51.999Z</time></trkpt><trkpt lat="44.48228638773192" lon="10.248139739472064"><ele>624.0</ele><time>2026-04-18T07:57:52.999Z</time></trkpt><trkpt lat="44.48214139017857" lon="10.248412675296676"><ele>629.0</ele><time>2026-04-18T07:57:53.999Z</time></trkpt><trkpt lat="44.482011073253915" lon="10.248657436154756"><ele>629.0</ele><time>2026-04-18T07:57:54.999Z</time></trkpt><trkpt lat="44.48187818373768" lon="10.248843552310088"><ele>629.0</ele><time>2026-04-18T07:57:55.999Z</time></trkpt><trkpt lat="44.4817219014396" lon="10.248966195575905"><ele>629.0</ele><time>2026-04-18T07:57:56.999Z</time></trkpt><trkpt lat="44.481527548433796" lon="10.249074703008228"><ele>628.6666666666666</ele><time>2026-04-18T07:57:57.999Z</time></trkpt><trkpt lat="44.481340476050384" lon="10.249197151348028"><ele>628.3333333333334</ele><time>2026-04-18T07:57:58.999Z</time></trkpt><trkpt lat="44.48118233408873" lon="10.249296054952099"><ele>628.0</ele><time>2026-04-18T07:57:59.999Z</time></trkpt><trkpt lat="44.481071225464035" lon="10.24944241730757"><ele>628.0</ele><time>2026-04-18T07:58:00.999Z</time></trkpt><trkpt lat="44.48099177302727" lon="10.249673700369225"><ele>628.0</ele><time>2026-04-18T07:58:01.999Z</time></trkpt><trkpt lat="44.48088979363224" lon="10.249946396480013"><ele>628.0</ele><time>2026-04-18T07:58:02.999Z</time></trkpt><trkpt lat="44.480767481524" lon="10.25018549830119"><ele>628.3333333333334</ele><time>2026-04-18T07:58:03.999Z</time></trkpt><trkpt lat="44.48064341770454" lon="10.250362586446693"><ele>628.6666666666666</ele><time>2026-04-18T07:58:04.999Z</time></trkpt><trkpt lat="44.48051586918537" lon="10.250468658965493"><ele>629.0</ele><time>2026-04-18T07:58:05.999Z</time></trkpt><trkpt lat="44.480376936422445" lon="10.250481759469816"><ele>629.0</ele><time>2026-04-18T07:58:06.999Z</time></trkpt><trkpt lat="44.48017837532048" lon="10.250471227926443"><ele>629.0</ele><time>2026-04-18T07:58:08Z</time></trkpt><trkpt lat="44.47996301948628" lon="10.250500640021054"><ele>629.0</ele><time>2026-04-18T07:58:09Z</time></trkpt><trkpt lat="44.479741491750616" lon="10.250597364431897"><ele>623.5</ele><time>2026-04-18T07:58:10Z</time></trkpt><trkpt lat="44.47949888671701" lon="10.250739379166736"><ele>618.0</ele><time>2026-04-18T07:58:11Z</time></trkpt><trkpt lat="44.47927748294292" lon="10.25089029080591"><ele>618.0</ele><time>2026-04-18T07:58:12Z</time></trkpt><trkpt lat="44.4790893282215" lon="10.250995030579727"><ele>618.0</ele><time>2026-04-18T07:58:13Z</time></trkpt><trkpt lat="44.478906560926156" lon="10.251157450233721"><ele>618.0</ele><time>2026-04-18T07:58:14Z</time></trkpt><trkpt lat="44.47863969309442" lon="10.25142829731596"><ele>617.5</ele><time>2026-04-18T07:58:15Z</time></trkpt><trkpt lat="44.478424152436965" lon="10.251664841677425"><ele>617.0</ele><time>2026-04-18T07:58:16Z</time></trkpt><trkpt lat="44.47823644240967" lon="10.251892631135027"><ele>617.0</ele><time>2026-04-18T07:58:17Z</time></trkpt><trkpt lat="44.478052088383656" lon="10.25209763358566"><ele>617.0</ele><time>2026-04-18T07:58:18Z</time></trkpt><trkpt lat="44.4778789119464" lon="10.252308855340477"><ele>618.5</ele><time>2026-04-18T07:58:19Z</time></trkpt><trkpt lat="44.477722071943035" lon="10.25254877297407"><ele>620.0</ele><time>2026-04-18T07:58:20Z</time></trkpt><trkpt lat="44.477613461921315" lon="10.252840337726779"><ele>618.0</ele><time>2026-04-18T07:58:21Z</time></trkpt><trkpt lat="44.47753702074548" lon="10.25316073850078"><ele>616.0</ele><time>2026-04-18T07:58:22Z</time></trkpt><trkpt lat="44.47742751094428" lon="10.253440680670254"><ele>616.0</ele><time>2026-04-18T07:58:23Z</time></trkpt><trkpt lat="44.47728636005547" lon="10.253668180410733"><ele>616.0</ele><time>2026-04-18T07:58:24Z</time></trkpt><trkpt lat="44.47717592876876" lon="10.253904877083068"><ele>616.0</ele><time>2026-04-18T07:58:25Z</time></trkpt><trkpt lat="44.4770854531202" lon="10.254151305920683"><ele>618.5</ele><time>2026-04-18T07:58:26Z</time></trkpt><trkpt lat="44.47702224967633" lon="10.254475014928067"><ele>621.0</ele><time>2026-04-18T07:58:27Z</time></trkpt><trkpt lat="44.47696136031345" lon="10.254809858743219"><ele>621.0</ele><time>2026-04-18T07:58:28Z</time></trkpt><trkpt lat="44.476880484705376" lon="10.25509077395019"><ele>621.0</ele><time>2026-04-18T07:58:29Z</time></trkpt><trkpt lat="44.47676510320647" lon="10.255340030654601"><ele>621.0</ele><time>2026-04-18T07:58:30Z</time></trkpt><trkpt lat="44.47663391931222" lon="10.255556065866374"><ele>622.3333333333334</ele><time>2026-04-18T07:58:31Z</time></trkpt><trkpt lat="44.47649630493448" lon="10.25571227119814"><ele>623.6666666666667</ele><time>2026-04-18T07:58:32Z</time></trkpt><trkpt lat="44.47633125799815" lon="10.255777296279499"><ele>625.0</ele><time>2026-04-18T07:58:33Z</time></trkpt><trkpt lat="44.47614513589926" lon="10.255862305956521"><ele>625.0</ele><time>2026-04-18T07:58:34Z</time></trkpt><trkpt lat="44.475960554560416" lon="10.255965753219431"><ele>625.0</ele><time>2026-04-18T07:58:35Z</time></trkpt><trkpt lat="44.4757632039543" lon="10.256043236588473"><ele>625.0</ele><time>2026-04-18T07:58:36Z</time></trkpt><trkpt lat="44.475605366780634" lon="10.256113689298735"><ele>625.0</ele><time>2026-04-18T07:58:37Z</time></trkpt><trkpt lat="44.475462081045194" lon="10.25611720569002"><ele>625.0</ele><time>2026-04-18T07:58:38Z</time></trkpt><trkpt lat="44.47533751955608" lon="10.256130158006387"><ele>625.0</ele><time>2026-04-18T07:58:39Z</time></trkpt><trkpt lat="44.4752190697218" lon="10.25611291024918"><ele>625.0</ele><time>2026-04-18T07:58:40Z</time></trkpt><trkpt lat="44.475106712315686" lon="10.256123577544502"><ele>625.5</ele><time>2026-04-18T07:58:41Z</time></trkpt><trkpt lat="44.474992260921866" lon="10.25617457769243"><ele>626.0</ele><time>2026-04-18T07:58:42Z</time></trkpt><trkpt lat="44.47488800529782" lon="10.256296010274598"><ele>626.5</ele><time>2026-04-18T07:58:43Z</time></trkpt><trkpt lat="44.474835672120214" lon="10.256483191040628"><ele>627.0</ele><time>2026-04-18T07:58:44Z</time></trkpt><trkpt lat="44.47484309019332" lon="10.256705020180318"><ele>627.0</ele><time>2026-04-18T07:58:45Z</time></trkpt><trkpt lat="44.47487135313878" lon="10.257000112957712"><ele>627.0</ele><time>2026-04-18T07:58:46Z</time></trkpt><trkpt lat="44.47491595096946" lon="10.257315136052204"><ele>627.0</ele><time>2026-04-18T07:58:47Z</time></trkpt><trkpt lat="44.47494989536555" lon="10.257554898826326"><ele>626.0</ele><time>2026-04-18T07:58:48Z</time></trkpt><trkpt lat="44.474977531312" lon="10.257730815053625"><ele>625.0</ele><time>2026-04-18T07:58:49Z</time></trkpt><trkpt lat="44.474896188709764" lon="10.257942109680373"><ele>624.0</ele><time>2026-04-18T07:58:50Z</time></trkpt><trkpt lat="44.47477654454851" lon="10.258199366507087"><ele>626.6666666666666</ele><time>2026-04-18T07:58:51Z</time></trkpt><trkpt lat="44.47459408331098" lon="10.258422194578703"><ele>629.3333333333333</ele><time>2026-04-18T07:58:52Z</time></trkpt><trkpt lat="44.47441376428299" lon="10.258557066687102"><ele>632.0</ele><time>2026-04-18T07:58:53Z</time></trkpt><trkpt lat="44.47425726442809" lon="10.258795092308844"><ele>626.0</ele><time>2026-04-18T07:58:54Z</time></trkpt><trkpt lat="44.47412047787967" lon="10.259096873134407"><ele>620.0</ele><time>2026-04-18T07:58:55Z</time></trkpt><trkpt lat="44.47398919407071" lon="10.259359028552984"><ele>620.0</ele><time>2026-04-18T07:58:56Z</time></trkpt><trkpt lat="44.47385620840661" lon="10.259552861139923"><ele>620.0</ele><time>2026-04-18T07:58:57Z</time></trkpt><trkpt lat="44.47369066665018" lon="10.25972056600417"><ele>620.0</ele><time>2026-04-18T07:58:58Z</time></trkpt><trkpt lat="44.47347845317715" lon="10.259859663514275"><ele>619.5</ele><time>2026-04-18T07:58:59Z</time></trkpt><trkpt lat="44.47325216062611" lon="10.260003608213289"><ele>619.0</ele><time>2026-04-18T07:59:00Z</time></trkpt><trkpt lat="44.4730472882807" lon="10.260160329772818"><ele>625.5</ele><time>2026-04-18T07:59:01Z</time></trkpt><trkpt lat="44.47288296642541" lon="10.260321050122641"><ele>632.0</ele><time>2026-04-18T07:59:02Z</time></trkpt><trkpt lat="44.472670979137774" lon="10.26054940383678"><ele>625.5</ele><time>2026-04-18T07:59:03Z</time></trkpt><trkpt lat="44.4725146501503" lon="10.26081436293629"><ele>619.0</ele><time>2026-04-18T07:59:04Z</time></trkpt><trkpt lat="44.472340609476646" lon="10.261064896457757"><ele>619.0</ele><time>2026-04-18T07:59:05Z</time></trkpt><trkpt lat="44.4722152856023" lon="10.261256142909028"><ele>619.0</ele><time>2026-04-18T07:59:06Z</time></trkpt><trkpt lat="44.472114180363114" lon="10.261368094232699"><ele>619.0</ele><time>2026-04-18T07:59:07Z</time></trkpt><trkpt lat="44.471984011765194" lon="10.261416839595878"><ele>619.0</ele><time>2026-04-18T07:59:08Z</time></trkpt><trkpt lat="44.47182336191773" lon="10.261407715405792"><ele>618.6666666666667</ele><time>2026-04-18T07:59:09Z</time></trkpt><trkpt lat="44.471642600997725" lon="10.261416574053214"><ele>618.3333333333334</ele><time>2026-04-18T07:59:10Z</time></trkpt><trkpt lat="44.47146315199594" lon="10.261508363758368"><ele>618.0</ele><time>2026-04-18T07:59:11Z</time></trkpt><trkpt lat="44.47130324417578" lon="10.261679974769182"><ele>622.3333333333334</ele><time>2026-04-18T07:59:12Z</time></trkpt><trkpt lat="44.471140434911206" lon="10.26177081044331"><ele>626.6666666666667</ele><time>2026-04-18T07:59:13Z</time></trkpt><trkpt lat="44.470936125966624" lon="10.26180859818771"><ele>631.0</ele><time>2026-04-18T07:59:14Z</time></trkpt><trkpt lat="44.47074958459475" lon="10.261878874997072"><ele>631.0</ele><time>2026-04-18T07:59:15Z</time></trkpt><trkpt lat="44.47060088783052" lon="10.262028096056667"><ele>631.0</ele><time>2026-04-18T07:59:16Z</time></trkpt><trkpt lat="44.47045708657178" lon="10.262197855362482"><ele>631.0</ele><time>2026-04-18T07:59:17Z</time></trkpt><trkpt lat="44.47033049878113" lon="10.262213191611924"><ele>631.6666666666667</ele><time>2026-04-18T07:59:17.999Z</time></trkpt><trkpt lat="44.47019553529387" lon="10.262146951815007"><ele>632.3333333333334</ele><time>2026-04-18T07:59:18.999Z</time></trkpt><trkpt lat="44.47002391786952" lon="10.262041882397881"><ele>633.0</ele><time>2026-04-18T07:59:19.999Z</time></trkpt><trkpt lat="44.4698287823031" lon="10.261893664577215"><ele>633.0</ele><time>2026-04-18T07:59:20.999Z</time></trkpt><trkpt lat="44.46963415916772" lon="10.261826076457732"><ele>633.0</ele><time>2026-04-18T07:59:21.999Z</time></trkpt><trkpt lat="44.46942106095473" lon="10.261829524745453"><ele>633.0</ele><time>2026-04-18T07:59:22.999Z</time></trkpt><trkpt lat="44.469221974874046" lon="10.261905291448379"><ele>632.6666666666666</ele><time>2026-04-18T07:59:23.999Z</time></trkpt><trkpt lat="44.469045584892406" lon="10.261991467692487"><ele>632.3333333333333</ele><time>2026-04-18T07:59:24.999Z</time></trkpt><trkpt lat="44.4689231916803" lon="10.26215871632427"><ele>632.0</ele><time>2026-04-18T07:59:25.999Z</time></trkpt><trkpt lat="44.46876002990019" lon="10.262349331628938"><ele>632.0</ele><time>2026-04-18T07:59:26.999Z</time></trkpt><trkpt lat="44.46863973384274" lon="10.262653580325983"><ele>632.0</ele><time>2026-04-18T07:59:27.999Z</time></trkpt><trkpt lat="44.468517812597796" lon="10.262931235164938"><ele>628.0</ele><time>2026-04-18T07:59:28.999Z</time></trkpt><trkpt lat="44.46840161451561" lon="10.263154667538544"><ele>624.0</ele><time>2026-04-18T07:59:29.999Z</time></trkpt><trkpt lat="44.468277189530994" lon="10.263262035087504"><ele>620.0</ele><time>2026-04-18T07:59:30.999Z</time></trkpt><trkpt lat="44.46815700959709" lon="10.2633103507268"><ele>620.0</ele><time>2026-04-18T07:59:31.999Z</time></trkpt><trkpt lat="44.46802049351493" lon="10.263241325464264"><ele>620.0</ele><time>2026-04-18T07:59:32.999Z</time></trkpt><trkpt lat="44.4678847052637" lon="10.263070201834674"><ele>620.0</ele><time>2026-04-18T07:59:33.999Z</time></trkpt><trkpt lat="44.46770780647639" lon="10.262837379786427"><ele>620.0</ele><time>2026-04-18T07:59:34.999Z</time></trkpt><trkpt lat="44.46751711888241" lon="10.262679945878487"><ele>620.0</ele><time>2026-04-18T07:59:35.999Z</time></trkpt><trkpt lat="44.46742768147547" lon="10.262503677875966"><ele>620.0</ele><time>2026-04-18T07:59:36.999Z</time></trkpt><trkpt lat="44.46738997405866" lon="10.262202218264465"><ele>620.0</ele><time>2026-04-18T07:59:37.999Z</time></trkpt><trkpt lat="44.46741527136121" lon="10.261918297742705"><ele>620.0</ele><time>2026-04-18T07:59:38.999Z</time></trkpt><trkpt lat="44.4674844032212" lon="10.261623539019942"><ele>620.0</ele><time>2026-04-18T07:59:39.999Z</time></trkpt><trkpt lat="44.4675304396497" lon="10.261360774491989"><ele>620.0</ele><time>2026-04-18T07:59:40.999Z</time></trkpt><trkpt lat="44.46754000718103" lon="10.261183568644785"><ele>620.0</ele><time>2026-04-18T07:59:41.999Z</time></trkpt><trkpt lat="44.46751901235339" lon="10.260959595275713"><ele>620.0</ele><time>2026-04-18T07:59:42.999Z</time></trkpt><trkpt lat="44.4674241012194" lon="10.26078322976409"><ele>620.0</ele><time>2026-04-18T07:59:43.999Z</time></trkpt><trkpt lat="44.467244146750154" lon="10.260669426181735"><ele>616.6666666666666</ele><time>2026-04-18T07:59:44.999Z</time></trkpt><trkpt lat="44.46703251068186" lon="10.260535857322608"><ele>613.3333333333334</ele><time>2026-04-18T07:59:45.999Z</time></trkpt><trkpt lat="44.466931895648415" lon="10.260325152901862"><ele>610.0</ele><time>2026-04-18T07:59:46.999Z</time></trkpt><trkpt lat="44.46684004566166" lon="10.260045359779575"><ele>610.0</ele><time>2026-04-18T07:59:47.999Z</time></trkpt><trkpt lat="44.46673121192727" lon="10.259807013664961"><ele>610.0</ele><time>2026-04-18T07:59:48.999Z</time></trkpt><trkpt lat="44.46661135719237" lon="10.259602795639596"><ele>610.0</ele><time>2026-04-18T07:59:49.999Z</time></trkpt><trkpt lat="44.4663949061903" lon="10.259460972890674"><ele>608.5</ele><time>2026-04-18T07:59:50.999Z</time></trkpt><trkpt lat="44.46619032536327" lon="10.259291058662859"><ele>607.0</ele><time>2026-04-18T07:59:51.999Z</time></trkpt><trkpt lat="44.46592592112908" lon="10.259127504794966"><ele>614.5</ele><time>2026-04-18T07:59:52.999Z</time></trkpt><trkpt lat="44.46575266317305" lon="10.258914812350426"><ele>622.0</ele><time>2026-04-18T07:59:53.999Z</time></trkpt><trkpt lat="44.465585616452344" lon="10.258695082157683"><ele>618.0</ele><time>2026-04-18T07:59:54.999Z</time></trkpt><trkpt lat="44.46544191034375" lon="10.258532651925501"><ele>614.0</ele><time>2026-04-18T07:59:55.999Z</time></trkpt><trkpt lat="44.46527671209364" lon="10.25845009806575"><ele>610.0</ele><time>2026-04-18T07:59:56.999Z</time></trkpt><trkpt lat="44.46507220735681" lon="10.258463761309448"><ele>610.0</ele><time>2026-04-18T07:59:57.999Z</time></trkpt><trkpt lat="44.4648895895481" lon="10.258475074442309"><ele>610.0</ele><time>2026-04-18T07:59:58.999Z</time></trkpt><trkpt lat="44.46475728781637" lon="10.258375892266505"><ele>610.0</ele><time>2026-04-18T07:59:59.999Z</time></trkpt><trkpt lat="44.464636090249876" lon="10.258205642813596"><ele>607.0</ele><time>2026-04-18T08:00:00.999Z</time></trkpt><trkpt lat="44.464474221625935" lon="10.257961174731367"><ele>604.0</ele><time>2026-04-18T08:00:01.999Z</time></trkpt><trkpt lat="44.46432383538809" lon="10.257687557820885"><ele>604.0</ele><time>2026-04-18T08:00:02.999Z</time></trkpt><trkpt lat="44.464165245290054" lon="10.257416952054827"><ele>604.0</ele><time>2026-04-18T08:00:03.999Z</time></trkpt><trkpt lat="44.464018218060595" lon="10.257163223969787"><ele>602.0</ele><time>2026-04-18T08:00:04.999Z</time></trkpt><trkpt lat="44.46388324764943" lon="10.256944812729147"><ele>600.0</ele><time>2026-04-18T08:00:05.999Z</time></trkpt><trkpt lat="44.463731039649545" lon="10.256737625744098"><ele>598.0</ele><time>2026-04-18T08:00:06.999Z</time></trkpt><trkpt lat="44.46356812237111" lon="10.25656115910552"><ele>599.6666666666667</ele><time>2026-04-18T08:00:07.999Z</time></trkpt><trkpt lat="44.46336667761829" lon="10.256449960446805"><ele>601.3333333333334</ele><time>2026-04-18T08:00:08.999Z</time></trkpt><trkpt lat="44.463142623047275" lon="10.25638494417979"><ele>603.0</ele><time>2026-04-18T08:00:09.999Z</time></trkpt><trkpt lat="44.46294013174901" lon="10.256299500182994"><ele>603.0</ele><time>2026-04-18T08:00:10.999Z</time></trkpt><trkpt lat="44.46276965586179" lon="10.256131403070226"><ele>603.0</ele><time>2026-04-18T08:00:11.999Z</time></trkpt><trkpt lat="44.46259267340508" lon="10.25598321594823"><ele>603.0</ele><time>2026-04-18T08:00:12.999Z</time></trkpt><trkpt lat="44.4624010889149" lon="10.255849817789382"><ele>603.0</ele><time>2026-04-18T08:00:14Z</time></trkpt><trkpt lat="44.462195967508734" lon="10.255761448089943"><ele>603.0</ele><time>2026-04-18T08:00:15Z</time></trkpt><trkpt lat="44.4620132352161" lon="10.255654748854727"><ele>603.0</ele><time>2026-04-18T08:00:16Z</time></trkpt><trkpt lat="44.461861668516235" lon="10.25549251883056"><ele>602.6666666666666</ele><time>2026-04-18T08:00:17Z</time></trkpt><trkpt lat="44.46173434922085" lon="10.255322631480155"><ele>602.3333333333333</ele><time>2026-04-18T08:00:18Z</time></trkpt><trkpt lat="44.46164204420575" lon="10.25515653400321"><ele>602.0</ele><time>2026-04-18T08:00:19Z</time></trkpt><trkpt lat="44.46158995934139" lon="10.254967466579561"><ele>605.3333333333333</ele><time>2026-04-18T08:00:20Z</time></trkpt><trkpt lat="44.461576602130464" lon="10.254721488451738"><ele>608.6666666666666</ele><time>2026-04-18T08:00:21Z</time></trkpt><trkpt lat="44.4615269305696" lon="10.254482253220049"><ele>612.0</ele><time>2026-04-18T08:00:22Z</time></trkpt><trkpt lat="44.461412127458544" lon="10.254274479920094"><ele>609.6666666666666</ele><time>2026-04-18T08:00:23Z</time></trkpt><trkpt lat="44.46125420972727" lon="10.254060538327135"><ele>607.3333333333333</ele><time>2026-04-18T08:00:24Z</time></trkpt><trkpt lat="44.46110704194261" lon="10.253831107739316"><ele>605.0</ele><time>2026-04-18T08:00:25Z</time></trkpt><trkpt lat="44.46095763010159" lon="10.253584159375682"><ele>605.0</ele><time>2026-04-18T08:00:26Z</time></trkpt><trkpt lat="44.46081119363378" lon="10.253347269081377"><ele>605.0</ele><time>2026-04-18T08:00:27Z</time></trkpt><trkpt lat="44.46068230217763" lon="10.25315423714392"><ele>605.0</ele><time>2026-04-18T08:00:28Z</time></trkpt><trkpt lat="44.460600133134264" lon="10.252987530717283"><ele>605.0</ele><time>2026-04-18T08:00:29Z</time></trkpt><trkpt lat="44.460611520177466" lon="10.252823861281438"><ele>605.0</ele><time>2026-04-18T08:00:30Z</time></trkpt><trkpt lat="44.46067068352915" lon="10.252682787902405"><ele>605.0</ele><time>2026-04-18T08:00:31Z</time></trkpt><trkpt lat="44.46075713330207" lon="10.252506451811465"><ele>605.0</ele><time>2026-04-18T08:00:32Z</time></trkpt><trkpt lat="44.46079884106883" lon="10.252285950335384"><ele>605.0</ele><time>2026-04-18T08:00:33Z</time></trkpt><trkpt lat="44.46091161127736" lon="10.252109804320108"><ele>605.0</ele><time>2026-04-18T08:00:34Z</time></trkpt><trkpt lat="44.460946774921275" lon="10.251922061758735"><ele>605.0</ele><time>2026-04-18T08:00:35Z</time></trkpt><trkpt lat="44.46093554971813" lon="10.251750253778086"><ele>605.0</ele><time>2026-04-18T08:00:36Z</time></trkpt><trkpt lat="44.46086516319525" lon="10.25160451192694"><ele>605.0</ele><time>2026-04-18T08:00:37Z</time></trkpt><trkpt lat="44.46076490478203" lon="10.251504450188893"><ele>605.0</ele><time>2026-04-18T08:00:38Z</time></trkpt><trkpt lat="44.46066228749802" lon="10.251417650493172"><ele>605.0</ele><time>2026-04-18T08:00:39Z</time></trkpt><trkpt lat="44.460567112863046" lon="10.25130979016167"><ele>605.0</ele><time>2026-04-18T08:00:40Z</time></trkpt><trkpt lat="44.46047358230661" lon="10.251198878851827"><ele>606.0</ele><time>2026-04-18T08:00:41Z</time></trkpt><trkpt lat="44.4603683869588" lon="10.25107983239472"><ele>607.0</ele><time>2026-04-18T08:00:42Z</time></trkpt><trkpt lat="44.46021754392869" lon="10.25090073930896"><ele>608.0</ele><time>2026-04-18T08:00:43Z</time></trkpt><trkpt lat="44.46006544093602" lon="10.25069455117211"><ele>606.0</ele><time>2026-04-18T08:00:44Z</time></trkpt><trkpt lat="44.45990883762591" lon="10.250533601900624"><ele>604.0</ele><time>2026-04-18T08:00:45Z</time></trkpt><trkpt lat="44.4597316105231" lon="10.250431388462106"><ele>602.0</ele><time>2026-04-18T08:00:46Z</time></trkpt><trkpt lat="44.45956574833511" lon="10.250381491412133"><ele>602.0</ele><time>2026-04-18T08:00:47Z</time></trkpt><trkpt lat="44.45943178051039" lon="10.250273930887548"><ele>602.0</ele><time>2026-04-18T08:00:48Z</time></trkpt><trkpt lat="44.45933200308635" lon="10.250089563046025"><ele>602.0</ele><time>2026-04-18T08:00:49Z</time></trkpt><trkpt lat="44.45926066184043" lon="10.249867877770438"><ele>603.6666666666666</ele><time>2026-04-18T08:00:50Z</time></trkpt><trkpt lat="44.45922559395019" lon="10.249618589093318"><ele>605.3333333333334</ele><time>2026-04-18T08:00:51Z</time></trkpt><trkpt lat="44.4591687542295" lon="10.249379964152585"><ele>607.0</ele><time>2026-04-18T08:00:52Z</time></trkpt><trkpt lat="44.45908985324796" lon="10.249179197569294"><ele>607.0</ele><time>2026-04-18T08:00:53Z</time></trkpt><trkpt lat="44.45901897154074" lon="10.249036050022422"><ele>607.0</ele><time>2026-04-18T08:00:54Z</time></trkpt><trkpt lat="44.458930831436604" lon="10.248914208165404"><ele>607.0</ele><time>2026-04-18T08:00:55Z</time></trkpt><trkpt lat="44.45880346712115" lon="10.248820708665091"><ele>607.0</ele><time>2026-04-18T08:00:56Z</time></trkpt><trkpt lat="44.4586574389319" lon="10.248761679409444"><ele>605.6666666666667</ele><time>2026-04-18T08:00:57Z</time></trkpt><trkpt lat="44.45849836344641" lon="10.248709074834247"><ele>604.3333333333334</ele><time>2026-04-18T08:00:58Z</time></trkpt><trkpt lat="44.458345589369564" lon="10.248636968080058"><ele>603.0</ele><time>2026-04-18T08:00:59Z</time></trkpt><trkpt lat="44.45820098387004" lon="10.248516619977595"><ele>603.0</ele><time>2026-04-18T08:01:00Z</time></trkpt><trkpt lat="44.45805941443945" lon="10.248352024268517"><ele>603.0</ele><time>2026-04-18T08:01:01Z</time></trkpt><trkpt lat="44.4579306929687" lon="10.248180622492347"><ele>603.0</ele><time>2026-04-18T08:01:02Z</time></trkpt><trkpt lat="44.457821332030036" lon="10.24800812489322"><ele>602.3333333333334</ele><time>2026-04-18T08:01:03Z</time></trkpt><trkpt lat="44.45772631449439" lon="10.247809906310152"><ele>601.6666666666667</ele><time>2026-04-18T08:01:04Z</time></trkpt><trkpt lat="44.457655498671656" lon="10.247590375158726"><ele>601.0</ele><time>2026-04-18T08:01:05Z</time></trkpt><trkpt lat="44.457585768807974" lon="10.247362355958112"><ele>601.0</ele><time>2026-04-18T08:01:06Z</time></trkpt><trkpt lat="44.45751401203034" lon="10.247154269317324"><ele>601.0</ele><time>2026-04-18T08:01:07Z</time></trkpt><trkpt lat="44.457473958823705" lon="10.246956231576142"><ele>601.0</ele><time>2026-04-18T08:01:08Z</time></trkpt><trkpt lat="44.457468533011" lon="10.246726374507702"><ele>601.0</ele><time>2026-04-18T08:01:09Z</time></trkpt><trkpt lat="44.45746174674168" lon="10.246506263501947"><ele>601.0</ele><time>2026-04-18T08:01:10Z</time></trkpt><trkpt lat="44.457427326893914" lon="10.246307548067263"><ele>601.0</ele><time>2026-04-18T08:01:11Z</time></trkpt><trkpt lat="44.45734597353153" lon="10.246107857283995"><ele>603.3333333333334</ele><time>2026-04-18T08:01:12Z</time></trkpt><trkpt lat="44.45719919757223" lon="10.245925644543478"><ele>605.6666666666666</ele><time>2026-04-18T08:01:13Z</time></trkpt><trkpt lat="44.457033984143344" lon="10.245734155358857"><ele>608.0</ele><time>2026-04-18T08:01:14Z</time></trkpt><trkpt lat="44.45688811935793" lon="10.245545953275178"><ele>603.3333333333333</ele><time>2026-04-18T08:01:15Z</time></trkpt><trkpt lat="44.45675774349635" lon="10.245352409717682"><ele>598.6666666666666</ele><time>2026-04-18T08:01:16Z</time></trkpt><trkpt lat="44.45663140738119" lon="10.245183465796401"><ele>594.0</ele><time>2026-04-18T08:01:17Z</time></trkpt><trkpt lat="44.45652173782871" lon="10.245031658842143"><ele>594.0</ele><time>2026-04-18T08:01:18Z</time></trkpt><trkpt lat="44.4564368891906" lon="10.244886832262527"><ele>594.0</ele><time>2026-04-18T08:01:19Z</time></trkpt><trkpt lat="44.4563811322088" lon="10.244707216014616"><ele>594.0</ele><time>2026-04-18T08:01:20Z</time></trkpt><trkpt lat="44.456368336835986" lon="10.244481106077556"><ele>594.0</ele><time>2026-04-18T08:01:21Z</time></trkpt><trkpt lat="44.45638447973412" lon="10.244242324927596"><ele>593.0</ele><time>2026-04-18T08:01:22Z</time></trkpt><trkpt lat="44.45641260009423" lon="10.244002743110034"><ele>592.0</ele><time>2026-04-18T08:01:23Z</time></trkpt><trkpt lat="44.456438584700415" lon="10.243757638956001"><ele>591.0</ele><time>2026-04-18T08:01:23.999Z</time></trkpt><trkpt lat="44.456453708318804" lon="10.243495839729851"><ele>591.0</ele><time>2026-04-18T08:01:24.999Z</time></trkpt><trkpt lat="44.45646698998062" lon="10.243248120376286"><ele>591.0</ele><time>2026-04-18T08:01:25.999Z</time></trkpt><trkpt lat="44.456476180737376" lon="10.243005210544721"><ele>591.0</ele><time>2026-04-18T08:01:26.999Z</time></trkpt><trkpt lat="44.45647789703769" lon="10.242746707209667"><ele>591.0</ele><time>2026-04-18T08:01:27.999Z</time></trkpt><trkpt lat="44.45645912278163" lon="10.242495647886882"><ele>591.0</ele><time>2026-04-18T08:01:28.999Z</time></trkpt><trkpt lat="44.45641616419722" lon="10.242236297171507"><ele>591.0</ele><time>2026-04-18T08:01:29.999Z</time></trkpt><trkpt lat="44.456347786094895" lon="10.241975937632755"><ele>591.0</ele><time>2026-04-18T08:01:30.999Z</time></trkpt><trkpt lat="44.45624755900202" lon="10.24173144618702"><ele>591.0</ele><time>2026-04-18T08:01:31.999Z</time></trkpt><trkpt lat="44.4561093784868" lon="10.241498476886257"><ele>591.0</ele><time>2026-04-18T08:01:32.999Z</time></trkpt><trkpt lat="44.4559559284445" lon="10.241303320262674"><ele>591.0</ele><time>2026-04-18T08:01:33.999Z</time></trkpt><trkpt lat="44.455767875689254" lon="10.241141135907307"><ele>591.0</ele><time>2026-04-18T08:01:34.999Z</time></trkpt><trkpt lat="44.45555745232734" lon="10.241012100333144"><ele>588.0</ele><time>2026-04-18T08:01:35.999Z</time></trkpt><trkpt lat="44.45533786503582" lon="10.240927779506379"><ele>585.0</ele><time>2026-04-18T08:01:36.999Z</time></trkpt><trkpt lat="44.45510223506591" lon="10.240880647657699"><ele>585.0</ele><time>2026-04-18T08:01:37.999Z</time></trkpt><trkpt lat="44.45485403744086" lon="10.240840654450638"><ele>585.0</ele><time>2026-04-18T08:01:38.999Z</time></trkpt><trkpt lat="44.454605175229176" lon="10.240812889365932"><ele>582.5</ele><time>2026-04-18T08:01:39.999Z</time></trkpt><trkpt lat="44.45436816594793" lon="10.240772121364389"><ele>580.0</ele><time>2026-04-18T08:01:40.999Z</time></trkpt><trkpt lat="44.45414424807982" lon="10.240736040667194"><ele>580.0</ele><time>2026-04-18T08:01:41.999Z</time></trkpt><trkpt lat="44.453929635083675" lon="10.240693438137129"><ele>580.0</ele><time>2026-04-18T08:01:42.999Z</time></trkpt><trkpt lat="44.453723271750626" lon="10.240634479873165"><ele>580.0</ele><time>2026-04-18T08:01:43.999Z</time></trkpt><trkpt lat="44.45351956336987" lon="10.240522945077043"><ele>578.0</ele><time>2026-04-18T08:01:44.999Z</time></trkpt><trkpt lat="44.453337972099796" lon="10.240364756405073"><ele>576.0</ele><time>2026-04-18T08:01:45.999Z</time></trkpt><trkpt lat="44.45317310078836" lon="10.240211198082328"><ele>574.0</ele><time>2026-04-18T08:01:46.999Z</time></trkpt><trkpt lat="44.45303927191699" lon="10.240096716477527"><ele>573.5</ele><time>2026-04-18T08:01:47.999Z</time></trkpt><trkpt lat="44.45291622538573" lon="10.240041829211146"><ele>573.0</ele><time>2026-04-18T08:01:48.999Z</time></trkpt><trkpt lat="44.452792450058794" lon="10.240051646304863"><ele>572.5</ele><time>2026-04-18T08:01:49.999Z</time></trkpt><trkpt lat="44.45267643447082" lon="10.240112624830507"><ele>572.0</ele><time>2026-04-18T08:01:50.999Z</time></trkpt><trkpt lat="44.45257172227207" lon="10.240196533030053"><ele>572.0</ele><time>2026-04-18T08:01:51.999Z</time></trkpt><trkpt lat="44.45248847781612" lon="10.240307797171896"><ele>572.0</ele><time>2026-04-18T08:01:52.999Z</time></trkpt><trkpt lat="44.45243130023489" lon="10.24043413505836"><ele>572.0</ele><time>2026-04-18T08:01:53.999Z</time></trkpt><trkpt lat="44.4523942655784" lon="10.240581744415628"><ele>572.0</ele><time>2026-04-18T08:01:54.999Z</time></trkpt><trkpt lat="44.45236561312101" lon="10.240735359485258"><ele>572.0</ele><time>2026-04-18T08:01:55.999Z</time></trkpt><trkpt lat="44.452347996065114" lon="10.240891717837746"><ele>570.75</ele><time>2026-04-18T08:01:56.999Z</time></trkpt><trkpt lat="44.45233254091043" lon="10.241035607073195"><ele>569.5</ele><time>2026-04-18T08:01:57.999Z</time></trkpt><trkpt lat="44.45229701770737" lon="10.241188826637327"><ele>568.25</ele><time>2026-04-18T08:01:58.999Z</time></trkpt><trkpt lat="44.452228034001394" lon="10.241336015507148"><ele>567.0</ele><time>2026-04-18T08:01:59.999Z</time></trkpt><trkpt lat="44.45213421070264" lon="10.241458406768327"><ele>564.6666666666666</ele><time>2026-04-18T08:02:00.999Z</time></trkpt><trkpt lat="44.45202030950421" lon="10.241537487808989"><ele>562.3333333333333</ele><time>2026-04-18T08:02:01.999Z</time></trkpt><trkpt lat="44.45187842612923" lon="10.241637386082212"><ele>560.0</ele><time>2026-04-18T08:02:02.999Z</time></trkpt><trkpt lat="44.4517031216287" lon="10.241783771173935"><ele>560.0</ele><time>2026-04-18T08:02:03.999Z</time></trkpt><trkpt lat="44.451514325395586" lon="10.24204191893223"><ele>560.0</ele><time>2026-04-18T08:02:04.999Z</time></trkpt><trkpt lat="44.45133324907341" lon="10.242306182144857"><ele>558.5</ele><time>2026-04-18T08:02:05.999Z</time></trkpt><trkpt lat="44.45114789087604" lon="10.242550600000962"><ele>557.0</ele><time>2026-04-18T08:02:06.999Z</time></trkpt><trkpt lat="44.450943524701856" lon="10.242780579640252"><ele>557.0</ele><time>2026-04-18T08:02:07.999Z</time></trkpt><trkpt lat="44.45069819658472" lon="10.242994239073177"><ele>557.0</ele><time>2026-04-18T08:02:08.999Z</time></trkpt><trkpt lat="44.45042972232921" lon="10.24322403445988"><ele>549.5</ele><time>2026-04-18T08:02:09.999Z</time></trkpt><trkpt lat="44.45020139036327" lon="10.24337080627538"><ele>542.0</ele><time>2026-04-18T08:02:10.999Z</time></trkpt><trkpt lat="44.44993454457587" lon="10.243562123143665"><ele>542.0</ele><time>2026-04-18T08:02:11.999Z</time></trkpt><trkpt lat="44.4496750136624" lon="10.243746064063044"><ele>542.0</ele><time>2026-04-18T08:02:12.999Z</time></trkpt><trkpt lat="44.44946638948011" lon="10.243951528494318"><ele>540.5</ele><time>2026-04-18T08:02:13.999Z</time></trkpt><trkpt lat="44.44926166245062" lon="10.244173442904184"><ele>539.0</ele><time>2026-04-18T08:02:14.999Z</time></trkpt><trkpt lat="44.449078024289435" lon="10.244384471429171"><ele>539.0</ele><time>2026-04-18T08:02:15.999Z</time></trkpt><trkpt lat="44.44884656705947" lon="10.244692607701328"><ele>539.0</ele><time>2026-04-18T08:02:16.999Z</time></trkpt><trkpt lat="44.44860213595576" lon="10.24503766823562"><ele>538.0</ele><time>2026-04-18T08:02:17.999Z</time></trkpt><trkpt lat="44.4483888357615" lon="10.245342745562915"><ele>537.0</ele><time>2026-04-18T08:02:18.999Z</time></trkpt><trkpt lat="44.44818347106802" lon="10.245636472954919"><ele>536.5</ele><time>2026-04-18T08:02:20Z</time></trkpt><trkpt lat="44.44797918504385" lon="10.245927833577776"><ele>536.0</ele><time>2026-04-18T08:02:21Z</time></trkpt><trkpt lat="44.447774633832644" lon="10.246219402609636"><ele>530.0</ele><time>2026-04-18T08:02:22Z</time></trkpt><trkpt lat="44.44757878884178" lon="10.246498561709386"><ele>524.0</ele><time>2026-04-18T08:02:23Z</time></trkpt><trkpt lat="44.44739445623615" lon="10.246747259423714"><ele>524.0</ele><time>2026-04-18T08:02:24Z</time></trkpt><trkpt lat="44.44721124649452" lon="10.246956928686238"><ele>524.0</ele><time>2026-04-18T08:02:25Z</time></trkpt><trkpt lat="44.44700536999573" lon="10.247117592392865"><ele>526.0</ele><time>2026-04-18T08:02:26Z</time></trkpt><trkpt lat="44.446797332123026" lon="10.247211311103746"><ele>528.0</ele><time>2026-04-18T08:02:27Z</time></trkpt><trkpt lat="44.44656816565687" lon="10.247250415112827"><ele>530.0</ele><time>2026-04-18T08:02:28Z</time></trkpt><trkpt lat="44.446316660676096" lon="10.247220432888684"><ele>526.5</ele><time>2026-04-18T08:02:29Z</time></trkpt><trkpt lat="44.44608586913684" lon="10.247113035665047"><ele>523.0</ele><time>2026-04-18T08:02:30Z</time></trkpt><trkpt lat="44.44588624404605" lon="10.246962335458846"><ele>523.0</ele><time>2026-04-18T08:02:31Z</time></trkpt><trkpt lat="44.44569305065877" lon="10.246713133212467"><ele>523.0</ele><time>2026-04-18T08:02:32Z</time></trkpt><trkpt lat="44.44554328602752" lon="10.246421883528157"><ele>515.5</ele><time>2026-04-18T08:02:33Z</time></trkpt><trkpt lat="44.44541302143713" lon="10.246077116710424"><ele>508.0</ele><time>2026-04-18T08:02:34Z</time></trkpt><trkpt lat="44.44530111084621" lon="10.245686458821442"><ele>507.5</ele><time>2026-04-18T08:02:35Z</time></trkpt><trkpt lat="44.445183736974215" lon="10.24533571057794"><ele>507.0</ele><time>2026-04-18T08:02:36Z</time></trkpt><trkpt lat="44.44507793041961" lon="10.245018866830184"><ele>506.5</ele><time>2026-04-18T08:02:37Z</time></trkpt><trkpt lat="44.44494052410521" lon="10.244637314169005"><ele>506.0</ele><time>2026-04-18T08:02:38Z</time></trkpt><trkpt lat="44.44477358431929" lon="10.244207737237016"><ele>500.0</ele><time>2026-04-18T08:02:39Z</time></trkpt><trkpt lat="44.44461207600563" lon="10.243787941419338"><ele>494.0</ele><time>2026-04-18T08:02:40Z</time></trkpt><trkpt lat="44.44449348628141" lon="10.24342927187051"><ele>496.5</ele><time>2026-04-18T08:02:41Z</time></trkpt><trkpt lat="44.44435137032586" lon="10.243054535577144"><ele>499.0</ele><time>2026-04-18T08:02:42Z</time></trkpt><trkpt lat="44.44421253997226" lon="10.242676584926496"><ele>499.0</ele><time>2026-04-18T08:02:43Z</time></trkpt><trkpt lat="44.44407594682955" lon="10.242311036886715"><ele>499.0</ele><time>2026-04-18T08:02:44Z</time></trkpt><trkpt lat="44.443938685165385" lon="10.241942307851557"><ele>497.5</ele><time>2026-04-18T08:02:45Z</time></trkpt><trkpt lat="44.443806481945316" lon="10.24158287276867"><ele>496.0</ele><time>2026-04-18T08:02:46Z</time></trkpt><trkpt lat="44.44368500006036" lon="10.24122600095857"><ele>496.0</ele><time>2026-04-18T08:02:47Z</time></trkpt><trkpt lat="44.44356608697102" lon="10.24087489314241"><ele>496.0</ele><time>2026-04-18T08:02:48Z</time></trkpt><trkpt lat="44.443448194260334" lon="10.240527710381336"><ele>497.5</ele><time>2026-04-18T08:02:49Z</time></trkpt><trkpt lat="44.443338742298806" lon="10.240230404802757"><ele>499.0</ele><time>2026-04-18T08:02:50Z</time></trkpt><trkpt lat="44.44321701889192" lon="10.239967877885835"><ele>501.0</ele><time>2026-04-18T08:02:51Z</time></trkpt><trkpt lat="44.44306348645059" lon="10.23972782814719"><ele>503.0</ele><time>2026-04-18T08:02:52Z</time></trkpt><trkpt lat="44.44285828827304" lon="10.239527800142039"><ele>503.0</ele><time>2026-04-18T08:02:53Z</time></trkpt><trkpt lat="44.442617346247566" lon="10.239393510785034"><ele>503.0</ele><time>2026-04-18T08:02:54Z</time></trkpt><trkpt lat="44.44235524686886" lon="10.239335609865602"><ele>497.5</ele><time>2026-04-18T08:02:55Z</time></trkpt><trkpt lat="44.442075068348515" lon="10.239326459955377"><ele>492.0</ele><time>2026-04-18T08:02:56Z</time></trkpt><trkpt lat="44.44181676615505" lon="10.239315674631372"><ele>492.0</ele><time>2026-04-18T08:02:57Z</time></trkpt><trkpt lat="44.441584130700484" lon="10.239286543055332"><ele>492.0</ele><time>2026-04-18T08:02:58Z</time></trkpt><trkpt lat="44.441356338248944" lon="10.239238671776786"><ele>487.33333333333337</ele><time>2026-04-18T08:02:59Z</time></trkpt><trkpt lat="44.44116941144138" lon="10.239197374959492"><ele>482.6666666666667</ele><time>2026-04-18T08:03:00Z</time></trkpt><trkpt lat="44.44102723427706" lon="10.239118523683203"><ele>478.0</ele><time>2026-04-18T08:03:01Z</time></trkpt><trkpt lat="44.44091167080174" lon="10.239006123860518"><ele>478.6666666666667</ele><time>2026-04-18T08:03:02Z</time></trkpt><trkpt lat="44.44079602876724" lon="10.238831658506607"><ele>479.33333333333337</ele><time>2026-04-18T08:03:03Z</time></trkpt><trkpt lat="44.44075327069434" lon="10.23859214653873"><ele>480.0</ele><time>2026-04-18T08:03:04Z</time></trkpt><trkpt lat="44.44078079532611" lon="10.238325839480355"><ele>481.0</ele><time>2026-04-18T08:03:05Z</time></trkpt><trkpt lat="44.44079901642934" lon="10.238089695408487"><ele>482.0</ele><time>2026-04-18T08:03:06Z</time></trkpt><trkpt lat="44.44074405555019" lon="10.237869938848942"><ele>483.0</ele><time>2026-04-18T08:03:07Z</time></trkpt><trkpt lat="44.44062220385596" lon="10.237690093684883"><ele>483.0</ele><time>2026-04-18T08:03:08Z</time></trkpt><trkpt lat="44.440478791147704" lon="10.237563512922883"><ele>483.0</ele><time>2026-04-18T08:03:09Z</time></trkpt><trkpt lat="44.440396989295174" lon="10.237394538668111"><ele>483.0</ele><time>2026-04-18T08:03:10Z</time></trkpt><trkpt lat="44.44037750300758" lon="10.23714735279634"><ele>475.66666666666663</ele><time>2026-04-18T08:03:11Z</time></trkpt><trkpt lat="44.440410798467646" lon="10.236840415199334"><ele>468.3333333333333</ele><time>2026-04-18T08:03:12Z</time></trkpt><trkpt lat="44.44042662537171" lon="10.236576011817409"><ele>461.0</ele><time>2026-04-18T08:03:13Z</time></trkpt><trkpt lat="44.4404301205027" lon="10.236202372867211"><ele>461.0</ele><time>2026-04-18T08:03:14Z</time></trkpt><trkpt lat="44.4404433596751" lon="10.23593895425093"><ele>461.0</ele><time>2026-04-18T08:03:15Z</time></trkpt><trkpt lat="44.44044712397628" lon="10.235750063253741"><ele>461.0</ele><time>2026-04-18T08:03:16Z</time></trkpt><trkpt lat="44.4404080791049" lon="10.23563654986721"><ele>461.0</ele><time>2026-04-18T08:03:17Z</time></trkpt><trkpt lat="44.440314393271805" lon="10.235576413624155"><ele>461.0</ele><time>2026-04-18T08:03:18Z</time></trkpt><trkpt lat="44.440164979209904" lon="10.235604132524017"><ele>461.0</ele><time>2026-04-18T08:03:19Z</time></trkpt><trkpt lat="44.43996057072157" lon="10.235664242717533"><ele>461.0</ele><time>2026-04-18T08:03:20Z</time></trkpt><trkpt lat="44.43973716101674" lon="10.235705243627377"><ele>461.3333333333333</ele><time>2026-04-18T08:03:21Z</time></trkpt><trkpt lat="44.43951864587786" lon="10.235737913366513"><ele>461.66666666666663</ele><time>2026-04-18T08:03:22Z</time></trkpt><trkpt lat="44.43930441192501" lon="10.235767439829827"><ele>462.0</ele><time>2026-04-18T08:03:23Z</time></trkpt><trkpt lat="44.43911412880715" lon="10.235793632098943"><ele>462.0</ele><time>2026-04-18T08:03:24Z</time></trkpt><trkpt lat="44.43894923744047" lon="10.235810303470029"><ele>462.0</ele><time>2026-04-18T08:03:25Z</time></trkpt><trkpt lat="44.43879381921934" lon="10.235822399476149"><ele>462.0</ele><time>2026-04-18T08:03:26Z</time></trkpt><trkpt lat="44.43863698164605" lon="10.23584289597139"><ele>463.25</ele><time>2026-04-18T08:03:27Z</time></trkpt><trkpt lat="44.438485116380754" lon="10.235873616012162"><ele>464.5</ele><time>2026-04-18T08:03:28Z</time></trkpt><trkpt lat="44.43834298922125" lon="10.235902049833614"><ele>465.75</ele><time>2026-04-18T08:03:29Z</time></trkpt><trkpt lat="44.438222172558866" lon="10.23593744179404"><ele>467.0</ele><time>2026-04-18T08:03:30Z</time></trkpt><trkpt lat="44.43809934934531" lon="10.235969337750227"><ele>469.0</ele><time>2026-04-18T08:03:30.999Z</time></trkpt><trkpt lat="44.437956155555426" lon="10.235991151541501"><ele>471.0</ele><time>2026-04-18T08:03:31.999Z</time></trkpt><trkpt lat="44.437790606585196" lon="10.236071724459991"><ele>473.0</ele><time>2026-04-18T08:03:32.999Z</time></trkpt><trkpt lat="44.4376012356032" lon="10.236175484740924"><ele>473.0</ele><time>2026-04-18T08:03:33.999Z</time></trkpt><trkpt lat="44.437413385898104" lon="10.236263577304966"><ele>473.0</ele><time>2026-04-18T08:03:34.999Z</time></trkpt><trkpt lat="44.43727051837468" lon="10.236294915826768"><ele>473.0</ele><time>2026-04-18T08:03:35.999Z</time></trkpt><trkpt lat="44.4371392540239" lon="10.236265018573562"><ele>474.3333333333333</ele><time>2026-04-18T08:03:36.999Z</time></trkpt><trkpt lat="44.43700325384773" lon="10.236122293126973"><ele>475.66666666666663</ele><time>2026-04-18T08:03:37.999Z</time></trkpt><trkpt lat="44.43686003421051" lon="10.235942524859126"><ele>477.0</ele><time>2026-04-18T08:03:38.999Z</time></trkpt><trkpt lat="44.436711650504265" lon="10.235825067216746"><ele>477.0</ele><time>2026-04-18T08:03:39.999Z</time></trkpt><trkpt lat="44.4365428950265" lon="10.235812100443493"><ele>477.0</ele><time>2026-04-18T08:03:40.999Z</time></trkpt><trkpt lat="44.436388349152104" lon="10.235906113816798"><ele>477.0</ele><time>2026-04-18T08:03:41.999Z</time></trkpt><trkpt lat="44.43629731129064" lon="10.235890884125723"><ele>477.0</ele><time>2026-04-18T08:03:42.999Z</time></trkpt><trkpt lat="44.43626033516544" lon="10.235758402755359"><ele>478.33333333333337</ele><time>2026-04-18T08:03:43.999Z</time></trkpt><trkpt lat="44.43624714316565" lon="10.235541740086958"><ele>479.6666666666667</ele><time>2026-04-18T08:03:44.999Z</time></trkpt><trkpt lat="44.43627319268143" lon="10.235285009584592"><ele>481.0</ele><time>2026-04-18T08:03:45.999Z</time></trkpt><trkpt lat="44.43632511111212" lon="10.234999259507806"><ele>485.33333333333337</ele><time>2026-04-18T08:03:46.999Z</time></trkpt><trkpt lat="44.436368368727614" lon="10.234772966944574"><ele>489.66666666666663</ele><time>2026-04-18T08:03:47.999Z</time></trkpt><trkpt lat="44.436441100906855" lon="10.234578360188468"><ele>494.0</ele><time>2026-04-18T08:03:48.999Z</time></trkpt><trkpt lat="44.43655921191096" lon="10.2344102499073"><ele>494.0</ele><time>2026-04-18T08:03:49.999Z</time></trkpt><trkpt lat="44.43666265493442" lon="10.234281298150151"><ele>494.0</ele><time>2026-04-18T08:03:50.999Z</time></trkpt><trkpt lat="44.436714691556496" lon="10.23412531359792"><ele>494.0</ele><time>2026-04-18T08:03:51.999Z</time></trkpt><trkpt lat="44.43670374554893" lon="10.23394807568585"><ele>494.0</ele><time>2026-04-18T08:03:52.999Z</time></trkpt><trkpt lat="44.43661773276885" lon="10.233795505472797"><ele>497.66666666666663</ele><time>2026-04-18T08:03:53.999Z</time></trkpt><trkpt lat="44.436451065204956" lon="10.233713834163806"><ele>501.33333333333337</ele><time>2026-04-18T08:03:54.999Z</time></trkpt><trkpt lat="44.43624776198753" lon="10.23372058166843"><ele>505.0</ele><time>2026-04-18T08:03:55.999Z</time></trkpt><trkpt lat="44.4360185858262" lon="10.233729498674736"><ele>505.0</ele><time>2026-04-18T08:03:56.999Z</time></trkpt><trkpt lat="44.43577942187282" lon="10.233720253781232"><ele>505.0</ele><time>2026-04-18T08:03:57.999Z</time></trkpt><trkpt lat="44.43557684315292" lon="10.23370984436392"><ele>505.0</ele><time>2026-04-18T08:03:58.999Z</time></trkpt><trkpt lat="44.43540384304249" lon="10.233657538059665"><ele>505.0</ele><time>2026-04-18T08:03:59.999Z</time></trkpt><trkpt lat="44.435229638131716" lon="10.233551789250917"><ele>505.0</ele><time>2026-04-18T08:04:00.999Z</time></trkpt><trkpt lat="44.43517186646103" lon="10.233420593789708"><ele>505.0</ele><time>2026-04-18T08:04:01.999Z</time></trkpt><trkpt lat="44.435146840733175" lon="10.2332836418071"><ele>505.0</ele><time>2026-04-18T08:04:02.999Z</time></trkpt><trkpt lat="44.435099236789576" lon="10.233032136832454"><ele>508.0</ele><time>2026-04-18T08:04:03.999Z</time></trkpt><trkpt lat="44.435044630854414" lon="10.232763767301002"><ele>511.0</ele><time>2026-04-18T08:04:04.999Z</time></trkpt><trkpt lat="44.434979322559784" lon="10.23246861470572"><ele>514.0</ele><time>2026-04-18T08:04:05.999Z</time></trkpt><trkpt lat="44.43490379543501" lon="10.2321555042503"><ele>517.0</ele><time>2026-04-18T08:04:06.999Z</time></trkpt><trkpt lat="44.43482727788329" lon="10.231815046438426"><ele>520.0</ele><time>2026-04-18T08:04:07.999Z</time></trkpt><trkpt lat="44.43474497921633" lon="10.231480182738732"><ele>517.0</ele><time>2026-04-18T08:04:08.999Z</time></trkpt><trkpt lat="44.434681979879" lon="10.231134807275595"><ele>514.0</ele><time>2026-04-18T08:04:09.999Z</time></trkpt><trkpt lat="44.43461644724185" lon="10.230776597316812"><ele>517.5</ele><time>2026-04-18T08:04:10.999Z</time></trkpt><trkpt lat="44.43451519548374" lon="10.230416118496082"><ele>521.0</ele><time>2026-04-18T08:04:11.999Z</time></trkpt><trkpt lat="44.434406276120164" lon="10.230065316839733"><ele>525.5</ele><time>2026-04-18T08:04:12.999Z</time></trkpt><trkpt lat="44.43431395794528" lon="10.229750717144668"><ele>530.0</ele><time>2026-04-18T08:04:13.999Z</time></trkpt><trkpt lat="44.434227300676326" lon="10.229454493045463"><ele>530.0</ele><time>2026-04-18T08:04:14.999Z</time></trkpt><trkpt lat="44.4341532293379" lon="10.229190810909577"><ele>530.0</ele><time>2026-04-18T08:04:15.999Z</time></trkpt><trkpt lat="44.43408148358788" lon="10.228932577662544"><ele>530.0</ele><time>2026-04-18T08:04:16.999Z</time></trkpt><trkpt lat="44.43404023459977" lon="10.228652732097823"><ele>531.3333333333333</ele><time>2026-04-18T08:04:17.999Z</time></trkpt><trkpt lat="44.434012179259426" lon="10.228362517771782"><ele>532.6666666666666</ele><time>2026-04-18T08:04:18.999Z</time></trkpt><trkpt lat="44.43397691889028" lon="10.228082297826807"><ele>534.0</ele><time>2026-04-18T08:04:19.999Z</time></trkpt><trkpt lat="44.43393446593271" lon="10.227830079552216"><ele>536.5</ele><time>2026-04-18T08:04:20.999Z</time></trkpt><trkpt lat="44.433830344239006" lon="10.2275540316457"><ele>539.0</ele><time>2026-04-18T08:04:21.999Z</time></trkpt><trkpt lat="44.43371633383275" lon="10.227250517072484"><ele>541.5</ele><time>2026-04-18T08:04:22.999Z</time></trkpt><trkpt lat="44.43361067641325" lon="10.22694315715541"><ele>544.0</ele><time>2026-04-18T08:04:23.999Z</time></trkpt><trkpt lat="44.43350956214283" lon="10.2266547247329"><ele>546.25</ele><time>2026-04-18T08:04:24.999Z</time></trkpt><trkpt lat="44.43344816646818" lon="10.22642986716002"><ele>548.5</ele><time>2026-04-18T08:04:26Z</time></trkpt><trkpt lat="44.43343994377336" lon="10.226282703215784"><ele>550.75</ele><time>2026-04-18T08:04:27Z</time></trkpt><trkpt lat="44.43346778859841" lon="10.226160203238301"><ele>553.0</ele><time>2026-04-18T08:04:28Z</time></trkpt><trkpt lat="44.43354680974888" lon="10.226081482047126"><ele>553.0</ele><time>2026-04-18T08:04:29Z</time></trkpt><trkpt lat="44.43364639535766" lon="10.226037803304616"><ele>553.0</ele><time>2026-04-18T08:04:30Z</time></trkpt><trkpt lat="44.433764227713716" lon="10.226093460515296"><ele>553.0</ele><time>2026-04-18T08:04:31Z</time></trkpt><trkpt lat="44.43395153811054" lon="10.226149764295519"><ele>553.0</ele><time>2026-04-18T08:04:32Z</time></trkpt><trkpt lat="44.434162960726326" lon="10.22620224557703"><ele>553.3333333333334</ele><time>2026-04-18T08:04:33Z</time></trkpt><trkpt lat="44.43436650542663" lon="10.226278124139947"><ele>553.6666666666666</ele><time>2026-04-18T08:04:34Z</time></trkpt><trkpt lat="44.434541662088314" lon="10.226329645090479"><ele>554.0</ele><time>2026-04-18T08:04:35Z</time></trkpt><trkpt lat="44.434677638145814" lon="10.22632634731229"><ele>555.25</ele><time>2026-04-18T08:04:36Z</time></trkpt><trkpt lat="44.43479260287657" lon="10.226236220762269"><ele>556.5</ele><time>2026-04-18T08:04:37Z</time></trkpt><trkpt lat="44.434877384009845" lon="10.226067234158362"><ele>557.75</ele><time>2026-04-18T08:04:38Z</time></trkpt><trkpt lat="44.43486869975333" lon="10.225866359668954"><ele>559.0</ele><time>2026-04-18T08:04:39Z</time></trkpt><trkpt lat="44.434828877831535" lon="10.225626950153538"><ele>560.5</ele><time>2026-04-18T08:04:40Z</time></trkpt><trkpt lat="44.43477324036372" lon="10.22532442747919"><ele>562.0</ele><time>2026-04-18T08:04:41Z</time></trkpt><trkpt lat="44.43468869492927" lon="10.225022692934516"><ele>566.6666666666667</ele><time>2026-04-18T08:04:42Z</time></trkpt><trkpt lat="44.43461238959511" lon="10.224716861099713"><ele>571.3333333333334</ele><time>2026-04-18T08:04:43Z</time></trkpt><trkpt lat="44.434568052905874" lon="10.224457540999413"><ele>576.0</ele><time>2026-04-18T08:04:44Z</time></trkpt><trkpt lat="44.43461004668339" lon="10.224243391599602"><ele>576.6666666666666</ele><time>2026-04-18T08:04:45Z</time></trkpt><trkpt lat="44.434693279865435" lon="10.22406108909956"><ele>577.3333333333333</ele><time>2026-04-18T08:04:46Z</time></trkpt><trkpt lat="44.43482330720607" lon="10.223837825557338"><ele>578.0</ele><time>2026-04-18T08:04:47Z</time></trkpt><trkpt lat="44.43496271737648" lon="10.223589247130654"><ele>578.0</ele><time>2026-04-18T08:04:48Z</time></trkpt><trkpt lat="44.435049163972884" lon="10.223333693507527"><ele>578.0</ele><time>2026-04-18T08:04:49Z</time></trkpt><trkpt lat="44.43509907273372" lon="10.223080056898581"><ele>578.0</ele><time>2026-04-18T08:04:50Z</time></trkpt><trkpt lat="44.435164547714194" lon="10.222868356963335"><ele>579.3333333333333</ele><time>2026-04-18T08:04:51Z</time></trkpt><trkpt lat="44.43529810696427" lon="10.222745091109825"><ele>580.6666666666666</ele><time>2026-04-18T08:04:52Z</time></trkpt><trkpt lat="44.43544535347857" lon="10.222555952931675"><ele>582.0</ele><time>2026-04-18T08:04:53Z</time></trkpt><trkpt lat="44.43557962075871" lon="10.222339776259773"><ele>587.6666666666666</ele><time>2026-04-18T08:04:54Z</time></trkpt><trkpt lat="44.43570774228733" lon="10.222099582065942"><ele>593.3333333333333</ele><time>2026-04-18T08:04:55Z</time></trkpt><trkpt lat="44.43585940024164" lon="10.221915813420322"><ele>599.0</ele><time>2026-04-18T08:04:56Z</time></trkpt><trkpt lat="44.43600747156717" lon="10.221769543107513"><ele>599.0</ele><time>2026-04-18T08:04:57Z</time></trkpt><trkpt lat="44.43617507254166" lon="10.221716793018278"><ele>599.0</ele><time>2026-04-18T08:04:58Z</time></trkpt><trkpt lat="44.43638781395732" lon="10.22167534265981"><ele>599.0</ele><time>2026-04-18T08:04:59Z</time></trkpt><trkpt lat="44.43661508106751" lon="10.221645112681555"><ele>599.6666666666666</ele><time>2026-04-18T08:05:00Z</time></trkpt><trkpt lat="44.4368301219941" lon="10.221588267288451"><ele>600.3333333333334</ele><time>2026-04-18T08:05:01Z</time></trkpt><trkpt lat="44.437018259124685" lon="10.221514206059444"><ele>601.0</ele><time>2026-04-18T08:05:02Z</time></trkpt><trkpt lat="44.43718411312762" lon="10.221379195845527"><ele>601.0</ele><time>2026-04-18T08:05:03Z</time></trkpt><trkpt lat="44.43731400970654" lon="10.22121540652262"><ele>601.0</ele><time>2026-04-18T08:05:04Z</time></trkpt><trkpt lat="44.437404843903565" lon="10.221024743221093"><ele>601.0</ele><time>2026-04-18T08:05:05Z</time></trkpt><trkpt lat="44.43745146928233" lon="10.220761261290798"><ele>605.0</ele><time>2026-04-18T08:05:06Z</time></trkpt><trkpt lat="44.43748233286318" lon="10.220482700233719"><ele>609.0</ele><time>2026-04-18T08:05:07Z</time></trkpt><trkpt lat="44.43749707455873" lon="10.220232660288582"><ele>613.0</ele><time>2026-04-18T08:05:08Z</time></trkpt><trkpt lat="44.43752479656662" lon="10.220062247114331"><ele>613.0</ele><time>2026-04-18T08:05:09Z</time></trkpt><trkpt lat="44.437643145575244" lon="10.219993689454846"><ele>613.0</ele><time>2026-04-18T08:05:10Z</time></trkpt><trkpt lat="44.43779270230279" lon="10.220000199712178"><ele>613.0</ele><time>2026-04-18T08:05:11Z</time></trkpt><trkpt lat="44.4380037187326" lon="10.219983665294022"><ele>611.6666666666667</ele><time>2026-04-18T08:05:12Z</time></trkpt><trkpt lat="44.43823751738947" lon="10.219970060378289"><ele>610.3333333333334</ele><time>2026-04-18T08:05:13Z</time></trkpt><trkpt lat="44.43842610989593" lon="10.21994645119025"><ele>609.0</ele><time>2026-04-18T08:05:14Z</time></trkpt><trkpt lat="44.438538443284834" lon="10.219935645776891"><ele>609.0</ele><time>2026-04-18T08:05:15Z</time></trkpt><trkpt lat="44.43859010976913" lon="10.21988263448424"><ele>609.0</ele><time>2026-04-18T08:05:16Z</time></trkpt><trkpt lat="44.43861081124894" lon="10.219766569527492"><ele>609.0</ele><time>2026-04-18T08:05:17Z</time></trkpt><trkpt lat="44.438567608569336" lon="10.219625387561242"><ele>609.0</ele><time>2026-04-18T08:05:18Z</time></trkpt><trkpt lat="44.43845665152818" lon="10.219520479324151"><ele>609.0</ele><time>2026-04-18T08:05:19Z</time></trkpt><trkpt lat="44.43827280241727" lon="10.219479602568754"><ele>612.6666666666666</ele><time>2026-04-18T08:05:20Z</time></trkpt><trkpt lat="44.438062108975664" lon="10.219449823778193"><ele>616.3333333333333</ele><time>2026-04-18T08:05:21Z</time></trkpt><trkpt lat="44.43783623702488" lon="10.219384489272958"><ele>620.0</ele><time>2026-04-18T08:05:22Z</time></trkpt><trkpt lat="44.437616655788965" lon="10.219276275549495"><ele>620.3333333333333</ele><time>2026-04-18T08:05:23Z</time></trkpt><trkpt lat="44.437444999775806" lon="10.219182853299293"><ele>620.6666666666666</ele><time>2026-04-18T08:05:24Z</time></trkpt><trkpt lat="44.437347122325036" lon="10.219046752478818"><ele>621.0</ele><time>2026-04-18T08:05:25Z</time></trkpt><trkpt lat="44.43730913412425" lon="10.218858685021235"><ele>621.0</ele><time>2026-04-18T08:05:26Z</time></trkpt><trkpt lat="44.43728445279381" lon="10.218578857379795"><ele>621.0</ele><time>2026-04-18T08:05:27Z</time></trkpt><trkpt lat="44.43724668340434" lon="10.21826741797559"><ele>621.0</ele><time>2026-04-18T08:05:28Z</time></trkpt><trkpt lat="44.437182870044175" lon="10.218019501183921"><ele>621.6666666666666</ele><time>2026-04-18T08:05:29Z</time></trkpt><trkpt lat="44.437107394928745" lon="10.217820175716675"><ele>622.3333333333333</ele><time>2026-04-18T08:05:30Z</time></trkpt><trkpt lat="44.43694927207573" lon="10.217637221141368"><ele>623.0</ele><time>2026-04-18T08:05:31Z</time></trkpt><trkpt lat="44.43674362677201" lon="10.217482997910336"><ele>623.0</ele><time>2026-04-18T08:05:32Z</time></trkpt><trkpt lat="44.436527426810706" lon="10.217324379149016"><ele>623.0</ele><time>2026-04-18T08:05:33Z</time></trkpt><trkpt lat="44.436322967316805" lon="10.217148319298968"><ele>625.3333333333333</ele><time>2026-04-18T08:05:34Z</time></trkpt><trkpt lat="44.43613738779093" lon="10.216982998317127"><ele>627.6666666666666</ele><time>2026-04-18T08:05:35Z</time></trkpt><trkpt lat="44.43598542087475" lon="10.216837426637516"><ele>630.0</ele><time>2026-04-18T08:05:36Z</time></trkpt><trkpt lat="44.43589341547514" lon="10.216643781780732"><ele>629.3333333333334</ele><time>2026-04-18T08:05:36.999Z</time></trkpt><trkpt lat="44.435882029846404" lon="10.216422045955461"><ele>628.6666666666667</ele><time>2026-04-18T08:05:37.999Z</time></trkpt><trkpt lat="44.43589559836294" lon="10.216152504108829"><ele>628.0</ele><time>2026-04-18T08:05:38.999Z</time></trkpt><trkpt lat="44.43593165607309" lon="10.215844552995325"><ele>628.5</ele><time>2026-04-18T08:05:39.999Z</time></trkpt><trkpt lat="44.43595873562052" lon="10.215531477548264"><ele>629.0</ele><time>2026-04-18T08:05:40.999Z</time></trkpt><trkpt lat="44.43594647395597" lon="10.215216959196262"><ele>629.0</ele><time>2026-04-18T08:05:41.999Z</time></trkpt><trkpt lat="44.435925328577355" lon="10.214897451560612"><ele>629.0</ele><time>2026-04-18T08:05:42.999Z</time></trkpt><trkpt lat="44.435959609605746" lon="10.214629661393431"><ele>629.0</ele><time>2026-04-18T08:05:43.999Z</time></trkpt><trkpt lat="44.43601549364402" lon="10.214392135637437"><ele>629.0</ele><time>2026-04-18T08:05:44.999Z</time></trkpt><trkpt lat="44.43611218183042" lon="10.214159635683627"><ele>629.0</ele><time>2026-04-18T08:05:45.999Z</time></trkpt><trkpt lat="44.43623545638545" lon="10.213907207563233"><ele>629.0</ele><time>2026-04-18T08:05:46.999Z</time></trkpt><trkpt lat="44.43636438252056" lon="10.213642614941776"><ele>629.0</ele><time>2026-04-18T08:05:47.999Z</time></trkpt><trkpt lat="44.436496779767204" lon="10.213368720728178"><ele>629.0</ele><time>2026-04-18T08:05:48.999Z</time></trkpt><trkpt lat="44.43663938993169" lon="10.213086193394718"><ele>634.5</ele><time>2026-04-18T08:05:49.999Z</time></trkpt><trkpt lat="44.43679351706149" lon="10.21282252067534"><ele>640.0</ele><time>2026-04-18T08:05:50.999Z</time></trkpt><trkpt lat="44.4369377995945" lon="10.212591712315472"><ele>640.0</ele><time>2026-04-18T08:05:51.999Z</time></trkpt><trkpt lat="44.43706278663832" lon="10.212374844968737"><ele>640.0</ele><time>2026-04-18T08:05:52.999Z</time></trkpt><trkpt lat="44.43718952007544" lon="10.212155521206752"><ele>640.0</ele><time>2026-04-18T08:05:53.999Z</time></trkpt><trkpt lat="44.43730546814329" lon="10.211893006961745"><ele>639.5</ele><time>2026-04-18T08:05:54.999Z</time></trkpt><trkpt lat="44.43740340832992" lon="10.211580484401031"><ele>639.0</ele><time>2026-04-18T08:05:55.999Z</time></trkpt><trkpt lat="44.43749632793266" lon="10.21125515214201"><ele>639.0</ele><time>2026-04-18T08:05:56.999Z</time></trkpt><trkpt lat="44.4375906652485" lon="10.210948918573298"><ele>639.0</ele><time>2026-04-18T08:05:57.999Z</time></trkpt><trkpt lat="44.43766287233841" lon="10.210679125546555"><ele>639.0</ele><time>2026-04-18T08:05:58.999Z</time></trkpt><trkpt lat="44.43770092022214" lon="10.210376127967535"><ele>641.5</ele><time>2026-04-18T08:05:59.999Z</time></trkpt><trkpt lat="44.43769941204969" lon="10.210028747469991"><ele>644.0</ele><time>2026-04-18T08:06:00.999Z</time></trkpt><trkpt lat="44.437694828752086" lon="10.20965765997198"><ele>646.0</ele><time>2026-04-18T08:06:01.999Z</time></trkpt><trkpt lat="44.43770928226606" lon="10.20927340171392"><ele>648.0</ele><time>2026-04-18T08:06:02.999Z</time></trkpt><trkpt lat="44.43772850741926" lon="10.208885635408908"><ele>649.0</ele><time>2026-04-18T08:06:03.999Z</time></trkpt><trkpt lat="44.43775214274361" lon="10.208547575341054"><ele>650.0</ele><time>2026-04-18T08:06:04.999Z</time></trkpt><trkpt lat="44.437832826001184" lon="10.20832001113002"><ele>651.0</ele><time>2026-04-18T08:06:05.999Z</time></trkpt><trkpt lat="44.43796064600716" lon="10.208145333365879"><ele>649.0</ele><time>2026-04-18T08:06:06.999Z</time></trkpt><trkpt lat="44.43813419515815" lon="10.207937788873448"><ele>647.0</ele><time>2026-04-18T08:06:07.999Z</time></trkpt><trkpt lat="44.43832109643279" lon="10.207718275956683"><ele>647.0</ele><time>2026-04-18T08:06:08.999Z</time></trkpt><trkpt lat="44.43847075488409" lon="10.207542504742259"><ele>647.0</ele><time>2026-04-18T08:06:09.999Z</time></trkpt><trkpt lat="44.438589857461075" lon="10.207402620861712"><ele>647.0</ele><time>2026-04-18T08:06:10.999Z</time></trkpt><trkpt lat="44.43861919873343" lon="10.207177013288174"><ele>647.0</ele><time>2026-04-18T08:06:11.999Z</time></trkpt><trkpt lat="44.438630030555096" lon="10.206913137385351"><ele>647.0</ele><time>2026-04-18T08:06:12.999Z</time></trkpt><trkpt lat="44.43861621084202" lon="10.206589985303337"><ele>647.0</ele><time>2026-04-18T08:06:13.999Z</time></trkpt><trkpt lat="44.43864672293025" lon="10.206227394078171"><ele>646.5</ele><time>2026-04-18T08:06:14.999Z</time></trkpt><trkpt lat="44.43870522394247" lon="10.205858597771556"><ele>646.0</ele><time>2026-04-18T08:06:15.999Z</time></trkpt><trkpt lat="44.43874552230796" lon="10.205439436585424"><ele>645.5</ele><time>2026-04-18T08:06:16.999Z</time></trkpt><trkpt lat="44.43877662013279" lon="10.205007540898825"><ele>645.0</ele><time>2026-04-18T08:06:17.999Z</time></trkpt><trkpt lat="44.4388175105558" lon="10.204645036571542"><ele>645.0</ele><time>2026-04-18T08:06:18.999Z</time></trkpt><trkpt lat="44.43886176598712" lon="10.204331949189033"><ele>645.0</ele><time>2026-04-18T08:06:19.999Z</time></trkpt><trkpt lat="44.438881314945114" lon="10.204052411493736"><ele>645.0</ele><time>2026-04-18T08:06:20.999Z</time></trkpt><trkpt lat="44.438854475648434" lon="10.203793392194216"><ele>649.0</ele><time>2026-04-18T08:06:21.999Z</time></trkpt><trkpt lat="44.43871252475612" lon="10.203533653719829"><ele>653.0</ele><time>2026-04-18T08:06:22.999Z</time></trkpt><trkpt lat="44.43857308207553" lon="10.203225547221882"><ele>651.6666666666666</ele><time>2026-04-18T08:06:23.999Z</time></trkpt><trkpt lat="44.43846311416944" lon="10.202914622521472"><ele>650.3333333333334</ele><time>2026-04-18T08:06:24.999Z</time></trkpt><trkpt lat="44.438408980733946" lon="10.202646604439408"><ele>649.0</ele><time>2026-04-18T08:06:25.999Z</time></trkpt><trkpt lat="44.43839451633729" lon="10.202374934364942"><ele>647.3333333333334</ele><time>2026-04-18T08:06:26.999Z</time></trkpt><trkpt lat="44.43838523822924" lon="10.202114506427955"><ele>645.6666666666666</ele><time>2026-04-18T08:06:27.999Z</time></trkpt><trkpt lat="44.43831438040452" lon="10.20187502778133"><ele>644.0</ele><time>2026-04-18T08:06:28.999Z</time></trkpt><trkpt lat="44.43820512832446" lon="10.20165012973994"><ele>645.6666666666666</ele><time>2026-04-18T08:06:29.999Z</time></trkpt><trkpt lat="44.43806166595779" lon="10.201465734456992"><ele>647.3333333333334</ele><time>2026-04-18T08:06:30.999Z</time></trkpt><trkpt lat="44.43790849974466" lon="10.201309338095994"><ele>649.0</ele><time>2026-04-18T08:06:32Z</time></trkpt><trkpt lat="44.43775936921656" lon="10.201148888955608"><ele>649.0</ele><time>2026-04-18T08:06:33Z</time></trkpt><trkpt lat="44.437619732011896" lon="10.20100583312542"><ele>649.0</ele><time>2026-04-18T08:06:34Z</time></trkpt><trkpt lat="44.437503275966954" lon="10.200879698108785"><ele>649.0</ele><time>2026-04-18T08:06:35Z</time></trkpt><trkpt lat="44.437387725031016" lon="10.200767323785662"><ele>649.0</ele><time>2026-04-18T08:06:36Z</time></trkpt><trkpt lat="44.437280331830806" lon="10.200667842553889"><ele>649.0</ele><time>2026-04-18T08:06:37Z</time></trkpt><trkpt lat="44.43718214100624" lon="10.200547217383013"><ele>649.0</ele><time>2026-04-18T08:06:38Z</time></trkpt><trkpt lat="44.437074674090056" lon="10.200381371645147"><ele>649.0</ele><time>2026-04-18T08:06:39Z</time></trkpt><trkpt lat="44.43696916700621" lon="10.200162054074964"><ele>648.6666666666667</ele><time>2026-04-18T08:06:40Z</time></trkpt><trkpt lat="44.43690055578575" lon="10.199950915924692"><ele>648.3333333333334</ele><time>2026-04-18T08:06:41Z</time></trkpt><trkpt lat="44.43683545512173" lon="10.199771679672528"><ele>648.0</ele><time>2026-04-18T08:06:42Z</time></trkpt><trkpt lat="44.43664994004392" lon="10.199441589423168"><ele>648.0</ele><time>2026-04-18T08:06:43Z</time></trkpt><trkpt lat="44.43650016424095" lon="10.199217820692933"><ele>648.0</ele><time>2026-04-18T08:06:44Z</time></trkpt><trkpt lat="44.43634444176817" lon="10.199043426537179"><ele>648.0</ele><time>2026-04-18T08:06:45Z</time></trkpt><trkpt lat="44.436202858526556" lon="10.198889583177419"><ele>652.0</ele><time>2026-04-18T08:06:46Z</time></trkpt><trkpt lat="44.43610156735307" lon="10.198726846505396"><ele>656.0</ele><time>2026-04-18T08:06:47Z</time></trkpt><trkpt lat="44.43605036599504" lon="10.19853750787205"><ele>660.0</ele><time>2026-04-18T08:06:48Z</time></trkpt><trkpt lat="44.43607389808021" lon="10.198319507087547"><ele>662.0</ele><time>2026-04-18T08:06:49Z</time></trkpt><trkpt lat="44.43616753050944" lon="10.198112210870354"><ele>664.0</ele><time>2026-04-18T08:06:50Z</time></trkpt><trkpt lat="44.43631136218317" lon="10.197942705539697"><ele>666.0</ele><time>2026-04-18T08:06:51Z</time></trkpt><trkpt lat="44.43645222443368" lon="10.197775588905387"><ele>662.0</ele><time>2026-04-18T08:06:52Z</time></trkpt><trkpt lat="44.43657014748834" lon="10.197598989665426"><ele>658.0</ele><time>2026-04-18T08:06:53Z</time></trkpt><trkpt lat="44.436679843127315" lon="10.197417670450282"><ele>654.0</ele><time>2026-04-18T08:06:54Z</time></trkpt><trkpt lat="44.43679346700776" lon="10.197233437260342"><ele>654.0</ele><time>2026-04-18T08:06:55Z</time></trkpt><trkpt lat="44.43690922786874" lon="10.197057507786552"><ele>654.0</ele><time>2026-04-18T08:06:56Z</time></trkpt><trkpt lat="44.43702202383266" lon="10.19687741933698"><ele>654.0</ele><time>2026-04-18T08:06:57Z</time></trkpt><trkpt lat="44.43713454240736" lon="10.196706812823434"><ele>651.3333333333334</ele><time>2026-04-18T08:06:58Z</time></trkpt><trkpt lat="44.43723507626577" lon="10.19653667682998"><ele>648.6666666666667</ele><time>2026-04-18T08:06:59Z</time></trkpt><trkpt lat="44.43730993374658" lon="10.196329057417936"><ele>646.0</ele><time>2026-04-18T08:07:00Z</time></trkpt><trkpt lat="44.43735247721846" lon="10.196079782211703"><ele>646.0</ele><time>2026-04-18T08:07:01Z</time></trkpt><trkpt lat="44.4373652212905" lon="10.19581005747267"><ele>646.0</ele><time>2026-04-18T08:07:02Z</time></trkpt><trkpt lat="44.43736118578266" lon="10.195540583454301"><ele>646.0</ele><time>2026-04-18T08:07:03Z</time></trkpt><trkpt lat="44.437356081777345" lon="10.195273353569295"><ele>646.6666666666667</ele><time>2026-04-18T08:07:04Z</time></trkpt><trkpt lat="44.43735261310614" lon="10.195019839958585"><ele>647.3333333333334</ele><time>2026-04-18T08:07:05Z</time></trkpt><trkpt lat="44.43735789246607" lon="10.19479390649751"><ele>648.0</ele><time>2026-04-18T08:07:06Z</time></trkpt><trkpt lat="44.43736260000661" lon="10.194582949139544"><ele>648.25</ele><time>2026-04-18T08:07:07Z</time></trkpt><trkpt lat="44.43736738477891" lon="10.194389620762047"><ele>648.5</ele><time>2026-04-18T08:07:08Z</time></trkpt><trkpt lat="44.4373756157043" lon="10.194212091871911"><ele>648.75</ele><time>2026-04-18T08:07:09Z</time></trkpt><trkpt lat="44.43738084246744" lon="10.194038020124019"><ele>649.0</ele><time>2026-04-18T08:07:10Z</time></trkpt><trkpt lat="44.437379901641734" lon="10.193874796348886"><ele>649.8000000000001</ele><time>2026-04-18T08:07:11Z</time></trkpt><trkpt lat="44.43740619378763" lon="10.193704422225634"><ele>650.6</ele><time>2026-04-18T08:07:12Z</time></trkpt><trkpt lat="44.43744029613832" lon="10.193566361070854"><ele>651.4</ele><time>2026-04-18T08:07:13Z</time></trkpt><trkpt lat="44.43747759081744" lon="10.193435526217609"><ele>652.2</ele><time>2026-04-18T08:07:14Z</time></trkpt><trkpt lat="44.43752407393588" lon="10.193299371608747"><ele>653.0</ele><time>2026-04-18T08:07:15Z</time></trkpt><trkpt lat="44.43757743095808" lon="10.193138951272758"><ele>654.3333333333333</ele><time>2026-04-18T08:07:16Z</time></trkpt><trkpt lat="44.437641085415116" lon="10.192958781380028"><ele>655.6666666666666</ele><time>2026-04-18T08:07:17Z</time></trkpt><trkpt lat="44.43770975346168" lon="10.192767458284159"><ele>657.0</ele><time>2026-04-18T08:07:18Z</time></trkpt><trkpt lat="44.43778073899564" lon="10.192567792680247"><ele>657.0</ele><time>2026-04-18T08:07:19Z</time></trkpt><trkpt lat="44.437848214509316" lon="10.19238324827762"><ele>657.0</ele><time>2026-04-18T08:07:20Z</time></trkpt><trkpt lat="44.43792360619605" lon="10.192158302798767"><ele>657.0</ele><time>2026-04-18T08:07:21Z</time></trkpt><trkpt lat="44.4379829113853" lon="10.19193613610062"><ele>656.6666666666666</ele><time>2026-04-18T08:07:22Z</time></trkpt><trkpt lat="44.43801394328711" lon="10.191716347292697"><ele>656.3333333333333</ele><time>2026-04-18T08:07:23Z</time></trkpt><trkpt lat="44.43800159151186" lon="10.191472622120253"><ele>656.0</ele><time>2026-04-18T08:07:24Z</time></trkpt><trkpt lat="44.437959776836564" lon="10.191223853141175"><ele>656.0</ele><time>2026-04-18T08:07:25Z</time></trkpt><trkpt lat="44.43788400625862" lon="10.190979513767894"><ele>656.0</ele><time>2026-04-18T08:07:26Z</time></trkpt><trkpt lat="44.4378029856572" lon="10.19072610958526"><ele>656.0</ele><time>2026-04-18T08:07:27Z</time></trkpt><trkpt lat="44.4377298357902" lon="10.19046812957644"><ele>654.6666666666666</ele><time>2026-04-18T08:07:28Z</time></trkpt><trkpt lat="44.43766049274148" lon="10.190199351383304"><ele>653.3333333333334</ele><time>2026-04-18T08:07:29Z</time></trkpt><trkpt lat="44.43759392914469" lon="10.189943170064062"><ele>652.0</ele><time>2026-04-18T08:07:30Z</time></trkpt><trkpt lat="44.43752789617314" lon="10.189717105943444"><ele>649.0</ele><time>2026-04-18T08:07:31Z</time></trkpt><trkpt lat="44.43747010938095" lon="10.18950095322478"><ele>646.0</ele><time>2026-04-18T08:07:32Z</time></trkpt><trkpt lat="44.437466686280665" lon="10.189272877386083"><ele>643.0</ele><time>2026-04-18T08:07:33Z</time></trkpt><trkpt lat="44.437498905772586" lon="10.189034302396381"><ele>643.5</ele><time>2026-04-18T08:07:34Z</time></trkpt><trkpt lat="44.437557424628565" lon="10.188735716171394"><ele>644.0</ele><time>2026-04-18T08:07:35Z</time></trkpt><trkpt lat="44.437651127087626" lon="10.18843082568676"><ele>642.0</ele><time>2026-04-18T08:07:36Z</time></trkpt><trkpt lat="44.43771801220624" lon="10.188149895723214"><ele>640.0</ele><time>2026-04-18T08:07:37Z</time></trkpt><trkpt lat="44.43777574297869" lon="10.187893478475944"><ele>638.0</ele><time>2026-04-18T08:07:38Z</time></trkpt><trkpt lat="44.43781920730813" lon="10.187680230684165"><ele>638.0</ele><time>2026-04-18T08:07:39Z</time></trkpt><trkpt lat="44.43781795956512" lon="10.187490542664554"><ele>638.0</ele><time>2026-04-18T08:07:40Z</time></trkpt><trkpt lat="44.43774648467297" lon="10.18729441301826"><ele>638.0</ele><time>2026-04-18T08:07:41Z</time></trkpt><trkpt lat="44.43760689120692" lon="10.187105838543905"><ele>638.0</ele><time>2026-04-18T08:07:42Z</time></trkpt><trkpt lat="44.4374128346936" lon="10.186949234039613"><ele>638.0</ele><time>2026-04-18T08:07:43Z</time></trkpt><trkpt lat="44.43721294969405" lon="10.18682624626472"><ele>638.0</ele><time>2026-04-18T08:07:44Z</time></trkpt><trkpt lat="44.43703497772543" lon="10.186658459785782"><ele>633.6666666666666</ele><time>2026-04-18T08:07:45Z</time></trkpt><trkpt lat="44.43690263137038" lon="10.186461175702053"><ele>629.3333333333334</ele><time>2026-04-18T08:07:45.999Z</time></trkpt><trkpt lat="44.43678723565505" lon="10.186321751729237"><ele>625.0</ele><time>2026-04-18T08:07:46.999Z</time></trkpt><trkpt lat="44.436679206029275" lon="10.186152508939703"><ele>625.0</ele><time>2026-04-18T08:07:47.999Z</time></trkpt><trkpt lat="44.43658662652479" lon="10.186008875514421"><ele>625.0</ele><time>2026-04-18T08:07:48.999Z</time></trkpt><trkpt lat="44.43651078527897" lon="10.185860043051923"><ele>625.0</ele><time>2026-04-18T08:07:49.999Z</time></trkpt><trkpt lat="44.43650748873793" lon="10.185678371083764"><ele>625.0</ele><time>2026-04-18T08:07:50.999Z</time></trkpt><trkpt lat="44.43652024691437" lon="10.185464495234402"><ele>624.0</ele><time>2026-04-18T08:07:51.999Z</time></trkpt><trkpt lat="44.43650274918602" lon="10.185181226730814"><ele>623.0</ele><time>2026-04-18T08:07:52.999Z</time></trkpt><trkpt lat="44.43646960360124" lon="10.184945552578268"><ele>622.0</ele><time>2026-04-18T08:07:53.999Z</time></trkpt><trkpt lat="44.43645601288193" lon="10.184735047785198"><ele>622.0</ele><time>2026-04-18T08:07:54.999Z</time></trkpt><trkpt lat="44.43652642351035" lon="10.184540211038026"><ele>622.0</ele><time>2026-04-18T08:07:55.999Z</time></trkpt><trkpt lat="44.43665176962458" lon="10.184373002119347"><ele>622.0</ele><time>2026-04-18T08:07:56.999Z</time></trkpt><trkpt lat="44.436803022056296" lon="10.184186735690995"><ele>622.0</ele><time>2026-04-18T08:07:57.999Z</time></trkpt><trkpt lat="44.43695294171361" lon="10.184032974630899"><ele>622.0</ele><time>2026-04-18T08:07:58.999Z</time></trkpt><trkpt lat="44.437136358876664" lon="10.183841512089467"><ele>622.0</ele><time>2026-04-18T08:07:59.999Z</time></trkpt><trkpt lat="44.43722143578751" lon="10.183498685633944"><ele>617.3333333333334</ele><time>2026-04-18T08:08:00.999Z</time></trkpt><trkpt lat="44.43733224855855" lon="10.183241767319222"><ele>612.6666666666666</ele><time>2026-04-18T08:08:01.999Z</time></trkpt><trkpt lat="44.43742176333971" lon="10.18298530423353"><ele>608.0</ele><time>2026-04-18T08:08:02.999Z</time></trkpt><trkpt lat="44.437464960550166" lon="10.182706363510851"><ele>607.3333333333333</ele><time>2026-04-18T08:08:03.999Z</time></trkpt><trkpt lat="44.43746741493633" lon="10.182446261858503"><ele>606.6666666666666</ele><time>2026-04-18T08:08:04.999Z</time></trkpt><trkpt lat="44.43741288897759" lon="10.18225956611066"><ele>606.0</ele><time>2026-04-18T08:08:05.999Z</time></trkpt><trkpt lat="44.437322472044855" lon="10.182107494437961"><ele>608.0</ele><time>2026-04-18T08:08:06.999Z</time></trkpt><trkpt lat="44.437164986646366" lon="10.181941411242397"><ele>610.0</ele><time>2026-04-18T08:08:07.999Z</time></trkpt><trkpt lat="44.436983343664714" lon="10.181751285088875"><ele>612.0</ele><time>2026-04-18T08:08:08.999Z</time></trkpt><trkpt lat="44.436815364912654" lon="10.181602309577608"><ele>609.3333333333334</ele><time>2026-04-18T08:08:09.999Z</time></trkpt><trkpt lat="44.4367112963729" lon="10.181390135539088"><ele>606.6666666666667</ele><time>2026-04-18T08:08:10.999Z</time></trkpt><trkpt lat="44.436617800298784" lon="10.181108787058115"><ele>604.0</ele><time>2026-04-18T08:08:11.999Z</time></trkpt><trkpt lat="44.43651895082993" lon="10.180826209221886"><ele>601.0</ele><time>2026-04-18T08:08:12.999Z</time></trkpt><trkpt lat="44.43641870473209" lon="10.18052443106803"><ele>598.0</ele><time>2026-04-18T08:08:13.999Z</time></trkpt><trkpt lat="44.4363554045855" lon="10.180233214705806"><ele>598.0</ele><time>2026-04-18T08:08:14.999Z</time></trkpt><trkpt lat="44.43630966991835" lon="10.17996747286062"><ele>598.0</ele><time>2026-04-18T08:08:15.999Z</time></trkpt><trkpt lat="44.43631148429296" lon="10.179676307363758"><ele>598.0</ele><time>2026-04-18T08:08:16.999Z</time></trkpt><trkpt lat="44.43627575405938" lon="10.179367697748479"><ele>598.3333333333334</ele><time>2026-04-18T08:08:17.999Z</time></trkpt><trkpt lat="44.43624710625897" lon="10.179088243282273"><ele>598.6666666666666</ele><time>2026-04-18T08:08:18.999Z</time></trkpt><trkpt lat="44.43616341265289" lon="10.178797494553878"><ele>599.0</ele><time>2026-04-18T08:08:19.999Z</time></trkpt><trkpt lat="44.436102370208054" lon="10.178526043724911"><ele>599.0</ele><time>2026-04-18T08:08:20.999Z</time></trkpt><trkpt lat="44.436047112619875" lon="10.178271287591286"><ele>599.0</ele><time>2026-04-18T08:08:21.999Z</time></trkpt><trkpt lat="44.43596514154375" lon="10.17803783938682"><ele>599.0</ele><time>2026-04-18T08:08:22.999Z</time></trkpt><trkpt lat="44.43586065917259" lon="10.177838056324822"><ele>595.0</ele><time>2026-04-18T08:08:23.999Z</time></trkpt><trkpt lat="44.43574628546542" lon="10.177663707480995"><ele>591.0</ele><time>2026-04-18T08:08:24.999Z</time></trkpt><trkpt lat="44.43563566186124" lon="10.17747988395228"><ele>587.0</ele><time>2026-04-18T08:08:25.999Z</time></trkpt><trkpt lat="44.435534863318225" lon="10.17729034666309"><ele>589.0</ele><time>2026-04-18T08:08:26.999Z</time></trkpt><trkpt lat="44.435441731838885" lon="10.177117271005358"><ele>591.0</ele><time>2026-04-18T08:08:27.999Z</time></trkpt><trkpt lat="44.43535036697509" lon="10.17695111064049"><ele>593.0</ele><time>2026-04-18T08:08:28.999Z</time></trkpt><trkpt lat="44.43526356842667" lon="10.176789368111809"><ele>595.0</ele><time>2026-04-18T08:08:29.999Z</time></trkpt><trkpt lat="44.43518186755681" lon="10.176629552695168"><ele>593.0</ele><time>2026-04-18T08:08:30.999Z</time></trkpt><trkpt lat="44.43512658248405" lon="10.176442432237755"><ele>591.0</ele><time>2026-04-18T08:08:31.999Z</time></trkpt><trkpt lat="44.43506184243102" lon="10.176274536200664"><ele>589.0</ele><time>2026-04-18T08:08:32.999Z</time></trkpt><trkpt lat="44.43500991891337" lon="10.17611427328432"><ele>587.0</ele><time>2026-04-18T08:08:33.999Z</time></trkpt><trkpt lat="44.43498208799104" lon="10.175949302018081"><ele>587.0</ele><time>2026-04-18T08:08:34.999Z</time></trkpt><trkpt lat="44.4349850924352" lon="10.175759130221214"><ele>587.0</ele><time>2026-04-18T08:08:35.999Z</time></trkpt><trkpt lat="44.434990605400806" lon="10.175555270501091"><ele>587.0</ele><time>2026-04-18T08:08:36.999Z</time></trkpt><trkpt lat="44.43499160639502" lon="10.175370076438503"><ele>587.0</ele><time>2026-04-18T08:08:38Z</time></trkpt><trkpt lat="44.434957765640874" lon="10.175197717379287"><ele>584.3333333333333</ele><time>2026-04-18T08:08:39Z</time></trkpt><trkpt lat="44.43488289910343" lon="10.174988326957564"><ele>581.6666666666666</ele><time>2026-04-18T08:08:40Z</time></trkpt><trkpt lat="44.43480622458606" lon="10.174707734598279"><ele>579.0</ele><time>2026-04-18T08:08:41Z</time></trkpt><trkpt lat="44.43471613547098" lon="10.17443779713928"><ele>579.0</ele><time>2026-04-18T08:08:42Z</time></trkpt><trkpt lat="44.43464926364279" lon="10.174171206088293"><ele>579.0</ele><time>2026-04-18T08:08:43Z</time></trkpt><trkpt lat="44.43458721089155" lon="10.173945530393695"><ele>579.0</ele><time>2026-04-18T08:08:44Z</time></trkpt><trkpt lat="44.43453488376959" lon="10.173759363832197"><ele>579.0</ele><time>2026-04-18T08:08:45Z</time></trkpt><trkpt lat="44.43448415415602" lon="10.173578908742815"><ele>579.0</ele><time>2026-04-18T08:08:46Z</time></trkpt><trkpt lat="44.43441577084888" lon="10.173409755100465"><ele>579.0</ele><time>2026-04-18T08:08:47Z</time></trkpt><trkpt lat="44.434310777389314" lon="10.173262937583363"><ele>579.0</ele><time>2026-04-18T08:08:48Z</time></trkpt><trkpt lat="44.43418084124009" lon="10.173119197079581"><ele>578.25</ele><time>2026-04-18T08:08:49Z</time></trkpt><trkpt lat="44.434069297270916" lon="10.17297105885772"><ele>577.5</ele><time>2026-04-18T08:08:50Z</time></trkpt><trkpt lat="44.43396613566309" lon="10.17282217480045"><ele>576.75</ele><time>2026-04-18T08:08:51Z</time></trkpt><trkpt lat="44.433869888995304" lon="10.17267926326735"><ele>576.0</ele><time>2026-04-18T08:08:52Z</time></trkpt><trkpt lat="44.43379810147405" lon="10.172516589804495"><ele>573.5</ele><time>2026-04-18T08:08:53Z</time></trkpt><trkpt lat="44.43377347863465" lon="10.172315764556755"><ele>571.0</ele><time>2026-04-18T08:08:54Z</time></trkpt><trkpt lat="44.433732801663105" lon="10.172114570633871"><ele>568.5</ele><time>2026-04-18T08:08:55Z</time></trkpt><trkpt lat="44.43370711935893" lon="10.171925137504958"><ele>566.0</ele><time>2026-04-18T08:08:56Z</time></trkpt><trkpt lat="44.433671108696636" lon="10.171730545888133"><ele>566.0</ele><time>2026-04-18T08:08:57Z</time></trkpt><trkpt lat="44.43363154027242" lon="10.17154158186703"><ele>566.0</ele><time>2026-04-18T08:08:58Z</time></trkpt><trkpt lat="44.43359358653001" lon="10.171351236396353"><ele>566.0</ele><time>2026-04-18T08:08:59Z</time></trkpt><trkpt lat="44.43356544305468" lon="10.171163927065141"><ele>566.0</ele><time>2026-04-18T08:09:00Z</time></trkpt><trkpt lat="44.433537790228975" lon="10.170980155147676"><ele>567.0</ele><time>2026-04-18T08:09:01Z</time></trkpt><trkpt lat="44.43350977544608" lon="10.17081068987437"><ele>568.0</ele><time>2026-04-18T08:09:02Z</time></trkpt><trkpt lat="44.43347449303639" lon="10.170660269409588"><ele>569.0</ele><time>2026-04-18T08:09:03Z</time></trkpt><trkpt lat="44.433418194677394" lon="10.170530878768602"><ele>570.0</ele><time>2026-04-18T08:09:04Z</time></trkpt><trkpt lat="44.43332822231719" lon="10.170422720490217"><ele>570.8</ele><time>2026-04-18T08:09:05Z</time></trkpt><trkpt lat="44.43323359651478" lon="10.170338258974782"><ele>571.6</ele><time>2026-04-18T08:09:06Z</time></trkpt><trkpt lat="44.43314928002912" lon="10.170263304554974"><ele>572.4</ele><time>2026-04-18T08:09:07Z</time></trkpt><trkpt lat="44.43306746893435" lon="10.17019002531796"><ele>573.2</ele><time>2026-04-18T08:09:08Z</time></trkpt><trkpt lat="44.432986767481125" lon="10.170103866425224"><ele>574.0</ele><time>2026-04-18T08:09:09Z</time></trkpt><trkpt lat="44.432920708854866" lon="10.16997683720636"><ele>577.25</ele><time>2026-04-18T08:09:10Z</time></trkpt><trkpt lat="44.432858633027166" lon="10.169825670555738"><ele>580.5</ele><time>2026-04-18T08:09:11Z</time></trkpt><trkpt lat="44.432810319337875" lon="10.169660324328968"><ele>583.75</ele><time>2026-04-18T08:09:12Z</time></trkpt><trkpt lat="44.432753654919075" lon="10.169513212079988"><ele>587.0</ele><time>2026-04-18T08:09:13Z</time></trkpt><trkpt lat="44.43265851306089" lon="10.169419392471617"><ele>587.0</ele><time>2026-04-18T08:09:14Z</time></trkpt><trkpt lat="44.432501781406295" lon="10.1694212366593"><ele>587.0</ele><time>2026-04-18T08:09:15Z</time></trkpt><trkpt lat="44.43235408596404" lon="10.169442921652513"><ele>587.0</ele><time>2026-04-18T08:09:16Z</time></trkpt><trkpt lat="44.432216155530654" lon="10.169435882341029"><ele>587.0</ele><time>2026-04-18T08:09:17Z</time></trkpt><trkpt lat="44.43210136263054" lon="10.169422895242814"><ele>586.25</ele><time>2026-04-18T08:09:18Z</time></trkpt><trkpt lat="44.431988607575306" lon="10.169411517340947"><ele>585.5</ele><time>2026-04-18T08:09:19Z</time></trkpt><trkpt lat="44.43187169411089" lon="10.16936491874211"><ele>584.75</ele><time>2026-04-18T08:09:20Z</time></trkpt><trkpt lat="44.43176219446009" lon="10.169266415386916"><ele>584.0</ele><time>2026-04-18T08:09:21Z</time></trkpt><trkpt lat="44.431663873835895" lon="10.169145796395684"><ele>588.0</ele><time>2026-04-18T08:09:22Z</time></trkpt><trkpt lat="44.43158234078962" lon="10.169008711056975"><ele>592.0</ele><time>2026-04-18T08:09:23Z</time></trkpt><trkpt lat="44.431510495324204" lon="10.1688498283331"><ele>596.0</ele><time>2026-04-18T08:09:24Z</time></trkpt><trkpt lat="44.43144823726223" lon="10.16867142519318"><ele>600.0</ele><time>2026-04-18T08:09:25Z</time></trkpt><trkpt lat="44.43139130603638" lon="10.16849163837985"><ele>600.0</ele><time>2026-04-18T08:09:26Z</time></trkpt><trkpt lat="44.431335420479584" lon="10.168292203296732"><ele>600.0</ele><time>2026-04-18T08:09:27Z</time></trkpt><trkpt lat="44.431275114913674" lon="10.168120750428814"><ele>600.0</ele><time>2026-04-18T08:09:28Z</time></trkpt><trkpt lat="44.43122163694517" lon="10.16794493334035"><ele>600.0</ele><time>2026-04-18T08:09:29Z</time></trkpt><trkpt lat="44.43120945201621" lon="10.167759191397936"><ele>600.6666666666666</ele><time>2026-04-18T08:09:30Z</time></trkpt><trkpt lat="44.431239302009594" lon="10.167552854200062"><ele>601.3333333333333</ele><time>2026-04-18T08:09:31Z</time></trkpt><trkpt lat="44.43129207328775" lon="10.167356171081787"><ele>602.0</ele><time>2026-04-18T08:09:32Z</time></trkpt><trkpt lat="44.431375062819875" lon="10.16712627900475"><ele>602.0</ele><time>2026-04-18T08:09:33Z</time></trkpt><trkpt lat="44.4314818815063" lon="10.16686438545178"><ele>602.0</ele><time>2026-04-18T08:09:34Z</time></trkpt><trkpt lat="44.43157416187747" lon="10.166627353719642"><ele>602.0</ele><time>2026-04-18T08:09:35Z</time></trkpt><trkpt lat="44.43165307139729" lon="10.16645025447287"><ele>603.0</ele><time>2026-04-18T08:09:36Z</time></trkpt><trkpt lat="44.43168418587044" lon="10.166271180958203"><ele>604.0</ele><time>2026-04-18T08:09:37Z</time></trkpt><trkpt lat="44.43168149220141" lon="10.166074073196073"><ele>605.0</ele><time>2026-04-18T08:09:38Z</time></trkpt><trkpt lat="44.43163768271454" lon="10.165887839488903"><ele>606.0</ele><time>2026-04-18T08:09:39Z</time></trkpt><trkpt lat="44.43152674285762" lon="10.165674523832394"><ele>615.0</ele><time>2026-04-18T08:09:40Z</time></trkpt><trkpt lat="44.43140562332566" lon="10.165416258507575"><ele>624.0</ele><time>2026-04-18T08:09:41Z</time></trkpt><trkpt lat="44.43133407921566" lon="10.165069870207216"><ele>616.5</ele><time>2026-04-18T08:09:42Z</time></trkpt><trkpt lat="44.43126176694247" lon="10.164697333306776"><ele>609.0</ele><time>2026-04-18T08:09:43Z</time></trkpt><trkpt lat="44.43123065734619" lon="10.164308427851243"><ele>613.0</ele><time>2026-04-18T08:09:44Z</time></trkpt><trkpt lat="44.43121204345054" lon="10.163959347810676"><ele>617.0</ele><time>2026-04-18T08:09:45Z</time></trkpt><trkpt lat="44.431182427985156" lon="10.163704777344352"><ele>621.0</ele><time>2026-04-18T08:09:46Z</time></trkpt><trkpt lat="44.43109437737109" lon="10.163471859017292"><ele>621.0</ele><time>2026-04-18T08:09:47Z</time></trkpt><trkpt lat="44.43097495044058" lon="10.163318555733762"><ele>621.0</ele><time>2026-04-18T08:09:48Z</time></trkpt><trkpt lat="44.430788270401706" lon="10.16313376642349"><ele>621.0</ele><time>2026-04-18T08:09:49Z</time></trkpt><trkpt lat="44.430682967950965" lon="10.162910059545457"><ele>619.0</ele><time>2026-04-18T08:09:50Z</time></trkpt><trkpt lat="44.43061599994131" lon="10.162585708705103"><ele>617.0</ele><time>2026-04-18T08:09:51Z</time></trkpt><trkpt lat="44.430546043365645" lon="10.16231175214166"><ele>615.0</ele><time>2026-04-18T08:09:51.999Z</time></trkpt><trkpt lat="44.430469995517846" lon="10.16196179061198"><ele>615.0</ele><time>2026-04-18T08:09:52.999Z</time></trkpt><trkpt lat="44.43036855512068" lon="10.161687169976707"><ele>615.0</ele><time>2026-04-18T08:09:53.999Z</time></trkpt><trkpt lat="44.43034695029568" lon="10.161434490912654"><ele>615.0</ele><time>2026-04-18T08:09:54.999Z</time></trkpt><trkpt lat="44.43037334084464" lon="10.16115873163451"><ele>620.0</ele><time>2026-04-18T08:09:55.999Z</time></trkpt><trkpt lat="44.43041702899658" lon="10.16083206938451"><ele>625.0</ele><time>2026-04-18T08:09:56.999Z</time></trkpt><trkpt lat="44.43047047736905" lon="10.160526433879323"><ele>628.3333333333334</ele><time>2026-04-18T08:09:57.999Z</time></trkpt><trkpt lat="44.430489893508394" lon="10.160285814232855"><ele>631.6666666666666</ele><time>2026-04-18T08:09:58.999Z</time></trkpt><trkpt lat="44.43047876004179" lon="10.160100385824133"><ele>635.0</ele><time>2026-04-18T08:09:59.999Z</time></trkpt><trkpt lat="44.43039196349299" lon="10.159926809957478"><ele>640.0</ele><time>2026-04-18T08:10:00.999Z</time></trkpt><trkpt lat="44.43024079427566" lon="10.159767063789193"><ele>645.0</ele><time>2026-04-18T08:10:01.999Z</time></trkpt><trkpt lat="44.43005698593717" lon="10.159691066186486"><ele>650.0</ele><time>2026-04-18T08:10:02.999Z</time></trkpt><trkpt lat="44.42988181624038" lon="10.159710489699997"><ele>650.0</ele><time>2026-04-18T08:10:03.999Z</time></trkpt><trkpt lat="44.42977983363556" lon="10.159691663767832"><ele>650.0</ele><time>2026-04-18T08:10:04.999Z</time></trkpt><trkpt lat="44.42970906670738" lon="10.159579979830637"><ele>650.0</ele><time>2026-04-18T08:10:05.999Z</time></trkpt><trkpt lat="44.42962710556359" lon="10.159419161789335"><ele>650.0</ele><time>2026-04-18T08:10:06.999Z</time></trkpt><trkpt lat="44.429688149898766" lon="10.159100151179201"><ele>649.8</ele><time>2026-04-18T08:10:07.999Z</time></trkpt><trkpt lat="44.429626364512934" lon="10.158998833089877"><ele>649.6</ele><time>2026-04-18T08:10:08.999Z</time></trkpt><trkpt lat="44.42959054834763" lon="10.15889119354078"><ele>649.4000000000001</ele><time>2026-04-18T08:10:09.999Z</time></trkpt><trkpt lat="44.42946000939516" lon="10.158779054883404"><ele>649.2</ele><time>2026-04-18T08:10:10.999Z</time></trkpt><trkpt lat="44.42935383110821" lon="10.158724351573069"><ele>649.0</ele><time>2026-04-18T08:10:11.999Z</time></trkpt><trkpt lat="44.429009703844606" lon="10.158537162984354"><ele>651.6666666666667</ele><time>2026-04-18T08:10:12.999Z</time></trkpt><trkpt lat="44.428801910301324" lon="10.158416170906305"><ele>654.3333333333334</ele><time>2026-04-18T08:10:13.999Z</time></trkpt><trkpt lat="44.428652252559814" lon="10.158201306195593"><ele>657.0</ele><time>2026-04-18T08:10:14.999Z</time></trkpt><trkpt lat="44.42850421872476" lon="10.157957066248386"><ele>657.0</ele><time>2026-04-18T08:10:15.999Z</time></trkpt><trkpt lat="44.42832476684198" lon="10.157722711358796"><ele>657.0</ele><time>2026-04-18T08:10:16.999Z</time></trkpt><trkpt lat="44.42820476697096" lon="10.157501303278096"><ele>657.0</ele><time>2026-04-18T08:10:17.999Z</time></trkpt><trkpt lat="44.428109591135126" lon="10.157265400761874"><ele>652.0</ele><time>2026-04-18T08:10:18.999Z</time></trkpt><trkpt lat="44.42799366349287" lon="10.156965516987448"><ele>647.0</ele><time>2026-04-18T08:10:19.999Z</time></trkpt><trkpt lat="44.42786427491036" lon="10.156673923562302"><ele>654.0</ele><time>2026-04-18T08:10:20.999Z</time></trkpt><trkpt lat="44.42773064115059" lon="10.156349299033508"><ele>661.0</ele><time>2026-04-18T08:10:21.999Z</time></trkpt><trkpt lat="44.42756549866642" lon="10.156031194077313"><ele>661.0</ele><time>2026-04-18T08:10:22.999Z</time></trkpt><trkpt lat="44.42736307749696" lon="10.155729126192591"><ele>661.0</ele><time>2026-04-18T08:10:23.999Z</time></trkpt><trkpt lat="44.42718186186831" lon="10.155459776164815"><ele>662.0</ele><time>2026-04-18T08:10:24.999Z</time></trkpt><trkpt lat="44.427004262636956" lon="10.155236466248413"><ele>663.0</ele><time>2026-04-18T08:10:25.999Z</time></trkpt><trkpt lat="44.426783274065876" lon="10.155040681799942"><ele>663.0</ele><time>2026-04-18T08:10:26.999Z</time></trkpt><trkpt lat="44.426538542275104" lon="10.154871788950635"><ele>663.0</ele><time>2026-04-18T08:10:27.999Z</time></trkpt><trkpt lat="44.42632619284624" lon="10.154728688884958"><ele>658.3333333333334</ele><time>2026-04-18T08:10:28.999Z</time></trkpt><trkpt lat="44.42618319757585" lon="10.15460265474997"><ele>653.6666666666667</ele><time>2026-04-18T08:10:29.999Z</time></trkpt><trkpt lat="44.42612782478304" lon="10.154433090003424"><ele>649.0</ele><time>2026-04-18T08:10:30.999Z</time></trkpt><trkpt lat="44.426054505933834" lon="10.154190710551719"><ele>659.0</ele><time>2026-04-18T08:10:31.999Z</time></trkpt><trkpt lat="44.425963029457805" lon="10.153898535221401"><ele>669.0</ele><time>2026-04-18T08:10:32.999Z</time></trkpt><trkpt lat="44.42590155447537" lon="10.153597742901296"><ele>669.0</ele><time>2026-04-18T08:10:33.999Z</time></trkpt><trkpt lat="44.425866487788774" lon="10.153326217738273"><ele>669.0</ele><time>2026-04-18T08:10:34.999Z</time></trkpt><trkpt lat="44.42582909336649" lon="10.153114904027733"><ele>669.0</ele><time>2026-04-18T08:10:35.999Z</time></trkpt><trkpt lat="44.42573163660043" lon="10.152954753314498"><ele>667.3333333333334</ele><time>2026-04-18T08:10:36.999Z</time></trkpt><trkpt lat="44.42555761009155" lon="10.152839606762063"><ele>665.6666666666667</ele><time>2026-04-18T08:10:37.999Z</time></trkpt><trkpt lat="44.42534464402147" lon="10.152772113845272"><ele>664.0</ele><time>2026-04-18T08:10:38.999Z</time></trkpt><trkpt lat="44.425152457989014" lon="10.152729730885168"><ele>664.0</ele><time>2026-04-18T08:10:39.999Z</time></trkpt><trkpt lat="44.42508837519921" lon="10.15265729151519"><ele>664.0</ele><time>2026-04-18T08:10:40.999Z</time></trkpt><trkpt lat="44.42502372323132" lon="10.152487034724377"><ele>664.0</ele><time>2026-04-18T08:10:41.999Z</time></trkpt><trkpt lat="44.4249952153233" lon="10.15224270669065"><ele>664.0</ele><time>2026-04-18T08:10:42.999Z</time></trkpt><trkpt lat="44.42496574180024" lon="10.151998925799735"><ele>669.0</ele><time>2026-04-18T08:10:44Z</time></trkpt><trkpt lat="44.424861192705606" lon="10.15181059898454"><ele>674.0</ele><time>2026-04-18T08:10:45Z</time></trkpt><trkpt lat="44.424722920795" lon="10.15158036425189"><ele>679.0</ele><time>2026-04-18T08:10:46Z</time></trkpt><trkpt lat="44.42454457160527" lon="10.15134424574852"><ele>679.0</ele><time>2026-04-18T08:10:47Z</time></trkpt><trkpt lat="44.424390552377936" lon="10.151078776063919"><ele>679.0</ele><time>2026-04-18T08:10:48Z</time></trkpt><trkpt lat="44.42425345707564" lon="10.150837632394897"><ele>681.6666666666667</ele><time>2026-04-18T08:10:49Z</time></trkpt><trkpt lat="44.424147896871986" lon="10.15062022435284"><ele>684.3333333333334</ele><time>2026-04-18T08:10:50Z</time></trkpt><trkpt lat="44.4240948097911" lon="10.150374810739507"><ele>687.0</ele><time>2026-04-18T08:10:51Z</time></trkpt><trkpt lat="44.424089302019375" lon="10.150095508338783"><ele>688.6666666666666</ele><time>2026-04-18T08:10:52Z</time></trkpt><trkpt lat="44.42414082424659" lon="10.149853799748577"><ele>690.3333333333333</ele><time>2026-04-18T08:10:53Z</time></trkpt><trkpt lat="44.424181530973236" lon="10.14952523165538"><ele>692.0</ele><time>2026-04-18T08:10:54Z</time></trkpt><trkpt lat="44.42422298719433" lon="10.149236250395475"><ele>690.6666666666666</ele><time>2026-04-18T08:10:55Z</time></trkpt><trkpt lat="44.42421373382842" lon="10.148967009759003"><ele>689.3333333333334</ele><time>2026-04-18T08:10:56Z</time></trkpt><trkpt lat="44.424251886379494" lon="10.148749471688753"><ele>688.0</ele><time>2026-04-18T08:10:57Z</time></trkpt><trkpt lat="44.42432130139562" lon="10.148620321315313"><ele>688.0</ele><time>2026-04-18T08:10:58Z</time></trkpt><trkpt lat="44.424450280033135" lon="10.1485213430405"><ele>688.0</ele><time>2026-04-18T08:10:59Z</time></trkpt><trkpt lat="44.42460774345709" lon="10.148455421119111"><ele>688.0</ele><time>2026-04-18T08:11:00Z</time></trkpt><trkpt lat="44.42478240673994" lon="10.148424127022338"><ele>689.0</ele><time>2026-04-18T08:11:01Z</time></trkpt><trkpt lat="44.42495239818984" lon="10.148355729068156"><ele>690.0</ele><time>2026-04-18T08:11:02Z</time></trkpt><trkpt lat="44.425116780148166" lon="10.148266955652053"><ele>691.0</ele><time>2026-04-18T08:11:03Z</time></trkpt><trkpt lat="44.425263190337176" lon="10.14811861211922"><ele>691.0</ele><time>2026-04-18T08:11:04Z</time></trkpt><trkpt lat="44.42535291671434" lon="10.147899630661462"><ele>691.0</ele><time>2026-04-18T08:11:05Z</time></trkpt><trkpt lat="44.42546662896305" lon="10.147601173889084"><ele>691.0</ele><time>2026-04-18T08:11:06Z</time></trkpt><trkpt lat="44.42550775983186" lon="10.147317444842509"><ele>692.3333333333334</ele><time>2026-04-18T08:11:07Z</time></trkpt><trkpt lat="44.425484978806644" lon="10.147062301329363"><ele>693.6666666666666</ele><time>2026-04-18T08:11:08Z</time></trkpt><trkpt lat="44.42541540371544" lon="10.146787717871145"><ele>695.0</ele><time>2026-04-18T08:11:09Z</time></trkpt><trkpt lat="44.42529746147209" lon="10.146542720983978"><ele>703.0</ele><time>2026-04-18T08:11:10Z</time></trkpt><trkpt lat="44.42511636625092" lon="10.146353758256742"><ele>711.0</ele><time>2026-04-18T08:11:11Z</time></trkpt><trkpt lat="44.424904989244865" lon="10.146213478449173"><ele>711.0</ele><time>2026-04-18T08:11:12Z</time></trkpt><trkpt lat="44.42468044259905" lon="10.146089633473688"><ele>711.0</ele><time>2026-04-18T08:11:13Z</time></trkpt><trkpt lat="44.42446988205733" lon="10.145956505025364"><ele>712.0</ele><time>2026-04-18T08:11:14Z</time></trkpt><trkpt lat="44.424281432252045" lon="10.145828927314522"><ele>713.0</ele><time>2026-04-18T08:11:15Z</time></trkpt><trkpt lat="44.42409661157309" lon="10.145722946331903"><ele>714.0</ele><time>2026-04-18T08:11:16Z</time></trkpt><trkpt lat="44.423874449195445" lon="10.145665365707526"><ele>713.6666666666666</ele><time>2026-04-18T08:11:17Z</time></trkpt><trkpt lat="44.423649777346306" lon="10.145630760225124"><ele>713.3333333333333</ele><time>2026-04-18T08:11:18Z</time></trkpt><trkpt lat="44.42344534164196" lon="10.14560232375802"><ele>713.0</ele><time>2026-04-18T08:11:19Z</time></trkpt><trkpt lat="44.42326703542469" lon="10.145556552565136"><ele>713.0</ele><time>2026-04-18T08:11:20Z</time></trkpt><trkpt lat="44.423115256152876" lon="10.145479588866296"><ele>713.0</ele><time>2026-04-18T08:11:21Z</time></trkpt><trkpt lat="44.42298251849909" lon="10.145322707819528"><ele>713.0</ele><time>2026-04-18T08:11:22Z</time></trkpt><trkpt lat="44.42281606222532" lon="10.145156723638156"><ele>710.6666666666666</ele><time>2026-04-18T08:11:23Z</time></trkpt><trkpt lat="44.42265062755566" lon="10.144968073109643"><ele>708.3333333333334</ele><time>2026-04-18T08:11:24Z</time></trkpt><trkpt lat="44.42249419262189" lon="10.144755093478423"><ele>706.0</ele><time>2026-04-18T08:11:25Z</time></trkpt><trkpt lat="44.422401005082584" lon="10.144522204000847"><ele>706.0</ele><time>2026-04-18T08:11:26Z</time></trkpt><trkpt lat="44.42234925552277" lon="10.144267371270148"><ele>706.0</ele><time>2026-04-18T08:11:27Z</time></trkpt><trkpt lat="44.4222813620381" lon="10.14398006438831"><ele>706.0</ele><time>2026-04-18T08:11:28Z</time></trkpt><trkpt lat="44.42222335880897" lon="10.14367812282975"><ele>711.6666666666667</ele><time>2026-04-18T08:11:29Z</time></trkpt><trkpt lat="44.42215511798022" lon="10.143406613943233"><ele>717.3333333333334</ele><time>2026-04-18T08:11:30Z</time></trkpt><trkpt lat="44.42216218182084" lon="10.14313080393571"><ele>723.0</ele><time>2026-04-18T08:11:31Z</time></trkpt><trkpt lat="44.422153309898796" lon="10.142829828229255"><ele>714.3333333333334</ele><time>2026-04-18T08:11:32Z</time></trkpt><trkpt lat="44.422133473838386" lon="10.14252347740817"><ele>705.6666666666667</ele><time>2026-04-18T08:11:33Z</time></trkpt><trkpt lat="44.42207975155725" lon="10.142216380907865"><ele>697.0</ele><time>2026-04-18T08:11:34Z</time></trkpt><trkpt lat="44.42199724328479" lon="10.141928058575125"><ele>697.0</ele><time>2026-04-18T08:11:35Z</time></trkpt><trkpt lat="44.4218618895667" lon="10.14165179367681"><ele>697.0</ele><time>2026-04-18T08:11:36Z</time></trkpt><trkpt lat="44.42171276318225" lon="10.14133781071048"><ele>698.3333333333334</ele><time>2026-04-18T08:11:37Z</time></trkpt><trkpt lat="44.4215941581296" lon="10.141041874536105"><ele>699.6666666666666</ele><time>2026-04-18T08:11:38Z</time></trkpt><trkpt lat="44.42150128630319" lon="10.140800774758581"><ele>701.0</ele><time>2026-04-18T08:11:39Z</time></trkpt><trkpt lat="44.42140630367782" lon="10.14058618290726"><ele>699.0</ele><time>2026-04-18T08:11:40Z</time></trkpt><trkpt lat="44.42121322971133" lon="10.140346512990687"><ele>697.0</ele><time>2026-04-18T08:11:41Z</time></trkpt><trkpt lat="44.420982887194896" lon="10.140158926902751"><ele>697.0</ele><time>2026-04-18T08:11:42Z</time></trkpt><trkpt lat="44.42075117789932" lon="10.14009868526274"><ele>697.0</ele><time>2026-04-18T08:11:43Z</time></trkpt><trkpt lat="44.42048187626623" lon="10.140039730846903"><ele>698.5</ele><time>2026-04-18T08:11:44Z</time></trkpt><trkpt lat="44.42023673668013" lon="10.139924199733436"><ele>700.0</ele><time>2026-04-18T08:11:45Z</time></trkpt><trkpt lat="44.420000061258584" lon="10.13975322607451"><ele>700.0</ele><time>2026-04-18T08:11:46Z</time></trkpt><trkpt lat="44.41975069258504" lon="10.13954009159927"><ele>700.0</ele><time>2026-04-18T08:11:47Z</time></trkpt><trkpt lat="44.4194904036154" lon="10.139311930622164"><ele>693.5</ele><time>2026-04-18T08:11:48Z</time></trkpt><trkpt lat="44.41922382864562" lon="10.139096627671913"><ele>687.0</ele><time>2026-04-18T08:11:49Z</time></trkpt><trkpt lat="44.41898624205657" lon="10.138879430059019"><ele>685.5</ele><time>2026-04-18T08:11:50Z</time></trkpt><trkpt lat="44.418774603653695" lon="10.13869019476494"><ele>684.0</ele><time>2026-04-18T08:11:51Z</time></trkpt><trkpt lat="44.418609181001436" lon="10.138483977341172"><ele>684.0</ele><time>2026-04-18T08:11:52Z</time></trkpt><trkpt lat="44.41843984959274" lon="10.138270375287872"><ele>684.0</ele><time>2026-04-18T08:11:53Z</time></trkpt><trkpt lat="44.41828758145425" lon="10.137950146124547"><ele>687.0</ele><time>2026-04-18T08:11:53.999Z</time></trkpt><trkpt lat="44.418137440290586" lon="10.137658638790986"><ele>690.0</ele><time>2026-04-18T08:11:54.999Z</time></trkpt><trkpt lat="44.41794495306726" lon="10.137373717285795"><ele>692.3333333333334</ele><time>2026-04-18T08:11:55.999Z</time></trkpt><trkpt lat="44.41781180966166" lon="10.137181607614076"><ele>694.6666666666667</ele><time>2026-04-18T08:11:56.999Z</time></trkpt><trkpt lat="44.41771494888222" lon="10.137062602897158"><ele>697.0</ele><time>2026-04-18T08:11:57.999Z</time></trkpt><trkpt lat="44.41754515063767" lon="10.13703661790543"><ele>697.0</ele><time>2026-04-18T08:11:58.999Z</time></trkpt><trkpt lat="44.417274369890144" lon="10.137022770637026"><ele>697.0</ele><time>2026-04-18T08:11:59.999Z</time></trkpt><trkpt lat="44.4170383875274" lon="10.137057473681272"><ele>695.5</ele><time>2026-04-18T08:12:00.999Z</time></trkpt><trkpt lat="44.41680403989986" lon="10.13707261502771"><ele>694.0</ele><time>2026-04-18T08:12:01.999Z</time></trkpt><trkpt lat="44.41657541992137" lon="10.137078879521454"><ele>694.0</ele><time>2026-04-18T08:12:02.999Z</time></trkpt><trkpt lat="44.416344064199016" lon="10.13708343339985"><ele>694.0</ele><time>2026-04-18T08:12:03.999Z</time></trkpt><trkpt lat="44.4161397355791" lon="10.13706650966728"><ele>694.0</ele><time>2026-04-18T08:12:04.999Z</time></trkpt><trkpt lat="44.41595023546816" lon="10.137013765170472"><ele>693.0</ele><time>2026-04-18T08:12:05.999Z</time></trkpt><trkpt lat="44.41575893350542" lon="10.136941634814063"><ele>692.0</ele><time>2026-04-18T08:12:06.999Z</time></trkpt><trkpt lat="44.415572304941904" lon="10.13684792654213"><ele>691.0</ele><time>2026-04-18T08:12:07.999Z</time></trkpt><trkpt lat="44.41540122584177" lon="10.136728605339208"><ele>689.3333333333334</ele><time>2026-04-18T08:12:08.999Z</time></trkpt><trkpt lat="44.4152307881456" lon="10.136605608580128"><ele>687.6666666666666</ele><time>2026-04-18T08:12:09.999Z</time></trkpt><trkpt lat="44.41506224493676" lon="10.136481746923499"><ele>686.0</ele><time>2026-04-18T08:12:10.999Z</time></trkpt><trkpt lat="44.41489527554544" lon="10.136381056778843"><ele>687.0</ele><time>2026-04-18T08:12:11.999Z</time></trkpt><trkpt lat="44.41472544809987" lon="10.136276300899526"><ele>688.0</ele><time>2026-04-18T08:12:12.999Z</time></trkpt><trkpt lat="44.41456127601136" lon="10.136173550930009"><ele>689.0</ele><time>2026-04-18T08:12:13.999Z</time></trkpt><trkpt lat="44.414394276616015" lon="10.136103988924333"><ele>689.0</ele><time>2026-04-18T08:12:14.999Z</time></trkpt><trkpt lat="44.41420973888238" lon="10.136107963355371"><ele>689.0</ele><time>2026-04-18T08:12:15.999Z</time></trkpt><trkpt lat="44.414030682167024" lon="10.136140136611886"><ele>689.0</ele><time>2026-04-18T08:12:16.999Z</time></trkpt><trkpt lat="44.41390296481342" lon="10.13609577970466"><ele>690.75</ele><time>2026-04-18T08:12:17.999Z</time></trkpt><trkpt lat="44.41380561573096" lon="10.136012884015777"><ele>692.5</ele><time>2026-04-18T08:12:18.999Z</time></trkpt><trkpt lat="44.4137062981637" lon="10.135891173041577"><ele>694.25</ele><time>2026-04-18T08:12:19.999Z</time></trkpt><trkpt lat="44.41360855733095" lon="10.13574725453498"><ele>696.0</ele><time>2026-04-18T08:12:20.999Z</time></trkpt><trkpt lat="44.413527221080855" lon="10.135601172937658"><ele>696.0</ele><time>2026-04-18T08:12:21.999Z</time></trkpt><trkpt lat="44.413435964466125" lon="10.13552970656328"><ele>696.0</ele><time>2026-04-18T08:12:22.999Z</time></trkpt><trkpt lat="44.4133341794271" lon="10.135532282957554"><ele>696.0</ele><time>2026-04-18T08:12:23.999Z</time></trkpt><trkpt lat="44.413209711228504" lon="10.135641376388866"><ele>696.0</ele><time>2026-04-18T08:12:24.999Z</time></trkpt><trkpt lat="44.41309500096264" lon="10.135845789535555"><ele>695.5</ele><time>2026-04-18T08:12:25.999Z</time></trkpt><trkpt lat="44.413012059892914" lon="10.13599928920798"><ele>695.0</ele><time>2026-04-18T08:12:26.999Z</time></trkpt><trkpt lat="44.41292933008133" lon="10.136168071728145"><ele>694.5</ele><time>2026-04-18T08:12:27.999Z</time></trkpt><trkpt lat="44.41281045546042" lon="10.136315167677399"><ele>694.0</ele><time>2026-04-18T08:12:28.999Z</time></trkpt><trkpt lat="44.41266886113297" lon="10.136350338084686"><ele>694.0</ele><time>2026-04-18T08:12:29.999Z</time></trkpt><trkpt lat="44.412534990592825" lon="10.136367459425351"><ele>694.0</ele><time>2026-04-18T08:12:30.999Z</time></trkpt><trkpt lat="44.41240160822871" lon="10.136401215307728"><ele>694.0</ele><time>2026-04-18T08:12:31.999Z</time></trkpt><trkpt lat="44.41229811274293" lon="10.136427123368755"><ele>694.0</ele><time>2026-04-18T08:12:32.999Z</time></trkpt><trkpt lat="44.41219856560063" lon="10.13645720010875"><ele>694.0</ele><time>2026-04-18T08:12:33.999Z</time></trkpt><trkpt lat="44.41209803538221" lon="10.136488028389241"><ele>694.0</ele><time>2026-04-18T08:12:34.999Z</time></trkpt><trkpt lat="44.411988081704735" lon="10.136518319320666"><ele>694.0</ele><time>2026-04-18T08:12:35.999Z</time></trkpt><trkpt lat="44.41189169240194" lon="10.136540963789031"><ele>694.0</ele><time>2026-04-18T08:12:36.999Z</time></trkpt><trkpt lat="44.41180541005663" lon="10.136526757494256"><ele>694.0</ele><time>2026-04-18T08:12:37.999Z</time></trkpt><trkpt lat="44.411721997844516" lon="10.136444338076586"><ele>694.0</ele><time>2026-04-18T08:12:38.999Z</time></trkpt><trkpt lat="44.411645203012654" lon="10.136313871487468"><ele>694.0</ele><time>2026-04-18T08:12:39.999Z</time></trkpt><trkpt lat="44.41159690803227" lon="10.136167400857019"><ele>694.0</ele><time>2026-04-18T08:12:40.999Z</time></trkpt><trkpt lat="44.41154203439856" lon="10.136044750394356"><ele>694.0</ele><time>2026-04-18T08:12:41.999Z</time></trkpt><trkpt lat="44.41149074622602" lon="10.135945652968223"><ele>694.0</ele><time>2026-04-18T08:12:42.999Z</time></trkpt><trkpt lat="44.41143836404729" lon="10.135859387172752"><ele>694.0</ele><time>2026-04-18T08:12:43.999Z</time></trkpt><trkpt lat="44.4113938267561" lon="10.135795465929755"><ele>694.0</ele><time>2026-04-18T08:12:44.999Z</time></trkpt><trkpt lat="44.411371061511254" lon="10.135650662728766"><ele>694.0</ele><time>2026-04-18T08:12:46.999Z</time></trkpt><trkpt lat="44.41139672204444" lon="10.135565565755543"><ele>694.0</ele><time>2026-04-18T08:12:47.999Z</time></trkpt><trkpt lat="44.41147138086563" lon="10.135530878967105"><ele>694.0</ele><time>2026-04-18T08:12:48.999Z</time></trkpt><trkpt lat="44.41155078480367" lon="10.135600536817762"><ele>694.0</ele><time>2026-04-18T08:12:50Z</time></trkpt><trkpt lat="44.41159365698025" lon="10.135696522965883"><ele>694.0</ele><time>2026-04-18T08:12:51Z</time></trkpt><trkpt lat="44.41163691780473" lon="10.135775119284716"><ele>694.0</ele><time>2026-04-18T08:12:52Z</time></trkpt><trkpt lat="44.411683613067495" lon="10.135851574594254"><ele>694.0</ele><time>2026-04-18T08:12:53Z</time></trkpt><trkpt lat="44.411730333094305" lon="10.135928070773543"><ele>694.0</ele><time>2026-04-18T08:12:54Z</time></trkpt><trkpt lat="44.41179368969109" lon="10.135976616348765"><ele>694.0</ele><time>2026-04-18T08:12:55Z</time></trkpt><trkpt lat="44.411843688024966" lon="10.136036723797714"><ele>694.0</ele><time>2026-04-18T08:12:56Z</time></trkpt><trkpt lat="44.411922427212765" lon="10.136032539504484"><ele>694.0</ele><time>2026-04-18T08:12:57Z</time></trkpt><trkpt lat="44.41197625187473" lon="10.135911368937398"><ele>694.0</ele><time>2026-04-18T08:12:58Z</time></trkpt><trkpt lat="44.41197597331684" lon="10.135796303405794"><ele>694.0</ele><time>2026-04-18T08:12:59Z</time></trkpt><trkpt lat="44.411913964040295" lon="10.135683603307138"><ele>694.0</ele><time>2026-04-18T08:13:00Z</time></trkpt><trkpt lat="44.411789539465495" lon="10.135569210929248"><ele>694.0</ele><time>2026-04-18T08:13:01Z</time></trkpt><trkpt lat="44.41164661737824" lon="10.135405108837725"><ele>698.0</ele><time>2026-04-18T08:13:02Z</time></trkpt><trkpt lat="44.411505931496045" lon="10.135209286605608"><ele>702.0</ele><time>2026-04-18T08:13:03Z</time></trkpt><trkpt lat="44.411335897495505" lon="10.134993548693652"><ele>706.0</ele><time>2026-04-18T08:13:04Z</time></trkpt><trkpt lat="44.41117314991495" lon="10.134787071118465"><ele>706.0</ele><time>2026-04-18T08:13:05Z</time></trkpt><trkpt lat="44.411030764144215" lon="10.13460734113578"><ele>706.0</ele><time>2026-04-18T08:13:06Z</time></trkpt><trkpt lat="44.41093063625123" lon="10.134478961139726"><ele>706.0</ele><time>2026-04-18T08:13:07Z</time></trkpt><trkpt lat="44.410877220584936" lon="10.134395207936992"><ele>706.0</ele><time>2026-04-18T08:13:08Z</time></trkpt><trkpt lat="44.41090849161311" lon="10.134239614768516"><ele>706.0</ele><time>2026-04-18T08:13:10Z</time></trkpt><trkpt lat="44.4109997861915" lon="10.134214863077313"><ele>706.0</ele><time>2026-04-18T08:13:11Z</time></trkpt><trkpt lat="44.411117796482614" lon="10.134260471085442"><ele>706.0</ele><time>2026-04-18T08:13:12Z</time></trkpt><trkpt lat="44.41130017455914" lon="10.134302073143138"><ele>706.0</ele><time>2026-04-18T08:13:13Z</time></trkpt><trkpt lat="44.41146377898125" lon="10.13440219191578"><ele>711.0</ele><time>2026-04-18T08:13:14Z</time></trkpt><trkpt lat="44.41165816019127" lon="10.134552223780243"><ele>716.0</ele><time>2026-04-18T08:13:15Z</time></trkpt><trkpt lat="44.41186364296129" lon="10.134636338300782"><ele>721.0</ele><time>2026-04-18T08:13:16Z</time></trkpt><trkpt lat="44.41206301369318" lon="10.134715952174897"><ele>721.25</ele><time>2026-04-18T08:13:17Z</time></trkpt><trkpt lat="44.41219085570546" lon="10.134748990719894"><ele>721.5</ele><time>2026-04-18T08:13:18Z</time></trkpt><trkpt lat="44.412251065182005" lon="10.134792619181606"><ele>721.75</ele><time>2026-04-18T08:13:19Z</time></trkpt><trkpt lat="44.41232438015099" lon="10.134814876033658"><ele>722.0</ele><time>2026-04-18T08:13:21Z</time></trkpt><trkpt lat="44.41239959007445" lon="10.134313937703128"><ele>724.6666666666666</ele><time>2026-04-18T08:13:22Z</time></trkpt><trkpt lat="44.41240918102299" lon="10.134048195341244"><ele>727.3333333333334</ele><time>2026-04-18T08:13:23Z</time></trkpt><trkpt lat="44.41239595765635" lon="10.133795566714225"><ele>730.0</ele><time>2026-04-18T08:13:24Z</time></trkpt><trkpt lat="44.41233985106796" lon="10.133544809626256"><ele>730.0</ele><time>2026-04-18T08:13:25Z</time></trkpt><trkpt lat="44.4122689371963" lon="10.133360888181256"><ele>730.0</ele><time>2026-04-18T08:13:26Z</time></trkpt><trkpt lat="44.41217316658534" lon="10.133264856751861"><ele>730.0</ele><time>2026-04-18T08:13:27Z</time></trkpt><trkpt lat="44.41201884848649" lon="10.133194274241198"><ele>730.0</ele><time>2026-04-18T08:13:28Z</time></trkpt><trkpt lat="44.41185856208818" lon="10.133088895471348"><ele>731.6666666666667</ele><time>2026-04-18T08:13:29Z</time></trkpt><trkpt lat="44.41176408000719" lon="10.132889592151734"><ele>733.3333333333334</ele><time>2026-04-18T08:13:30Z</time></trkpt><trkpt lat="44.41171224807134" lon="10.132675441446041"><ele>735.0</ele><time>2026-04-18T08:13:31Z</time></trkpt><trkpt lat="44.411733345773776" lon="10.132505550563245"><ele>735.0</ele><time>2026-04-18T08:13:32Z</time></trkpt><trkpt lat="44.41181662024439" lon="10.132415147645512"><ele>735.0</ele><time>2026-04-18T08:13:33Z</time></trkpt><trkpt lat="44.411949774102446" lon="10.132280999100647"><ele>735.0</ele><time>2026-04-18T08:13:34Z</time></trkpt><trkpt lat="44.41209230575403" lon="10.132122040114533"><ele>737.6666666666666</ele><time>2026-04-18T08:13:35Z</time></trkpt><trkpt lat="44.41220535197211" lon="10.131952322267198"><ele>740.3333333333333</ele><time>2026-04-18T08:13:36Z</time></trkpt><trkpt lat="44.41225643183648" lon="10.131733343634167"><ele>743.0</ele><time>2026-04-18T08:13:37Z</time></trkpt><trkpt lat="44.41227043596887" lon="10.131485928828251"><ele>743.75</ele><time>2026-04-18T08:13:38Z</time></trkpt><trkpt lat="44.41234095389644" lon="10.13136878682636"><ele>744.5</ele><time>2026-04-18T08:13:39Z</time></trkpt><trkpt lat="44.41246955210316" lon="10.13130833338784"><ele>745.25</ele><time>2026-04-18T08:13:40Z</time></trkpt><trkpt lat="44.41260018428536" lon="10.131155904909926"><ele>746.0</ele><time>2026-04-18T08:13:41Z</time></trkpt><trkpt lat="44.4127484284855" lon="10.13096826808047"><ele>746.0</ele><time>2026-04-18T08:13:42Z</time></trkpt><trkpt lat="44.41289135271282" lon="10.130812465509068"><ele>746.0</ele><time>2026-04-18T08:13:43Z</time></trkpt><trkpt lat="44.412987164164676" lon="10.130698994211327"><ele>746.0</ele><time>2026-04-18T08:13:44Z</time></trkpt><trkpt lat="44.41300489519657" lon="10.130560084068309"><ele>746.0</ele><time>2026-04-18T08:13:45Z</time></trkpt><trkpt lat="44.41295945055358" lon="10.130380836132911"><ele>748.3333333333333</ele><time>2026-04-18T08:13:46Z</time></trkpt><trkpt lat="44.41285309110485" lon="10.130218910652061"><ele>750.6666666666666</ele><time>2026-04-18T08:13:47Z</time></trkpt><trkpt lat="44.41270646064224" lon="10.130019963324765"><ele>753.0</ele><time>2026-04-18T08:13:48Z</time></trkpt><trkpt lat="44.41257079149332" lon="10.12979084232998"><ele>755.6666666666666</ele><time>2026-04-18T08:13:49Z</time></trkpt><trkpt lat="44.41242443909671" lon="10.129552883155183"><ele>758.3333333333333</ele><time>2026-04-18T08:13:50Z</time></trkpt><trkpt lat="44.41232719141524" lon="10.129345839795713"><ele>761.0</ele><time>2026-04-18T08:13:51Z</time></trkpt><trkpt lat="44.41227971040005" lon="10.129202116906498"><ele>761.0</ele><time>2026-04-18T08:13:52Z</time></trkpt><trkpt lat="44.41230061496298" lon="10.129084665513151"><ele>761.0</ele><time>2026-04-18T08:13:53Z</time></trkpt><trkpt lat="44.412372579713754" lon="10.12896098202884"><ele>761.0</ele><time>2026-04-18T08:13:54Z</time></trkpt><trkpt lat="44.412461858421544" lon="10.128753602805466"><ele>761.0</ele><time>2026-04-18T08:13:55Z</time></trkpt><trkpt lat="44.412552054102285" lon="10.128536709443503"><ele>762.3333333333333</ele><time>2026-04-18T08:13:56Z</time></trkpt><trkpt lat="44.41259882605329" lon="10.128238395086067"><ele>763.6666666666666</ele><time>2026-04-18T08:13:57Z</time></trkpt><trkpt lat="44.41260734604194" lon="10.127947397558756"><ele>765.0</ele><time>2026-04-18T08:13:58Z</time></trkpt><trkpt lat="44.41268625326331" lon="10.12773503604517"><ele>767.6666666666667</ele><time>2026-04-18T08:13:59Z</time></trkpt><trkpt lat="44.412788738021355" lon="10.12751647800166"><ele>770.3333333333334</ele><time>2026-04-18T08:13:59.999Z</time></trkpt><trkpt lat="44.41287815955652" lon="10.127290088949197"><ele>773.0</ele><time>2026-04-18T08:14:00.999Z</time></trkpt><trkpt lat="44.412901204901615" lon="10.127056882047905"><ele>774.0</ele><time>2026-04-18T08:14:01.999Z</time></trkpt><trkpt lat="44.412855862319645" lon="10.126817696795932"><ele>775.0</ele><time>2026-04-18T08:14:02.999Z</time></trkpt><trkpt lat="44.412829560169065" lon="10.12652721573361"><ele>776.0</ele><time>2026-04-18T08:14:03.999Z</time></trkpt><trkpt lat="44.41275879655188" lon="10.12632496968631"><ele>777.6666666666667</ele><time>2026-04-18T08:14:04.999Z</time></trkpt><trkpt lat="44.41262513495798" lon="10.126129427317224"><ele>779.3333333333333</ele><time>2026-04-18T08:14:05.999Z</time></trkpt><trkpt lat="44.41251198844899" lon="10.125963807483725"><ele>781.0</ele><time>2026-04-18T08:14:06.999Z</time></trkpt><trkpt lat="44.41237824363316" lon="10.125817702252661"><ele>784.3333333333333</ele><time>2026-04-18T08:14:07.999Z</time></trkpt><trkpt lat="44.41221281501802" lon="10.125688262859601"><ele>787.6666666666667</ele><time>2026-04-18T08:14:08.999Z</time></trkpt><trkpt lat="44.412021821928484" lon="10.125539331548488"><ele>791.0</ele><time>2026-04-18T08:14:09.999Z</time></trkpt><trkpt lat="44.41183771748253" lon="10.1253910198286"><ele>791.0</ele><time>2026-04-18T08:14:10.999Z</time></trkpt><trkpt lat="44.411662685007755" lon="10.12524034858142"><ele>791.0</ele><time>2026-04-18T08:14:11.999Z</time></trkpt><trkpt lat="44.41148835876557" lon="10.125091978705921"><ele>791.0</ele><time>2026-04-18T08:14:12.999Z</time></trkpt><trkpt lat="44.41133176357027" lon="10.124979982226348"><ele>790.75</ele><time>2026-04-18T08:14:13.999Z</time></trkpt><trkpt lat="44.41119387939544" lon="10.124921969893283"><ele>790.5</ele><time>2026-04-18T08:14:14.999Z</time></trkpt><trkpt lat="44.411052245019675" lon="10.124910593423726"><ele>790.25</ele><time>2026-04-18T08:14:15.999Z</time></trkpt><trkpt lat="44.41090587054965" lon="10.12493248959763"><ele>790.0</ele><time>2026-04-18T08:14:16.999Z</time></trkpt><trkpt lat="44.41076531281976" lon="10.124948192939225"><ele>790.0</ele><time>2026-04-18T08:14:17.999Z</time></trkpt><trkpt lat="44.41063474222863" lon="10.124984375436904"><ele>790.0</ele><time>2026-04-18T08:14:18.999Z</time></trkpt><trkpt lat="44.41050762448729" lon="10.125053323205762"><ele>790.0</ele><time>2026-04-18T08:14:19.999Z</time></trkpt><trkpt lat="44.410377555092374" lon="10.12513114226083"><ele>790.0</ele><time>2026-04-18T08:14:20.999Z</time></trkpt><trkpt lat="44.410251106915254" lon="10.125209766668805"><ele>791.5</ele><time>2026-04-18T08:14:21.999Z</time></trkpt><trkpt lat="44.41012893697911" lon="10.125281214623579"><ele>793.0</ele><time>2026-04-18T08:14:22.999Z</time></trkpt><trkpt lat="44.410000727482426" lon="10.12534073603321"><ele>794.5</ele><time>2026-04-18T08:14:23.999Z</time></trkpt><trkpt lat="44.40986687714928" lon="10.125408419553494"><ele>796.0</ele><time>2026-04-18T08:14:24.999Z</time></trkpt><trkpt lat="44.409746091763566" lon="10.125450463796376"><ele>797.5</ele><time>2026-04-18T08:14:25.999Z</time></trkpt><trkpt lat="44.40963492600913" lon="10.125460284922411"><ele>799.0</ele><time>2026-04-18T08:14:26.999Z</time></trkpt><trkpt lat="44.409521526344506" lon="10.125491954014077"><ele>800.5</ele><time>2026-04-18T08:14:27.999Z</time></trkpt><trkpt lat="44.409401281622785" lon="10.125490670802682"><ele>802.0</ele><time>2026-04-18T08:14:28.999Z</time></trkpt><trkpt lat="44.40927405659518" lon="10.125481188257961"><ele>802.0</ele><time>2026-04-18T08:14:29.999Z</time></trkpt><trkpt lat="44.409141665906795" lon="10.125461136949307"><ele>802.0</ele><time>2026-04-18T08:14:30.999Z</time></trkpt><trkpt lat="44.40900962120786" lon="10.125444949606491"><ele>802.0</ele><time>2026-04-18T08:14:31.999Z</time></trkpt><trkpt lat="44.40887964080159" lon="10.125428525691893"><ele>802.0</ele><time>2026-04-18T08:14:32.999Z</time></trkpt><trkpt lat="44.40874997661327" lon="10.125411300782337"><ele>802.5</ele><time>2026-04-18T08:14:33.999Z</time></trkpt><trkpt lat="44.40862435066172" lon="10.12539672728016"><ele>803.0</ele><time>2026-04-18T08:14:34.999Z</time></trkpt><trkpt lat="44.40850679688254" lon="10.125378741940095"><ele>803.5</ele><time>2026-04-18T08:14:35.999Z</time></trkpt><trkpt lat="44.40838745819935" lon="10.125360049322103"><ele>804.0</ele><time>2026-04-18T08:14:36.999Z</time></trkpt><trkpt lat="44.40827766722889" lon="10.125346253665844"><ele>804.0</ele><time>2026-04-18T08:14:37.999Z</time></trkpt><trkpt lat="44.408157839833315" lon="10.12532995149984"><ele>804.0</ele><time>2026-04-18T08:14:38.999Z</time></trkpt><trkpt lat="44.40804527912857" lon="10.125312815423552"><ele>804.0</ele><time>2026-04-18T08:14:39.999Z</time></trkpt><trkpt lat="44.40793102358014" lon="10.125293720329424"><ele>804.0</ele><time>2026-04-18T08:14:40.999Z</time></trkpt><trkpt lat="44.407820157222076" lon="10.125284909428915"><ele>802.75</ele><time>2026-04-18T08:14:41.999Z</time></trkpt><trkpt lat="44.40771352720813" lon="10.125265566427306"><ele>801.5</ele><time>2026-04-18T08:14:42.999Z</time></trkpt><trkpt lat="44.407615818950646" lon="10.125207786723196"><ele>800.25</ele><time>2026-04-18T08:14:43.999Z</time></trkpt><trkpt lat="44.407528215690334" lon="10.125075186918036"><ele>799.0</ele><time>2026-04-18T08:14:44.999Z</time></trkpt><trkpt lat="44.407460734178954" lon="10.124907546682755"><ele>798.0</ele><time>2026-04-18T08:14:45.999Z</time></trkpt><trkpt lat="44.407388779608304" lon="10.124750420840254"><ele>797.0</ele><time>2026-04-18T08:14:46.999Z</time></trkpt><trkpt lat="44.40731030401247" lon="10.124602154103872"><ele>796.0</ele><time>2026-04-18T08:14:47.999Z</time></trkpt><trkpt lat="44.407233100814196" lon="10.124458603595624"><ele>795.0</ele><time>2026-04-18T08:14:48.999Z</time></trkpt><trkpt lat="44.407150523616416" lon="10.12430969773944"><ele>795.0</ele><time>2026-04-18T08:14:49.999Z</time></trkpt><trkpt lat="44.407069571515486" lon="10.124165595936562"><ele>795.0</ele><time>2026-04-18T08:14:50.999Z</time></trkpt><trkpt lat="44.40697930218321" lon="10.124018695226669"><ele>795.0</ele><time>2026-04-18T08:14:51.999Z</time></trkpt><trkpt lat="44.40689334416553" lon="10.12386975459644"><ele>795.0</ele><time>2026-04-18T08:14:52.999Z</time></trkpt><trkpt lat="44.40680451071281" lon="10.123743277710245"><ele>798.25</ele><time>2026-04-18T08:14:53.999Z</time></trkpt><trkpt lat="44.406715995678155" lon="10.12362521419233"><ele>801.5</ele><time>2026-04-18T08:14:54.999Z</time></trkpt><trkpt lat="44.4066468699869" lon="10.123471051654283"><ele>804.75</ele><time>2026-04-18T08:14:56Z</time></trkpt><trkpt lat="44.406603742373825" lon="10.123252467299539"><ele>808.0</ele><time>2026-04-18T08:14:57Z</time></trkpt><trkpt lat="44.406580370564164" lon="10.123009521571085"><ele>812.0</ele><time>2026-04-18T08:14:58Z</time></trkpt><trkpt lat="44.40655008296314" lon="10.122746268108736"><ele>816.0</ele><time>2026-04-18T08:14:59Z</time></trkpt><trkpt lat="44.40649891476077" lon="10.122487500027084"><ele>820.0</ele><time>2026-04-18T08:15:00Z</time></trkpt><trkpt lat="44.40643149000511" lon="10.122246059613298"><ele>819.3333333333333</ele><time>2026-04-18T08:15:01Z</time></trkpt><trkpt lat="44.406352083513376" lon="10.122003590669626"><ele>818.6666666666667</ele><time>2026-04-18T08:15:02Z</time></trkpt><trkpt lat="44.40628034129646" lon="10.121772871777605"><ele>818.0</ele><time>2026-04-18T08:15:03Z</time></trkpt><trkpt lat="44.406226437545875" lon="10.121562863333178"><ele>820.5999999999999</ele><time>2026-04-18T08:15:04Z</time></trkpt><trkpt lat="44.40618487596351" lon="10.121390950818167"><ele>823.1999999999999</ele><time>2026-04-18T08:15:05Z</time></trkpt><trkpt lat="44.40614295399935" lon="10.121264710230804"><ele>825.8</ele><time>2026-04-18T08:15:06Z</time></trkpt><trkpt lat="44.40607257638903" lon="10.121180700271516"><ele>828.4</ele><time>2026-04-18T08:15:07Z</time></trkpt><trkpt lat="44.40596296193665" lon="10.12115192716968"><ele>831.0</ele><time>2026-04-18T08:15:08Z</time></trkpt><trkpt lat="44.40582351978585" lon="10.121198334479343"><ele>831.0</ele><time>2026-04-18T08:15:09Z</time></trkpt><trkpt lat="44.40568796187138" lon="10.121234291681466"><ele>831.0</ele><time>2026-04-18T08:15:10Z</time></trkpt><trkpt lat="44.4055833363287" lon="10.12128547058717"><ele>831.0</ele><time>2026-04-18T08:15:11Z</time></trkpt><trkpt lat="44.40550941976386" lon="10.121420481321612"><ele>831.0</ele><time>2026-04-18T08:15:12Z</time></trkpt><trkpt lat="44.40545832673621" lon="10.121602204065633"><ele>834.0</ele><time>2026-04-18T08:15:13Z</time></trkpt><trkpt lat="44.405389715060814" lon="10.121738970683948"><ele>837.0</ele><time>2026-04-18T08:15:14Z</time></trkpt><trkpt lat="44.4052857940645" lon="10.12182799462118"><ele>840.0</ele><time>2026-04-18T08:15:15Z</time></trkpt><trkpt lat="44.405170856560225" lon="10.121918837438578"><ele>843.0</ele><time>2026-04-18T08:15:16Z</time></trkpt><trkpt lat="44.405056848831755" lon="10.121984720846854"><ele>843.0</ele><time>2026-04-18T08:15:17Z</time></trkpt><trkpt lat="44.40494353199622" lon="10.122065888746185"><ele>843.0</ele><time>2026-04-18T08:15:18Z</time></trkpt><trkpt lat="44.404834729366435" lon="10.122138425213357"><ele>843.0</ele><time>2026-04-18T08:15:19Z</time></trkpt><trkpt lat="44.4047272035063" lon="10.122198973133798"><ele>843.0</ele><time>2026-04-18T08:15:20Z</time></trkpt><trkpt lat="44.404630733917486" lon="10.122242646488962"><ele>844.2</ele><time>2026-04-18T08:15:21Z</time></trkpt><trkpt lat="44.40453528343817" lon="10.12227626067178"><ele>845.4</ele><time>2026-04-18T08:15:22Z</time></trkpt><trkpt lat="44.40442420732721" lon="10.122276767210842"><ele>846.6</ele><time>2026-04-18T08:15:23Z</time></trkpt><trkpt lat="44.404320604655375" lon="10.122262512784861"><ele>847.8000000000001</ele><time>2026-04-18T08:15:24Z</time></trkpt><trkpt lat="44.40422921731985" lon="10.122250356493021"><ele>849.0</ele><time>2026-04-18T08:15:25Z</time></trkpt><trkpt lat="44.40415109740296" lon="10.122237589244289"><ele>849.0</ele><time>2026-04-18T08:15:26Z</time></trkpt><trkpt lat="44.40407790694768" lon="10.122219027513356"><ele>849.0</ele><time>2026-04-18T08:15:27Z</time></trkpt><trkpt lat="44.40398946564912" lon="10.122211050891536"><ele>849.0</ele><time>2026-04-18T08:15:28Z</time></trkpt><trkpt lat="44.40389268419947" lon="10.122202971873044"><ele>849.0</ele><time>2026-04-18T08:15:29Z</time></trkpt><trkpt lat="44.403784742766284" lon="10.122203340688545"><ele>849.0</ele><time>2026-04-18T08:15:30Z</time></trkpt><trkpt lat="44.40367478703813" lon="10.122195140425381"><ele>848.25</ele><time>2026-04-18T08:15:31Z</time></trkpt><trkpt lat="44.403558378554685" lon="10.122174751865606"><ele>847.5</ele><time>2026-04-18T08:15:32Z</time></trkpt><trkpt lat="44.40344376185525" lon="10.122136546165766"><ele>846.75</ele><time>2026-04-18T08:15:33Z</time></trkpt><trkpt lat="44.40333165481971" lon="10.122052915808986"><ele>846.0</ele><time>2026-04-18T08:15:34Z</time></trkpt><trkpt lat="44.4032240344681" lon="10.121937482714268"><ele>846.0</ele><time>2026-04-18T08:15:35Z</time></trkpt><trkpt lat="44.403110629396586" lon="10.1218157429358"><ele>846.0</ele><time>2026-04-18T08:15:36Z</time></trkpt><trkpt lat="44.40299707923641" lon="10.121679768150544"><ele>846.0</ele><time>2026-04-18T08:15:37Z</time></trkpt><trkpt lat="44.40290001449784" lon="10.1215246631189"><ele>846.0</ele><time>2026-04-18T08:15:38Z</time></trkpt><trkpt lat="44.40281626601884" lon="10.12137212918297"><ele>846.25</ele><time>2026-04-18T08:15:39Z</time></trkpt><trkpt lat="44.402726602845014" lon="10.121236824852053"><ele>846.5</ele><time>2026-04-18T08:15:40Z</time></trkpt><trkpt lat="44.40260388214157" lon="10.121137585633512"><ele>846.75</ele><time>2026-04-18T08:15:41Z</time></trkpt><trkpt lat="44.40244859690651" lon="10.121083652543785"><ele>847.0</ele><time>2026-04-18T08:15:42Z</time></trkpt><trkpt lat="44.40230085782626" lon="10.121046924787105"><ele>847.0</ele><time>2026-04-18T08:15:43Z</time></trkpt><trkpt lat="44.40216702215082" lon="10.120987292342527"><ele>847.0</ele><time>2026-04-18T08:15:44Z</time></trkpt><trkpt lat="44.40207533923108" lon="10.120918127763952"><ele>847.0</ele><time>2026-04-18T08:15:45Z</time></trkpt><trkpt lat="44.402009742468934" lon="10.12083850917372"><ele>847.0</ele><time>2026-04-18T08:15:46Z</time></trkpt><trkpt lat="44.402005876775775" lon="10.120708862321509"><ele>847.0</ele><time>2026-04-18T08:15:47Z</time></trkpt><trkpt lat="44.402027001910646" lon="10.120558523173889"><ele>844.0</ele><time>2026-04-18T08:15:48Z</time></trkpt><trkpt lat="44.40204931857211" lon="10.120391247883903"><ele>841.0</ele><time>2026-04-18T08:15:49Z</time></trkpt><trkpt lat="44.40201375069627" lon="10.120208266446292"><ele>838.0</ele><time>2026-04-18T08:15:50Z</time></trkpt><trkpt lat="44.401896201002025" lon="10.120018800782269"><ele>835.0</ele><time>2026-04-18T08:15:51Z</time></trkpt><trkpt lat="44.4017303614569" lon="10.119838621491372"><ele>835.3333333333333</ele><time>2026-04-18T08:15:52Z</time></trkpt><trkpt lat="44.40157218590355" lon="10.119673481583222"><ele>835.6666666666667</ele><time>2026-04-18T08:15:53Z</time></trkpt><trkpt lat="44.4014363259473" lon="10.11950557497839"><ele>836.0</ele><time>2026-04-18T08:15:54Z</time></trkpt><trkpt lat="44.40130991805709" lon="10.119354805010735"><ele>836.0</ele><time>2026-04-18T08:15:55Z</time></trkpt><trkpt lat="44.40118473517747" lon="10.119220320426301"><ele>836.0</ele><time>2026-04-18T08:15:56Z</time></trkpt><trkpt lat="44.401054815900984" lon="10.119100162944349"><ele>836.0</ele><time>2026-04-18T08:15:57Z</time></trkpt><trkpt lat="44.400921388827015" lon="10.11900250745434"><ele>838.5</ele><time>2026-04-18T08:15:58Z</time></trkpt><trkpt lat="44.400789807451986" lon="10.118890581674549"><ele>841.0</ele><time>2026-04-18T08:15:59Z</time></trkpt><trkpt lat="44.40067085514445" lon="10.118795042621707"><ele>843.5</ele><time>2026-04-18T08:16:00Z</time></trkpt><trkpt lat="44.400554269643266" lon="10.118736724038646"><ele>846.0</ele><time>2026-04-18T08:16:01Z</time></trkpt><trkpt lat="44.400430583188566" lon="10.11876648518518"><ele>846.0</ele><time>2026-04-18T08:16:02Z</time></trkpt><trkpt lat="44.40030153648605" lon="10.118902034537886"><ele>846.0</ele><time>2026-04-18T08:16:03Z</time></trkpt><trkpt lat="44.40018394314042" lon="10.1191067007207"><ele>846.0</ele><time>2026-04-18T08:16:04Z</time></trkpt><trkpt lat="44.40008421640192" lon="10.119286552210527"><ele>847.5</ele><time>2026-04-18T08:16:05Z</time></trkpt><trkpt lat="44.40001812432495" lon="10.11941846826395"><ele>849.0</ele><time>2026-04-18T08:16:05.999Z</time></trkpt><trkpt lat="44.400007999442465" lon="10.119561112651315"><ele>850.5</ele><time>2026-04-18T08:16:06.999Z</time></trkpt><trkpt lat="44.40005847406367" lon="10.119755239370141"><ele>852.0</ele><time>2026-04-18T08:16:07.999Z</time></trkpt><trkpt lat="44.400137827730134" lon="10.11998162632096"><ele>852.0</ele><time>2026-04-18T08:16:08.999Z</time></trkpt><trkpt lat="44.40020342507326" lon="10.120265746180738"><ele>852.0</ele><time>2026-04-18T08:16:09.999Z</time></trkpt><trkpt lat="44.40027561080177" lon="10.120484048030043"><ele>852.0</ele><time>2026-04-18T08:16:10.999Z</time></trkpt><trkpt lat="44.40033470961428" lon="10.12071934046767"><ele>860.0</ele><time>2026-04-18T08:16:11.999Z</time></trkpt><trkpt lat="44.40046167301258" lon="10.120969255399492"><ele>868.0</ele><time>2026-04-18T08:16:12.999Z</time></trkpt><trkpt lat="44.400561824589865" lon="10.121129964935196"><ele>876.0</ele><time>2026-04-18T08:16:13.999Z</time></trkpt><trkpt lat="44.400590222438595" lon="10.121274527963262"><ele>860.6666666666667</ele><time>2026-04-18T08:16:14.999Z</time></trkpt><trkpt lat="44.40058364357942" lon="10.121489772819144"><ele>845.3333333333334</ele><time>2026-04-18T08:16:15.999Z</time></trkpt><trkpt lat="44.40060695164339" lon="10.121756996258659"><ele>830.0</ele><time>2026-04-18T08:16:16.999Z</time></trkpt><trkpt lat="44.40062415010509" lon="10.1220440354131"><ele>830.0</ele><time>2026-04-18T08:16:17.999Z</time></trkpt><trkpt lat="44.400652388311144" lon="10.122312620873355"><ele>830.0</ele><time>2026-04-18T08:16:18.999Z</time></trkpt><trkpt lat="44.4006852442331" lon="10.12258479640059"><ele>830.0</ele><time>2026-04-18T08:16:19.999Z</time></trkpt><trkpt lat="44.40074273016745" lon="10.12286137726748"><ele>833.6666666666667</ele><time>2026-04-18T08:16:20.999Z</time></trkpt><trkpt lat="44.400802749078395" lon="10.123117818791075"><ele>837.3333333333333</ele><time>2026-04-18T08:16:21.999Z</time></trkpt><trkpt lat="44.400896649402874" lon="10.123353819776334"><ele>841.0</ele><time>2026-04-18T08:16:22.999Z</time></trkpt><trkpt lat="44.40099367792537" lon="10.123583073285927"><ele>846.5</ele><time>2026-04-18T08:16:23.999Z</time></trkpt><trkpt lat="44.401067678712494" lon="10.123753450036572"><ele>852.0</ele><time>2026-04-18T08:16:24.999Z</time></trkpt><trkpt lat="44.401092539612144" lon="10.123879255241738"><ele>857.5</ele><time>2026-04-18T08:16:25.999Z</time></trkpt><trkpt lat="44.401068294395806" lon="10.124016526447061"><ele>863.0</ele><time>2026-04-18T08:16:26.999Z</time></trkpt><trkpt lat="44.40102250906633" lon="10.124220676112174"><ele>863.5</ele><time>2026-04-18T08:16:27.999Z</time></trkpt><trkpt lat="44.4010109000827" lon="10.12447129186187"><ele>864.0</ele><time>2026-04-18T08:16:28.999Z</time></trkpt><trkpt lat="44.40099760848242" lon="10.124651670556233"><ele>864.5</ele><time>2026-04-18T08:16:29.999Z</time></trkpt><trkpt lat="44.400968537985875" lon="10.124746969157329"><ele>865.0</ele><time>2026-04-18T08:16:30.999Z</time></trkpt><trkpt lat="44.400830749222216" lon="10.12467625835748"><ele>865.0</ele><time>2026-04-18T08:16:32.999Z</time></trkpt><trkpt lat="44.40076044653202" lon="10.124515500732134"><ele>865.0</ele><time>2026-04-18T08:16:33.999Z</time></trkpt><trkpt lat="44.400666092831244" lon="10.124326189618845"><ele>865.0</ele><time>2026-04-18T08:16:34.999Z</time></trkpt><trkpt lat="44.40053050793848" lon="10.124249303640614"><ele>865.0</ele><time>2026-04-18T08:16:35.999Z</time></trkpt><trkpt lat="44.400342120839454" lon="10.124139721022917"><ele>874.0</ele><time>2026-04-18T08:16:36.999Z</time></trkpt><trkpt lat="44.40017871258831" lon="10.124011747106941"><ele>883.0</ele><time>2026-04-18T08:16:37.999Z</time></trkpt><trkpt lat="44.40000523841488" lon="10.12386221373494"><ele>892.0</ele><time>2026-04-18T08:16:38.999Z</time></trkpt><trkpt lat="44.39981141039446" lon="10.123751779615766"><ele>886.6666666666666</ele><time>2026-04-18T08:16:39.999Z</time></trkpt><trkpt lat="44.3996463556087" lon="10.123716723782385"><ele>881.3333333333333</ele><time>2026-04-18T08:16:40.999Z</time></trkpt><trkpt lat="44.39950130934208" lon="10.123677808743677"><ele>876.0</ele><time>2026-04-18T08:16:41.999Z</time></trkpt><trkpt lat="44.39936841380832" lon="10.123585643892817"><ele>876.0</ele><time>2026-04-18T08:16:42.999Z</time></trkpt><trkpt lat="44.39923474788351" lon="10.12338919423681"><ele>876.0</ele><time>2026-04-18T08:16:43.999Z</time></trkpt><trkpt lat="44.39911399313069" lon="10.123174971872618"><ele>876.0</ele><time>2026-04-18T08:16:44.999Z</time></trkpt><trkpt lat="44.39901182220155" lon="10.122967839141632"><ele>879.6666666666667</ele><time>2026-04-18T08:16:45.999Z</time></trkpt><trkpt lat="44.398902125570565" lon="10.122819740806587"><ele>883.3333333333334</ele><time>2026-04-18T08:16:46.999Z</time></trkpt><trkpt lat="44.39875853866881" lon="10.122701077707143"><ele>887.0</ele><time>2026-04-18T08:16:47.999Z</time></trkpt><trkpt lat="44.398596397097485" lon="10.122622214116648"><ele>887.0</ele><time>2026-04-18T08:16:48.999Z</time></trkpt><trkpt lat="44.39842738012788" lon="10.122588004388382"><ele>887.0</ele><time>2026-04-18T08:16:49.999Z</time></trkpt><trkpt lat="44.398296582412755" lon="10.122547038452684"><ele>887.0</ele><time>2026-04-18T08:16:50.999Z</time></trkpt><trkpt lat="44.39822740225819" lon="10.122419555684727"><ele>887.0</ele><time>2026-04-18T08:16:51.999Z</time></trkpt><trkpt lat="44.39813574615129" lon="10.122251352202678"><ele>888.75</ele><time>2026-04-18T08:16:52.999Z</time></trkpt><trkpt lat="44.398035758119526" lon="10.122086792625"><ele>890.5</ele><time>2026-04-18T08:16:53.999Z</time></trkpt><trkpt lat="44.39792046162561" lon="10.12198983358673"><ele>892.25</ele><time>2026-04-18T08:16:54.999Z</time></trkpt><trkpt lat="44.3977739663907" lon="10.121962839300782"><ele>894.0</ele><time>2026-04-18T08:16:55.999Z</time></trkpt><trkpt lat="44.39760818472029" lon="10.121908512861047"><ele>894.0</ele><time>2026-04-18T08:16:56.999Z</time></trkpt><trkpt lat="44.39746220043195" lon="10.121752517415533"><ele>894.0</ele><time>2026-04-18T08:16:57.999Z</time></trkpt><trkpt lat="44.397301654012985" lon="10.121546937920497"><ele>894.0</ele><time>2026-04-18T08:16:58.999Z</time></trkpt><trkpt lat="44.39716553138906" lon="10.121318780898093"><ele>896.6666666666667</ele><time>2026-04-18T08:16:59.999Z</time></trkpt><trkpt lat="44.397006710797754" lon="10.121090420656202"><ele>899.3333333333334</ele><time>2026-04-18T08:17:00.999Z</time></trkpt><trkpt lat="44.39685382535331" lon="10.120882428709294"><ele>902.0</ele><time>2026-04-18T08:17:02Z</time></trkpt><trkpt lat="44.39669817709838" lon="10.120713946072696"><ele>903.0</ele><time>2026-04-18T08:17:03Z</time></trkpt><trkpt lat="44.396525316267685" lon="10.120587691835452"><ele>904.0</ele><time>2026-04-18T08:17:04Z</time></trkpt><trkpt lat="44.396321977434646" lon="10.120519121827808"><ele>905.0</ele><time>2026-04-18T08:17:05Z</time></trkpt><trkpt lat="44.39612446247208" lon="10.120496248370499"><ele>905.0</ele><time>2026-04-18T08:17:06Z</time></trkpt><trkpt lat="44.395992022695964" lon="10.12046394220154"><ele>905.0</ele><time>2026-04-18T08:17:07Z</time></trkpt><trkpt lat="44.39592793712724" lon="10.120326479366916"><ele>905.0</ele><time>2026-04-18T08:17:08Z</time></trkpt><trkpt lat="44.39582815275305" lon="10.12016125354361"><ele>905.0</ele><time>2026-04-18T08:17:09Z</time></trkpt><trkpt lat="44.39571157917541" lon="10.11996753137009"><ele>907.6666666666667</ele><time>2026-04-18T08:17:10Z</time></trkpt><trkpt lat="44.395562639721454" lon="10.119810003374944"><ele>910.3333333333333</ele><time>2026-04-18T08:17:11Z</time></trkpt><trkpt lat="44.395405970274474" lon="10.119661929693057"><ele>913.0</ele><time>2026-04-18T08:17:12Z</time></trkpt><trkpt lat="44.39529528799992" lon="10.119472409693351"><ele>913.0</ele><time>2026-04-18T08:17:13Z</time></trkpt><trkpt lat="44.39520475157677" lon="10.119299776873268"><ele>913.0</ele><time>2026-04-18T08:17:14Z</time></trkpt><trkpt lat="44.39509975212273" lon="10.119151376870231"><ele>913.0</ele><time>2026-04-18T08:17:15Z</time></trkpt><trkpt lat="44.39493886545891" lon="10.119047043076291"><ele>920.3333333333333</ele><time>2026-04-18T08:17:16Z</time></trkpt><trkpt lat="44.394760811567046" lon="10.118990006112494"><ele>927.6666666666667</ele><time>2026-04-18T08:17:17Z</time></trkpt><trkpt lat="44.39457257457252" lon="10.119003125340354"><ele>935.0</ele><time>2026-04-18T08:17:18Z</time></trkpt><trkpt lat="44.394393516989034" lon="10.119058324666693"><ele>935.0</ele><time>2026-04-18T08:17:19Z</time></trkpt><trkpt lat="44.394236325684645" lon="10.119111209952653"><ele>935.0</ele><time>2026-04-18T08:17:20Z</time></trkpt><trkpt lat="44.394075250095234" lon="10.119100730397045"><ele>935.0</ele><time>2026-04-18T08:17:21Z</time></trkpt><trkpt lat="44.3939187780282" lon="10.119034001991999"><ele>938.0</ele><time>2026-04-18T08:17:22Z</time></trkpt><trkpt lat="44.39380460196356" lon="10.118951836061864"><ele>941.0</ele><time>2026-04-18T08:17:23Z</time></trkpt><trkpt lat="44.393723199976705" lon="10.118833794402612"><ele>944.0</ele><time>2026-04-18T08:17:24Z</time></trkpt><trkpt lat="44.39364497574959" lon="10.118724424094994"><ele>947.0</ele><time>2026-04-18T08:17:25Z</time></trkpt><trkpt lat="44.39350768111172" lon="10.118663848757032"><ele>947.0</ele><time>2026-04-18T08:17:26Z</time></trkpt><trkpt lat="44.39334256308589" lon="10.11866809497143"><ele>947.0</ele><time>2026-04-18T08:17:27Z</time></trkpt><trkpt lat="44.393148222698116" lon="10.118744106064309"><ele>947.0</ele><time>2026-04-18T08:17:28Z</time></trkpt><trkpt lat="44.392979501737486" lon="10.118855629927957"><ele>944.75</ele><time>2026-04-18T08:17:29Z</time></trkpt><trkpt lat="44.39285779969753" lon="10.118916148533348"><ele>942.5</ele><time>2026-04-18T08:17:30Z</time></trkpt><trkpt lat="44.39270727129756" lon="10.118895007239335"><ele>940.25</ele><time>2026-04-18T08:17:31Z</time></trkpt><trkpt lat="44.39259338442471" lon="10.118869595257253"><ele>938.0</ele><time>2026-04-18T08:17:32Z</time></trkpt><trkpt lat="44.392504896092376" lon="10.118861527640854"><ele>938.0</ele><time>2026-04-18T08:17:33Z</time></trkpt><trkpt lat="44.39243656661837" lon="10.118894753486272"><ele>938.0</ele><time>2026-04-18T08:17:34Z</time></trkpt><trkpt lat="44.39239485317557" lon="10.11906591781407"><ele>938.0</ele><time>2026-04-18T08:17:35Z</time></trkpt><trkpt lat="44.3923714586968" lon="10.119248303535526"><ele>938.0</ele><time>2026-04-18T08:17:36Z</time></trkpt><trkpt lat="44.39239861960212" lon="10.119405100608617"><ele>938.0</ele><time>2026-04-18T08:17:37Z</time></trkpt><trkpt lat="44.39246973054776" lon="10.119524673333713"><ele>933.3333333333334</ele><time>2026-04-18T08:17:38Z</time></trkpt><trkpt lat="44.39262757973613" lon="10.119609688694991"><ele>928.6666666666667</ele><time>2026-04-18T08:17:39Z</time></trkpt><trkpt lat="44.39277089286501" lon="10.119742596162556"><ele>924.0</ele><time>2026-04-18T08:17:40Z</time></trkpt><trkpt lat="44.39287115481032" lon="10.119880361876632"><ele>925.8000000000001</ele><time>2026-04-18T08:17:41Z</time></trkpt><trkpt lat="44.39290792408152" lon="10.120006148615307"><ele>927.6000000000001</ele><time>2026-04-18T08:17:42Z</time></trkpt><trkpt lat="44.39285665521965" lon="10.12011270353818"><ele>929.4</ele><time>2026-04-18T08:17:43Z</time></trkpt><trkpt lat="44.39281559007802" lon="10.120298913081081"><ele>931.2</ele><time>2026-04-18T08:17:44Z</time></trkpt><trkpt lat="44.39275440390302" lon="10.120437001163031"><ele>933.0</ele><time>2026-04-18T08:17:45Z</time></trkpt><trkpt lat="44.39261383470161" lon="10.120548124109385"><ele>933.0</ele><time>2026-04-18T08:17:46Z</time></trkpt><trkpt lat="44.392463611910706" lon="10.120681560772043"><ele>933.0</ele><time>2026-04-18T08:17:47Z</time></trkpt><trkpt lat="44.39230440034116" lon="10.12081044232563"><ele>933.0</ele><time>2026-04-18T08:17:48Z</time></trkpt><trkpt lat="44.392115109841704" lon="10.120949015864213"><ele>938.5</ele><time>2026-04-18T08:17:49Z</time></trkpt><trkpt lat="44.39184977618034" lon="10.121012123276172"><ele>944.0</ele><time>2026-04-18T08:17:50Z</time></trkpt><trkpt lat="44.391572331206895" lon="10.12108136588021"><ele>947.5</ele><time>2026-04-18T08:17:51Z</time></trkpt><trkpt lat="44.39130436242574" lon="10.121171798396231"><ele>951.0</ele><time>2026-04-18T08:17:53Z</time></trkpt><trkpt lat="44.39106798513122" lon="10.121221219875231"><ele>951.0</ele><time>2026-04-18T08:17:54Z</time></trkpt><trkpt lat="44.39084261263906" lon="10.121260720251815"><ele>951.0</ele><time>2026-04-18T08:17:55Z</time></trkpt><trkpt lat="44.39064672729896" lon="10.121324102522227"><ele>951.0</ele><time>2026-04-18T08:17:56Z</time></trkpt><trkpt lat="44.390487952697505" lon="10.121359156462841"><ele>950.8</ele><time>2026-04-18T08:17:57Z</time></trkpt><trkpt lat="44.390370824876236" lon="10.121436127029758"><ele>950.5999999999999</ele><time>2026-04-18T08:17:58Z</time></trkpt><trkpt lat="44.39030006285012" lon="10.121589423175768"><ele>950.4</ele><time>2026-04-18T08:17:59Z</time></trkpt><trkpt lat="44.39025018418477" lon="10.121707979038648"><ele>950.2</ele><time>2026-04-18T08:18:00Z</time></trkpt><trkpt lat="44.39018293212486" lon="10.12172989432236"><ele>950.0</ele><time>2026-04-18T08:18:02Z</time></trkpt><trkpt lat="44.39010634520386" lon="10.121777366026311"><ele>950.0</ele><time>2026-04-18T08:18:06Z</time></trkpt><trkpt lat="44.39003946344008" lon="10.12181868767257"><ele>950.0</ele><time>2026-04-18T08:18:07Z</time></trkpt><trkpt lat="44.38991884594486" lon="10.121848382520799"><ele>950.0</ele><time>2026-04-18T08:18:08Z</time></trkpt><trkpt lat="44.389789595547775" lon="10.121849082893148"><ele>950.0</ele><time>2026-04-18T08:18:08.999Z</time></trkpt><trkpt lat="44.389622316105715" lon="10.12186658129327"><ele>953.3333333333334</ele><time>2026-04-18T08:18:09.999Z</time></trkpt><trkpt lat="44.38945228822539" lon="10.121943250532132"><ele>956.6666666666667</ele><time>2026-04-18T08:18:10.999Z</time></trkpt><trkpt lat="44.38926312901838" lon="10.12207318494744"><ele>960.0</ele><time>2026-04-18T08:18:11.999Z</time></trkpt><trkpt lat="44.389085647635746" lon="10.122177949216436"><ele>960.0</ele><time>2026-04-18T08:18:12.999Z</time></trkpt><trkpt lat="44.38889821500548" lon="10.122289094054993"><ele>960.0</ele><time>2026-04-18T08:18:13.999Z</time></trkpt><trkpt lat="44.38874214265875" lon="10.122381350895466"><ele>960.0</ele><time>2026-04-18T08:18:14.999Z</time></trkpt><trkpt lat="44.38859421375247" lon="10.122456750161492"><ele>955.3333333333333</ele><time>2026-04-18T08:18:15.999Z</time></trkpt><trkpt lat="44.38842647075928" lon="10.122512012025453"><ele>950.6666666666666</ele><time>2026-04-18T08:18:16.999Z</time></trkpt><trkpt lat="44.38824517303656" lon="10.122487052438776"><ele>946.0</ele><time>2026-04-18T08:18:17.999Z</time></trkpt><trkpt lat="44.388089852739675" lon="10.122474417212883"><ele>948.3333333333333</ele><time>2026-04-18T08:18:18.999Z</time></trkpt><trkpt lat="44.38792715781679" lon="10.122519106146614"><ele>950.6666666666667</ele><time>2026-04-18T08:18:19.999Z</time></trkpt><trkpt lat="44.38775149105342" lon="10.122612243750133"><ele>953.0</ele><time>2026-04-18T08:18:20.999Z</time></trkpt><trkpt lat="44.38756340054599" lon="10.122667226683907"><ele>953.0</ele><time>2026-04-18T08:18:21.999Z</time></trkpt><trkpt lat="44.38736571317102" lon="10.122686448632079"><ele>953.0</ele><time>2026-04-18T08:18:22.999Z</time></trkpt><trkpt lat="44.38715694692008" lon="10.122696005466851"><ele>953.0</ele><time>2026-04-18T08:18:23.999Z</time></trkpt><trkpt lat="44.38695931195382" lon="10.122727174421104"><ele>955.6666666666667</ele><time>2026-04-18T08:18:24.999Z</time></trkpt><trkpt lat="44.386765075749764" lon="10.122795468848448"><ele>958.3333333333333</ele><time>2026-04-18T08:18:25.999Z</time></trkpt><trkpt lat="44.38656618008667" lon="10.122874859956818"><ele>961.0</ele><time>2026-04-18T08:18:26.999Z</time></trkpt><trkpt lat="44.386373923403895" lon="10.122961490598641"><ele>966.3333333333333</ele><time>2026-04-18T08:18:27.999Z</time></trkpt><trkpt lat="44.386192972217785" lon="10.123042839518643"><ele>971.6666666666667</ele><time>2026-04-18T08:18:28.999Z</time></trkpt><trkpt lat="44.386012174870736" lon="10.123083226770726"><ele>977.0</ele><time>2026-04-18T08:18:29.999Z</time></trkpt><trkpt lat="44.38585122003454" lon="10.123159770512185"><ele>973.0</ele><time>2026-04-18T08:18:30.999Z</time></trkpt><trkpt lat="44.3857196840644" lon="10.123286888705705"><ele>969.0</ele><time>2026-04-18T08:18:31.999Z</time></trkpt><trkpt lat="44.38558328505986" lon="10.123460537721376"><ele>965.0</ele><time>2026-04-18T08:18:32.999Z</time></trkpt><trkpt lat="44.38542276825017" lon="10.123593144627614"><ele>965.0</ele><time>2026-04-18T08:18:33.999Z</time></trkpt><trkpt lat="44.385261722763005" lon="10.12373933171999"><ele>965.0</ele><time>2026-04-18T08:18:34.999Z</time></trkpt><trkpt lat="44.385094112524385" lon="10.123856400444978"><ele>965.0</ele><time>2026-04-18T08:18:35.999Z</time></trkpt><trkpt lat="44.38492663543953" lon="10.123949250661976"><ele>965.0</ele><time>2026-04-18T08:18:36.999Z</time></trkpt><trkpt lat="44.384776344206124" lon="10.124046741885634"><ele>965.0</ele><time>2026-04-18T08:18:37.999Z</time></trkpt><trkpt lat="44.384661558307094" lon="10.124143782965486"><ele>965.0</ele><time>2026-04-18T08:18:38.999Z</time></trkpt><trkpt lat="44.38459287265778" lon="10.124272639792535"><ele>965.0</ele><time>2026-04-18T08:18:39.999Z</time></trkpt><trkpt lat="44.384536740282925" lon="10.124461563846983"><ele>961.0</ele><time>2026-04-18T08:18:40.999Z</time></trkpt><trkpt lat="44.384490021165306" lon="10.12470025993261"><ele>957.0</ele><time>2026-04-18T08:18:41.999Z</time></trkpt><trkpt lat="44.38442347080052" lon="10.124928752061912"><ele>953.0</ele><time>2026-04-18T08:18:42.999Z</time></trkpt><trkpt lat="44.384376177591335" lon="10.1251421702306"><ele>954.25</ele><time>2026-04-18T08:18:43.999Z</time></trkpt><trkpt lat="44.384336911675064" lon="10.125328148208094"><ele>955.5</ele><time>2026-04-18T08:18:44.999Z</time></trkpt><trkpt lat="44.38431872723411" lon="10.12550445678922"><ele>956.75</ele><time>2026-04-18T08:18:45.999Z</time></trkpt><trkpt lat="44.384370452302726" lon="10.125669458659152"><ele>958.0</ele><time>2026-04-18T08:18:46.999Z</time></trkpt><trkpt lat="44.384484655466025" lon="10.125764912361408"><ele>958.0</ele><time>2026-04-18T08:18:47.999Z</time></trkpt><trkpt lat="44.38463901631411" lon="10.125817046615168"><ele>958.0</ele><time>2026-04-18T08:18:48.999Z</time></trkpt><trkpt lat="44.38484040978265" lon="10.125808021378173"><ele>958.0</ele><time>2026-04-18T08:18:49.999Z</time></trkpt><trkpt lat="44.38504224197837" lon="10.12581424010142"><ele>955.3333333333333</ele><time>2026-04-18T08:18:50.999Z</time></trkpt><trkpt lat="44.38521798683182" lon="10.125827192574041"><ele>952.6666666666667</ele><time>2026-04-18T08:18:51.999Z</time></trkpt><trkpt lat="44.38537547917763" lon="10.125776736704038"><ele>950.0</ele><time>2026-04-18T08:18:52.999Z</time></trkpt><trkpt lat="44.385546268810494" lon="10.125679927853236"><ele>944.6666666666667</ele><time>2026-04-18T08:18:53.999Z</time></trkpt><trkpt lat="44.385710097402274" lon="10.125581995704168"><ele>939.3333333333333</ele><time>2026-04-18T08:18:54.999Z</time></trkpt><trkpt lat="44.38582354530703" lon="10.125459920629527"><ele>934.0</ele><time>2026-04-18T08:18:55.999Z</time></trkpt><trkpt lat="44.38591252361652" lon="10.125315906046776"><ele>934.0</ele><time>2026-04-18T08:18:56.999Z</time></trkpt><trkpt lat="44.38601997325689" lon="10.125267104725275"><ele>934.0</ele><time>2026-04-18T08:18:57.999Z</time></trkpt><trkpt lat="44.386143847328285" lon="10.125264412460018"><ele>934.0</ele><time>2026-04-18T08:18:58.999Z</time></trkpt><trkpt lat="44.3862884260093" lon="10.125296681933543"><ele>934.0</ele><time>2026-04-18T08:18:59.999Z</time></trkpt><trkpt lat="44.38644566194414" lon="10.125375375419287"><ele>935.6666666666666</ele><time>2026-04-18T08:19:00.999Z</time></trkpt><trkpt lat="44.38662789065072" lon="10.125403768307407"><ele>937.3333333333333</ele><time>2026-04-18T08:19:01.999Z</time></trkpt><trkpt lat="44.38681860042167" lon="10.125432479099926"><ele>939.0</ele><time>2026-04-18T08:19:02.999Z</time></trkpt><trkpt lat="44.38701462493397" lon="10.125478416433257"><ele>939.0</ele><time>2026-04-18T08:19:03.999Z</time></trkpt><trkpt lat="44.387175639547245" lon="10.125547431462053"><ele>939.0</ele><time>2026-04-18T08:19:04.999Z</time></trkpt><trkpt lat="44.38731980028169" lon="10.125661198561044"><ele>939.0</ele><time>2026-04-18T08:19:05.999Z</time></trkpt><trkpt lat="44.3875007397943" lon="10.125752043170838"><ele>948.0</ele><time>2026-04-18T08:19:06.999Z</time></trkpt><trkpt lat="44.38769098307798" lon="10.125826925495033"><ele>957.0</ele><time>2026-04-18T08:19:08Z</time></trkpt><trkpt lat="44.38789747287434" lon="10.125833517922239"><ele>966.0</ele><time>2026-04-18T08:19:09Z</time></trkpt><trkpt lat="44.38812243041027" lon="10.12584010511383"><ele>966.0</ele><time>2026-04-18T08:19:10Z</time></trkpt><trkpt lat="44.388345197097955" lon="10.125833625281173"><ele>966.0</ele><time>2026-04-18T08:19:11Z</time></trkpt><trkpt lat="44.388549567667916" lon="10.125852385053218"><ele>966.0</ele><time>2026-04-18T08:19:12Z</time></trkpt><trkpt lat="44.38870776159055" lon="10.125862233855125"><ele>966.0</ele><time>2026-04-18T08:19:13Z</time></trkpt><trkpt lat="44.38883424930106" lon="10.125917549409191"><ele>966.0</ele><time>2026-04-18T08:19:14Z</time></trkpt><trkpt lat="44.38893419473179" lon="10.126042513380392"><ele>966.0</ele><time>2026-04-18T08:19:15Z</time></trkpt><trkpt lat="44.38902741490541" lon="10.126207592970962"><ele>966.0</ele><time>2026-04-18T08:19:16Z</time></trkpt><trkpt lat="44.38905044766291" lon="10.126379856583533"><ele>964.75</ele><time>2026-04-18T08:19:17Z</time></trkpt><trkpt lat="44.38903934403366" lon="10.126559005466069"><ele>963.5</ele><time>2026-04-18T08:19:18Z</time></trkpt><trkpt lat="44.38896208026582" lon="10.12673350544635"><ele>962.25</ele><time>2026-04-18T08:19:19Z</time></trkpt><trkpt lat="44.38885387495351" lon="10.126922324285081"><ele>961.0</ele><time>2026-04-18T08:19:20Z</time></trkpt><trkpt lat="44.38873546529014" lon="10.12707093371301"><ele>969.0</ele><time>2026-04-18T08:19:21Z</time></trkpt><trkpt lat="44.38859126524099" lon="10.127171364499583"><ele>977.0</ele><time>2026-04-18T08:19:22Z</time></trkpt><trkpt lat="44.3884231326946" lon="10.127264659579279"><ele>985.0</ele><time>2026-04-18T08:19:23Z</time></trkpt><trkpt lat="44.38826493064798" lon="10.127319168322229"><ele>985.0</ele><time>2026-04-18T08:19:24Z</time></trkpt><trkpt lat="44.38812857726578" lon="10.12737518078017"><ele>985.0</ele><time>2026-04-18T08:19:25Z</time></trkpt><trkpt lat="44.38799616063032" lon="10.12742848132546"><ele>985.0</ele><time>2026-04-18T08:19:26Z</time></trkpt><trkpt lat="44.38786578546403" lon="10.12747967866799"><ele>985.0</ele><time>2026-04-18T08:19:27Z</time></trkpt><trkpt lat="44.387737468150604" lon="10.127530179401663"><ele>987.5</ele><time>2026-04-18T08:19:28Z</time></trkpt><trkpt lat="44.387611812811954" lon="10.127584162673378"><ele>990.0</ele><time>2026-04-18T08:19:29Z</time></trkpt><trkpt lat="44.38748641221938" lon="10.127647995869928"><ele>992.5</ele><time>2026-04-18T08:19:30Z</time></trkpt><trkpt lat="44.38736328656613" lon="10.127707192423067"><ele>995.0</ele><time>2026-04-18T08:19:31Z</time></trkpt><trkpt lat="44.387238346591374" lon="10.127761108908556"><ele>998.75</ele><time>2026-04-18T08:19:32Z</time></trkpt><trkpt lat="44.38710954347102" lon="10.127812918060572"><ele>1002.5</ele><time>2026-04-18T08:19:33Z</time></trkpt><trkpt lat="44.386970701728195" lon="10.127862757112414"><ele>1006.25</ele><time>2026-04-18T08:19:34Z</time></trkpt><trkpt lat="44.3868216176669" lon="10.127899780262096"><ele>1010.0</ele><time>2026-04-18T08:19:35Z</time></trkpt><trkpt lat="44.38668281433137" lon="10.127937439553262"><ele>1010.0</ele><time>2026-04-18T08:19:36Z</time></trkpt><trkpt lat="44.38653728571523" lon="10.127978020186045"><ele>1010.0</ele><time>2026-04-18T08:19:37Z</time></trkpt><trkpt lat="44.386396296946145" lon="10.128027458654747"><ele>1010.0</ele><time>2026-04-18T08:19:38Z</time></trkpt><trkpt lat="44.38625527433499" lon="10.128087651838168"><ele>1010.0</ele><time>2026-04-18T08:19:39Z</time></trkpt><trkpt lat="44.38611647609631" lon="10.128142970444063"><ele>1009.5</ele><time>2026-04-18T08:19:40Z</time></trkpt><trkpt lat="44.38598688355461" lon="10.128199586959886"><ele>1009.0</ele><time>2026-04-18T08:19:41Z</time></trkpt><trkpt lat="44.38585775209792" lon="10.128260626486833"><ele>1008.5</ele><time>2026-04-18T08:19:42Z</time></trkpt><trkpt lat="44.38572851820432" lon="10.128324906293827"><ele>1008.0</ele><time>2026-04-18T08:19:43Z</time></trkpt><trkpt lat="44.38560211842502" lon="10.128392263061057"><ele>1011.75</ele><time>2026-04-18T08:19:44Z</time></trkpt><trkpt lat="44.385477171999504" lon="10.128460394722866"><ele>1015.5</ele><time>2026-04-18T08:19:45Z</time></trkpt><trkpt lat="44.38534257447735" lon="10.128537761646784"><ele>1019.25</ele><time>2026-04-18T08:19:46Z</time></trkpt><trkpt lat="44.38521872322965" lon="10.128625490121609"><ele>1023.0</ele><time>2026-04-18T08:19:47Z</time></trkpt><trkpt lat="44.38510101572096" lon="10.12873308679282"><ele>1023.0</ele><time>2026-04-18T08:19:48Z</time></trkpt><trkpt lat="44.38497390931735" lon="10.128859029951952"><ele>1023.0</ele><time>2026-04-18T08:19:49Z</time></trkpt><trkpt lat="44.38483680252696" lon="10.12899282436801"><ele>1023.0</ele><time>2026-04-18T08:19:50Z</time></trkpt><trkpt lat="44.384697342773265" lon="10.129128148286195"><ele>1026.3333333333333</ele><time>2026-04-18T08:19:51Z</time></trkpt><trkpt lat="44.384563189821314" lon="10.129252485667065"><ele>1029.6666666666665</ele><time>2026-04-18T08:19:52Z</time></trkpt><trkpt lat="44.384440164312934" lon="10.129377091467429"><ele>1033.0</ele><time>2026-04-18T08:19:53Z</time></trkpt><trkpt lat="44.38432944640951" lon="10.129528437484629"><ele>1033.0</ele><time>2026-04-18T08:19:54Z</time></trkpt><trkpt lat="44.38425033340087" lon="10.129706147175222"><ele>1033.0</ele><time>2026-04-18T08:19:55Z</time></trkpt><trkpt lat="44.384189684191014" lon="10.129877033382034"><ele>1033.0</ele><time>2026-04-18T08:19:56Z</time></trkpt><trkpt lat="44.384118946268195" lon="10.129981801692514"><ele>1033.0</ele><time>2026-04-18T08:19:57Z</time></trkpt><trkpt lat="44.38406415100988" lon="10.130075773539726"><ele>1033.0</ele><time>2026-04-18T08:19:58Z</time></trkpt><trkpt lat="44.38398574743326" lon="10.130081998470027"><ele>1033.0</ele><time>2026-04-18T08:19:59Z</time></trkpt><trkpt lat="44.38390458727" lon="10.129855711053105"><ele>1033.0</ele><time>2026-04-18T08:20:01Z</time></trkpt><trkpt lat="44.38391874534341" lon="10.129740235530647"><ele>1033.0</ele><time>2026-04-18T08:20:02Z</time></trkpt><trkpt lat="44.384059289254644" lon="10.129649124148013"><ele>1033.0</ele><time>2026-04-18T08:20:03Z</time></trkpt><trkpt lat="44.384178710537036" lon="10.129490538548671"><ele>1033.0</ele><time>2026-04-18T08:20:04Z</time></trkpt><trkpt lat="44.384294593134314" lon="10.129350898747704"><ele>1033.0</ele><time>2026-04-18T08:20:05Z</time></trkpt><trkpt lat="44.38439236907675" lon="10.129228342755917"><ele>1033.0</ele><time>2026-04-18T08:20:06Z</time></trkpt><trkpt lat="44.384462984569296" lon="10.129128289845196"><ele>1033.8</ele><time>2026-04-18T08:20:07Z</time></trkpt><trkpt lat="44.38451838456459" lon="10.129048175464295"><ele>1034.6</ele><time>2026-04-18T08:20:08Z</time></trkpt><trkpt lat="44.38456034352449" lon="10.128979588058412"><ele>1035.4</ele><time>2026-04-18T08:20:09Z</time></trkpt><trkpt lat="44.38457378127752" lon="10.128813239202486"><ele>1036.2</ele><time>2026-04-18T08:20:11Z</time></trkpt><trkpt lat="44.384525279763345" lon="10.128729613764188"><ele>1037.0</ele><time>2026-04-18T08:20:12Z</time></trkpt><trkpt lat="44.38436933795327" lon="10.128766582019459"><ele>1037.0</ele><time>2026-04-18T08:20:14Z</time></trkpt><trkpt lat="44.38426473681572" lon="10.128907894447725"><ele>1037.0</ele><time>2026-04-18T08:20:14.999Z</time></trkpt><trkpt lat="44.38415521346205" lon="10.129091731946701"><ele>1037.0</ele><time>2026-04-18T08:20:15.999Z</time></trkpt><trkpt lat="44.38404899781195" lon="10.129274733735416"><ele>1035.6666666666667</ele><time>2026-04-18T08:20:16.999Z</time></trkpt><trkpt lat="44.38393220158021" lon="10.12947087749901"><ele>1034.3333333333333</ele><time>2026-04-18T08:20:17.999Z</time></trkpt><trkpt lat="44.383802561870965" lon="10.129662148524137"><ele>1033.0</ele><time>2026-04-18T08:20:18.999Z</time></trkpt><trkpt lat="44.38366143727205" lon="10.12980939900276"><ele>1035.0</ele><time>2026-04-18T08:20:19.999Z</time></trkpt><trkpt lat="44.383492695212404" lon="10.129925013847798"><ele>1037.0</ele><time>2026-04-18T08:20:20.999Z</time></trkpt><trkpt lat="44.383289916202486" lon="10.130043629480221"><ele>1039.0</ele><time>2026-04-18T08:20:21.999Z</time></trkpt><trkpt lat="44.38309374512427" lon="10.13017144736202"><ele>1040.3333333333333</ele><time>2026-04-18T08:20:22.999Z</time></trkpt><trkpt lat="44.382893735432816" lon="10.130275760500849"><ele>1041.6666666666667</ele><time>2026-04-18T08:20:23.999Z</time></trkpt><trkpt lat="44.382683596712226" lon="10.13039869968385"><ele>1043.0</ele><time>2026-04-18T08:20:24.999Z</time></trkpt><trkpt lat="44.382485832320725" lon="10.130518319356376"><ele>1043.0</ele><time>2026-04-18T08:20:25.999Z</time></trkpt><trkpt lat="44.38228294168581" lon="10.130636670279886"><ele>1043.0</ele><time>2026-04-18T08:20:26.999Z</time></trkpt><trkpt lat="44.382104015003954" lon="10.13074456466181"><ele>1043.0</ele><time>2026-04-18T08:20:27.999Z</time></trkpt><trkpt lat="44.38194551685216" lon="10.13083474453134"><ele>1043.3333333333335</ele><time>2026-04-18T08:20:28.999Z</time></trkpt><trkpt lat="44.3818010017016" lon="10.130890603834981"><ele>1043.6666666666667</ele><time>2026-04-18T08:20:29.999Z</time></trkpt><trkpt lat="44.38164790618754" lon="10.130855531743007"><ele>1044.0</ele><time>2026-04-18T08:20:30.999Z</time></trkpt><trkpt lat="44.381467157623916" lon="10.13080590475287"><ele>1045.6666666666667</ele><time>2026-04-18T08:20:31.999Z</time></trkpt><trkpt lat="44.381268447068315" lon="10.130680745969562"><ele>1047.3333333333335</ele><time>2026-04-18T08:20:32.999Z</time></trkpt><trkpt lat="44.38105674504582" lon="10.130585139405838"><ele>1049.0</ele><time>2026-04-18T08:20:33.999Z</time></trkpt><trkpt lat="44.380846807428256" lon="10.130514827799837"><ele>1049.0</ele><time>2026-04-18T08:20:34.999Z</time></trkpt><trkpt lat="44.38063385015581" lon="10.13046493012377"><ele>1049.0</ele><time>2026-04-18T08:20:35.999Z</time></trkpt><trkpt lat="44.38042880067659" lon="10.130460033522615"><ele>1049.0</ele><time>2026-04-18T08:20:36.999Z</time></trkpt><trkpt lat="44.38023516234448" lon="10.130492660723997"><ele>1050.3333333333335</ele><time>2026-04-18T08:20:37.999Z</time></trkpt><trkpt lat="44.38003922796933" lon="10.13059172090531"><ele>1051.6666666666667</ele><time>2026-04-18T08:20:38.999Z</time></trkpt><trkpt lat="44.379877685881276" lon="10.130677729475371"><ele>1053.0</ele><time>2026-04-18T08:20:39.999Z</time></trkpt><trkpt lat="44.379747745584424" lon="10.130653992652386"><ele>1055.6666666666667</ele><time>2026-04-18T08:20:40.999Z</time></trkpt><trkpt lat="44.3795771334263" lon="10.130578469861797"><ele>1058.3333333333335</ele><time>2026-04-18T08:20:41.999Z</time></trkpt><trkpt lat="44.37938997308916" lon="10.130481533058758"><ele>1061.0</ele><time>2026-04-18T08:20:42.999Z</time></trkpt><trkpt lat="44.37919647057464" lon="10.130431288410636"><ele>1061.0</ele><time>2026-04-18T08:20:43.999Z</time></trkpt><trkpt lat="44.379007257615726" lon="10.130381074623097"><ele>1061.0</ele><time>2026-04-18T08:20:44.999Z</time></trkpt><trkpt lat="44.37883032280744" lon="10.130269965819345"><ele>1061.0</ele><time>2026-04-18T08:20:45.999Z</time></trkpt><trkpt lat="44.37864903766908" lon="10.130163248935647"><ele>1063.3333333333335</ele><time>2026-04-18T08:20:46.999Z</time></trkpt><trkpt lat="44.37846853418197" lon="10.13010342292326"><ele>1065.6666666666667</ele><time>2026-04-18T08:20:47.999Z</time></trkpt><trkpt lat="44.37828846562518" lon="10.13007494257822"><ele>1068.0</ele><time>2026-04-18T08:20:48.999Z</time></trkpt><trkpt lat="44.378136924755296" lon="10.130027853335971"><ele>1068.6666666666667</ele><time>2026-04-18T08:20:49.999Z</time></trkpt><trkpt lat="44.37798252419932" lon="10.129902271790014"><ele>1069.3333333333335</ele><time>2026-04-18T08:20:50.999Z</time></trkpt><trkpt lat="44.377820461381525" lon="10.129764545226012"><ele>1070.0</ele><time>2026-04-18T08:20:51.999Z</time></trkpt><trkpt lat="44.377636751274544" lon="10.129663739141456"><ele>1071.5</ele><time>2026-04-18T08:20:52.999Z</time></trkpt><trkpt lat="44.377464132819526" lon="10.129589532933064"><ele>1073.0</ele><time>2026-04-18T08:20:53.999Z</time></trkpt><trkpt lat="44.37732833068273" lon="10.129544641645737"><ele>1074.5</ele><time>2026-04-18T08:20:54.999Z</time></trkpt><trkpt lat="44.377225821860655" lon="10.12950900088167"><ele>1076.0</ele><time>2026-04-18T08:20:55.999Z</time></trkpt><trkpt lat="44.377142380226445" lon="10.129512882029836"><ele>1080.25</ele><time>2026-04-18T08:20:56.999Z</time></trkpt><trkpt lat="44.37707339712806" lon="10.129590807125197"><ele>1084.5</ele><time>2026-04-18T08:20:57.999Z</time></trkpt><trkpt lat="44.37702971465286" lon="10.129773574536587"><ele>1088.75</ele><time>2026-04-18T08:20:58.999Z</time></trkpt><trkpt lat="44.376953892564934" lon="10.129963651382525"><ele>1093.0</ele><time>2026-04-18T08:20:59.999Z</time></trkpt><trkpt lat="44.37685973690881" lon="10.130124106487228"><ele>1093.0</ele><time>2026-04-18T08:21:00.999Z</time></trkpt><trkpt lat="44.37672743596941" lon="10.130244080607435"><ele>1093.0</ele><time>2026-04-18T08:21:01.999Z</time></trkpt><trkpt lat="44.37654672466986" lon="10.13034157494131"><ele>1093.0</ele><time>2026-04-18T08:21:02.999Z</time></trkpt><trkpt lat="44.37637057079615" lon="10.130490291457834"><ele>1095.3333333333333</ele><time>2026-04-18T08:21:03.999Z</time></trkpt><trkpt lat="44.37621731548893" lon="10.130699794458154"><ele>1097.6666666666667</ele><time>2026-04-18T08:21:04.999Z</time></trkpt><trkpt lat="44.376115048074965" lon="10.130882288192963"><ele>1100.0</ele><time>2026-04-18T08:21:05.999Z</time></trkpt><trkpt lat="44.37599325611318" lon="10.130982125181486"><ele>1100.0</ele><time>2026-04-18T08:21:06.999Z</time></trkpt><trkpt lat="44.375902312870814" lon="10.130995789630022"><ele>1100.0</ele><time>2026-04-18T08:21:07.999Z</time></trkpt><trkpt lat="44.37577750151596" lon="10.130953497342901"><ele>1100.0</ele><time>2026-04-18T08:21:08.999Z</time></trkpt><trkpt lat="44.37560487367105" lon="10.130938910562831"><ele>1100.0</ele><time>2026-04-18T08:21:09.999Z</time></trkpt><trkpt lat="44.375451111484324" lon="10.131033958169876"><ele>1103.25</ele><time>2026-04-18T08:21:10.999Z</time></trkpt><trkpt lat="44.3752785469151" lon="10.131155942778426"><ele>1106.5</ele><time>2026-04-18T08:21:11.999Z</time></trkpt><trkpt lat="44.375128932199395" lon="10.131217682161298"><ele>1109.75</ele><time>2026-04-18T08:21:12.999Z</time></trkpt><trkpt lat="44.37506156655545" lon="10.13128902382348"><ele>1113.0</ele><time>2026-04-18T08:21:14Z</time></trkpt><trkpt lat="44.3750238857726" lon="10.131363324538754"><ele>1113.0</ele><time>2026-04-18T08:21:15Z</time></trkpt><trkpt lat="44.37501308615935" lon="10.131498891731274"><ele>1113.0</ele><time>2026-04-18T08:21:16Z</time></trkpt><trkpt lat="44.37509437384118" lon="10.131684634923214"><ele>1113.0</ele><time>2026-04-18T08:21:17Z</time></trkpt><trkpt lat="44.375206484086945" lon="10.131833741700019"><ele>1113.0</ele><time>2026-04-18T08:21:18Z</time></trkpt><trkpt lat="44.37536389877399" lon="10.131940097071821"><ele>1106.75</ele><time>2026-04-18T08:21:19Z</time></trkpt><trkpt lat="44.37554509528929" lon="10.13199212236867"><ele>1100.5</ele><time>2026-04-18T08:21:20Z</time></trkpt><trkpt lat="44.37564747989978" lon="10.132098665913201"><ele>1094.25</ele><time>2026-04-18T08:21:21Z</time></trkpt><trkpt lat="44.375679382795695" lon="10.132205781740032"><ele>1088.0</ele><time>2026-04-18T08:21:22Z</time></trkpt><trkpt lat="44.375647954149805" lon="10.132369136839129"><ele>1090.3333333333335</ele><time>2026-04-18T08:21:23Z</time></trkpt><trkpt lat="44.37558296541903" lon="10.13257026036855"><ele>1092.6666666666667</ele><time>2026-04-18T08:21:24Z</time></trkpt><trkpt lat="44.375527525251826" lon="10.132839333301082"><ele>1095.0</ele><time>2026-04-18T08:21:25Z</time></trkpt><trkpt lat="44.375518335376725" lon="10.13308257860252"><ele>1097.0</ele><time>2026-04-18T08:21:26Z</time></trkpt><trkpt lat="44.375536547379355" lon="10.133293847484596"><ele>1099.0</ele><time>2026-04-18T08:21:27Z</time></trkpt><trkpt lat="44.37561182658165" lon="10.133462261292376"><ele>1101.0</ele><time>2026-04-18T08:21:28Z</time></trkpt><trkpt lat="44.375757446029745" lon="10.133620205727627"><ele>1101.0</ele><time>2026-04-18T08:21:29Z</time></trkpt><trkpt lat="44.375916640829914" lon="10.13378554166609"><ele>1101.0</ele><time>2026-04-18T08:21:30Z</time></trkpt><trkpt lat="44.37600933398613" lon="10.133905937117262"><ele>1101.0</ele><time>2026-04-18T08:21:31Z</time></trkpt><trkpt lat="44.376086528693435" lon="10.133981571479524"><ele>1101.0</ele><time>2026-04-18T08:21:32Z</time></trkpt><trkpt lat="44.3763047299819" lon="10.134078368568414"><ele>1103.6666666666667</ele><time>2026-04-18T08:21:33Z</time></trkpt><trkpt lat="44.37647027787276" lon="10.134166380602924"><ele>1106.3333333333335</ele><time>2026-04-18T08:21:34Z</time></trkpt><trkpt lat="44.376572089572015" lon="10.134300324740414"><ele>1109.0</ele><time>2026-04-18T08:21:35Z</time></trkpt><trkpt lat="44.37669444823261" lon="10.134434808533571"><ele>1109.0</ele><time>2026-04-18T08:21:36Z</time></trkpt><trkpt lat="44.37679569009679" lon="10.134586262805401"><ele>1109.0</ele><time>2026-04-18T08:21:37Z</time></trkpt><trkpt lat="44.37690141549988" lon="10.134720583982467"><ele>1109.0</ele><time>2026-04-18T08:21:38Z</time></trkpt><trkpt lat="44.377008402754356" lon="10.134842830751289"><ele>1109.0</ele><time>2026-04-18T08:21:39Z</time></trkpt><trkpt lat="44.377119851233715" lon="10.134965723627719"><ele>1110.5</ele><time>2026-04-18T08:21:40Z</time></trkpt><trkpt lat="44.3772424398273" lon="10.135068752556524"><ele>1112.0</ele><time>2026-04-18T08:21:41Z</time></trkpt><trkpt lat="44.377371391065424" lon="10.135155317933068"><ele>1113.5</ele><time>2026-04-18T08:21:42Z</time></trkpt><trkpt lat="44.37747893564757" lon="10.135239653945584"><ele>1115.0</ele><time>2026-04-18T08:21:43Z</time></trkpt><trkpt lat="44.377588360582884" lon="10.135376581862486"><ele>1115.0</ele><time>2026-04-18T08:21:44Z</time></trkpt><trkpt lat="44.37769189476912" lon="10.135548128778819"><ele>1115.0</ele><time>2026-04-18T08:21:45Z</time></trkpt><trkpt lat="44.37779363102454" lon="10.135718586092757"><ele>1115.0</ele><time>2026-04-18T08:21:46Z</time></trkpt><trkpt lat="44.37791445522339" lon="10.135826138292519"><ele>1117.0</ele><time>2026-04-18T08:21:47Z</time></trkpt><trkpt lat="44.37806920044326" lon="10.13585808593348"><ele>1119.0</ele><time>2026-04-18T08:21:48Z</time></trkpt><trkpt lat="44.37821988607093" lon="10.135866040951171"><ele>1121.0</ele><time>2026-04-18T08:21:49Z</time></trkpt><trkpt lat="44.37831453643191" lon="10.135957412051177"><ele>1123.0</ele><time>2026-04-18T08:21:50Z</time></trkpt><trkpt lat="44.378393609789406" lon="10.136098069069138"><ele>1123.0</ele><time>2026-04-18T08:21:51Z</time></trkpt><trkpt lat="44.3784667421962" lon="10.136305257569846"><ele>1123.0</ele><time>2026-04-18T08:21:52Z</time></trkpt><trkpt lat="44.37853231189715" lon="10.136515976996176"><ele>1123.0</ele><time>2026-04-18T08:21:53Z</time></trkpt><trkpt lat="44.378569319613696" lon="10.136690483188874"><ele>1125.5</ele><time>2026-04-18T08:21:54Z</time></trkpt><trkpt lat="44.37856466731489" lon="10.136852880189744"><ele>1128.0</ele><time>2026-04-18T08:21:55Z</time></trkpt><trkpt lat="44.37850716183991" lon="10.136998721882957"><ele>1130.5</ele><time>2026-04-18T08:21:56Z</time></trkpt><trkpt lat="44.37840865528715" lon="10.137136093137656"><ele>1133.0</ele><time>2026-04-18T08:21:57Z</time></trkpt><trkpt lat="44.378312727215246" lon="10.137238771874038"><ele>1133.0</ele><time>2026-04-18T08:21:58Z</time></trkpt><trkpt lat="44.37824720248104" lon="10.137339372346535"><ele>1133.0</ele><time>2026-04-18T08:21:59Z</time></trkpt><trkpt lat="44.37821020931432" lon="10.137449591642623"><ele>1133.0</ele><time>2026-04-18T08:22:00Z</time></trkpt><trkpt lat="44.378202885943544" lon="10.137583054439176"><ele>1133.0</ele><time>2026-04-18T08:22:01Z</time></trkpt><trkpt lat="44.378190678127886" lon="10.137756468054938"><ele>1133.0</ele><time>2026-04-18T08:22:02Z</time></trkpt><trkpt lat="44.37817992192891" lon="10.1379430759996"><ele>1134.75</ele><time>2026-04-18T08:22:03Z</time></trkpt><trkpt lat="44.37815622224702" lon="10.138159182005044"><ele>1136.5</ele><time>2026-04-18T08:22:04Z</time></trkpt><trkpt lat="44.37813516053863" lon="10.13834621628867"><ele>1138.25</ele><time>2026-04-18T08:22:05Z</time></trkpt><trkpt lat="44.37810304708265" lon="10.138483864856694"><ele>1140.0</ele><time>2026-04-18T08:22:06Z</time></trkpt><trkpt lat="44.37805102777697" lon="10.13857621772834"><ele>1145.2</ele><time>2026-04-18T08:22:07Z</time></trkpt><trkpt lat="44.377996477014044" lon="10.138644124662243"><ele>1150.4</ele><time>2026-04-18T08:22:08Z</time></trkpt><trkpt lat="44.377942056717465" lon="10.138715879432386"><ele>1155.6</ele><time>2026-04-18T08:22:09Z</time></trkpt><trkpt lat="44.37787672920191" lon="10.138799343701798"><ele>1160.8</ele><time>2026-04-18T08:22:10Z</time></trkpt><trkpt lat="44.37779525929215" lon="10.138894335244002"><ele>1166.0</ele><time>2026-04-18T08:22:11Z</time></trkpt><trkpt lat="44.37770964131926" lon="10.138986323675988"><ele>1166.0</ele><time>2026-04-18T08:22:12Z</time></trkpt><trkpt lat="44.37761505658496" lon="10.139045682627973"><ele>1166.0</ele><time>2026-04-18T08:22:13Z</time></trkpt><trkpt lat="44.37750519090239" lon="10.139081810681219"><ele>1166.0</ele><time>2026-04-18T08:22:14Z</time></trkpt><trkpt lat="44.37740863950318" lon="10.139079252885777"><ele>1166.0</ele><time>2026-04-18T08:22:15Z</time></trkpt><trkpt lat="44.37733223471408" lon="10.139074376016415"><ele>1166.0</ele><time>2026-04-18T08:22:16Z</time></trkpt><trkpt lat="44.37726586037984" lon="10.139057434844279"><ele>1166.0</ele><time>2026-04-18T08:22:17Z</time></trkpt><trkpt lat="44.37720507717463" lon="10.139025528390697"><ele>1166.0</ele><time>2026-04-18T08:22:18Z</time></trkpt><trkpt lat="44.377137466065435" lon="10.138972162197284"><ele>1166.0</ele><time>2026-04-18T08:22:19Z</time></trkpt><trkpt lat="44.37705505252798" lon="10.138912786131538"><ele>1166.0</ele><time>2026-04-18T08:22:20Z</time></trkpt><trkpt lat="44.3769684065237" lon="10.138844548544812"><ele>1166.0</ele><time>2026-04-18T08:22:21Z</time></trkpt><trkpt lat="44.376882914105245" lon="10.138763949519895"><ele>1166.0</ele><time>2026-04-18T08:22:22Z</time></trkpt><trkpt lat="44.37678649282223" lon="10.138693866219038"><ele>1165.75</ele><time>2026-04-18T08:22:22.999Z</time></trkpt><trkpt lat="44.3766836317274" lon="10.138620836142744"><ele>1165.5</ele><time>2026-04-18T08:22:23.999Z</time></trkpt><trkpt lat="44.37657572585848" lon="10.138543221865838"><ele>1165.25</ele><time>2026-04-18T08:22:24.999Z</time></trkpt><trkpt lat="44.37646076040541" lon="10.138469098625798"><ele>1165.0</ele><time>2026-04-18T08:22:25.999Z</time></trkpt><trkpt lat="44.37633292151831" lon="10.138403259684662"><ele>1162.25</ele><time>2026-04-18T08:22:26.999Z</time></trkpt><trkpt lat="44.37621121802744" lon="10.138328761057235"><ele>1159.5</ele><time>2026-04-18T08:22:27.999Z</time></trkpt><trkpt lat="44.37609695928757" lon="10.138254821534264"><ele>1156.75</ele><time>2026-04-18T08:22:28.999Z</time></trkpt><trkpt lat="44.3759779240879" lon="10.138177916650829"><ele>1154.0</ele><time>2026-04-18T08:22:29.999Z</time></trkpt><trkpt lat="44.37584913552931" lon="10.138064944344727"><ele>1154.0</ele><time>2026-04-18T08:22:30.999Z</time></trkpt><trkpt lat="44.37577524501712" lon="10.137918891562206"><ele>1154.0</ele><time>2026-04-18T08:22:31.999Z</time></trkpt><trkpt lat="44.3757442388399" lon="10.137784967978842"><ele>1154.0</ele><time>2026-04-18T08:22:32.999Z</time></trkpt><trkpt lat="44.37573023756074" lon="10.137628598853322"><ele>1154.0</ele><time>2026-04-18T08:22:33.999Z</time></trkpt><trkpt lat="44.37568444669048" lon="10.137419218911035"><ele>1156.3333333333335</ele><time>2026-04-18T08:22:34.999Z</time></trkpt><trkpt lat="44.37563548302847" lon="10.137217375976837"><ele>1158.6666666666667</ele><time>2026-04-18T08:22:35.999Z</time></trkpt><trkpt lat="44.37555069828514" lon="10.1370337239039"><ele>1161.0</ele><time>2026-04-18T08:22:36.999Z</time></trkpt><trkpt lat="44.37546955064992" lon="10.136849984858081"><ele>1158.5</ele><time>2026-04-18T08:22:37.999Z</time></trkpt><trkpt lat="44.37540822231862" lon="10.136669856428671"><ele>1156.0</ele><time>2026-04-18T08:22:38.999Z</time></trkpt><trkpt lat="44.37536093086968" lon="10.136486911567252"><ele>1153.5</ele><time>2026-04-18T08:22:39.999Z</time></trkpt><trkpt lat="44.37531771356046" lon="10.136314507903768"><ele>1151.0</ele><time>2026-04-18T08:22:40.999Z</time></trkpt><trkpt lat="44.37527500112115" lon="10.136166489224193"><ele>1151.0</ele><time>2026-04-18T08:22:41.999Z</time></trkpt><trkpt lat="44.37521874570726" lon="10.13606882884874"><ele>1151.0</ele><time>2026-04-18T08:22:42.999Z</time></trkpt><trkpt lat="44.37511989768259" lon="10.136031460040774"><ele>1151.0</ele><time>2026-04-18T08:22:43.999Z</time></trkpt><trkpt lat="44.37497937242891" lon="10.13606175274086"><ele>1151.0</ele><time>2026-04-18T08:22:44.999Z</time></trkpt><trkpt lat="44.37482692502184" lon="10.13610740718231"><ele>1148.3333333333335</ele><time>2026-04-18T08:22:45.999Z</time></trkpt><trkpt lat="44.374668077137905" lon="10.136096822280878"><ele>1145.6666666666667</ele><time>2026-04-18T08:22:46.999Z</time></trkpt><trkpt lat="44.37450259095963" lon="10.136043350867556"><ele>1143.0</ele><time>2026-04-18T08:22:47.999Z</time></trkpt><trkpt lat="44.37434335056546" lon="10.135974785595645"><ele>1143.0</ele><time>2026-04-18T08:22:48.999Z</time></trkpt><trkpt lat="44.37418569293319" lon="10.135894368045753"><ele>1143.0</ele><time>2026-04-18T08:22:49.999Z</time></trkpt><trkpt lat="44.374032029744825" lon="10.135807768913544"><ele>1143.0</ele><time>2026-04-18T08:22:50.999Z</time></trkpt><trkpt lat="44.373874839045364" lon="10.13576066633788"><ele>1143.3333333333333</ele><time>2026-04-18T08:22:51.999Z</time></trkpt><trkpt lat="44.37371621848921" lon="10.13577867778314"><ele>1143.6666666666665</ele><time>2026-04-18T08:22:52.999Z</time></trkpt><trkpt lat="44.373555689611734" lon="10.135834603570764"><ele>1144.0</ele><time>2026-04-18T08:22:53.999Z</time></trkpt><trkpt lat="44.37339790621305" lon="10.135888836245423"><ele>1144.0</ele><time>2026-04-18T08:22:54.999Z</time></trkpt><trkpt lat="44.37323052904233" lon="10.135926259022265"><ele>1144.0</ele><time>2026-04-18T08:22:55.999Z</time></trkpt><trkpt lat="44.37306381892232" lon="10.135967502378508"><ele>1144.0</ele><time>2026-04-18T08:22:56.999Z</time></trkpt><trkpt lat="44.37289869769472" lon="10.136027576255273"><ele>1145.0</ele><time>2026-04-18T08:22:57.999Z</time></trkpt><trkpt lat="44.37274779198973" lon="10.136137517926024"><ele>1146.0</ele><time>2026-04-18T08:22:58.999Z</time></trkpt><trkpt lat="44.372602941786575" lon="10.13627100251177"><ele>1147.0</ele><time>2026-04-18T08:22:59.999Z</time></trkpt><trkpt lat="44.372450343713915" lon="10.13638821127044"><ele>1147.0</ele><time>2026-04-18T08:23:00.999Z</time></trkpt><trkpt lat="44.37229937833767" lon="10.136486254606737"><ele>1147.0</ele><time>2026-04-18T08:23:01.999Z</time></trkpt><trkpt lat="44.372160478297275" lon="10.13658072306359"><ele>1147.0</ele><time>2026-04-18T08:23:02.999Z</time></trkpt><trkpt lat="44.37202828235809" lon="10.136671538451989"><ele>1144.0</ele><time>2026-04-18T08:23:03.999Z</time></trkpt><trkpt lat="44.37190295239169" lon="10.136753873520172"><ele>1141.0</ele><time>2026-04-18T08:23:04.999Z</time></trkpt><trkpt lat="44.3717784674062" lon="10.13682843116823"><ele>1138.0</ele><time>2026-04-18T08:23:05.999Z</time></trkpt><trkpt lat="44.371656765937196" lon="10.13689384394578"><ele>1135.0</ele><time>2026-04-18T08:23:06.999Z</time></trkpt><trkpt lat="44.37154885278531" lon="10.13693518512312"><ele>1135.0</ele><time>2026-04-18T08:23:07.999Z</time></trkpt><trkpt lat="44.37142962417554" lon="10.136955804101959"><ele>1135.0</ele><time>2026-04-18T08:23:08.999Z</time></trkpt><trkpt lat="44.37131346540193" lon="10.136921472610167"><ele>1135.0</ele><time>2026-04-18T08:23:09.999Z</time></trkpt><trkpt lat="44.37120823400469" lon="10.136862739072104"><ele>1135.0</ele><time>2026-04-18T08:23:10.999Z</time></trkpt><trkpt lat="44.3711196093692" lon="10.136785980456416"><ele>1136.0</ele><time>2026-04-18T08:23:11.999Z</time></trkpt><trkpt lat="44.37104020395979" lon="10.136707538352256"><ele>1137.0</ele><time>2026-04-18T08:23:12.999Z</time></trkpt><trkpt lat="44.37096393770149" lon="10.136628226448343"><ele>1138.0</ele><time>2026-04-18T08:23:13.999Z</time></trkpt><trkpt lat="44.3708859469425" lon="10.136539159171393"><ele>1139.0</ele><time>2026-04-18T08:23:14.999Z</time></trkpt><trkpt lat="44.370804053714544" lon="10.136441410673926"><ele>1140.0</ele><time>2026-04-18T08:23:15.999Z</time></trkpt><trkpt lat="44.37071533322678" lon="10.136336077335523"><ele>1140.0</ele><time>2026-04-18T08:23:16.999Z</time></trkpt><trkpt lat="44.370623325352696" lon="10.13622813356593"><ele>1140.0</ele><time>2026-04-18T08:23:17.999Z</time></trkpt><trkpt lat="44.37053164426286" lon="10.136112461838579"><ele>1140.0</ele><time>2026-04-18T08:23:18.999Z</time></trkpt><trkpt lat="44.37044064614837" lon="10.135997227767653"><ele>1140.0</ele><time>2026-04-18T08:23:20Z</time></trkpt><trkpt lat="44.37034557092759" lon="10.135883887198753"><ele>1139.5</ele><time>2026-04-18T08:23:21Z</time></trkpt><trkpt lat="44.37024865444848" lon="10.135770987332911"><ele>1139.0</ele><time>2026-04-18T08:23:22Z</time></trkpt><trkpt lat="44.370142808950256" lon="10.135667987332658"><ele>1138.5</ele><time>2026-04-18T08:23:23Z</time></trkpt><trkpt lat="44.370026032419325" lon="10.13558615205374"><ele>1138.0</ele><time>2026-04-18T08:23:24Z</time></trkpt><trkpt lat="44.36990185229541" lon="10.135528880926065"><ele>1138.0</ele><time>2026-04-18T08:23:25Z</time></trkpt><trkpt lat="44.3697640433742" lon="10.13549655873241"><ele>1138.0</ele><time>2026-04-18T08:23:26Z</time></trkpt><trkpt lat="44.369622050583075" lon="10.135489328168202"><ele>1138.0</ele><time>2026-04-18T08:23:27Z</time></trkpt><trkpt lat="44.369474894831505" lon="10.13550026031943"><ele>1138.0</ele><time>2026-04-18T08:23:28Z</time></trkpt><trkpt lat="44.369321820354926" lon="10.135515533758086"><ele>1138.0</ele><time>2026-04-18T08:23:29Z</time></trkpt><trkpt lat="44.36916519942962" lon="10.135528695882638"><ele>1138.0</ele><time>2026-04-18T08:23:30Z</time></trkpt><trkpt lat="44.369004959152775" lon="10.135536567285653"><ele>1138.0</ele><time>2026-04-18T08:23:31Z</time></trkpt><trkpt lat="44.36884483095993" lon="10.135534601363036"><ele>1138.0</ele><time>2026-04-18T08:23:32Z</time></trkpt><trkpt lat="44.368688813697105" lon="10.135533341364008"><ele>1138.0</ele><time>2026-04-18T08:23:33Z</time></trkpt><trkpt lat="44.36853139877854" lon="10.135539428373008"><ele>1138.0</ele><time>2026-04-18T08:23:34Z</time></trkpt><trkpt lat="44.368368734151545" lon="10.135551924117605"><ele>1138.0</ele><time>2026-04-18T08:23:35Z</time></trkpt><trkpt lat="44.36821363132165" lon="10.135559463660378"><ele>1138.0</ele><time>2026-04-18T08:23:36Z</time></trkpt><trkpt lat="44.36806048458222" lon="10.135566421375492"><ele>1138.0</ele><time>2026-04-18T08:23:37Z</time></trkpt><trkpt lat="44.36791077030818" lon="10.135583740059333"><ele>1137.3333333333333</ele><time>2026-04-18T08:23:38Z</time></trkpt><trkpt lat="44.367771566130344" lon="10.135647117489837"><ele>1136.6666666666667</ele><time>2026-04-18T08:23:39Z</time></trkpt><trkpt lat="44.367655945728245" lon="10.135805985900165"><ele>1136.0</ele><time>2026-04-18T08:23:40Z</time></trkpt><trkpt lat="44.367587053584735" lon="10.136012487559972"><ele>1136.0</ele><time>2026-04-18T08:23:41Z</time></trkpt><trkpt lat="44.3675243988208" lon="10.136228363141441"><ele>1136.0</ele><time>2026-04-18T08:23:42Z</time></trkpt><trkpt lat="44.367445983788755" lon="10.136431348101253"><ele>1136.0</ele><time>2026-04-18T08:23:43Z</time></trkpt><trkpt lat="44.36735898616068" lon="10.136642698409752"><ele>1132.0</ele><time>2026-04-18T08:23:44Z</time></trkpt><trkpt lat="44.367269678970956" lon="10.136849560142696"><ele>1128.0</ele><time>2026-04-18T08:23:45Z</time></trkpt><trkpt lat="44.367180397797874" lon="10.137035786140274"><ele>1124.0</ele><time>2026-04-18T08:23:46Z</time></trkpt><trkpt lat="44.367113087379614" lon="10.137219862209127"><ele>1131.0</ele><time>2026-04-18T08:23:47Z</time></trkpt><trkpt lat="44.36706286996763" lon="10.137412646462892"><ele>1138.0</ele><time>2026-04-18T08:23:48Z</time></trkpt><trkpt lat="44.367032797801436" lon="10.137623626394108"><ele>1145.0</ele><time>2026-04-18T08:23:49Z</time></trkpt><trkpt lat="44.36699004005464" lon="10.137834846775673"><ele>1145.0</ele><time>2026-04-18T08:23:50Z</time></trkpt><trkpt lat="44.36694998071472" lon="10.13803666573404"><ele>1145.0</ele><time>2026-04-18T08:23:51Z</time></trkpt><trkpt lat="44.36688535098515" lon="10.138237028544118"><ele>1145.0</ele><time>2026-04-18T08:23:52Z</time></trkpt><trkpt lat="44.36680638779715" lon="10.138436889485003"><ele>1140.6666666666667</ele><time>2026-04-18T08:23:53Z</time></trkpt><trkpt lat="44.366734543983654" lon="10.138640087101072"><ele>1136.3333333333333</ele><time>2026-04-18T08:23:54Z</time></trkpt><trkpt lat="44.366641011625795" lon="10.138840172578929"><ele>1132.0</ele><time>2026-04-18T08:23:55Z</time></trkpt><trkpt lat="44.36654641612386" lon="10.139037563197746"><ele>1128.0</ele><time>2026-04-18T08:23:56Z</time></trkpt><trkpt lat="44.36642968683287" lon="10.139225110808624"><ele>1124.0</ele><time>2026-04-18T08:23:57Z</time></trkpt><trkpt lat="44.366293727011545" lon="10.139395233379512"><ele>1120.0</ele><time>2026-04-18T08:23:58Z</time></trkpt><trkpt lat="44.36615577963291" lon="10.13956518106644"><ele>1122.0</ele><time>2026-04-18T08:23:59Z</time></trkpt><trkpt lat="44.366012350495296" lon="10.139719204453131"><ele>1124.0</ele><time>2026-04-18T08:24:00Z</time></trkpt><trkpt lat="44.36587555687312" lon="10.139866362388055"><ele>1126.0</ele><time>2026-04-18T08:24:01Z</time></trkpt><trkpt lat="44.36573996868963" lon="10.139972278792861"><ele>1126.0</ele><time>2026-04-18T08:24:02Z</time></trkpt><trkpt lat="44.36558175911713" lon="10.14004029354312"><ele>1126.0</ele><time>2026-04-18T08:24:03Z</time></trkpt><trkpt lat="44.36540222879422" lon="10.140058085650768"><ele>1126.0</ele><time>2026-04-18T08:24:04Z</time></trkpt><trkpt lat="44.36520880286807" lon="10.140075110882684"><ele>1127.0</ele><time>2026-04-18T08:24:05Z</time></trkpt><trkpt lat="44.365018299053204" lon="10.140095286015963"><ele>1128.0</ele><time>2026-04-18T08:24:06Z</time></trkpt><trkpt lat="44.36482956378732" lon="10.140144070367702"><ele>1129.0</ele><time>2026-04-18T08:24:07Z</time></trkpt><trkpt lat="44.364653239900946" lon="10.140214261829824"><ele>1133.6666666666665</ele><time>2026-04-18T08:24:08Z</time></trkpt><trkpt lat="44.36449203357175" lon="10.140349143905647"><ele>1138.3333333333333</ele><time>2026-04-18T08:24:09Z</time></trkpt><trkpt lat="44.3643509118094" lon="10.140545857346245"><ele>1143.0</ele><time>2026-04-18T08:24:10Z</time></trkpt><trkpt lat="44.36420931326644" lon="10.140713300735062"><ele>1139.0</ele><time>2026-04-18T08:24:11Z</time></trkpt><trkpt lat="44.36406352016262" lon="10.140831899414941"><ele>1135.0</ele><time>2026-04-18T08:24:12Z</time></trkpt><trkpt lat="44.36389890215129" lon="10.140898089236606"><ele>1131.0</ele><time>2026-04-18T08:24:13Z</time></trkpt><trkpt lat="44.36371408408965" lon="10.140932859026806"><ele>1131.0</ele><time>2026-04-18T08:24:14Z</time></trkpt><trkpt lat="44.363528356880586" lon="10.140954875302077"><ele>1131.0</ele><time>2026-04-18T08:24:15Z</time></trkpt><trkpt lat="44.36335983311894" lon="10.141013254598448"><ele>1131.0</ele><time>2026-04-18T08:24:16Z</time></trkpt><trkpt lat="44.36320192310484" lon="10.141130629640127"><ele>1131.0</ele><time>2026-04-18T08:24:17Z</time></trkpt><trkpt lat="44.36306627507097" lon="10.141294550598644"><ele>1131.0</ele><time>2026-04-18T08:24:18Z</time></trkpt><trkpt lat="44.36291711471818" lon="10.141427800440566"><ele>1131.0</ele><time>2026-04-18T08:24:19Z</time></trkpt><trkpt lat="44.36277143952398" lon="10.141549898245259"><ele>1127.0</ele><time>2026-04-18T08:24:20Z</time></trkpt><trkpt lat="44.36263457942906" lon="10.141666838632764"><ele>1123.0</ele><time>2026-04-18T08:24:21Z</time></trkpt><trkpt lat="44.36251507816594" lon="10.141791339395535"><ele>1119.0</ele><time>2026-04-18T08:24:22Z</time></trkpt><trkpt lat="44.362379022226726" lon="10.141867494316788"><ele>1119.0</ele><time>2026-04-18T08:24:23Z</time></trkpt><trkpt lat="44.362230420220925" lon="10.141925973475887"><ele>1119.0</ele><time>2026-04-18T08:24:24Z</time></trkpt><trkpt lat="44.362063556237565" lon="10.141980964410669"><ele>1119.0</ele><time>2026-04-18T08:24:25Z</time></trkpt><trkpt lat="44.36188698039701" lon="10.141991970894038"><ele>1127.3333333333333</ele><time>2026-04-18T08:24:26Z</time></trkpt><trkpt lat="44.36171661124814" lon="10.142020887923154"><ele>1135.6666666666665</ele><time>2026-04-18T08:24:27Z</time></trkpt><trkpt lat="44.3615478802093" lon="10.142092412008676"><ele>1144.0</ele><time>2026-04-18T08:24:28Z</time></trkpt><trkpt lat="44.36140231773597" lon="10.142214772345465"><ele>1140.0</ele><time>2026-04-18T08:24:28.999Z</time></trkpt><trkpt lat="44.36126523377047" lon="10.142318263312726"><ele>1136.0</ele><time>2026-04-18T08:24:29.999Z</time></trkpt><trkpt lat="44.36114023742629" lon="10.142358749184123"><ele>1132.0</ele><time>2026-04-18T08:24:30.999Z</time></trkpt><trkpt lat="44.36102210062051" lon="10.142332703186216"><ele>1128.0</ele><time>2026-04-18T08:24:32Z</time></trkpt><trkpt lat="44.36090815780319" lon="10.142225973959569"><ele>1128.0</ele><time>2026-04-18T08:24:32.999Z</time></trkpt><trkpt lat="44.360810398575865" lon="10.142045380595087"><ele>1128.0</ele><time>2026-04-18T08:24:33.999Z</time></trkpt><trkpt lat="44.360707225647815" lon="10.14185344522905"><ele>1128.0</ele><time>2026-04-18T08:24:34.999Z</time></trkpt><trkpt lat="44.36059113598709" lon="10.141684034805312"><ele>1130.0</ele><time>2026-04-18T08:24:35.999Z</time></trkpt><trkpt lat="44.36047443949927" lon="10.141544235229814"><ele>1132.0</ele><time>2026-04-18T08:24:36.999Z</time></trkpt><trkpt lat="44.36034379185476" lon="10.14142950943399"><ele>1134.0</ele><time>2026-04-18T08:24:37.999Z</time></trkpt><trkpt lat="44.36019227644098" lon="10.1413566727443"><ele>1134.0</ele><time>2026-04-18T08:24:38.999Z</time></trkpt><trkpt lat="44.36001447405435" lon="10.141327420289542"><ele>1134.0</ele><time>2026-04-18T08:24:39.999Z</time></trkpt><trkpt lat="44.35983943888725" lon="10.14133251812649"><ele>1134.0</ele><time>2026-04-18T08:24:40.999Z</time></trkpt><trkpt lat="44.35965432819752" lon="10.141359708300762"><ele>1132.3333333333333</ele><time>2026-04-18T08:24:41.999Z</time></trkpt><trkpt lat="44.359464307251756" lon="10.141398380614472"><ele>1130.6666666666665</ele><time>2026-04-18T08:24:42.999Z</time></trkpt><trkpt lat="44.35927619572616" lon="10.141431968955509"><ele>1129.0</ele><time>2026-04-18T08:24:43.999Z</time></trkpt><trkpt lat="44.35908817940248" lon="10.141458007846875"><ele>1129.0</ele><time>2026-04-18T08:24:44.999Z</time></trkpt><trkpt lat="44.35890998917146" lon="10.14148346704717"><ele>1129.0</ele><time>2026-04-18T08:24:45.999Z</time></trkpt><trkpt lat="44.35876197573799" lon="10.141500737847464"><ele>1129.0</ele><time>2026-04-18T08:24:46.999Z</time></trkpt><trkpt lat="44.358648213308705" lon="10.141509311786386"><ele>1129.0</ele><time>2026-04-18T08:24:47.999Z</time></trkpt><trkpt lat="44.35855343103753" lon="10.141534647623219"><ele>1128.5</ele><time>2026-04-18T08:24:48.999Z</time></trkpt><trkpt lat="44.35846831109794" lon="10.141540876425326"><ele>1128.0</ele><time>2026-04-18T08:24:49.999Z</time></trkpt><trkpt lat="44.358378899049015" lon="10.141552271473437"><ele>1127.5</ele><time>2026-04-18T08:24:50.999Z</time></trkpt><trkpt lat="44.35829306879859" lon="10.141566430049965"><ele>1127.0</ele><time>2026-04-18T08:24:51.999Z</time></trkpt><trkpt lat="44.358205782332405" lon="10.1415822084483"><ele>1126.5</ele><time>2026-04-18T08:24:52.999Z</time></trkpt><trkpt lat="44.358120491300454" lon="10.141593633511674"><ele>1126.0</ele><time>2026-04-18T08:24:53.999Z</time></trkpt><trkpt lat="44.35803022947743" lon="10.141598511080247"><ele>1125.5</ele><time>2026-04-18T08:24:54.999Z</time></trkpt><trkpt lat="44.35794454347393" lon="10.141607331983732"><ele>1125.0</ele><time>2026-04-18T08:24:55.999Z</time></trkpt><trkpt lat="44.35785467927669" lon="10.141616621008327"><ele>1124.5</ele><time>2026-04-18T08:24:56.999Z</time></trkpt><trkpt lat="44.35776756948706" lon="10.14163422566715"><ele>1124.0</ele><time>2026-04-18T08:24:57.999Z</time></trkpt><trkpt lat="44.357681424278496" lon="10.14164644540168"><ele>1123.5</ele><time>2026-04-18T08:24:58.999Z</time></trkpt><trkpt lat="44.35759868242664" lon="10.141667065822654"><ele>1123.0</ele><time>2026-04-18T08:24:59.999Z</time></trkpt><trkpt lat="44.357513570613136" lon="10.141678041687737"><ele>1123.0</ele><time>2026-04-18T08:25:00.999Z</time></trkpt><trkpt lat="44.357431031880544" lon="10.141687729078711"><ele>1123.0</ele><time>2026-04-18T08:25:01.999Z</time></trkpt><trkpt lat="44.357360372798226" lon="10.141665236789448"><ele>1123.0</ele><time>2026-04-18T08:25:02.999Z</time></trkpt><trkpt lat="44.357283284091245" lon="10.141622757735444"><ele>1123.0</ele><time>2026-04-18T08:25:03.999Z</time></trkpt><trkpt lat="44.357199600610755" lon="10.141550601897046"><ele>1123.0</ele><time>2026-04-18T08:25:04.999Z</time></trkpt><trkpt lat="44.35712087316025" lon="10.141461676540406"><ele>1123.0</ele><time>2026-04-18T08:25:05.999Z</time></trkpt><trkpt lat="44.35703847234372" lon="10.141361591800088"><ele>1128.25</ele><time>2026-04-18T08:25:06.999Z</time></trkpt><trkpt lat="44.356962096293394" lon="10.14125100387763"><ele>1133.5</ele><time>2026-04-18T08:25:07.999Z</time></trkpt><trkpt lat="44.35687797199621" lon="10.141146977461048"><ele>1138.75</ele><time>2026-04-18T08:25:08.999Z</time></trkpt><trkpt lat="44.35679452907726" lon="10.141039982096796"><ele>1144.0</ele><time>2026-04-18T08:25:09.999Z</time></trkpt><trkpt lat="44.35670201737832" lon="10.140943989137696"><ele>1144.0</ele><time>2026-04-18T08:25:10.999Z</time></trkpt><trkpt lat="44.35659947667487" lon="10.140867178763916"><ele>1144.0</ele><time>2026-04-18T08:25:11.999Z</time></trkpt><trkpt lat="44.356481970111915" lon="10.140816550008669"><ele>1144.0</ele><time>2026-04-18T08:25:12.999Z</time></trkpt><trkpt lat="44.35636131372047" lon="10.14077867988144"><ele>1144.0</ele><time>2026-04-18T08:25:13.999Z</time></trkpt><trkpt lat="44.35623814091624" lon="10.14077049680553"><ele>1144.75</ele><time>2026-04-18T08:25:14.999Z</time></trkpt><trkpt lat="44.35611238533237" lon="10.140811141797128"><ele>1145.5</ele><time>2026-04-18T08:25:15.999Z</time></trkpt><trkpt lat="44.35599556272708" lon="10.14090047736126"><ele>1146.25</ele><time>2026-04-18T08:25:16.999Z</time></trkpt><trkpt lat="44.355874298140584" lon="10.140998236385526"><ele>1147.0</ele><time>2026-04-18T08:25:17.999Z</time></trkpt><trkpt lat="44.35575206123675" lon="10.141049175654947"><ele>1147.0</ele><time>2026-04-18T08:25:18.999Z</time></trkpt><trkpt lat="44.35561691442127" lon="10.14102676942133"><ele>1147.0</ele><time>2026-04-18T08:25:19.999Z</time></trkpt><trkpt lat="44.35548540539785" lon="10.140972215273276"><ele>1147.0</ele><time>2026-04-18T08:25:20.999Z</time></trkpt><trkpt lat="44.35535874365777" lon="10.140903654901189"><ele>1147.0</ele><time>2026-04-18T08:25:21.999Z</time></trkpt><trkpt lat="44.35525199389261" lon="10.14082272795038"><ele>1146.6</ele><time>2026-04-18T08:25:22.999Z</time></trkpt><trkpt lat="44.355156348985865" lon="10.140763812024208"><ele>1146.2</ele><time>2026-04-18T08:25:23.999Z</time></trkpt><trkpt lat="44.35505474468804" lon="10.140740838467549"><ele>1145.8</ele><time>2026-04-18T08:25:24.999Z</time></trkpt><trkpt lat="44.35494680966198" lon="10.140792376187425"><ele>1145.4</ele><time>2026-04-18T08:25:26Z</time></trkpt><trkpt lat="44.35484998730823" lon="10.140861559256727"><ele>1145.0</ele><time>2026-04-18T08:25:27Z</time></trkpt><trkpt lat="44.354753067013775" lon="10.140913357171803"><ele>1146.25</ele><time>2026-04-18T08:25:28Z</time></trkpt><trkpt lat="44.3546585950872" lon="10.14100093901401"><ele>1147.5</ele><time>2026-04-18T08:25:29Z</time></trkpt><trkpt lat="44.354543411801515" lon="10.141030496200596"><ele>1148.75</ele><time>2026-04-18T08:25:30Z</time></trkpt><trkpt lat="44.35442238230143" lon="10.14102939475852"><ele>1150.0</ele><time>2026-04-18T08:25:31Z</time></trkpt><trkpt lat="44.354301207544204" lon="10.141017715003489"><ele>1150.0</ele><time>2026-04-18T08:25:32Z</time></trkpt><trkpt lat="44.35418110526863" lon="10.140987066000713"><ele>1150.0</ele><time>2026-04-18T08:25:33Z</time></trkpt><trkpt lat="44.354073168214114" lon="10.140900749103807"><ele>1150.0</ele><time>2026-04-18T08:25:34Z</time></trkpt><trkpt lat="44.353978782513835" lon="10.140789731165382"><ele>1150.0</ele><time>2026-04-18T08:25:35Z</time></trkpt><trkpt lat="44.3538813057116" lon="10.140699431567993"><ele>1150.25</ele><time>2026-04-18T08:25:36Z</time></trkpt><trkpt lat="44.35376845185555" lon="10.140662203218165"><ele>1150.5</ele><time>2026-04-18T08:25:37Z</time></trkpt><trkpt lat="44.353652614585805" lon="10.140689985674872"><ele>1150.75</ele><time>2026-04-18T08:25:38Z</time></trkpt><trkpt lat="44.35354158662325" lon="10.140748537021672"><ele>1151.0</ele><time>2026-04-18T08:25:39Z</time></trkpt><trkpt lat="44.353437970281405" lon="10.140812776116315"><ele>1151.0</ele><time>2026-04-18T08:25:40Z</time></trkpt><trkpt lat="44.353332937751695" lon="10.140853935298447"><ele>1151.0</ele><time>2026-04-18T08:25:41Z</time></trkpt><trkpt lat="44.35322955482934" lon="10.140862044149097"><ele>1151.0</ele><time>2026-04-18T08:25:42Z</time></trkpt><trkpt lat="44.35312720239711" lon="10.1408570406169"><ele>1151.0</ele><time>2026-04-18T08:25:43Z</time></trkpt><trkpt lat="44.35302727902259" lon="10.140839617110343"><ele>1151.0</ele><time>2026-04-18T08:25:44Z</time></trkpt><trkpt lat="44.35292855712873" lon="10.140800209143372"><ele>1149.6</ele><time>2026-04-18T08:25:45Z</time></trkpt><trkpt lat="44.35283036120119" lon="10.140738399915582"><ele>1148.1999999999998</ele><time>2026-04-18T08:25:46Z</time></trkpt><trkpt lat="44.35272877750077" lon="10.140683106739045"><ele>1146.8000000000002</ele><time>2026-04-18T08:25:47Z</time></trkpt><trkpt lat="44.35262600794664" lon="10.140631220096825"><ele>1145.4</ele><time>2026-04-18T08:25:48Z</time></trkpt><trkpt lat="44.35252130458466" lon="10.140575443115267"><ele>1144.0</ele><time>2026-04-18T08:25:49Z</time></trkpt><trkpt lat="44.352416206010105" lon="10.140515275226495"><ele>1146.4</ele><time>2026-04-18T08:25:50Z</time></trkpt><trkpt lat="44.35231506319819" lon="10.140450164290998"><ele>1148.8000000000002</ele><time>2026-04-18T08:25:51Z</time></trkpt><trkpt lat="44.35222177046935" lon="10.140372394136492"><ele>1151.1999999999998</ele><time>2026-04-18T08:25:52Z</time></trkpt><trkpt lat="44.35213200030797" lon="10.140286988787526"><ele>1153.6</ele><time>2026-04-18T08:25:53Z</time></trkpt><trkpt lat="44.35205131793477" lon="10.140204588629377"><ele>1156.0</ele><time>2026-04-18T08:25:54Z</time></trkpt><trkpt lat="44.35197471806465" lon="10.140120947512422"><ele>1156.0</ele><time>2026-04-18T08:25:55Z</time></trkpt><trkpt lat="44.35189956698196" lon="10.14002817799339"><ele>1156.0</ele><time>2026-04-18T08:25:56Z</time></trkpt><trkpt lat="44.35182121300343" lon="10.139926747343667"><ele>1156.0</ele><time>2026-04-18T08:25:57Z</time></trkpt><trkpt lat="44.351743000997274" lon="10.13981759566056"><ele>1156.0</ele><time>2026-04-18T08:25:58Z</time></trkpt><trkpt lat="44.351669363990155" lon="10.139712236041827"><ele>1156.0</ele><time>2026-04-18T08:25:59Z</time></trkpt><trkpt lat="44.35160339598811" lon="10.139607241467107"><ele>1161.25</ele><time>2026-04-18T08:26:00Z</time></trkpt><trkpt lat="44.35154842556106" lon="10.139481064474579"><ele>1166.5</ele><time>2026-04-18T08:26:01Z</time></trkpt><trkpt lat="44.3515022109821" lon="10.139331740931642"><ele>1171.75</ele><time>2026-04-18T08:26:02Z</time></trkpt><trkpt lat="44.351447977216615" lon="10.139173875567236"><ele>1177.0</ele><time>2026-04-18T08:26:03Z</time></trkpt><trkpt lat="44.351389030228546" lon="10.13901006741835"><ele>1174.5</ele><time>2026-04-18T08:26:04Z</time></trkpt><trkpt lat="44.35133133645328" lon="10.138844427984607"><ele>1172.0</ele><time>2026-04-18T08:26:05Z</time></trkpt><trkpt lat="44.351271275187315" lon="10.13868608191032"><ele>1169.5</ele><time>2026-04-18T08:26:06Z</time></trkpt><trkpt lat="44.35119630954958" lon="10.138541542618718"><ele>1167.0</ele><time>2026-04-18T08:26:07Z</time></trkpt><trkpt lat="44.35108550430569" lon="10.138429963461684"><ele>1167.0</ele><time>2026-04-18T08:26:08Z</time></trkpt><trkpt lat="44.35096842736076" lon="10.138334602221459"><ele>1167.0</ele><time>2026-04-18T08:26:09Z</time></trkpt><trkpt lat="44.35084285610207" lon="10.138262996234559"><ele>1167.0</ele><time>2026-04-18T08:26:10Z</time></trkpt><trkpt lat="44.35071488713792" lon="10.13819184118535"><ele>1167.0</ele><time>2026-04-18T08:26:11Z</time></trkpt><trkpt lat="44.35058704177813" lon="10.138121257157689"><ele>1168.75</ele><time>2026-04-18T08:26:12Z</time></trkpt><trkpt lat="44.3504615648991" lon="10.138051439888939"><ele>1170.5</ele><time>2026-04-18T08:26:13Z</time></trkpt><trkpt lat="44.35033447330787" lon="10.137978110103116"><ele>1172.25</ele><time>2026-04-18T08:26:14Z</time></trkpt><trkpt lat="44.35020907559943" lon="10.137904622548572"><ele>1174.0</ele><time>2026-04-18T08:26:15Z</time></trkpt><trkpt lat="44.35008348171274" lon="10.13782432380147"><ele>1174.0</ele><time>2026-04-18T08:26:16Z</time></trkpt><trkpt lat="44.3499595315909" lon="10.137745218916955"><ele>1174.0</ele><time>2026-04-18T08:26:17Z</time></trkpt><trkpt lat="44.34983623975849" lon="10.13767117100733"><ele>1174.0</ele><time>2026-04-18T08:26:18Z</time></trkpt><trkpt lat="44.349714257518734" lon="10.1375993890759"><ele>1174.0</ele><time>2026-04-18T08:26:19Z</time></trkpt><trkpt lat="44.34958968525664" lon="10.13754105061115"><ele>1173.75</ele><time>2026-04-18T08:26:20Z</time></trkpt><trkpt lat="44.34945988200431" lon="10.13750327114585"><ele>1173.5</ele><time>2026-04-18T08:26:21Z</time></trkpt><trkpt lat="44.34932839954277" lon="10.137479710523904"><ele>1173.25</ele><time>2026-04-18T08:26:22Z</time></trkpt><trkpt lat="44.349194635468955" lon="10.137473333631164"><ele>1173.0</ele><time>2026-04-18T08:26:23Z</time></trkpt><trkpt lat="44.349055480506365" lon="10.13749007520938"><ele>1173.0</ele><time>2026-04-18T08:26:24Z</time></trkpt><trkpt lat="44.34892024078732" lon="10.137518636494175"><ele>1173.0</ele><time>2026-04-18T08:26:25Z</time></trkpt><trkpt lat="44.348785592540615" lon="10.137550379100396"><ele>1173.0</ele><time>2026-04-18T08:26:26Z</time></trkpt><trkpt lat="44.34865104672207" lon="10.137583814303776"><ele>1173.0</ele><time>2026-04-18T08:26:27Z</time></trkpt><trkpt lat="44.34851754997345" lon="10.137615630364921"><ele>1173.5</ele><time>2026-04-18T08:26:28Z</time></trkpt><trkpt lat="44.348382912137716" lon="10.137641980053981"><ele>1174.0</ele><time>2026-04-18T08:26:29Z</time></trkpt><trkpt lat="44.34825016488859" lon="10.137669673934537"><ele>1174.5</ele><time>2026-04-18T08:26:30Z</time></trkpt><trkpt lat="44.348117851584874" lon="10.137694895242463"><ele>1175.0</ele><time>2026-04-18T08:26:31Z</time></trkpt><trkpt lat="44.3479856437338" lon="10.137716268797766"><ele>1176.75</ele><time>2026-04-18T08:26:32Z</time></trkpt><trkpt lat="44.3478561723922" lon="10.137741450545796"><ele>1178.5</ele><time>2026-04-18T08:26:33Z</time></trkpt><trkpt lat="44.34772671205835" lon="10.137765677216201"><ele>1180.25</ele><time>2026-04-18T08:26:34Z</time></trkpt><trkpt lat="44.34760298360896" lon="10.137780352753884"><ele>1182.0</ele><time>2026-04-18T08:26:34.999Z</time></trkpt><trkpt lat="44.34748143549615" lon="10.13777540136022"><ele>1182.0</ele><time>2026-04-18T08:26:35.999Z</time></trkpt><trkpt lat="44.347356981442545" lon="10.13774216893886"><ele>1182.0</ele><time>2026-04-18T08:26:36.999Z</time></trkpt><trkpt lat="44.3472340738682" lon="10.137679000912165"><ele>1182.0</ele><time>2026-04-18T08:26:37.999Z</time></trkpt><trkpt lat="44.34711873684103" lon="10.137579332902693"><ele>1182.0</ele><time>2026-04-18T08:26:38.999Z</time></trkpt><trkpt lat="44.34701418514929" lon="10.137447360655823"><ele>1182.75</ele><time>2026-04-18T08:26:39.999Z</time></trkpt><trkpt lat="44.346907926228496" lon="10.137312418169412"><ele>1183.5</ele><time>2026-04-18T08:26:40.999Z</time></trkpt><trkpt lat="44.346797399152344" lon="10.137184537575484"><ele>1184.25</ele><time>2026-04-18T08:26:41.999Z</time></trkpt><trkpt lat="44.34668326222341" lon="10.137058509483712"><ele>1185.0</ele><time>2026-04-18T08:26:42.999Z</time></trkpt><trkpt lat="44.346576595077565" lon="10.13692366483461"><ele>1185.0</ele><time>2026-04-18T08:26:43.999Z</time></trkpt><trkpt lat="44.34649715005843" lon="10.136772232997405"><ele>1185.0</ele><time>2026-04-18T08:26:44.999Z</time></trkpt><trkpt lat="44.346445363084" lon="10.13660292266412"><ele>1185.0</ele><time>2026-04-18T08:26:45.999Z</time></trkpt><trkpt lat="44.34642719264028" lon="10.1364178384923"><ele>1185.0</ele><time>2026-04-18T08:26:46.999Z</time></trkpt><trkpt lat="44.34642443992308" lon="10.136230129389645"><ele>1185.5</ele><time>2026-04-18T08:26:47.999Z</time></trkpt><trkpt lat="44.34641095057476" lon="10.1360336351441"><ele>1186.0</ele><time>2026-04-18T08:26:48.999Z</time></trkpt><trkpt lat="44.346377754360134" lon="10.13583808452681"><ele>1186.5</ele><time>2026-04-18T08:26:49.999Z</time></trkpt><trkpt lat="44.34630062218667" lon="10.135662911223642"><ele>1187.0</ele><time>2026-04-18T08:26:50.999Z</time></trkpt><trkpt lat="44.346208348061694" lon="10.135507742690423"><ele>1187.0</ele><time>2026-04-18T08:26:51.999Z</time></trkpt><trkpt lat="44.346114479430916" lon="10.13536236457668"><ele>1187.0</ele><time>2026-04-18T08:26:52.999Z</time></trkpt><trkpt lat="44.34603415998053" lon="10.135213165391468"><ele>1187.0</ele><time>2026-04-18T08:26:53.999Z</time></trkpt><trkpt lat="44.34595940205667" lon="10.135062257976864"><ele>1187.0</ele><time>2026-04-18T08:26:54.999Z</time></trkpt><trkpt lat="44.3458804306915" lon="10.13491656873409"><ele>1189.5</ele><time>2026-04-18T08:26:55.999Z</time></trkpt><trkpt lat="44.345796172425665" lon="10.134781934085806"><ele>1192.0</ele><time>2026-04-18T08:26:56.999Z</time></trkpt><trkpt lat="44.34570789733141" lon="10.134655230798087"><ele>1194.5</ele><time>2026-04-18T08:26:57.999Z</time></trkpt><trkpt lat="44.34560770607716" lon="10.13455299061297"><ele>1197.0</ele><time>2026-04-18T08:26:58.999Z</time></trkpt><trkpt lat="44.34551038756277" lon="10.134477283478352"><ele>1197.6</ele><time>2026-04-18T08:26:59.999Z</time></trkpt><trkpt lat="44.34541884991283" lon="10.134418265991735"><ele>1198.2</ele><time>2026-04-18T08:27:00.999Z</time></trkpt><trkpt lat="44.34535312959807" lon="10.134386051322588"><ele>1198.8</ele><time>2026-04-18T08:27:01.999Z</time></trkpt><trkpt lat="44.345227902034516" lon="10.134380972587081"><ele>1199.4</ele><time>2026-04-18T08:27:03.999Z</time></trkpt><trkpt lat="44.34513913460083" lon="10.134405620615414"><ele>1200.0</ele><time>2026-04-18T08:27:04.999Z</time></trkpt><trkpt lat="44.34504231400978" lon="10.134452942897873"><ele>1200.0</ele><time>2026-04-18T08:27:05.999Z</time></trkpt><trkpt lat="44.344933782065944" lon="10.134499131331955"><ele>1200.0</ele><time>2026-04-18T08:27:06.999Z</time></trkpt><trkpt lat="44.344812416102904" lon="10.134523973020325"><ele>1200.0</ele><time>2026-04-18T08:27:07.999Z</time></trkpt><trkpt lat="44.34469882568604" lon="10.134497243328356"><ele>1200.0</ele><time>2026-04-18T08:27:08.999Z</time></trkpt><trkpt lat="44.34460761369385" lon="10.134419327589644"><ele>1200.4</ele><time>2026-04-18T08:27:09.999Z</time></trkpt><trkpt lat="44.34455023888574" lon="10.13428337512354"><ele>1200.8</ele><time>2026-04-18T08:27:10.999Z</time></trkpt><trkpt lat="44.344518530848426" lon="10.134139924009435"><ele>1201.2</ele><time>2026-04-18T08:27:11.999Z</time></trkpt><trkpt lat="44.34450024032351" lon="10.13398695097187"><ele>1201.6</ele><time>2026-04-18T08:27:12.999Z</time></trkpt><trkpt lat="44.344473235066786" lon="10.133842961553754"><ele>1202.0</ele><time>2026-04-18T08:27:13.999Z</time></trkpt><trkpt lat="44.34443206453428" lon="10.133732109100084"><ele>1202.0</ele><time>2026-04-18T08:27:14.999Z</time></trkpt><trkpt lat="44.34438063815595" lon="10.133650154249747"><ele>1202.0</ele><time>2026-04-18T08:27:15.999Z</time></trkpt><trkpt lat="44.34432148662271" lon="10.13356766412677"><ele>1202.0</ele><time>2026-04-18T08:27:16.999Z</time></trkpt><trkpt lat="44.34424624142105" lon="10.133477894099105"><ele>1202.0</ele><time>2026-04-18T08:27:17.999Z</time></trkpt><trkpt lat="44.344151184002556" lon="10.133397426450662"><ele>1202.0</ele><time>2026-04-18T08:27:18.999Z</time></trkpt><trkpt lat="44.34403686363142" lon="10.133338962755834"><ele>1202.0</ele><time>2026-04-18T08:27:19.999Z</time></trkpt><trkpt lat="44.343908801554925" lon="10.133278790380507"><ele>1202.0</ele><time>2026-04-18T08:27:20.999Z</time></trkpt><trkpt lat="44.34379256052714" lon="10.133197031766498"><ele>1202.0</ele><time>2026-04-18T08:27:21.999Z</time></trkpt><trkpt lat="44.3436648756007" lon="10.133126410589771"><ele>1202.0</ele><time>2026-04-18T08:27:22.999Z</time></trkpt><trkpt lat="44.34352768109213" lon="10.133052558164813"><ele>1202.5</ele><time>2026-04-18T08:27:23.999Z</time></trkpt><trkpt lat="44.34339478983001" lon="10.132971474991258"><ele>1203.0</ele><time>2026-04-18T08:27:24.999Z</time></trkpt><trkpt lat="44.343263840837004" lon="10.132895832496132"><ele>1203.5</ele><time>2026-04-18T08:27:25.999Z</time></trkpt><trkpt lat="44.343134279308224" lon="10.132826172415502"><ele>1204.0</ele><time>2026-04-18T08:27:26.999Z</time></trkpt><trkpt lat="44.3429995960042" lon="10.132755674142176"><ele>1204.0</ele><time>2026-04-18T08:27:27.999Z</time></trkpt><trkpt lat="44.34289452951045" lon="10.13266846793896"><ele>1204.0</ele><time>2026-04-18T08:27:28.999Z</time></trkpt><trkpt lat="44.34277274971073" lon="10.13259689479252"><ele>1204.0</ele><time>2026-04-18T08:27:29.999Z</time></trkpt><trkpt lat="44.34265431424779" lon="10.132521644221065"><ele>1204.0</ele><time>2026-04-18T08:27:30.999Z</time></trkpt><trkpt lat="44.34253551639176" lon="10.132459338514892"><ele>1204.0</ele><time>2026-04-18T08:27:32Z</time></trkpt><trkpt lat="44.34240680743079" lon="10.13242989958331"><ele>1204.0</ele><time>2026-04-18T08:27:33Z</time></trkpt><trkpt lat="44.342268889024574" lon="10.132448182951157"><ele>1204.0</ele><time>2026-04-18T08:27:34Z</time></trkpt><trkpt lat="44.34212745284075" lon="10.13251611229672"><ele>1204.0</ele><time>2026-04-18T08:27:35Z</time></trkpt><trkpt lat="44.34200310701891" lon="10.13264888961081"><ele>1204.5</ele><time>2026-04-18T08:27:36Z</time></trkpt><trkpt lat="44.34189825905262" lon="10.132806510331493"><ele>1205.0</ele><time>2026-04-18T08:27:37Z</time></trkpt><trkpt lat="44.341795532522355" lon="10.132940760831298"><ele>1205.5</ele><time>2026-04-18T08:27:38Z</time></trkpt><trkpt lat="44.34168990059808" lon="10.133044384327455"><ele>1206.0</ele><time>2026-04-18T08:27:39Z</time></trkpt><trkpt lat="44.34157659878006" lon="10.133120903615145"><ele>1206.0</ele><time>2026-04-18T08:27:40Z</time></trkpt><trkpt lat="44.341447156274334" lon="10.133132148379994"><ele>1206.0</ele><time>2026-04-18T08:27:41Z</time></trkpt><trkpt lat="44.341312663356014" lon="10.133072473024399"><ele>1206.0</ele><time>2026-04-18T08:27:42Z</time></trkpt><trkpt lat="44.3411909250474" lon="10.132939336792806"><ele>1206.0</ele><time>2026-04-18T08:27:43Z</time></trkpt><trkpt lat="44.34111099644757" lon="10.132743789595418"><ele>1203.6666666666667</ele><time>2026-04-18T08:27:44Z</time></trkpt><trkpt lat="44.341079347201" lon="10.132528625624204"><ele>1201.3333333333335</ele><time>2026-04-18T08:27:45Z</time></trkpt><trkpt lat="44.341106730119364" lon="10.132307935155467"><ele>1199.0</ele><time>2026-04-18T08:27:46Z</time></trkpt><trkpt lat="44.341139184334544" lon="10.132104737690195"><ele>1199.0</ele><time>2026-04-18T08:27:47Z</time></trkpt><trkpt lat="44.34115024806494" lon="10.131928504243573"><ele>1199.0</ele><time>2026-04-18T08:27:48Z</time></trkpt><trkpt lat="44.341118792622076" lon="10.13177372979682"><ele>1199.0</ele><time>2026-04-18T08:27:49Z</time></trkpt><trkpt lat="44.341053832540574" lon="10.131618821916307"><ele>1199.0</ele><time>2026-04-18T08:27:50Z</time></trkpt><trkpt lat="44.34096320416633" lon="10.131480742618646"><ele>1202.0</ele><time>2026-04-18T08:27:51Z</time></trkpt><trkpt lat="44.34089038731406" lon="10.13134959910386"><ele>1205.0</ele><time>2026-04-18T08:27:52Z</time></trkpt><trkpt lat="44.340819523305434" lon="10.131224308025311"><ele>1208.0</ele><time>2026-04-18T08:27:53Z</time></trkpt><trkpt lat="44.34074656579883" lon="10.131106536561424"><ele>1211.0</ele><time>2026-04-18T08:27:54Z</time></trkpt><trkpt lat="44.340673843541055" lon="10.130979917513601"><ele>1211.0</ele><time>2026-04-18T08:27:55Z</time></trkpt><trkpt lat="44.34060160341607" lon="10.13084153383413"><ele>1211.0</ele><time>2026-04-18T08:27:56Z</time></trkpt><trkpt lat="44.340528048905895" lon="10.130706279962157"><ele>1211.0</ele><time>2026-04-18T08:27:57Z</time></trkpt><trkpt lat="44.34045309346426" lon="10.130568826355773"><ele>1211.0</ele><time>2026-04-18T08:27:58Z</time></trkpt><trkpt lat="44.340384375997985" lon="10.130433513730766"><ele>1209.2</ele><time>2026-04-18T08:27:59Z</time></trkpt><trkpt lat="44.340334991290106" lon="10.13029217869045"><ele>1207.3999999999999</ele><time>2026-04-18T08:28:00Z</time></trkpt><trkpt lat="44.34030770039589" lon="10.13014415339573"><ele>1205.6</ele><time>2026-04-18T08:28:01Z</time></trkpt><trkpt lat="44.34030696491691" lon="10.130002032902318"><ele>1203.8</ele><time>2026-04-18T08:28:02Z</time></trkpt><trkpt lat="44.34030288058932" lon="10.129872466586955"><ele>1202.0</ele><time>2026-04-18T08:28:03Z</time></trkpt><trkpt lat="44.34029430692225" lon="10.129776960719914"><ele>1202.0</ele><time>2026-04-18T08:28:04Z</time></trkpt><trkpt lat="44.34022251096137" lon="10.129696841428744"><ele>1202.0</ele><time>2026-04-18T08:28:06Z</time></trkpt><trkpt lat="44.34015744436854" lon="10.129716298433264"><ele>1202.0</ele><time>2026-04-18T08:28:08Z</time></trkpt><trkpt lat="44.34008788338297" lon="10.129768117008224"><ele>1202.0</ele><time>2026-04-18T08:28:11Z</time></trkpt><trkpt lat="44.34002834744839" lon="10.129821991977378"><ele>1202.0</ele><time>2026-04-18T08:28:13Z</time></trkpt><trkpt lat="44.3399554225693" lon="10.129854817581094"><ele>1202.0</ele><time>2026-04-18T08:28:30Z</time></trkpt><trkpt lat="44.33991662545859" lon="10.129935296533386"><ele>1202.0</ele><time>2026-04-18T08:32:57.999Z</time></trkpt><trkpt lat="44.34000106012432" lon="10.12990055314063"><ele>1202.0</ele><time>2026-04-18T08:33:03.999Z</time></trkpt><trkpt lat="44.340072659336506" lon="10.129837412285326"><ele>1202.0</ele><time>2026-04-18T08:33:06.999Z</time></trkpt><trkpt lat="44.34014692200049" lon="10.129801932387378"><ele>1202.0</ele><time>2026-04-18T08:33:09.999Z</time></trkpt><trkpt lat="44.34023444682965" lon="10.129657073889403"><ele>1202.0</ele><time>2026-04-18T08:34:12Z</time></trkpt><trkpt lat="44.340267395232985" lon="10.129443873541339"><ele>1200.5</ele><time>2026-04-18T08:34:14Z</time></trkpt><trkpt lat="44.340261786016896" lon="10.129300578589609"><ele>1199.0</ele><time>2026-04-18T08:34:15Z</time></trkpt><trkpt lat="44.340253380623054" lon="10.12913057242167"><ele>1197.5</ele><time>2026-04-18T08:34:16Z</time></trkpt><trkpt lat="44.340248021005976" lon="10.128946009920657"><ele>1196.0</ele><time>2026-04-18T08:34:17Z</time></trkpt><trkpt lat="44.34025191816858" lon="10.128753912587616"><ele>1194.0</ele><time>2026-04-18T08:34:18Z</time></trkpt><trkpt lat="44.34026381494223" lon="10.128571856132389"><ele>1192.0</ele><time>2026-04-18T08:34:19Z</time></trkpt><trkpt lat="44.34028685763715" lon="10.128407725214858"><ele>1190.0</ele><time>2026-04-18T08:34:20Z</time></trkpt><trkpt lat="44.34033931655711" lon="10.12825969934186"><ele>1188.0</ele><time>2026-04-18T08:34:21Z</time></trkpt><trkpt lat="44.340440664314464" lon="10.12811013041774"><ele>1187.0</ele><time>2026-04-18T08:34:22Z</time></trkpt><trkpt lat="44.34051923196737" lon="10.127931300954604"><ele>1186.0</ele><time>2026-04-18T08:34:23Z</time></trkpt><trkpt lat="44.34060344298072" lon="10.12776431633304"><ele>1185.0</ele><time>2026-04-18T08:34:24Z</time></trkpt><trkpt lat="44.340706986265715" lon="10.127625680954894"><ele>1184.0</ele><time>2026-04-18T08:34:25Z</time></trkpt><trkpt lat="44.34082108713649" lon="10.127523755977082"><ele>1184.0</ele><time>2026-04-18T08:34:26Z</time></trkpt><trkpt lat="44.34094408501691" lon="10.127452145871773"><ele>1184.0</ele><time>2026-04-18T08:34:27Z</time></trkpt><trkpt lat="44.34108463625943" lon="10.1274124163631"><ele>1184.0</ele><time>2026-04-18T08:34:28Z</time></trkpt><trkpt lat="44.34122684958321" lon="10.127418524855736"><ele>1184.0</ele><time>2026-04-18T08:34:29Z</time></trkpt><trkpt lat="44.34137343231493" lon="10.127480896887137"><ele>1183.0</ele><time>2026-04-18T08:34:30Z</time></trkpt><trkpt lat="44.341516799234554" lon="10.127546263088174"><ele>1182.0</ele><time>2026-04-18T08:34:31Z</time></trkpt><trkpt lat="44.341664705710784" lon="10.127627204801735"><ele>1181.0</ele><time>2026-04-18T08:34:32Z</time></trkpt><trkpt lat="44.34181232253412" lon="10.127688421353318"><ele>1181.0</ele><time>2026-04-18T08:34:33Z</time></trkpt><trkpt lat="44.3419393328738" lon="10.127722288783726"><ele>1181.0</ele><time>2026-04-18T08:34:34Z</time></trkpt><trkpt lat="44.342042080214995" lon="10.127747572559356"><ele>1181.0</ele><time>2026-04-18T08:34:35Z</time></trkpt><trkpt lat="44.342110861186725" lon="10.127756601463071"><ele>1181.0</ele><time>2026-04-18T08:34:36Z</time></trkpt><trkpt lat="44.3423138299964" lon="10.127747687450077"><ele>1179.6666666666667</ele><time>2026-04-18T08:34:37Z</time></trkpt><trkpt lat="44.342440998555" lon="10.127597566571442"><ele>1178.3333333333333</ele><time>2026-04-18T08:34:38Z</time></trkpt><trkpt lat="44.3425609862702" lon="10.127404262651098"><ele>1177.0</ele><time>2026-04-18T08:34:39Z</time></trkpt><trkpt lat="44.342656080409704" lon="10.127223065563037"><ele>1171.3333333333333</ele><time>2026-04-18T08:34:40Z</time></trkpt><trkpt lat="44.342825816568705" lon="10.127079125254145"><ele>1165.6666666666667</ele><time>2026-04-18T08:34:41Z</time></trkpt><trkpt lat="44.342934918465254" lon="10.126881890395929"><ele>1160.0</ele><time>2026-04-18T08:34:42Z</time></trkpt><trkpt lat="44.343032145425425" lon="10.126661213629895"><ele>1160.3333333333335</ele><time>2026-04-18T08:34:43Z</time></trkpt><trkpt lat="44.34312408347152" lon="10.12642980310259"><ele>1160.6666666666667</ele><time>2026-04-18T08:34:44Z</time></trkpt><trkpt lat="44.34322790733284" lon="10.126220738078057"><ele>1161.0</ele><time>2026-04-18T08:34:45Z</time></trkpt><trkpt lat="44.343347959676656" lon="10.126039076142185"><ele>1161.0</ele><time>2026-04-18T08:34:46Z</time></trkpt><trkpt lat="44.3434652584942" lon="10.125876807545312"><ele>1161.0</ele><time>2026-04-18T08:34:47Z</time></trkpt><trkpt lat="44.34356009301933" lon="10.12573269954282"><ele>1161.0</ele><time>2026-04-18T08:34:48Z</time></trkpt><trkpt lat="44.34361887836996" lon="10.125588622221741"><ele>1161.0</ele><time>2026-04-18T08:34:49Z</time></trkpt><trkpt lat="44.34365024783066" lon="10.125455999246762"><ele>1161.0</ele><time>2026-04-18T08:34:50Z</time></trkpt><trkpt lat="44.34365747598825" lon="10.125343377025867"><ele>1161.0</ele><time>2026-04-18T08:34:51Z</time></trkpt><trkpt lat="44.34361457773527" lon="10.125237414324362"><ele>1161.0</ele><time>2026-04-18T08:34:52Z</time></trkpt><trkpt lat="44.34351253029474" lon="10.125176731099486"><ele>1161.0</ele><time>2026-04-18T08:34:53Z</time></trkpt><trkpt lat="44.34339741834761" lon="10.125221254596973"><ele>1161.0</ele><time>2026-04-18T08:34:54Z</time></trkpt><trkpt lat="44.34329848900669" lon="10.125333124273286"><ele>1161.0</ele><time>2026-04-18T08:34:55Z</time></trkpt><trkpt lat="44.34326696739813" lon="10.125549338106628"><ele>1161.0</ele><time>2026-04-18T08:34:56Z</time></trkpt><trkpt lat="44.343206806450944" lon="10.125726918014974"><ele>1161.0</ele><time>2026-04-18T08:34:57Z</time></trkpt><trkpt lat="44.34307191053446" lon="10.125822535646487"><ele>1156.6666666666667</ele><time>2026-04-18T08:34:58Z</time></trkpt><trkpt lat="44.3429055479366" lon="10.125886750885012"><ele>1152.3333333333335</ele><time>2026-04-18T08:34:59Z</time></trkpt><trkpt lat="44.342735197964075" lon="10.12593547210572"><ele>1148.0</ele><time>2026-04-18T08:35:00Z</time></trkpt><trkpt lat="44.34257487241682" lon="10.12598653274301"><ele>1148.0</ele><time>2026-04-18T08:35:01Z</time></trkpt><trkpt lat="44.3424277814399" lon="10.126046641215687"><ele>1148.0</ele><time>2026-04-18T08:35:02Z</time></trkpt><trkpt lat="44.34228165134577" lon="10.126105008055761"><ele>1148.0</ele><time>2026-04-18T08:35:03Z</time></trkpt><trkpt lat="44.3421418000205" lon="10.126152301071555"><ele>1148.0</ele><time>2026-04-18T08:35:04Z</time></trkpt><trkpt lat="44.34199429448512" lon="10.126204816216546"><ele>1144.0</ele><time>2026-04-18T08:35:04.999Z</time></trkpt><trkpt lat="44.341847883765084" lon="10.126252672875095"><ele>1140.0</ele><time>2026-04-18T08:35:05.999Z</time></trkpt><trkpt lat="44.3416948397816" lon="10.12629483032629"><ele>1136.0</ele><time>2026-04-18T08:35:06.999Z</time></trkpt><trkpt lat="44.341539372333806" lon="10.126330334464422"><ele>1132.6666666666667</ele><time>2026-04-18T08:35:07.999Z</time></trkpt><trkpt lat="44.34138094559238" lon="10.126350218266989"><ele>1129.3333333333333</ele><time>2026-04-18T08:35:08.999Z</time></trkpt><trkpt lat="44.34122546547648" lon="10.126299612196817"><ele>1126.0</ele><time>2026-04-18T08:35:09.999Z</time></trkpt><trkpt lat="44.34106669779398" lon="10.12625741286787"><ele>1126.0</ele><time>2026-04-18T08:35:10.999Z</time></trkpt><trkpt lat="44.34090113976673" lon="10.12623215405019"><ele>1126.0</ele><time>2026-04-18T08:35:11.999Z</time></trkpt><trkpt lat="44.34074299601263" lon="10.126171526601333"><ele>1126.0</ele><time>2026-04-18T08:35:12.999Z</time></trkpt><trkpt lat="44.34059281133852" lon="10.126130853712855"><ele>1122.25</ele><time>2026-04-18T08:35:13.999Z</time></trkpt><trkpt lat="44.340448450046296" lon="10.12609749133934"><ele>1118.5</ele><time>2026-04-18T08:35:14.999Z</time></trkpt><trkpt lat="44.34030618161699" lon="10.126088723505697"><ele>1114.75</ele><time>2026-04-18T08:35:15.999Z</time></trkpt><trkpt lat="44.340176613011536" lon="10.126139137408869"><ele>1111.0</ele><time>2026-04-18T08:35:16.999Z</time></trkpt><trkpt lat="44.340054204815665" lon="10.126272390732273"><ele>1111.0</ele><time>2026-04-18T08:35:17.999Z</time></trkpt><trkpt lat="44.33993324720517" lon="10.12642971933521"><ele>1111.0</ele><time>2026-04-18T08:35:18.999Z</time></trkpt><trkpt lat="44.33982548075828" lon="10.12659251656632"><ele>1111.0</ele><time>2026-04-18T08:35:19.999Z</time></trkpt><trkpt lat="44.33972463524342" lon="10.126768567295025"><ele>1109.75</ele><time>2026-04-18T08:35:20.999Z</time></trkpt><trkpt lat="44.33962705756143" lon="10.126942094046791"><ele>1108.5</ele><time>2026-04-18T08:35:21.999Z</time></trkpt><trkpt lat="44.339520878159966" lon="10.127079810515133"><ele>1107.25</ele><time>2026-04-18T08:35:22.999Z</time></trkpt><trkpt lat="44.339391207428555" lon="10.12716930285921"><ele>1106.0</ele><time>2026-04-18T08:35:23.999Z</time></trkpt><trkpt lat="44.33926471492027" lon="10.12721383223461"><ele>1106.0</ele><time>2026-04-18T08:35:24.999Z</time></trkpt><trkpt lat="44.339139954257206" lon="10.127229174740576"><ele>1106.0</ele><time>2026-04-18T08:35:25.999Z</time></trkpt><trkpt lat="44.339010584022574" lon="10.127246303771956"><ele>1106.0</ele><time>2026-04-18T08:35:26.999Z</time></trkpt><trkpt lat="44.33888584701837" lon="10.127258337366131"><ele>1106.0</ele><time>2026-04-18T08:35:27.999Z</time></trkpt><trkpt lat="44.338758019790006" lon="10.12726231497306"><ele>1103.0</ele><time>2026-04-18T08:35:28.999Z</time></trkpt><trkpt lat="44.33863456723174" lon="10.12725236645921"><ele>1100.0</ele><time>2026-04-18T08:35:29.999Z</time></trkpt><trkpt lat="44.33852141641696" lon="10.127220405253398"><ele>1097.0</ele><time>2026-04-18T08:35:30.999Z</time></trkpt><trkpt lat="44.33840910533648" lon="10.127185592785937"><ele>1094.0</ele><time>2026-04-18T08:35:31.999Z</time></trkpt><trkpt lat="44.33829584596978" lon="10.127180849571468"><ele>1094.0</ele><time>2026-04-18T08:35:32.999Z</time></trkpt><trkpt lat="44.33819483218823" lon="10.127154480631749"><ele>1094.0</ele><time>2026-04-18T08:35:33.999Z</time></trkpt><trkpt lat="44.338101625967475" lon="10.127238143434502"><ele>1094.0</ele><time>2026-04-18T08:35:34.999Z</time></trkpt><trkpt lat="44.338035092321334" lon="10.127330319274641"><ele>1094.0</ele><time>2026-04-18T08:35:35.999Z</time></trkpt><trkpt lat="44.33796996122497" lon="10.12737438238829"><ele>1094.0</ele><time>2026-04-18T08:35:36.999Z</time></trkpt><trkpt lat="44.33790922584172" lon="10.12731232770189"><ele>1094.0</ele><time>2026-04-18T08:35:37.999Z</time></trkpt><trkpt lat="44.33787485592765" lon="10.127197664501132"><ele>1094.0</ele><time>2026-04-18T08:35:38.999Z</time></trkpt><trkpt lat="44.337913664405264" lon="10.12707609849311"><ele>1094.0</ele><time>2026-04-18T08:35:39.999Z</time></trkpt><trkpt lat="44.338012341183536" lon="10.126992340914043"><ele>1094.0</ele><time>2026-04-18T08:35:40.999Z</time></trkpt><trkpt lat="44.33815209095188" lon="10.127016911930385"><ele>1094.0</ele><time>2026-04-18T08:35:41.999Z</time></trkpt><trkpt lat="44.33830435285434" lon="10.127010438390338"><ele>1094.0</ele><time>2026-04-18T08:35:42.999Z</time></trkpt><trkpt lat="44.33844570860605" lon="10.127010230992962"><ele>1094.0</ele><time>2026-04-18T08:35:43.999Z</time></trkpt><trkpt lat="44.338575539346884" lon="10.126969042820926"><ele>1094.0</ele><time>2026-04-18T08:35:44.999Z</time></trkpt><trkpt lat="44.33870245575885" lon="10.1268918929649"><ele>1094.0</ele><time>2026-04-18T08:35:45.999Z</time></trkpt><trkpt lat="44.33882038761953" lon="10.126810299475677"><ele>1092.25</ele><time>2026-04-18T08:35:46.999Z</time></trkpt><trkpt lat="44.33892591479564" lon="10.126739562849583"><ele>1090.5</ele><time>2026-04-18T08:35:47.999Z</time></trkpt><trkpt lat="44.339041939808205" lon="10.126667114967635"><ele>1088.75</ele><time>2026-04-18T08:35:48.999Z</time></trkpt><trkpt lat="44.33915752802679" lon="10.126605606588695"><ele>1087.0</ele><time>2026-04-18T08:35:49.999Z</time></trkpt><trkpt lat="44.33927402261138" lon="10.12654490701184"><ele>1087.0</ele><time>2026-04-18T08:35:50.999Z</time></trkpt><trkpt lat="44.3393645892109" lon="10.12649053858041"><ele>1087.0</ele><time>2026-04-18T08:35:51.999Z</time></trkpt><trkpt lat="44.33940685619321" lon="10.12639900859532"><ele>1087.0</ele><time>2026-04-18T08:35:52.999Z</time></trkpt><trkpt lat="44.339394526478294" lon="10.126272977841703"><ele>1087.0</ele><time>2026-04-18T08:35:53.999Z</time></trkpt><trkpt lat="44.33933442163009" lon="10.126153981978531"><ele>1087.0</ele><time>2026-04-18T08:35:54.999Z</time></trkpt><trkpt lat="44.33923498513704" lon="10.126106487049551"><ele>1087.0</ele><time>2026-04-18T08:35:56Z</time></trkpt><trkpt lat="44.33912556189334" lon="10.12614227627782"><ele>1087.0</ele><time>2026-04-18T08:35:57Z</time></trkpt><trkpt lat="44.33900317004671" lon="10.126236517653673"><ele>1087.0</ele><time>2026-04-18T08:35:58Z</time></trkpt><trkpt lat="44.33886200550846" lon="10.126305128995089"><ele>1087.0</ele><time>2026-04-18T08:35:59Z</time></trkpt><trkpt lat="44.338732194720016" lon="10.126377005325674"><ele>1084.5</ele><time>2026-04-18T08:36:00Z</time></trkpt><trkpt lat="44.338609575238316" lon="10.126438114360482"><ele>1082.0</ele><time>2026-04-18T08:36:01Z</time></trkpt><trkpt lat="44.338486239797376" lon="10.12647870978464"><ele>1079.5</ele><time>2026-04-18T08:36:02Z</time></trkpt><trkpt lat="44.33835649184148" lon="10.126393682585904"><ele>1077.0</ele><time>2026-04-18T08:36:03Z</time></trkpt><trkpt lat="44.338235671524664" lon="10.126304590993847"><ele>1077.0</ele><time>2026-04-18T08:36:04Z</time></trkpt><trkpt lat="44.33813681999913" lon="10.12619689777191"><ele>1077.0</ele><time>2026-04-18T08:36:05Z</time></trkpt><trkpt lat="44.3380207761339" lon="10.126160003756382"><ele>1077.0</ele><time>2026-04-18T08:36:06Z</time></trkpt><trkpt lat="44.337878088897426" lon="10.126170752407862"><ele>1077.0</ele><time>2026-04-18T08:36:07Z</time></trkpt><trkpt lat="44.33776678415733" lon="10.12619639646169"><ele>1074.25</ele><time>2026-04-18T08:36:08Z</time></trkpt><trkpt lat="44.337684996669694" lon="10.126233466751575"><ele>1071.5</ele><time>2026-04-18T08:36:10Z</time></trkpt><trkpt lat="44.33754708208104" lon="10.126271404999487"><ele>1068.75</ele><time>2026-04-18T08:36:12Z</time></trkpt><trkpt lat="44.33741377283498" lon="10.126304188188536"><ele>1066.0</ele><time>2026-04-18T08:36:13Z</time></trkpt><trkpt lat="44.33724411799992" lon="10.126278707143145"><ele>1063.5</ele><time>2026-04-18T08:36:14Z</time></trkpt><trkpt lat="44.337085554076026" lon="10.126264843226457"><ele>1061.0</ele><time>2026-04-18T08:36:15Z</time></trkpt><trkpt lat="44.336947377765505" lon="10.126283060943475"><ele>1058.5</ele><time>2026-04-18T08:36:16Z</time></trkpt><trkpt lat="44.33681539875799" lon="10.126344152879943"><ele>1056.0</ele><time>2026-04-18T08:36:17Z</time></trkpt><trkpt lat="44.33667947744591" lon="10.126450702973187"><ele>1056.0</ele><time>2026-04-18T08:36:18Z</time></trkpt><trkpt lat="44.336541189694984" lon="10.126525210077933"><ele>1056.0</ele><time>2026-04-18T08:36:19Z</time></trkpt><trkpt lat="44.33642817332779" lon="10.126560930877602"><ele>1056.0</ele><time>2026-04-18T08:36:20Z</time></trkpt><trkpt lat="44.33633530891391" lon="10.126500505793606"><ele>1056.0</ele><time>2026-04-18T08:36:21Z</time></trkpt><trkpt lat="44.33627709747376" lon="10.126355124640178"><ele>1056.75</ele><time>2026-04-18T08:36:22Z</time></trkpt><trkpt lat="44.3361847668929" lon="10.126244046946535"><ele>1057.5</ele><time>2026-04-18T08:36:23Z</time></trkpt><trkpt lat="44.336058291300546" lon="10.126155918749179"><ele>1058.25</ele><time>2026-04-18T08:36:24Z</time></trkpt><trkpt lat="44.33588935625615" lon="10.126121134818028"><ele>1059.0</ele><time>2026-04-18T08:36:25Z</time></trkpt><trkpt lat="44.33574317697234" lon="10.12606714947172"><ele>1059.0</ele><time>2026-04-18T08:36:26Z</time></trkpt><trkpt lat="44.33563401130093" lon="10.125941925945702"><ele>1059.0</ele><time>2026-04-18T08:36:27Z</time></trkpt><trkpt lat="44.335539737725036" lon="10.12577059353917"><ele>1059.0</ele><time>2026-04-18T08:36:28Z</time></trkpt><trkpt lat="44.33543514818896" lon="10.125628633213374"><ele>1059.0</ele><time>2026-04-18T08:36:29Z</time></trkpt><trkpt lat="44.335364069620226" lon="10.12548842506782"><ele>1059.75</ele><time>2026-04-18T08:36:30Z</time></trkpt><trkpt lat="44.335306382004475" lon="10.125334800331036"><ele>1060.5</ele><time>2026-04-18T08:36:31Z</time></trkpt><trkpt lat="44.335254327579754" lon="10.125150164852238"><ele>1061.25</ele><time>2026-04-18T08:36:32Z</time></trkpt><trkpt lat="44.33520284741033" lon="10.124974117902171"><ele>1062.0</ele><time>2026-04-18T08:36:33Z</time></trkpt><trkpt lat="44.33517806068485" lon="10.124812194202962"><ele>1062.0</ele><time>2026-04-18T08:36:34Z</time></trkpt><trkpt lat="44.33514274564169" lon="10.124652602512063"><ele>1062.0</ele><time>2026-04-18T08:36:35Z</time></trkpt><trkpt lat="44.33511265118258" lon="10.124485160199566"><ele>1062.0</ele><time>2026-04-18T08:36:36Z</time></trkpt><trkpt lat="44.335094402393175" lon="10.124294637924699"><ele>1062.0</ele><time>2026-04-18T08:36:37Z</time></trkpt><trkpt lat="44.33509254774594" lon="10.124111221109231"><ele>1061.0</ele><time>2026-04-18T08:36:38Z</time></trkpt><trkpt lat="44.335108870405215" lon="10.12393498693526"><ele>1060.0</ele><time>2026-04-18T08:36:39Z</time></trkpt><trkpt lat="44.335102386626076" lon="10.123757505618514"><ele>1059.0</ele><time>2026-04-18T08:36:40Z</time></trkpt><trkpt lat="44.335089008585264" lon="10.12360357076636"><ele>1058.0</ele><time>2026-04-18T08:36:41Z</time></trkpt><trkpt lat="44.33507177962335" lon="10.123471358488592"><ele>1058.0</ele><time>2026-04-18T08:36:42Z</time></trkpt><trkpt lat="44.3350517462391" lon="10.123333491063471"><ele>1058.0</ele><time>2026-04-18T08:36:43Z</time></trkpt><trkpt lat="44.33502338159922" lon="10.123184772949044"><ele>1058.0</ele><time>2026-04-18T08:36:44Z</time></trkpt><trkpt lat="44.33500063532247" lon="10.123020847051704"><ele>1058.0</ele><time>2026-04-18T08:36:45Z</time></trkpt><trkpt lat="44.33498612941157" lon="10.122831993264708"><ele>1054.25</ele><time>2026-04-18T08:36:46Z</time></trkpt><trkpt lat="44.33497899553471" lon="10.122651469609778"><ele>1050.5</ele><time>2026-04-18T08:36:47Z</time></trkpt><trkpt lat="44.3349497196335" lon="10.122483861934278"><ele>1046.75</ele><time>2026-04-18T08:36:48Z</time></trkpt><trkpt lat="44.33489008647336" lon="10.12232122326979"><ele>1043.0</ele><time>2026-04-18T08:36:49Z</time></trkpt><trkpt lat="44.33478472727289" lon="10.12215771080714"><ele>1050.3333333333335</ele><time>2026-04-18T08:36:50Z</time></trkpt><trkpt lat="44.334673195512295" lon="10.121996557269846"><ele>1057.6666666666667</ele><time>2026-04-18T08:36:51Z</time></trkpt><trkpt lat="44.33457020815403" lon="10.121820186033633"><ele>1065.0</ele><time>2026-04-18T08:36:52Z</time></trkpt><trkpt lat="44.33448881104352" lon="10.121635719974204"><ele>1057.6666666666667</ele><time>2026-04-18T08:36:53Z</time></trkpt><trkpt lat="44.33447360119103" lon="10.12142691552024"><ele>1050.3333333333335</ele><time>2026-04-18T08:36:54Z</time></trkpt><trkpt lat="44.33444937412476" lon="10.121213304868558"><ele>1043.0</ele><time>2026-04-18T08:36:55Z</time></trkpt><trkpt lat="44.33443996816805" lon="10.120997438713918"><ele>1043.0</ele><time>2026-04-18T08:36:56Z</time></trkpt><trkpt lat="44.33438000354651" lon="10.120797580656017"><ele>1043.0</ele><time>2026-04-18T08:36:57Z</time></trkpt><trkpt lat="44.334296849825215" lon="10.120593653997474"><ele>1043.0</ele><time>2026-04-18T08:36:58Z</time></trkpt><trkpt lat="44.33420086129805" lon="10.120396780725939"><ele>1035.6666666666667</ele><time>2026-04-18T08:36:59Z</time></trkpt><trkpt lat="44.334088609327736" lon="10.120205818845577"><ele>1028.3333333333333</ele><time>2026-04-18T08:37:00Z</time></trkpt><trkpt lat="44.333972114883096" lon="10.120024671747393"><ele>1021.0</ele><time>2026-04-18T08:37:01Z</time></trkpt><trkpt lat="44.333846714723464" lon="10.119840818775502"><ele>1021.0</ele><time>2026-04-18T08:37:02Z</time></trkpt><trkpt lat="44.333716816733805" lon="10.119661765349687"><ele>1021.0</ele><time>2026-04-18T08:37:03Z</time></trkpt><trkpt lat="44.33357695317255" lon="10.119485991081323"><ele>1021.0</ele><time>2026-04-18T08:37:04Z</time></trkpt><trkpt lat="44.33343909084883" lon="10.119312146962589"><ele>1021.0</ele><time>2026-04-18T08:37:05Z</time></trkpt><trkpt lat="44.33329380206935" lon="10.119142213114053"><ele>1021.0</ele><time>2026-04-18T08:37:06Z</time></trkpt><trkpt lat="44.33315701101177" lon="10.118968333839154"><ele>1021.0</ele><time>2026-04-18T08:37:07Z</time></trkpt><trkpt lat="44.33302759059807" lon="10.118776081613106"><ele>1022.6666666666666</ele><time>2026-04-18T08:37:08Z</time></trkpt><trkpt lat="44.33289875773881" lon="10.118587446659761"><ele>1024.3333333333333</ele><time>2026-04-18T08:37:09Z</time></trkpt><trkpt lat="44.33275172312779" lon="10.118421591595594"><ele>1026.0</ele><time>2026-04-18T08:37:10Z</time></trkpt><trkpt lat="44.332604455963846" lon="10.118277581303913"><ele>1014.0</ele><time>2026-04-18T08:37:11Z</time></trkpt><trkpt lat="44.332464343888574" lon="10.11814355385736"><ele>1002.0</ele><time>2026-04-18T08:37:11.999Z</time></trkpt><trkpt lat="44.3323720664935" lon="10.117947943640003"><ele>990.0</ele><time>2026-04-18T08:37:12.999Z</time></trkpt><trkpt lat="44.33228430051871" lon="10.117732967210921"><ele>989.3333333333333</ele><time>2026-04-18T08:37:13.999Z</time></trkpt><trkpt lat="44.33220149137415" lon="10.117522383595215"><ele>988.6666666666666</ele><time>2026-04-18T08:37:14.999Z</time></trkpt><trkpt lat="44.33209136041545" lon="10.117341584185683"><ele>988.0</ele><time>2026-04-18T08:37:15.999Z</time></trkpt><trkpt lat="44.33193002464864" lon="10.11719530645646"><ele>988.0</ele><time>2026-04-18T08:37:16.999Z</time></trkpt><trkpt lat="44.33177085200062" lon="10.117060912914372"><ele>988.0</ele><time>2026-04-18T08:37:17.999Z</time></trkpt><trkpt lat="44.331643241083114" lon="10.116891408305735"><ele>988.0</ele><time>2026-04-18T08:37:18.999Z</time></trkpt><trkpt lat="44.33151601998632" lon="10.116737731358803"><ele>985.0</ele><time>2026-04-18T08:37:19.999Z</time></trkpt><trkpt lat="44.331346782517585" lon="10.116632526981995"><ele>982.0</ele><time>2026-04-18T08:37:20.999Z</time></trkpt><trkpt lat="44.331154059359406" lon="10.116532449118543"><ele>979.0</ele><time>2026-04-18T08:37:21.999Z</time></trkpt><trkpt lat="44.330988311977265" lon="10.116362825386831"><ele>979.0</ele><time>2026-04-18T08:37:22.999Z</time></trkpt><trkpt lat="44.33082663624143" lon="10.116193807948614"><ele>979.0</ele><time>2026-04-18T08:37:23.999Z</time></trkpt><trkpt lat="44.330671288312324" lon="10.116040435181663"><ele>979.0</ele><time>2026-04-18T08:37:24.999Z</time></trkpt><trkpt lat="44.33053984666565" lon="10.115863416598762"><ele>977.0</ele><time>2026-04-18T08:37:25.999Z</time></trkpt><trkpt lat="44.330417370415915" lon="10.115696782827353"><ele>975.0</ele><time>2026-04-18T08:37:26.999Z</time></trkpt><trkpt lat="44.330314502142684" lon="10.115577846228874"><ele>973.0</ele><time>2026-04-18T08:37:27.999Z</time></trkpt><trkpt lat="44.33020823859715" lon="10.115527822399267"><ele>971.0</ele><time>2026-04-18T08:37:28.999Z</time></trkpt><trkpt lat="44.33008173488265" lon="10.115552385621994"><ele>971.0</ele><time>2026-04-18T08:37:29.999Z</time></trkpt><trkpt lat="44.329959260819535" lon="10.115583764477964"><ele>971.0</ele><time>2026-04-18T08:37:30.999Z</time></trkpt><trkpt lat="44.32986044841561" lon="10.115543285937875"><ele>971.0</ele><time>2026-04-18T08:37:31.999Z</time></trkpt><trkpt lat="44.329792174601714" lon="10.115395719848324"><ele>971.0</ele><time>2026-04-18T08:37:32.999Z</time></trkpt><trkpt lat="44.32978241105445" lon="10.11520934226354"><ele>971.0</ele><time>2026-04-18T08:37:33.999Z</time></trkpt><trkpt lat="44.3298207370402" lon="10.115030040571058"><ele>971.0</ele><time>2026-04-18T08:37:34.999Z</time></trkpt><trkpt lat="44.32980752762902" lon="10.114850080243851"><ele>971.0</ele><time>2026-04-18T08:37:35.999Z</time></trkpt><trkpt lat="44.32968613016306" lon="10.11468230967522"><ele>971.0</ele><time>2026-04-18T08:37:36.999Z</time></trkpt><trkpt lat="44.32952202680508" lon="10.114536372861357"><ele>974.0</ele><time>2026-04-18T08:37:37.999Z</time></trkpt><trkpt lat="44.329366569108345" lon="10.114341959920344"><ele>977.0</ele><time>2026-04-18T08:37:38.999Z</time></trkpt><trkpt lat="44.32920202013251" lon="10.114160409017503"><ele>980.0</ele><time>2026-04-18T08:37:39.999Z</time></trkpt><trkpt lat="44.329048928251694" lon="10.113994965373921"><ele>979.6666666666667</ele><time>2026-04-18T08:37:40.999Z</time></trkpt><trkpt lat="44.328908969843354" lon="10.113821291299896"><ele>979.3333333333333</ele><time>2026-04-18T08:37:41.999Z</time></trkpt><trkpt lat="44.3287960752691" lon="10.113606051837843"><ele>979.0</ele><time>2026-04-18T08:37:42.999Z</time></trkpt><trkpt lat="44.32870529099055" lon="10.113382552422232"><ele>970.0</ele><time>2026-04-18T08:37:43.999Z</time></trkpt><trkpt lat="44.32861015743324" lon="10.113191068499814"><ele>961.0</ele><time>2026-04-18T08:37:44.999Z</time></trkpt><trkpt lat="44.328504897657595" lon="10.113014494295154"><ele>952.0</ele><time>2026-04-18T08:37:45.999Z</time></trkpt><trkpt lat="44.32833106967773" lon="10.112864882151843"><ele>952.0</ele><time>2026-04-18T08:37:46.999Z</time></trkpt><trkpt lat="44.32813947874568" lon="10.11271611602682"><ele>952.0</ele><time>2026-04-18T08:37:47.999Z</time></trkpt><trkpt lat="44.327987280427394" lon="10.112524056279065"><ele>952.0</ele><time>2026-04-18T08:37:48.999Z</time></trkpt><trkpt lat="44.32783479438706" lon="10.112349973314604"><ele>948.3333333333333</ele><time>2026-04-18T08:37:49.999Z</time></trkpt><trkpt lat="44.32769637348885" lon="10.112172576038713"><ele>944.6666666666667</ele><time>2026-04-18T08:37:50.999Z</time></trkpt><trkpt lat="44.32753928129229" lon="10.112022758387853"><ele>941.0</ele><time>2026-04-18T08:37:51.999Z</time></trkpt><trkpt lat="44.32737409898992" lon="10.111914228638593"><ele>939.3333333333334</ele><time>2026-04-18T08:37:52.999Z</time></trkpt><trkpt lat="44.3272041319149" lon="10.111839746769052"><ele>937.6666666666667</ele><time>2026-04-18T08:37:53.999Z</time></trkpt><trkpt lat="44.32701603120294" lon="10.11181893976025"><ele>936.0</ele><time>2026-04-18T08:37:54.999Z</time></trkpt><trkpt lat="44.32682771188301" lon="10.111837084375264"><ele>936.0</ele><time>2026-04-18T08:37:55.999Z</time></trkpt><trkpt lat="44.326656250426986" lon="10.111871014177927"><ele>936.0</ele><time>2026-04-18T08:37:56.999Z</time></trkpt><trkpt lat="44.32649574471199" lon="10.111983373912858"><ele>936.0</ele><time>2026-04-18T08:37:57.999Z</time></trkpt><trkpt lat="44.32634248632368" lon="10.112163925880957"><ele>935.25</ele><time>2026-04-18T08:37:58.999Z</time></trkpt><trkpt lat="44.326171213992694" lon="10.112291305643826"><ele>934.5</ele><time>2026-04-18T08:37:59.999Z</time></trkpt><trkpt lat="44.326037722177595" lon="10.112382467560684"><ele>933.75</ele><time>2026-04-18T08:38:00.999Z</time></trkpt><trkpt lat="44.32594894086199" lon="10.11244015787619"><ele>933.0</ele><time>2026-04-18T08:38:02Z</time></trkpt><trkpt lat="44.32588785149464" lon="10.112480014331007"><ele>927.0</ele><time>2026-04-18T08:38:03Z</time></trkpt><trkpt lat="44.325826260657635" lon="10.11240117212525"><ele>921.0</ele><time>2026-04-18T08:38:04Z</time></trkpt><trkpt lat="44.325820146991546" lon="10.112243796042321"><ele>915.0</ele><time>2026-04-18T08:38:05Z</time></trkpt><trkpt lat="44.32589645068929" lon="10.112085776225468"><ele>909.0</ele><time>2026-04-18T08:38:06Z</time></trkpt><trkpt lat="44.326029538989744" lon="10.112049527335351"><ele>909.0</ele><time>2026-04-18T08:38:07Z</time></trkpt><trkpt lat="44.326169337824425" lon="10.112031254732672"><ele>909.0</ele><time>2026-04-18T08:38:08Z</time></trkpt><trkpt lat="44.326307124806014" lon="10.112007564778525"><ele>909.0</ele><time>2026-04-18T08:38:09Z</time></trkpt><trkpt lat="44.32640983324368" lon="10.111869745086599"><ele>909.0</ele><time>2026-04-18T08:38:10Z</time></trkpt><trkpt lat="44.326504383520096" lon="10.111656863211719"><ele>905.3333333333333</ele><time>2026-04-18T08:38:11Z</time></trkpt><trkpt lat="44.32662937283775" lon="10.111460736470157"><ele>901.6666666666666</ele><time>2026-04-18T08:38:12Z</time></trkpt><trkpt lat="44.32678716201875" lon="10.111322154856786"><ele>898.0</ele><time>2026-04-18T08:38:13Z</time></trkpt><trkpt lat="44.32695053977545" lon="10.111270970802785"><ele>898.0</ele><time>2026-04-18T08:38:14Z</time></trkpt><trkpt lat="44.327127639093014" lon="10.111217221418107"><ele>898.0</ele><time>2026-04-18T08:38:15Z</time></trkpt><trkpt lat="44.327319849170465" lon="10.111204284698864"><ele>898.0</ele><time>2026-04-18T08:38:16Z</time></trkpt><trkpt lat="44.32750958620317" lon="10.111202538522669"><ele>901.3333333333333</ele><time>2026-04-18T08:38:17Z</time></trkpt><trkpt lat="44.327688832330765" lon="10.111256168455771"><ele>904.6666666666667</ele><time>2026-04-18T08:38:18Z</time></trkpt><trkpt lat="44.327872921459964" lon="10.111336276979529"><ele>908.0</ele><time>2026-04-18T08:38:19Z</time></trkpt><trkpt lat="44.32805578533644" lon="10.111426696896128"><ele>913.0</ele><time>2026-04-18T08:38:20Z</time></trkpt><trkpt lat="44.328252535124086" lon="10.111535234010063"><ele>918.0</ele><time>2026-04-18T08:38:21Z</time></trkpt><trkpt lat="44.32841065368896" lon="10.111699395803566"><ele>923.0</ele><time>2026-04-18T08:38:22Z</time></trkpt><trkpt lat="44.32857340675988" lon="10.111805713648932"><ele>923.0</ele><time>2026-04-18T08:38:23Z</time></trkpt><trkpt lat="44.32873120672918" lon="10.111882232626527"><ele>923.0</ele><time>2026-04-18T08:38:24Z</time></trkpt><trkpt lat="44.32890797676895" lon="10.111921745260096"><ele>923.0</ele><time>2026-04-18T08:38:25Z</time></trkpt><trkpt lat="44.32911008903239" lon="10.111960238636252"><ele>917.25</ele><time>2026-04-18T08:38:26Z</time></trkpt><trkpt lat="44.32930511980583" lon="10.111962705270388"><ele>911.5</ele><time>2026-04-18T08:38:27Z</time></trkpt><trkpt lat="44.32944284625161" lon="10.1120170845638"><ele>905.75</ele><time>2026-04-18T08:38:28Z</time></trkpt><trkpt lat="44.329535127634664" lon="10.112078280923802"><ele>900.0</ele><time>2026-04-18T08:38:29Z</time></trkpt><trkpt lat="44.32960220766504" lon="10.112201321338933"><ele>900.0</ele><time>2026-04-18T08:38:30Z</time></trkpt><trkpt lat="44.32966093915584" lon="10.112382111671753"><ele>900.0</ele><time>2026-04-18T08:38:31Z</time></trkpt><trkpt lat="44.329676522807844" lon="10.112595904022848"><ele>900.0</ele><time>2026-04-18T08:38:32Z</time></trkpt><trkpt lat="44.32970169600828" lon="10.112790004217153"><ele>900.0</ele><time>2026-04-18T08:38:33Z</time></trkpt><trkpt lat="44.329750702746075" lon="10.11293793705394"><ele>898.4</ele><time>2026-04-18T08:38:34Z</time></trkpt><trkpt lat="44.32982664613138" lon="10.113060553795346"><ele>896.8</ele><time>2026-04-18T08:38:35Z</time></trkpt><trkpt lat="44.32991981375237" lon="10.113118337475095"><ele>895.2</ele><time>2026-04-18T08:38:36Z</time></trkpt><trkpt lat="44.330020786530234" lon="10.113062830745182"><ele>893.6</ele><time>2026-04-18T08:38:37Z</time></trkpt><trkpt lat="44.33008149937885" lon="10.112938549515023"><ele>892.0</ele><time>2026-04-18T08:38:38Z</time></trkpt><trkpt lat="44.33006782195619" lon="10.112757163388421"><ele>892.0</ele><time>2026-04-18T08:38:39Z</time></trkpt><trkpt lat="44.329974545269216" lon="10.112547625861064"><ele>892.0</ele><time>2026-04-18T08:38:40Z</time></trkpt><trkpt lat="44.32988568395617" lon="10.112330835683371"><ele>892.0</ele><time>2026-04-18T08:38:41Z</time></trkpt><trkpt lat="44.329798595024485" lon="10.112110688555791"><ele>894.6666666666666</ele><time>2026-04-18T08:38:42Z</time></trkpt><trkpt lat="44.32970923062566" lon="10.111923860176805"><ele>897.3333333333333</ele><time>2026-04-18T08:38:43Z</time></trkpt><trkpt lat="44.32959933866499" lon="10.11175108212945"><ele>900.0</ele><time>2026-04-18T08:38:44Z</time></trkpt><trkpt lat="44.32947165768903" lon="10.111595239707077"><ele>890.0</ele><time>2026-04-18T08:38:45Z</time></trkpt><trkpt lat="44.329313565762554" lon="10.111490563038526"><ele>880.0</ele><time>2026-04-18T08:38:46Z</time></trkpt><trkpt lat="44.32913667276345" lon="10.111404126050822"><ele>870.0</ele><time>2026-04-18T08:38:47Z</time></trkpt><trkpt lat="44.32897767116504" lon="10.111281816685596"><ele>866.6666666666667</ele><time>2026-04-18T08:38:48Z</time></trkpt><trkpt lat="44.32884268383666" lon="10.111069542786538"><ele>863.3333333333334</ele><time>2026-04-18T08:38:49Z</time></trkpt><trkpt lat="44.328703805112674" lon="10.110841158322"><ele>860.0</ele><time>2026-04-18T08:38:50Z</time></trkpt><trkpt lat="44.328516638002704" lon="10.110672949142145"><ele>860.0</ele><time>2026-04-18T08:38:51Z</time></trkpt><trkpt lat="44.32835043715368" lon="10.11048814692287"><ele>860.0</ele><time>2026-04-18T08:38:52Z</time></trkpt><trkpt lat="44.32819650700339" lon="10.110317471884457"><ele>860.0</ele><time>2026-04-18T08:38:53Z</time></trkpt><trkpt lat="44.328056679724526" lon="10.110157661780248"><ele>863.3333333333334</ele><time>2026-04-18T08:38:54Z</time></trkpt><trkpt lat="44.32793868384855" lon="10.1100296912058"><ele>866.6666666666667</ele><time>2026-04-18T08:38:55Z</time></trkpt><trkpt lat="44.32778677859171" lon="10.109931339402113"><ele>870.0</ele><time>2026-04-18T08:38:56Z</time></trkpt><trkpt lat="44.32759708799149" lon="10.109873995280006"><ele>866.6666666666667</ele><time>2026-04-18T08:38:57Z</time></trkpt><trkpt lat="44.32739340059297" lon="10.109850684390638"><ele>863.3333333333334</ele><time>2026-04-18T08:38:58Z</time></trkpt><trkpt lat="44.327180722989894" lon="10.109879794083652"><ele>860.0</ele><time>2026-04-18T08:38:59Z</time></trkpt><trkpt lat="44.32696613053149" lon="10.109945419938072"><ele>860.0</ele><time>2026-04-18T08:39:00Z</time></trkpt><trkpt lat="44.326763139729756" lon="10.110002733427747"><ele>860.0</ele><time>2026-04-18T08:39:01Z</time></trkpt><trkpt lat="44.32658317443473" lon="10.110070499562388"><ele>860.0</ele><time>2026-04-18T08:39:02Z</time></trkpt><trkpt lat="44.32641868522387" lon="10.110169979725374"><ele>850.6666666666667</ele><time>2026-04-18T08:39:03Z</time></trkpt><trkpt lat="44.32625090127159" lon="10.110319157449428"><ele>841.3333333333333</ele><time>2026-04-18T08:39:04Z</time></trkpt><trkpt lat="44.32613147723125" lon="10.110543615140202"><ele>832.0</ele><time>2026-04-18T08:39:05Z</time></trkpt><trkpt lat="44.32598333756847" lon="10.110737510584293"><ele>840.75</ele><time>2026-04-18T08:39:06Z</time></trkpt><trkpt lat="44.325863032978454" lon="10.110847909952492"><ele>849.5</ele><time>2026-04-18T08:39:07Z</time></trkpt><trkpt lat="44.325730729839094" lon="10.110873588095354"><ele>858.25</ele><time>2026-04-18T08:39:08Z</time></trkpt><trkpt lat="44.3255839922238" lon="10.110928001498149"><ele>867.0</ele><time>2026-04-18T08:39:09Z</time></trkpt><trkpt lat="44.325425132333436" lon="10.111058249280985"><ele>869.5</ele><time>2026-04-18T08:39:10Z</time></trkpt><trkpt lat="44.32528674669157" lon="10.111129382896817"><ele>872.0</ele><time>2026-04-18T08:39:11Z</time></trkpt><trkpt lat="44.32520487114236" lon="10.111155791645178"><ele>874.5</ele><time>2026-04-18T08:39:12Z</time></trkpt><trkpt lat="44.32508563584608" lon="10.11105157177132"><ele>877.0</ele><time>2026-04-18T08:39:14Z</time></trkpt><trkpt lat="44.32506121044522" lon="10.11090631031896"><ele>874.25</ele><time>2026-04-18T08:39:15Z</time></trkpt><trkpt lat="44.325104188779356" lon="10.110738200082862"><ele>871.5</ele><time>2026-04-18T08:39:16Z</time></trkpt><trkpt lat="44.325197520964686" lon="10.11060163967146"><ele>868.75</ele><time>2026-04-18T08:39:17Z</time></trkpt><trkpt lat="44.32528793810905" lon="10.11044315796053"><ele>866.0</ele><time>2026-04-18T08:39:18Z</time></trkpt><trkpt lat="44.32533116921289" lon="10.110223782642105"><ele>866.0</ele><time>2026-04-18T08:39:18.999Z</time></trkpt><trkpt lat="44.32530891444833" lon="10.109964811550636"><ele>866.0</ele><time>2026-04-18T08:39:19.999Z</time></trkpt><trkpt lat="44.32523943101504" lon="10.109699062137283"><ele>866.0</ele><time>2026-04-18T08:39:20.999Z</time></trkpt><trkpt lat="44.32518508548077" lon="10.10947453855444"><ele>859.0</ele><time>2026-04-18T08:39:21.999Z</time></trkpt><trkpt lat="44.32505610803939" lon="10.109198794502376"><ele>852.0</ele><time>2026-04-18T08:39:22.999Z</time></trkpt><trkpt lat="44.32494589949302" lon="10.10898667061715"><ele>845.0</ele><time>2026-04-18T08:39:23.999Z</time></trkpt><trkpt lat="44.324824401921475" lon="10.108807374096957"><ele>838.3333333333334</ele><time>2026-04-18T08:39:24.999Z</time></trkpt><trkpt lat="44.32468938120196" lon="10.108676698948615"><ele>831.6666666666667</ele><time>2026-04-18T08:39:25.999Z</time></trkpt><trkpt lat="44.324525860392825" lon="10.108618675758764"><ele>825.0</ele><time>2026-04-18T08:39:26.999Z</time></trkpt><trkpt lat="44.32432179077924" lon="10.10859904696508"><ele>825.0</ele><time>2026-04-18T08:39:27.999Z</time></trkpt><trkpt lat="44.32411620315392" lon="10.108543767481844"><ele>825.0</ele><time>2026-04-18T08:39:28.999Z</time></trkpt><trkpt lat="44.32393479294407" lon="10.108411086388115"><ele>825.0</ele><time>2026-04-18T08:39:29.999Z</time></trkpt><trkpt lat="44.32378379591076" lon="10.10825545611593"><ele>816.5</ele><time>2026-04-18T08:39:30.999Z</time></trkpt><trkpt lat="44.32366037432382" lon="10.10813364861046"><ele>808.0</ele><time>2026-04-18T08:39:31.999Z</time></trkpt><trkpt lat="44.32353009147117" lon="10.108069124641426"><ele>799.5</ele><time>2026-04-18T08:39:32.999Z</time></trkpt><trkpt lat="44.32337147208644" lon="10.108082326058133"><ele>791.0</ele><time>2026-04-18T08:39:33.999Z</time></trkpt><trkpt lat="44.323209077327604" lon="10.108155598564496"><ele>791.0</ele><time>2026-04-18T08:39:34.999Z</time></trkpt><trkpt lat="44.32309550533176" lon="10.108213319642191"><ele>791.0</ele><time>2026-04-18T08:39:35.999Z</time></trkpt><trkpt lat="44.32301664132219" lon="10.108197972862733"><ele>791.0</ele><time>2026-04-18T08:39:36.999Z</time></trkpt><trkpt lat="44.32297054811173" lon="10.108108925279355"><ele>791.0</ele><time>2026-04-18T08:39:37.999Z</time></trkpt><trkpt lat="44.32302399877334" lon="10.107965191734777"><ele>791.0</ele><time>2026-04-18T08:39:38.999Z</time></trkpt><trkpt lat="44.323102942255815" lon="10.107896813818641"><ele>791.0</ele><time>2026-04-18T08:39:39.999Z</time></trkpt><trkpt lat="44.323201262029535" lon="10.107914977260519"><ele>791.0</ele><time>2026-04-18T08:39:40.999Z</time></trkpt><trkpt lat="44.32335869204554" lon="10.107934985584146"><ele>791.0</ele><time>2026-04-18T08:39:41.999Z</time></trkpt><trkpt lat="44.3235331688515" lon="10.107954182578444"><ele>791.0</ele><time>2026-04-18T08:39:42.999Z</time></trkpt><trkpt lat="44.32371517528142" lon="10.107972367593266"><ele>791.0</ele><time>2026-04-18T08:39:43.999Z</time></trkpt><trkpt lat="44.32391710551559" lon="10.107972715058764"><ele>791.0</ele><time>2026-04-18T08:39:44.999Z</time></trkpt><trkpt lat="44.32409001096114" lon="10.107966238193885"><ele>791.0</ele><time>2026-04-18T08:39:45.999Z</time></trkpt><trkpt lat="44.32425963460719" lon="10.10791116319704"><ele>791.0</ele><time>2026-04-18T08:39:46.999Z</time></trkpt><trkpt lat="44.324415505008176" lon="10.10782689915585"><ele>791.0</ele><time>2026-04-18T08:39:47.999Z</time></trkpt><trkpt lat="44.32456995017096" lon="10.107820758915805"><ele>791.0</ele><time>2026-04-18T08:39:48.999Z</time></trkpt><trkpt lat="44.32472706294417" lon="10.107872837978306"><ele>792.0</ele><time>2026-04-18T08:39:49.999Z</time></trkpt><trkpt lat="44.3249055844195" lon="10.107992540176769"><ele>793.0</ele><time>2026-04-18T08:39:50.999Z</time></trkpt><trkpt lat="44.325038516985714" lon="10.108164646324571"><ele>794.0</ele><time>2026-04-18T08:39:51.999Z</time></trkpt><trkpt lat="44.325153560046935" lon="10.10835178064878"><ele>794.2</ele><time>2026-04-18T08:39:52.999Z</time></trkpt><trkpt lat="44.32526546863892" lon="10.108518991338254"><ele>794.4000000000001</ele><time>2026-04-18T08:39:53.999Z</time></trkpt><trkpt lat="44.32534271722276" lon="10.10864365230358"><ele>794.6</ele><time>2026-04-18T08:39:54.999Z</time></trkpt><trkpt lat="44.32541341184352" lon="10.108702133302074"><ele>794.8</ele><time>2026-04-18T08:39:55.999Z</time></trkpt><trkpt lat="44.3254885704062" lon="10.108720397181605"><ele>795.0</ele><time>2026-04-18T08:39:56.999Z</time></trkpt><trkpt lat="44.32557402491713" lon="10.10859571540768"><ele>795.0</ele><time>2026-04-18T08:39:57.999Z</time></trkpt><trkpt lat="44.32559204788864" lon="10.108428260525347"><ele>795.0</ele><time>2026-04-18T08:39:58.999Z</time></trkpt><trkpt lat="44.325526229421705" lon="10.108268859416897"><ele>795.0</ele><time>2026-04-18T08:39:59.999Z</time></trkpt><trkpt lat="44.325398988564764" lon="10.10809953393698"><ele>795.0</ele><time>2026-04-18T08:40:00.999Z</time></trkpt><trkpt lat="44.32526180369135" lon="10.107907462343956"><ele>794.6666666666667</ele><time>2026-04-18T08:40:01.999Z</time></trkpt><trkpt lat="44.32514605234748" lon="10.107710270063164"><ele>794.3333333333334</ele><time>2026-04-18T08:40:02.999Z</time></trkpt><trkpt lat="44.32504228102714" lon="10.107531222994561"><ele>794.0</ele><time>2026-04-18T08:40:03.999Z</time></trkpt><trkpt lat="44.32493879596781" lon="10.107371498105486"><ele>784.3333333333334</ele><time>2026-04-18T08:40:04.999Z</time></trkpt><trkpt lat="44.32481141861121" lon="10.10726193820537"><ele>774.6666666666667</ele><time>2026-04-18T08:40:05.999Z</time></trkpt><trkpt lat="44.32463871196672" lon="10.107192477972063"><ele>765.0</ele><time>2026-04-18T08:40:06.999Z</time></trkpt><trkpt lat="44.324448823835645" lon="10.107185603732693"><ele>765.0</ele><time>2026-04-18T08:40:08Z</time></trkpt><trkpt lat="44.324233073297485" lon="10.10725878676451"><ele>765.0</ele><time>2026-04-18T08:40:09Z</time></trkpt><trkpt lat="44.32408325990396" lon="10.1073784643932"><ele>765.0</ele><time>2026-04-18T08:40:10Z</time></trkpt><trkpt lat="44.32392046373121" lon="10.10739870766392"><ele>762.6666666666666</ele><time>2026-04-18T08:40:11Z</time></trkpt><trkpt lat="44.323707217641854" lon="10.107364379138636"><ele>760.3333333333333</ele><time>2026-04-18T08:40:12Z</time></trkpt><trkpt lat="44.32354158057544" lon="10.107333244303014"><ele>758.0</ele><time>2026-04-18T08:40:13Z</time></trkpt><trkpt lat="44.32341426849349" lon="10.107221925692288"><ele>758.0</ele><time>2026-04-18T08:40:14Z</time></trkpt><trkpt lat="44.32323531393337" lon="10.107148790424262"><ele>758.0</ele><time>2026-04-18T08:40:15Z</time></trkpt><trkpt lat="44.32311429753177" lon="10.10706621394252"><ele>758.0</ele><time>2026-04-18T08:40:16Z</time></trkpt><trkpt lat="44.322989486970684" lon="10.107058819460562"><ele>758.0</ele><time>2026-04-18T08:40:17Z</time></trkpt><trkpt lat="44.32286560782976" lon="10.107136543959777"><ele>763.0</ele><time>2026-04-18T08:40:18Z</time></trkpt><trkpt lat="44.32275554364401" lon="10.107304298137798"><ele>768.0</ele><time>2026-04-18T08:40:19Z</time></trkpt><trkpt lat="44.322664951532126" lon="10.107415868003857"><ele>773.0</ele><time>2026-04-18T08:40:20Z</time></trkpt><trkpt lat="44.32260740085798" lon="10.107457995653048"><ele>778.0</ele><time>2026-04-18T08:40:21Z</time></trkpt><trkpt lat="44.322532928312455" lon="10.107429140363047"><ele>783.0</ele><time>2026-04-18T08:40:22Z</time></trkpt><trkpt lat="44.322473084444184" lon="10.10728023976794"><ele>783.0</ele><time>2026-04-18T08:40:23Z</time></trkpt><trkpt lat="44.322468995643135" lon="10.10706799590879"><ele>783.0</ele><time>2026-04-18T08:40:24Z</time></trkpt><trkpt lat="44.322466852836364" lon="10.10679441666773"><ele>783.0</ele><time>2026-04-18T08:40:25Z</time></trkpt><trkpt lat="44.32246191022073" lon="10.106541862203358"><ele>776.6666666666666</ele><time>2026-04-18T08:40:26Z</time></trkpt><trkpt lat="44.32245712697419" lon="10.106255853097707"><ele>770.3333333333333</ele><time>2026-04-18T08:40:27Z</time></trkpt><trkpt lat="44.322433894021216" lon="10.105962761959297"><ele>764.0</ele><time>2026-04-18T08:40:28Z</time></trkpt><trkpt lat="44.32236716766142" lon="10.105690565091274"><ele>766.3333333333333</ele><time>2026-04-18T08:40:29Z</time></trkpt><trkpt lat="44.322277141918875" lon="10.10541806425527"><ele>768.6666666666666</ele><time>2026-04-18T08:40:30Z</time></trkpt><trkpt lat="44.322227293331146" lon="10.10517914360269"><ele>771.0</ele><time>2026-04-18T08:40:31Z</time></trkpt><trkpt lat="44.32221911403629" lon="10.104999748895928"><ele>760.0</ele><time>2026-04-18T08:40:32Z</time></trkpt><trkpt lat="44.32215619986448" lon="10.10485336711893"><ele>749.0</ele><time>2026-04-18T08:40:33Z</time></trkpt><trkpt lat="44.32202986488385" lon="10.104626665463261"><ele>738.0</ele><time>2026-04-18T08:40:34Z</time></trkpt><trkpt lat="44.32192501544677" lon="10.104514449223206"><ele>738.0</ele><time>2026-04-18T08:40:35Z</time></trkpt><trkpt lat="44.321817929138845" lon="10.104456965080436"><ele>738.0</ele><time>2026-04-18T08:40:36Z</time></trkpt><trkpt lat="44.321651579102955" lon="10.104450292813008"><ele>738.0</ele><time>2026-04-18T08:40:37Z</time></trkpt><trkpt lat="44.321461214634304" lon="10.104453684121454"><ele>739.25</ele><time>2026-04-18T08:40:38Z</time></trkpt><trkpt lat="44.321304124764964" lon="10.104454967442685"><ele>740.5</ele><time>2026-04-18T08:40:39Z</time></trkpt><trkpt lat="44.3211936872123" lon="10.104477131172219"><ele>741.75</ele><time>2026-04-18T08:40:40Z</time></trkpt><trkpt lat="44.32111825311042" lon="10.104573922832238"><ele>743.0</ele><time>2026-04-18T08:40:41Z</time></trkpt><trkpt lat="44.32103941074985" lon="10.104645174536877"><ele>743.0</ele><time>2026-04-18T08:40:42Z</time></trkpt><trkpt lat="44.32094056546513" lon="10.104649773910886"><ele>743.0</ele><time>2026-04-18T08:40:43Z</time></trkpt><trkpt lat="44.3208089546326" lon="10.10453889795319"><ele>743.0</ele><time>2026-04-18T08:40:44Z</time></trkpt><trkpt lat="44.32064668953864" lon="10.104517490291482"><ele>743.0</ele><time>2026-04-18T08:40:45Z</time></trkpt><trkpt lat="44.32052222274879" lon="10.104505560849274"><ele>752.0</ele><time>2026-04-18T08:40:46Z</time></trkpt><trkpt lat="44.320447573271636" lon="10.104451289132706"><ele>761.0</ele><time>2026-04-18T08:40:47Z</time></trkpt><trkpt lat="44.32040919387873" lon="10.104315697630499"><ele>770.0</ele><time>2026-04-18T08:40:48Z</time></trkpt><trkpt lat="44.32042964261096" lon="10.104111034389135"><ele>779.0</ele><time>2026-04-18T08:40:49Z</time></trkpt><trkpt lat="44.320491755667234" lon="10.103893322635864"><ele>779.0</ele><time>2026-04-18T08:40:50Z</time></trkpt><trkpt lat="44.320544245818176" lon="10.103637411589123"><ele>779.0</ele><time>2026-04-18T08:40:51Z</time></trkpt><trkpt lat="44.32058264252759" lon="10.103409427184019"><ele>779.0</ele><time>2026-04-18T08:40:52Z</time></trkpt><trkpt lat="44.32058890233081" lon="10.103196750246456"><ele>772.0</ele><time>2026-04-18T08:40:53Z</time></trkpt><trkpt lat="44.320538435542616" lon="10.10295614010343"><ele>765.0</ele><time>2026-04-18T08:40:54Z</time></trkpt><trkpt lat="44.320441164767274" lon="10.102686856032939"><ele>758.0</ele><time>2026-04-18T08:40:55Z</time></trkpt><trkpt lat="44.32033122729519" lon="10.102433953374204"><ele>751.0</ele><time>2026-04-18T08:40:56Z</time></trkpt><trkpt lat="44.320153040212254" lon="10.102180621572048"><ele>744.0</ele><time>2026-04-18T08:40:57Z</time></trkpt><trkpt lat="44.32003212294087" lon="10.102076073277614"><ele>737.0</ele><time>2026-04-18T08:40:59Z</time></trkpt><trkpt lat="44.32004905906257" lon="10.101973505268473"><ele>737.0</ele><time>2026-04-18T08:41:00Z</time></trkpt><trkpt lat="44.32011892511647" lon="10.101913208847975"><ele>737.0</ele><time>2026-04-18T08:41:01Z</time></trkpt><trkpt lat="44.3202004806505" lon="10.10196249856199"><ele>737.0</ele><time>2026-04-18T08:41:02Z</time></trkpt><trkpt lat="44.32027866826533" lon="10.102035214893245"><ele>737.0</ele><time>2026-04-18T08:41:03Z</time></trkpt><trkpt lat="44.320311734875226" lon="10.102231015410323"><ele>737.0</ele><time>2026-04-18T08:41:04Z</time></trkpt><trkpt lat="44.32036896855385" lon="10.102447841380064"><ele>731.0</ele><time>2026-04-18T08:41:05Z</time></trkpt><trkpt lat="44.320467953753436" lon="10.102673201090827"><ele>725.0</ele><time>2026-04-18T08:41:06Z</time></trkpt><trkpt lat="44.320587810821664" lon="10.102886472639085"><ele>719.0</ele><time>2026-04-18T08:41:07Z</time></trkpt><trkpt lat="44.320712543935024" lon="10.103050159434519"><ele>719.0</ele><time>2026-04-18T08:41:08Z</time></trkpt><trkpt lat="44.320792569464004" lon="10.103186821387133"><ele>719.0</ele><time>2026-04-18T08:41:09Z</time></trkpt><trkpt lat="44.320830877459905" lon="10.103336055934657"><ele>719.0</ele><time>2026-04-18T08:41:10Z</time></trkpt><trkpt lat="44.32077624555631" lon="10.103483918022064"><ele>719.0</ele><time>2026-04-18T08:41:11Z</time></trkpt><trkpt lat="44.32075425219391" lon="10.10370305984134"><ele>722.25</ele><time>2026-04-18T08:41:12Z</time></trkpt><trkpt lat="44.320755953001786" lon="10.103873436503815"><ele>725.5</ele><time>2026-04-18T08:41:13Z</time></trkpt><trkpt lat="44.32083160173083" lon="10.103981673664217"><ele>728.75</ele><time>2026-04-18T08:41:14Z</time></trkpt><trkpt lat="44.320923666359036" lon="10.104064249589456"><ele>732.0</ele><time>2026-04-18T08:41:15Z</time></trkpt><trkpt lat="44.32104327484446" lon="10.104098016680979"><ele>732.0</ele><time>2026-04-18T08:41:16Z</time></trkpt><trkpt lat="44.3211774701115" lon="10.104042462477224"><ele>732.0</ele><time>2026-04-18T08:41:17Z</time></trkpt><trkpt lat="44.32131573686622" lon="10.10390895638848"><ele>732.0</ele><time>2026-04-18T08:41:17.999Z</time></trkpt><trkpt lat="44.32146581576264" lon="10.103778478424978"><ele>723.6666666666666</ele><time>2026-04-18T08:41:18.999Z</time></trkpt><trkpt lat="44.32165001523076" lon="10.103669107283167"><ele>715.3333333333333</ele><time>2026-04-18T08:41:19.999Z</time></trkpt><trkpt lat="44.32187656413863" lon="10.103571278881663"><ele>707.0</ele><time>2026-04-18T08:41:20.999Z</time></trkpt><trkpt lat="44.32204868399648" lon="10.10350282723407"><ele>707.0</ele><time>2026-04-18T08:41:21.999Z</time></trkpt><trkpt lat="44.32220363621572" lon="10.103454471777987"><ele>707.0</ele><time>2026-04-18T08:41:22.999Z</time></trkpt><trkpt lat="44.32235306903815" lon="10.103471119851894"><ele>707.0</ele><time>2026-04-18T08:41:23.999Z</time></trkpt><trkpt lat="44.322496942910284" lon="10.103535581328732"><ele>703.0</ele><time>2026-04-18T08:41:24.999Z</time></trkpt><trkpt lat="44.322632717605444" lon="10.103619704377108"><ele>699.0</ele><time>2026-04-18T08:41:25.999Z</time></trkpt><trkpt lat="44.32274777469127" lon="10.103774716163395"><ele>695.0</ele><time>2026-04-18T08:41:26.999Z</time></trkpt><trkpt lat="44.32289923009886" lon="10.10393833090628"><ele>693.6666666666666</ele><time>2026-04-18T08:41:27.999Z</time></trkpt><trkpt lat="44.3230653336306" lon="10.104064483233781"><ele>692.3333333333334</ele><time>2026-04-18T08:41:28.999Z</time></trkpt><trkpt lat="44.323228693156736" lon="10.104213323825281"><ele>691.0</ele><time>2026-04-18T08:41:29.999Z</time></trkpt><trkpt lat="44.323404102819296" lon="10.104356460471092"><ele>691.0</ele><time>2026-04-18T08:41:30.999Z</time></trkpt><trkpt lat="44.3235825862439" lon="10.104500145111214"><ele>691.0</ele><time>2026-04-18T08:41:31.999Z</time></trkpt><trkpt lat="44.32381055819079" lon="10.104678026918707"><ele>680.5</ele><time>2026-04-18T08:41:32.999Z</time></trkpt><trkpt lat="44.32405896026548" lon="10.104789588658292"><ele>670.0</ele><time>2026-04-18T08:41:33.999Z</time></trkpt><trkpt lat="44.32424633854749" lon="10.10489988700403"><ele>670.0</ele><time>2026-04-18T08:41:34.999Z</time></trkpt><trkpt lat="44.324189943693746" lon="10.104791648380875"><ele>670.0</ele><time>2026-04-18T08:41:35.999Z</time></trkpt><trkpt lat="44.324324115560586" lon="10.10486086106751"><ele>670.0</ele><time>2026-04-18T08:41:36.999Z</time></trkpt><trkpt lat="44.324481397165464" lon="10.10496632063056"><ele>670.0</ele><time>2026-04-18T08:41:37.999Z</time></trkpt><trkpt lat="44.32464634315346" lon="10.105041161127463"><ele>677.6666666666667</ele><time>2026-04-18T08:41:38.999Z</time></trkpt><trkpt lat="44.324825941174225" lon="10.10507203610999"><ele>685.3333333333334</ele><time>2026-04-18T08:41:39.999Z</time></trkpt><trkpt lat="44.32500742147265" lon="10.105085552761826"><ele>693.0</ele><time>2026-04-18T08:41:40.999Z</time></trkpt><trkpt lat="44.32516020618879" lon="10.105092187649422"><ele>693.0</ele><time>2026-04-18T08:41:41.999Z</time></trkpt><trkpt lat="44.325274579425525" lon="10.105052921192446"><ele>693.0</ele><time>2026-04-18T08:41:42.999Z</time></trkpt><trkpt lat="44.32537776409717" lon="10.104939805003916"><ele>693.0</ele><time>2026-04-18T08:41:43.999Z</time></trkpt><trkpt lat="44.32545968026946" lon="10.104754046475616"><ele>693.0</ele><time>2026-04-18T08:41:44.999Z</time></trkpt><trkpt lat="44.32550729547789" lon="10.104565719879242"><ele>691.4</ele><time>2026-04-18T08:41:45.999Z</time></trkpt><trkpt lat="44.325543376026786" lon="10.104413233025113"><ele>689.8</ele><time>2026-04-18T08:41:46.999Z</time></trkpt><trkpt lat="44.32558044327356" lon="10.104281035579406"><ele>688.2</ele><time>2026-04-18T08:41:47.999Z</time></trkpt><trkpt lat="44.32561249570629" lon="10.104171003099482"><ele>686.6</ele><time>2026-04-18T08:41:48.999Z</time></trkpt><trkpt lat="44.32564687239368" lon="10.104060336998437"><ele>685.0</ele><time>2026-04-18T08:41:49.999Z</time></trkpt><trkpt lat="44.32569005270294" lon="10.103944730071238"><ele>690.8</ele><time>2026-04-18T08:41:50.999Z</time></trkpt><trkpt lat="44.32571862066208" lon="10.103825657148898"><ele>696.6</ele><time>2026-04-18T08:41:51.999Z</time></trkpt><trkpt lat="44.325705844233646" lon="10.103699729534013"><ele>702.4000000000001</ele><time>2026-04-18T08:41:52.999Z</time></trkpt><trkpt lat="44.325664485300784" lon="10.103593029583132"><ele>708.2</ele><time>2026-04-18T08:41:53.999Z</time></trkpt><trkpt lat="44.3256022221927" lon="10.103452478093631"><ele>714.0</ele><time>2026-04-18T08:41:54.999Z</time></trkpt><trkpt lat="44.325361174001216" lon="10.103215484151374"><ele>714.0</ele><time>2026-04-18T08:41:55.999Z</time></trkpt><trkpt lat="44.325145468665745" lon="10.10306972624399"><ele>714.0</ele><time>2026-04-18T08:41:56.999Z</time></trkpt><trkpt lat="44.32493372625414" lon="10.102965197650041"><ele>714.0</ele><time>2026-04-18T08:41:57.999Z</time></trkpt><trkpt lat="44.324750503655025" lon="10.102867931287912"><ele>714.0</ele><time>2026-04-18T08:41:58.999Z</time></trkpt><trkpt lat="44.32458453656776" lon="10.102776714831432"><ele>714.0</ele><time>2026-04-18T08:41:59.999Z</time></trkpt><trkpt lat="44.32443741322304" lon="10.102646531378392"><ele>708.3333333333334</ele><time>2026-04-18T08:42:00.999Z</time></trkpt><trkpt lat="44.32430091943687" lon="10.102522772393566"><ele>702.6666666666667</ele><time>2026-04-18T08:42:01.999Z</time></trkpt><trkpt lat="44.324214006087935" lon="10.102323635005112"><ele>697.0</ele><time>2026-04-18T08:42:02.999Z</time></trkpt><trkpt lat="44.324129591809836" lon="10.102097360411426"><ele>697.0</ele><time>2026-04-18T08:42:03.999Z</time></trkpt><trkpt lat="44.324005088964334" lon="10.101897839239319"><ele>697.0</ele><time>2026-04-18T08:42:04.999Z</time></trkpt><trkpt lat="44.32388451961016" lon="10.101729178014837"><ele>697.0</ele><time>2026-04-18T08:42:05.999Z</time></trkpt><trkpt lat="44.32379813181796" lon="10.101535607375672"><ele>686.6666666666667</ele><time>2026-04-18T08:42:06.999Z</time></trkpt><trkpt lat="44.32369266956975" lon="10.101303492047322"><ele>676.3333333333334</ele><time>2026-04-18T08:42:07.999Z</time></trkpt><trkpt lat="44.32359405260164" lon="10.101041666984694"><ele>666.0</ele><time>2026-04-18T08:42:08.999Z</time></trkpt><trkpt lat="44.32347284799208" lon="10.100848153054582"><ele>669.3333333333334</ele><time>2026-04-18T08:42:09.999Z</time></trkpt><trkpt lat="44.32332945128705" lon="10.100697425007116"><ele>672.6666666666667</ele><time>2026-04-18T08:42:10.999Z</time></trkpt><trkpt lat="44.3231980998909" lon="10.10057951123245"><ele>676.0</ele><time>2026-04-18T08:42:11.999Z</time></trkpt><trkpt lat="44.32311004488919" lon="10.100443233459606"><ele>676.0</ele><time>2026-04-18T08:42:12.999Z</time></trkpt><trkpt lat="44.32308759976486" lon="10.100254345012576"><ele>676.0</ele><time>2026-04-18T08:42:14Z</time></trkpt><trkpt lat="44.32311619306572" lon="10.1000546748858"><ele>676.0</ele><time>2026-04-18T08:42:15Z</time></trkpt><trkpt lat="44.32314357190729" lon="10.099871510152303"><ele>676.0</ele><time>2026-04-18T08:42:16Z</time></trkpt><trkpt lat="44.32307805456043" lon="10.099682176745562"><ele>662.6666666666667</ele><time>2026-04-18T08:42:17Z</time></trkpt><trkpt lat="44.32294657309932" lon="10.099471861177792"><ele>649.3333333333334</ele><time>2026-04-18T08:42:18Z</time></trkpt><trkpt lat="44.32282163358431" lon="10.099283369454824"><ele>636.0</ele><time>2026-04-18T08:42:19Z</time></trkpt><trkpt lat="44.32276223179791" lon="10.099069626014405"><ele>635.6666666666666</ele><time>2026-04-18T08:42:20Z</time></trkpt><trkpt lat="44.322719998941345" lon="10.098832091577028"><ele>635.3333333333333</ele><time>2026-04-18T08:42:21Z</time></trkpt><trkpt lat="44.322672576230794" lon="10.098571272858026"><ele>635.0</ele><time>2026-04-18T08:42:22Z</time></trkpt><trkpt lat="44.322652502256894" lon="10.09834913649009"><ele>636.0</ele><time>2026-04-18T08:42:23Z</time></trkpt><trkpt lat="44.32266332830447" lon="10.098207761584227"><ele>637.0</ele><time>2026-04-18T08:42:24Z</time></trkpt><trkpt lat="44.32271793213164" lon="10.09809062007548"><ele>638.0</ele><time>2026-04-18T08:42:25Z</time></trkpt><trkpt lat="44.32281875713428" lon="10.097961733338947"><ele>639.0</ele><time>2026-04-18T08:42:26Z</time></trkpt><trkpt lat="44.32288248453483" lon="10.097810286225078"><ele>639.0</ele><time>2026-04-18T08:42:27Z</time></trkpt><trkpt lat="44.322870877385725" lon="10.09764881147559"><ele>639.0</ele><time>2026-04-18T08:42:28Z</time></trkpt><trkpt lat="44.322786726130204" lon="10.097486076374988"><ele>639.0</ele><time>2026-04-18T08:42:29Z</time></trkpt><trkpt lat="44.32271712840018" lon="10.097336131714998"><ele>639.0</ele><time>2026-04-18T08:42:30Z</time></trkpt><trkpt lat="44.32265046809716" lon="10.097158786949224"><ele>649.0</ele><time>2026-04-18T08:42:31Z</time></trkpt><trkpt lat="44.32256136835307" lon="10.096921743726666"><ele>659.0</ele><time>2026-04-18T08:42:32Z</time></trkpt><trkpt lat="44.32225888549462" lon="10.096811273724956"><ele>655.3333333333333</ele><time>2026-04-18T08:42:33Z</time></trkpt><trkpt lat="44.32212012650458" lon="10.096554548033723"><ele>651.6666666666666</ele><time>2026-04-18T08:42:34Z</time></trkpt><trkpt lat="44.32198938799412" lon="10.096335085276325"><ele>648.0</ele><time>2026-04-18T08:42:35Z</time></trkpt><trkpt lat="44.321831226013735" lon="10.096155496383906"><ele>648.0</ele><time>2026-04-18T08:42:36Z</time></trkpt><trkpt lat="44.321627895898736" lon="10.096002636509267"><ele>648.0</ele><time>2026-04-18T08:42:37Z</time></trkpt><trkpt lat="44.32142457828292" lon="10.095880659657787"><ele>642.0</ele><time>2026-04-18T08:42:38Z</time></trkpt><trkpt lat="44.32126529816532" lon="10.095781107766962"><ele>636.0</ele><time>2026-04-18T08:42:39Z</time></trkpt><trkpt lat="44.321172447830875" lon="10.095662235360079"><ele>630.0</ele><time>2026-04-18T08:42:40Z</time></trkpt><trkpt lat="44.32111266418973" lon="10.095498482621023"><ele>624.0</ele><time>2026-04-18T08:42:41Z</time></trkpt><trkpt lat="44.321114452462176" lon="10.095280781434587"><ele>624.0</ele><time>2026-04-18T08:42:42Z</time></trkpt><trkpt lat="44.32112788670316" lon="10.095129310212178"><ele>624.0</ele><time>2026-04-18T08:42:43Z</time></trkpt><trkpt lat="44.32105452711713" lon="10.095027392400437"><ele>624.0</ele><time>2026-04-18T08:42:44Z</time></trkpt><trkpt lat="44.32092929435918" lon="10.094940663752984"><ele>624.0</ele><time>2026-04-18T08:42:45Z</time></trkpt><trkpt lat="44.320809067313874" lon="10.094903827873052"><ele>624.0</ele><time>2026-04-18T08:42:46Z</time></trkpt><trkpt lat="44.320659899752535" lon="10.09495446814136"><ele>624.0</ele><time>2026-04-18T08:42:47Z</time></trkpt><trkpt lat="44.32050956629362" lon="10.09497951495864"><ele>624.0</ele><time>2026-04-18T08:42:48Z</time></trkpt><trkpt lat="44.32037572871201" lon="10.094936183358946"><ele>624.0</ele><time>2026-04-18T08:42:49Z</time></trkpt><trkpt lat="44.32025657844565" lon="10.094824071791233"><ele>617.0</ele><time>2026-04-18T08:42:50Z</time></trkpt><trkpt lat="44.32013463877983" lon="10.094656834489959"><ele>610.0</ele><time>2026-04-18T08:42:51Z</time></trkpt><trkpt lat="44.320028830998254" lon="10.094464385346868"><ele>603.0</ele><time>2026-04-18T08:42:52Z</time></trkpt><trkpt lat="44.31998763503115" lon="10.094283810611364"><ele>606.6666666666666</ele><time>2026-04-18T08:42:53Z</time></trkpt><trkpt lat="44.31998331133854" lon="10.094063235877798"><ele>610.3333333333333</ele><time>2026-04-18T08:42:54Z</time></trkpt><trkpt lat="44.319976914493715" lon="10.09379871107334"><ele>614.0</ele><time>2026-04-18T08:42:55Z</time></trkpt><trkpt lat="44.31995613056238" lon="10.093522063149095"><ele>614.3333333333333</ele><time>2026-04-18T08:42:56Z</time></trkpt><trkpt lat="44.319938544572196" lon="10.093247227110407"><ele>614.6666666666666</ele><time>2026-04-18T08:42:57Z</time></trkpt><trkpt lat="44.31990435684765" lon="10.092976561959473"><ele>615.0</ele><time>2026-04-18T08:42:58Z</time></trkpt><trkpt lat="44.3198325470312" lon="10.092718883184576"><ele>615.0</ele><time>2026-04-18T08:42:59Z</time></trkpt><trkpt lat="44.31977332629228" lon="10.092488659421946"><ele>615.0</ele><time>2026-04-18T08:43:00Z</time></trkpt><trkpt lat="44.319771776353655" lon="10.092288535551079"><ele>615.0</ele><time>2026-04-18T08:43:01Z</time></trkpt><trkpt lat="44.31983115340282" lon="10.09212664906983"><ele>615.0</ele><time>2026-04-18T08:43:02Z</time></trkpt><trkpt lat="44.31995193390743" lon="10.091961239249539"><ele>615.5</ele><time>2026-04-18T08:43:03Z</time></trkpt><trkpt lat="44.32005001919439" lon="10.091822175737548"><ele>616.0</ele><time>2026-04-18T08:43:04Z</time></trkpt><trkpt lat="44.320080417732164" lon="10.091715968207428"><ele>616.5</ele><time>2026-04-18T08:43:05Z</time></trkpt><trkpt lat="44.32002944313525" lon="10.09157577893815"><ele>617.0</ele><time>2026-04-18T08:43:06Z</time></trkpt><trkpt lat="44.319917375723485" lon="10.091473212400055"><ele>622.6666666666666</ele><time>2026-04-18T08:43:07Z</time></trkpt><trkpt lat="44.31976859374932" lon="10.09146112350354"><ele>628.3333333333334</ele><time>2026-04-18T08:43:08Z</time></trkpt><trkpt lat="44.31960182908587" lon="10.091537097916795"><ele>634.0</ele><time>2026-04-18T08:43:09Z</time></trkpt><trkpt lat="44.31941357685869" lon="10.091640050358437"><ele>634.0</ele><time>2026-04-18T08:43:10Z</time></trkpt><trkpt lat="44.31925947531857" lon="10.09166497963097"><ele>634.0</ele><time>2026-04-18T08:43:11Z</time></trkpt><trkpt lat="44.319122647123635" lon="10.091595457811302"><ele>634.0</ele><time>2026-04-18T08:43:12Z</time></trkpt><trkpt lat="44.3189800641999" lon="10.091463549509404"><ele>627.0</ele><time>2026-04-18T08:43:13Z</time></trkpt><trkpt lat="44.31885386154971" lon="10.091343168720877"><ele>620.0</ele><time>2026-04-18T08:43:14Z</time></trkpt><trkpt lat="44.31870836717585" lon="10.09134437747884"><ele>613.0</ele><time>2026-04-18T08:43:15Z</time></trkpt><trkpt lat="44.318538028996855" lon="10.091403366953363"><ele>613.0</ele><time>2026-04-18T08:43:16Z</time></trkpt><trkpt lat="44.318377639995916" lon="10.091381981330692"><ele>613.0</ele><time>2026-04-18T08:43:17Z</time></trkpt><trkpt lat="44.31820081404086" lon="10.091294570484282"><ele>613.0</ele><time>2026-04-18T08:43:18Z</time></trkpt><trkpt lat="44.318039566171436" lon="10.091210954016653"><ele>618.3333333333334</ele><time>2026-04-18T08:43:19Z</time></trkpt><trkpt lat="44.31791256374698" lon="10.09110602562484"><ele>623.6666666666666</ele><time>2026-04-18T08:43:20Z</time></trkpt><trkpt lat="44.317784494632754" lon="10.090913991148224"><ele>629.0</ele><time>2026-04-18T08:43:21Z</time></trkpt><trkpt lat="44.317651340664696" lon="10.090708459719295"><ele>629.0</ele><time>2026-04-18T08:43:22Z</time></trkpt><trkpt lat="44.31751574491345" lon="10.090523299313992"><ele>629.0</ele><time>2026-04-18T08:43:22.999Z</time></trkpt><trkpt lat="44.31738598440448" lon="10.090383687778525"><ele>629.0</ele><time>2026-04-18T08:43:23.999Z</time></trkpt><trkpt lat="44.31723895406526" lon="10.090315127782974"><ele>620.6666666666666</ele><time>2026-04-18T08:43:24.999Z</time></trkpt><trkpt lat="44.31706186815535" lon="10.090316624359733"><ele>612.3333333333334</ele><time>2026-04-18T08:43:25.999Z</time></trkpt><trkpt lat="44.3168541341689" lon="10.090356459225983"><ele>604.0</ele><time>2026-04-18T08:43:26.999Z</time></trkpt><trkpt lat="44.31664265121569" lon="10.090353087452613"><ele>604.0</ele><time>2026-04-18T08:43:27.999Z</time></trkpt><trkpt lat="44.3164457690257" lon="10.09034190161245"><ele>604.0</ele><time>2026-04-18T08:43:28.999Z</time></trkpt><trkpt lat="44.31626947878787" lon="10.090339290199577"><ele>604.0</ele><time>2026-04-18T08:43:29.999Z</time></trkpt><trkpt lat="44.31611326395054" lon="10.09028064949811"><ele>607.3333333333334</ele><time>2026-04-18T08:43:30.999Z</time></trkpt><trkpt lat="44.31593759678391" lon="10.090156177119502"><ele>610.6666666666666</ele><time>2026-04-18T08:43:31.999Z</time></trkpt><trkpt lat="44.31574409174837" lon="10.089990324660755"><ele>614.0</ele><time>2026-04-18T08:43:32.999Z</time></trkpt><trkpt lat="44.31557749481619" lon="10.089890551615008"><ele>606.0</ele><time>2026-04-18T08:43:33.999Z</time></trkpt><trkpt lat="44.31543970075223" lon="10.089837617074949"><ele>598.0</ele><time>2026-04-18T08:43:34.999Z</time></trkpt><trkpt lat="44.31527574663912" lon="10.089860695686943"><ele>590.0</ele><time>2026-04-18T08:43:35.999Z</time></trkpt><trkpt lat="44.31511616110058" lon="10.089874983650637"><ele>590.0</ele><time>2026-04-18T08:43:36.999Z</time></trkpt><trkpt lat="44.31496244715323" lon="10.089792937356691"><ele>590.0</ele><time>2026-04-18T08:43:37.999Z</time></trkpt><trkpt lat="44.31482267923716" lon="10.089618569989542"><ele>590.0</ele><time>2026-04-18T08:43:38.999Z</time></trkpt><trkpt lat="44.31468421172621" lon="10.089454941624776"><ele>580.6666666666666</ele><time>2026-04-18T08:43:39.999Z</time></trkpt><trkpt lat="44.31452346445389" lon="10.089348669358614"><ele>571.3333333333334</ele><time>2026-04-18T08:43:40.999Z</time></trkpt><trkpt lat="44.314338169984964" lon="10.08926177236115"><ele>562.0</ele><time>2026-04-18T08:43:41.999Z</time></trkpt><trkpt lat="44.314147524767634" lon="10.089215705334473"><ele>562.0</ele><time>2026-04-18T08:43:42.999Z</time></trkpt><trkpt lat="44.31396027178851" lon="10.089192701660572"><ele>562.0</ele><time>2026-04-18T08:43:43.999Z</time></trkpt><trkpt lat="44.31379186383154" lon="10.089180832758576"><ele>562.0</ele><time>2026-04-18T08:43:44.999Z</time></trkpt><trkpt lat="44.31365272673487" lon="10.0891513607105"><ele>555.0</ele><time>2026-04-18T08:43:45.999Z</time></trkpt><trkpt lat="44.31353351920612" lon="10.089055456822827"><ele>548.0</ele><time>2026-04-18T08:43:46.999Z</time></trkpt><trkpt lat="44.313451713095624" lon="10.088915853743648"><ele>541.0</ele><time>2026-04-18T08:43:47.999Z</time></trkpt><trkpt lat="44.31344974615833" lon="10.088753382690996"><ele>534.0</ele><time>2026-04-18T08:43:48.999Z</time></trkpt><trkpt lat="44.31350368396726" lon="10.088546716536317"><ele>534.0</ele><time>2026-04-18T08:43:49.999Z</time></trkpt><trkpt lat="44.31359669406708" lon="10.088307882110222"><ele>534.0</ele><time>2026-04-18T08:43:50.999Z</time></trkpt><trkpt lat="44.31367619606332" lon="10.088098706197059"><ele>534.0</ele><time>2026-04-18T08:43:51.999Z</time></trkpt><trkpt lat="44.31370790301519" lon="10.087895430313376"><ele>535.3333333333334</ele><time>2026-04-18T08:43:52.999Z</time></trkpt><trkpt lat="44.313688106100706" lon="10.087657158142022"><ele>536.6666666666667</ele><time>2026-04-18T08:43:53.999Z</time></trkpt><trkpt lat="44.3136694793953" lon="10.087389487337864"><ele>538.0</ele><time>2026-04-18T08:43:54.999Z</time></trkpt><trkpt lat="44.31365802264901" lon="10.087162038431496"><ele>542.0</ele><time>2026-04-18T08:43:55.999Z</time></trkpt><trkpt lat="44.313638377573874" lon="10.086999876863404"><ele>546.0</ele><time>2026-04-18T08:43:56.999Z</time></trkpt><trkpt lat="44.313574284235294" lon="10.086881949120903"><ele>550.0</ele><time>2026-04-18T08:43:57.999Z</time></trkpt><trkpt lat="44.313431902663325" lon="10.086797775743795"><ele>554.0</ele><time>2026-04-18T08:43:58.999Z</time></trkpt><trkpt lat="44.313265542979664" lon="10.086752786572468"><ele>554.0</ele><time>2026-04-18T08:43:59.999Z</time></trkpt><trkpt lat="44.31307936442663" lon="10.086809405184136"><ele>554.0</ele><time>2026-04-18T08:44:00.999Z</time></trkpt><trkpt lat="44.31286264092407" lon="10.086896965477388"><ele>554.0</ele><time>2026-04-18T08:44:01.999Z</time></trkpt><trkpt lat="44.31267108073724" lon="10.086974273912013"><ele>553.3333333333333</ele><time>2026-04-18T08:44:02.999Z</time></trkpt><trkpt lat="44.312493741087444" lon="10.087107402777978"><ele>552.6666666666666</ele><time>2026-04-18T08:44:03.999Z</time></trkpt><trkpt lat="44.312325527203" lon="10.087284024601997"><ele>552.0</ele><time>2026-04-18T08:44:04.999Z</time></trkpt><trkpt lat="44.31214223632605" lon="10.08742508062969"><ele>543.3333333333334</ele><time>2026-04-18T08:44:05.999Z</time></trkpt><trkpt lat="44.31196609498963" lon="10.08751715605249"><ele>534.6666666666667</ele><time>2026-04-18T08:44:06.999Z</time></trkpt><trkpt lat="44.311809024723296" lon="10.087553945079415"><ele>526.0</ele><time>2026-04-18T08:44:07.999Z</time></trkpt><trkpt lat="44.311656684912876" lon="10.08751434841763"><ele>525.0</ele><time>2026-04-18T08:44:08.999Z</time></trkpt><trkpt lat="44.31146305720038" lon="10.087391363081123"><ele>524.0</ele><time>2026-04-18T08:44:09.999Z</time></trkpt><trkpt lat="44.31126855682312" lon="10.087255051587558"><ele>523.0</ele><time>2026-04-18T08:44:10.999Z</time></trkpt><trkpt lat="44.3110711294635" lon="10.087142571241221"><ele>523.0</ele><time>2026-04-18T08:44:11.999Z</time></trkpt><trkpt lat="44.310915018373365" lon="10.087031093701539"><ele>523.0</ele><time>2026-04-18T08:44:12.999Z</time></trkpt><trkpt lat="44.31078744950548" lon="10.086896326373184"><ele>523.0</ele><time>2026-04-18T08:44:13.999Z</time></trkpt><trkpt lat="44.31068144754099" lon="10.086760818011646"><ele>516.3333333333334</ele><time>2026-04-18T08:44:14.999Z</time></trkpt><trkpt lat="44.31051791181673" lon="10.086566685785746"><ele>509.66666666666663</ele><time>2026-04-18T08:44:15.999Z</time></trkpt><trkpt lat="44.31038369536078" lon="10.08633268042444"><ele>503.0</ele><time>2026-04-18T08:44:16.999Z</time></trkpt><trkpt lat="44.3102785879944" lon="10.08604466758606"><ele>503.0</ele><time>2026-04-18T08:44:17.999Z</time></trkpt><trkpt lat="44.31026179196922" lon="10.085805312215225"><ele>503.0</ele><time>2026-04-18T08:44:18.999Z</time></trkpt><trkpt lat="44.310218778753615" lon="10.08552682500533"><ele>503.0</ele><time>2026-04-18T08:44:20Z</time></trkpt><trkpt lat="44.31025663379385" lon="10.085387221216466"><ele>503.5</ele><time>2026-04-18T08:44:21Z</time></trkpt><trkpt lat="44.31037880959386" lon="10.085383023746173"><ele>504.0</ele><time>2026-04-18T08:44:22Z</time></trkpt><trkpt lat="44.31032799957514" lon="10.085298334975029"><ele>504.5</ele><time>2026-04-18T08:44:23Z</time></trkpt><trkpt lat="44.310211490378585" lon="10.085321397785869"><ele>505.0</ele><time>2026-04-18T08:44:24Z</time></trkpt><trkpt lat="44.31010800490891" lon="10.085441608318197"><ele>505.0</ele><time>2026-04-18T08:44:25Z</time></trkpt><trkpt lat="44.31005728438004" lon="10.08563894183079"><ele>505.0</ele><time>2026-04-18T08:44:26Z</time></trkpt><trkpt lat="44.31003730801459" lon="10.085897236273121"><ele>505.0</ele><time>2026-04-18T08:44:27Z</time></trkpt><trkpt lat="44.31004915399517" lon="10.086198366656062"><ele>504.33333333333337</ele><time>2026-04-18T08:44:28Z</time></trkpt><trkpt lat="44.31009325258501" lon="10.08647814109318"><ele>503.66666666666663</ele><time>2026-04-18T08:44:29Z</time></trkpt><trkpt lat="44.31018110985677" lon="10.086772802665713"><ele>503.0</ele><time>2026-04-18T08:44:30Z</time></trkpt><trkpt lat="44.310306198450796" lon="10.087096995138571"><ele>502.59999999999997</ele><time>2026-04-18T08:44:31Z</time></trkpt><trkpt lat="44.31035631956383" lon="10.087043283932715"><ele>502.19999999999993</ele><time>2026-04-18T08:44:32Z</time></trkpt><trkpt lat="44.310394300663056" lon="10.087146611071065"><ele>501.8</ele><time>2026-04-18T08:44:33Z</time></trkpt><trkpt lat="44.3103704207102" lon="10.087249535245228"><ele>501.4</ele><time>2026-04-18T08:44:34Z</time></trkpt><trkpt lat="44.31028269342687" lon="10.087323565028312"><ele>501.0</ele><time>2026-04-18T08:44:35Z</time></trkpt><trkpt lat="44.31013969622663" lon="10.087326552974845"><ele>501.0</ele><time>2026-04-18T08:44:36Z</time></trkpt><trkpt lat="44.310038512352264" lon="10.087240932276696"><ele>501.0</ele><time>2026-04-18T08:44:37Z</time></trkpt><trkpt lat="44.30998444720688" lon="10.087114482898643"><ele>501.0</ele><time>2026-04-18T08:44:38Z</time></trkpt><trkpt lat="44.30999019038179" lon="10.086963579303351"><ele>501.0</ele><time>2026-04-18T08:44:39Z</time></trkpt><trkpt lat="44.31002223013972" lon="10.08676063160499"><ele>501.66666666666663</ele><time>2026-04-18T08:44:40Z</time></trkpt><trkpt lat="44.31000434761288" lon="10.086518416717002"><ele>502.3333333333333</ele><time>2026-04-18T08:44:41Z</time></trkpt><trkpt lat="44.309927152070024" lon="10.08627982942701"><ele>503.0</ele><time>2026-04-18T08:44:42Z</time></trkpt><trkpt lat="44.30979552723577" lon="10.08603594081067"><ele>497.0</ele><time>2026-04-18T08:44:43Z</time></trkpt><trkpt lat="44.30962205817759" lon="10.085796204125087"><ele>491.0</ele><time>2026-04-18T08:44:44Z</time></trkpt><trkpt lat="44.30945527974624" lon="10.085568447865622"><ele>491.0</ele><time>2026-04-18T08:44:45Z</time></trkpt><trkpt lat="44.309303232760655" lon="10.085370296929955"><ele>491.0</ele><time>2026-04-18T08:44:46Z</time></trkpt><trkpt lat="44.309137752605295" lon="10.085188481552144"><ele>491.0</ele><time>2026-04-18T08:44:47Z</time></trkpt><trkpt lat="44.30896357836863" lon="10.08502515732088"><ele>486.0</ele><time>2026-04-18T08:44:48Z</time></trkpt><trkpt lat="44.30881446532574" lon="10.08487810599511"><ele>481.0</ele><time>2026-04-18T08:44:49Z</time></trkpt><trkpt lat="44.3087129907265" lon="10.084713074770788"><ele>476.0</ele><time>2026-04-18T08:44:50Z</time></trkpt><trkpt lat="44.30865360058044" lon="10.084492915038467"><ele>476.0</ele><time>2026-04-18T08:44:51Z</time></trkpt><trkpt lat="44.3086041879682" lon="10.084206223292027"><ele>476.0</ele><time>2026-04-18T08:44:52Z</time></trkpt><trkpt lat="44.308537370809425" lon="10.083902676461792"><ele>476.0</ele><time>2026-04-18T08:44:53Z</time></trkpt><trkpt lat="44.30845858152931" lon="10.083594652311243"><ele>477.5</ele><time>2026-04-18T08:44:54Z</time></trkpt><trkpt lat="44.30837126248523" lon="10.083262615745186"><ele>479.0</ele><time>2026-04-18T08:44:55Z</time></trkpt><trkpt lat="44.30828568857843" lon="10.082928290651317"><ele>479.0</ele><time>2026-04-18T08:44:56Z</time></trkpt><trkpt lat="44.30819699612393" lon="10.082596783506167"><ele>479.0</ele><time>2026-04-18T08:44:57Z</time></trkpt><trkpt lat="44.308104950516395" lon="10.082275196621833"><ele>470.5</ele><time>2026-04-18T08:44:58Z</time></trkpt><trkpt lat="44.308019160038754" lon="10.081964065264048"><ele>462.0</ele><time>2026-04-18T08:44:59Z</time></trkpt><trkpt lat="44.307939372581686" lon="10.081668320485324"><ele>462.33333333333337</ele><time>2026-04-18T08:45:00Z</time></trkpt><trkpt lat="44.3078679017652" lon="10.081389605370234"><ele>462.6666666666667</ele><time>2026-04-18T08:45:01Z</time></trkpt><trkpt lat="44.307812544453895" lon="10.081165831667514"><ele>463.0</ele><time>2026-04-18T08:45:02Z</time></trkpt><trkpt lat="44.30775979000507" lon="10.080987746892639"><ele>463.0</ele><time>2026-04-18T08:45:03Z</time></trkpt><trkpt lat="44.307687570164376" lon="10.080875539400472"><ele>463.0</ele><time>2026-04-18T08:45:04Z</time></trkpt><trkpt lat="44.30757746628154" lon="10.080812659179395"><ele>463.0</ele><time>2026-04-18T08:45:05Z</time></trkpt><trkpt lat="44.30741374164017" lon="10.080800960968036"><ele>463.0</ele><time>2026-04-18T08:45:06Z</time></trkpt><trkpt lat="44.30723723687053" lon="10.080870970654717"><ele>457.6666666666667</ele><time>2026-04-18T08:45:07Z</time></trkpt><trkpt lat="44.30709218925906" lon="10.080980607323887"><ele>452.33333333333337</ele><time>2026-04-18T08:45:08Z</time></trkpt><trkpt lat="44.30698531098404" lon="10.081134354289166"><ele>447.0</ele><time>2026-04-18T08:45:09Z</time></trkpt><trkpt lat="44.30693857595216" lon="10.08136173506319"><ele>444.0</ele><time>2026-04-18T08:45:10Z</time></trkpt><trkpt lat="44.306943900127976" lon="10.081624231685135"><ele>441.0</ele><time>2026-04-18T08:45:11Z</time></trkpt><trkpt lat="44.30698590492501" lon="10.081864594866195"><ele>438.0</ele><time>2026-04-18T08:45:12Z</time></trkpt><trkpt lat="44.30705869396395" lon="10.082055730066408"><ele>438.0</ele><time>2026-04-18T08:45:13Z</time></trkpt><trkpt lat="44.30715377379428" lon="10.082205099682252"><ele>437.99999999999994</ele><time>2026-04-18T08:45:14Z</time></trkpt><trkpt lat="44.307249594589955" lon="10.082303745628622"><ele>437.99999999999994</ele><time>2026-04-18T08:45:15Z</time></trkpt><trkpt lat="44.30729306367163" lon="10.08237694318173"><ele>438.0</ele><time>2026-04-18T08:45:16Z</time></trkpt><trkpt lat="44.30726320416226" lon="10.082454842584283"><ele>438.0</ele><time>2026-04-18T08:45:17Z</time></trkpt><trkpt lat="44.307139373796616" lon="10.082450327186425"><ele>438.0</ele><time>2026-04-18T08:45:18Z</time></trkpt><trkpt lat="44.307047853176215" lon="10.082325932103805"><ele>438.0</ele><time>2026-04-18T08:45:19Z</time></trkpt><trkpt lat="44.30699185495486" lon="10.082107572925208"><ele>438.0</ele><time>2026-04-18T08:45:20Z</time></trkpt><trkpt lat="44.30692458909755" lon="10.081854844369223"><ele>438.0</ele><time>2026-04-18T08:45:21Z</time></trkpt><trkpt lat="44.306825749072075" lon="10.081600141458761"><ele>438.0</ele><time>2026-04-18T08:45:22Z</time></trkpt><trkpt lat="44.30672209300674" lon="10.08134390128748"><ele>438.0</ele><time>2026-04-18T08:45:23Z</time></trkpt><trkpt lat="44.30662810735642" lon="10.081102210088098"><ele>434.0</ele><time>2026-04-18T08:45:24Z</time></trkpt><trkpt lat="44.30650748694463" lon="10.080866902757757"><ele>430.0</ele><time>2026-04-18T08:45:25Z</time></trkpt><trkpt lat="44.30633226113548" lon="10.080630932034644"><ele>430.0</ele><time>2026-04-18T08:45:26Z</time></trkpt><trkpt lat="44.306168403517006" lon="10.080417922691101"><ele>430.0</ele><time>2026-04-18T08:45:27Z</time></trkpt><trkpt lat="44.30603762975492" lon="10.080214100999017"><ele>430.0</ele><time>2026-04-18T08:45:28Z</time></trkpt><trkpt lat="44.30595901090542" lon="10.080027893150026"><ele>428.0</ele><time>2026-04-18T08:45:29Z</time></trkpt><trkpt lat="44.30591160462498" lon="10.079834417836985"><ele>426.0</ele><time>2026-04-18T08:45:30Z</time></trkpt><trkpt lat="44.30588349046933" lon="10.07968040405533"><ele>424.0</ele><time>2026-04-18T08:45:31Z</time></trkpt><trkpt lat="44.30582920072591" lon="10.079580581565057"><ele>422.0</ele><time>2026-04-18T08:45:31.999Z</time></trkpt><trkpt lat="44.30572448693448" lon="10.079569854589865"><ele>422.0</ele><time>2026-04-18T08:45:32.999Z</time></trkpt><trkpt lat="44.30561802849591" lon="10.07962955331137"><ele>422.0</ele><time>2026-04-18T08:45:33.999Z</time></trkpt><trkpt lat="44.30555817201225" lon="10.079790783723201"><ele>422.0</ele><time>2026-04-18T08:45:34.999Z</time></trkpt><trkpt lat="44.305568500827945" lon="10.079960996528177"><ele>422.0</ele><time>2026-04-18T08:45:35.999Z</time></trkpt><trkpt lat="44.30566634354326" lon="10.080100769387718"><ele>424.0</ele><time>2026-04-18T08:45:36.999Z</time></trkpt><trkpt lat="44.30580101330032" lon="10.080234607141774"><ele>426.0</ele><time>2026-04-18T08:45:37.999Z</time></trkpt><trkpt lat="44.30592646195355" lon="10.080369667599033"><ele>428.0</ele><time>2026-04-18T08:45:38.999Z</time></trkpt><trkpt lat="44.30602398801782" lon="10.080408452156174"><ele>430.0</ele><time>2026-04-18T08:45:39.999Z</time></trkpt><trkpt lat="44.30608440966126" lon="10.080517291382954"><ele>430.0</ele><time>2026-04-18T08:45:40.999Z</time></trkpt><trkpt lat="44.30612845390373" lon="10.080677139047086"><ele>430.0</ele><time>2026-04-18T08:45:41.999Z</time></trkpt><trkpt lat="44.306068903570555" lon="10.080792433286698"><ele>430.0</ele><time>2026-04-18T08:45:42.999Z</time></trkpt><trkpt lat="44.30596317995113" lon="10.080846253494311"><ele>430.0</ele><time>2026-04-18T08:45:43.999Z</time></trkpt><trkpt lat="44.30584910066854" lon="10.080796658150447"><ele>430.0</ele><time>2026-04-18T08:45:44.999Z</time></trkpt><trkpt lat="44.30575760457624" lon="10.080639442425872"><ele>430.0</ele><time>2026-04-18T08:45:45.999Z</time></trkpt><trkpt lat="44.30565999984846" lon="10.080427013152926"><ele>430.0</ele><time>2026-04-18T08:45:46.999Z</time></trkpt><trkpt lat="44.305538580165404" lon="10.08022121318262"><ele>425.6666666666667</ele><time>2026-04-18T08:45:47.999Z</time></trkpt><trkpt lat="44.30540405633476" lon="10.080022393392849"><ele>421.33333333333337</ele><time>2026-04-18T08:45:48.999Z</time></trkpt><trkpt lat="44.30530660717193" lon="10.079860898742972"><ele>417.0</ele><time>2026-04-18T08:45:49.999Z</time></trkpt><trkpt lat="44.305246871389905" lon="10.079716674443851"><ele>416.0</ele><time>2026-04-18T08:45:50.999Z</time></trkpt><trkpt lat="44.30523712286823" lon="10.079553583135331"><ele>415.0</ele><time>2026-04-18T08:45:51.999Z</time></trkpt><trkpt lat="44.30529258497659" lon="10.079374671576065"><ele>414.0</ele><time>2026-04-18T08:45:52.999Z</time></trkpt><trkpt lat="44.30539401021814" lon="10.079232924124863"><ele>413.0</ele><time>2026-04-18T08:45:53.999Z</time></trkpt><trkpt lat="44.30551669265885" lon="10.079193589199937"><ele>411.0</ele><time>2026-04-18T08:45:54.999Z</time></trkpt><trkpt lat="44.305669199105544" lon="10.079227348337621"><ele>409.0</ele><time>2026-04-18T08:45:55.999Z</time></trkpt><trkpt lat="44.30581607588135" lon="10.079264425091031"><ele>407.0</ele><time>2026-04-18T08:45:56.999Z</time></trkpt><trkpt lat="44.3059496188484" lon="10.07922856458679"><ele>405.0</ele><time>2026-04-18T08:45:57.999Z</time></trkpt><trkpt lat="44.306068508599445" lon="10.079069309953715"><ele>405.0</ele><time>2026-04-18T08:45:58.999Z</time></trkpt><trkpt lat="44.30616832602461" lon="10.078851194400904"><ele>405.0</ele><time>2026-04-18T08:45:59.999Z</time></trkpt><trkpt lat="44.30624270740418" lon="10.078596133481971"><ele>405.0</ele><time>2026-04-18T08:46:00.999Z</time></trkpt><trkpt lat="44.30630046286655" lon="10.078335040947577"><ele>408.33333333333337</ele><time>2026-04-18T08:46:01.999Z</time></trkpt><trkpt lat="44.306329138898285" lon="10.078092471606293"><ele>411.6666666666667</ele><time>2026-04-18T08:46:02.999Z</time></trkpt><trkpt lat="44.30630091682959" lon="10.077875099110157"><ele>415.0</ele><time>2026-04-18T08:46:03.999Z</time></trkpt><trkpt lat="44.30623961637161" lon="10.077686085102432"><ele>415.0</ele><time>2026-04-18T08:46:04.999Z</time></trkpt><trkpt lat="44.306207483063005" lon="10.07756287078152"><ele>415.0</ele><time>2026-04-18T08:46:05.999Z</time></trkpt><trkpt lat="44.306127807637935" lon="10.077496314758402"><ele>415.0</ele><time>2026-04-18T08:46:06.999Z</time></trkpt><trkpt lat="44.30600175833075" lon="10.077506140470101"><ele>415.0</ele><time>2026-04-18T08:46:07.999Z</time></trkpt><trkpt lat="44.30585429524426" lon="10.07761105147164"><ele>415.0</ele><time>2026-04-18T08:46:08.999Z</time></trkpt><trkpt lat="44.30569475709658" lon="10.077728941176813"><ele>415.0</ele><time>2026-04-18T08:46:09.999Z</time></trkpt><trkpt lat="44.30553253900686" lon="10.077769636694125"><ele>415.0</ele><time>2026-04-18T08:46:10.999Z</time></trkpt><trkpt lat="44.305366992648786" lon="10.077782116467914"><ele>418.33333333333337</ele><time>2026-04-18T08:46:11.999Z</time></trkpt><trkpt lat="44.305171810107126" lon="10.077786438906557"><ele>421.66666666666663</ele><time>2026-04-18T08:46:12.999Z</time></trkpt><trkpt lat="44.30498134144848" lon="10.077749236288541"><ele>425.0</ele><time>2026-04-18T08:46:13.999Z</time></trkpt><trkpt lat="44.30480750175097" lon="10.077705230942337"><ele>423.75</ele><time>2026-04-18T08:46:14.999Z</time></trkpt><trkpt lat="44.30465075880987" lon="10.077648171502656"><ele>422.5</ele><time>2026-04-18T08:46:15.999Z</time></trkpt><trkpt lat="44.30451225094329" lon="10.077592285772605"><ele>421.25</ele><time>2026-04-18T08:46:16.999Z</time></trkpt><trkpt lat="44.304376238059035" lon="10.07753461130511"><ele>420.0</ele><time>2026-04-18T08:46:17.999Z</time></trkpt><trkpt lat="44.30424252782247" lon="10.077467269883806"><ele>419.0</ele><time>2026-04-18T08:46:18.999Z</time></trkpt><trkpt lat="44.30412717439434" lon="10.077366612343853"><ele>418.0</ele><time>2026-04-18T08:46:19.999Z</time></trkpt><trkpt lat="44.304012845327506" lon="10.077240111387132"><ele>417.0</ele><time>2026-04-18T08:46:20.999Z</time></trkpt><trkpt lat="44.303893689271206" lon="10.077106914594431"><ele>416.0</ele><time>2026-04-18T08:46:21.999Z</time></trkpt><trkpt lat="44.30378190254113" lon="10.076978453958759"><ele>416.0</ele><time>2026-04-18T08:46:22.999Z</time></trkpt><trkpt lat="44.303678030247234" lon="10.076876364674204"><ele>416.0</ele><time>2026-04-18T08:46:23.999Z</time></trkpt><trkpt lat="44.30359875089708" lon="10.076782916927693"><ele>416.0</ele><time>2026-04-18T08:46:24.999Z</time></trkpt><trkpt lat="44.30352313898292" lon="10.076705243885504"><ele>416.0</ele><time>2026-04-18T08:46:26Z</time></trkpt><trkpt lat="44.303451284804765" lon="10.07663022562074"><ele>416.0</ele><time>2026-04-18T08:46:27Z</time></trkpt><trkpt lat="44.30337502740568" lon="10.076556057160312"><ele>416.6</ele><time>2026-04-18T08:46:28Z</time></trkpt><trkpt lat="44.303295027438594" lon="10.076465162691637"><ele>417.20000000000005</ele><time>2026-04-18T08:46:29Z</time></trkpt><trkpt lat="44.30321112109311" lon="10.076373705183995"><ele>417.79999999999995</ele><time>2026-04-18T08:46:30Z</time></trkpt><trkpt lat="44.303119388659766" lon="10.076281250125753"><ele>418.4</ele><time>2026-04-18T08:46:31Z</time></trkpt><trkpt lat="44.30302557428207" lon="10.076188122468631"><ele>419.0</ele><time>2026-04-18T08:46:32Z</time></trkpt><trkpt lat="44.302928516025936" lon="10.076089294251389"><ele>417.75</ele><time>2026-04-18T08:46:33Z</time></trkpt><trkpt lat="44.30283588645203" lon="10.075993357446645"><ele>416.5</ele><time>2026-04-18T08:46:34Z</time></trkpt><trkpt lat="44.302745370082214" lon="10.075891167133172"><ele>415.25</ele><time>2026-04-18T08:46:35Z</time></trkpt><trkpt lat="44.30264942601959" lon="10.07580421573281"><ele>414.0</ele><time>2026-04-18T08:46:36Z</time></trkpt><trkpt lat="44.30255855536527" lon="10.075712372256278"><ele>414.0</ele><time>2026-04-18T08:46:37Z</time></trkpt><trkpt lat="44.30246489407616" lon="10.075618288503222"><ele>414.0</ele><time>2026-04-18T08:46:38Z</time></trkpt><trkpt lat="44.30236875163476" lon="10.075523320699986"><ele>414.0</ele><time>2026-04-18T08:46:39Z</time></trkpt><trkpt lat="44.30227198976134" lon="10.075430562352883"><ele>414.0</ele><time>2026-04-18T08:46:40Z</time></trkpt><trkpt lat="44.302178230394105" lon="10.075345350717601"><ele>412.79999999999995</ele><time>2026-04-18T08:46:41Z</time></trkpt><trkpt lat="44.30209388366078" lon="10.075259185860082"><ele>411.59999999999997</ele><time>2026-04-18T08:46:42Z</time></trkpt><trkpt lat="44.302008559606115" lon="10.075175010018015"><ele>410.4</ele><time>2026-04-18T08:46:43Z</time></trkpt><trkpt lat="44.30191749990495" lon="10.07508607286442"><ele>409.2</ele><time>2026-04-18T08:46:44Z</time></trkpt><trkpt lat="44.30182877419868" lon="10.074993370996664"><ele>408.0</ele><time>2026-04-18T08:46:45Z</time></trkpt><trkpt lat="44.30173627695655" lon="10.074904425252004"><ele>408.0</ele><time>2026-04-18T08:46:46Z</time></trkpt><trkpt lat="44.301645904329355" lon="10.074819240176375"><ele>408.0</ele><time>2026-04-18T08:46:47Z</time></trkpt><trkpt lat="44.30155509018772" lon="10.074733653146136"><ele>408.0</ele><time>2026-04-18T08:46:48Z</time></trkpt><trkpt lat="44.3014604107167" lon="10.074644138716243"><ele>408.0</ele><time>2026-04-18T08:46:49Z</time></trkpt><trkpt lat="44.30136299612586" lon="10.074556430862264"><ele>408.0</ele><time>2026-04-18T08:46:50Z</time></trkpt><trkpt lat="44.30126888718034" lon="10.074464077291609"><ele>406.5</ele><time>2026-04-18T08:46:51Z</time></trkpt><trkpt lat="44.30117443664286" lon="10.074366797271049"><ele>405.0</ele><time>2026-04-18T08:46:52Z</time></trkpt><trkpt lat="44.3010769031331" lon="10.074274248709623"><ele>403.5</ele><time>2026-04-18T08:46:53Z</time></trkpt><trkpt lat="44.30097651014723" lon="10.074183773559296"><ele>402.0</ele><time>2026-04-18T08:46:54Z</time></trkpt><trkpt lat="44.30087488691386" lon="10.074091340546452"><ele>402.0</ele><time>2026-04-18T08:46:55Z</time></trkpt><trkpt lat="44.300771547402185" lon="10.073992016146388"><ele>402.0</ele><time>2026-04-18T08:46:56Z</time></trkpt><trkpt lat="44.30067819703538" lon="10.073889675663432"><ele>402.0</ele><time>2026-04-18T08:46:57Z</time></trkpt><trkpt lat="44.30057680025995" lon="10.07379085226757"><ele>402.0</ele><time>2026-04-18T08:46:58Z</time></trkpt><trkpt lat="44.30047740752064" lon="10.073702275857803"><ele>398.75</ele><time>2026-04-18T08:46:59Z</time></trkpt><trkpt lat="44.30039117880985" lon="10.073606819995033"><ele>395.5</ele><time>2026-04-18T08:47:00Z</time></trkpt><trkpt lat="44.300337034987734" lon="10.07345973027274"><ele>392.25</ele><time>2026-04-18T08:47:01Z</time></trkpt><trkpt lat="44.300313710458425" lon="10.073291616010804"><ele>389.0</ele><time>2026-04-18T08:47:02Z</time></trkpt><trkpt lat="44.300324727690494" lon="10.073109271391273"><ele>389.0</ele><time>2026-04-18T08:47:03Z</time></trkpt><trkpt lat="44.3003334950079" lon="10.072921615334929"><ele>389.0</ele><time>2026-04-18T08:47:04Z</time></trkpt><trkpt lat="44.300328428976336" lon="10.072738292470248"><ele>389.0</ele><time>2026-04-18T08:47:05Z</time></trkpt><trkpt lat="44.30029763120997" lon="10.072556013926945"><ele>389.0</ele><time>2026-04-18T08:47:06Z</time></trkpt><trkpt lat="44.30022110002006" lon="10.072324264807916"><ele>395.5</ele><time>2026-04-18T08:47:07Z</time></trkpt><trkpt lat="44.300157941354094" lon="10.072276537130023"><ele>402.0</ele><time>2026-04-18T08:47:08Z</time></trkpt><trkpt lat="44.300074810883125" lon="10.072143981345269"><ele>408.5</ele><time>2026-04-18T08:47:09Z</time></trkpt><trkpt lat="44.29998155359544" lon="10.072035743957064"><ele>415.0</ele><time>2026-04-18T08:47:10Z</time></trkpt><trkpt lat="44.2998563085714" lon="10.071974276927282"><ele>414.5</ele><time>2026-04-18T08:47:11Z</time></trkpt><trkpt lat="44.29971847374732" lon="10.071955868097318"><ele>414.0</ele><time>2026-04-18T08:47:12Z</time></trkpt><trkpt lat="44.29960562132959" lon="10.071944305621956"><ele>413.5</ele><time>2026-04-18T08:47:13Z</time></trkpt><trkpt lat="44.2995100066051" lon="10.071989576840203"><ele>413.0</ele><time>2026-04-18T08:47:14Z</time></trkpt><trkpt lat="44.29943596589347" lon="10.07210422151183"><ele>413.0</ele><time>2026-04-18T08:47:15Z</time></trkpt><trkpt lat="44.2993650976572" lon="10.0722482494526"><ele>413.0</ele><time>2026-04-18T08:47:16Z</time></trkpt><trkpt lat="44.299296261359665" lon="10.072383828497681"><ele>413.0</ele><time>2026-04-18T08:47:17Z</time></trkpt><trkpt lat="44.299228663065776" lon="10.072505248678024"><ele>413.0</ele><time>2026-04-18T08:47:18Z</time></trkpt><trkpt lat="44.29916308632343" lon="10.072624413493564"><ele>409.0</ele><time>2026-04-18T08:47:19Z</time></trkpt><trkpt lat="44.29908944611287" lon="10.072719626221167"><ele>405.0</ele><time>2026-04-18T08:47:20Z</time></trkpt><trkpt lat="44.298996467992914" lon="10.07276808228135"><ele>401.0</ele><time>2026-04-18T08:47:21Z</time></trkpt><trkpt lat="44.29887142080453" lon="10.072770810666432"><ele>397.0</ele><time>2026-04-18T08:47:22Z</time></trkpt><trkpt lat="44.29876406490481" lon="10.072661965110257"><ele>397.0</ele><time>2026-04-18T08:47:23Z</time></trkpt><trkpt lat="44.29866654872705" lon="10.072633957511195"><ele>397.0</ele><time>2026-04-18T08:47:24Z</time></trkpt><trkpt lat="44.29857893136861" lon="10.072684641476362"><ele>397.0</ele><time>2026-04-18T08:47:25Z</time></trkpt><trkpt lat="44.29852085050247" lon="10.072819749394947"><ele>397.0</ele><time>2026-04-18T08:47:26Z</time></trkpt><trkpt lat="44.298530078432606" lon="10.072994713863661"><ele>397.0</ele><time>2026-04-18T08:47:27Z</time></trkpt><trkpt lat="44.29860082376542" lon="10.073160558145357"><ele>391.75</ele><time>2026-04-18T08:47:28Z</time></trkpt><trkpt lat="44.2986413676788" lon="10.07329811269242"><ele>386.5</ele><time>2026-04-18T08:47:29Z</time></trkpt><trkpt lat="44.29859551960078" lon="10.073402268199224"><ele>381.25</ele><time>2026-04-18T08:47:30Z</time></trkpt><trkpt lat="44.29847288751137" lon="10.073395204691584"><ele>376.0</ele><time>2026-04-18T08:47:31Z</time></trkpt><trkpt lat="44.29832064130429" lon="10.07348609805187"><ele>376.0</ele><time>2026-04-18T08:47:32Z</time></trkpt><trkpt lat="44.298175931459426" lon="10.073578720288"><ele>376.0</ele><time>2026-04-18T08:47:33Z</time></trkpt><trkpt lat="44.29803661791685" lon="10.073691537169283"><ele>376.0</ele><time>2026-04-18T08:47:34Z</time></trkpt><trkpt lat="44.2979032700965" lon="10.073750115162087"><ele>376.0</ele><time>2026-04-18T08:47:35Z</time></trkpt><trkpt lat="44.29773153176634" lon="10.073743318560771"><ele>376.0</ele><time>2026-04-18T08:47:36Z</time></trkpt><trkpt lat="44.29753928014285" lon="10.073711931652783"><ele>376.0</ele><time>2026-04-18T08:47:37Z</time></trkpt><trkpt lat="44.297360486677114" lon="10.073675927898819"><ele>379.75</ele><time>2026-04-18T08:47:38Z</time></trkpt><trkpt lat="44.29721082904313" lon="10.073611469733361"><ele>383.5</ele><time>2026-04-18T08:47:39Z</time></trkpt><trkpt lat="44.297091295431045" lon="10.073554866317739"><ele>387.25</ele><time>2026-04-18T08:47:40Z</time></trkpt><trkpt lat="44.296975763892284" lon="10.073582018114372"><ele>391.0</ele><time>2026-04-18T08:47:41Z</time></trkpt><trkpt lat="44.29685247268958" lon="10.073701287237556"><ele>391.0</ele><time>2026-04-18T08:47:42Z</time></trkpt><trkpt lat="44.29672019115995" lon="10.07387019092673"><ele>391.0</ele><time>2026-04-18T08:47:42.999Z</time></trkpt><trkpt lat="44.29660202894126" lon="10.074046137993706"><ele>391.0</ele><time>2026-04-18T08:47:43.999Z</time></trkpt><trkpt lat="44.29649767974234" lon="10.074189126075952"><ele>390.25</ele><time>2026-04-18T08:47:44.999Z</time></trkpt><trkpt lat="44.29639168316543" lon="10.074334015178138"><ele>389.5</ele><time>2026-04-18T08:47:45.999Z</time></trkpt><trkpt lat="44.29628324405991" lon="10.074463903206867"><ele>388.75</ele><time>2026-04-18T08:47:46.999Z</time></trkpt><trkpt lat="44.296155811618824" lon="10.074591417032863"><ele>388.0</ele><time>2026-04-18T08:47:47.999Z</time></trkpt><trkpt lat="44.296025634996425" lon="10.074718452784987"><ele>388.0</ele><time>2026-04-18T08:47:48.999Z</time></trkpt><trkpt lat="44.29587847060853" lon="10.07481138770125"><ele>388.0</ele><time>2026-04-18T08:47:49.999Z</time></trkpt><trkpt lat="44.29573599819185" lon="10.074917117462157"><ele>388.0</ele><time>2026-04-18T08:47:50.999Z</time></trkpt><trkpt lat="44.29557676398339" lon="10.074988414219339"><ele>382.33333333333337</ele><time>2026-04-18T08:47:51.999Z</time></trkpt><trkpt lat="44.295419707484896" lon="10.075072961326708"><ele>376.6666666666667</ele><time>2026-04-18T08:47:52.999Z</time></trkpt><trkpt lat="44.29526716056671" lon="10.075165807846306"><ele>371.0</ele><time>2026-04-18T08:47:53.999Z</time></trkpt><trkpt lat="44.2951199165894" lon="10.07526233924395"><ele>371.0</ele><time>2026-04-18T08:47:54.999Z</time></trkpt><trkpt lat="44.29497587397898" lon="10.075351008113316"><ele>371.0</ele><time>2026-04-18T08:47:55.999Z</time></trkpt><trkpt lat="44.29483791489827" lon="10.075429789920006"><ele>371.0</ele><time>2026-04-18T08:47:56.999Z</time></trkpt><trkpt lat="44.29470416651968" lon="10.075508974843373"><ele>369.75</ele><time>2026-04-18T08:47:57.999Z</time></trkpt><trkpt lat="44.29457342703828" lon="10.075563021969051"><ele>368.5</ele><time>2026-04-18T08:47:58.999Z</time></trkpt><trkpt lat="44.29443649688009" lon="10.075583389942384"><ele>367.25</ele><time>2026-04-18T08:47:59.999Z</time></trkpt><trkpt lat="44.29430315382069" lon="10.075559826659656"><ele>366.0</ele><time>2026-04-18T08:48:00.999Z</time></trkpt><trkpt lat="44.294190247654605" lon="10.075547798243594"><ele>366.0</ele><time>2026-04-18T08:48:01.999Z</time></trkpt><trkpt lat="44.294110057012254" lon="10.075538282240025"><ele>366.0</ele><time>2026-04-18T08:48:02.999Z</time></trkpt><trkpt lat="44.29401811390093" lon="10.075528003048188"><ele>366.0</ele><time>2026-04-18T08:48:03.999Z</time></trkpt><trkpt lat="44.29387829343205" lon="10.07552209939683"><ele>366.0</ele><time>2026-04-18T08:48:04.999Z</time></trkpt><trkpt lat="44.29372116044143" lon="10.07553054522454"><ele>364.0</ele><time>2026-04-18T08:48:05.999Z</time></trkpt><trkpt lat="44.2935661645827" lon="10.075564899025652"><ele>362.0</ele><time>2026-04-18T08:48:06.999Z</time></trkpt><trkpt lat="44.293406808663605" lon="10.075595763156116"><ele>360.0</ele><time>2026-04-18T08:48:07.999Z</time></trkpt><trkpt lat="44.29326013218557" lon="10.075625648716082"><ele>360.0</ele><time>2026-04-18T08:48:08.999Z</time></trkpt><trkpt lat="44.29311947021494" lon="10.075636965507512"><ele>360.0</ele><time>2026-04-18T08:48:09.999Z</time></trkpt><trkpt lat="44.292981123153496" lon="10.075760822736846"><ele>360.0</ele><time>2026-04-18T08:48:10.999Z</time></trkpt><trkpt lat="44.29296385883608" lon="10.075999430724215"><ele>357.6</ele><time>2026-04-18T08:48:11.999Z</time></trkpt><trkpt lat="44.29291686881274" lon="10.076137213581855"><ele>355.2</ele><time>2026-04-18T08:48:12.999Z</time></trkpt><trkpt lat="44.29285502105918" lon="10.076251659620587"><ele>352.79999999999995</ele><time>2026-04-18T08:48:13.999Z</time></trkpt><trkpt lat="44.29281367944133" lon="10.076387828046858"><ele>350.4</ele><time>2026-04-18T08:48:14.999Z</time></trkpt><trkpt lat="44.29274344924103" lon="10.07652938698782"><ele>348.0</ele><time>2026-04-18T08:48:15.999Z</time></trkpt><trkpt lat="44.292650415635066" lon="10.07667036146137"><ele>346.25</ele><time>2026-04-18T08:48:16.999Z</time></trkpt><trkpt lat="44.29253233911377" lon="10.076777311185316"><ele>344.5</ele><time>2026-04-18T08:48:17.999Z</time></trkpt><trkpt lat="44.29241624935332" lon="10.07688045443234"><ele>342.75</ele><time>2026-04-18T08:48:18.999Z</time></trkpt><trkpt lat="44.29229917567779" lon="10.076972526249277"><ele>341.0</ele><time>2026-04-18T08:48:19.999Z</time></trkpt><trkpt lat="44.29218593537957" lon="10.077069148203934"><ele>341.0</ele><time>2026-04-18T08:48:20.999Z</time></trkpt><trkpt lat="44.29207450840377" lon="10.077143291028257"><ele>341.0</ele><time>2026-04-18T08:48:21.999Z</time></trkpt><trkpt lat="44.2919670983102" lon="10.077204118353352"><ele>341.0</ele><time>2026-04-18T08:48:22.999Z</time></trkpt><trkpt lat="44.291867072429454" lon="10.077275732572732"><ele>341.0</ele><time>2026-04-18T08:48:23.999Z</time></trkpt><trkpt lat="44.291769288154526" lon="10.077339036237923"><ele>341.0</ele><time>2026-04-18T08:48:24.999Z</time></trkpt><trkpt lat="44.29167678731353" lon="10.077398039603457"><ele>341.0</ele><time>2026-04-18T08:48:25.999Z</time></trkpt><trkpt lat="44.29158489283974" lon="10.077436533973938"><ele>341.0</ele><time>2026-04-18T08:48:26.999Z</time></trkpt><trkpt lat="44.29149503087691" lon="10.077458875964565"><ele>341.0</ele><time>2026-04-18T08:48:27.999Z</time></trkpt><trkpt lat="44.29140490409142" lon="10.077452971081911"><ele>341.0</ele><time>2026-04-18T08:48:28.999Z</time></trkpt><trkpt lat="44.2913092137678" lon="10.07741516991897"><ele>340.25</ele><time>2026-04-18T08:48:29.999Z</time></trkpt><trkpt lat="44.29119901935778" lon="10.077375438421917"><ele>339.5</ele><time>2026-04-18T08:48:30.999Z</time></trkpt><trkpt lat="44.291082547424445" lon="10.077343921098276"><ele>338.75</ele><time>2026-04-18T08:48:32Z</time></trkpt><trkpt lat="44.29097241068183" lon="10.077312871121652"><ele>338.0</ele><time>2026-04-18T08:48:33Z</time></trkpt><trkpt lat="44.290861829877954" lon="10.077294208854521"><ele>338.0</ele><time>2026-04-18T08:48:34Z</time></trkpt><trkpt lat="44.290753734105316" lon="10.077279651906093"><ele>338.0</ele><time>2026-04-18T08:48:35Z</time></trkpt><trkpt lat="44.2906460195028" lon="10.077257571018734"><ele>338.0</ele><time>2026-04-18T08:48:36Z</time></trkpt><trkpt lat="44.29053520655304" lon="10.077209709613522"><ele>338.0</ele><time>2026-04-18T08:48:37Z</time></trkpt><trkpt lat="44.29043461772858" lon="10.077115322539782"><ele>340.5</ele><time>2026-04-18T08:48:38Z</time></trkpt><trkpt lat="44.29034069922575" lon="10.077006619040029"><ele>343.0</ele><time>2026-04-18T08:48:39Z</time></trkpt><trkpt lat="44.29023984810862" lon="10.076930247507843"><ele>345.5</ele><time>2026-04-18T08:48:40Z</time></trkpt><trkpt lat="44.290121927212496" lon="10.076897010672127"><ele>348.0</ele><time>2026-04-18T08:48:41Z</time></trkpt><trkpt lat="44.289998753949284" lon="10.076908383179928"><ele>348.0</ele><time>2026-04-18T08:48:42Z</time></trkpt><trkpt lat="44.28988164010104" lon="10.076991750665522"><ele>348.0</ele><time>2026-04-18T08:48:43Z</time></trkpt><trkpt lat="44.289766378410704" lon="10.077086532770299"><ele>348.0</ele><time>2026-04-18T08:48:44Z</time></trkpt><trkpt lat="44.28965474035634" lon="10.077162223732941"><ele>348.0</ele><time>2026-04-18T08:48:45Z</time></trkpt><trkpt lat="44.289553557207114" lon="10.077249352352974"><ele>343.6666666666667</ele><time>2026-04-18T08:48:46Z</time></trkpt><trkpt lat="44.28945839945175" lon="10.07735131038694"><ele>339.33333333333337</ele><time>2026-04-18T08:48:47Z</time></trkpt><trkpt lat="44.28936327917643" lon="10.077443282702408"><ele>335.0</ele><time>2026-04-18T08:48:48Z</time></trkpt><trkpt lat="44.33923498513704" lon="10.126106487049551"><ele>520.5</ele><time>2026-04-18T08:35:56Z</time></trkpt><trkpt lat="44.33912556189334" lon="10.12614227627782"><ele>706.0</ele><time>2026-04-18T08:35:57Z</time></trkpt><trkpt lat="44.33900317004671" lon="10.126236517653673"><ele>891.5</ele><time>2026-04-18T08:35:58Z</time></trkpt><trkpt lat="44.33886200550846" lon="10.126305128995089"><ele>1077.0</ele><time>2026-04-18T08:35:59Z</time></trkpt><trkpt lat="44.338732194720016" lon="10.126377005325674"><ele>1077.0</ele><time>2026-04-18T08:36:00Z</time></trkpt><trkpt lat="44.338609575238316" lon="10.126438114360482"><ele>1077.0</ele><time>2026-04-18T08:36:01Z</time></trkpt><trkpt lat="44.338486239797376" lon="10.12647870978464"><ele>1077.0</ele><time>2026-04-18T08:36:02Z</time></trkpt><trkpt lat="44.33835649184148" lon="10.126393682585904"><ele>1077.0</ele><time>2026-04-18T08:36:03Z</time></trkpt><trkpt lat="44.338235671524664" lon="10.126304590993847"><ele>1077.0</ele><time>2026-04-18T08:36:04Z</time></trkpt><trkpt lat="44.33813681999913" lon="10.12619689777191"><ele>1077.0</ele><time>2026-04-18T08:36:05Z</time></trkpt><trkpt lat="44.3380207761339" lon="10.126160003756382"><ele>1077.0</ele><time>2026-04-18T08:36:06Z</time></trkpt><trkpt lat="44.337878088897426" lon="10.126170752407862"><ele>1077.0</ele><time>2026-04-18T08:36:07Z</time></trkpt><trkpt lat="44.33776678415733" lon="10.12619639646169"><ele>1074.25</ele><time>2026-04-18T08:36:08Z</time></trkpt><trkpt lat="44.337684996669694" lon="10.126233466751575"><ele>1071.5</ele><time>2026-04-18T08:36:10Z</time></trkpt><trkpt lat="44.33754708208104" lon="10.126271404999487"><ele>1068.75</ele><time>2026-04-18T08:36:12Z</time></trkpt><trkpt lat="44.33741377283498" lon="10.126304188188536"><ele>1066.0</ele><time>2026-04-18T08:36:13Z</time></trkpt><trkpt lat="44.33724411799992" lon="10.126278707143145"><ele>1063.5</ele><time>2026-04-18T08:36:14Z</time></trkpt><trkpt lat="44.337085554076026" lon="10.126264843226457"><ele>1061.0</ele><time>2026-04-18T08:36:15Z</time></trkpt><trkpt lat="44.336947377765505" lon="10.126283060943475"><ele>1058.5</ele><time>2026-04-18T08:36:16Z</time></trkpt><trkpt lat="44.33681539875799" lon="10.126344152879943"><ele>1056.0</ele><time>2026-04-18T08:36:17Z</time></trkpt><trkpt lat="44.33667947744591" lon="10.126450702973187"><ele>1056.0</ele><time>2026-04-18T08:36:18Z</time></trkpt><trkpt lat="44.336541189694984" lon="10.126525210077933"><ele>1056.0</ele><time>2026-04-18T08:36:19Z</time></trkpt><trkpt lat="44.33642817332779" lon="10.126560930877602"><ele>1056.0</ele><time>2026-04-18T08:36:20Z</time></trkpt><trkpt lat="44.33633530891391" lon="10.126500505793606"><ele>1056.0</ele><time>2026-04-18T08:36:21Z</time></trkpt><trkpt lat="44.33627709747376" lon="10.126355124640178"><ele>1056.75</ele><time>2026-04-18T08:36:22Z</time></trkpt><trkpt lat="44.3361847668929" lon="10.126244046946535"><ele>1057.5</ele><time>2026-04-18T08:36:23Z</time></trkpt><trkpt lat="44.336058291300546" lon="10.126155918749179"><ele>1058.25</ele><time>2026-04-18T08:36:24Z</time></trkpt><trkpt lat="44.33588935625615" lon="10.126121134818028"><ele>1059.0</ele><time>2026-04-18T08:36:25Z</time></trkpt><trkpt lat="44.33574317697234" lon="10.12606714947172"><ele>1059.0</ele><time>2026-04-18T08:36:26Z</time></trkpt><trkpt lat="44.33563401130093" lon="10.125941925945702"><ele>1059.0</ele><time>2026-04-18T08:36:27Z</time></trkpt><trkpt lat="44.335539737725036" lon="10.12577059353917"><ele>1059.0</ele><time>2026-04-18T08:36:28Z</time></trkpt><trkpt lat="44.33543514818896" lon="10.125628633213374"><ele>1059.0</ele><time>2026-04-18T08:36:29Z</time></trkpt><trkpt lat="44.335364069620226" lon="10.12548842506782"><ele>1059.75</ele><time>2026-04-18T08:36:30Z</time></trkpt><trkpt lat="44.335306382004475" lon="10.125334800331036"><ele>1060.5</ele><time>2026-04-18T08:36:31Z</time></trkpt><trkpt lat="44.335254327579754" lon="10.125150164852238"><ele>1061.25</ele><time>2026-04-18T08:36:32Z</time></trkpt><trkpt lat="44.33520284741033" lon="10.124974117902171"><ele>1062.0</ele><time>2026-04-18T08:36:33Z</time></trkpt><trkpt lat="44.33517806068485" lon="10.124812194202962"><ele>1062.0</ele><time>2026-04-18T08:36:34Z</time></trkpt><trkpt lat="44.33514274564169" lon="10.124652602512063"><ele>1062.0</ele><time>2026-04-18T08:36:35Z</time></trkpt><trkpt lat="44.33511265118258" lon="10.124485160199566"><ele>1062.0</ele><time>2026-04-18T08:36:36Z</time></trkpt><trkpt lat="44.335094402393175" lon="10.124294637924699"><ele>1062.0</ele><time>2026-04-18T08:36:37Z</time></trkpt><trkpt lat="44.33509254774594" lon="10.124111221109231"><ele>1061.0</ele><time>2026-04-18T08:36:38Z</time></trkpt><trkpt lat="44.335108870405215" lon="10.12393498693526"><ele>1060.0</ele><time>2026-04-18T08:36:39Z</time></trkpt><trkpt lat="44.335102386626076" lon="10.123757505618514"><ele>1059.0</ele><time>2026-04-18T08:36:40Z</time></trkpt><trkpt lat="44.335089008585264" lon="10.12360357076636"><ele>1058.0</ele><time>2026-04-18T08:36:41Z</time></trkpt><trkpt lat="44.33507177962335" lon="10.123471358488592"><ele>1058.0</ele><time>2026-04-18T08:36:42Z</time></trkpt><trkpt lat="44.3350517462391" lon="10.123333491063471"><ele>1058.0</ele><time>2026-04-18T08:36:43Z</time></trkpt><trkpt lat="44.33502338159922" lon="10.123184772949044"><ele>1058.0</ele><time>2026-04-18T08:36:44Z</time></trkpt><trkpt lat="44.33500063532247" lon="10.123020847051704"><ele>1058.0</ele><time>2026-04-18T08:36:45Z</time></trkpt><trkpt lat="44.33498612941157" lon="10.122831993264708"><ele>1054.25</ele><time>2026-04-18T08:36:46Z</time></trkpt><trkpt lat="44.33497899553471" lon="10.122651469609778"><ele>1050.5</ele><time>2026-04-18T08:36:47Z</time></trkpt><trkpt lat="44.3349497196335" lon="10.122483861934278"><ele>1046.75</ele><time>2026-04-18T08:36:48Z</time></trkpt><trkpt lat="44.33489008647336" lon="10.12232122326979"><ele>1043.0</ele><time>2026-04-18T08:36:49Z</time></trkpt><trkpt lat="44.33478472727289" lon="10.12215771080714"><ele>1050.3333333333335</ele><time>2026-04-18T08:36:50Z</time></trkpt><trkpt lat="44.334673195512295" lon="10.121996557269846"><ele>1057.6666666666667</ele><time>2026-04-18T08:36:51Z</time></trkpt><trkpt lat="44.33457020815403" lon="10.121820186033633"><ele>1065.0</ele><time>2026-04-18T08:36:52Z</time></trkpt><trkpt lat="44.33448881104352" lon="10.121635719974204"><ele>1057.6666666666667</ele><time>2026-04-18T08:36:53Z</time></trkpt><trkpt lat="44.33447360119103" lon="10.12142691552024"><ele>1050.3333333333335</ele><time>2026-04-18T08:36:54Z</time></trkpt><trkpt lat="44.33444937412476" lon="10.121213304868558"><ele>1043.0</ele><time>2026-04-18T08:36:55Z</time></trkpt><trkpt lat="44.33443996816805" lon="10.120997438713918"><ele>1043.0</ele><time>2026-04-18T08:36:56Z</time></trkpt><trkpt lat="44.33438000354651" lon="10.120797580656017"><ele>1043.0</ele><time>2026-04-18T08:36:57Z</time></trkpt><trkpt lat="44.334296849825215" lon="10.120593653997474"><ele>1043.0</ele><time>2026-04-18T08:36:58Z</time></trkpt><trkpt lat="44.33420086129805" lon="10.120396780725939"><ele>1035.6666666666667</ele><time>2026-04-18T08:36:59Z</time></trkpt><trkpt lat="44.334088609327736" lon="10.120205818845577"><ele>1028.3333333333333</ele><time>2026-04-18T08:37:00Z</time></trkpt><trkpt lat="44.333972114883096" lon="10.120024671747393"><ele>1021.0</ele><time>2026-04-18T08:37:01Z</time></trkpt><trkpt lat="44.333846714723464" lon="10.119840818775502"><ele>1021.0</ele><time>2026-04-18T08:37:02Z</time></trkpt><trkpt lat="44.333716816733805" lon="10.119661765349687"><ele>1021.0</ele><time>2026-04-18T08:37:03Z</time></trkpt><trkpt lat="44.33357695317255" lon="10.119485991081323"><ele>1021.0</ele><time>2026-04-18T08:37:04Z</time></trkpt><trkpt lat="44.33343909084883" lon="10.119312146962589"><ele>1021.0</ele><time>2026-04-18T08:37:05Z</time></trkpt><trkpt lat="44.33329380206935" lon="10.119142213114053"><ele>1021.0</ele><time>2026-04-18T08:37:06Z</time></trkpt><trkpt lat="44.33315701101177" lon="10.118968333839154"><ele>1021.0</ele><time>2026-04-18T08:37:07Z</time></trkpt><trkpt lat="44.33302759059807" lon="10.118776081613106"><ele>1022.6666666666666</ele><time>2026-04-18T08:37:08Z</time></trkpt><trkpt lat="44.33289875773881" lon="10.118587446659761"><ele>1024.3333333333333</ele><time>2026-04-18T08:37:09Z</time></trkpt><trkpt lat="44.33275172312779" lon="10.118421591595594"><ele>1026.0</ele><time>2026-04-18T08:37:10Z</time></trkpt><trkpt lat="44.332604455963846" lon="10.118277581303913"><ele>1014.0</ele><time>2026-04-18T08:37:11Z</time></trkpt><trkpt lat="44.332464343888574" lon="10.11814355385736"><ele>1002.0</ele><time>2026-04-18T08:37:11.999Z</time></trkpt><trkpt lat="44.3323720664935" lon="10.117947943640003"><ele>990.0</ele><time>2026-04-18T08:37:12.999Z</time></trkpt><trkpt lat="44.33228430051871" lon="10.117732967210921"><ele>989.3333333333333</ele><time>2026-04-18T08:37:13.999Z</time></trkpt><trkpt lat="44.33220149137415" lon="10.117522383595215"><ele>988.6666666666666</ele><time>2026-04-18T08:37:14.999Z</time></trkpt><trkpt lat="44.33209136041545" lon="10.117341584185683"><ele>988.0</ele><time>2026-04-18T08:37:15.999Z</time></trkpt><trkpt lat="44.33193002464864" lon="10.11719530645646"><ele>988.0</ele><time>2026-04-18T08:37:16.999Z</time></trkpt><trkpt lat="44.33177085200062" lon="10.117060912914372"><ele>988.0</ele><time>2026-04-18T08:37:17.999Z</time></trkpt><trkpt lat="44.331643241083114" lon="10.116891408305735"><ele>988.0</ele><time>2026-04-18T08:37:18.999Z</time></trkpt><trkpt lat="44.33151601998632" lon="10.116737731358803"><ele>985.0</ele><time>2026-04-18T08:37:19.999Z</time></trkpt><trkpt lat="44.331346782517585" lon="10.116632526981995"><ele>982.0</ele><time>2026-04-18T08:37:20.999Z</time></trkpt><trkpt lat="44.331154059359406" lon="10.116532449118543"><ele>979.0</ele><time>2026-04-18T08:37:21.999Z</time></trkpt><trkpt lat="44.330988311977265" lon="10.116362825386831"><ele>979.0</ele><time>2026-04-18T08:37:22.999Z</time></trkpt><trkpt lat="44.33082663624143" lon="10.116193807948614"><ele>979.0</ele><time>2026-04-18T08:37:23.999Z</time></trkpt><trkpt lat="44.330671288312324" lon="10.116040435181663"><ele>979.0</ele><time>2026-04-18T08:37:24.999Z</time></trkpt><trkpt lat="44.33053984666565" lon="10.115863416598762"><ele>977.0</ele><time>2026-04-18T08:37:25.999Z</time></trkpt><trkpt lat="44.330417370415915" lon="10.115696782827353"><ele>975.0</ele><time>2026-04-18T08:37:26.999Z</time></trkpt><trkpt lat="44.330314502142684" lon="10.115577846228874"><ele>973.0</ele><time>2026-04-18T08:37:27.999Z</time></trkpt><trkpt lat="44.33020823859715" lon="10.115527822399267"><ele>971.0</ele><time>2026-04-18T08:37:28.999Z</time></trkpt><trkpt lat="44.33008173488265" lon="10.115552385621994"><ele>971.0</ele><time>2026-04-18T08:37:29.999Z</time></trkpt><trkpt lat="44.329959260819535" lon="10.115583764477964"><ele>971.0</ele><time>2026-04-18T08:37:30.999Z</time></trkpt><trkpt lat="44.32986044841561" lon="10.115543285937875"><ele>971.0</ele><time>2026-04-18T08:37:31.999Z</time></trkpt><trkpt lat="44.329792174601714" lon="10.115395719848324"><ele>971.0</ele><time>2026-04-18T08:37:32.999Z</time></trkpt><trkpt lat="44.32978241105445" lon="10.11520934226354"><ele>971.0</ele><time>2026-04-18T08:37:33.999Z</time></trkpt><trkpt lat="44.3298207370402" lon="10.115030040571058"><ele>971.0</ele><time>2026-04-18T08:37:34.999Z</time></trkpt><trkpt lat="44.32980752762902" lon="10.114850080243851"><ele>971.0</ele><time>2026-04-18T08:37:35.999Z</time></trkpt><trkpt lat="44.32968613016306" lon="10.11468230967522"><ele>971.0</ele><time>2026-04-18T08:37:36.999Z</time></trkpt><trkpt lat="44.32952202680508" lon="10.114536372861357"><ele>974.0</ele><time>2026-04-18T08:37:37.999Z</time></trkpt><trkpt lat="44.329366569108345" lon="10.114341959920344"><ele>977.0</ele><time>2026-04-18T08:37:38.999Z</time></trkpt><trkpt lat="44.32920202013251" lon="10.114160409017503"><ele>980.0</ele><time>2026-04-18T08:37:39.999Z</time></trkpt><trkpt lat="44.329048928251694" lon="10.113994965373921"><ele>979.6666666666667</ele><time>2026-04-18T08:37:40.999Z</time></trkpt><trkpt lat="44.328908969843354" lon="10.113821291299896"><ele>979.3333333333333</ele><time>2026-04-18T08:37:41.999Z</time></trkpt><trkpt lat="44.3287960752691" lon="10.113606051837843"><ele>979.0</ele><time>2026-04-18T08:37:42.999Z</time></trkpt><trkpt lat="44.32870529099055" lon="10.113382552422232"><ele>970.0</ele><time>2026-04-18T08:37:43.999Z</time></trkpt><trkpt lat="44.32861015743324" lon="10.113191068499814"><ele>961.0</ele><time>2026-04-18T08:37:44.999Z</time></trkpt><trkpt lat="44.328504897657595" lon="10.113014494295154"><ele>952.0</ele><time>2026-04-18T08:37:45.999Z</time></trkpt><trkpt lat="44.32833106967773" lon="10.112864882151843"><ele>952.0</ele><time>2026-04-18T08:37:46.999Z</time></trkpt><trkpt lat="44.32813947874568" lon="10.11271611602682"><ele>952.0</ele><time>2026-04-18T08:37:47.999Z</time></trkpt><trkpt lat="44.327987280427394" lon="10.112524056279065"><ele>952.0</ele><time>2026-04-18T08:37:48.999Z</time></trkpt><trkpt lat="44.32783479438706" lon="10.112349973314604"><ele>948.3333333333333</ele><time>2026-04-18T08:37:49.999Z</time></trkpt><trkpt lat="44.32769637348885" lon="10.112172576038713"><ele>944.6666666666667</ele><time>2026-04-18T08:37:50.999Z</time></trkpt><trkpt lat="44.32753928129229" lon="10.112022758387853"><ele>941.0</ele><time>2026-04-18T08:37:51.999Z</time></trkpt><trkpt lat="44.32737409898992" lon="10.111914228638593"><ele>939.3333333333334</ele><time>2026-04-18T08:37:52.999Z</time></trkpt><trkpt lat="44.3272041319149" lon="10.111839746769052"><ele>937.6666666666667</ele><time>2026-04-18T08:37:53.999Z</time></trkpt><trkpt lat="44.32701603120294" lon="10.11181893976025"><ele>936.0</ele><time>2026-04-18T08:37:54.999Z</time></trkpt><trkpt lat="44.32682771188301" lon="10.111837084375264"><ele>936.0</ele><time>2026-04-18T08:37:55.999Z</time></trkpt><trkpt lat="44.326656250426986" lon="10.111871014177927"><ele>936.0</ele><time>2026-04-18T08:37:56.999Z</time></trkpt><trkpt lat="44.32649574471199" lon="10.111983373912858"><ele>936.0</ele><time>2026-04-18T08:37:57.999Z</time></trkpt><trkpt lat="44.32634248632368" lon="10.112163925880957"><ele>935.25</ele><time>2026-04-18T08:37:58.999Z</time></trkpt><trkpt lat="44.326171213992694" lon="10.112291305643826"><ele>934.5</ele><time>2026-04-18T08:37:59.999Z</time></trkpt><trkpt lat="44.326037722177595" lon="10.112382467560684"><ele>933.75</ele><time>2026-04-18T08:38:00.999Z</time></trkpt><trkpt lat="44.32594894086199" lon="10.11244015787619"><ele>933.0</ele><time>2026-04-18T08:38:02Z</time></trkpt><trkpt lat="44.32588785149464" lon="10.112480014331007"><ele>927.0</ele><time>2026-04-18T08:38:03Z</time></trkpt><trkpt lat="44.325826260657635" lon="10.11240117212525"><ele>921.0</ele><time>2026-04-18T08:38:04Z</time></trkpt><trkpt lat="44.325820146991546" lon="10.112243796042321"><ele>915.0</ele><time>2026-04-18T08:38:05Z</time></trkpt><trkpt lat="44.32589645068929" lon="10.112085776225468"><ele>909.0</ele><time>2026-04-18T08:38:06Z</time></trkpt><trkpt lat="44.326029538989744" lon="10.112049527335351"><ele>909.0</ele><time>2026-04-18T08:38:07Z</time></trkpt><trkpt lat="44.326169337824425" lon="10.112031254732672"><ele>909.0</ele><time>2026-04-18T08:38:08Z</time></trkpt><trkpt lat="44.326307124806014" lon="10.112007564778525"><ele>909.0</ele><time>2026-04-18T08:38:09Z</time></trkpt><trkpt lat="44.32640983324368" lon="10.111869745086599"><ele>909.0</ele><time>2026-04-18T08:38:10Z</time></trkpt><trkpt lat="44.326504383520096" lon="10.111656863211719"><ele>905.3333333333333</ele><time>2026-04-18T08:38:11Z</time></trkpt><trkpt lat="44.32662937283775" lon="10.111460736470157"><ele>901.6666666666666</ele><time>2026-04-18T08:38:12Z</time></trkpt><trkpt lat="44.32678716201875" lon="10.111322154856786"><ele>898.0</ele><time>2026-04-18T08:38:13Z</time></trkpt><trkpt lat="44.32695053977545" lon="10.111270970802785"><ele>898.0</ele><time>2026-04-18T08:38:14Z</time></trkpt><trkpt lat="44.327127639093014" lon="10.111217221418107"><ele>898.0</ele><time>2026-04-18T08:38:15Z</time></trkpt><trkpt lat="44.327319849170465" lon="10.111204284698864"><ele>898.0</ele><time>2026-04-18T08:38:16Z</time></trkpt><trkpt lat="44.32750958620317" lon="10.111202538522669"><ele>901.3333333333333</ele><time>2026-04-18T08:38:17Z</time></trkpt><trkpt lat="44.327688832330765" lon="10.111256168455771"><ele>904.6666666666667</ele><time>2026-04-18T08:38:18Z</time></trkpt><trkpt lat="44.327872921459964" lon="10.111336276979529"><ele>908.0</ele><time>2026-04-18T08:38:19Z</time></trkpt><trkpt lat="44.32805578533644" lon="10.111426696896128"><ele>913.0</ele><time>2026-04-18T08:38:20Z</time></trkpt><trkpt lat="44.328252535124086" lon="10.111535234010063"><ele>918.0</ele><time>2026-04-18T08:38:21Z</time></trkpt><trkpt lat="44.32841065368896" lon="10.111699395803566"><ele>923.0</ele><time>2026-04-18T08:38:22Z</time></trkpt><trkpt lat="44.32857340675988" lon="10.111805713648932"><ele>923.0</ele><time>2026-04-18T08:38:23Z</time></trkpt><trkpt lat="44.32873120672918" lon="10.111882232626527"><ele>923.0</ele><time>2026-04-18T08:38:24Z</time></trkpt><trkpt lat="44.32890797676895" lon="10.111921745260096"><ele>923.0</ele><time>2026-04-18T08:38:25Z</time></trkpt><trkpt lat="44.32911008903239" lon="10.111960238636252"><ele>917.25</ele><time>2026-04-18T08:38:26Z</time></trkpt><trkpt lat="44.32930511980583" lon="10.111962705270388"><ele>911.5</ele><time>2026-04-18T08:38:27Z</time></trkpt><trkpt lat="44.32944284625161" lon="10.1120170845638"><ele>905.75</ele><time>2026-04-18T08:38:28Z</time></trkpt><trkpt lat="44.329535127634664" lon="10.112078280923802"><ele>900.0</ele><time>2026-04-18T08:38:29Z</time></trkpt><trkpt lat="44.32960220766504" lon="10.112201321338933"><ele>900.0</ele><time>2026-04-18T08:38:30Z</time></trkpt><trkpt lat="44.32966093915584" lon="10.112382111671753"><ele>900.0</ele><time>2026-04-18T08:38:31Z</time></trkpt><trkpt lat="44.329676522807844" lon="10.112595904022848"><ele>900.0</ele><time>2026-04-18T08:38:32Z</time></trkpt><trkpt lat="44.32970169600828" lon="10.112790004217153"><ele>900.0</ele><time>2026-04-18T08:38:33Z</time></trkpt><trkpt lat="44.329750702746075" lon="10.11293793705394"><ele>898.4</ele><time>2026-04-18T08:38:34Z</time></trkpt><trkpt lat="44.32982664613138" lon="10.113060553795346"><ele>896.8</ele><time>2026-04-18T08:38:35Z</time></trkpt><trkpt lat="44.32991981375237" lon="10.113118337475095"><ele>895.2</ele><time>2026-04-18T08:38:36Z</time></trkpt><trkpt lat="44.330020786530234" lon="10.113062830745182"><ele>893.6</ele><time>2026-04-18T08:38:37Z</time></trkpt><trkpt lat="44.33008149937885" lon="10.112938549515023"><ele>892.0</ele><time>2026-04-18T08:38:38Z</time></trkpt><trkpt lat="44.33006782195619" lon="10.112757163388421"><ele>892.0</ele><time>2026-04-18T08:38:39Z</time></trkpt><trkpt lat="44.329974545269216" lon="10.112547625861064"><ele>892.0</ele><time>2026-04-18T08:38:40Z</time></trkpt><trkpt lat="44.32988568395617" lon="10.112330835683371"><ele>892.0</ele><time>2026-04-18T08:38:41Z</time></trkpt><trkpt lat="44.329798595024485" lon="10.112110688555791"><ele>894.6666666666666</ele><time>2026-04-18T08:38:42Z</time></trkpt><trkpt lat="44.32970923062566" lon="10.111923860176805"><ele>897.3333333333333</ele><time>2026-04-18T08:38:43Z</time></trkpt><trkpt lat="44.32959933866499" lon="10.11175108212945"><ele>900.0</ele><time>2026-04-18T08:38:44Z</time></trkpt><trkpt lat="44.32947165768903" lon="10.111595239707077"><ele>890.0</ele><time>2026-04-18T08:38:45Z</time></trkpt><trkpt lat="44.329313565762554" lon="10.111490563038526"><ele>880.0</ele><time>2026-04-18T08:38:46Z</time></trkpt><trkpt lat="44.32913667276345" lon="10.111404126050822"><ele>870.0</ele><time>2026-04-18T08:38:47Z</time></trkpt><trkpt lat="44.32897767116504" lon="10.111281816685596"><ele>866.6666666666667</ele><time>2026-04-18T08:38:48Z</time></trkpt><trkpt lat="44.32884268383666" lon="10.111069542786538"><ele>863.3333333333334</ele><time>2026-04-18T08:38:49Z</time></trkpt><trkpt lat="44.328703805112674" lon="10.110841158322"><ele>860.0</ele><time>2026-04-18T08:38:50Z</time></trkpt><trkpt lat="44.328516638002704" lon="10.110672949142145"><ele>860.0</ele><time>2026-04-18T08:38:51Z</time></trkpt><trkpt lat="44.32835043715368" lon="10.11048814692287"><ele>860.0</ele><time>2026-04-18T08:38:52Z</time></trkpt><trkpt lat="44.32819650700339" lon="10.110317471884457"><ele>860.0</ele><time>2026-04-18T08:38:53Z</time></trkpt><trkpt lat="44.328056679724526" lon="10.110157661780248"><ele>863.3333333333334</ele><time>2026-04-18T08:38:54Z</time></trkpt><trkpt lat="44.32793868384855" lon="10.1100296912058"><ele>866.6666666666667</ele><time>2026-04-18T08:38:55Z</time></trkpt><trkpt lat="44.32778677859171" lon="10.109931339402113"><ele>870.0</ele><time>2026-04-18T08:38:56Z</time></trkpt><trkpt lat="44.32759708799149" lon="10.109873995280006"><ele>866.6666666666667</ele><time>2026-04-18T08:38:57Z</time></trkpt><trkpt lat="44.32739340059297" lon="10.109850684390638"><ele>863.3333333333334</ele><time>2026-04-18T08:38:58Z</time></trkpt><trkpt lat="44.327180722989894" lon="10.109879794083652"><ele>860.0</ele><time>2026-04-18T08:38:59Z</time></trkpt><trkpt lat="44.32696613053149" lon="10.109945419938072"><ele>860.0</ele><time>2026-04-18T08:39:00Z</time></trkpt><trkpt lat="44.326763139729756" lon="10.110002733427747"><ele>860.0</ele><time>2026-04-18T08:39:01Z</time></trkpt><trkpt lat="44.32658317443473" lon="10.110070499562388"><ele>860.0</ele><time>2026-04-18T08:39:02Z</time></trkpt><trkpt lat="44.32641868522387" lon="10.110169979725374"><ele>850.6666666666667</ele><time>2026-04-18T08:39:03Z</time></trkpt><trkpt lat="44.32625090127159" lon="10.110319157449428"><ele>841.3333333333333</ele><time>2026-04-18T08:39:04Z</time></trkpt><trkpt lat="44.32613147723125" lon="10.110543615140202"><ele>832.0</ele><time>2026-04-18T08:39:05Z</time></trkpt><trkpt lat="44.32598333756847" lon="10.110737510584293"><ele>840.75</ele><time>2026-04-18T08:39:06Z</time></trkpt><trkpt lat="44.325863032978454" lon="10.110847909952492"><ele>849.5</ele><time>2026-04-18T08:39:07Z</time></trkpt><trkpt lat="44.325730729839094" lon="10.110873588095354"><ele>858.25</ele><time>2026-04-18T08:39:08Z</time></trkpt><trkpt lat="44.3255839922238" lon="10.110928001498149"><ele>867.0</ele><time>2026-04-18T08:39:09Z</time></trkpt><trkpt lat="44.325425132333436" lon="10.111058249280985"><ele>869.5</ele><time>2026-04-18T08:39:10Z</time></trkpt><trkpt lat="44.32528674669157" lon="10.111129382896817"><ele>872.0</ele><time>2026-04-18T08:39:11Z</time></trkpt><trkpt lat="44.32520487114236" lon="10.111155791645178"><ele>874.5</ele><time>2026-04-18T08:39:12Z</time></trkpt><trkpt lat="44.32508563584608" lon="10.11105157177132"><ele>877.0</ele><time>2026-04-18T08:39:14Z</time></trkpt><trkpt lat="44.32506121044522" lon="10.11090631031896"><ele>874.25</ele><time>2026-04-18T08:39:15Z</time></trkpt><trkpt lat="44.325104188779356" lon="10.110738200082862"><ele>871.5</ele><time>2026-04-18T08:39:16Z</time></trkpt><trkpt lat="44.325197520964686" lon="10.11060163967146"><ele>868.75</ele><time>2026-04-18T08:39:17Z</time></trkpt><trkpt lat="44.32528793810905" lon="10.11044315796053"><ele>866.0</ele><time>2026-04-18T08:39:18Z</time></trkpt><trkpt lat="44.32533116921289" lon="10.110223782642105"><ele>866.0</ele><time>2026-04-18T08:39:18.999Z</time></trkpt><trkpt lat="44.32530891444833" lon="10.109964811550636"><ele>866.0</ele><time>2026-04-18T08:39:19.999Z</time></trkpt><trkpt lat="44.32523943101504" lon="10.109699062137283"><ele>866.0</ele><time>2026-04-18T08:39:20.999Z</time></trkpt><trkpt lat="44.32518508548077" lon="10.10947453855444"><ele>859.0</ele><time>2026-04-18T08:39:21.999Z</time></trkpt><trkpt lat="44.32505610803939" lon="10.109198794502376"><ele>852.0</ele><time>2026-04-18T08:39:22.999Z</time></trkpt><trkpt lat="44.32494589949302" lon="10.10898667061715"><ele>845.0</ele><time>2026-04-18T08:39:23.999Z</time></trkpt><trkpt lat="44.324824401921475" lon="10.108807374096957"><ele>838.3333333333334</ele><time>2026-04-18T08:39:24.999Z</time></trkpt><trkpt lat="44.32468938120196" lon="10.108676698948615"><ele>831.6666666666667</ele><time>2026-04-18T08:39:25.999Z</time></trkpt><trkpt lat="44.324525860392825" lon="10.108618675758764"><ele>825.0</ele><time>2026-04-18T08:39:26.999Z</time></trkpt><trkpt lat="44.32432179077924" lon="10.10859904696508"><ele>825.0</ele><time>2026-04-18T08:39:27.999Z</time></trkpt><trkpt lat="44.32411620315392" lon="10.108543767481844"><ele>825.0</ele><time>2026-04-18T08:39:28.999Z</time></trkpt><trkpt lat="44.32393479294407" lon="10.108411086388115"><ele>825.0</ele><time>2026-04-18T08:39:29.999Z</time></trkpt><trkpt lat="44.32378379591076" lon="10.10825545611593"><ele>816.5</ele><time>2026-04-18T08:39:30.999Z</time></trkpt><trkpt lat="44.32366037432382" lon="10.10813364861046"><ele>808.0</ele><time>2026-04-18T08:39:31.999Z</time></trkpt><trkpt lat="44.32353009147117" lon="10.108069124641426"><ele>799.5</ele><time>2026-04-18T08:39:32.999Z</time></trkpt><trkpt lat="44.32337147208644" lon="10.108082326058133"><ele>791.0</ele><time>2026-04-18T08:39:33.999Z</time></trkpt><trkpt lat="44.323209077327604" lon="10.108155598564496"><ele>791.0</ele><time>2026-04-18T08:39:34.999Z</time></trkpt><trkpt lat="44.32309550533176" lon="10.108213319642191"><ele>791.0</ele><time>2026-04-18T08:39:35.999Z</time></trkpt><trkpt lat="44.32301664132219" lon="10.108197972862733"><ele>791.0</ele><time>2026-04-18T08:39:36.999Z</time></trkpt><trkpt lat="44.32297054811173" lon="10.108108925279355"><ele>791.0</ele><time>2026-04-18T08:39:37.999Z</time></trkpt><trkpt lat="44.32302399877334" lon="10.107965191734777"><ele>791.0</ele><time>2026-04-18T08:39:38.999Z</time></trkpt><trkpt lat="44.323102942255815" lon="10.107896813818641"><ele>791.0</ele><time>2026-04-18T08:39:39.999Z</time></trkpt><trkpt lat="44.323201262029535" lon="10.107914977260519"><ele>791.0</ele><time>2026-04-18T08:39:40.999Z</time></trkpt><trkpt lat="44.32335869204554" lon="10.107934985584146"><ele>791.0</ele><time>2026-04-18T08:39:41.999Z</time></trkpt><trkpt lat="44.3235331688515" lon="10.107954182578444"><ele>791.0</ele><time>2026-04-18T08:39:42.999Z</time></trkpt><trkpt lat="44.32371517528142" lon="10.107972367593266"><ele>791.0</ele><time>2026-04-18T08:39:43.999Z</time></trkpt><trkpt lat="44.32391710551559" lon="10.107972715058764"><ele>791.0</ele><time>2026-04-18T08:39:44.999Z</time></trkpt><trkpt lat="44.32409001096114" lon="10.107966238193885"><ele>791.0</ele><time>2026-04-18T08:39:45.999Z</time></trkpt><trkpt lat="44.32425963460719" lon="10.10791116319704"><ele>791.0</ele><time>2026-04-18T08:39:46.999Z</time></trkpt><trkpt lat="44.324415505008176" lon="10.10782689915585"><ele>791.0</ele><time>2026-04-18T08:39:47.999Z</time></trkpt><trkpt lat="44.32456995017096" lon="10.107820758915805"><ele>791.0</ele><time>2026-04-18T08:39:48.999Z</time></trkpt><trkpt lat="44.32472706294417" lon="10.107872837978306"><ele>792.0</ele><time>2026-04-18T08:39:49.999Z</time></trkpt><trkpt lat="44.3249055844195" lon="10.107992540176769"><ele>793.0</ele><time>2026-04-18T08:39:50.999Z</time></trkpt><trkpt lat="44.325038516985714" lon="10.108164646324571"><ele>794.0</ele><time>2026-04-18T08:39:51.999Z</time></trkpt><trkpt lat="44.325153560046935" lon="10.10835178064878"><ele>794.2</ele><time>2026-04-18T08:39:52.999Z</time></trkpt><trkpt lat="44.32526546863892" lon="10.108518991338254"><ele>794.4000000000001</ele><time>2026-04-18T08:39:53.999Z</time></trkpt><trkpt lat="44.32534271722276" lon="10.10864365230358"><ele>794.6</ele><time>2026-04-18T08:39:54.999Z</time></trkpt><trkpt lat="44.32541341184352" lon="10.108702133302074"><ele>794.8</ele><time>2026-04-18T08:39:55.999Z</time></trkpt><trkpt lat="44.3254885704062" lon="10.108720397181605"><ele>795.0</ele><time>2026-04-18T08:39:56.999Z</time></trkpt><trkpt lat="44.32557402491713" lon="10.10859571540768"><ele>795.0</ele><time>2026-04-18T08:39:57.999Z</time></trkpt><trkpt lat="44.32559204788864" lon="10.108428260525347"><ele>795.0</ele><time>2026-04-18T08:39:58.999Z</time></trkpt><trkpt lat="44.325526229421705" lon="10.108268859416897"><ele>795.0</ele><time>2026-04-18T08:39:59.999Z</time></trkpt><trkpt lat="44.325398988564764" lon="10.10809953393698"><ele>795.0</ele><time>2026-04-18T08:40:00.999Z</time></trkpt><trkpt lat="44.32526180369135" lon="10.107907462343956"><ele>794.6666666666667</ele><time>2026-04-18T08:40:01.999Z</time></trkpt><trkpt lat="44.32514605234748" lon="10.107710270063164"><ele>794.3333333333334</ele><time>2026-04-18T08:40:02.999Z</time></trkpt><trkpt lat="44.32504228102714" lon="10.107531222994561"><ele>794.0</ele><time>2026-04-18T08:40:03.999Z</time></trkpt><trkpt lat="44.32493879596781" lon="10.107371498105486"><ele>784.3333333333334</ele><time>2026-04-18T08:40:04.999Z</time></trkpt><trkpt lat="44.32481141861121" lon="10.10726193820537"><ele>774.6666666666667</ele><time>2026-04-18T08:40:05.999Z</time></trkpt><trkpt lat="44.32463871196672" lon="10.107192477972063"><ele>765.0</ele><time>2026-04-18T08:40:06.999Z</time></trkpt><trkpt lat="44.324448823835645" lon="10.107185603732693"><ele>765.0</ele><time>2026-04-18T08:40:08Z</time></trkpt><trkpt lat="44.324233073297485" lon="10.10725878676451"><ele>765.0</ele><time>2026-04-18T08:40:09Z</time></trkpt><trkpt lat="44.32408325990396" lon="10.1073784643932"><ele>765.0</ele><time>2026-04-18T08:40:10Z</time></trkpt><trkpt lat="44.32392046373121" lon="10.10739870766392"><ele>762.6666666666666</ele><time>2026-04-18T08:40:11Z</time></trkpt><trkpt lat="44.323707217641854" lon="10.107364379138636"><ele>760.3333333333333</ele><time>2026-04-18T08:40:12Z</time></trkpt><trkpt lat="44.32354158057544" lon="10.107333244303014"><ele>758.0</ele><time>2026-04-18T08:40:13Z</time></trkpt><trkpt lat="44.32341426849349" lon="10.107221925692288"><ele>758.0</ele><time>2026-04-18T08:40:14Z</time></trkpt><trkpt lat="44.32323531393337" lon="10.107148790424262"><ele>758.0</ele><time>2026-04-18T08:40:15Z</time></trkpt><trkpt lat="44.32311429753177" lon="10.10706621394252"><ele>758.0</ele><time>2026-04-18T08:40:16Z</time></trkpt><trkpt lat="44.322989486970684" lon="10.107058819460562"><ele>758.0</ele><time>2026-04-18T08:40:17Z</time></trkpt><trkpt lat="44.32286560782976" lon="10.107136543959777"><ele>763.0</ele><time>2026-04-18T08:40:18Z</time></trkpt><trkpt lat="44.32275554364401" lon="10.107304298137798"><ele>768.0</ele><time>2026-04-18T08:40:19Z</time></trkpt><trkpt lat="44.322664951532126" lon="10.107415868003857"><ele>773.0</ele><time>2026-04-18T08:40:20Z</time></trkpt><trkpt lat="44.32260740085798" lon="10.107457995653048"><ele>778.0</ele><time>2026-04-18T08:40:21Z</time></trkpt><trkpt lat="44.322532928312455" lon="10.107429140363047"><ele>783.0</ele><time>2026-04-18T08:40:22Z</time></trkpt><trkpt lat="44.322473084444184" lon="10.10728023976794"><ele>783.0</ele><time>2026-04-18T08:40:23Z</time></trkpt><trkpt lat="44.322468995643135" lon="10.10706799590879"><ele>783.0</ele><time>2026-04-18T08:40:24Z</time></trkpt><trkpt lat="44.322466852836364" lon="10.10679441666773"><ele>783.0</ele><time>2026-04-18T08:40:25Z</time></trkpt><trkpt lat="44.32246191022073" lon="10.106541862203358"><ele>776.6666666666666</ele><time>2026-04-18T08:40:26Z</time></trkpt><trkpt lat="44.32245712697419" lon="10.106255853097707"><ele>770.3333333333333</ele><time>2026-04-18T08:40:27Z</time></trkpt><trkpt lat="44.322433894021216" lon="10.105962761959297"><ele>764.0</ele><time>2026-04-18T08:40:28Z</time></trkpt><trkpt lat="44.32236716766142" lon="10.105690565091274"><ele>766.3333333333333</ele><time>2026-04-18T08:40:29Z</time></trkpt><trkpt lat="44.322277141918875" lon="10.10541806425527"><ele>768.6666666666666</ele><time>2026-04-18T08:40:30Z</time></trkpt><trkpt lat="44.322227293331146" lon="10.10517914360269"><ele>771.0</ele><time>2026-04-18T08:40:31Z</time></trkpt><trkpt lat="44.32221911403629" lon="10.104999748895928"><ele>760.0</ele><time>2026-04-18T08:40:32Z</time></trkpt><trkpt lat="44.32215619986448" lon="10.10485336711893"><ele>749.0</ele><time>2026-04-18T08:40:33Z</time></trkpt><trkpt lat="44.32202986488385" lon="10.104626665463261"><ele>738.0</ele><time>2026-04-18T08:40:34Z</time></trkpt><trkpt lat="44.32192501544677" lon="10.104514449223206"><ele>738.0</ele><time>2026-04-18T08:40:35Z</time></trkpt><trkpt lat="44.321817929138845" lon="10.104456965080436"><ele>738.0</ele><time>2026-04-18T08:40:36Z</time></trkpt><trkpt lat="44.321651579102955" lon="10.104450292813008"><ele>738.0</ele><time>2026-04-18T08:40:37Z</time></trkpt><trkpt lat="44.321461214634304" lon="10.104453684121454"><ele>739.25</ele><time>2026-04-18T08:40:38Z</time></trkpt><trkpt lat="44.321304124764964" lon="10.104454967442685"><ele>740.5</ele><time>2026-04-18T08:40:39Z</time></trkpt><trkpt lat="44.3211936872123" lon="10.104477131172219"><ele>741.75</ele><time>2026-04-18T08:40:40Z</time></trkpt><trkpt lat="44.32111825311042" lon="10.104573922832238"><ele>743.0</ele><time>2026-04-18T08:40:41Z</time></trkpt><trkpt lat="44.32103941074985" lon="10.104645174536877"><ele>743.0</ele><time>2026-04-18T08:40:42Z</time></trkpt><trkpt lat="44.32094056546513" lon="10.104649773910886"><ele>743.0</ele><time>2026-04-18T08:40:43Z</time></trkpt><trkpt lat="44.3208089546326" lon="10.10453889795319"><ele>743.0</ele><time>2026-04-18T08:40:44Z</time></trkpt><trkpt lat="44.32064668953864" lon="10.104517490291482"><ele>743.0</ele><time>2026-04-18T08:40:45Z</time></trkpt><trkpt lat="44.32052222274879" lon="10.104505560849274"><ele>752.0</ele><time>2026-04-18T08:40:46Z</time></trkpt><trkpt lat="44.320447573271636" lon="10.104451289132706"><ele>761.0</ele><time>2026-04-18T08:40:47Z</time></trkpt><trkpt lat="44.32040919387873" lon="10.104315697630499"><ele>770.0</ele><time>2026-04-18T08:40:48Z</time></trkpt><trkpt lat="44.32042964261096" lon="10.104111034389135"><ele>779.0</ele><time>2026-04-18T08:40:49Z</time></trkpt><trkpt lat="44.320491755667234" lon="10.103893322635864"><ele>779.0</ele><time>2026-04-18T08:40:50Z</time></trkpt><trkpt lat="44.320544245818176" lon="10.103637411589123"><ele>779.0</ele><time>2026-04-18T08:40:51Z</time></trkpt><trkpt lat="44.32058264252759" lon="10.103409427184019"><ele>779.0</ele><time>2026-04-18T08:40:52Z</time></trkpt><trkpt lat="44.32058890233081" lon="10.103196750246456"><ele>772.0</ele><time>2026-04-18T08:40:53Z</time></trkpt><trkpt lat="44.320538435542616" lon="10.10295614010343"><ele>765.0</ele><time>2026-04-18T08:40:54Z</time></trkpt><trkpt lat="44.320441164767274" lon="10.102686856032939"><ele>758.0</ele><time>2026-04-18T08:40:55Z</time></trkpt><trkpt lat="44.32033122729519" lon="10.102433953374204"><ele>751.0</ele><time>2026-04-18T08:40:56Z</time></trkpt><trkpt lat="44.320153040212254" lon="10.102180621572048"><ele>744.0</ele><time>2026-04-18T08:40:57Z</time></trkpt><trkpt lat="44.32003212294087" lon="10.102076073277614"><ele>737.0</ele><time>2026-04-18T08:40:59Z</time></trkpt><trkpt lat="44.32004905906257" lon="10.101973505268473"><ele>737.0</ele><time>2026-04-18T08:41:00Z</time></trkpt><trkpt lat="44.32011892511647" lon="10.101913208847975"><ele>737.0</ele><time>2026-04-18T08:41:01Z</time></trkpt><trkpt lat="44.3202004806505" lon="10.10196249856199"><ele>737.0</ele><time>2026-04-18T08:41:02Z</time></trkpt><trkpt lat="44.32027866826533" lon="10.102035214893245"><ele>737.0</ele><time>2026-04-18T08:41:03Z</time></trkpt><trkpt lat="44.320311734875226" lon="10.102231015410323"><ele>737.0</ele><time>2026-04-18T08:41:04Z</time></trkpt><trkpt lat="44.32036896855385" lon="10.102447841380064"><ele>731.0</ele><time>2026-04-18T08:41:05Z</time></trkpt><trkpt lat="44.320467953753436" lon="10.102673201090827"><ele>725.0</ele><time>2026-04-18T08:41:06Z</time></trkpt><trkpt lat="44.320587810821664" lon="10.102886472639085"><ele>719.0</ele><time>2026-04-18T08:41:07Z</time></trkpt><trkpt lat="44.320712543935024" lon="10.103050159434519"><ele>719.0</ele><time>2026-04-18T08:41:08Z</time></trkpt><trkpt lat="44.320792569464004" lon="10.103186821387133"><ele>719.0</ele><time>2026-04-18T08:41:09Z</time></trkpt><trkpt lat="44.320830877459905" lon="10.103336055934657"><ele>719.0</ele><time>2026-04-18T08:41:10Z</time></trkpt><trkpt lat="44.32077624555631" lon="10.103483918022064"><ele>719.0</ele><time>2026-04-18T08:41:11Z</time></trkpt><trkpt lat="44.32075425219391" lon="10.10370305984134"><ele>722.25</ele><time>2026-04-18T08:41:12Z</time></trkpt><trkpt lat="44.320755953001786" lon="10.103873436503815"><ele>725.5</ele><time>2026-04-18T08:41:13Z</time></trkpt><trkpt lat="44.32083160173083" lon="10.103981673664217"><ele>728.75</ele><time>2026-04-18T08:41:14Z</time></trkpt><trkpt lat="44.320923666359036" lon="10.104064249589456"><ele>732.0</ele><time>2026-04-18T08:41:15Z</time></trkpt><trkpt lat="44.32104327484446" lon="10.104098016680979"><ele>732.0</ele><time>2026-04-18T08:41:16Z</time></trkpt><trkpt lat="44.3211774701115" lon="10.104042462477224"><ele>732.0</ele><time>2026-04-18T08:41:17Z</time></trkpt><trkpt lat="44.32131573686622" lon="10.10390895638848"><ele>732.0</ele><time>2026-04-18T08:41:17.999Z</time></trkpt><trkpt lat="44.32146581576264" lon="10.103778478424978"><ele>723.6666666666666</ele><time>2026-04-18T08:41:18.999Z</time></trkpt><trkpt lat="44.32165001523076" lon="10.103669107283167"><ele>715.3333333333333</ele><time>2026-04-18T08:41:19.999Z</time></trkpt><trkpt lat="44.32187656413863" lon="10.103571278881663"><ele>707.0</ele><time>2026-04-18T08:41:20.999Z</time></trkpt><trkpt lat="44.32204868399648" lon="10.10350282723407"><ele>707.0</ele><time>2026-04-18T08:41:21.999Z</time></trkpt><trkpt lat="44.32220363621572" lon="10.103454471777987"><ele>707.0</ele><time>2026-04-18T08:41:22.999Z</time></trkpt><trkpt lat="44.32235306903815" lon="10.103471119851894"><ele>707.0</ele><time>2026-04-18T08:41:23.999Z</time></trkpt><trkpt lat="44.322496942910284" lon="10.103535581328732"><ele>703.0</ele><time>2026-04-18T08:41:24.999Z</time></trkpt><trkpt lat="44.322632717605444" lon="10.103619704377108"><ele>699.0</ele><time>2026-04-18T08:41:25.999Z</time></trkpt><trkpt lat="44.32274777469127" lon="10.103774716163395"><ele>695.0</ele><time>2026-04-18T08:41:26.999Z</time></trkpt><trkpt lat="44.32289923009886" lon="10.10393833090628"><ele>693.6666666666666</ele><time>2026-04-18T08:41:27.999Z</time></trkpt><trkpt lat="44.3230653336306" lon="10.104064483233781"><ele>692.3333333333334</ele><time>2026-04-18T08:41:28.999Z</time></trkpt><trkpt lat="44.323228693156736" lon="10.104213323825281"><ele>691.0</ele><time>2026-04-18T08:41:29.999Z</time></trkpt><trkpt lat="44.323404102819296" lon="10.104356460471092"><ele>691.0</ele><time>2026-04-18T08:41:30.999Z</time></trkpt><trkpt lat="44.3235825862439" lon="10.104500145111214"><ele>691.0</ele><time>2026-04-18T08:41:31.999Z</time></trkpt><trkpt lat="44.32381055819079" lon="10.104678026918707"><ele>680.5</ele><time>2026-04-18T08:41:32.999Z</time></trkpt><trkpt lat="44.32405896026548" lon="10.104789588658292"><ele>670.0</ele><time>2026-04-18T08:41:33.999Z</time></trkpt><trkpt lat="44.32424633854749" lon="10.10489988700403"><ele>670.0</ele><time>2026-04-18T08:41:34.999Z</time></trkpt><trkpt lat="44.324189943693746" lon="10.104791648380875"><ele>670.0</ele><time>2026-04-18T08:41:35.999Z</time></trkpt><trkpt lat="44.324324115560586" lon="10.10486086106751"><ele>670.0</ele><time>2026-04-18T08:41:36.999Z</time></trkpt><trkpt lat="44.324481397165464" lon="10.10496632063056"><ele>670.0</ele><time>2026-04-18T08:41:37.999Z</time></trkpt><trkpt lat="44.32464634315346" lon="10.105041161127463"><ele>677.6666666666667</ele><time>2026-04-18T08:41:38.999Z</time></trkpt><trkpt lat="44.324825941174225" lon="10.10507203610999"><ele>685.3333333333334</ele><time>2026-04-18T08:41:39.999Z</time></trkpt><trkpt lat="44.32500742147265" lon="10.105085552761826"><ele>693.0</ele><time>2026-04-18T08:41:40.999Z</time></trkpt><trkpt lat="44.32516020618879" lon="10.105092187649422"><ele>693.0</ele><time>2026-04-18T08:41:41.999Z</time></trkpt><trkpt lat="44.325274579425525" lon="10.105052921192446"><ele>693.0</ele><time>2026-04-18T08:41:42.999Z</time></trkpt><trkpt lat="44.32537776409717" lon="10.104939805003916"><ele>693.0</ele><time>2026-04-18T08:41:43.999Z</time></trkpt><trkpt lat="44.32545968026946" lon="10.104754046475616"><ele>693.0</ele><time>2026-04-18T08:41:44.999Z</time></trkpt><trkpt lat="44.32550729547789" lon="10.104565719879242"><ele>691.4</ele><time>2026-04-18T08:41:45.999Z</time></trkpt><trkpt lat="44.325543376026786" lon="10.104413233025113"><ele>689.8</ele><time>2026-04-18T08:41:46.999Z</time></trkpt><trkpt lat="44.32558044327356" lon="10.104281035579406"><ele>688.2</ele><time>2026-04-18T08:41:47.999Z</time></trkpt><trkpt lat="44.32561249570629" lon="10.104171003099482"><ele>686.6</ele><time>2026-04-18T08:41:48.999Z</time></trkpt><trkpt lat="44.32564687239368" lon="10.104060336998437"><ele>685.0</ele><time>2026-04-18T08:41:49.999Z</time></trkpt><trkpt lat="44.32569005270294" lon="10.103944730071238"><ele>690.8</ele><time>2026-04-18T08:41:50.999Z</time></trkpt><trkpt lat="44.32571862066208" lon="10.103825657148898"><ele>696.6</ele><time>2026-04-18T08:41:51.999Z</time></trkpt><trkpt lat="44.325705844233646" lon="10.103699729534013"><ele>702.4000000000001</ele><time>2026-04-18T08:41:52.999Z</time></trkpt><trkpt lat="44.325664485300784" lon="10.103593029583132"><ele>708.2</ele><time>2026-04-18T08:41:53.999Z</time></trkpt><trkpt lat="44.3256022221927" lon="10.103452478093631"><ele>714.0</ele><time>2026-04-18T08:41:54.999Z</time></trkpt><trkpt lat="44.325361174001216" lon="10.103215484151374"><ele>714.0</ele><time>2026-04-18T08:41:55.999Z</time></trkpt><trkpt lat="44.325145468665745" lon="10.10306972624399"><ele>714.0</ele><time>2026-04-18T08:41:56.999Z</time></trkpt><trkpt lat="44.32493372625414" lon="10.102965197650041"><ele>714.0</ele><time>2026-04-18T08:41:57.999Z</time></trkpt><trkpt lat="44.324750503655025" lon="10.102867931287912"><ele>714.0</ele><time>2026-04-18T08:41:58.999Z</time></trkpt><trkpt lat="44.32458453656776" lon="10.102776714831432"><ele>714.0</ele><time>2026-04-18T08:41:59.999Z</time></trkpt><trkpt lat="44.32443741322304" lon="10.102646531378392"><ele>708.3333333333334</ele><time>2026-04-18T08:42:00.999Z</time></trkpt><trkpt lat="44.32430091943687" lon="10.102522772393566"><ele>702.6666666666667</ele><time>2026-04-18T08:42:01.999Z</time></trkpt><trkpt lat="44.324214006087935" lon="10.102323635005112"><ele>697.0</ele><time>2026-04-18T08:42:02.999Z</time></trkpt><trkpt lat="44.324129591809836" lon="10.102097360411426"><ele>697.0</ele><time>2026-04-18T08:42:03.999Z</time></trkpt><trkpt lat="44.324005088964334" lon="10.101897839239319"><ele>697.0</ele><time>2026-04-18T08:42:04.999Z</time></trkpt><trkpt lat="44.32388451961016" lon="10.101729178014837"><ele>697.0</ele><time>2026-04-18T08:42:05.999Z</time></trkpt><trkpt lat="44.32379813181796" lon="10.101535607375672"><ele>686.6666666666667</ele><time>2026-04-18T08:42:06.999Z</time></trkpt><trkpt lat="44.32369266956975" lon="10.101303492047322"><ele>676.3333333333334</ele><time>2026-04-18T08:42:07.999Z</time></trkpt><trkpt lat="44.32359405260164" lon="10.101041666984694"><ele>666.0</ele><time>2026-04-18T08:42:08.999Z</time></trkpt><trkpt lat="44.32347284799208" lon="10.100848153054582"><ele>669.3333333333334</ele><time>2026-04-18T08:42:09.999Z</time></trkpt><trkpt lat="44.32332945128705" lon="10.100697425007116"><ele>672.6666666666667</ele><time>2026-04-18T08:42:10.999Z</time></trkpt><trkpt lat="44.3231980998909" lon="10.10057951123245"><ele>676.0</ele><time>2026-04-18T08:42:11.999Z</time></trkpt><trkpt lat="44.32311004488919" lon="10.100443233459606"><ele>676.0</ele><time>2026-04-18T08:42:12.999Z</time></trkpt><trkpt lat="44.32308759976486" lon="10.100254345012576"><ele>676.0</ele><time>2026-04-18T08:42:14Z</time></trkpt><trkpt lat="44.32311619306572" lon="10.1000546748858"><ele>676.0</ele><time>2026-04-18T08:42:15Z</time></trkpt><trkpt lat="44.32314357190729" lon="10.099871510152303"><ele>676.0</ele><time>2026-04-18T08:42:16Z</time></trkpt><trkpt lat="44.32307805456043" lon="10.099682176745562"><ele>662.6666666666667</ele><time>2026-04-18T08:42:17Z</time></trkpt><trkpt lat="44.32294657309932" lon="10.099471861177792"><ele>649.3333333333334</ele><time>2026-04-18T08:42:18Z</time></trkpt><trkpt lat="44.32282163358431" lon="10.099283369454824"><ele>636.0</ele><time>2026-04-18T08:42:19Z</time></trkpt><trkpt lat="44.32276223179791" lon="10.099069626014405"><ele>635.6666666666666</ele><time>2026-04-18T08:42:20Z</time></trkpt><trkpt lat="44.322719998941345" lon="10.098832091577028"><ele>635.3333333333333</ele><time>2026-04-18T08:42:21Z</time></trkpt><trkpt lat="44.322672576230794" lon="10.098571272858026"><ele>635.0</ele><time>2026-04-18T08:42:22Z</time></trkpt><trkpt lat="44.322652502256894" lon="10.09834913649009"><ele>636.0</ele><time>2026-04-18T08:42:23Z</time></trkpt><trkpt lat="44.32266332830447" lon="10.098207761584227"><ele>637.0</ele><time>2026-04-18T08:42:24Z</time></trkpt><trkpt lat="44.32271793213164" lon="10.09809062007548"><ele>638.0</ele><time>2026-04-18T08:42:25Z</time></trkpt><trkpt lat="44.32281875713428" lon="10.097961733338947"><ele>639.0</ele><time>2026-04-18T08:42:26Z</time></trkpt><trkpt lat="44.32288248453483" lon="10.097810286225078"><ele>639.0</ele><time>2026-04-18T08:42:27Z</time></trkpt><trkpt lat="44.322870877385725" lon="10.09764881147559"><ele>639.0</ele><time>2026-04-18T08:42:28Z</time></trkpt><trkpt lat="44.322786726130204" lon="10.097486076374988"><ele>639.0</ele><time>2026-04-18T08:42:29Z</time></trkpt><trkpt lat="44.32271712840018" lon="10.097336131714998"><ele>639.0</ele><time>2026-04-18T08:42:30Z</time></trkpt><trkpt lat="44.32265046809716" lon="10.097158786949224"><ele>649.0</ele><time>2026-04-18T08:42:31Z</time></trkpt><trkpt lat="44.32256136835307" lon="10.096921743726666"><ele>659.0</ele><time>2026-04-18T08:42:32Z</time></trkpt><trkpt lat="44.32225888549462" lon="10.096811273724956"><ele>655.3333333333333</ele><time>2026-04-18T08:42:33Z</time></trkpt><trkpt lat="44.32212012650458" lon="10.096554548033723"><ele>651.6666666666666</ele><time>2026-04-18T08:42:34Z</time></trkpt><trkpt lat="44.32198938799412" lon="10.096335085276325"><ele>648.0</ele><time>2026-04-18T08:42:35Z</time></trkpt><trkpt lat="44.321831226013735" lon="10.096155496383906"><ele>648.0</ele><time>2026-04-18T08:42:36Z</time></trkpt><trkpt lat="44.321627895898736" lon="10.096002636509267"><ele>648.0</ele><time>2026-04-18T08:42:37Z</time></trkpt><trkpt lat="44.32142457828292" lon="10.095880659657787"><ele>642.0</ele><time>2026-04-18T08:42:38Z</time></trkpt><trkpt lat="44.32126529816532" lon="10.095781107766962"><ele>636.0</ele><time>2026-04-18T08:42:39Z</time></trkpt><trkpt lat="44.321172447830875" lon="10.095662235360079"><ele>630.0</ele><time>2026-04-18T08:42:40Z</time></trkpt><trkpt lat="44.32111266418973" lon="10.095498482621023"><ele>624.0</ele><time>2026-04-18T08:42:41Z</time></trkpt><trkpt lat="44.321114452462176" lon="10.095280781434587"><ele>624.0</ele><time>2026-04-18T08:42:42Z</time></trkpt><trkpt lat="44.32112788670316" lon="10.095129310212178"><ele>624.0</ele><time>2026-04-18T08:42:43Z</time></trkpt><trkpt lat="44.32105452711713" lon="10.095027392400437"><ele>624.0</ele><time>2026-04-18T08:42:44Z</time></trkpt><trkpt lat="44.32092929435918" lon="10.094940663752984"><ele>624.0</ele><time>2026-04-18T08:42:45Z</time></trkpt><trkpt lat="44.320809067313874" lon="10.094903827873052"><ele>624.0</ele><time>2026-04-18T08:42:46Z</time></trkpt><trkpt lat="44.320659899752535" lon="10.09495446814136"><ele>624.0</ele><time>2026-04-18T08:42:47Z</time></trkpt><trkpt lat="44.32050956629362" lon="10.09497951495864"><ele>624.0</ele><time>2026-04-18T08:42:48Z</time></trkpt><trkpt lat="44.32037572871201" lon="10.094936183358946"><ele>624.0</ele><time>2026-04-18T08:42:49Z</time></trkpt><trkpt lat="44.32025657844565" lon="10.094824071791233"><ele>617.0</ele><time>2026-04-18T08:42:50Z</time></trkpt><trkpt lat="44.32013463877983" lon="10.094656834489959"><ele>610.0</ele><time>2026-04-18T08:42:51Z</time></trkpt><trkpt lat="44.320028830998254" lon="10.094464385346868"><ele>603.0</ele><time>2026-04-18T08:42:52Z</time></trkpt><trkpt lat="44.31998763503115" lon="10.094283810611364"><ele>606.6666666666666</ele><time>2026-04-18T08:42:53Z</time></trkpt><trkpt lat="44.31998331133854" lon="10.094063235877798"><ele>610.3333333333333</ele><time>2026-04-18T08:42:54Z</time></trkpt><trkpt lat="44.319976914493715" lon="10.09379871107334"><ele>614.0</ele><time>2026-04-18T08:42:55Z</time></trkpt><trkpt lat="44.31995613056238" lon="10.093522063149095"><ele>614.3333333333333</ele><time>2026-04-18T08:42:56Z</time></trkpt><trkpt lat="44.319938544572196" lon="10.093247227110407"><ele>614.6666666666666</ele><time>2026-04-18T08:42:57Z</time></trkpt><trkpt lat="44.31990435684765" lon="10.092976561959473"><ele>615.0</ele><time>2026-04-18T08:42:58Z</time></trkpt><trkpt lat="44.3198325470312" lon="10.092718883184576"><ele>615.0</ele><time>2026-04-18T08:42:59Z</time></trkpt><trkpt lat="44.31977332629228" lon="10.092488659421946"><ele>615.0</ele><time>2026-04-18T08:43:00Z</time></trkpt><trkpt lat="44.319771776353655" lon="10.092288535551079"><ele>615.0</ele><time>2026-04-18T08:43:01Z</time></trkpt><trkpt lat="44.31983115340282" lon="10.09212664906983"><ele>615.0</ele><time>2026-04-18T08:43:02Z</time></trkpt><trkpt lat="44.31995193390743" lon="10.091961239249539"><ele>615.5</ele><time>2026-04-18T08:43:03Z</time></trkpt><trkpt lat="44.32005001919439" lon="10.091822175737548"><ele>616.0</ele><time>2026-04-18T08:43:04Z</time></trkpt><trkpt lat="44.320080417732164" lon="10.091715968207428"><ele>616.5</ele><time>2026-04-18T08:43:05Z</time></trkpt><trkpt lat="44.32002944313525" lon="10.09157577893815"><ele>617.0</ele><time>2026-04-18T08:43:06Z</time></trkpt><trkpt lat="44.319917375723485" lon="10.091473212400055"><ele>622.6666666666666</ele><time>2026-04-18T08:43:07Z</time></trkpt><trkpt lat="44.31976859374932" lon="10.09146112350354"><ele>628.3333333333334</ele><time>2026-04-18T08:43:08Z</time></trkpt><trkpt lat="44.31960182908587" lon="10.091537097916795"><ele>634.0</ele><time>2026-04-18T08:43:09Z</time></trkpt><trkpt lat="44.31941357685869" lon="10.091640050358437"><ele>634.0</ele><time>2026-04-18T08:43:10Z</time></trkpt><trkpt lat="44.31925947531857" lon="10.09166497963097"><ele>634.0</ele><time>2026-04-18T08:43:11Z</time></trkpt><trkpt lat="44.319122647123635" lon="10.091595457811302"><ele>634.0</ele><time>2026-04-18T08:43:12Z</time></trkpt><trkpt lat="44.3189800641999" lon="10.091463549509404"><ele>627.0</ele><time>2026-04-18T08:43:13Z</time></trkpt><trkpt lat="44.31885386154971" lon="10.091343168720877"><ele>620.0</ele><time>2026-04-18T08:43:14Z</time></trkpt><trkpt lat="44.31870836717585" lon="10.09134437747884"><ele>613.0</ele><time>2026-04-18T08:43:15Z</time></trkpt><trkpt lat="44.318538028996855" lon="10.091403366953363"><ele>613.0</ele><time>2026-04-18T08:43:16Z</time></trkpt><trkpt lat="44.318377639995916" lon="10.091381981330692"><ele>613.0</ele><time>2026-04-18T08:43:17Z</time></trkpt><trkpt lat="44.31820081404086" lon="10.091294570484282"><ele>613.0</ele><time>2026-04-18T08:43:18Z</time></trkpt><trkpt lat="44.318039566171436" lon="10.091210954016653"><ele>618.3333333333334</ele><time>2026-04-18T08:43:19Z</time></trkpt><trkpt lat="44.31791256374698" lon="10.09110602562484"><ele>623.6666666666666</ele><time>2026-04-18T08:43:20Z</time></trkpt><trkpt lat="44.317784494632754" lon="10.090913991148224"><ele>629.0</ele><time>2026-04-18T08:43:21Z</time></trkpt><trkpt lat="44.317651340664696" lon="10.090708459719295"><ele>629.0</ele><time>2026-04-18T08:43:22Z</time></trkpt><trkpt lat="44.31751574491345" lon="10.090523299313992"><ele>629.0</ele><time>2026-04-18T08:43:22.999Z</time></trkpt><trkpt lat="44.31738598440448" lon="10.090383687778525"><ele>629.0</ele><time>2026-04-18T08:43:23.999Z</time></trkpt><trkpt lat="44.31723895406526" lon="10.090315127782974"><ele>620.6666666666666</ele><time>2026-04-18T08:43:24.999Z</time></trkpt><trkpt lat="44.31706186815535" lon="10.090316624359733"><ele>612.3333333333334</ele><time>2026-04-18T08:43:25.999Z</time></trkpt><trkpt lat="44.3168541341689" lon="10.090356459225983"><ele>604.0</ele><time>2026-04-18T08:43:26.999Z</time></trkpt><trkpt lat="44.31664265121569" lon="10.090353087452613"><ele>604.0</ele><time>2026-04-18T08:43:27.999Z</time></trkpt><trkpt lat="44.3164457690257" lon="10.09034190161245"><ele>604.0</ele><time>2026-04-18T08:43:28.999Z</time></trkpt><trkpt lat="44.31626947878787" lon="10.090339290199577"><ele>604.0</ele><time>2026-04-18T08:43:29.999Z</time></trkpt><trkpt lat="44.31611326395054" lon="10.09028064949811"><ele>607.3333333333334</ele><time>2026-04-18T08:43:30.999Z</time></trkpt><trkpt lat="44.31593759678391" lon="10.090156177119502"><ele>610.6666666666666</ele><time>2026-04-18T08:43:31.999Z</time></trkpt><trkpt lat="44.31574409174837" lon="10.089990324660755"><ele>614.0</ele><time>2026-04-18T08:43:32.999Z</time></trkpt><trkpt lat="44.31557749481619" lon="10.089890551615008"><ele>606.0</ele><time>2026-04-18T08:43:33.999Z</time></trkpt><trkpt lat="44.31543970075223" lon="10.089837617074949"><ele>598.0</ele><time>2026-04-18T08:43:34.999Z</time></trkpt><trkpt lat="44.31527574663912" lon="10.089860695686943"><ele>590.0</ele><time>2026-04-18T08:43:35.999Z</time></trkpt><trkpt lat="44.31511616110058" lon="10.089874983650637"><ele>590.0</ele><time>2026-04-18T08:43:36.999Z</time></trkpt><trkpt lat="44.31496244715323" lon="10.089792937356691"><ele>590.0</ele><time>2026-04-18T08:43:37.999Z</time></trkpt><trkpt lat="44.31482267923716" lon="10.089618569989542"><ele>590.0</ele><time>2026-04-18T08:43:38.999Z</time></trkpt><trkpt lat="44.31468421172621" lon="10.089454941624776"><ele>580.6666666666666</ele><time>2026-04-18T08:43:39.999Z</time></trkpt><trkpt lat="44.31452346445389" lon="10.089348669358614"><ele>571.3333333333334</ele><time>2026-04-18T08:43:40.999Z</time></trkpt><trkpt lat="44.314338169984964" lon="10.08926177236115"><ele>562.0</ele><time>2026-04-18T08:43:41.999Z</time></trkpt><trkpt lat="44.314147524767634" lon="10.089215705334473"><ele>562.0</ele><time>2026-04-18T08:43:42.999Z</time></trkpt><trkpt lat="44.31396027178851" lon="10.089192701660572"><ele>562.0</ele><time>2026-04-18T08:43:43.999Z</time></trkpt><trkpt lat="44.31379186383154" lon="10.089180832758576"><ele>562.0</ele><time>2026-04-18T08:43:44.999Z</time></trkpt><trkpt lat="44.31365272673487" lon="10.0891513607105"><ele>555.0</ele><time>2026-04-18T08:43:45.999Z</time></trkpt><trkpt lat="44.31353351920612" lon="10.089055456822827"><ele>548.0</ele><time>2026-04-18T08:43:46.999Z</time></trkpt><trkpt lat="44.313451713095624" lon="10.088915853743648"><ele>541.0</ele><time>2026-04-18T08:43:47.999Z</time></trkpt><trkpt lat="44.31344974615833" lon="10.088753382690996"><ele>534.0</ele><time>2026-04-18T08:43:48.999Z</time></trkpt><trkpt lat="44.31350368396726" lon="10.088546716536317"><ele>534.0</ele><time>2026-04-18T08:43:49.999Z</time></trkpt><trkpt lat="44.31359669406708" lon="10.088307882110222"><ele>534.0</ele><time>2026-04-18T08:43:50.999Z</time></trkpt><trkpt lat="44.31367619606332" lon="10.088098706197059"><ele>534.0</ele><time>2026-04-18T08:43:51.999Z</time></trkpt><trkpt lat="44.31370790301519" lon="10.087895430313376"><ele>535.3333333333334</ele><time>2026-04-18T08:43:52.999Z</time></trkpt><trkpt lat="44.313688106100706" lon="10.087657158142022"><ele>536.6666666666667</ele><time>2026-04-18T08:43:53.999Z</time></trkpt><trkpt lat="44.3136694793953" lon="10.087389487337864"><ele>538.0</ele><time>2026-04-18T08:43:54.999Z</time></trkpt><trkpt lat="44.31365802264901" lon="10.087162038431496"><ele>542.0</ele><time>2026-04-18T08:43:55.999Z</time></trkpt><trkpt lat="44.313638377573874" lon="10.086999876863404"><ele>546.0</ele><time>2026-04-18T08:43:56.999Z</time></trkpt><trkpt lat="44.313574284235294" lon="10.086881949120903"><ele>550.0</ele><time>2026-04-18T08:43:57.999Z</time></trkpt><trkpt lat="44.313431902663325" lon="10.086797775743795"><ele>554.0</ele><time>2026-04-18T08:43:58.999Z</time></trkpt><trkpt lat="44.313265542979664" lon="10.086752786572468"><ele>554.0</ele><time>2026-04-18T08:43:59.999Z</time></trkpt><trkpt lat="44.31307936442663" lon="10.086809405184136"><ele>554.0</ele><time>2026-04-18T08:44:00.999Z</time></trkpt><trkpt lat="44.31286264092407" lon="10.086896965477388"><ele>554.0</ele><time>2026-04-18T08:44:01.999Z</time></trkpt><trkpt lat="44.31267108073724" lon="10.086974273912013"><ele>553.3333333333333</ele><time>2026-04-18T08:44:02.999Z</time></trkpt><trkpt lat="44.312493741087444" lon="10.087107402777978"><ele>552.6666666666666</ele><time>2026-04-18T08:44:03.999Z</time></trkpt><trkpt lat="44.312325527203" lon="10.087284024601997"><ele>552.0</ele><time>2026-04-18T08:44:04.999Z</time></trkpt><trkpt lat="44.31214223632605" lon="10.08742508062969"><ele>543.3333333333334</ele><time>2026-04-18T08:44:05.999Z</time></trkpt><trkpt lat="44.31196609498963" lon="10.08751715605249"><ele>534.6666666666667</ele><time>2026-04-18T08:44:06.999Z</time></trkpt><trkpt lat="44.311809024723296" lon="10.087553945079415"><ele>526.0</ele><time>2026-04-18T08:44:07.999Z</time></trkpt><trkpt lat="44.311656684912876" lon="10.08751434841763"><ele>525.0</ele><time>2026-04-18T08:44:08.999Z</time></trkpt><trkpt lat="44.31146305720038" lon="10.087391363081123"><ele>524.0</ele><time>2026-04-18T08:44:09.999Z</time></trkpt><trkpt lat="44.31126855682312" lon="10.087255051587558"><ele>523.0</ele><time>2026-04-18T08:44:10.999Z</time></trkpt><trkpt lat="44.3110711294635" lon="10.087142571241221"><ele>523.0</ele><time>2026-04-18T08:44:11.999Z</time></trkpt><trkpt lat="44.310915018373365" lon="10.087031093701539"><ele>523.0</ele><time>2026-04-18T08:44:12.999Z</time></trkpt><trkpt lat="44.31078744950548" lon="10.086896326373184"><ele>523.0</ele><time>2026-04-18T08:44:13.999Z</time></trkpt><trkpt lat="44.31068144754099" lon="10.086760818011646"><ele>516.3333333333334</ele><time>2026-04-18T08:44:14.999Z</time></trkpt><trkpt lat="44.31051791181673" lon="10.086566685785746"><ele>509.66666666666663</ele><time>2026-04-18T08:44:15.999Z</time></trkpt><trkpt lat="44.31038369536078" lon="10.08633268042444"><ele>503.0</ele><time>2026-04-18T08:44:16.999Z</time></trkpt><trkpt lat="44.3102785879944" lon="10.08604466758606"><ele>503.0</ele><time>2026-04-18T08:44:17.999Z</time></trkpt><trkpt lat="44.31026179196922" lon="10.085805312215225"><ele>503.0</ele><time>2026-04-18T08:44:18.999Z</time></trkpt><trkpt lat="44.310218778753615" lon="10.08552682500533"><ele>503.0</ele><time>2026-04-18T08:44:20Z</time></trkpt><trkpt lat="44.31025663379385" lon="10.085387221216466"><ele>503.5</ele><time>2026-04-18T08:44:21Z</time></trkpt><trkpt lat="44.31037880959386" lon="10.085383023746173"><ele>504.0</ele><time>2026-04-18T08:44:22Z</time></trkpt><trkpt lat="44.31032799957514" lon="10.085298334975029"><ele>504.5</ele><time>2026-04-18T08:44:23Z</time></trkpt><trkpt lat="44.310211490378585" lon="10.085321397785869"><ele>505.0</ele><time>2026-04-18T08:44:24Z</time></trkpt><trkpt lat="44.31010800490891" lon="10.085441608318197"><ele>505.0</ele><time>2026-04-18T08:44:25Z</time></trkpt><trkpt lat="44.31005728438004" lon="10.08563894183079"><ele>505.0</ele><time>2026-04-18T08:44:26Z</time></trkpt><trkpt lat="44.31003730801459" lon="10.085897236273121"><ele>505.0</ele><time>2026-04-18T08:44:27Z</time></trkpt><trkpt lat="44.31004915399517" lon="10.086198366656062"><ele>504.33333333333337</ele><time>2026-04-18T08:44:28Z</time></trkpt><trkpt lat="44.31009325258501" lon="10.08647814109318"><ele>503.66666666666663</ele><time>2026-04-18T08:44:29Z</time></trkpt><trkpt lat="44.31018110985677" lon="10.086772802665713"><ele>503.0</ele><time>2026-04-18T08:44:30Z</time></trkpt><trkpt lat="44.310306198450796" lon="10.087096995138571"><ele>502.59999999999997</ele><time>2026-04-18T08:44:31Z</time></trkpt><trkpt lat="44.31035631956383" lon="10.087043283932715"><ele>502.19999999999993</ele><time>2026-04-18T08:44:32Z</time></trkpt><trkpt lat="44.310394300663056" lon="10.087146611071065"><ele>501.8</ele><time>2026-04-18T08:44:33Z</time></trkpt><trkpt lat="44.3103704207102" lon="10.087249535245228"><ele>501.4</ele><time>2026-04-18T08:44:34Z</time></trkpt><trkpt lat="44.31028269342687" lon="10.087323565028312"><ele>501.0</ele><time>2026-04-18T08:44:35Z</time></trkpt><trkpt lat="44.31013969622663" lon="10.087326552974845"><ele>501.0</ele><time>2026-04-18T08:44:36Z</time></trkpt><trkpt lat="44.310038512352264" lon="10.087240932276696"><ele>501.0</ele><time>2026-04-18T08:44:37Z</time></trkpt><trkpt lat="44.30998444720688" lon="10.087114482898643"><ele>501.0</ele><time>2026-04-18T08:44:38Z</time></trkpt><trkpt lat="44.30999019038179" lon="10.086963579303351"><ele>501.0</ele><time>2026-04-18T08:44:39Z</time></trkpt><trkpt lat="44.31002223013972" lon="10.08676063160499"><ele>501.66666666666663</ele><time>2026-04-18T08:44:40Z</time></trkpt><trkpt lat="44.31000434761288" lon="10.086518416717002"><ele>502.3333333333333</ele><time>2026-04-18T08:44:41Z</time></trkpt><trkpt lat="44.309927152070024" lon="10.08627982942701"><ele>503.0</ele><time>2026-04-18T08:44:42Z</time></trkpt><trkpt lat="44.30979552723577" lon="10.08603594081067"><ele>497.0</ele><time>2026-04-18T08:44:43Z</time></trkpt><trkpt lat="44.30962205817759" lon="10.085796204125087"><ele>491.0</ele><time>2026-04-18T08:44:44Z</time></trkpt><trkpt lat="44.30945527974624" lon="10.085568447865622"><ele>491.0</ele><time>2026-04-18T08:44:45Z</time></trkpt><trkpt lat="44.309303232760655" lon="10.085370296929955"><ele>491.0</ele><time>2026-04-18T08:44:46Z</time></trkpt><trkpt lat="44.309137752605295" lon="10.085188481552144"><ele>491.0</ele><time>2026-04-18T08:44:47Z</time></trkpt><trkpt lat="44.30896357836863" lon="10.08502515732088"><ele>486.0</ele><time>2026-04-18T08:44:48Z</time></trkpt><trkpt lat="44.30881446532574" lon="10.08487810599511"><ele>481.0</ele><time>2026-04-18T08:44:49Z</time></trkpt><trkpt lat="44.3087129907265" lon="10.084713074770788"><ele>476.0</ele><time>2026-04-18T08:44:50Z</time></trkpt><trkpt lat="44.30865360058044" lon="10.084492915038467"><ele>476.0</ele><time>2026-04-18T08:44:51Z</time></trkpt><trkpt lat="44.3086041879682" lon="10.084206223292027"><ele>476.0</ele><time>2026-04-18T08:44:52Z</time></trkpt><trkpt lat="44.308537370809425" lon="10.083902676461792"><ele>476.0</ele><time>2026-04-18T08:44:53Z</time></trkpt><trkpt lat="44.30845858152931" lon="10.083594652311243"><ele>477.5</ele><time>2026-04-18T08:44:54Z</time></trkpt><trkpt lat="44.30837126248523" lon="10.083262615745186"><ele>479.0</ele><time>2026-04-18T08:44:55Z</time></trkpt><trkpt lat="44.30828568857843" lon="10.082928290651317"><ele>479.0</ele><time>2026-04-18T08:44:56Z</time></trkpt><trkpt lat="44.30819699612393" lon="10.082596783506167"><ele>479.0</ele><time>2026-04-18T08:44:57Z</time></trkpt><trkpt lat="44.308104950516395" lon="10.082275196621833"><ele>470.5</ele><time>2026-04-18T08:44:58Z</time></trkpt><trkpt lat="44.308019160038754" lon="10.081964065264048"><ele>462.0</ele><time>2026-04-18T08:44:59Z</time></trkpt><trkpt lat="44.307939372581686" lon="10.081668320485324"><ele>462.33333333333337</ele><time>2026-04-18T08:45:00Z</time></trkpt><trkpt lat="44.3078679017652" lon="10.081389605370234"><ele>462.6666666666667</ele><time>2026-04-18T08:45:01Z</time></trkpt><trkpt lat="44.307812544453895" lon="10.081165831667514"><ele>463.0</ele><time>2026-04-18T08:45:02Z</time></trkpt><trkpt lat="44.30775979000507" lon="10.080987746892639"><ele>463.0</ele><time>2026-04-18T08:45:03Z</time></trkpt><trkpt lat="44.307687570164376" lon="10.080875539400472"><ele>463.0</ele><time>2026-04-18T08:45:04Z</time></trkpt><trkpt lat="44.30757746628154" lon="10.080812659179395"><ele>463.0</ele><time>2026-04-18T08:45:05Z</time></trkpt><trkpt lat="44.30741374164017" lon="10.080800960968036"><ele>463.0</ele><time>2026-04-18T08:45:06Z</time></trkpt><trkpt lat="44.30723723687053" lon="10.080870970654717"><ele>457.6666666666667</ele><time>2026-04-18T08:45:07Z</time></trkpt><trkpt lat="44.30709218925906" lon="10.080980607323887"><ele>452.33333333333337</ele><time>2026-04-18T08:45:08Z</time></trkpt><trkpt lat="44.30698531098404" lon="10.081134354289166"><ele>447.0</ele><time>2026-04-18T08:45:09Z</time></trkpt><trkpt lat="44.30693857595216" lon="10.08136173506319"><ele>444.0</ele><time>2026-04-18T08:45:10Z</time></trkpt><trkpt lat="44.306943900127976" lon="10.081624231685135"><ele>441.0</ele><time>2026-04-18T08:45:11Z</time></trkpt><trkpt lat="44.30698590492501" lon="10.081864594866195"><ele>438.0</ele><time>2026-04-18T08:45:12Z</time></trkpt><trkpt lat="44.30705869396395" lon="10.082055730066408"><ele>438.0</ele><time>2026-04-18T08:45:13Z</time></trkpt><trkpt lat="44.30715377379428" lon="10.082205099682252"><ele>437.99999999999994</ele><time>2026-04-18T08:45:14Z</time></trkpt><trkpt lat="44.307249594589955" lon="10.082303745628622"><ele>437.99999999999994</ele><time>2026-04-18T08:45:15Z</time></trkpt><trkpt lat="44.30729306367163" lon="10.08237694318173"><ele>438.0</ele><time>2026-04-18T08:45:16Z</time></trkpt><trkpt lat="44.30726320416226" lon="10.082454842584283"><ele>438.0</ele><time>2026-04-18T08:45:17Z</time></trkpt><trkpt lat="44.307139373796616" lon="10.082450327186425"><ele>438.0</ele><time>2026-04-18T08:45:18Z</time></trkpt><trkpt lat="44.307047853176215" lon="10.082325932103805"><ele>438.0</ele><time>2026-04-18T08:45:19Z</time></trkpt><trkpt lat="44.30699185495486" lon="10.082107572925208"><ele>438.0</ele><time>2026-04-18T08:45:20Z</time></trkpt><trkpt lat="44.30692458909755" lon="10.081854844369223"><ele>438.0</ele><time>2026-04-18T08:45:21Z</time></trkpt><trkpt lat="44.306825749072075" lon="10.081600141458761"><ele>438.0</ele><time>2026-04-18T08:45:22Z</time></trkpt><trkpt lat="44.30672209300674" lon="10.08134390128748"><ele>438.0</ele><time>2026-04-18T08:45:23Z</time></trkpt><trkpt lat="44.30662810735642" lon="10.081102210088098"><ele>434.0</ele><time>2026-04-18T08:45:24Z</time></trkpt><trkpt lat="44.30650748694463" lon="10.080866902757757"><ele>430.0</ele><time>2026-04-18T08:45:25Z</time></trkpt><trkpt lat="44.30633226113548" lon="10.080630932034644"><ele>430.0</ele><time>2026-04-18T08:45:26Z</time></trkpt><trkpt lat="44.306168403517006" lon="10.080417922691101"><ele>430.0</ele><time>2026-04-18T08:45:27Z</time></trkpt><trkpt lat="44.30603762975492" lon="10.080214100999017"><ele>430.0</ele><time>2026-04-18T08:45:28Z</time></trkpt><trkpt lat="44.30595901090542" lon="10.080027893150026"><ele>428.0</ele><time>2026-04-18T08:45:29Z</time></trkpt><trkpt lat="44.30591160462498" lon="10.079834417836985"><ele>426.0</ele><time>2026-04-18T08:45:30Z</time></trkpt><trkpt lat="44.30588349046933" lon="10.07968040405533"><ele>424.0</ele><time>2026-04-18T08:45:31Z</time></trkpt><trkpt lat="44.30582920072591" lon="10.079580581565057"><ele>422.0</ele><time>2026-04-18T08:45:31.999Z</time></trkpt><trkpt lat="44.30572448693448" lon="10.079569854589865"><ele>422.0</ele><time>2026-04-18T08:45:32.999Z</time></trkpt><trkpt lat="44.30561802849591" lon="10.07962955331137"><ele>422.0</ele><time>2026-04-18T08:45:33.999Z</time></trkpt><trkpt lat="44.30555817201225" lon="10.079790783723201"><ele>422.0</ele><time>2026-04-18T08:45:34.999Z</time></trkpt><trkpt lat="44.305568500827945" lon="10.079960996528177"><ele>422.0</ele><time>2026-04-18T08:45:35.999Z</time></trkpt><trkpt lat="44.30566634354326" lon="10.080100769387718"><ele>424.0</ele><time>2026-04-18T08:45:36.999Z</time></trkpt><trkpt lat="44.30580101330032" lon="10.080234607141774"><ele>426.0</ele><time>2026-04-18T08:45:37.999Z</time></trkpt><trkpt lat="44.30592646195355" lon="10.080369667599033"><ele>428.0</ele><time>2026-04-18T08:45:38.999Z</time></trkpt><trkpt lat="44.30602398801782" lon="10.080408452156174"><ele>430.0</ele><time>2026-04-18T08:45:39.999Z</time></trkpt><trkpt lat="44.30608440966126" lon="10.080517291382954"><ele>430.0</ele><time>2026-04-18T08:45:40.999Z</time></trkpt><trkpt lat="44.30612845390373" lon="10.080677139047086"><ele>430.0</ele><time>2026-04-18T08:45:41.999Z</time></trkpt><trkpt lat="44.306068903570555" lon="10.080792433286698"><ele>430.0</ele><time>2026-04-18T08:45:42.999Z</time></trkpt><trkpt lat="44.30596317995113" lon="10.080846253494311"><ele>430.0</ele><time>2026-04-18T08:45:43.999Z</time></trkpt><trkpt lat="44.30584910066854" lon="10.080796658150447"><ele>430.0</ele><time>2026-04-18T08:45:44.999Z</time></trkpt><trkpt lat="44.30575760457624" lon="10.080639442425872"><ele>430.0</ele><time>2026-04-18T08:45:45.999Z</time></trkpt><trkpt lat="44.30565999984846" lon="10.080427013152926"><ele>430.0</ele><time>2026-04-18T08:45:46.999Z</time></trkpt><trkpt lat="44.305538580165404" lon="10.08022121318262"><ele>425.6666666666667</ele><time>2026-04-18T08:45:47.999Z</time></trkpt><trkpt lat="44.30540405633476" lon="10.080022393392849"><ele>421.33333333333337</ele><time>2026-04-18T08:45:48.999Z</time></trkpt><trkpt lat="44.30530660717193" lon="10.079860898742972"><ele>417.0</ele><time>2026-04-18T08:45:49.999Z</time></trkpt><trkpt lat="44.305246871389905" lon="10.079716674443851"><ele>416.0</ele><time>2026-04-18T08:45:50.999Z</time></trkpt><trkpt lat="44.30523712286823" lon="10.079553583135331"><ele>415.0</ele><time>2026-04-18T08:45:51.999Z</time></trkpt><trkpt lat="44.30529258497659" lon="10.079374671576065"><ele>414.0</ele><time>2026-04-18T08:45:52.999Z</time></trkpt><trkpt lat="44.30539401021814" lon="10.079232924124863"><ele>413.0</ele><time>2026-04-18T08:45:53.999Z</time></trkpt><trkpt lat="44.30551669265885" lon="10.079193589199937"><ele>411.0</ele><time>2026-04-18T08:45:54.999Z</time></trkpt><trkpt lat="44.305669199105544" lon="10.079227348337621"><ele>409.0</ele><time>2026-04-18T08:45:55.999Z</time></trkpt><trkpt lat="44.30581607588135" lon="10.079264425091031"><ele>407.0</ele><time>2026-04-18T08:45:56.999Z</time></trkpt><trkpt lat="44.3059496188484" lon="10.07922856458679"><ele>405.0</ele><time>2026-04-18T08:45:57.999Z</time></trkpt><trkpt lat="44.306068508599445" lon="10.079069309953715"><ele>405.0</ele><time>2026-04-18T08:45:58.999Z</time></trkpt><trkpt lat="44.30616832602461" lon="10.078851194400904"><ele>405.0</ele><time>2026-04-18T08:45:59.999Z</time></trkpt><trkpt lat="44.30624270740418" lon="10.078596133481971"><ele>405.0</ele><time>2026-04-18T08:46:00.999Z</time></trkpt><trkpt lat="44.30630046286655" lon="10.078335040947577"><ele>408.33333333333337</ele><time>2026-04-18T08:46:01.999Z</time></trkpt><trkpt lat="44.306329138898285" lon="10.078092471606293"><ele>411.6666666666667</ele><time>2026-04-18T08:46:02.999Z</time></trkpt><trkpt lat="44.30630091682959" lon="10.077875099110157"><ele>415.0</ele><time>2026-04-18T08:46:03.999Z</time></trkpt><trkpt lat="44.30623961637161" lon="10.077686085102432"><ele>415.0</ele><time>2026-04-18T08:46:04.999Z</time></trkpt><trkpt lat="44.306207483063005" lon="10.07756287078152"><ele>415.0</ele><time>2026-04-18T08:46:05.999Z</time></trkpt><trkpt lat="44.306127807637935" lon="10.077496314758402"><ele>415.0</ele><time>2026-04-18T08:46:06.999Z</time></trkpt><trkpt lat="44.30600175833075" lon="10.077506140470101"><ele>415.0</ele><time>2026-04-18T08:46:07.999Z</time></trkpt><trkpt lat="44.30585429524426" lon="10.07761105147164"><ele>415.0</ele><time>2026-04-18T08:46:08.999Z</time></trkpt><trkpt lat="44.30569475709658" lon="10.077728941176813"><ele>415.0</ele><time>2026-04-18T08:46:09.999Z</time></trkpt><trkpt lat="44.30553253900686" lon="10.077769636694125"><ele>415.0</ele><time>2026-04-18T08:46:10.999Z</time></trkpt><trkpt lat="44.305366992648786" lon="10.077782116467914"><ele>418.33333333333337</ele><time>2026-04-18T08:46:11.999Z</time></trkpt><trkpt lat="44.305171810107126" lon="10.077786438906557"><ele>421.66666666666663</ele><time>2026-04-18T08:46:12.999Z</time></trkpt><trkpt lat="44.30498134144848" lon="10.077749236288541"><ele>425.0</ele><time>2026-04-18T08:46:13.999Z</time></trkpt><trkpt lat="44.30480750175097" lon="10.077705230942337"><ele>423.75</ele><time>2026-04-18T08:46:14.999Z</time></trkpt><trkpt lat="44.30465075880987" lon="10.077648171502656"><ele>422.5</ele><time>2026-04-18T08:46:15.999Z</time></trkpt><trkpt lat="44.30451225094329" lon="10.077592285772605"><ele>421.25</ele><time>2026-04-18T08:46:16.999Z</time></trkpt><trkpt lat="44.304376238059035" lon="10.07753461130511"><ele>420.0</ele><time>2026-04-18T08:46:17.999Z</time></trkpt><trkpt lat="44.30424252782247" lon="10.077467269883806"><ele>419.0</ele><time>2026-04-18T08:46:18.999Z</time></trkpt><trkpt lat="44.30412717439434" lon="10.077366612343853"><ele>418.0</ele><time>2026-04-18T08:46:19.999Z</time></trkpt><trkpt lat="44.304012845327506" lon="10.077240111387132"><ele>417.0</ele><time>2026-04-18T08:46:20.999Z</time></trkpt><trkpt lat="44.303893689271206" lon="10.077106914594431"><ele>416.0</ele><time>2026-04-18T08:46:21.999Z</time></trkpt><trkpt lat="44.30378190254113" lon="10.076978453958759"><ele>416.0</ele><time>2026-04-18T08:46:22.999Z</time></trkpt><trkpt lat="44.303678030247234" lon="10.076876364674204"><ele>416.0</ele><time>2026-04-18T08:46:23.999Z</time></trkpt><trkpt lat="44.30359875089708" lon="10.076782916927693"><ele>416.0</ele><time>2026-04-18T08:46:24.999Z</time></trkpt><trkpt lat="44.30352313898292" lon="10.076705243885504"><ele>416.0</ele><time>2026-04-18T08:46:26Z</time></trkpt><trkpt lat="44.303451284804765" lon="10.07663022562074"><ele>416.0</ele><time>2026-04-18T08:46:27Z</time></trkpt><trkpt lat="44.30337502740568" lon="10.076556057160312"><ele>416.6</ele><time>2026-04-18T08:46:28Z</time></trkpt><trkpt lat="44.303295027438594" lon="10.076465162691637"><ele>417.20000000000005</ele><time>2026-04-18T08:46:29Z</time></trkpt><trkpt lat="44.30321112109311" lon="10.076373705183995"><ele>417.79999999999995</ele><time>2026-04-18T08:46:30Z</time></trkpt><trkpt lat="44.303119388659766" lon="10.076281250125753"><ele>418.4</ele><time>2026-04-18T08:46:31Z</time></trkpt><trkpt lat="44.30302557428207" lon="10.076188122468631"><ele>419.0</ele><time>2026-04-18T08:46:32Z</time></trkpt><trkpt lat="44.302928516025936" lon="10.076089294251389"><ele>417.75</ele><time>2026-04-18T08:46:33Z</time></trkpt><trkpt lat="44.30283588645203" lon="10.075993357446645"><ele>416.5</ele><time>2026-04-18T08:46:34Z</time></trkpt><trkpt lat="44.302745370082214" lon="10.075891167133172"><ele>415.25</ele><time>2026-04-18T08:46:35Z</time></trkpt><trkpt lat="44.30264942601959" lon="10.07580421573281"><ele>414.0</ele><time>2026-04-18T08:46:36Z</time></trkpt><trkpt lat="44.30255855536527" lon="10.075712372256278"><ele>414.0</ele><time>2026-04-18T08:46:37Z</time></trkpt><trkpt lat="44.30246489407616" lon="10.075618288503222"><ele>414.0</ele><time>2026-04-18T08:46:38Z</time></trkpt><trkpt lat="44.30236875163476" lon="10.075523320699986"><ele>414.0</ele><time>2026-04-18T08:46:39Z</time></trkpt><trkpt lat="44.30227198976134" lon="10.075430562352883"><ele>414.0</ele><time>2026-04-18T08:46:40Z</time></trkpt><trkpt lat="44.302178230394105" lon="10.075345350717601"><ele>412.79999999999995</ele><time>2026-04-18T08:46:41Z</time></trkpt><trkpt lat="44.30209388366078" lon="10.075259185860082"><ele>411.59999999999997</ele><time>2026-04-18T08:46:42Z</time></trkpt><trkpt lat="44.302008559606115" lon="10.075175010018015"><ele>410.4</ele><time>2026-04-18T08:46:43Z</time></trkpt><trkpt lat="44.30191749990495" lon="10.07508607286442"><ele>409.2</ele><time>2026-04-18T08:46:44Z</time></trkpt><trkpt lat="44.30182877419868" lon="10.074993370996664"><ele>408.0</ele><time>2026-04-18T08:46:45Z</time></trkpt><trkpt lat="44.30173627695655" lon="10.074904425252004"><ele>408.0</ele><time>2026-04-18T08:46:46Z</time></trkpt><trkpt lat="44.301645904329355" lon="10.074819240176375"><ele>408.0</ele><time>2026-04-18T08:46:47Z</time></trkpt><trkpt lat="44.30155509018772" lon="10.074733653146136"><ele>408.0</ele><time>2026-04-18T08:46:48Z</time></trkpt><trkpt lat="44.3014604107167" lon="10.074644138716243"><ele>408.0</ele><time>2026-04-18T08:46:49Z</time></trkpt><trkpt lat="44.30136299612586" lon="10.074556430862264"><ele>408.0</ele><time>2026-04-18T08:46:50Z</time></trkpt><trkpt lat="44.30126888718034" lon="10.074464077291609"><ele>406.5</ele><time>2026-04-18T08:46:51Z</time></trkpt><trkpt lat="44.30117443664286" lon="10.074366797271049"><ele>405.0</ele><time>2026-04-18T08:46:52Z</time></trkpt><trkpt lat="44.3010769031331" lon="10.074274248709623"><ele>403.5</ele><time>2026-04-18T08:46:53Z</time></trkpt><trkpt lat="44.30097651014723" lon="10.074183773559296"><ele>402.0</ele><time>2026-04-18T08:46:54Z</time></trkpt><trkpt lat="44.30087488691386" lon="10.074091340546452"><ele>402.0</ele><time>2026-04-18T08:46:55Z</time></trkpt><trkpt lat="44.300771547402185" lon="10.073992016146388"><ele>402.0</ele><time>2026-04-18T08:46:56Z</time></trkpt><trkpt lat="44.30067819703538" lon="10.073889675663432"><ele>402.0</ele><time>2026-04-18T08:46:57Z</time></trkpt><trkpt lat="44.30057680025995" lon="10.07379085226757"><ele>402.0</ele><time>2026-04-18T08:46:58Z</time></trkpt><trkpt lat="44.30047740752064" lon="10.073702275857803"><ele>398.75</ele><time>2026-04-18T08:46:59Z</time></trkpt><trkpt lat="44.30039117880985" lon="10.073606819995033"><ele>395.5</ele><time>2026-04-18T08:47:00Z</time></trkpt><trkpt lat="44.300337034987734" lon="10.07345973027274"><ele>392.25</ele><time>2026-04-18T08:47:01Z</time></trkpt><trkpt lat="44.300313710458425" lon="10.073291616010804"><ele>389.0</ele><time>2026-04-18T08:47:02Z</time></trkpt><trkpt lat="44.300324727690494" lon="10.073109271391273"><ele>389.0</ele><time>2026-04-18T08:47:03Z</time></trkpt><trkpt lat="44.3003334950079" lon="10.072921615334929"><ele>389.0</ele><time>2026-04-18T08:47:04Z</time></trkpt><trkpt lat="44.300328428976336" lon="10.072738292470248"><ele>389.0</ele><time>2026-04-18T08:47:05Z</time></trkpt><trkpt lat="44.30029763120997" lon="10.072556013926945"><ele>389.0</ele><time>2026-04-18T08:47:06Z</time></trkpt><trkpt lat="44.30022110002006" lon="10.072324264807916"><ele>395.5</ele><time>2026-04-18T08:47:07Z</time></trkpt><trkpt lat="44.300157941354094" lon="10.072276537130023"><ele>402.0</ele><time>2026-04-18T08:47:08Z</time></trkpt><trkpt lat="44.300074810883125" lon="10.072143981345269"><ele>408.5</ele><time>2026-04-18T08:47:09Z</time></trkpt><trkpt lat="44.29998155359544" lon="10.072035743957064"><ele>415.0</ele><time>2026-04-18T08:47:10Z</time></trkpt><trkpt lat="44.2998563085714" lon="10.071974276927282"><ele>414.5</ele><time>2026-04-18T08:47:11Z</time></trkpt><trkpt lat="44.29971847374732" lon="10.071955868097318"><ele>414.0</ele><time>2026-04-18T08:47:12Z</time></trkpt><trkpt lat="44.29960562132959" lon="10.071944305621956"><ele>413.5</ele><time>2026-04-18T08:47:13Z</time></trkpt><trkpt lat="44.2995100066051" lon="10.071989576840203"><ele>413.0</ele><time>2026-04-18T08:47:14Z</time></trkpt><trkpt lat="44.29943596589347" lon="10.07210422151183"><ele>413.0</ele><time>2026-04-18T08:47:15Z</time></trkpt><trkpt lat="44.2993650976572" lon="10.0722482494526"><ele>413.0</ele><time>2026-04-18T08:47:16Z</time></trkpt><trkpt lat="44.299296261359665" lon="10.072383828497681"><ele>413.0</ele><time>2026-04-18T08:47:17Z</time></trkpt><trkpt lat="44.299228663065776" lon="10.072505248678024"><ele>413.0</ele><time>2026-04-18T08:47:18Z</time></trkpt><trkpt lat="44.29916308632343" lon="10.072624413493564"><ele>409.0</ele><time>2026-04-18T08:47:19Z</time></trkpt><trkpt lat="44.29908944611287" lon="10.072719626221167"><ele>405.0</ele><time>2026-04-18T08:47:20Z</time></trkpt><trkpt lat="44.298996467992914" lon="10.07276808228135"><ele>401.0</ele><time>2026-04-18T08:47:21Z</time></trkpt><trkpt lat="44.29887142080453" lon="10.072770810666432"><ele>397.0</ele><time>2026-04-18T08:47:22Z</time></trkpt><trkpt lat="44.29876406490481" lon="10.072661965110257"><ele>397.0</ele><time>2026-04-18T08:47:23Z</time></trkpt><trkpt lat="44.29866654872705" lon="10.072633957511195"><ele>397.0</ele><time>2026-04-18T08:47:24Z</time></trkpt><trkpt lat="44.29857893136861" lon="10.072684641476362"><ele>397.0</ele><time>2026-04-18T08:47:25Z</time></trkpt><trkpt lat="44.29852085050247" lon="10.072819749394947"><ele>397.0</ele><time>2026-04-18T08:47:26Z</time></trkpt><trkpt lat="44.298530078432606" lon="10.072994713863661"><ele>397.0</ele><time>2026-04-18T08:47:27Z</time></trkpt><trkpt lat="44.29860082376542" lon="10.073160558145357"><ele>391.75</ele><time>2026-04-18T08:47:28Z</time></trkpt><trkpt lat="44.2986413676788" lon="10.07329811269242"><ele>386.5</ele><time>2026-04-18T08:47:29Z</time></trkpt><trkpt lat="44.29859551960078" lon="10.073402268199224"><ele>381.25</ele><time>2026-04-18T08:47:30Z</time></trkpt><trkpt lat="44.29847288751137" lon="10.073395204691584"><ele>376.0</ele><time>2026-04-18T08:47:31Z</time></trkpt><trkpt lat="44.29832064130429" lon="10.07348609805187"><ele>376.0</ele><time>2026-04-18T08:47:32Z</time></trkpt><trkpt lat="44.298175931459426" lon="10.073578720288"><ele>376.0</ele><time>2026-04-18T08:47:33Z</time></trkpt><trkpt lat="44.29803661791685" lon="10.073691537169283"><ele>376.0</ele><time>2026-04-18T08:47:34Z</time></trkpt><trkpt lat="44.2979032700965" lon="10.073750115162087"><ele>376.0</ele><time>2026-04-18T08:47:35Z</time></trkpt><trkpt lat="44.29773153176634" lon="10.073743318560771"><ele>376.0</ele><time>2026-04-18T08:47:36Z</time></trkpt><trkpt lat="44.29753928014285" lon="10.073711931652783"><ele>376.0</ele><time>2026-04-18T08:47:37Z</time></trkpt><trkpt lat="44.297360486677114" lon="10.073675927898819"><ele>379.75</ele><time>2026-04-18T08:47:38Z</time></trkpt><trkpt lat="44.29721082904313" lon="10.073611469733361"><ele>383.5</ele><time>2026-04-18T08:47:39Z</time></trkpt><trkpt lat="44.297091295431045" lon="10.073554866317739"><ele>387.25</ele><time>2026-04-18T08:47:40Z</time></trkpt><trkpt lat="44.296975763892284" lon="10.073582018114372"><ele>391.0</ele><time>2026-04-18T08:47:41Z</time></trkpt><trkpt lat="44.29685247268958" lon="10.073701287237556"><ele>391.0</ele><time>2026-04-18T08:47:42Z</time></trkpt><trkpt lat="44.29672019115995" lon="10.07387019092673"><ele>391.0</ele><time>2026-04-18T08:47:42.999Z</time></trkpt><trkpt lat="44.29660202894126" lon="10.074046137993706"><ele>391.0</ele><time>2026-04-18T08:47:43.999Z</time></trkpt><trkpt lat="44.29649767974234" lon="10.074189126075952"><ele>390.25</ele><time>2026-04-18T08:47:44.999Z</time></trkpt><trkpt lat="44.29639168316543" lon="10.074334015178138"><ele>389.5</ele><time>2026-04-18T08:47:45.999Z</time></trkpt><trkpt lat="44.29628324405991" lon="10.074463903206867"><ele>388.75</ele><time>2026-04-18T08:47:46.999Z</time></trkpt><trkpt lat="44.296155811618824" lon="10.074591417032863"><ele>388.0</ele><time>2026-04-18T08:47:47.999Z</time></trkpt><trkpt lat="44.296025634996425" lon="10.074718452784987"><ele>388.0</ele><time>2026-04-18T08:47:48.999Z</time></trkpt><trkpt lat="44.29587847060853" lon="10.07481138770125"><ele>388.0</ele><time>2026-04-18T08:47:49.999Z</time></trkpt><trkpt lat="44.29573599819185" lon="10.074917117462157"><ele>388.0</ele><time>2026-04-18T08:47:50.999Z</time></trkpt><trkpt lat="44.29557676398339" lon="10.074988414219339"><ele>382.33333333333337</ele><time>2026-04-18T08:47:51.999Z</time></trkpt><trkpt lat="44.295419707484896" lon="10.075072961326708"><ele>376.6666666666667</ele><time>2026-04-18T08:47:52.999Z</time></trkpt><trkpt lat="44.29526716056671" lon="10.075165807846306"><ele>371.0</ele><time>2026-04-18T08:47:53.999Z</time></trkpt><trkpt lat="44.2951199165894" lon="10.07526233924395"><ele>371.0</ele><time>2026-04-18T08:47:54.999Z</time></trkpt><trkpt lat="44.29497587397898" lon="10.075351008113316"><ele>371.0</ele><time>2026-04-18T08:47:55.999Z</time></trkpt><trkpt lat="44.29483791489827" lon="10.075429789920006"><ele>371.0</ele><time>2026-04-18T08:47:56.999Z</time></trkpt><trkpt lat="44.29470416651968" lon="10.075508974843373"><ele>369.75</ele><time>2026-04-18T08:47:57.999Z</time></trkpt><trkpt lat="44.29457342703828" lon="10.075563021969051"><ele>368.5</ele><time>2026-04-18T08:47:58.999Z</time></trkpt><trkpt lat="44.29443649688009" lon="10.075583389942384"><ele>367.25</ele><time>2026-04-18T08:47:59.999Z</time></trkpt><trkpt lat="44.29430315382069" lon="10.075559826659656"><ele>366.0</ele><time>2026-04-18T08:48:00.999Z</time></trkpt><trkpt lat="44.294190247654605" lon="10.075547798243594"><ele>366.0</ele><time>2026-04-18T08:48:01.999Z</time></trkpt><trkpt lat="44.294110057012254" lon="10.075538282240025"><ele>366.0</ele><time>2026-04-18T08:48:02.999Z</time></trkpt><trkpt lat="44.29401811390093" lon="10.075528003048188"><ele>366.0</ele><time>2026-04-18T08:48:03.999Z</time></trkpt><trkpt lat="44.29387829343205" lon="10.07552209939683"><ele>366.0</ele><time>2026-04-18T08:48:04.999Z</time></trkpt><trkpt lat="44.29372116044143" lon="10.07553054522454"><ele>364.0</ele><time>2026-04-18T08:48:05.999Z</time></trkpt><trkpt lat="44.2935661645827" lon="10.075564899025652"><ele>362.0</ele><time>2026-04-18T08:48:06.999Z</time></trkpt><trkpt lat="44.293406808663605" lon="10.075595763156116"><ele>360.0</ele><time>2026-04-18T08:48:07.999Z</time></trkpt><trkpt lat="44.29326013218557" lon="10.075625648716082"><ele>360.0</ele><time>2026-04-18T08:48:08.999Z</time></trkpt><trkpt lat="44.29311947021494" lon="10.075636965507512"><ele>360.0</ele><time>2026-04-18T08:48:09.999Z</time></trkpt><trkpt lat="44.292981123153496" lon="10.075760822736846"><ele>360.0</ele><time>2026-04-18T08:48:10.999Z</time></trkpt><trkpt lat="44.29296385883608" lon="10.075999430724215"><ele>357.6</ele><time>2026-04-18T08:48:11.999Z</time></trkpt><trkpt lat="44.29291686881274" lon="10.076137213581855"><ele>355.2</ele><time>2026-04-18T08:48:12.999Z</time></trkpt><trkpt lat="44.29285502105918" lon="10.076251659620587"><ele>352.79999999999995</ele><time>2026-04-18T08:48:13.999Z</time></trkpt><trkpt lat="44.29281367944133" lon="10.076387828046858"><ele>350.4</ele><time>2026-04-18T08:48:14.999Z</time></trkpt><trkpt lat="44.29274344924103" lon="10.07652938698782"><ele>348.0</ele><time>2026-04-18T08:48:15.999Z</time></trkpt><trkpt lat="44.292650415635066" lon="10.07667036146137"><ele>346.25</ele><time>2026-04-18T08:48:16.999Z</time></trkpt><trkpt lat="44.29253233911377" lon="10.076777311185316"><ele>344.5</ele><time>2026-04-18T08:48:17.999Z</time></trkpt><trkpt lat="44.29241624935332" lon="10.07688045443234"><ele>342.75</ele><time>2026-04-18T08:48:18.999Z</time></trkpt><trkpt lat="44.29229917567779" lon="10.076972526249277"><ele>341.0</ele><time>2026-04-18T08:48:19.999Z</time></trkpt><trkpt lat="44.29218593537957" lon="10.077069148203934"><ele>341.0</ele><time>2026-04-18T08:48:20.999Z</time></trkpt><trkpt lat="44.29207450840377" lon="10.077143291028257"><ele>341.0</ele><time>2026-04-18T08:48:21.999Z</time></trkpt><trkpt lat="44.2919670983102" lon="10.077204118353352"><ele>341.0</ele><time>2026-04-18T08:48:22.999Z</time></trkpt><trkpt lat="44.291867072429454" lon="10.077275732572732"><ele>341.0</ele><time>2026-04-18T08:48:23.999Z</time></trkpt><trkpt lat="44.291769288154526" lon="10.077339036237923"><ele>341.0</ele><time>2026-04-18T08:48:24.999Z</time></trkpt><trkpt lat="44.29167678731353" lon="10.077398039603457"><ele>341.0</ele><time>2026-04-18T08:48:25.999Z</time></trkpt><trkpt lat="44.29158489283974" lon="10.077436533973938"><ele>341.0</ele><time>2026-04-18T08:48:26.999Z</time></trkpt><trkpt lat="44.29149503087691" lon="10.077458875964565"><ele>341.0</ele><time>2026-04-18T08:48:27.999Z</time></trkpt><trkpt lat="44.29140490409142" lon="10.077452971081911"><ele>341.0</ele><time>2026-04-18T08:48:28.999Z</time></trkpt><trkpt lat="44.2913092137678" lon="10.07741516991897"><ele>340.25</ele><time>2026-04-18T08:48:29.999Z</time></trkpt><trkpt lat="44.29119901935778" lon="10.077375438421917"><ele>339.5</ele><time>2026-04-18T08:48:30.999Z</time></trkpt><trkpt lat="44.291082547424445" lon="10.077343921098276"><ele>338.75</ele><time>2026-04-18T08:48:32Z</time></trkpt><trkpt lat="44.29097241068183" lon="10.077312871121652"><ele>338.0</ele><time>2026-04-18T08:48:33Z</time></trkpt><trkpt lat="44.290861829877954" lon="10.077294208854521"><ele>338.0</ele><time>2026-04-18T08:48:34Z</time></trkpt><trkpt lat="44.290753734105316" lon="10.077279651906093"><ele>338.0</ele><time>2026-04-18T08:48:35Z</time></trkpt><trkpt lat="44.2906460195028" lon="10.077257571018734"><ele>338.0</ele><time>2026-04-18T08:48:36Z</time></trkpt><trkpt lat="44.29053520655304" lon="10.077209709613522"><ele>338.0</ele><time>2026-04-18T08:48:37Z</time></trkpt><trkpt lat="44.29043461772858" lon="10.077115322539782"><ele>340.5</ele><time>2026-04-18T08:48:38Z</time></trkpt><trkpt lat="44.29034069922575" lon="10.077006619040029"><ele>343.0</ele><time>2026-04-18T08:48:39Z</time></trkpt><trkpt lat="44.29023984810862" lon="10.076930247507843"><ele>345.5</ele><time>2026-04-18T08:48:40Z</time></trkpt><trkpt lat="44.290121927212496" lon="10.076897010672127"><ele>348.0</ele><time>2026-04-18T08:48:41Z</time></trkpt><trkpt lat="44.289998753949284" lon="10.076908383179928"><ele>348.0</ele><time>2026-04-18T08:48:42Z</time></trkpt><trkpt lat="44.28988164010104" lon="10.076991750665522"><ele>348.0</ele><time>2026-04-18T08:48:43Z</time></trkpt><trkpt lat="44.289766378410704" lon="10.077086532770299"><ele>348.0</ele><time>2026-04-18T08:48:44Z</time></trkpt><trkpt lat="44.28965474035634" lon="10.077162223732941"><ele>348.0</ele><time>2026-04-18T08:48:45Z</time></trkpt><trkpt lat="44.289553557207114" lon="10.077249352352974"><ele>344.75</ele><time>2026-04-18T08:48:46Z</time></trkpt><trkpt lat="44.28945839945175" lon="10.07735131038694"><ele>341.5</ele><time>2026-04-18T08:48:47Z</time></trkpt><trkpt lat="44.28936327917643" lon="10.077443282702408"><ele>338.25</ele><time>2026-04-18T08:48:48Z</time></trkpt><trkpt lat="44.28926350775916" lon="10.077521467350076"><ele>335.0</ele><time>2026-04-18T08:48:49Z</time></trkpt><trkpt lat="44.28914871608898" lon="10.07758299154898"><ele>335.0</ele><time>2026-04-18T08:48:50Z</time></trkpt><trkpt lat="44.28903847811988" lon="10.077657749545365"><ele>335.0</ele><time>2026-04-18T08:48:51Z</time></trkpt><trkpt lat="44.28892547040732" lon="10.077727409133699"><ele>335.0</ele><time>2026-04-18T08:48:52Z</time></trkpt><trkpt lat="44.28881023443649" lon="10.07778208240591"><ele>335.0</ele><time>2026-04-18T08:48:53Z</time></trkpt><trkpt lat="44.2886990580575" lon="10.077820395736875"><ele>337.75</ele><time>2026-04-18T08:48:54Z</time></trkpt><trkpt lat="44.2885838334173" lon="10.077865120651348"><ele>340.5</ele><time>2026-04-18T08:48:55Z</time></trkpt><trkpt lat="44.28847530880142" lon="10.077919609177314"><ele>343.25</ele><time>2026-04-18T08:48:56Z</time></trkpt><trkpt lat="44.288362356826546" lon="10.077974928584297"><ele>346.0</ele><time>2026-04-18T08:48:57Z</time></trkpt><trkpt lat="44.28824886122561" lon="10.078025715118399"><ele>346.0</ele><time>2026-04-18T08:48:58Z</time></trkpt><trkpt lat="44.28813076766918" lon="10.078076684969645"><ele>346.0</ele><time>2026-04-18T08:48:59Z</time></trkpt><trkpt lat="44.28801016477993" lon="10.078111859876708"><ele>346.0</ele><time>2026-04-18T08:49:00Z</time></trkpt><trkpt lat="44.28788346104809" lon="10.078147023081575"><ele>346.0</ele><time>2026-04-18T08:49:01Z</time></trkpt><trkpt lat="44.28775445461074" lon="10.078194526298581"><ele>349.25</ele><time>2026-04-18T08:49:02Z</time></trkpt><trkpt lat="44.2876234320527" lon="10.07824364291109"><ele>352.5</ele><time>2026-04-18T08:49:03Z</time></trkpt><trkpt lat="44.28749003488482" lon="10.07827603048751"><ele>355.75</ele><time>2026-04-18T08:49:04Z</time></trkpt><trkpt lat="44.28735963307963" lon="10.078315015851317"><ele>359.0</ele><time>2026-04-18T08:49:05Z</time></trkpt><trkpt lat="44.28722769896548" lon="10.078354784753424"><ele>352.0</ele><time>2026-04-18T08:49:06Z</time></trkpt><trkpt lat="44.287099947592864" lon="10.07840264802678"><ele>345.0</ele><time>2026-04-18T08:49:07Z</time></trkpt><trkpt lat="44.28697462395008" lon="10.078448681034699"><ele>338.0</ele><time>2026-04-18T08:49:08Z</time></trkpt><trkpt lat="44.28684864233599" lon="10.078498920285037"><ele>331.0</ele><time>2026-04-18T08:49:09Z</time></trkpt><trkpt lat="44.28672365821375" lon="10.078548211192631"><ele>331.0</ele><time>2026-04-18T08:49:10Z</time></trkpt><trkpt lat="44.28659647189803" lon="10.0785867973562"><ele>331.0</ele><time>2026-04-18T08:49:11Z</time></trkpt><trkpt lat="44.28646595686867" lon="10.078629296013759"><ele>331.0</ele><time>2026-04-18T08:49:12Z</time></trkpt><trkpt lat="44.28633824699962" lon="10.078682860316356"><ele>331.0</ele><time>2026-04-18T08:49:13Z</time></trkpt><trkpt lat="44.28621530442001" lon="10.078722313920137"><ele>329.5</ele><time>2026-04-18T08:49:14Z</time></trkpt><trkpt lat="44.28609373008509" lon="10.078759476772827"><ele>328.0</ele><time>2026-04-18T08:49:15Z</time></trkpt><trkpt lat="44.285961892699724" lon="10.078772987357283"><ele>326.5</ele><time>2026-04-18T08:49:16Z</time></trkpt><trkpt lat="44.28583222435289" lon="10.078765164769745"><ele>325.0</ele><time>2026-04-18T08:49:17Z</time></trkpt><trkpt lat="44.28569777411365" lon="10.078722838283214"><ele>322.25</ele><time>2026-04-18T08:49:18Z</time></trkpt><trkpt lat="44.285578696688205" lon="10.078656084922317"><ele>319.5</ele><time>2026-04-18T08:49:19Z</time></trkpt><trkpt lat="44.28549151765883" lon="10.07853535915639"><ele>316.75</ele><time>2026-04-18T08:49:20Z</time></trkpt><trkpt lat="44.285400374481505" lon="10.078398123992118"><ele>314.0</ele><time>2026-04-18T08:49:21Z</time></trkpt><trkpt lat="44.28532147940536" lon="10.078247274556142"><ele>314.0</ele><time>2026-04-18T08:49:22Z</time></trkpt><trkpt lat="44.28520606468029" lon="10.07812798037192"><ele>314.0</ele><time>2026-04-18T08:49:23Z</time></trkpt><trkpt lat="44.285079876617836" lon="10.078037431932131"><ele>314.0</ele><time>2026-04-18T08:49:24Z</time></trkpt><trkpt lat="44.2849628875675" lon="10.07793388331296"><ele>314.0</ele><time>2026-04-18T08:49:25Z</time></trkpt><trkpt lat="44.28486852391076" lon="10.077794775282925"><ele>314.0</ele><time>2026-04-18T08:49:26Z</time></trkpt><trkpt lat="44.28478421328829" lon="10.077639320925345"><ele>314.0</ele><time>2026-04-18T08:49:27Z</time></trkpt><trkpt lat="44.28470863768887" lon="10.0774824670832"><ele>314.0</ele><time>2026-04-18T08:49:28Z</time></trkpt><trkpt lat="44.284635315986364" lon="10.07733027174512"><ele>314.0</ele><time>2026-04-18T08:49:29Z</time></trkpt><trkpt lat="44.28457508913703" lon="10.077173429380817"><ele>310.5</ele><time>2026-04-18T08:49:30Z</time></trkpt><trkpt lat="44.2845130974083" lon="10.077002158801301"><ele>307.0</ele><time>2026-04-18T08:49:31Z</time></trkpt><trkpt lat="44.28446000142707" lon="10.076815216638591"><ele>303.5</ele><time>2026-04-18T08:49:32Z</time></trkpt><trkpt lat="44.28440884948185" lon="10.076639628303798"><ele>300.0</ele><time>2026-04-18T08:49:33Z</time></trkpt><trkpt lat="44.284375260864934" lon="10.076453193686637"><ele>300.0</ele><time>2026-04-18T08:49:34Z</time></trkpt><trkpt lat="44.28435859148049" lon="10.076268231750884"><ele>300.0</ele><time>2026-04-18T08:49:35Z</time></trkpt><trkpt lat="44.28435907893372" lon="10.076088887446446"><ele>300.0</ele><time>2026-04-18T08:49:36Z</time></trkpt><trkpt lat="44.284358279223426" lon="10.075915655286977"><ele>300.0</ele><time>2026-04-18T08:49:37Z</time></trkpt><trkpt lat="44.28434523225466" lon="10.07573525865232"><ele>301.25</ele><time>2026-04-18T08:49:38Z</time></trkpt><trkpt lat="44.28431857971056" lon="10.07556258857842"><ele>302.5</ele><time>2026-04-18T08:49:39Z</time></trkpt><trkpt lat="44.28426737522498" lon="10.07541694486909"><ele>303.75</ele><time>2026-04-18T08:49:40Z</time></trkpt><trkpt lat="44.284174017589386" lon="10.075320342547"><ele>305.0</ele><time>2026-04-18T08:49:41Z</time></trkpt><trkpt lat="44.28408672557311" lon="10.075224903277899"><ele>305.0</ele><time>2026-04-18T08:49:42Z</time></trkpt><trkpt lat="44.284022973319665" lon="10.075092149099538"><ele>305.0</ele><time>2026-04-18T08:49:43Z</time></trkpt><trkpt lat="44.28398070704967" lon="10.074933131227622"><ele>305.0</ele><time>2026-04-18T08:49:43.999Z</time></trkpt><trkpt lat="44.2839466428809" lon="10.074779796946153"><ele>305.0</ele><time>2026-04-18T08:49:44.999Z</time></trkpt><trkpt lat="44.28393944627679" lon="10.07462745380893"><ele>304.8</ele><time>2026-04-18T08:49:45.999Z</time></trkpt><trkpt lat="44.283962714235386" lon="10.074477706665876"><ele>304.6</ele><time>2026-04-18T08:49:46.999Z</time></trkpt><trkpt lat="44.28400996108311" lon="10.074333878398958"><ele>304.4</ele><time>2026-04-18T08:49:47.999Z</time></trkpt><trkpt lat="44.28406555189871" lon="10.074191427940267"><ele>304.2</ele><time>2026-04-18T08:49:48.999Z</time></trkpt><trkpt lat="44.28411429712364" lon="10.074068569134251"><ele>304.0</ele><time>2026-04-18T08:49:49.999Z</time></trkpt><trkpt lat="44.284162939956865" lon="10.073955814678165"><ele>303.4</ele><time>2026-04-18T08:49:50.999Z</time></trkpt><trkpt lat="44.28420163417224" lon="10.073837593162944"><ele>302.79999999999995</ele><time>2026-04-18T08:49:51.999Z</time></trkpt><trkpt lat="44.28422328468031" lon="10.073743361314566"><ele>302.20000000000005</ele><time>2026-04-18T08:49:52.999Z</time></trkpt><trkpt lat="44.284225810009325" lon="10.073632642777422"><ele>301.6</ele><time>2026-04-18T08:49:54.999Z</time></trkpt><trkpt lat="44.28409439526757" lon="10.073719398051292"><ele>301.0</ele><time>2026-04-18T08:51:42Z</time></trkpt><trkpt lat="44.28405668582649" lon="10.073812108272346"><ele>301.0</ele><time>2026-04-18T08:51:43Z</time></trkpt><trkpt lat="44.284009607730646" lon="10.073920200273585"><ele>301.0</ele><time>2026-04-18T08:51:44Z</time></trkpt><trkpt lat="44.28396298243249" lon="10.074016124466779"><ele>301.0</ele><time>2026-04-18T08:51:45Z</time></trkpt><trkpt lat="44.283921632948356" lon="10.074111817424734"><ele>301.0</ele><time>2026-04-18T08:51:46Z</time></trkpt><trkpt lat="44.283875538486996" lon="10.07422182713048"><ele>301.0</ele><time>2026-04-18T08:51:47Z</time></trkpt><trkpt lat="44.283825564166726" lon="10.074342105320657"><ele>301.0</ele><time>2026-04-18T08:51:48Z</time></trkpt><trkpt lat="44.28378469663013" lon="10.074467590921037"><ele>297.5</ele><time>2026-04-18T08:51:49Z</time></trkpt><trkpt lat="44.2837586812159" lon="10.074624275370306"><ele>294.0</ele><time>2026-04-18T08:51:50Z</time></trkpt><trkpt lat="44.28376768569689" lon="10.074807779507044"><ele>290.5</ele><time>2026-04-18T08:51:50.999Z</time></trkpt><trkpt lat="44.2837836468685" lon="10.075008773067205"><ele>287.0</ele><time>2026-04-18T08:51:51.999Z</time></trkpt><trkpt lat="44.28380664342176" lon="10.075229986116023"><ele>287.0</ele><time>2026-04-18T08:51:52.999Z</time></trkpt><trkpt lat="44.28381799762277" lon="10.075435319185676"><ele>287.0</ele><time>2026-04-18T08:51:53.999Z</time></trkpt><trkpt lat="44.28383808117304" lon="10.075629067102257"><ele>287.0</ele><time>2026-04-18T08:51:54.999Z</time></trkpt><trkpt lat="44.28385362418663" lon="10.075810679939625"><ele>287.0</ele><time>2026-04-18T08:51:55.999Z</time></trkpt><trkpt lat="44.2838727545168" lon="10.075988854319398"><ele>285.5</ele><time>2026-04-18T08:51:56.999Z</time></trkpt><trkpt lat="44.28390970571408" lon="10.07617219152756"><ele>284.0</ele><time>2026-04-18T08:51:57.999Z</time></trkpt><trkpt lat="44.28395116914299" lon="10.076374394490063"><ele>282.5</ele><time>2026-04-18T08:51:58.999Z</time></trkpt><trkpt lat="44.28399257255605" lon="10.076587017745515"><ele>281.0</ele><time>2026-04-18T08:51:59.999Z</time></trkpt><trkpt lat="44.284032774224734" lon="10.076790893417492"><ele>283.5</ele><time>2026-04-18T08:52:00.999Z</time></trkpt><trkpt lat="44.28407453307647" lon="10.07699001209033"><ele>286.0</ele><time>2026-04-18T08:52:01.999Z</time></trkpt><trkpt lat="44.28412074046051" lon="10.077180499724562"><ele>288.5</ele><time>2026-04-18T08:52:02.999Z</time></trkpt><trkpt lat="44.284185617190225" lon="10.077365252648885"><ele>291.0</ele><time>2026-04-18T08:52:03.999Z</time></trkpt><trkpt lat="44.28428268775569" lon="10.077542428405774"><ele>291.0</ele><time>2026-04-18T08:52:04.999Z</time></trkpt><trkpt lat="44.284386627903515" lon="10.07769756148092"><ele>291.0</ele><time>2026-04-18T08:52:05.999Z</time></trkpt><trkpt lat="44.28449393186773" lon="10.077836933198009"><ele>291.0</ele><time>2026-04-18T08:52:06.999Z</time></trkpt><trkpt lat="44.2845892413448" lon="10.077967943890151"><ele>291.0</ele><time>2026-04-18T08:52:07.999Z</time></trkpt><trkpt lat="44.28466714533594" lon="10.078092389915216"><ele>291.0</ele><time>2026-04-18T08:52:08.999Z</time></trkpt><trkpt lat="44.28471625984296" lon="10.078209221715806"><ele>291.0</ele><time>2026-04-18T08:52:09.999Z</time></trkpt><trkpt lat="44.28473876391975" lon="10.078317200794014"><ele>291.0</ele><time>2026-04-18T08:52:10.999Z</time></trkpt><trkpt lat="44.28469755857344" lon="10.078430198620666"><ele>291.0</ele><time>2026-04-18T08:52:11.999Z</time></trkpt><trkpt lat="44.28459900859087" lon="10.07850209439467"><ele>291.0</ele><time>2026-04-18T08:52:12.999Z</time></trkpt><trkpt lat="44.28452068724054" lon="10.07861484475506"><ele>290.5</ele><time>2026-04-18T08:52:13.999Z</time></trkpt><trkpt lat="44.28441151792145" lon="10.078661181797937"><ele>290.0</ele><time>2026-04-18T08:52:14.999Z</time></trkpt><trkpt lat="44.2842971505483" lon="10.078672199752402"><ele>289.5</ele><time>2026-04-18T08:52:15.999Z</time></trkpt><trkpt lat="44.28418562127616" lon="10.078665011099474"><ele>289.0</ele><time>2026-04-18T08:52:16.999Z</time></trkpt><trkpt lat="44.28409052737257" lon="10.078557244608042"><ele>289.0</ele><time>2026-04-18T08:52:17.999Z</time></trkpt><trkpt lat="44.284009938251614" lon="10.078413565989838"><ele>289.0</ele><time>2026-04-18T08:52:18.999Z</time></trkpt><trkpt lat="44.283925607914135" lon="10.078240669487503"><ele>289.0</ele><time>2026-04-18T08:52:19.999Z</time></trkpt><trkpt lat="44.28383890840278" lon="10.078090842690814"><ele>289.0</ele><time>2026-04-18T08:52:20.999Z</time></trkpt><trkpt lat="44.283770508751495" lon="10.077977937982537"><ele>289.16666666666663</ele><time>2026-04-18T08:52:21.999Z</time></trkpt><trkpt lat="44.283710212867604" lon="10.077888759528397"><ele>289.3333333333333</ele><time>2026-04-18T08:52:22.999Z</time></trkpt><trkpt lat="44.283656436629435" lon="10.077823991836006"><ele>289.5</ele><time>2026-04-18T08:52:23.999Z</time></trkpt><trkpt lat="44.28358884308188" lon="10.077787560792046"><ele>289.6666666666667</ele><time>2026-04-18T08:52:24.999Z</time></trkpt><trkpt lat="44.283510214234674" lon="10.077813143224411"><ele>289.83333333333337</ele><time>2026-04-18T08:52:25.999Z</time></trkpt><trkpt lat="44.28345202259116" lon="10.07787050970803"><ele>290.0</ele><time>2026-04-18T08:52:26.999Z</time></trkpt><trkpt lat="44.28341106889769" lon="10.0779992181308"><ele>290.0</ele><time>2026-04-18T08:52:28.999Z</time></trkpt><trkpt lat="44.28345059226889" lon="10.078170004728655"><ele>290.0</ele><time>2026-04-18T08:52:30.999Z</time></trkpt><trkpt lat="44.28351458790015" lon="10.078299269278176"><ele>290.0</ele><time>2026-04-18T08:52:31.999Z</time></trkpt><trkpt lat="44.28358369097669" lon="10.078473865333596"><ele>290.0</ele><time>2026-04-18T08:52:32.999Z</time></trkpt><trkpt lat="44.28365335277808" lon="10.07866350954639"><ele>291.5</ele><time>2026-04-18T08:52:33.999Z</time></trkpt><trkpt lat="44.283730959196745" lon="10.078850042744461"><ele>293.0</ele><time>2026-04-18T08:52:34.999Z</time></trkpt><trkpt lat="44.28381525924466" lon="10.079006652635744"><ele>294.5</ele><time>2026-04-18T08:52:35.999Z</time></trkpt><trkpt lat="44.283914525060396" lon="10.079149485332643"><ele>296.0</ele><time>2026-04-18T08:52:36.999Z</time></trkpt><trkpt lat="44.28404726609942" lon="10.079296245878336"><ele>296.0</ele><time>2026-04-18T08:52:37.999Z</time></trkpt><trkpt lat="44.28419104163479" lon="10.079445154403974"><ele>296.0</ele><time>2026-04-18T08:52:38.999Z</time></trkpt><trkpt lat="44.28433497401675" lon="10.079593729853505"><ele>296.0</ele><time>2026-04-18T08:52:39.999Z</time></trkpt><trkpt lat="44.28449615395039" lon="10.079721086592803"><ele>296.0</ele><time>2026-04-18T08:52:40.999Z</time></trkpt><trkpt lat="44.28464988762084" lon="10.079827651770277"><ele>296.0</ele><time>2026-04-18T08:52:41.999Z</time></trkpt><trkpt lat="44.284786501850135" lon="10.079932120569389"><ele>296.0</ele><time>2026-04-18T08:52:42.999Z</time></trkpt><trkpt lat="44.28488908073778" lon="10.080053118287955"><ele>298.0</ele><time>2026-04-18T08:52:44Z</time></trkpt><trkpt lat="44.28496704034742" lon="10.080168061285717"><ele>300.0</ele><time>2026-04-18T08:52:45Z</time></trkpt><trkpt lat="44.28504062471938" lon="10.08028716445788"><ele>302.0</ele><time>2026-04-18T08:52:46Z</time></trkpt><trkpt lat="44.285077912163" lon="10.080487616216248"><ele>304.0</ele><time>2026-04-18T08:52:47Z</time></trkpt><trkpt lat="44.28510859070614" lon="10.080720417609504"><ele>305.3333333333333</ele><time>2026-04-18T08:52:48Z</time></trkpt><trkpt lat="44.285140784221284" lon="10.080972802720476"><ele>306.6666666666667</ele><time>2026-04-18T08:52:49Z</time></trkpt><trkpt lat="44.28516700318765" lon="10.081218689550413"><ele>308.0</ele><time>2026-04-18T08:52:50Z</time></trkpt><trkpt lat="44.28519700750456" lon="10.081471262161294"><ele>308.33333333333337</ele><time>2026-04-18T08:52:51Z</time></trkpt><trkpt lat="44.28523576400448" lon="10.081733257820941"><ele>308.6666666666667</ele><time>2026-04-18T08:52:52Z</time></trkpt><trkpt lat="44.285271821141" lon="10.081982251588684"><ele>309.0</ele><time>2026-04-18T08:52:53Z</time></trkpt><trkpt lat="44.285325078793804" lon="10.08223584068619"><ele>309.3333333333333</ele><time>2026-04-18T08:52:54Z</time></trkpt><trkpt lat="44.28540949491103" lon="10.08248954461934"><ele>309.66666666666663</ele><time>2026-04-18T08:52:55Z</time></trkpt><trkpt lat="44.285509306493175" lon="10.08275063167022"><ele>310.0</ele><time>2026-04-18T08:52:56Z</time></trkpt><trkpt lat="44.28559289799647" lon="10.08302302276257"><ele>313.0</ele><time>2026-04-18T08:52:57Z</time></trkpt><trkpt lat="44.28568374253981" lon="10.083288937274354"><ele>316.0</ele><time>2026-04-18T08:52:58Z</time></trkpt><trkpt lat="44.28578873008258" lon="10.083545426331098"><ele>319.0</ele><time>2026-04-18T08:52:59Z</time></trkpt><trkpt lat="44.28586667601189" lon="10.083827400438645"><ele>319.0</ele><time>2026-04-18T08:53:00Z</time></trkpt><trkpt lat="44.28596849217546" lon="10.084077622738526"><ele>319.0</ele><time>2026-04-18T08:53:01Z</time></trkpt><trkpt lat="44.286047841409676" lon="10.084360120607316"><ele>319.0</ele><time>2026-04-18T08:53:02Z</time></trkpt><trkpt lat="44.28613904262151" lon="10.084627003365243"><ele>316.66666666666663</ele><time>2026-04-18T08:53:03Z</time></trkpt><trkpt lat="44.28622944312548" lon="10.084891129539526"><ele>314.3333333333333</ele><time>2026-04-18T08:53:04Z</time></trkpt><trkpt lat="44.286316045803574" lon="10.085142432639607"><ele>312.0</ele><time>2026-04-18T08:53:05Z</time></trkpt><trkpt lat="44.286403616586156" lon="10.085396545230138"><ele>317.6666666666667</ele><time>2026-04-18T08:53:06Z</time></trkpt><trkpt lat="44.28648327659978" lon="10.08564214814945"><ele>323.33333333333337</ele><time>2026-04-18T08:53:07Z</time></trkpt><trkpt lat="44.28654855824295" lon="10.085879009704366"><ele>329.0</ele><time>2026-04-18T08:53:08Z</time></trkpt><trkpt lat="44.286592348394244" lon="10.08611393271556"><ele>329.0</ele><time>2026-04-18T08:53:09Z</time></trkpt><trkpt lat="44.28662758951265" lon="10.086380927922884"><ele>329.0</ele><time>2026-04-18T08:53:10Z</time></trkpt><trkpt lat="44.286660311070094" lon="10.086670657772363"><ele>329.0</ele><time>2026-04-18T08:53:11Z</time></trkpt><trkpt lat="44.28668940265764" lon="10.086967582914196"><ele>328.33333333333337</ele><time>2026-04-18T08:53:12Z</time></trkpt><trkpt lat="44.28671993142281" lon="10.087268240308397"><ele>327.6666666666667</ele><time>2026-04-18T08:53:13Z</time></trkpt><trkpt lat="44.28675073517587" lon="10.087568077689532"><ele>327.0</ele><time>2026-04-18T08:53:14Z</time></trkpt><trkpt lat="44.28678178698803" lon="10.087870329687208"><ele>327.0</ele><time>2026-04-18T08:53:15Z</time></trkpt><trkpt lat="44.286827585187005" lon="10.08817214405995"><ele>327.0</ele><time>2026-04-18T08:53:16Z</time></trkpt><trkpt lat="44.286862785340396" lon="10.08847404374913"><ele>327.0</ele><time>2026-04-18T08:53:17Z</time></trkpt><trkpt lat="44.28691160722339" lon="10.088775749866482"><ele>327.3333333333333</ele><time>2026-04-18T08:53:18Z</time></trkpt><trkpt lat="44.286944251799824" lon="10.089075680180867"><ele>327.66666666666663</ele><time>2026-04-18T08:53:19Z</time></trkpt><trkpt lat="44.28698735350817" lon="10.089365377942006"><ele>328.0</ele><time>2026-04-18T08:53:20Z</time></trkpt><trkpt lat="44.28701836133678" lon="10.089628357255714"><ele>326.3333333333333</ele><time>2026-04-18T08:53:21Z</time></trkpt><trkpt lat="44.28702176420265" lon="10.089878131560758"><ele>324.6666666666667</ele><time>2026-04-18T08:53:22Z</time></trkpt><trkpt lat="44.28699627831797" lon="10.090153525683277"><ele>323.0</ele><time>2026-04-18T08:53:23Z</time></trkpt><trkpt lat="44.28695938000972" lon="10.090448187555943"><ele>323.33333333333337</ele><time>2026-04-18T08:53:24Z</time></trkpt><trkpt lat="44.286923058381426" lon="10.090753286523986"><ele>323.6666666666667</ele><time>2026-04-18T08:53:25Z</time></trkpt><trkpt lat="44.2868914500022" lon="10.091038941436414"><ele>324.0</ele><time>2026-04-18T08:53:26Z</time></trkpt><trkpt lat="44.28685929773842" lon="10.091292492675644"><ele>324.0</ele><time>2026-04-18T08:53:27Z</time></trkpt><trkpt lat="44.286821811251706" lon="10.091480078224542"><ele>324.0</ele><time>2026-04-18T08:53:28Z</time></trkpt><trkpt lat="44.286747764935136" lon="10.091600234451091"><ele>324.0</ele><time>2026-04-18T08:53:29Z</time></trkpt><trkpt lat="44.286651249274264" lon="10.091722797396526"><ele>324.0</ele><time>2026-04-18T08:53:30Z</time></trkpt><trkpt lat="44.28658125987704" lon="10.0918534979273"><ele>326.0</ele><time>2026-04-18T08:53:31Z</time></trkpt><trkpt lat="44.28650434491334" lon="10.092013292371261"><ele>328.0</ele><time>2026-04-18T08:53:32Z</time></trkpt><trkpt lat="44.28647143096035" lon="10.092208405922715"><ele>330.0</ele><time>2026-04-18T08:53:33Z</time></trkpt><trkpt lat="44.28645881854087" lon="10.0924514929182"><ele>331.0</ele><time>2026-04-18T08:53:34Z</time></trkpt><trkpt lat="44.28646319356233" lon="10.09269371086013"><ele>332.0</ele><time>2026-04-18T08:53:35Z</time></trkpt><trkpt lat="44.28649553595832" lon="10.092932549792643"><ele>333.0</ele><time>2026-04-18T08:53:36Z</time></trkpt><trkpt lat="44.286560989427365" lon="10.093164900736756"><ele>332.6666666666667</ele><time>2026-04-18T08:53:37Z</time></trkpt><trkpt lat="44.286650943535115" lon="10.093394516139039"><ele>332.33333333333337</ele><time>2026-04-18T08:53:38Z</time></trkpt><trkpt lat="44.28673592821871" lon="10.09363958485197"><ele>332.0</ele><time>2026-04-18T08:53:39Z</time></trkpt><trkpt lat="44.28682982006638" lon="10.093859763384275"><ele>332.0</ele><time>2026-04-18T08:53:40Z</time></trkpt><trkpt lat="44.28692123073005" lon="10.094075541274947"><ele>332.0</ele><time>2026-04-18T08:53:41Z</time></trkpt><trkpt lat="44.28700590556294" lon="10.094283197998326"><ele>332.0</ele><time>2026-04-18T08:53:42Z</time></trkpt><trkpt lat="44.2870780420347" lon="10.094482248774673"><ele>332.0</ele><time>2026-04-18T08:53:43Z</time></trkpt><trkpt lat="44.28712802411109" lon="10.094669864800215"><ele>332.0</ele><time>2026-04-18T08:53:44Z</time></trkpt><trkpt lat="44.287142711897424" lon="10.09485879659363"><ele>332.0</ele><time>2026-04-18T08:53:45Z</time></trkpt><trkpt lat="44.28716309263484" lon="10.0950877451804"><ele>332.0</ele><time>2026-04-18T08:53:46Z</time></trkpt><trkpt lat="44.28719942703951" lon="10.09531796401765"><ele>332.33333333333337</ele><time>2026-04-18T08:53:47Z</time></trkpt><trkpt lat="44.287224623456304" lon="10.095538869324054"><ele>332.6666666666667</ele><time>2026-04-18T08:53:48Z</time></trkpt><trkpt lat="44.28727168827858" lon="10.095750767689195"><ele>333.0</ele><time>2026-04-18T08:53:49Z</time></trkpt><trkpt lat="44.28734773440032" lon="10.095960872601168"><ele>337.3333333333333</ele><time>2026-04-18T08:53:50Z</time></trkpt><trkpt lat="44.28741258480123" lon="10.096200811685272"><ele>341.66666666666663</ele><time>2026-04-18T08:53:51Z</time></trkpt><trkpt lat="44.28749117032264" lon="10.096430558682165"><ele>346.0</ele><time>2026-04-18T08:53:51.999Z</time></trkpt><trkpt lat="44.28756378473302" lon="10.096642839981627"><ele>346.0</ele><time>2026-04-18T08:53:52.999Z</time></trkpt><trkpt lat="44.287626908008285" lon="10.096827375100432"><ele>346.0</ele><time>2026-04-18T08:53:53.999Z</time></trkpt><trkpt lat="44.28768881111395" lon="10.097008343163846"><ele>346.0</ele><time>2026-04-18T08:53:54.999Z</time></trkpt><trkpt lat="44.287809276140734" lon="10.097145210130453"><ele>346.0</ele><time>2026-04-18T08:53:55.999Z</time></trkpt><trkpt lat="44.28791283438794" lon="10.097293014010809"><ele>345.0</ele><time>2026-04-18T08:53:56.999Z</time></trkpt><trkpt lat="44.28800774017676" lon="10.097452211641842"><ele>344.0</ele><time>2026-04-18T08:53:57.999Z</time></trkpt><trkpt lat="44.28809165067606" lon="10.09761263264758"><ele>343.0</ele><time>2026-04-18T08:53:58.999Z</time></trkpt><trkpt lat="44.28816835011543" lon="10.097750635793119"><ele>342.0</ele><time>2026-04-18T08:53:59.999Z</time></trkpt><trkpt lat="44.28823844086246" lon="10.097881037842047"><ele>344.25</ele><time>2026-04-18T08:54:00.999Z</time></trkpt><trkpt lat="44.28829004799489" lon="10.098004643836811"><ele>346.5</ele><time>2026-04-18T08:54:01.999Z</time></trkpt><trkpt lat="44.288328582847946" lon="10.0981496089233"><ele>348.75</ele><time>2026-04-18T08:54:02.999Z</time></trkpt><trkpt lat="44.28834701793825" lon="10.098315765873636"><ele>351.0</ele><time>2026-04-18T08:54:03.999Z</time></trkpt><trkpt lat="44.28837049599234" lon="10.098487216143772"><ele>351.0</ele><time>2026-04-18T08:54:04.999Z</time></trkpt><trkpt lat="44.28839597610302" lon="10.09865738675304"><ele>351.0</ele><time>2026-04-18T08:54:05.999Z</time></trkpt><trkpt lat="44.28842217282179" lon="10.098806077894285"><ele>351.0</ele><time>2026-04-18T08:54:06.999Z</time></trkpt><trkpt lat="44.28844967304144" lon="10.098935124124226"><ele>351.0</ele><time>2026-04-18T08:54:07.999Z</time></trkpt><trkpt lat="44.28846809836384" lon="10.099029906117305"><ele>351.0</ele><time>2026-04-18T08:54:08.999Z</time></trkpt><trkpt lat="44.28849175070376" lon="10.099182312646853"><ele>350.1666666666667</ele><time>2026-04-18T08:54:10.999Z</time></trkpt><trkpt lat="44.28850360063778" lon="10.099304859495765"><ele>349.3333333333333</ele><time>2026-04-18T08:54:12.999Z</time></trkpt><trkpt lat="44.28852884710026" lon="10.09945171186661"><ele>348.5</ele><time>2026-04-18T08:54:14.999Z</time></trkpt><trkpt lat="44.28853984002466" lon="10.099550724219728"><ele>347.66666666666663</ele><time>2026-04-18T08:54:15.999Z</time></trkpt><trkpt lat="44.28853975562515" lon="10.099645431488577"><ele>346.8333333333333</ele><time>2026-04-18T08:54:16.999Z</time></trkpt><trkpt lat="44.28852653612099" lon="10.09974444484577"><ele>346.0</ele><time>2026-04-18T08:54:17.999Z</time></trkpt><trkpt lat="44.288498430368804" lon="10.099872856145124"><ele>346.0</ele><time>2026-04-18T08:54:18.999Z</time></trkpt><trkpt lat="44.28844689457311" lon="10.100029375014284"><ele>346.0</ele><time>2026-04-18T08:54:19.999Z</time></trkpt><trkpt lat="44.288370558885596" lon="10.100180110115236"><ele>346.0</ele><time>2026-04-18T08:54:20.999Z</time></trkpt><trkpt lat="44.288289220621735" lon="10.100317122932013"><ele>346.0</ele><time>2026-04-18T08:54:21.999Z</time></trkpt><trkpt lat="44.28820608389958" lon="10.10046635804536"><ele>346.0</ele><time>2026-04-18T08:54:22.999Z</time></trkpt><trkpt lat="44.28813289615577" lon="10.10062160740722"><ele>346.0</ele><time>2026-04-18T08:54:23.999Z</time></trkpt><trkpt lat="44.28806346976617" lon="10.100760075184896"><ele>346.0</ele><time>2026-04-18T08:54:24.999Z</time></trkpt><trkpt lat="44.2879935097889" lon="10.100919608323801"><ele>346.0</ele><time>2026-04-18T08:54:25.999Z</time></trkpt><trkpt lat="44.28794213946845" lon="10.101065336716584"><ele>346.8</ele><time>2026-04-18T08:54:26.999Z</time></trkpt><trkpt lat="44.287908145410675" lon="10.101199109014226"><ele>347.6</ele><time>2026-04-18T08:54:27.999Z</time></trkpt><trkpt lat="44.287906519384045" lon="10.101341032019608"><ele>348.4</ele><time>2026-04-18T08:54:28.999Z</time></trkpt><trkpt lat="44.28793077394263" lon="10.101485328075645"><ele>349.2</ele><time>2026-04-18T08:54:29.999Z</time></trkpt><trkpt lat="44.287976123740435" lon="10.101635065986004"><ele>350.0</ele><time>2026-04-18T08:54:30.999Z</time></trkpt><trkpt lat="44.288038844096285" lon="10.101782808625323"><ele>351.0</ele><time>2026-04-18T08:54:31.999Z</time></trkpt><trkpt lat="44.28809862437319" lon="10.101934318766968"><ele>352.0</ele><time>2026-04-18T08:54:32.999Z</time></trkpt><trkpt lat="44.28813363643946" lon="10.10210873869767"><ele>353.0</ele><time>2026-04-18T08:54:33.999Z</time></trkpt><trkpt lat="44.28818482433706" lon="10.1022693128773"><ele>354.0</ele><time>2026-04-18T08:54:34.999Z</time></trkpt><trkpt lat="44.288226154451415" lon="10.102430509485602"><ele>354.0</ele><time>2026-04-18T08:54:35.999Z</time></trkpt><trkpt lat="44.28827045222724" lon="10.102594409978737"><ele>354.0</ele><time>2026-04-18T08:54:36.999Z</time></trkpt><trkpt lat="44.28825905981939" lon="10.102799828257348"><ele>354.0</ele><time>2026-04-18T08:54:37.999Z</time></trkpt><trkpt lat="44.2882327062976" lon="10.103015665264751"><ele>354.0</ele><time>2026-04-18T08:54:38.999Z</time></trkpt><trkpt lat="44.28817113786534" lon="10.103229564687169"><ele>355.3333333333333</ele><time>2026-04-18T08:54:39.999Z</time></trkpt><trkpt lat="44.28809948341429" lon="10.103445561749844"><ele>356.66666666666663</ele><time>2026-04-18T08:54:40.999Z</time></trkpt><trkpt lat="44.28805011232026" lon="10.103670173087098"><ele>358.0</ele><time>2026-04-18T08:54:41.999Z</time></trkpt><trkpt lat="44.28799547579739" lon="10.103871599886155"><ele>359.25</ele><time>2026-04-18T08:54:42.999Z</time></trkpt><trkpt lat="44.287941284513494" lon="10.104049923380382"><ele>360.5</ele><time>2026-04-18T08:54:43.999Z</time></trkpt><trkpt lat="44.287903451822785" lon="10.104213072463507"><ele>361.75</ele><time>2026-04-18T08:54:44.999Z</time></trkpt><trkpt lat="44.28789803386764" lon="10.104393494187743"><ele>363.0</ele><time>2026-04-18T08:54:45.999Z</time></trkpt><trkpt lat="44.28793792955034" lon="10.104581583985526"><ele>363.6666666666667</ele><time>2026-04-18T08:54:46.999Z</time></trkpt><trkpt lat="44.28801801185219" lon="10.10475523007188"><ele>364.33333333333337</ele><time>2026-04-18T08:54:47.999Z</time></trkpt><trkpt lat="44.28812996129515" lon="10.104913391392929"><ele>365.0</ele><time>2026-04-18T08:54:48.999Z</time></trkpt><trkpt lat="44.28825514038667" lon="10.105080852039013"><ele>365.0</ele><time>2026-04-18T08:54:50Z</time></trkpt><trkpt lat="44.28835259250272" lon="10.105277435575724"><ele>365.0</ele><time>2026-04-18T08:54:51Z</time></trkpt><trkpt lat="44.28844486455801" lon="10.105463361100115"><ele>365.0</ele><time>2026-04-18T08:54:52Z</time></trkpt><trkpt lat="44.288516134937296" lon="10.105682587155355"><ele>364.6666666666667</ele><time>2026-04-18T08:54:53Z</time></trkpt><trkpt lat="44.28857761105879" lon="10.10590888708123"><ele>364.3333333333333</ele><time>2026-04-18T08:54:54Z</time></trkpt><trkpt lat="44.288641408434145" lon="10.106140080967092"><ele>364.0</ele><time>2026-04-18T08:54:55Z</time></trkpt><trkpt lat="44.28870280178998" lon="10.106370467469109"><ele>365.66666666666663</ele><time>2026-04-18T08:54:56Z</time></trkpt><trkpt lat="44.288765267821375" lon="10.106604963721468"><ele>367.3333333333333</ele><time>2026-04-18T08:54:57Z</time></trkpt><trkpt lat="44.288822216533646" lon="10.106826358314507"><ele>369.0</ele><time>2026-04-18T08:54:58Z</time></trkpt><trkpt lat="44.28887185635048" lon="10.107049390392808"><ele>369.0</ele><time>2026-04-18T08:54:59Z</time></trkpt><trkpt lat="44.28890240492966" lon="10.107284227649435"><ele>369.0</ele><time>2026-04-18T08:55:00Z</time></trkpt><trkpt lat="44.28892902192307" lon="10.10753677861015"><ele>369.0</ele><time>2026-04-18T08:55:01Z</time></trkpt><trkpt lat="44.288984035294824" lon="10.107787427873959"><ele>375.0</ele><time>2026-04-18T08:55:02Z</time></trkpt><trkpt lat="44.28903614181175" lon="10.10804286074824"><ele>381.0</ele><time>2026-04-18T08:55:03Z</time></trkpt><trkpt lat="44.28909684290006" lon="10.108305597665696"><ele>387.0</ele><time>2026-04-18T08:55:04Z</time></trkpt><trkpt lat="44.28915670208931" lon="10.108558244354215"><ele>387.0</ele><time>2026-04-18T08:55:05Z</time></trkpt><trkpt lat="44.28919955616958" lon="10.108815624102398"><ele>387.0</ele><time>2026-04-18T08:55:06Z</time></trkpt><trkpt lat="44.28925316740302" lon="10.109069646588416"><ele>387.0</ele><time>2026-04-18T08:55:07Z</time></trkpt><trkpt lat="44.28929648822482" lon="10.10929413212638"><ele>385.3333333333333</ele><time>2026-04-18T08:55:08Z</time></trkpt><trkpt lat="44.28936364542718" lon="10.109514371576184"><ele>383.66666666666663</ele><time>2026-04-18T08:55:09Z</time></trkpt><trkpt lat="44.28943830108441" lon="10.109736752030386"><ele>382.0</ele><time>2026-04-18T08:55:10Z</time></trkpt><trkpt lat="44.289538913709656" lon="10.109955755860497"><ele>380.66666666666663</ele><time>2026-04-18T08:55:11Z</time></trkpt><trkpt lat="44.28965663560044" lon="10.110159332935648"><ele>379.3333333333333</ele><time>2026-04-18T08:55:12Z</time></trkpt><trkpt lat="44.28976428982032" lon="10.110390635133898"><ele>378.0</ele><time>2026-04-18T08:55:13Z</time></trkpt><trkpt lat="44.28987694647032" lon="10.11061365067255"><ele>383.66666666666663</ele><time>2026-04-18T08:55:14Z</time></trkpt><trkpt lat="44.28999312129284" lon="10.110830350068246"><ele>389.3333333333333</ele><time>2026-04-18T08:55:15Z</time></trkpt><trkpt lat="44.29010622669605" lon="10.110998562191437"><ele>395.0</ele><time>2026-04-18T08:55:16Z</time></trkpt><trkpt lat="44.29018961178757" lon="10.111156345626384"><ele>395.0</ele><time>2026-04-18T08:55:17Z</time></trkpt><trkpt lat="44.29028497615127" lon="10.111276576584126"><ele>395.0</ele><time>2026-04-18T08:55:18Z</time></trkpt><trkpt lat="44.290357181181385" lon="10.111388849030334"><ele>395.0</ele><time>2026-04-18T08:55:19Z</time></trkpt><trkpt lat="44.29039391543963" lon="10.111508816341413"><ele>395.0</ele><time>2026-04-18T08:55:20Z</time></trkpt><trkpt lat="44.29038175203979" lon="10.111658487797465"><ele>395.0</ele><time>2026-04-18T08:55:21Z</time></trkpt><trkpt lat="44.29033249338211" lon="10.11183572903516"><ele>393.0</ele><time>2026-04-18T08:55:22Z</time></trkpt><trkpt lat="44.2903140059414" lon="10.11204496329171"><ele>391.0</ele><time>2026-04-18T08:55:23Z</time></trkpt><trkpt lat="44.290314020072486" lon="10.112254777249431"><ele>389.0</ele><time>2026-04-18T08:55:24Z</time></trkpt><trkpt lat="44.290355164493334" lon="10.112463524055242"><ele>389.0</ele><time>2026-04-18T08:55:25Z</time></trkpt><trkpt lat="44.29042706020268" lon="10.112673086053857"><ele>389.0</ele><time>2026-04-18T08:55:26Z</time></trkpt><trkpt lat="44.290476492510656" lon="10.112889292255568"><ele>389.0</ele><time>2026-04-18T08:55:27Z</time></trkpt><trkpt lat="44.29052656101129" lon="10.113099788793667"><ele>401.3333333333333</ele><time>2026-04-18T08:55:28Z</time></trkpt><trkpt lat="44.29059295146089" lon="10.113329101186652"><ele>413.66666666666663</ele><time>2026-04-18T08:55:29Z</time></trkpt><trkpt lat="44.290614801725" lon="10.113576100789112"><ele>426.0</ele><time>2026-04-18T08:55:30Z</time></trkpt><trkpt lat="44.290653186540546" lon="10.113820060721496"><ele>426.0</ele><time>2026-04-18T08:55:31Z</time></trkpt><trkpt lat="44.29069749967632" lon="10.114051762066715"><ele>426.0</ele><time>2026-04-18T08:55:32Z</time></trkpt><trkpt lat="44.290739010724096" lon="10.114291504191248"><ele>426.0</ele><time>2026-04-18T08:55:33Z</time></trkpt><trkpt lat="44.290770924327006" lon="10.114528873969928"><ele>424.33333333333337</ele><time>2026-04-18T08:55:34Z</time></trkpt><trkpt lat="44.290806053789694" lon="10.114773362831873"><ele>422.6666666666667</ele><time>2026-04-18T08:55:35Z</time></trkpt><trkpt lat="44.29078926174741" lon="10.115007712326028"><ele>421.0</ele><time>2026-04-18T08:55:36Z</time></trkpt><trkpt lat="44.29081369136517" lon="10.115205705905968"><ele>420.25</ele><time>2026-04-18T08:55:37Z</time></trkpt><trkpt lat="44.29084480237255" lon="10.11537307487517"><ele>419.5</ele><time>2026-04-18T08:55:38Z</time></trkpt><trkpt lat="44.29092713531295" lon="10.115528773579515"><ele>418.75</ele><time>2026-04-18T08:55:39Z</time></trkpt><trkpt lat="44.29105724211797" lon="10.115683900662637"><ele>418.0</ele><time>2026-04-18T08:55:40Z</time></trkpt><trkpt lat="44.29118470412106" lon="10.115841114771987"><ele>417.4</ele><time>2026-04-18T08:55:41Z</time></trkpt><trkpt lat="44.291288169133914" lon="10.115968432743694"><ele>416.79999999999995</ele><time>2026-04-18T08:55:42Z</time></trkpt><trkpt lat="44.29136424643954" lon="10.116031832069822"><ele>416.2</ele><time>2026-04-18T08:55:43Z</time></trkpt><trkpt lat="44.29145553149484" lon="10.116036644852537"><ele>415.6</ele><time>2026-04-18T08:55:44Z</time></trkpt><trkpt lat="44.291562360263924" lon="10.115963357119096"><ele>415.0</ele><time>2026-04-18T08:55:45Z</time></trkpt><trkpt lat="44.29169083642717" lon="10.115838977676042"><ele>429.0</ele><time>2026-04-18T08:55:46Z</time></trkpt><trkpt lat="44.29183465824516" lon="10.115714676962114"><ele>443.0</ele><time>2026-04-18T08:55:47Z</time></trkpt><trkpt lat="44.291969598480506" lon="10.115617388186374"><ele>457.0</ele><time>2026-04-18T08:55:48Z</time></trkpt><trkpt lat="44.29209357492608" lon="10.115552101050485"><ele>457.0</ele><time>2026-04-18T08:55:49Z</time></trkpt><trkpt lat="44.29219416571551" lon="10.115603146760868"><ele>457.0</ele><time>2026-04-18T08:55:50Z</time></trkpt><trkpt lat="44.29227568912967" lon="10.115688611039372"><ele>457.0</ele><time>2026-04-18T08:55:51Z</time></trkpt><trkpt lat="44.292342163804776" lon="10.115848200717862"><ele>457.0</ele><time>2026-04-18T08:55:52Z</time></trkpt><trkpt lat="44.292348790056856" lon="10.116013877553304"><ele>455.0</ele><time>2026-04-18T08:55:53Z</time></trkpt><trkpt lat="44.29232791286538" lon="10.116131166407513"><ele>453.00000000000006</ele><time>2026-04-18T08:55:54Z</time></trkpt><trkpt lat="44.29225426601438" lon="10.116183535447062"><ele>451.00000000000006</ele><time>2026-04-18T08:55:55Z</time></trkpt><trkpt lat="44.29215993661776" lon="10.116228931063986"><ele>449.0</ele><time>2026-04-18T08:55:56Z</time></trkpt><trkpt lat="44.29202964575039" lon="10.11629625283288"><ele>447.0</ele><time>2026-04-18T08:55:57Z</time></trkpt><trkpt lat="44.291884518147164" lon="10.116405013480358"><ele>445.66666666666663</ele><time>2026-04-18T08:55:58Z</time></trkpt><trkpt lat="44.291741210992896" lon="10.11650876387332"><ele>444.3333333333333</ele><time>2026-04-18T08:55:58.999Z</time></trkpt><trkpt lat="44.291575972828184" lon="10.116595354295946"><ele>443.0</ele><time>2026-04-18T08:55:59.999Z</time></trkpt><trkpt lat="44.2914019915246" lon="10.116677478298055"><ele>438.4</ele><time>2026-04-18T08:56:00.999Z</time></trkpt><trkpt lat="44.29125352871465" lon="10.116730226465043"><ele>433.79999999999995</ele><time>2026-04-18T08:56:01.999Z</time></trkpt><trkpt lat="44.291156817449895" lon="10.116785439936367"><ele>429.2</ele><time>2026-04-18T08:56:02.999Z</time></trkpt><trkpt lat="44.2910999178756" lon="10.116852946105556"><ele>424.6</ele><time>2026-04-18T08:56:03.999Z</time></trkpt><trkpt lat="44.291074422800534" lon="10.116981713729638"><ele>420.0</ele><time>2026-04-18T08:56:04.999Z</time></trkpt><trkpt lat="44.291107584805744" lon="10.117151335964682"><ele>420.0</ele><time>2026-04-18T08:56:05.999Z</time></trkpt><trkpt lat="44.29118602395695" lon="10.117360091641103"><ele>420.0</ele><time>2026-04-18T08:56:06.999Z</time></trkpt><trkpt lat="44.29124389054093" lon="10.117595095517874"><ele>420.0</ele><time>2026-04-18T08:56:07.999Z</time></trkpt><trkpt lat="44.29128465781715" lon="10.117830556084431"><ele>421.66666666666663</ele><time>2026-04-18T08:56:08.999Z</time></trkpt><trkpt lat="44.29131551013442" lon="10.118100932994984"><ele>423.3333333333333</ele><time>2026-04-18T08:56:09.999Z</time></trkpt><trkpt lat="44.29134210638089" lon="10.118391678220272"><ele>425.0</ele><time>2026-04-18T08:56:10.999Z</time></trkpt><trkpt lat="44.29137314410543" lon="10.11870055803764"><ele>425.3333333333333</ele><time>2026-04-18T08:56:11.999Z</time></trkpt><trkpt lat="44.29140176233506" lon="10.118983639997705"><ele>425.66666666666663</ele><time>2026-04-18T08:56:12.999Z</time></trkpt><trkpt lat="44.29143096428802" lon="10.119272495971046"><ele>426.0</ele><time>2026-04-18T08:56:13.999Z</time></trkpt><trkpt lat="44.29147539777258" lon="10.119548869730659"><ele>440.33333333333337</ele><time>2026-04-18T08:56:14.999Z</time></trkpt><trkpt lat="44.29149499221208" lon="10.119818695659184"><ele>454.6666666666667</ele><time>2026-04-18T08:56:15.999Z</time></trkpt><trkpt lat="44.29151799698414" lon="10.120077644864452"><ele>469.0</ele><time>2026-04-18T08:56:16.999Z</time></trkpt><trkpt lat="44.29155016924882" lon="10.120340883924406"><ele>469.0</ele><time>2026-04-18T08:56:17.999Z</time></trkpt><trkpt lat="44.291599954011545" lon="10.120591430991986"><ele>469.0</ele><time>2026-04-18T08:56:18.999Z</time></trkpt><trkpt lat="44.29163258308568" lon="10.120828426896708"><ele>469.0</ele><time>2026-04-18T08:56:19.999Z</time></trkpt><trkpt lat="44.291653857234316" lon="10.12106380512531"><ele>469.0</ele><time>2026-04-18T08:56:20.999Z</time></trkpt><trkpt lat="44.29163844372321" lon="10.121303105085532"><ele>469.0</ele><time>2026-04-18T08:56:21.999Z</time></trkpt><trkpt lat="44.29158313853028" lon="10.121572073257497"><ele>469.0</ele><time>2026-04-18T08:56:22.999Z</time></trkpt><trkpt lat="44.29151841543932" lon="10.121857560633316"><ele>470.6666666666667</ele><time>2026-04-18T08:56:23.999Z</time></trkpt><trkpt lat="44.29147838940884" lon="10.122129987473555"><ele>472.33333333333337</ele><time>2026-04-18T08:56:24.999Z</time></trkpt><trkpt lat="44.29142559568288" lon="10.122396144651788"><ele>474.0</ele><time>2026-04-18T08:56:25.999Z</time></trkpt><trkpt lat="44.291378531166906" lon="10.122651449204332"><ele>471.0</ele><time>2026-04-18T08:56:26.999Z</time></trkpt><trkpt lat="44.29132922165326" lon="10.122899131282837"><ele>468.0</ele><time>2026-04-18T08:56:27.999Z</time></trkpt><trkpt lat="44.291281616441026" lon="10.12313098916394"><ele>465.0</ele><time>2026-04-18T08:56:28.999Z</time></trkpt><trkpt lat="44.29122891634809" lon="10.123351361567286"><ele>465.0</ele><time>2026-04-18T08:56:29.999Z</time></trkpt><trkpt lat="44.29123248159344" lon="10.123588718582065"><ele>465.0</ele><time>2026-04-18T08:56:30.999Z</time></trkpt><trkpt lat="44.29124552027744" lon="10.123843689326986"><ele>465.0</ele><time>2026-04-18T08:56:31.999Z</time></trkpt><trkpt lat="44.29127203040162" lon="10.124100779467993"><ele>466.25</ele><time>2026-04-18T08:56:32.999Z</time></trkpt><trkpt lat="44.29128210029837" lon="10.12432528972878"><ele>467.5</ele><time>2026-04-18T08:56:33.999Z</time></trkpt><trkpt lat="44.29133013355566" lon="10.124497598978797"><ele>468.75</ele><time>2026-04-18T08:56:34.999Z</time></trkpt><trkpt lat="44.29140123706691" lon="10.124671357343836"><ele>470.0</ele><time>2026-04-18T08:56:35.999Z</time></trkpt><trkpt lat="44.29151685432565" lon="10.124843567852848"><ele>478.3333333333333</ele><time>2026-04-18T08:56:36.999Z</time></trkpt><trkpt lat="44.29159662317657" lon="10.125044141619147"><ele>486.66666666666663</ele><time>2026-04-18T08:56:37.999Z</time></trkpt><trkpt lat="44.291671345869865" lon="10.125245185868568"><ele>495.0</ele><time>2026-04-18T08:56:38.999Z</time></trkpt><trkpt lat="44.29174637692079" lon="10.125429020290115"><ele>495.0</ele><time>2026-04-18T08:56:39.999Z</time></trkpt><trkpt lat="44.29179776211995" lon="10.125604097801492"><ele>495.0</ele><time>2026-04-18T08:56:40.999Z</time></trkpt><trkpt lat="44.291852636543354" lon="10.125765189329892"><ele>495.0</ele><time>2026-04-18T08:56:41.999Z</time></trkpt><trkpt lat="44.29191889126245" lon="10.12591018799641"><ele>495.0</ele><time>2026-04-18T08:56:42.999Z</time></trkpt><trkpt lat="44.29202791128321" lon="10.12602477341064"><ele>494.33333333333337</ele><time>2026-04-18T08:56:43.999Z</time></trkpt><trkpt lat="44.292179851171944" lon="10.126089234233115"><ele>493.6666666666667</ele><time>2026-04-18T08:56:44.999Z</time></trkpt><trkpt lat="44.29235103092107" lon="10.126084525776596"><ele>493.0</ele><time>2026-04-18T08:56:45.999Z</time></trkpt><trkpt lat="44.29252484603961" lon="10.12604243938539"><ele>497.79999999999995</ele><time>2026-04-18T08:56:46.999Z</time></trkpt><trkpt lat="44.292651743131046" lon="10.126061171415678"><ele>502.59999999999997</ele><time>2026-04-18T08:56:47.999Z</time></trkpt><trkpt lat="44.29272011163674" lon="10.12612467669698"><ele>507.40000000000003</ele><time>2026-04-18T08:56:48.999Z</time></trkpt><trkpt lat="44.292743405556664" lon="10.126249520878785"><ele>512.2</ele><time>2026-04-18T08:56:49.999Z</time></trkpt><trkpt lat="44.2927641331866" lon="10.126358033547715"><ele>517.0</ele><time>2026-04-18T08:56:50.999Z</time></trkpt><trkpt lat="44.29271165864726" lon="10.126433708928532"><ele>517.0</ele><time>2026-04-18T08:56:51.999Z</time></trkpt><trkpt lat="44.292629738210714" lon="10.126527624797422"><ele>517.0</ele><time>2026-04-18T08:56:52.999Z</time></trkpt><trkpt lat="44.292519958068254" lon="10.12665581329031"><ele>517.0</ele><time>2026-04-18T08:56:53.999Z</time></trkpt><trkpt lat="44.29241004482663" lon="10.126752690976977"><ele>517.0</ele><time>2026-04-18T08:56:54.999Z</time></trkpt><trkpt lat="44.292304840309555" lon="10.126855045394478"><ele>514.75</ele><time>2026-04-18T08:56:56Z</time></trkpt><trkpt lat="44.29218937284363" lon="10.126884222020346"><ele>512.5</ele><time>2026-04-18T08:56:57Z</time></trkpt><trkpt lat="44.29207409704062" lon="10.126916723221832"><ele>510.25</ele><time>2026-04-18T08:56:58Z</time></trkpt><trkpt lat="44.29196425061236" lon="10.126927924864937"><ele>508.0</ele><time>2026-04-18T08:56:59Z</time></trkpt><trkpt lat="44.29184725168192" lon="10.126905315266056"><ele>508.0</ele><time>2026-04-18T08:57:00Z</time></trkpt><trkpt lat="44.29173629255084" lon="10.126849073885301"><ele>507.99999999999994</ele><time>2026-04-18T08:57:01Z</time></trkpt><trkpt lat="44.29163515099905" lon="10.126779635159947"><ele>507.99999999999994</ele><time>2026-04-18T08:57:02Z</time></trkpt><trkpt lat="44.29153943481526" lon="10.126697358849512"><ele>508.0</ele><time>2026-04-18T08:57:03Z</time></trkpt><trkpt lat="44.291453882504825" lon="10.126619566939931"><ele>508.0</ele><time>2026-04-18T08:57:04Z</time></trkpt><trkpt lat="44.291360909970265" lon="10.126582947803612"><ele>507.4</ele><time>2026-04-18T08:57:05Z</time></trkpt><trkpt lat="44.29126087688059" lon="10.126591089134168"><ele>506.79999999999995</ele><time>2026-04-18T08:57:06Z</time></trkpt><trkpt lat="44.29115672857532" lon="10.1266362249117"><ele>506.2</ele><time>2026-04-18T08:57:07Z</time></trkpt><trkpt lat="44.2910821120486" lon="10.126738300636815"><ele>505.6</ele><time>2026-04-18T08:57:08Z</time></trkpt><trkpt lat="44.291037648265764" lon="10.126881481205602"><ele>505.0</ele><time>2026-04-18T08:57:09Z</time></trkpt><trkpt lat="44.29099162115848" lon="10.127020126580554"><ele>505.0</ele><time>2026-04-18T08:57:10Z</time></trkpt><trkpt lat="44.29094047730023" lon="10.127182313789724"><ele>505.0</ele><time>2026-04-18T08:57:11Z</time></trkpt><trkpt lat="44.29088780508531" lon="10.127353248220718"><ele>505.0</ele><time>2026-04-18T08:57:12Z</time></trkpt><trkpt lat="44.29084826060715" lon="10.127530163908878"><ele>505.0</ele><time>2026-04-18T08:57:13Z</time></trkpt><trkpt lat="44.29079437726306" lon="10.127672825027577"><ele>507.6</ele><time>2026-04-18T08:57:14Z</time></trkpt><trkpt lat="44.290758617813566" lon="10.127816259382561"><ele>510.2</ele><time>2026-04-18T08:57:15Z</time></trkpt><trkpt lat="44.29074052888748" lon="10.127961755191308"><ele>512.8</ele><time>2026-04-18T08:57:16Z</time></trkpt><trkpt lat="44.29074501179947" lon="10.128097058848532"><ele>515.4</ele><time>2026-04-18T08:57:17Z</time></trkpt><trkpt lat="44.2907726987084" lon="10.128220460534752"><ele>518.0</ele><time>2026-04-18T08:57:18Z</time></trkpt><trkpt lat="44.29081973145544" lon="10.12833849084634"><ele>519.0</ele><time>2026-04-18T08:57:19Z</time></trkpt><trkpt lat="44.290845379663324" lon="10.128477526093207"><ele>520.0</ele><time>2026-04-18T08:57:20Z</time></trkpt><trkpt lat="44.29088669917928" lon="10.128609420799128"><ele>521.0</ele><time>2026-04-18T08:57:21Z</time></trkpt><trkpt lat="44.29092460576484" lon="10.128738455347753"><ele>522.0</ele><time>2026-04-18T08:57:22Z</time></trkpt><trkpt lat="44.290958902112166" lon="10.128877012354872"><ele>523.0</ele><time>2026-04-18T08:57:23Z</time></trkpt><trkpt lat="44.290982441928016" lon="10.129007066084764"><ele>523.3333333333334</ele><time>2026-04-18T08:57:24Z</time></trkpt><trkpt lat="44.29099351587587" lon="10.129132691829486"><ele>523.6666666666667</ele><time>2026-04-18T08:57:25Z</time></trkpt><trkpt lat="44.29099775483187" lon="10.129254891240969"><ele>524.0</ele><time>2026-04-18T08:57:26Z</time></trkpt><trkpt lat="44.29100649413167" lon="10.129363982688867"><ele>524.3333333333334</ele><time>2026-04-18T08:57:27Z</time></trkpt><trkpt lat="44.29104837973474" lon="10.129477944835083"><ele>524.6666666666666</ele><time>2026-04-18T08:57:28Z</time></trkpt><trkpt lat="44.291082790207405" lon="10.129579282785118"><ele>525.0</ele><time>2026-04-18T08:57:29Z</time></trkpt><trkpt lat="44.29113407577718" lon="10.129663143156296"><ele>525.0</ele><time>2026-04-18T08:57:30Z</time></trkpt><trkpt lat="44.29117934532088" lon="10.129752393787522"><ele>525.0</ele><time>2026-04-18T08:57:31Z</time></trkpt><trkpt lat="44.291220174287375" lon="10.129846875681714"><ele>525.0</ele><time>2026-04-18T08:57:32Z</time></trkpt><trkpt lat="44.29126151937971" lon="10.129944016197515"><ele>525.0</ele><time>2026-04-18T08:57:33Z</time></trkpt><trkpt lat="44.29129897581661" lon="10.130036657895555"><ele>525.0</ele><time>2026-04-18T08:57:34Z</time></trkpt><trkpt lat="44.291335447911926" lon="10.13012316629424"><ele>525.0</ele><time>2026-04-18T08:57:35Z</time></trkpt><trkpt lat="44.29136436423948" lon="10.130203368176685"><ele>525.8</ele><time>2026-04-18T08:57:36Z</time></trkpt><trkpt lat="44.29139876785843" lon="10.130279884407232"><ele>526.6</ele><time>2026-04-18T08:57:37Z</time></trkpt><trkpt lat="44.29145303211471" lon="10.130389812150394"><ele>527.4</ele><time>2026-04-18T08:57:39Z</time></trkpt><trkpt lat="44.29149017362093" lon="10.130469413657496"><ele>528.2</ele><time>2026-04-18T08:57:43Z</time></trkpt><trkpt lat="44.291516802614844" lon="10.130564766662362"><ele>529.0</ele><time>2026-04-18T08:58:21.999Z</time></trkpt><trkpt lat="44.29168869912474" lon="10.130469407139262"><ele>531.6666666666667</ele><time>2026-04-18T08:58:22.999Z</time></trkpt><trkpt lat="44.291994481111864" lon="10.130290301725681"><ele>534.3333333333334</ele><time>2026-04-18T08:58:28.999Z</time></trkpt><trkpt lat="44.29210294271178" lon="10.13025356232644"><ele>537.0</ele><time>2026-04-18T08:58:30.999Z</time></trkpt><trkpt lat="44.29216542233993" lon="10.1302269620158"><ele>537.0</ele><time>2026-04-18T08:58:32.999Z</time></trkpt><trkpt lat="44.29223001265328" lon="10.1302091090218"><ele>537.0</ele><time>2026-04-18T08:58:34.999Z</time></trkpt><trkpt lat="44.29231006329738" lon="10.130198202837812"><ele>537.0</ele><time>2026-04-18T08:58:36.999Z</time></trkpt><trkpt lat="44.29239457412679" lon="10.130161426659802"><ele>537.0</ele><time>2026-04-18T08:58:38.999Z</time></trkpt><trkpt lat="44.29250299973155" lon="10.130126282335656"><ele>537.0</ele><time>2026-04-18T08:58:40.999Z</time></trkpt><trkpt lat="44.292622992744256" lon="10.13012357110306"><ele>537.4</ele><time>2026-04-18T08:58:42.999Z</time></trkpt><trkpt lat="44.29272234396155" lon="10.130134066894447"><ele>537.8000000000001</ele><time>2026-04-18T08:58:44.999Z</time></trkpt><trkpt lat="44.29281881450913" lon="10.130139498273861"><ele>538.2</ele><time>2026-04-18T08:58:46.999Z</time></trkpt><trkpt lat="44.29291388297297" lon="10.130154486716357"><ele>538.6</ele><time>2026-04-18T08:58:48.999Z</time></trkpt><trkpt lat="44.29304330740644" lon="10.130179946664713"><ele>539.0</ele><time>2026-04-18T08:58:50.999Z</time></trkpt><trkpt lat="44.29311595297103" lon="10.130225030116842"><ele>538.3333333333333</ele><time>2026-04-18T08:58:51.999Z</time></trkpt><trkpt lat="44.29317853825438" lon="10.130277210847057"><ele>537.6666666666666</ele><time>2026-04-18T08:58:52.999Z</time></trkpt><trkpt lat="44.29323630810038" lon="10.130324977691348"><ele>537.0</ele><time>2026-04-18T08:58:53.999Z</time></trkpt><trkpt lat="44.293304196814354" lon="10.130402240419892"><ele>536.3333333333334</ele><time>2026-04-18T08:58:55.999Z</time></trkpt><trkpt lat="44.29329043970173" lon="10.130509428503434"><ele>535.6666666666667</ele><time>2026-04-18T08:58:58.999Z</time></trkpt><trkpt lat="44.29330696484088" lon="10.130659562258364"><ele>535.0</ele><time>2026-04-18T08:59:00.999Z</time></trkpt><trkpt lat="44.29329284221807" lon="10.13083833945629"><ele>535.0</ele><time>2026-04-18T08:59:03Z</time></trkpt><trkpt lat="44.293289866721956" lon="10.130938379961366"><ele>535.0</ele><time>2026-04-18T08:59:04Z</time></trkpt><trkpt lat="44.293284468250434" lon="10.131041443596274"><ele>535.0</ele><time>2026-04-18T08:59:05Z</time></trkpt><trkpt lat="44.293290346465334" lon="10.131152131843084"><ele>535.0</ele><time>2026-04-18T08:59:06Z</time></trkpt><trkpt lat="44.293282517050756" lon="10.131262232606879"><ele>535.0</ele><time>2026-04-18T08:59:07Z</time></trkpt><trkpt lat="44.29327377627697" lon="10.131376287297346"><ele>535.0</ele><time>2026-04-18T08:59:08Z</time></trkpt><trkpt lat="44.293263031309806" lon="10.13148917812685"><ele>534.1666666666667</ele><time>2026-04-18T08:59:09Z</time></trkpt><trkpt lat="44.29325109879725" lon="10.131601908050753"><ele>533.3333333333334</ele><time>2026-04-18T08:59:10Z</time></trkpt><trkpt lat="44.29324116945805" lon="10.131711113566356"><ele>532.5</ele><time>2026-04-18T08:59:11Z</time></trkpt><trkpt lat="44.29323342782621" lon="10.131821439063645"><ele>531.6666666666666</ele><time>2026-04-18T08:59:12Z</time></trkpt><trkpt lat="44.2932279268485" lon="10.131932127860134"><ele>530.8333333333333</ele><time>2026-04-18T08:59:13Z</time></trkpt><trkpt lat="44.293219003859456" lon="10.132044767060314"><ele>530.0</ele><time>2026-04-18T08:59:14Z</time></trkpt><trkpt lat="44.29320859543471" lon="10.132154122615884"><ele>530.0</ele><time>2026-04-18T08:59:15Z</time></trkpt><trkpt lat="44.293199493272475" lon="10.132245217000241"><ele>530.0</ele><time>2026-04-18T08:59:16Z</time></trkpt><trkpt lat="44.29318736925737" lon="10.132399511689258"><ele>530.0</ele><time>2026-04-18T08:59:18Z</time></trkpt><trkpt lat="44.29318551550799" lon="10.13255427522224"><ele>530.0</ele><time>2026-04-18T08:59:20Z</time></trkpt><trkpt lat="44.29317743043233" lon="10.13272785038828"><ele>530.0</ele><time>2026-04-18T08:59:22Z</time></trkpt><trkpt lat="44.2931699931721" lon="10.132866004921686"><ele>529.1666666666666</ele><time>2026-04-18T08:59:24Z</time></trkpt><trkpt lat="44.29311184831448" lon="10.132953180057092"><ele>528.3333333333333</ele><time>2026-04-18T08:59:26Z</time></trkpt><trkpt lat="44.29299834601961" lon="10.132968646821071"><ele>527.5</ele><time>2026-04-18T08:59:28Z</time></trkpt><trkpt lat="44.29293561873417" lon="10.132979166595746"><ele>526.6666666666666</ele><time>2026-04-18T08:59:29Z</time></trkpt><trkpt lat="44.29287346549749" lon="10.13296183111386"><ele>525.8333333333334</ele><time>2026-04-18T08:59:30Z</time></trkpt><trkpt lat="44.29281033349101" lon="10.132949411193504"><ele>525.0</ele><time>2026-04-18T08:59:31Z</time></trkpt><trkpt lat="44.29270622205112" lon="10.132933004563922"><ele>523.2</ele><time>2026-04-18T08:59:33Z</time></trkpt><trkpt lat="44.292615075561194" lon="10.132917513498029"><ele>521.4</ele><time>2026-04-18T08:59:35Z</time></trkpt><trkpt lat="44.292547067007604" lon="10.13290533607413"><ele>519.6</ele><time>2026-04-18T08:59:37Z</time></trkpt><trkpt lat="44.29262158970867" lon="10.132915536707529"><ele>517.8</ele><time>2026-04-18T09:00:49.999Z</time></trkpt><trkpt lat="44.29278605003087" lon="10.132940240576348"><ele>516.0</ele><time>2026-04-18T09:00:51.999Z</time></trkpt><trkpt lat="44.29288628038372" lon="10.132953322273737"><ele>516.0</ele><time>2026-04-18T09:00:52.999Z</time></trkpt><trkpt lat="44.292972127227735" lon="10.13296446240713"><ele>516.0</ele><time>2026-04-18T09:00:53.999Z</time></trkpt><trkpt lat="44.29305034442961" lon="10.132965922645061"><ele>516.0</ele><time>2026-04-18T09:00:54.999Z</time></trkpt><trkpt lat="44.293116964585174" lon="10.13294297919174"><ele>516.0</ele><time>2026-04-18T09:00:55.999Z</time></trkpt><trkpt lat="44.293193641844525" lon="10.132917419752975"><ele>516.0</ele><time>2026-04-18T09:00:56.999Z</time></trkpt><trkpt lat="44.29323480836538" lon="10.132838354466012"><ele>516.0</ele><time>2026-04-18T09:00:57.999Z</time></trkpt><trkpt lat="44.29320129512645" lon="10.132591567376044"><ele>517.5</ele><time>2026-04-18T09:00:59.999Z</time></trkpt><trkpt lat="44.29319029753135" lon="10.132468251862466"><ele>519.0</ele><time>2026-04-18T09:01:00.999Z</time></trkpt><trkpt lat="44.29319702770104" lon="10.132347106701253"><ele>520.5</ele><time>2026-04-18T09:01:01.999Z</time></trkpt><trkpt lat="44.293213837187096" lon="10.132224694921845"><ele>522.0</ele><time>2026-04-18T09:01:02.999Z</time></trkpt><trkpt lat="44.29323051820069" lon="10.132104727145771"><ele>523.5</ele><time>2026-04-18T09:01:03.999Z</time></trkpt><trkpt lat="44.293243902097274" lon="10.131982822185403"><ele>525.0</ele><time>2026-04-18T09:01:04.999Z</time></trkpt><trkpt lat="44.29325365438636" lon="10.131856512415325"><ele>525.8333333333334</ele><time>2026-04-18T09:01:05.999Z</time></trkpt><trkpt lat="44.29326125118913" lon="10.131732342352167"><ele>526.6666666666666</ele><time>2026-04-18T09:01:06.999Z</time></trkpt><trkpt lat="44.293267704404485" lon="10.131615372412243"><ele>527.5</ele><time>2026-04-18T09:01:08Z</time></trkpt><trkpt lat="44.2932772971398" lon="10.131505119560229"><ele>528.3333333333333</ele><time>2026-04-18T09:01:09Z</time></trkpt><trkpt lat="44.29328462531053" lon="10.131403339194133"><ele>529.1666666666666</ele><time>2026-04-18T09:01:10Z</time></trkpt><trkpt lat="44.29328826234367" lon="10.131289449193316"><ele>530.0</ele><time>2026-04-18T09:01:11Z</time></trkpt><trkpt lat="44.29329332663646" lon="10.131180937727748"><ele>530.8333333333333</ele><time>2026-04-18T09:01:12Z</time></trkpt><trkpt lat="44.29329957784963" lon="10.131069598970985"><ele>531.6666666666666</ele><time>2026-04-18T09:01:13Z</time></trkpt><trkpt lat="44.293309457310926" lon="10.130959225315902"><ele>532.5</ele><time>2026-04-18T09:01:14Z</time></trkpt><trkpt lat="44.29331973240998" lon="10.13084227755107"><ele>533.3333333333334</ele><time>2026-04-18T09:01:15Z</time></trkpt><trkpt lat="44.29332061362902" lon="10.130725134807081"><ele>534.1666666666667</ele><time>2026-04-18T09:01:16Z</time></trkpt><trkpt lat="44.29331129370596" lon="10.130614203129884"><ele>535.0</ele><time>2026-04-18T09:01:17Z</time></trkpt><trkpt lat="44.29329913349442" lon="10.130479986611824"><ele>535.0</ele><time>2026-04-18T09:01:19Z</time></trkpt><trkpt lat="44.293365578495276" lon="10.130455487321926"><ele>535.0</ele><time>2026-04-18T09:01:22Z</time></trkpt><trkpt lat="44.29341127263981" lon="10.130531759999215"><ele>535.0</ele><time>2026-04-18T09:01:24Z</time></trkpt><trkpt lat="44.29347263921258" lon="10.130638868715254"><ele>535.0</ele><time>2026-04-18T09:01:26Z</time></trkpt><trkpt lat="44.29352656122671" lon="10.13073887600967"><ele>535.0</ele><time>2026-04-18T09:01:28Z</time></trkpt><trkpt lat="44.2935911602185" lon="10.130839026850168"><ele>535.0</ele><time>2026-04-18T09:01:30Z</time></trkpt><trkpt lat="44.29364221301565" lon="10.130919665937286"><ele>535.0</ele><time>2026-04-18T09:01:32Z</time></trkpt><trkpt lat="44.29369490783949" lon="10.131005401900575"><ele>535.0</ele><time>2026-04-18T09:01:34Z</time></trkpt><trkpt lat="44.29376162098666" lon="10.131103999323981"><ele>535.0</ele><time>2026-04-18T09:01:36Z</time></trkpt><trkpt lat="44.2938055417648" lon="10.131168488127189"><ele>535.0</ele><time>2026-04-18T09:01:37Z</time></trkpt><trkpt lat="44.29390427423129" lon="10.131311832123728"><ele>535.0</ele><time>2026-04-18T09:01:39Z</time></trkpt><trkpt lat="44.29398081145224" lon="10.13143694676368"><ele>535.8333333333334</ele><time>2026-04-18T09:01:41Z</time></trkpt><trkpt lat="44.294015698038955" lon="10.131538301133347"><ele>536.6666666666667</ele><time>2026-04-18T09:01:42Z</time></trkpt><trkpt lat="44.294049588445276" lon="10.131627762126541"><ele>537.5</ele><time>2026-04-18T09:01:43Z</time></trkpt><trkpt lat="44.29408352498019" lon="10.131721330005986"><ele>538.3333333333334</ele><time>2026-04-18T09:01:44Z</time></trkpt><trkpt lat="44.29413258595269" lon="10.131806022874486"><ele>539.1666666666666</ele><time>2026-04-18T09:01:45Z</time></trkpt><trkpt lat="44.29416615685727" lon="10.131904884440585"><ele>540.0</ele><time>2026-04-18T09:01:46Z</time></trkpt><trkpt lat="44.29419776667963" lon="10.132000816802611"><ele>540.0</ele><time>2026-04-18T09:01:47Z</time></trkpt><trkpt lat="44.294224442168264" lon="10.132086803332664"><ele>540.0</ele><time>2026-04-18T09:01:48Z</time></trkpt><trkpt lat="44.29427390114035" lon="10.132205703107065"><ele>540.0</ele><time>2026-04-18T09:01:50Z</time></trkpt><trkpt lat="44.29431740047305" lon="10.132287396796013"><ele>540.0</ele><time>2026-04-18T09:01:52Z</time></trkpt><trkpt lat="44.294360226350335" lon="10.13237175434667"><ele>540.0</ele><time>2026-04-18T09:01:54Z</time></trkpt><trkpt lat="44.29439952321185" lon="10.132473586994804"><ele>540.0</ele><time>2026-04-18T09:01:56Z</time></trkpt><trkpt lat="44.294463500653045" lon="10.13260992688311"><ele>539.4</ele><time>2026-04-18T09:01:58Z</time></trkpt><trkpt lat="44.29448216530989" lon="10.13276289025698"><ele>538.8</ele><time>2026-04-18T09:02:00Z</time></trkpt><trkpt lat="44.294477028495024" lon="10.132966531705469"><ele>538.2</ele><time>2026-04-18T09:02:02Z</time></trkpt><trkpt lat="44.294466845893" lon="10.133063597151526"><ele>537.6</ele><time>2026-04-18T09:02:03Z</time></trkpt><trkpt lat="44.29446048583186" lon="10.13316481097095"><ele>537.0</ele><time>2026-04-18T09:02:04Z</time></trkpt><trkpt lat="44.29445549423825" lon="10.133261502307567"><ele>536.9999999999999</ele><time>2026-04-18T09:02:05Z</time></trkpt><trkpt lat="44.29444672607971" lon="10.13335869250904"><ele>537.0</ele><time>2026-04-18T09:02:06Z</time></trkpt><trkpt lat="44.29443851387131" lon="10.133456256584832"><ele>537.0</ele><time>2026-04-18T09:02:07Z</time></trkpt><trkpt lat="44.29443363524063" lon="10.133556850079655"><ele>537.0</ele><time>2026-04-18T09:02:08Z</time></trkpt><trkpt lat="44.294427024787076" lon="10.133655551666966"><ele>537.0</ele><time>2026-04-18T09:02:09Z</time></trkpt><trkpt lat="44.29442076396649" lon="10.133757136346464"><ele>536.9999999999999</ele><time>2026-04-18T09:02:10Z</time></trkpt><trkpt lat="44.2944175733281" lon="10.133859014091916"><ele>537.0</ele><time>2026-04-18T09:02:11Z</time></trkpt><trkpt lat="44.294415035447486" lon="10.133956953160919"><ele>537.2857142857142</ele><time>2026-04-18T09:02:12Z</time></trkpt><trkpt lat="44.29442429961398" lon="10.134057192487994"><ele>537.5714285714286</ele><time>2026-04-18T09:02:13Z</time></trkpt><trkpt lat="44.294445251082855" lon="10.134167966327341"><ele>537.8571428571429</ele><time>2026-04-18T09:02:14Z</time></trkpt><trkpt lat="44.29445452717381" lon="10.134289934534172"><ele>538.1428571428571</ele><time>2026-04-18T09:02:15Z</time></trkpt><trkpt lat="44.29445076505579" lon="10.134387453305944"><ele>538.4285714285714</ele><time>2026-04-18T09:02:16Z</time></trkpt><trkpt lat="44.29445647985671" lon="10.134476105845367"><ele>538.7142857142857</ele><time>2026-04-18T09:02:17Z</time></trkpt><trkpt lat="44.29446011937651" lon="10.134573164459658"><ele>539.0</ele><time>2026-04-18T09:02:18Z</time></trkpt><trkpt lat="44.29446235344893" lon="10.134673475163506"><ele>539.0</ele><time>2026-04-18T09:02:19Z</time></trkpt><trkpt lat="44.29445774716902" lon="10.134774042455348"><ele>539.0</ele><time>2026-04-18T09:02:20Z</time></trkpt><trkpt lat="44.29444466399757" lon="10.134869899237197"><ele>539.0</ele><time>2026-04-18T09:02:21Z</time></trkpt><trkpt lat="44.29441958478565" lon="10.134965002586785"><ele>539.0</ele><time>2026-04-18T09:02:21.999Z</time></trkpt><trkpt lat="44.294372434164224" lon="10.13503238255695"><ele>539.0</ele><time>2026-04-18T09:02:22.999Z</time></trkpt><trkpt lat="44.294309370635204" lon="10.135156855403256"><ele>539.0</ele><time>2026-04-18T09:02:24.999Z</time></trkpt><trkpt lat="44.29425449093432" lon="10.135222398606965"><ele>539.6666666666666</ele><time>2026-04-18T09:02:26.999Z</time></trkpt><trkpt lat="44.29419039019307" lon="10.13531644681492"><ele>540.3333333333333</ele><time>2026-04-18T09:02:29.999Z</time></trkpt><trkpt lat="44.29413980877542" lon="10.135392151467942"><ele>541.0</ele><time>2026-04-18T09:02:31.999Z</time></trkpt><trkpt lat="44.29409490621124" lon="10.135456673062835"><ele>541.6666666666666</ele><time>2026-04-18T09:02:36.999Z</time></trkpt><trkpt lat="44.29414402619879" lon="10.135385839265098"><ele>542.3333333333334</ele><time>2026-04-18T09:03:30Z</time></trkpt><trkpt lat="44.2941000243642" lon="10.13544940912226"><ele>543.0</ele><time>2026-04-18T09:03:47Z</time></trkpt><trkpt lat="44.294189765161995" lon="10.135469931401039"><ele>543.0</ele><time>2026-04-18T09:05:36.016Z</time></trkpt><trkpt lat="44.294115348053055" lon="10.13550555289528"><ele>543.0</ele><time>2026-04-18T09:15:20.999Z</time></trkpt><trkpt lat="44.294048481834565" lon="10.135524172368717"><ele>543.0</ele><time>2026-04-18T09:15:22.999Z</time></trkpt><trkpt lat="44.29400022220149" lon="10.13559840427418"><ele>543.0</ele><time>2026-04-18T09:15:23.999Z</time></trkpt><trkpt lat="44.29395974002286" lon="10.135686778217773"><ele>543.0</ele><time>2026-04-18T09:15:24.999Z</time></trkpt><trkpt lat="44.29389778405858" lon="10.13582209148495"><ele>543.0</ele><time>2026-04-18T09:15:26.999Z</time></trkpt><trkpt lat="44.29389116426833" lon="10.135959745071343"><ele>543.8333333333334</ele><time>2026-04-18T09:15:28.999Z</time></trkpt><trkpt lat="44.29387010080088" lon="10.136076393906228"><ele>544.6666666666666</ele><time>2026-04-18T09:15:31.999Z</time></trkpt><trkpt lat="44.29384807080062" lon="10.136164908237182"><ele>545.5</ele><time>2026-04-18T09:15:47.999Z</time></trkpt><trkpt lat="44.29387394968346" lon="10.13631547716326"><ele>546.3333333333333</ele><time>2026-04-18T09:15:49.999Z</time></trkpt><trkpt lat="44.293929891519156" lon="10.136381067300283"><ele>547.1666666666666</ele><time>2026-04-18T09:15:50.999Z</time></trkpt><trkpt lat="44.29402087373118" lon="10.13636606557053"><ele>548.0</ele><time>2026-04-18T09:15:51.999Z</time></trkpt><trkpt lat="44.2941134193737" lon="10.136335402801521"><ele>548.0</ele><time>2026-04-18T09:15:52.999Z</time></trkpt><trkpt lat="44.294216898391674" lon="10.136301704228822"><ele>548.0</ele><time>2026-04-18T09:15:53.999Z</time></trkpt><trkpt lat="44.29431662927205" lon="10.136263668404029"><ele>548.0</ele><time>2026-04-18T09:15:54.999Z</time></trkpt><trkpt lat="44.29441064254451" lon="10.13621456344086"><ele>548.0</ele><time>2026-04-18T09:15:55.999Z</time></trkpt><trkpt lat="44.29450833974642" lon="10.136175392764969"><ele>548.0</ele><time>2026-04-18T09:15:56.999Z</time></trkpt><trkpt lat="44.29462055888467" lon="10.136164195182428"><ele>548.0</ele><time>2026-04-18T09:15:57.999Z</time></trkpt><trkpt lat="44.294715951595784" lon="10.136243714146078"><ele>548.0</ele><time>2026-04-18T09:15:58.999Z</time></trkpt><trkpt lat="44.294819704472914" lon="10.136325741404715"><ele>548.0</ele><time>2026-04-18T09:15:59.999Z</time></trkpt><trkpt lat="44.29492341055772" lon="10.136412225934773"><ele>548.0</ele><time>2026-04-18T09:16:00.999Z</time></trkpt><trkpt lat="44.295022845544395" lon="10.136485717485789"><ele>550.4</ele><time>2026-04-18T09:16:01.999Z</time></trkpt><trkpt lat="44.295110663059056" lon="10.136526569382866"><ele>552.8</ele><time>2026-04-18T09:16:02.999Z</time></trkpt><trkpt lat="44.29521177504193" lon="10.136511764994912"><ele>555.2</ele><time>2026-04-18T09:16:03.999Z</time></trkpt><trkpt lat="44.29532578348155" lon="10.13645839463117"><ele>557.6</ele><time>2026-04-18T09:16:04.999Z</time></trkpt><trkpt lat="44.295446424229254" lon="10.13638355243927"><ele>560.0</ele><time>2026-04-18T09:16:05.999Z</time></trkpt><trkpt lat="44.29555515420136" lon="10.136314046536853"><ele>558.75</ele><time>2026-04-18T09:16:06.999Z</time></trkpt><trkpt lat="44.2956418415733" lon="10.136206122226337"><ele>557.5</ele><time>2026-04-18T09:16:08Z</time></trkpt><trkpt lat="44.29570268961864" lon="10.136046534556337"><ele>556.25</ele><time>2026-04-18T09:16:09Z</time></trkpt><trkpt lat="44.29575344836401" lon="10.135883099814368"><ele>555.0</ele><time>2026-04-18T09:16:10Z</time></trkpt><trkpt lat="44.29578759392554" lon="10.135757683628187"><ele>555.0</ele><time>2026-04-18T09:16:11Z</time></trkpt><trkpt lat="44.295833394638144" lon="10.135683292854784"><ele>555.0</ele><time>2026-04-18T09:16:12Z</time></trkpt><trkpt lat="44.295910055990504" lon="10.135657315360321"><ele>555.0</ele><time>2026-04-18T09:16:13Z</time></trkpt><trkpt lat="44.29599315918229" lon="10.13568225680437"><ele>555.0</ele><time>2026-04-18T09:16:14Z</time></trkpt><trkpt lat="44.29606342108048" lon="10.135767936512035"><ele>555.0</ele><time>2026-04-18T09:16:15Z</time></trkpt><trkpt lat="44.29608962880941" lon="10.135963361482547"><ele>555.0</ele><time>2026-04-18T09:16:16Z</time></trkpt><trkpt lat="44.29616064758054" lon="10.136090349241229"><ele>555.0</ele><time>2026-04-18T09:16:17Z</time></trkpt><trkpt lat="44.296247227788655" lon="10.136191580865763"><ele>555.0</ele><time>2026-04-18T09:16:18Z</time></trkpt><trkpt lat="44.29636254236267" lon="10.136220455970488"><ele>555.0</ele><time>2026-04-18T09:16:19Z</time></trkpt><trkpt lat="44.29646754014906" lon="10.13620877862459"><ele>554.3333333333334</ele><time>2026-04-18T09:16:20Z</time></trkpt><trkpt lat="44.296538439398844" lon="10.136228452805362"><ele>553.6666666666666</ele><time>2026-04-18T09:16:21Z</time></trkpt><trkpt lat="44.29660151235409" lon="10.13629527245893"><ele>553.0</ele><time>2026-04-18T09:16:22Z</time></trkpt><trkpt lat="44.296658274071476" lon="10.136394753176901"><ele>552.3333333333333</ele><time>2026-04-18T09:16:23Z</time></trkpt><trkpt lat="44.29670622775242" lon="10.136513614824398"><ele>551.6666666666666</ele><time>2026-04-18T09:16:24Z</time></trkpt><trkpt lat="44.296733008712394" lon="10.136638356897551"><ele>551.0</ele><time>2026-04-18T09:16:25Z</time></trkpt><trkpt lat="44.29676076193437" lon="10.136745680283594"><ele>551.0</ele><time>2026-04-18T09:16:26Z</time></trkpt><trkpt lat="44.29680881708206" lon="10.136831736954672"><ele>551.0</ele><time>2026-04-18T09:16:27Z</time></trkpt><trkpt lat="44.296866427885845" lon="10.136908539695558"><ele>551.0</ele><time>2026-04-18T09:16:29Z</time></trkpt><trkpt lat="44.296897280175536" lon="10.136997455439483"><ele>551.0</ele><time>2026-04-18T09:16:32Z</time></trkpt><trkpt lat="44.29693648650214" lon="10.137110618972233"><ele>551.0</ele><time>2026-04-18T09:16:34Z</time></trkpt><trkpt lat="44.29700800191142" lon="10.137181622306553"><ele>551.0</ele><time>2026-04-18T09:16:35Z</time></trkpt><trkpt lat="44.297071909572885" lon="10.137268425010872"><ele>551.0</ele><time>2026-04-18T09:16:36Z</time></trkpt><trkpt lat="44.29713024334354" lon="10.137366294470146"><ele>551.0</ele><time>2026-04-18T09:16:37Z</time></trkpt><trkpt lat="44.29717391828982" lon="10.137460590375964"><ele>551.0</ele><time>2026-04-18T09:16:38Z</time></trkpt><trkpt lat="44.29718215127848" lon="10.137573713253596"><ele>551.0</ele><time>2026-04-18T09:16:39Z</time></trkpt><trkpt lat="44.29716980604199" lon="10.137666796530828"><ele>551.0</ele><time>2026-04-18T09:16:40Z</time></trkpt><trkpt lat="44.29710533166665" lon="10.13773164290211"><ele>551.0</ele><time>2026-04-18T09:16:41Z</time></trkpt><trkpt lat="44.29701734016368" lon="10.137772577207219"><ele>549.8333333333333</ele><time>2026-04-18T09:16:42Z</time></trkpt><trkpt lat="44.29694648332292" lon="10.137826548663076"><ele>548.6666666666666</ele><time>2026-04-18T09:16:43Z</time></trkpt><trkpt lat="44.2968804530462" lon="10.13779326652877"><ele>547.5</ele><time>2026-04-18T09:16:44Z</time></trkpt><trkpt lat="44.29680966396486" lon="10.137724976901467"><ele>546.3333333333334</ele><time>2026-04-18T09:16:45Z</time></trkpt><trkpt lat="44.29672701644448" lon="10.137696249864135"><ele>545.1666666666667</ele><time>2026-04-18T09:16:46Z</time></trkpt><trkpt lat="44.296632017644406" lon="10.137730069448724"><ele>544.0</ele><time>2026-04-18T09:16:47Z</time></trkpt><trkpt lat="44.29654193063537" lon="10.13780425044"><ele>544.0</ele><time>2026-04-18T09:16:48Z</time></trkpt><trkpt lat="44.296469038833564" lon="10.137884756533877"><ele>544.0</ele><time>2026-04-18T09:16:49Z</time></trkpt><trkpt lat="44.296410551679635" lon="10.137955639707975"><ele>544.0</ele><time>2026-04-18T09:16:50Z</time></trkpt><trkpt lat="44.29636396907999" lon="10.138027392541195"><ele>544.0</ele><time>2026-04-18T09:16:51Z</time></trkpt><trkpt lat="44.29631373275419" lon="10.138111054817612"><ele>544.0</ele><time>2026-04-18T09:16:52Z</time></trkpt><trkpt lat="44.29626703012054" lon="10.138241774831693"><ele>544.0</ele><time>2026-04-18T09:16:53Z</time></trkpt><trkpt lat="44.29621470596422" lon="10.138363971001564"><ele>543.4</ele><time>2026-04-18T09:16:54Z</time></trkpt><trkpt lat="44.29617817847273" lon="10.13850583424279"><ele>542.8</ele><time>2026-04-18T09:16:55Z</time></trkpt><trkpt lat="44.29613389855681" lon="10.138632957196858"><ele>542.2</ele><time>2026-04-18T09:16:56Z</time></trkpt><trkpt lat="44.29606239965719" lon="10.138715238515765"><ele>541.6</ele><time>2026-04-18T09:16:57Z</time></trkpt><trkpt lat="44.29601321544737" lon="10.138804385873488"><ele>541.0</ele><time>2026-04-18T09:16:58Z</time></trkpt><trkpt lat="44.29598853208732" lon="10.138916272378394"><ele>541.0</ele><time>2026-04-18T09:16:59Z</time></trkpt><trkpt lat="44.29598739222287" lon="10.139046949383875"><ele>541.0</ele><time>2026-04-18T09:17:00Z</time></trkpt><trkpt lat="44.295990230531686" lon="10.139209389144368"><ele>541.0</ele><time>2026-04-18T09:17:01Z</time></trkpt><trkpt lat="44.29598908852117" lon="10.139370688255331"><ele>541.0</ele><time>2026-04-18T09:17:02Z</time></trkpt><trkpt lat="44.29596071220424" lon="10.139530125971895"><ele>541.0</ele><time>2026-04-18T09:17:03Z</time></trkpt><trkpt lat="44.29594142991977" lon="10.139679366222902"><ele>543.4</ele><time>2026-04-18T09:17:04Z</time></trkpt><trkpt lat="44.295946547023746" lon="10.139803155065911"><ele>545.8</ele><time>2026-04-18T09:17:05Z</time></trkpt><trkpt lat="44.29595566234199" lon="10.13991658908538"><ele>548.1999999999999</ele><time>2026-04-18T09:17:06Z</time></trkpt><trkpt lat="44.29600700008713" lon="10.140039021920408"><ele>550.6</ele><time>2026-04-18T09:17:07Z</time></trkpt><trkpt lat="44.296082616201595" lon="10.140135834576057"><ele>553.0</ele><time>2026-04-18T09:17:08Z</time></trkpt><trkpt lat="44.29617584227915" lon="10.140216363428964"><ele>553.25</ele><time>2026-04-18T09:17:09Z</time></trkpt><trkpt lat="44.29627560968689" lon="10.140275719616966"><ele>553.5</ele><time>2026-04-18T09:17:10Z</time></trkpt><trkpt lat="44.29638905865916" lon="10.14029407093019"><ele>553.75</ele><time>2026-04-18T09:17:11Z</time></trkpt><trkpt lat="44.29652006350566" lon="10.14027443812573"><ele>554.0</ele><time>2026-04-18T09:17:12Z</time></trkpt><trkpt lat="44.29665315800188" lon="10.140253848701672"><ele>558.5</ele><time>2026-04-18T09:17:13Z</time></trkpt><trkpt lat="44.29679049210219" lon="10.140240589080578"><ele>563.0</ele><time>2026-04-18T09:17:13.999Z</time></trkpt><trkpt lat="44.29688254843874" lon="10.140255397902115"><ele>567.5</ele><time>2026-04-18T09:17:14.999Z</time></trkpt><trkpt lat="44.297007260951254" lon="10.140189663331133"><ele>572.0</ele><time>2026-04-18T09:17:15.999Z</time></trkpt><trkpt lat="44.29713705842226" lon="10.140104096939783"><ele>573.25</ele><time>2026-04-18T09:17:16.999Z</time></trkpt><trkpt lat="44.29726497926036" lon="10.140032582467393"><ele>574.5</ele><time>2026-04-18T09:17:17.999Z</time></trkpt><trkpt lat="44.29738084281076" lon="10.139958149227247"><ele>575.75</ele><time>2026-04-18T09:17:18.999Z</time></trkpt><trkpt lat="44.29748959596728" lon="10.139873450136543"><ele>577.0</ele><time>2026-04-18T09:17:19.999Z</time></trkpt><trkpt lat="44.29760290485422" lon="10.139864758707631"><ele>577.0</ele><time>2026-04-18T09:17:20.999Z</time></trkpt><trkpt lat="44.29770501550204" lon="10.139867579112437"><ele>577.0</ele><time>2026-04-18T09:17:21.999Z</time></trkpt><trkpt lat="44.29780397770172" lon="10.139892999100349"><ele>577.0</ele><time>2026-04-18T09:17:22.999Z</time></trkpt><trkpt lat="44.297896819608205" lon="10.139933575101358"><ele>577.0</ele><time>2026-04-18T09:17:23.999Z</time></trkpt><trkpt lat="44.29798387933793" lon="10.139984067210866"><ele>577.0</ele><time>2026-04-18T09:17:24.999Z</time></trkpt><trkpt lat="44.29802174726106" lon="10.140123921583097"><ele>577.8000000000001</ele><time>2026-04-18T09:17:25.999Z</time></trkpt><trkpt lat="44.298085863603845" lon="10.140235779502717"><ele>578.6</ele><time>2026-04-18T09:17:26.999Z</time></trkpt><trkpt lat="44.29811021690229" lon="10.140368753421615"><ele>579.4000000000001</ele><time>2026-04-18T09:17:27.999Z</time></trkpt><trkpt lat="44.29814348096875" lon="10.140498326411146"><ele>580.2</ele><time>2026-04-18T09:17:28.999Z</time></trkpt><trkpt lat="44.29816908032922" lon="10.140619950878653"><ele>581.0</ele><time>2026-04-18T09:17:30.999Z</time></trkpt><trkpt lat="44.29818807298815" lon="10.140735571574693"><ele>581.1666666666666</ele><time>2026-04-18T09:17:34.999Z</time></trkpt><trkpt lat="44.298199377488814" lon="10.140829067582354"><ele>581.3333333333333</ele><time>2026-04-18T09:17:35.999Z</time></trkpt><trkpt lat="44.29821159447584" lon="10.140952664226996"><ele>581.5</ele><time>2026-04-18T09:17:36.999Z</time></trkpt><trkpt lat="44.29822497357178" lon="10.141085688889277"><ele>581.6666666666666</ele><time>2026-04-18T09:17:37.999Z</time></trkpt><trkpt lat="44.29824042899433" lon="10.14117407735285"><ele>581.8333333333334</ele><time>2026-04-18T09:17:41.999Z</time></trkpt><trkpt lat="44.29821686290868" lon="10.140996781342647"><ele>582.0</ele><time>2026-04-18T09:17:47.999Z</time></trkpt><trkpt lat="44.2982319872491" lon="10.14088500918928"><ele>582.0</ele><time>2026-04-18T09:17:48.999Z</time></trkpt><trkpt lat="44.29821326830508" lon="10.14075965821655"><ele>582.0</ele><time>2026-04-18T09:17:49.999Z</time></trkpt><trkpt lat="44.298192928138995" lon="10.140621469062477"><ele>582.0</ele><time>2026-04-18T09:17:50.999Z</time></trkpt><trkpt lat="44.29816519402511" lon="10.140492058222744"><ele>582.0</ele><time>2026-04-18T09:17:51.999Z</time></trkpt><trkpt lat="44.29813643310271" lon="10.140368954735333"><ele>582.0</ele><time>2026-04-18T09:17:52.999Z</time></trkpt><trkpt lat="44.29810898401901" lon="10.140256974955033"><ele>581.1666666666666</ele><time>2026-04-18T09:17:53.999Z</time></trkpt><trkpt lat="44.29807678603857" lon="10.1401745397401"><ele>580.3333333333334</ele><time>2026-04-18T09:17:54.999Z</time></trkpt><trkpt lat="44.2980488548027" lon="10.140094304183421"><ele>579.5</ele><time>2026-04-18T09:17:59.999Z</time></trkpt><trkpt lat="44.29798367381993" lon="10.140233654445163"><ele>578.6666666666667</ele><time>2026-04-18T09:18:00.999Z</time></trkpt><trkpt lat="44.297989144309675" lon="10.140334612034822"><ele>577.8333333333334</ele><time>2026-04-18T09:18:01.999Z</time></trkpt><trkpt lat="44.297984152543314" lon="10.140461273908052"><ele>577.0</ele><time>2026-04-18T09:18:02.999Z</time></trkpt><trkpt lat="44.2979676152613" lon="10.14057844951919"><ele>577.0</ele><time>2026-04-18T09:18:03.999Z</time></trkpt><trkpt lat="44.297934778028115" lon="10.140710660364833"><ele>577.0</ele><time>2026-04-18T09:18:04.999Z</time></trkpt><trkpt lat="44.29788318377941" lon="10.140848361811086"><ele>577.0</ele><time>2026-04-18T09:18:05.999Z</time></trkpt><trkpt lat="44.29782067155013" lon="10.140990125623755"><ele>577.0</ele><time>2026-04-18T09:18:06.999Z</time></trkpt><trkpt lat="44.29775767779755" lon="10.141110409670414"><ele>577.0</ele><time>2026-04-18T09:18:07.999Z</time></trkpt><trkpt lat="44.29770411080415" lon="10.141218155387929"><ele>574.8000000000001</ele><time>2026-04-18T09:18:08.999Z</time></trkpt><trkpt lat="44.29766726667203" lon="10.141340024300538"><ele>572.6</ele><time>2026-04-18T09:18:09.999Z</time></trkpt><trkpt lat="44.29761059666832" lon="10.141462839092862"><ele>570.4000000000001</ele><time>2026-04-18T09:18:10.999Z</time></trkpt><trkpt lat="44.29755968931636" lon="10.141591299299566"><ele>568.2</ele><time>2026-04-18T09:18:11.999Z</time></trkpt><trkpt lat="44.29751087461487" lon="10.141733123956397"><ele>566.0</ele><time>2026-04-18T09:18:12.999Z</time></trkpt><trkpt lat="44.297470870600385" lon="10.14188609612528"><ele>566.0</ele><time>2026-04-18T09:18:14Z</time></trkpt><trkpt lat="44.29741000306592" lon="10.142034666409701"><ele>566.0</ele><time>2026-04-18T09:18:15Z</time></trkpt><trkpt lat="44.29735004178457" lon="10.14220374866008"><ele>566.0</ele><time>2026-04-18T09:18:16Z</time></trkpt><trkpt lat="44.29728804283442" lon="10.142348785792498"><ele>566.0</ele><time>2026-04-18T09:18:17Z</time></trkpt><trkpt lat="44.297242760805275" lon="10.14249103612428"><ele>564.8333333333333</ele><time>2026-04-18T09:18:18Z</time></trkpt><trkpt lat="44.29719452109304" lon="10.142593204919837"><ele>563.6666666666666</ele><time>2026-04-18T09:18:19Z</time></trkpt><trkpt lat="44.297161049944464" lon="10.142702095509556"><ele>562.5</ele><time>2026-04-18T09:18:20Z</time></trkpt><trkpt lat="44.297142687652205" lon="10.142842003415122"><ele>561.3333333333334</ele><time>2026-04-18T09:18:21Z</time></trkpt><trkpt lat="44.297097041411305" lon="10.14295574564792"><ele>560.1666666666667</ele><time>2026-04-18T09:18:22Z</time></trkpt><trkpt lat="44.297044290759075" lon="10.14303358903338"><ele>559.0</ele><time>2026-04-18T09:18:23Z</time></trkpt><trkpt lat="44.296970105739696" lon="10.143086179408842"><ele>559.0</ele><time>2026-04-18T09:18:24Z</time></trkpt><trkpt lat="44.296878338743625" lon="10.143161559814788"><ele>559.0</ele><time>2026-04-18T09:18:25Z</time></trkpt><trkpt lat="44.29679195097778" lon="10.143256763025603"><ele>559.0</ele><time>2026-04-18T09:18:26Z</time></trkpt><trkpt lat="44.296703862508025" lon="10.143326495358295"><ele>559.0</ele><time>2026-04-18T09:18:27Z</time></trkpt><trkpt lat="44.296621731784256" lon="10.143409551697468"><ele>559.0</ele><time>2026-04-18T09:18:28Z</time></trkpt><trkpt lat="44.29655094467907" lon="10.143479447944566"><ele>559.2</ele><time>2026-04-18T09:18:29Z</time></trkpt><trkpt lat="44.296520885103455" lon="10.143641197297244"><ele>559.4</ele><time>2026-04-18T09:18:31Z</time></trkpt><trkpt lat="44.2965613044581" lon="10.143760736866819"><ele>559.6</ele><time>2026-04-18T09:18:32Z</time></trkpt><trkpt lat="44.296584353060354" lon="10.143890406539786"><ele>559.8</ele><time>2026-04-18T09:18:33Z</time></trkpt><trkpt lat="44.296521075582255" lon="10.143995607288458"><ele>560.0</ele><time>2026-04-18T09:18:34Z</time></trkpt><trkpt lat="44.29649383951347" lon="10.144149078720334"><ele>558.8</ele><time>2026-04-18T09:18:35Z</time></trkpt><trkpt lat="44.296469871774605" lon="10.144267948441271"><ele>557.6</ele><time>2026-04-18T09:18:36Z</time></trkpt><trkpt lat="44.29648531752511" lon="10.144386073690638"><ele>556.4</ele><time>2026-04-18T09:18:37Z</time></trkpt><trkpt lat="44.29652191889302" lon="10.144532017615004"><ele>555.2</ele><time>2026-04-18T09:18:38Z</time></trkpt><trkpt lat="44.29653562915918" lon="10.144693318470978"><ele>554.0</ele><time>2026-04-18T09:18:39Z</time></trkpt><trkpt lat="44.296553080667415" lon="10.14484066017941"><ele>553.0</ele><time>2026-04-18T09:18:40Z</time></trkpt><trkpt lat="44.296555752470844" lon="10.14497653856392"><ele>552.0</ele><time>2026-04-18T09:18:41Z</time></trkpt><trkpt lat="44.29653525740948" lon="10.14509342006803"><ele>551.0</ele><time>2026-04-18T09:18:42Z</time></trkpt><trkpt lat="44.296444789082436" lon="10.145183309316566"><ele>550.0</ele><time>2026-04-18T09:18:43Z</time></trkpt><trkpt lat="44.296389261608105" lon="10.14532098142189"><ele>549.0</ele><time>2026-04-18T09:18:44Z</time></trkpt><trkpt lat="44.29633454054265" lon="10.145480332050266"><ele>545.25</ele><time>2026-04-18T09:18:45Z</time></trkpt><trkpt lat="44.29628579945187" lon="10.14565209962198"><ele>541.5</ele><time>2026-04-18T09:18:46Z</time></trkpt><trkpt lat="44.296245978588715" lon="10.145823202937233"><ele>537.75</ele><time>2026-04-18T09:18:47Z</time></trkpt><trkpt lat="44.29620241966215" lon="10.145968836600227"><ele>534.0</ele><time>2026-04-18T09:18:48Z</time></trkpt><trkpt lat="44.296172058810946" lon="10.146087861663554"><ele>533.2</ele><time>2026-04-18T09:18:49Z</time></trkpt><trkpt lat="44.29614583711633" lon="10.14617957611542"><ele>532.4</ele><time>2026-04-18T09:18:50Z</time></trkpt><trkpt lat="44.296060202176285" lon="10.146201917759583"><ele>531.6</ele><time>2026-04-18T09:18:52Z</time></trkpt><trkpt lat="44.296003365949666" lon="10.146123687980428"><ele>530.8</ele><time>2026-04-18T09:18:53Z</time></trkpt><trkpt lat="44.29598222829943" lon="10.14597930067379"><ele>530.0</ele><time>2026-04-18T09:18:54Z</time></trkpt><trkpt lat="44.29595298330157" lon="10.145830729895478"><ele>530.8</ele><time>2026-04-18T09:18:55Z</time></trkpt><trkpt lat="44.29591956306603" lon="10.14564852179648"><ele>531.6</ele><time>2026-04-18T09:18:56Z</time></trkpt><trkpt lat="44.295890958850116" lon="10.145479399079727"><ele>532.4</ele><time>2026-04-18T09:18:57Z</time></trkpt><trkpt lat="44.29588289143553" lon="10.145352175928803"><ele>533.2</ele><time>2026-04-18T09:18:58Z</time></trkpt><trkpt lat="44.29584439864152" lon="10.145230307160789"><ele>534.0</ele><time>2026-04-18T09:19:00Z</time></trkpt><trkpt lat="44.29577023565573" lon="10.145273731336157"><ele>534.0</ele><time>2026-04-18T09:19:01Z</time></trkpt><trkpt lat="44.29571252491746" lon="10.145331937592058"><ele>534.0</ele><time>2026-04-18T09:19:02Z</time></trkpt><trkpt lat="44.29571177553196" lon="10.145482819383307"><ele>534.0</ele><time>2026-04-18T09:19:03Z</time></trkpt><trkpt lat="44.29573833768498" lon="10.145616171456803"><ele>534.0</ele><time>2026-04-18T09:19:04Z</time></trkpt><trkpt lat="44.29572935559038" lon="10.145769209183065"><ele>534.0</ele><time>2026-04-18T09:19:05Z</time></trkpt><trkpt lat="44.29574072909537" lon="10.145911038590091"><ele>533.2</ele><time>2026-04-18T09:19:06Z</time></trkpt><trkpt lat="44.29574354839205" lon="10.146060825528101"><ele>532.4</ele><time>2026-04-18T09:19:07Z</time></trkpt><trkpt lat="44.29574174244526" lon="10.14621523400306"><ele>531.6</ele><time>2026-04-18T09:19:08Z</time></trkpt><trkpt lat="44.29572020803273" lon="10.146357807665344"><ele>530.8</ele><time>2026-04-18T09:19:09Z</time></trkpt><trkpt lat="44.295685838542994" lon="10.14651068814456"><ele>530.0</ele><time>2026-04-18T09:19:10Z</time></trkpt><trkpt lat="44.295627702806506" lon="10.146632312767093"><ele>527.3333333333333</ele><time>2026-04-18T09:19:11Z</time></trkpt><trkpt lat="44.295563077685365" lon="10.146734764363543"><ele>524.6666666666666</ele><time>2026-04-18T09:19:12Z</time></trkpt><trkpt lat="44.2955116174586" lon="10.146852828638835"><ele>522.0</ele><time>2026-04-18T09:19:13Z</time></trkpt><trkpt lat="44.2954686048251" lon="10.146957875076113"><ele>519.3333333333334</ele><time>2026-04-18T09:19:14Z</time></trkpt><trkpt lat="44.295447849920095" lon="10.147061964455748"><ele>516.6666666666667</ele><time>2026-04-18T09:19:15Z</time></trkpt><trkpt lat="44.29543681449864" lon="10.147177039175018"><ele>514.0</ele><time>2026-04-18T09:19:16Z</time></trkpt><trkpt lat="44.29546269888125" lon="10.147295919887412"><ele>515.0</ele><time>2026-04-18T09:19:17Z</time></trkpt><trkpt lat="44.29552112609797" lon="10.147391675013646"><ele>516.0</ele><time>2026-04-18T09:19:18Z</time></trkpt><trkpt lat="44.29560395702825" lon="10.147487346192163"><ele>517.0</ele><time>2026-04-18T09:19:18.999Z</time></trkpt><trkpt lat="44.29569656170109" lon="10.147565048976157"><ele>518.0</ele><time>2026-04-18T09:19:19.999Z</time></trkpt><trkpt lat="44.29580056373458" lon="10.147629158902378"><ele>519.0</ele><time>2026-04-18T09:19:20.999Z</time></trkpt><trkpt lat="44.2958991894634" lon="10.147664165469617"><ele>519.8</ele><time>2026-04-18T09:19:21.999Z</time></trkpt><trkpt lat="44.29597469746134" lon="10.147732017346831"><ele>520.5999999999999</ele><time>2026-04-18T09:19:22.999Z</time></trkpt><trkpt lat="44.29602180705174" lon="10.147801194165954"><ele>521.4</ele><time>2026-04-18T09:19:23.999Z</time></trkpt><trkpt lat="44.29603736393112" lon="10.14796927154445"><ele>522.1999999999999</ele><time>2026-04-18T09:19:25.999Z</time></trkpt><trkpt lat="44.295976903852534" lon="10.148044167601116"><ele>523.0</ele><time>2026-04-18T09:19:26.999Z</time></trkpt><trkpt lat="44.29592826861246" lon="10.148191069679628"><ele>522.8333333333334</ele><time>2026-04-18T09:19:28.999Z</time></trkpt><trkpt lat="44.29589052229225" lon="10.148277943647809"><ele>522.6666666666667</ele><time>2026-04-18T09:19:29.999Z</time></trkpt><trkpt lat="44.2958522673078" lon="10.148374034369242"><ele>522.5</ele><time>2026-04-18T09:19:30.999Z</time></trkpt><trkpt lat="44.29581136837808" lon="10.148473323754487"><ele>522.3333333333334</ele><time>2026-04-18T09:19:31.999Z</time></trkpt><trkpt lat="44.29577256402853" lon="10.148566960624391"><ele>522.1666666666666</ele><time>2026-04-18T09:19:32.999Z</time></trkpt><trkpt lat="44.29573034722246" lon="10.148669607882049"><ele>522.0</ele><time>2026-04-18T09:19:33.999Z</time></trkpt><trkpt lat="44.29570206655596" lon="10.148788972878338"><ele>522.0</ele><time>2026-04-18T09:19:34.999Z</time></trkpt><trkpt lat="44.29568238245068" lon="10.148917903497805"><ele>522.0</ele><time>2026-04-18T09:19:35.999Z</time></trkpt><trkpt lat="44.29569690876686" lon="10.149058257518725"><ele>522.0</ele><time>2026-04-18T09:19:36.999Z</time></trkpt><trkpt lat="44.29573253643619" lon="10.149185711345181"><ele>522.0</ele><time>2026-04-18T09:19:37.999Z</time></trkpt><trkpt lat="44.29575715293977" lon="10.149304416931336"><ele>522.0</ele><time>2026-04-18T09:19:38.999Z</time></trkpt><trkpt lat="44.29574153405608" lon="10.14942809314567"><ele>524.8000000000001</ele><time>2026-04-18T09:19:39.999Z</time></trkpt><trkpt lat="44.29569048498334" lon="10.149555226147168"><ele>527.6</ele><time>2026-04-18T09:19:40.999Z</time></trkpt><trkpt lat="44.29565356451634" lon="10.149705374482748"><ele>530.4000000000001</ele><time>2026-04-18T09:19:41.999Z</time></trkpt><trkpt lat="44.29561769200704" lon="10.14981297155533"><ele>533.2</ele><time>2026-04-18T09:19:42.999Z</time></trkpt><trkpt lat="44.29557036222395" lon="10.14991297154069"><ele>536.0</ele><time>2026-04-18T09:19:43.999Z</time></trkpt><trkpt lat="44.29551894607673" lon="10.149968350453772"><ele>538.6</ele><time>2026-04-18T09:19:44.999Z</time></trkpt><trkpt lat="44.295407307800474" lon="10.149907140440108"><ele>541.2</ele><time>2026-04-18T09:19:46.999Z</time></trkpt><trkpt lat="44.29536883397699" lon="10.149789280631987"><ele>543.8</ele><time>2026-04-18T09:19:47.999Z</time></trkpt><trkpt lat="44.29537961504102" lon="10.14964712953505"><ele>546.4</ele><time>2026-04-18T09:19:48.999Z</time></trkpt><trkpt lat="44.295368701342035" lon="10.149494413210334"><ele>549.0</ele><time>2026-04-18T09:19:49.999Z</time></trkpt><trkpt lat="44.295363284415174" lon="10.149341941645194"><ele>549.0</ele><time>2026-04-18T09:19:50.999Z</time></trkpt><trkpt lat="44.29533054476847" lon="10.14919913947172"><ele>549.0</ele><time>2026-04-18T09:19:51.999Z</time></trkpt><trkpt lat="44.29528311827531" lon="10.149093434938498"><ele>549.0</ele><time>2026-04-18T09:19:52.999Z</time></trkpt><trkpt lat="44.295222575532804" lon="10.149040982417107"><ele>549.0</ele><time>2026-04-18T09:19:53.999Z</time></trkpt><trkpt lat="44.29515013671764" lon="10.149046328609183"><ele>549.0</ele><time>2026-04-18T09:19:54.999Z</time></trkpt><trkpt lat="44.29506790338257" lon="10.149081110100715"><ele>549.0</ele><time>2026-04-18T09:19:55.999Z</time></trkpt><trkpt lat="44.2949568643469" lon="10.149142709599571"><ele>549.0</ele><time>2026-04-18T09:19:56.999Z</time></trkpt><trkpt lat="44.29483599033993" lon="10.149209441207741"><ele>549.0</ele><time>2026-04-18T09:19:57.999Z</time></trkpt><trkpt lat="44.29471334160006" lon="10.149249782096684"><ele>549.0</ele><time>2026-04-18T09:19:58.999Z</time></trkpt><trkpt lat="44.29458580158944" lon="10.149283057572793"><ele>549.0</ele><time>2026-04-18T09:19:59.999Z</time></trkpt><trkpt lat="44.29444331134701" lon="10.149317446671716"><ele>550.6666666666666</ele><time>2026-04-18T09:20:00.999Z</time></trkpt><trkpt lat="44.294295665034795" lon="10.1493112813826"><ele>552.3333333333333</ele><time>2026-04-18T09:20:01.999Z</time></trkpt><trkpt lat="44.29413326754304" lon="10.149305648648784"><ele>554.0</ele><time>2026-04-18T09:20:02.999Z</time></trkpt><trkpt lat="44.29397980591261" lon="10.1493151126821"><ele>556.25</ele><time>2026-04-18T09:20:03.999Z</time></trkpt><trkpt lat="44.293828457489056" lon="10.149324795323352"><ele>558.5</ele><time>2026-04-18T09:20:04.999Z</time></trkpt><trkpt lat="44.293684022786444" lon="10.149340389460292"><ele>560.75</ele><time>2026-04-18T09:20:05.999Z</time></trkpt><trkpt lat="44.29354192531685" lon="10.149363603066238"><ele>563.0</ele><time>2026-04-18T09:20:06.999Z</time></trkpt><trkpt lat="44.29341107233012" lon="10.149375807425512"><ele>563.0</ele><time>2026-04-18T09:20:07.999Z</time></trkpt><trkpt lat="44.29328807012473" lon="10.149382345800502"><ele>563.0</ele><time>2026-04-18T09:20:08.999Z</time></trkpt><trkpt lat="44.29317725971736" lon="10.149401587759977"><ele>563.0</ele><time>2026-04-18T09:20:09.999Z</time></trkpt><trkpt lat="44.29306407932439" lon="10.149445045771813"><ele>563.0</ele><time>2026-04-18T09:20:10.999Z</time></trkpt><trkpt lat="44.29296809937451" lon="10.149505490286037"><ele>566.1999999999999</ele><time>2026-04-18T09:20:11.999Z</time></trkpt><trkpt lat="44.29288506063186" lon="10.149585265768513"><ele>569.4</ele><time>2026-04-18T09:20:12.999Z</time></trkpt><trkpt lat="44.29282055800815" lon="10.149687686478003"><ele>572.5999999999999</ele><time>2026-04-18T09:20:13.999Z</time></trkpt><trkpt lat="44.29278549844052" lon="10.149805880501514"><ele>575.8</ele><time>2026-04-18T09:20:14.999Z</time></trkpt><trkpt lat="44.29278406343697" lon="10.149902595543855"><ele>579.0</ele><time>2026-04-18T09:20:15.999Z</time></trkpt><trkpt lat="44.29282966324379" lon="10.150073556603076"><ele>578.8</ele><time>2026-04-18T09:20:17.999Z</time></trkpt><trkpt lat="44.29291458687525" lon="10.150149710040958"><ele>578.5999999999999</ele><time>2026-04-18T09:20:18.999Z</time></trkpt><trkpt lat="44.29300080988205" lon="10.150225404433213"><ele>578.4</ele><time>2026-04-18T09:20:20Z</time></trkpt><trkpt lat="44.29309902595632" lon="10.15031032235877"><ele>578.1999999999999</ele><time>2026-04-18T09:20:21Z</time></trkpt><trkpt lat="44.293204159354396" lon="10.150380352185655"><ele>578.0</ele><time>2026-04-18T09:20:22Z</time></trkpt><trkpt lat="44.29329882836287" lon="10.15044987885649"><ele>578.0</ele><time>2026-04-18T09:20:23Z</time></trkpt><trkpt lat="44.29338838269539" lon="10.15052908688293"><ele>578.0</ele><time>2026-04-18T09:20:24Z</time></trkpt><trkpt lat="44.293475161511715" lon="10.15062317661128"><ele>578.0</ele><time>2026-04-18T09:20:25Z</time></trkpt><trkpt lat="44.29356415516513" lon="10.150729569030695"><ele>578.0</ele><time>2026-04-18T09:20:26Z</time></trkpt><trkpt lat="44.29365792204342" lon="10.15083185185705"><ele>580.1999999999999</ele><time>2026-04-18T09:20:27Z</time></trkpt><trkpt lat="44.293757960589176" lon="10.150897734318185"><ele>582.4</ele><time>2026-04-18T09:20:28Z</time></trkpt><trkpt lat="44.29385081423575" lon="10.15094375660823"><ele>584.5999999999999</ele><time>2026-04-18T09:20:29Z</time></trkpt><trkpt lat="44.29392465125373" lon="10.150990289961214"><ele>586.8</ele><time>2026-04-18T09:20:30Z</time></trkpt><trkpt lat="44.2939492068666" lon="10.151104562943381"><ele>589.0</ele><time>2026-04-18T09:20:31Z</time></trkpt><trkpt lat="44.29395974253912" lon="10.151230807949426"><ele>589.0</ele><time>2026-04-18T09:20:32Z</time></trkpt><trkpt lat="44.29396443371278" lon="10.151370121707764"><ele>589.0</ele><time>2026-04-18T09:20:33Z</time></trkpt><trkpt lat="44.293941316390935" lon="10.151478040241468"><ele>589.0</ele><time>2026-04-18T09:20:34Z</time></trkpt><trkpt lat="44.29385784606443" lon="10.151561887437072"><ele>589.0</ele><time>2026-04-18T09:20:36Z</time></trkpt><trkpt lat="44.29376339924952" lon="10.151554707875928"><ele>589.0</ele><time>2026-04-18T09:20:37Z</time></trkpt><trkpt lat="44.2936461849724" lon="10.151566607686807"><ele>595.0</ele><time>2026-04-18T09:20:38Z</time></trkpt><trkpt lat="44.293525218063635" lon="10.151584860100108"><ele>601.0</ele><time>2026-04-18T09:20:39Z</time></trkpt><trkpt lat="44.29338483616805" lon="10.151614271801538"><ele>607.0</ele><time>2026-04-18T09:20:40Z</time></trkpt><trkpt lat="44.293238015979085" lon="10.151620084100426"><ele>613.0</ele><time>2026-04-18T09:20:41Z</time></trkpt><trkpt lat="44.293102676664" lon="10.151647613696994"><ele>615.0</ele><time>2026-04-18T09:20:42Z</time></trkpt><trkpt lat="44.292995283344574" lon="10.151673398253067"><ele>617.0</ele><time>2026-04-18T09:20:43Z</time></trkpt><trkpt lat="44.29288904447886" lon="10.15167890578644"><ele>619.0</ele><time>2026-04-18T09:20:44Z</time></trkpt><trkpt lat="44.292788617400646" lon="10.151687645512878"><ele>621.0</ele><time>2026-04-18T09:20:45Z</time></trkpt><trkpt lat="44.29270868525876" lon="10.15170254494398"><ele>623.0</ele><time>2026-04-18T09:20:46Z</time></trkpt><trkpt lat="44.292639148706854" lon="10.151718993852333"><ele>623.0</ele><time>2026-04-18T09:20:47Z</time></trkpt><trkpt lat="44.292587029007926" lon="10.151773379390503"><ele>623.0</ele><time>2026-04-18T09:20:48Z</time></trkpt><trkpt lat="44.29254791821419" lon="10.151852339794077"><ele>623.0</ele><time>2026-04-18T09:20:49Z</time></trkpt><trkpt lat="44.292581322594735" lon="10.15196818182688"><ele>623.0</ele><time>2026-04-18T09:20:50Z</time></trkpt><trkpt lat="44.29262509379889" lon="10.15205764358392"><ele>623.0</ele><time>2026-04-18T09:20:51Z</time></trkpt><trkpt lat="44.29273473981073" lon="10.152077517244491"><ele>623.0</ele><time>2026-04-18T09:20:52Z</time></trkpt><trkpt lat="44.292823060421604" lon="10.15211794591491"><ele>623.0</ele><time>2026-04-18T09:20:53Z</time></trkpt><trkpt lat="44.2929046411668" lon="10.152155433561383"><ele>623.0</ele><time>2026-04-18T09:20:54Z</time></trkpt><trkpt lat="44.29298832689" lon="10.152202086243834"><ele>623.0</ele><time>2026-04-18T09:20:55Z</time></trkpt><trkpt lat="44.29304835734789" lon="10.152255278095852"><ele>623.0</ele><time>2026-04-18T09:20:56Z</time></trkpt><trkpt lat="44.29306345695718" lon="10.152363555010046"><ele>623.0</ele><time>2026-04-18T09:20:59Z</time></trkpt><trkpt lat="44.29298531506587" lon="10.152490730002857"><ele>623.0</ele><time>2026-04-18T09:21:01Z</time></trkpt><trkpt lat="44.2929012918" lon="10.15252980483992"><ele>626.0</ele><time>2026-04-18T09:21:02Z</time></trkpt><trkpt lat="44.292806484117136" lon="10.152519338156297"><ele>629.0</ele><time>2026-04-18T09:21:03Z</time></trkpt><trkpt lat="44.2927150942856" lon="10.152517760074275"><ele>632.0</ele><time>2026-04-18T09:21:04Z</time></trkpt><trkpt lat="44.29262719429077" lon="10.152594466834175"><ele>635.0</ele><time>2026-04-18T09:21:06Z</time></trkpt><trkpt lat="44.29259548464895" lon="10.15267305005042"><ele>638.0</ele><time>2026-04-18T09:21:07Z</time></trkpt><trkpt lat="44.29261339148369" lon="10.152786691380951"><ele>641.0</ele><time>2026-04-18T09:21:08Z</time></trkpt><trkpt lat="44.29269974012995" lon="10.152876595505663"><ele>641.0</ele><time>2026-04-18T09:21:09Z</time></trkpt><trkpt lat="44.292764534676955" lon="10.152976818243133"><ele>641.0</ele><time>2026-04-18T09:21:10Z</time></trkpt><trkpt lat="44.292816170372234" lon="10.153085500228963"><ele>641.0</ele><time>2026-04-18T09:21:11Z</time></trkpt><trkpt lat="44.29286902601681" lon="10.153189553497961"><ele>641.0</ele><time>2026-04-18T09:21:12Z</time></trkpt><trkpt lat="44.29291975733617" lon="10.153300106343348"><ele>641.0</ele><time>2026-04-18T09:21:13Z</time></trkpt><trkpt lat="44.29298379458845" lon="10.153376833828398"><ele>642.3333333333333</ele><time>2026-04-18T09:21:14Z</time></trkpt><trkpt lat="44.293019315331506" lon="10.153461728708766"><ele>643.6666666666666</ele><time>2026-04-18T09:21:15Z</time></trkpt><trkpt lat="44.2930924706519" lon="10.153484661007273"><ele>645.0</ele><time>2026-04-18T09:21:16Z</time></trkpt><trkpt lat="44.293174271293836" lon="10.15343030305515"><ele>646.3333333333334</ele><time>2026-04-18T09:21:17Z</time></trkpt><trkpt lat="44.29324257227556" lon="10.153436804498714"><ele>647.6666666666667</ele><time>2026-04-18T09:21:19Z</time></trkpt><trkpt lat="44.293260030408945" lon="10.153575140437315"><ele>649.0</ele><time>2026-04-18T09:21:21Z</time></trkpt><trkpt lat="44.29331764200798" lon="10.153663910206756"><ele>649.0</ele><time>2026-04-18T09:21:22Z</time></trkpt><trkpt lat="44.29337220648606" lon="10.15375854933399"><ele>649.0</ele><time>2026-04-18T09:21:23Z</time></trkpt><trkpt lat="44.29348054412927" lon="10.153829281102757"><ele>649.0</ele><time>2026-04-18T09:21:25Z</time></trkpt><trkpt lat="44.293556909209364" lon="10.153819005176063"><ele>649.0</ele><time>2026-04-18T09:21:26Z</time></trkpt><trkpt lat="44.293623036373106" lon="10.1538043334692"><ele>649.0</ele><time>2026-04-18T09:21:27Z</time></trkpt><trkpt lat="44.29369030467584" lon="10.15378697533323"><ele>649.0</ele><time>2026-04-18T09:21:28Z</time></trkpt><trkpt lat="44.29376163545899" lon="10.153770091283414"><ele>649.0</ele><time>2026-04-18T09:21:29Z</time></trkpt><trkpt lat="44.293833353413255" lon="10.153769180786268"><ele>649.0</ele><time>2026-04-18T09:21:30Z</time></trkpt><trkpt lat="44.293905156597724" lon="10.153755160992059"><ele>649.0</ele><time>2026-04-18T09:21:32Z</time></trkpt><trkpt lat="44.29384264949854" lon="10.153790771258391"><ele>649.0</ele><time>2026-04-18T09:22:05.999Z</time></trkpt><trkpt lat="44.29376844345283" lon="10.15380526022997"><ele>649.0</ele><time>2026-04-18T09:22:07.999Z</time></trkpt><trkpt lat="44.293696933474244" lon="10.153820597953487"><ele>649.0</ele><time>2026-04-18T09:22:08.999Z</time></trkpt><trkpt lat="44.29359281121713" lon="10.153843020683412"><ele>649.0</ele><time>2026-04-18T09:22:10.999Z</time></trkpt><trkpt lat="44.29351699626335" lon="10.153864581234249"><ele>649.0</ele><time>2026-04-18T09:22:13.999Z</time></trkpt><trkpt lat="44.29349016713243" lon="10.154019938557726"><ele>649.0</ele><time>2026-04-18T09:22:14.999Z</time></trkpt><trkpt lat="44.29341767363382" lon="10.154062979313691"><ele>649.0</ele><time>2026-04-18T09:22:16.999Z</time></trkpt><trkpt lat="44.293354891396575" lon="10.154129015511566"><ele>649.0</ele><time>2026-04-18T09:22:18.999Z</time></trkpt><trkpt lat="44.293267521314945" lon="10.15422147887844"><ele>653.8000000000001</ele><time>2026-04-18T09:22:20.999Z</time></trkpt><trkpt lat="44.29319122968503" lon="10.154283165782363"><ele>658.6</ele><time>2026-04-18T09:22:22.999Z</time></trkpt><trkpt lat="44.293117144688544" lon="10.15437081146046"><ele>663.4</ele><time>2026-04-18T09:22:24.999Z</time></trkpt><trkpt lat="44.293049062957294" lon="10.15449140869935"><ele>668.2</ele><time>2026-04-18T09:22:27Z</time></trkpt><trkpt lat="44.292963133754704" lon="10.154601408147968"><ele>673.0</ele><time>2026-04-18T09:22:29Z</time></trkpt><trkpt lat="44.29286920629572" lon="10.154692708769446"><ele>673.0</ele><time>2026-04-18T09:22:31Z</time></trkpt><trkpt lat="44.292776594432475" lon="10.154773726035474"><ele>673.0</ele><time>2026-04-18T09:22:33Z</time></trkpt><trkpt lat="44.29267874288888" lon="10.154798073683368"><ele>673.0</ele><time>2026-04-18T09:22:35Z</time></trkpt><trkpt lat="44.29258497925054" lon="10.154834360493764"><ele>673.0</ele><time>2026-04-18T09:22:37Z</time></trkpt><trkpt lat="44.29246978611437" lon="10.154872953311893"><ele>673.0</ele><time>2026-04-18T09:22:39Z</time></trkpt><trkpt lat="44.292354531304255" lon="10.154903269348763"><ele>677.5999999999999</ele><time>2026-04-18T09:22:41Z</time></trkpt><trkpt lat="44.29223608758015" lon="10.154932241939255"><ele>682.1999999999999</ele><time>2026-04-18T09:22:43Z</time></trkpt><trkpt lat="44.29213698287288" lon="10.154917260167407"><ele>686.8</ele><time>2026-04-18T09:22:45Z</time></trkpt><trkpt lat="44.29207694543927" lon="10.154847730047816"><ele>691.4</ele><time>2026-04-18T09:22:47Z</time></trkpt><trkpt lat="44.29201764243107" lon="10.154787220534098"><ele>696.0</ele><time>2026-04-18T09:22:49Z</time></trkpt><trkpt lat="44.29196360992426" lon="10.15468392052644"><ele>696.0</ele><time>2026-04-18T09:22:51Z</time></trkpt><trkpt lat="44.29189553935508" lon="10.154619572499623"><ele>696.0</ele><time>2026-04-18T09:22:53Z</time></trkpt><trkpt lat="44.29180884176463" lon="10.154531170317638"><ele>696.0</ele><time>2026-04-18T09:22:55Z</time></trkpt><trkpt lat="44.29174529189824" lon="10.154499077673481"><ele>696.0</ele><time>2026-04-18T09:22:56Z</time></trkpt><trkpt lat="44.29167713313731" lon="10.154445009978332"><ele>696.0</ele><time>2026-04-18T09:22:57Z</time></trkpt><trkpt lat="44.291583031565835" lon="10.154351313618983"><ele>696.0</ele><time>2026-04-18T09:22:59Z</time></trkpt><trkpt lat="44.29150231313367" lon="10.154236146127184"><ele>696.0</ele><time>2026-04-18T09:23:01Z</time></trkpt><trkpt lat="44.29146776936109" lon="10.154117850497016"><ele>696.0</ele><time>2026-04-18T09:23:03Z</time></trkpt><trkpt lat="44.29136396146109" lon="10.154047736031487"><ele>696.0</ele><time>2026-04-18T09:23:05Z</time></trkpt><trkpt lat="44.29130032350513" lon="10.154045685929704"><ele>696.0</ele><time>2026-04-18T09:23:06Z</time></trkpt><trkpt lat="44.291229877366085" lon="10.154017817583078"><ele>697.8333333333334</ele><time>2026-04-18T09:23:07Z</time></trkpt><trkpt lat="44.29116020892646" lon="10.154027725226802"><ele>699.6666666666666</ele><time>2026-04-18T09:23:08Z</time></trkpt><trkpt lat="44.29108870286487" lon="10.154048533463635"><ele>701.5</ele><time>2026-04-18T09:23:09Z</time></trkpt><trkpt lat="44.29098226180972" lon="10.154077621037976"><ele>703.3333333333333</ele><time>2026-04-18T09:23:11Z</time></trkpt><trkpt lat="44.29087702947668" lon="10.154079139745239"><ele>705.1666666666666</ele><time>2026-04-18T09:23:13Z</time></trkpt><trkpt lat="44.290791227506894" lon="10.154051841878482"><ele>707.0</ele><time>2026-04-18T09:23:15Z</time></trkpt><trkpt lat="44.290703829931296" lon="10.154022495648698"><ele>708.4000000000001</ele><time>2026-04-18T09:23:17Z</time></trkpt><trkpt lat="44.290603330664005" lon="10.15409745497583"><ele>709.8000000000001</ele><time>2026-04-18T09:23:19Z</time></trkpt><trkpt lat="44.29054742491299" lon="10.154245714927383"><ele>711.2</ele><time>2026-04-18T09:23:21Z</time></trkpt><trkpt lat="44.2905073414357" lon="10.154349971992607"><ele>712.6</ele><time>2026-04-18T09:23:23Z</time></trkpt><trkpt lat="44.290452215804294" lon="10.15445947354828"><ele>714.0</ele><time>2026-04-18T09:23:25Z</time></trkpt><trkpt lat="44.29039983565422" lon="10.154564702981805"><ele>717.8333333333334</ele><time>2026-04-18T09:23:27Z</time></trkpt><trkpt lat="44.29036054042489" lon="10.154666271476444"><ele>721.6666666666666</ele><time>2026-04-18T09:23:29Z</time></trkpt><trkpt lat="44.29037233955444" lon="10.154784162383491"><ele>725.5</ele><time>2026-04-18T09:23:31Z</time></trkpt><trkpt lat="44.290365155976964" lon="10.154886045870818"><ele>729.3333333333333</ele><time>2026-04-18T09:23:33Z</time></trkpt><trkpt lat="44.290356013819704" lon="10.154981225162658"><ele>733.1666666666666</ele><time>2026-04-18T09:23:35Z</time></trkpt><trkpt lat="44.29034992685675" lon="10.15510990032893"><ele>737.0</ele><time>2026-04-18T09:23:37Z</time></trkpt><trkpt lat="44.29036954343964" lon="10.155245129924092"><ele>737.0</ele><time>2026-04-18T09:23:39Z</time></trkpt><trkpt lat="44.2904360029136" lon="10.155391404172647"><ele>737.0</ele><time>2026-04-18T09:23:40.999Z</time></trkpt><trkpt lat="44.29049075333176" lon="10.155530447763393"><ele>737.0</ele><time>2026-04-18T09:23:42.999Z</time></trkpt><trkpt lat="44.29052185728495" lon="10.155659619202366"><ele>737.0</ele><time>2026-04-18T09:23:44.999Z</time></trkpt><trkpt lat="44.29055833707923" lon="10.155811153853156"><ele>735.5</ele><time>2026-04-18T09:23:46.999Z</time></trkpt><trkpt lat="44.29060620770949" lon="10.155957704628573"><ele>734.0</ele><time>2026-04-18T09:23:48.999Z</time></trkpt><trkpt lat="44.29066348632662" lon="10.156105794765924"><ele>732.5</ele><time>2026-04-18T09:23:50.999Z</time></trkpt><trkpt lat="44.29071698522168" lon="10.156253963765547"><ele>731.0</ele><time>2026-04-18T09:23:52.999Z</time></trkpt><trkpt lat="44.29077353354723" lon="10.156369842405894"><ele>731.0</ele><time>2026-04-18T09:23:54.999Z</time></trkpt><trkpt lat="44.290821405839885" lon="10.156474431395122"><ele>731.0</ele><time>2026-04-18T09:23:56.999Z</time></trkpt><trkpt lat="44.29084821470506" lon="10.156601085131497"><ele>731.0</ele><time>2026-04-18T09:23:58.999Z</time></trkpt><trkpt lat="44.29082061645773" lon="10.156687163362838"><ele>731.0</ele><time>2026-04-18T09:23:59.999Z</time></trkpt><trkpt lat="44.29074625209873" lon="10.156805962360187"><ele>731.0</ele><time>2026-04-18T09:24:01.999Z</time></trkpt><trkpt lat="44.29069952267024" lon="10.15693844221142"><ele>733.6666666666666</ele><time>2026-04-18T09:24:03.999Z</time></trkpt><trkpt lat="44.29069316535042" lon="10.157079235131192"><ele>736.3333333333333</ele><time>2026-04-18T09:24:05.999Z</time></trkpt><trkpt lat="44.29067711649315" lon="10.15722184936171"><ele>739.0</ele><time>2026-04-18T09:24:07.999Z</time></trkpt><trkpt lat="44.29061386862406" lon="10.157294749120917"><ele>741.6666666666666</ele><time>2026-04-18T09:24:09.999Z</time></trkpt><trkpt lat="44.29052661765531" lon="10.157343228541084"><ele>744.3333333333334</ele><time>2026-04-18T09:24:11.999Z</time></trkpt><trkpt lat="44.290468791517284" lon="10.157384048006163"><ele>747.0</ele><time>2026-04-18T09:24:13.999Z</time></trkpt><trkpt lat="44.29038575068906" lon="10.157435991699131"><ele>749.4000000000001</ele><time>2026-04-18T09:24:15.999Z</time></trkpt><trkpt lat="44.29029179766062" lon="10.157484429883755"><ele>751.8000000000001</ele><time>2026-04-18T09:24:17.999Z</time></trkpt><trkpt lat="44.290179631876384" lon="10.15751577102729"><ele>754.2</ele><time>2026-04-18T09:24:19.999Z</time></trkpt><trkpt lat="44.290059745988785" lon="10.1574937970596"><ele>756.6</ele><time>2026-04-18T09:24:21.999Z</time></trkpt><trkpt lat="44.289980999833865" lon="10.157403276380123"><ele>759.0</ele><time>2026-04-18T09:24:23.999Z</time></trkpt><trkpt lat="44.289937259148545" lon="10.15730632651122"><ele>759.0</ele><time>2026-04-18T09:24:25.999Z</time></trkpt><trkpt lat="44.28987840822698" lon="10.15717831740607"><ele>759.0</ele><time>2026-04-18T09:24:27.999Z</time></trkpt><trkpt lat="44.28982586993973" lon="10.157043599219625"><ele>759.0</ele><time>2026-04-18T09:24:29.999Z</time></trkpt><trkpt lat="44.289820417334575" lon="10.156943686621108"><ele>759.0</ele><time>2026-04-18T09:24:30.999Z</time></trkpt><trkpt lat="44.289808203398884" lon="10.156841047263399"><ele>759.0</ele><time>2026-04-18T09:24:32Z</time></trkpt><trkpt lat="44.289769758163644" lon="10.156750822214144"><ele>759.0</ele><time>2026-04-18T09:24:33Z</time></trkpt><trkpt lat="44.28973723155048" lon="10.15667205689214"><ele>763.1428571428571</ele><time>2026-04-18T09:24:34Z</time></trkpt><trkpt lat="44.28970313627122" lon="10.15658588268369"><ele>767.2857142857142</ele><time>2026-04-18T09:24:35Z</time></trkpt><trkpt lat="44.28967428996937" lon="10.156501266495145"><ele>771.4285714285714</ele><time>2026-04-18T09:24:36Z</time></trkpt><trkpt lat="44.28964424377216" lon="10.156412375483638"><ele>775.5714285714286</ele><time>2026-04-18T09:24:37Z</time></trkpt><trkpt lat="44.2896161880659" lon="10.156332062336178"><ele>779.7142857142858</ele><time>2026-04-18T09:24:38Z</time></trkpt><trkpt lat="44.28958909711313" lon="10.156251030520211"><ele>783.8571428571429</ele><time>2026-04-18T09:24:39Z</time></trkpt><trkpt lat="44.28950528961693" lon="10.15617019176276"><ele>788.0</ele><time>2026-04-18T09:24:41Z</time></trkpt><trkpt lat="44.28943723837869" lon="10.15612091027346"><ele>788.0</ele><time>2026-04-18T09:24:43Z</time></trkpt><trkpt lat="44.28935852901296" lon="10.1561091253675"><ele>788.0</ele><time>2026-04-18T09:24:45Z</time></trkpt><trkpt lat="44.289326115887945" lon="10.156257581062079"><ele>788.0</ele><time>2026-04-18T09:24:47Z</time></trkpt><trkpt lat="44.28937185257944" lon="10.156410872902383"><ele>788.0</ele><time>2026-04-18T09:24:49Z</time></trkpt><trkpt lat="44.28942587612242" lon="10.156547646683203"><ele>788.0</ele><time>2026-04-18T09:24:51Z</time></trkpt><trkpt lat="44.28948237848842" lon="10.156682379522955"><ele>788.8333333333334</ele><time>2026-04-18T09:24:53Z</time></trkpt><trkpt lat="44.28951606226807" lon="10.156811767262475"><ele>789.6666666666667</ele><time>2026-04-18T09:24:55Z</time></trkpt><trkpt lat="44.28953849562877" lon="10.1569465239912"><ele>790.5</ele><time>2026-04-18T09:24:57Z</time></trkpt><trkpt lat="44.289547178412356" lon="10.157038489040168"><ele>791.3333333333333</ele><time>2026-04-18T09:24:58Z</time></trkpt><trkpt lat="44.28954652305541" lon="10.15713367697145"><ele>792.1666666666666</ele><time>2026-04-18T09:24:59Z</time></trkpt><trkpt lat="44.289535671254264" lon="10.157225742799495"><ele>793.0</ele><time>2026-04-18T09:25:00Z</time></trkpt><trkpt lat="44.289524108592765" lon="10.15731766858696"><ele>795.5999999999999</ele><time>2026-04-18T09:25:01Z</time></trkpt><trkpt lat="44.28950284736722" lon="10.157451270680568"><ele>798.1999999999999</ele><time>2026-04-18T09:25:03Z</time></trkpt><trkpt lat="44.2894761649316" lon="10.157607533255709"><ele>800.8</ele><time>2026-04-18T09:25:05Z</time></trkpt><trkpt lat="44.289483810603166" lon="10.157696350446177"><ele>803.4</ele><time>2026-04-18T09:25:06Z</time></trkpt><trkpt lat="44.28950913899018" lon="10.15778223779678"><ele>806.0</ele><time>2026-04-18T09:25:07Z</time></trkpt><trkpt lat="44.289612766145716" lon="10.157854382149353"><ele>806.0</ele><time>2026-04-18T09:25:09Z</time></trkpt><trkpt lat="44.28968043581115" lon="10.157886589564491"><ele>806.0</ele><time>2026-04-18T09:25:10Z</time></trkpt><trkpt lat="44.28974522012585" lon="10.157902972485225"><ele>806.0</ele><time>2026-04-18T09:25:11Z</time></trkpt><trkpt lat="44.289853154420285" lon="10.157924204393021"><ele>806.0</ele><time>2026-04-18T09:25:13Z</time></trkpt><trkpt lat="44.28994951641648" lon="10.157991582566801"><ele>806.0</ele><time>2026-04-18T09:25:15Z</time></trkpt><trkpt lat="44.29003990661991" lon="10.158079258660587"><ele>800.4</ele><time>2026-04-18T09:25:17Z</time></trkpt><trkpt lat="44.29013811957094" lon="10.158138410905215"><ele>794.8</ele><time>2026-04-18T09:25:19Z</time></trkpt><trkpt lat="44.290241678390174" lon="10.158171973870383"><ele>789.1999999999999</ele><time>2026-04-18T09:25:21Z</time></trkpt><trkpt lat="44.29031681604018" lon="10.158190469134484"><ele>783.5999999999999</ele><time>2026-04-18T09:25:22Z</time></trkpt><trkpt lat="44.290404794940976" lon="10.158173412587564"><ele>778.0</ele><time>2026-04-18T09:25:23Z</time></trkpt><trkpt lat="44.29047859802855" lon="10.158156187504504"><ele>777.9999999999999</ele><time>2026-04-18T09:25:24Z</time></trkpt><trkpt lat="44.29054484675366" lon="10.158181699259393"><ele>778.0</ele><time>2026-04-18T09:25:25Z</time></trkpt><trkpt lat="44.290616642893475" lon="10.158184545611336"><ele>778.0</ele><time>2026-04-18T09:25:26Z</time></trkpt><trkpt lat="44.29070592365849" lon="10.158188085140003"><ele>778.0</ele><time>2026-04-18T09:25:28Z</time></trkpt><trkpt lat="44.29080048737149" lon="10.158215344898757"><ele>777.9999999999999</ele><time>2026-04-18T09:25:30Z</time></trkpt><trkpt lat="44.29089430414194" lon="10.158231903485463"><ele>778.0</ele><time>2026-04-18T09:26:09.999Z</time></trkpt><trkpt lat="44.29097644694055" lon="10.158225222999771"><ele>776.4</ele><time>2026-04-18T09:26:11.999Z</time></trkpt><trkpt lat="44.29108775518011" lon="10.158193422269209"><ele>774.8</ele><time>2026-04-18T09:26:13.999Z</time></trkpt><trkpt lat="44.291151157786935" lon="10.158174966644593"><ele>773.2</ele><time>2026-04-18T09:26:14.999Z</time></trkpt><trkpt lat="44.29126897331254" lon="10.15813447114407"><ele>771.6</ele><time>2026-04-18T09:26:16.999Z</time></trkpt><trkpt lat="44.291360516006215" lon="10.158057373849338"><ele>770.0</ele><time>2026-04-18T09:26:18.999Z</time></trkpt><trkpt lat="44.291439861314" lon="10.158012768309504"><ele>773.6</ele><time>2026-04-18T09:26:20.999Z</time></trkpt><trkpt lat="44.29153570315736" lon="10.157945590764182"><ele>777.2</ele><time>2026-04-18T09:26:22.999Z</time></trkpt><trkpt lat="44.29162119388084" lon="10.157917594583266"><ele>780.8</ele><time>2026-04-18T09:26:23.999Z</time></trkpt><trkpt lat="44.291689549807124" lon="10.157884110427739"><ele>784.4</ele><time>2026-04-18T09:26:24.999Z</time></trkpt><trkpt lat="44.291754402860704" lon="10.157858347942541"><ele>788.0</ele><time>2026-04-18T09:26:25.999Z</time></trkpt><trkpt lat="44.29187421035599" lon="10.15780217387843"><ele>788.0</ele><time>2026-04-18T09:26:27.999Z</time></trkpt><trkpt lat="44.29199187986384" lon="10.157753793610661"><ele>788.0</ele><time>2026-04-18T09:26:29.999Z</time></trkpt><trkpt lat="44.29206573848656" lon="10.157730555597384"><ele>788.0</ele><time>2026-04-18T09:26:30.999Z</time></trkpt><trkpt lat="44.29219390090941" lon="10.157689283283705"><ele>788.0</ele><time>2026-04-18T09:26:32.999Z</time></trkpt><trkpt lat="44.2922614385374" lon="10.157646994805685"><ele>788.0</ele><time>2026-04-18T09:26:33.999Z</time></trkpt><trkpt lat="44.29232600538658" lon="10.157611655973367"><ele>789.5000000000001</ele><time>2026-04-18T09:26:34.999Z</time></trkpt><trkpt lat="44.292393744064135" lon="10.157586065089596"><ele>791.0</ele><time>2026-04-18T09:26:35.999Z</time></trkpt><trkpt lat="44.29249367844061" lon="10.157568029431442"><ele>792.5</ele><time>2026-04-18T09:26:38Z</time></trkpt><trkpt lat="44.292558845799185" lon="10.157577357102308"><ele>794.0</ele><time>2026-04-18T09:26:40Z</time></trkpt><trkpt lat="44.292597466903864" lon="10.157674879342105"><ele>795.5000000000001</ele><time>2026-04-18T09:26:42Z</time></trkpt><trkpt lat="44.29254984095136" lon="10.157805299508315"><ele>797.0</ele><time>2026-04-18T09:26:44Z</time></trkpt><trkpt lat="44.29245230675347" lon="10.157882434125147"><ele>797.0000000000001</ele><time>2026-04-18T09:26:46Z</time></trkpt><trkpt lat="44.2923290585593" lon="10.157966794028312"><ele>797.0</ele><time>2026-04-18T09:26:48Z</time></trkpt><trkpt lat="44.292268528559795" lon="10.158016312267241"><ele>797.0</ele><time>2026-04-18T09:26:49Z</time></trkpt><trkpt lat="44.29221397855389" lon="10.158067634936739"><ele>797.0</ele><time>2026-04-18T09:26:50Z</time></trkpt><trkpt lat="44.29215011679729" lon="10.158104354621347"><ele>797.0000000000001</ele><time>2026-04-18T09:26:51Z</time></trkpt><trkpt lat="44.29209299207557" lon="10.15816078304138"><ele>797.0</ele><time>2026-04-18T09:26:52Z</time></trkpt><trkpt lat="44.29203926208439" lon="10.158230439512243"><ele>799.8571428571428</ele><time>2026-04-18T09:26:53Z</time></trkpt><trkpt lat="44.291992942477215" lon="10.158305350622811"><ele>802.7142857142858</ele><time>2026-04-18T09:26:54Z</time></trkpt><trkpt lat="44.29194782159247" lon="10.158372980626332"><ele>805.5714285714286</ele><time>2026-04-18T09:26:55Z</time></trkpt><trkpt lat="44.29189837048542" lon="10.158438984385791"><ele>808.4285714285713</ele><time>2026-04-18T09:26:56Z</time></trkpt><trkpt lat="44.291857196694224" lon="10.15850724413227"><ele>811.2857142857142</ele><time>2026-04-18T09:26:57Z</time></trkpt><trkpt lat="44.29181418188264" lon="10.158571859658299"><ele>814.1428571428571</ele><time>2026-04-18T09:26:58Z</time></trkpt><trkpt lat="44.2917671151862" lon="10.158687594669042"><ele>817.0</ele><time>2026-04-18T09:27:00Z</time></trkpt><trkpt lat="44.2917360523478" lon="10.158770933427885"><ele>816.9999999999999</ele><time>2026-04-18T09:27:01Z</time></trkpt><trkpt lat="44.29170223352438" lon="10.15885288280278"><ele>817.0</ele><time>2026-04-18T09:27:02Z</time></trkpt><trkpt lat="44.29165173210789" lon="10.158951394969618"><ele>817.0</ele><time>2026-04-18T09:27:03Z</time></trkpt><trkpt lat="44.291634079960595" lon="10.159040243433541"><ele>817.0</ele><time>2026-04-18T09:27:04Z</time></trkpt><trkpt lat="44.29162923693769" lon="10.159144058672135"><ele>817.0</ele><time>2026-04-18T09:27:05Z</time></trkpt><trkpt lat="44.29162318156236" lon="10.159239341272293"><ele>816.9999999999999</ele><time>2026-04-18T09:27:06Z</time></trkpt><trkpt lat="44.29162345139968" lon="10.159356909898596"><ele>817.0</ele><time>2026-04-18T09:27:08Z</time></trkpt><trkpt lat="44.2916768899738" lon="10.159430989358178"><ele>821.2</ele><time>2026-04-18T09:27:11Z</time></trkpt><trkpt lat="44.29179056660404" lon="10.159397849204813"><ele>825.4000000000001</ele><time>2026-04-18T09:27:13Z</time></trkpt><trkpt lat="44.29184350243069" lon="10.159335487739448"><ele>829.5999999999999</ele><time>2026-04-18T09:27:14Z</time></trkpt><trkpt lat="44.29191993185503" lon="10.159263926831644"><ele>833.8</ele><time>2026-04-18T09:27:16Z</time></trkpt><trkpt lat="44.29202864487414" lon="10.159243199480656"><ele>838.0</ele><time>2026-04-18T09:27:18Z</time></trkpt><trkpt lat="44.29216545191445" lon="10.159228887537916"><ele>837.9999999999999</ele><time>2026-04-18T09:27:20Z</time></trkpt><trkpt lat="44.2922384374057" lon="10.159227931874778"><ele>838.0</ele><time>2026-04-18T09:27:21Z</time></trkpt><trkpt lat="44.2923134922704" lon="10.159228883657105"><ele>838.0</ele><time>2026-04-18T09:27:22Z</time></trkpt><trkpt lat="44.29238877984191" lon="10.159235791061164"><ele>838.0</ele><time>2026-04-18T09:27:23Z</time></trkpt><trkpt lat="44.29245920412987" lon="10.159220270455627"><ele>837.9999999999999</ele><time>2026-04-18T09:27:24Z</time></trkpt><trkpt lat="44.292576962915504" lon="10.159247524080524"><ele>838.0</ele><time>2026-04-18T09:27:26Z</time></trkpt><trkpt lat="44.29263837015668" lon="10.159271484550034"><ele>837.8</ele><time>2026-04-18T09:27:27Z</time></trkpt><trkpt lat="44.29270042354376" lon="10.15928848156199"><ele>837.5999999999999</ele><time>2026-04-18T09:27:28Z</time></trkpt><trkpt lat="44.292807293249425" lon="10.159319530627332"><ele>837.4000000000001</ele><time>2026-04-18T09:27:30Z</time></trkpt><trkpt lat="44.29290845325683" lon="10.159363364665653"><ele>837.2</ele><time>2026-04-18T09:27:32Z</time></trkpt><trkpt lat="44.2930132704414" lon="10.159474620745458"><ele>837.0</ele><time>2026-04-18T09:27:34Z</time></trkpt><trkpt lat="44.29306914499804" lon="10.15955136568841"><ele>836.0</ele><time>2026-04-18T09:27:35Z</time></trkpt><trkpt lat="44.29311249723553" lon="10.159630218480366"><ele>835.0</ele><time>2026-04-18T09:27:36Z</time></trkpt><trkpt lat="44.29315853455138" lon="10.159713954497144"><ele>834.0</ele><time>2026-04-18T09:27:37Z</time></trkpt><trkpt lat="44.293237832658306" lon="10.159839081013143"><ele>833.0</ele><time>2026-04-18T09:27:39Z</time></trkpt><trkpt lat="44.29332699915071" lon="10.159920398905673"><ele>832.0</ele><time>2026-04-18T09:27:41Z</time></trkpt><trkpt lat="44.293439225037396" lon="10.159946292208772"><ele>835.6666666666666</ele><time>2026-04-18T09:27:43Z</time></trkpt><trkpt lat="44.293521412694844" lon="10.15992447426694"><ele>839.3333333333333</ele><time>2026-04-18T09:27:45Z</time></trkpt><trkpt lat="44.29353939735606" lon="10.160017532768686"><ele>843.0</ele><time>2026-04-18T09:27:47Z</time></trkpt><trkpt lat="44.29349024117409" lon="10.160113472380939"><ele>846.6666666666667</ele><time>2026-04-18T09:27:49Z</time></trkpt><trkpt lat="44.293362932820045" lon="10.160111034942354"><ele>850.3333333333334</ele><time>2026-04-18T09:27:50.999Z</time></trkpt><trkpt lat="44.29328252820842" lon="10.160078747998709"><ele>854.0</ele><time>2026-04-18T09:27:51.999Z</time></trkpt><trkpt lat="44.29321822432343" lon="10.160008592638876"><ele>854.0</ele><time>2026-04-18T09:27:52.999Z</time></trkpt><trkpt lat="44.29311750998115" lon="10.159935644062076"><ele>854.0000000000001</ele><time>2026-04-18T09:27:54.999Z</time></trkpt><trkpt lat="44.293026420614936" lon="10.159863285733786"><ele>854.0000000000001</ele><time>2026-04-18T09:27:56.999Z</time></trkpt><trkpt lat="44.2929335599981" lon="10.159785358682564"><ele>854.0</ele><time>2026-04-18T09:27:58.999Z</time></trkpt><trkpt lat="44.29289388443477" lon="10.159709160720917"><ele>854.0</ele><time>2026-04-18T09:27:59.999Z</time></trkpt><trkpt lat="44.29282249354072" lon="10.159607936120473"><ele>856.6666666666667</ele><time>2026-04-18T09:28:01.999Z</time></trkpt><trkpt lat="44.29275919446201" lon="10.159600017243264"><ele>859.3333333333334</ele><time>2026-04-18T09:28:03.999Z</time></trkpt><trkpt lat="44.2927142383139" lon="10.159679777874967"><ele>862.0</ele><time>2026-04-18T09:28:05.999Z</time></trkpt><trkpt lat="44.29275620274401" lon="10.15978312901718"><ele>864.6666666666667</ele><time>2026-04-18T09:28:07.999Z</time></trkpt><trkpt lat="44.29284528752681" lon="10.159841950001924"><ele>867.3333333333334</ele><time>2026-04-18T09:28:09.999Z</time></trkpt><trkpt lat="44.29292791138299" lon="10.15994985547833"><ele>870.0</ele><time>2026-04-18T09:28:11.999Z</time></trkpt><trkpt lat="44.292972989775066" lon="10.160021962061137"><ele>870.0</ele><time>2026-04-18T09:28:12.999Z</time></trkpt><trkpt lat="44.293026119157076" lon="10.160102591260385"><ele>870.0</ele><time>2026-04-18T09:28:13.999Z</time></trkpt><trkpt lat="44.293063238802404" lon="10.160180018942832"><ele>870.0</ele><time>2026-04-18T09:28:14.999Z</time></trkpt><trkpt lat="44.293127353787035" lon="10.160261329685193"><ele>870.0</ele><time>2026-04-18T09:28:15.999Z</time></trkpt><trkpt lat="44.29317554711572" lon="10.16033486598976"><ele>870.0</ele><time>2026-04-18T09:28:16.999Z</time></trkpt><trkpt lat="44.2932407041056" lon="10.16039779708587"><ele>870.0</ele><time>2026-04-18T09:28:17.999Z</time></trkpt><trkpt lat="44.29329397577623" lon="10.160468492955111"><ele>867.3333333333334</ele><time>2026-04-18T09:28:18.999Z</time></trkpt><trkpt lat="44.29334375753481" lon="10.160530458002947"><ele>864.6666666666667</ele><time>2026-04-18T09:28:19.999Z</time></trkpt><trkpt lat="44.293395322967015" lon="10.160590616995995"><ele>862.0</ele><time>2026-04-18T09:28:20.999Z</time></trkpt><trkpt lat="44.29344060152839" lon="10.160655837167747"><ele>859.3333333333334</ele><time>2026-04-18T09:28:21.999Z</time></trkpt><trkpt lat="44.2935637883791" lon="10.160663853862504"><ele>856.6666666666667</ele><time>2026-04-18T09:28:23.999Z</time></trkpt><trkpt lat="44.293624840514724" lon="10.16063996489975"><ele>854.0</ele><time>2026-04-18T09:28:24.999Z</time></trkpt><trkpt lat="44.293684386897766" lon="10.160590197178719"><ele>854.0000000000001</ele><time>2026-04-18T09:28:25.999Z</time></trkpt><trkpt lat="44.29374029066139" lon="10.160521980310788"><ele>854.0</ele><time>2026-04-18T09:28:26.999Z</time></trkpt><trkpt lat="44.293802277487714" lon="10.160435107389965"><ele>854.0</ele><time>2026-04-18T09:28:27.999Z</time></trkpt><trkpt lat="44.2938520291867" lon="10.160349787369716"><ele>854.0</ele><time>2026-04-18T09:28:28.999Z</time></trkpt><trkpt lat="44.293899944225444" lon="10.16024500078882"><ele>854.0000000000001</ele><time>2026-04-18T09:28:29.999Z</time></trkpt><trkpt lat="44.29394332965196" lon="10.160157880308933"><ele>854.0</ele><time>2026-04-18T09:28:30.999Z</time></trkpt><trkpt lat="44.29397922223676" lon="10.160077817866524"><ele>857.0</ele><time>2026-04-18T09:28:31.999Z</time></trkpt><trkpt lat="44.294031786504156" lon="10.159978471101658"><ele>860.0000000000001</ele><time>2026-04-18T09:28:33.999Z</time></trkpt><trkpt lat="44.29410379965356" lon="10.160038774402212"><ele>863.0000000000001</ele><time>2026-04-18T09:28:35.999Z</time></trkpt><trkpt lat="44.29408655331791" lon="10.160143110964444"><ele>866.0</ele><time>2026-04-18T09:28:37.999Z</time></trkpt><trkpt lat="44.29401763812762" lon="10.160243607719522"><ele>869.0</ele><time>2026-04-18T09:28:40.999Z</time></trkpt><trkpt lat="44.29395037797321" lon="10.160370115727575"><ele>866.5000000000001</ele><time>2026-04-18T09:28:42.999Z</time></trkpt><trkpt lat="44.293918500877545" lon="10.16045053205768"><ele>864.0</ele><time>2026-04-18T09:28:44Z</time></trkpt><trkpt lat="44.293882111777954" lon="10.160535775048976"><ele>861.5</ele><time>2026-04-18T09:28:45Z</time></trkpt><trkpt lat="44.29384514669728" lon="10.16061918123956"><ele>859.0</ele><time>2026-04-18T09:28:46Z</time></trkpt><trkpt lat="44.29379889082702" lon="10.160691628479551"><ele>856.5000000000001</ele><time>2026-04-18T09:28:47Z</time></trkpt><trkpt lat="44.29373181899194" lon="10.160813921538653"><ele>854.0</ele><time>2026-04-18T09:28:49Z</time></trkpt><trkpt lat="44.29364573725397" lon="10.160924838662218"><ele>860.5000000000001</ele><time>2026-04-18T09:28:51Z</time></trkpt><trkpt lat="44.293558709934715" lon="10.160977052722897"><ele>867.0</ele><time>2026-04-18T09:28:53Z</time></trkpt><trkpt lat="44.29345953089307" lon="10.16100732379853"><ele>873.5</ele><time>2026-04-18T09:28:55Z</time></trkpt><trkpt lat="44.29338967158609" lon="10.161023399353759"><ele>880.0</ele><time>2026-04-18T09:28:56Z</time></trkpt><trkpt lat="44.29331879790111" lon="10.161027617609436"><ele>886.5000000000001</ele><time>2026-04-18T09:28:57Z</time></trkpt><trkpt lat="44.29325398361039" lon="10.161022644199303"><ele>893.0</ele><time>2026-04-18T09:28:58Z</time></trkpt><trkpt lat="44.293143146860075" lon="10.161007482396009"><ele>895.0000000000001</ele><time>2026-04-18T09:29:00Z</time></trkpt><trkpt lat="44.29305084546883" lon="10.16090653529469"><ele>897.0</ele><time>2026-04-18T09:29:02Z</time></trkpt><trkpt lat="44.29300717487275" lon="10.160838181780981"><ele>899.0</ele><time>2026-04-18T09:29:03Z</time></trkpt><trkpt lat="44.29294251938153" lon="10.160783725131457"><ele>901.0</ele><time>2026-04-18T09:29:04Z</time></trkpt><trkpt lat="44.29288501020397" lon="10.160703073263175"><ele>903.0000000000001</ele><time>2026-04-18T09:29:05Z</time></trkpt><trkpt lat="44.292834406407636" lon="10.16062952910548"><ele>905.0</ele><time>2026-04-18T09:29:06Z</time></trkpt><trkpt lat="44.2927762619854" lon="10.160548528699657"><ele>900.0</ele><time>2026-04-18T09:29:07Z</time></trkpt><trkpt lat="44.29272580135763" lon="10.160460110814403"><ele>894.9999999999999</ele><time>2026-04-18T09:29:08Z</time></trkpt><trkpt lat="44.29266470028137" lon="10.160418383397058"><ele>890.0</ele><time>2026-04-18T09:29:09Z</time></trkpt><trkpt lat="44.29260342877983" lon="10.160383990890184"><ele>885.0</ele><time>2026-04-18T09:29:10Z</time></trkpt><trkpt lat="44.2925355949699" lon="10.160380842447536"><ele>880.0</ele><time>2026-04-18T09:29:11Z</time></trkpt><trkpt lat="44.29246062635292" lon="10.160407534890462"><ele>875.0</ele><time>2026-04-18T09:29:12Z</time></trkpt><trkpt lat="44.292382442516164" lon="10.160432943201922"><ele>870.0</ele><time>2026-04-18T09:29:13Z</time></trkpt><trkpt lat="44.292303576528575" lon="10.160496221673094"><ele>869.0</ele><time>2026-04-18T09:29:14Z</time></trkpt><trkpt lat="44.29223489071614" lon="10.160564060089916"><ele>868.0</ele><time>2026-04-18T09:29:15Z</time></trkpt><trkpt lat="44.292172247980744" lon="10.160637094374964"><ele>867.0</ele><time>2026-04-18T09:29:16Z</time></trkpt><trkpt lat="44.29211436862105" lon="10.160711109958358"><ele>866.0</ele><time>2026-04-18T09:29:17Z</time></trkpt><trkpt lat="44.29205500080909" lon="10.160790801783309"><ele>865.0</ele><time>2026-04-18T09:29:18Z</time></trkpt><trkpt lat="44.2920087724339" lon="10.160875825563215"><ele>864.0</ele><time>2026-04-18T09:29:19Z</time></trkpt><trkpt lat="44.29196352403646" lon="10.160960326688286"><ele>868.3333333333334</ele><time>2026-04-18T09:29:20Z</time></trkpt><trkpt lat="44.291922297467806" lon="10.161031950318502"><ele>872.6666666666667</ele><time>2026-04-18T09:29:21Z</time></trkpt><trkpt lat="44.29181979699884" lon="10.16115274393521"><ele>877.0</ele><time>2026-04-18T09:29:23Z</time></trkpt><trkpt lat="44.29177015095033" lon="10.161216493663039"><ele>881.3333333333334</ele><time>2026-04-18T09:29:24Z</time></trkpt><trkpt lat="44.2917173660792" lon="10.161279260058611"><ele>885.6666666666667</ele><time>2026-04-18T09:29:25Z</time></trkpt><trkpt lat="44.29166085552064" lon="10.161336325370337"><ele>890.0</ele><time>2026-04-18T09:29:26Z</time></trkpt><trkpt lat="44.29160554996845" lon="10.161406546817426"><ele>890.0</ele><time>2026-04-18T09:29:27Z</time></trkpt><trkpt lat="44.291538607806025" lon="10.161451240152715"><ele>890.0</ele><time>2026-04-18T09:29:28Z</time></trkpt><trkpt lat="44.29147318476368" lon="10.161490322504921"><ele>890.0</ele><time>2026-04-18T09:29:29Z</time></trkpt><trkpt lat="44.29136126842935" lon="10.161552720158326"><ele>890.0</ele><time>2026-04-18T09:29:31Z</time></trkpt><trkpt lat="44.29126566573609" lon="10.161642332358376"><ele>890.0</ele><time>2026-04-18T09:29:33Z</time></trkpt><trkpt lat="44.29125167774732" lon="10.16175929727339"><ele>894.5000000000001</ele><time>2026-04-18T09:29:35Z</time></trkpt><trkpt lat="44.29128935834747" lon="10.161859565354264"><ele>899.0</ele><time>2026-04-18T09:29:37Z</time></trkpt><trkpt lat="44.29136967315822" lon="10.16184088809348"><ele>903.5</ele><time>2026-04-18T09:29:39Z</time></trkpt><trkpt lat="44.29144916567319" lon="10.161775433493395"><ele>908.0</ele><time>2026-04-18T09:29:41Z</time></trkpt><trkpt lat="44.291511509694374" lon="10.161723814306331"><ele>912.5000000000001</ele><time>2026-04-18T09:29:42Z</time></trkpt><trkpt lat="44.29156950274934" lon="10.161675797582975"><ele>917.0</ele><time>2026-04-18T09:29:43Z</time></trkpt><trkpt lat="44.291663063070786" lon="10.161599145120901"><ele>910.25</ele><time>2026-04-18T09:29:45Z</time></trkpt><trkpt lat="44.291767217044416" lon="10.161515553364055"><ele>903.5</ele><time>2026-04-18T09:29:47Z</time></trkpt><trkpt lat="44.29187618220996" lon="10.161449128026337"><ele>896.75</ele><time>2026-04-18T09:29:49Z</time></trkpt><trkpt lat="44.29198063847094" lon="10.161375337386259"><ele>890.0</ele><time>2026-04-18T09:29:50.999Z</time></trkpt><trkpt lat="44.292086533468726" lon="10.1613049525218"><ele>890.0</ele><time>2026-04-18T09:29:52.999Z</time></trkpt><trkpt lat="44.29217875816948" lon="10.161207439636208"><ele>890.0</ele><time>2026-04-18T09:29:54.999Z</time></trkpt><trkpt lat="44.29227197967461" lon="10.161107123815224"><ele>890.0</ele><time>2026-04-18T09:29:56.999Z</time></trkpt><trkpt lat="44.292372397939396" lon="10.161022491683745"><ele>890.0</ele><time>2026-04-18T09:29:58.999Z</time></trkpt><trkpt lat="44.29246585649237" lon="10.160985421081003"><ele>890.0</ele><time>2026-04-18T09:30:00.999Z</time></trkpt><trkpt lat="44.29255112774838" lon="10.161050554176807"><ele>892.5000000000001</ele><time>2026-04-18T09:30:02.999Z</time></trkpt><trkpt lat="44.292582540075394" lon="10.161128029118963"><ele>895.0</ele><time>2026-04-18T09:30:03.999Z</time></trkpt><trkpt lat="44.292623826753015" lon="10.161204150633639"><ele>897.5</ele><time>2026-04-18T09:30:04.999Z</time></trkpt><trkpt lat="44.29267799079201" lon="10.161355673239017"><ele>900.0</ele><time>2026-04-18T09:30:06.999Z</time></trkpt><trkpt lat="44.292704674959545" lon="10.16143874211051"><ele>902.5000000000001</ele><time>2026-04-18T09:30:07.999Z</time></trkpt><trkpt lat="44.292774917439445" lon="10.161583671517484"><ele>905.0</ele><time>2026-04-18T09:30:09.999Z</time></trkpt><trkpt lat="44.292841287033504" lon="10.16162030223101"><ele>908.5714285714286</ele><time>2026-04-18T09:30:10.999Z</time></trkpt><trkpt lat="44.29290272374711" lon="10.16166481857027"><ele>912.1428571428571</ele><time>2026-04-18T09:30:11.999Z</time></trkpt><trkpt lat="44.29295705948343" lon="10.161714795284686"><ele>915.7142857142857</ele><time>2026-04-18T09:30:12.999Z</time></trkpt><trkpt lat="44.29302453264742" lon="10.161727130846007"><ele>919.2857142857142</ele><time>2026-04-18T09:30:13.999Z</time></trkpt><trkpt lat="44.293088466177245" lon="10.161751935800133"><ele>922.8571428571429</ele><time>2026-04-18T09:30:14.999Z</time></trkpt><trkpt lat="44.2931619250107" lon="10.161778574356916"><ele>926.4285714285713</ele><time>2026-04-18T09:30:15.999Z</time></trkpt><trkpt lat="44.29323281836506" lon="10.161807389429228"><ele>930.0</ele><time>2026-04-18T09:30:16.999Z</time></trkpt><trkpt lat="44.293292233884905" lon="10.161843672452063"><ele>930.0</ele><time>2026-04-18T09:30:17.999Z</time></trkpt><trkpt lat="44.293365965603066" lon="10.161881990552587"><ele>930.0</ele><time>2026-04-18T09:30:18.999Z</time></trkpt><trkpt lat="44.29349279649645" lon="10.161934845047702"><ele>930.0</ele><time>2026-04-18T09:30:20.999Z</time></trkpt><trkpt lat="44.293558117238426" lon="10.161959810127248"><ele>930.0</ele><time>2026-04-18T09:30:21.999Z</time></trkpt><trkpt lat="44.29365289182602" lon="10.161965867378397"><ele>930.0</ele><time>2026-04-18T09:30:23.999Z</time></trkpt><trkpt lat="44.29372954042417" lon="10.161998733068238"><ele>930.0</ele><time>2026-04-18T09:30:25.999Z</time></trkpt><trkpt lat="44.293743927140305" lon="10.16209126178084"><ele>930.0</ele><time>2026-04-18T09:30:27.999Z</time></trkpt><trkpt lat="44.29366628803818" lon="10.162137576334347"><ele>930.0</ele><time>2026-04-18T09:30:29.999Z</time></trkpt><trkpt lat="44.29353754090483" lon="10.162135835335985"><ele>930.0</ele><time>2026-04-18T09:30:31.999Z</time></trkpt><trkpt lat="44.29344403258501" lon="10.162136689049923"><ele>930.0</ele><time>2026-04-18T09:30:32.999Z</time></trkpt><trkpt lat="44.29334138638272" lon="10.162159829814483"><ele>930.0</ele><time>2026-04-18T09:30:33.999Z</time></trkpt><trkpt lat="44.29322879598734" lon="10.16218845650315"><ele>930.0</ele><time>2026-04-18T09:30:34.999Z</time></trkpt><trkpt lat="44.293131734648696" lon="10.162219152815148"><ele>930.0</ele><time>2026-04-18T09:30:35.999Z</time></trkpt><trkpt lat="44.293044044930326" lon="10.162251881902298"><ele>930.0</ele><time>2026-04-18T09:30:36.999Z</time></trkpt><trkpt lat="44.292954023977856" lon="10.162253628399256"><ele>930.0</ele><time>2026-04-18T09:30:37.999Z</time></trkpt><trkpt lat="44.292874254135405" lon="10.162265087956731"><ele>931.8333333333334</ele><time>2026-04-18T09:30:38.999Z</time></trkpt><trkpt lat="44.29279727200273" lon="10.16225039376801"><ele>933.6666666666667</ele><time>2026-04-18T09:30:39.999Z</time></trkpt><trkpt lat="44.2927147700899" lon="10.162213056412275"><ele>935.5</ele><time>2026-04-18T09:30:40.999Z</time></trkpt><trkpt lat="44.292662033152986" lon="10.162132813646185"><ele>937.3333333333334</ele><time>2026-04-18T09:30:41.999Z</time></trkpt><trkpt lat="44.29261552000961" lon="10.162065343734602"><ele>939.1666666666667</ele><time>2026-04-18T09:30:42.999Z</time></trkpt><trkpt lat="44.29257166037848" lon="10.161980368244373"><ele>941.0</ele><time>2026-04-18T09:30:43.999Z</time></trkpt><trkpt lat="44.292508844004125" lon="10.161891871896799"><ele>941.0000000000001</ele><time>2026-04-18T09:30:44.999Z</time></trkpt><trkpt lat="44.2924773757159" lon="10.161797859277343"><ele>941.0</ele><time>2026-04-18T09:30:45.999Z</time></trkpt><trkpt lat="44.29240992770199" lon="10.16171576193737"><ele>941.0</ele><time>2026-04-18T09:30:47.999Z</time></trkpt><trkpt lat="44.29230342100717" lon="10.161743045080156"><ele>941.0</ele><time>2026-04-18T09:30:50Z</time></trkpt><trkpt lat="44.29224480874894" lon="10.161813458950803"><ele>941.0000000000001</ele><time>2026-04-18T09:30:51Z</time></trkpt><trkpt lat="44.29216362181475" lon="10.161886875858906"><ele>941.0</ele><time>2026-04-18T09:30:52Z</time></trkpt><trkpt lat="44.29209467898361" lon="10.161990963939376"><ele>944.0</ele><time>2026-04-18T09:30:53Z</time></trkpt><trkpt lat="44.29202892933067" lon="10.162104469602578"><ele>946.9999999999999</ele><time>2026-04-18T09:30:54Z</time></trkpt><trkpt lat="44.29197360651568" lon="10.162208078100202"><ele>949.9999999999999</ele><time>2026-04-18T09:30:55Z</time></trkpt><trkpt lat="44.29192082415286" lon="10.162319414447618"><ele>953.0</ele><time>2026-04-18T09:30:56Z</time></trkpt><trkpt lat="44.29187377187065" lon="10.162407957969226"><ele>956.0</ele><time>2026-04-18T09:30:57Z</time></trkpt><trkpt lat="44.29182916122526" lon="10.162510073660124"><ele>956.0</ele><time>2026-04-18T09:30:58Z</time></trkpt><trkpt lat="44.29178940847202" lon="10.16263286963441"><ele>955.9999999999999</ele><time>2026-04-18T09:30:59Z</time></trkpt><trkpt lat="44.2917586220991" lon="10.16275728455912"><ele>955.9999999999999</ele><time>2026-04-18T09:31:00Z</time></trkpt><trkpt lat="44.29172575592021" lon="10.162876554333822"><ele>956.0</ele><time>2026-04-18T09:31:01Z</time></trkpt><trkpt lat="44.29169431465455" lon="10.163010755826255"><ele>956.0</ele><time>2026-04-18T09:31:02Z</time></trkpt><trkpt lat="44.29164102665254" lon="10.163139048945665"><ele>959.0000000000001</ele><time>2026-04-18T09:31:03Z</time></trkpt><trkpt lat="44.291600708196505" lon="10.163236096201256"><ele>962.0</ele><time>2026-04-18T09:31:04Z</time></trkpt><trkpt lat="44.29154693892172" lon="10.163331656120342"><ele>965.0</ele><time>2026-04-18T09:31:05Z</time></trkpt><trkpt lat="44.29149198836291" lon="10.163413916636072"><ele>968.0</ele><time>2026-04-18T09:31:06Z</time></trkpt><trkpt lat="44.29144188796661" lon="10.163494172139867"><ele>971.0000000000001</ele><time>2026-04-18T09:31:07Z</time></trkpt><trkpt lat="44.29135563169975" lon="10.163553320648848"><ele>974.0</ele><time>2026-04-18T09:31:08Z</time></trkpt><trkpt lat="44.29127246096229" lon="10.163597855672883"><ele>974.0</ele><time>2026-04-18T09:31:09Z</time></trkpt><trkpt lat="44.29117467501866" lon="10.163598398641925"><ele>974.0000000000001</ele><time>2026-04-18T09:31:10Z</time></trkpt><trkpt lat="44.29108754180055" lon="10.163623003471116"><ele>974.0000000000001</ele><time>2026-04-18T09:31:11Z</time></trkpt><trkpt lat="44.29098940785622" lon="10.163604710984966"><ele>974.0</ele><time>2026-04-18T09:31:12Z</time></trkpt><trkpt lat="44.29090549278445" lon="10.163574355794415"><ele>974.0</ele><time>2026-04-18T09:31:13Z</time></trkpt><trkpt lat="44.290826948393004" lon="10.163538661178283"><ele>974.0</ele><time>2026-04-18T09:31:14Z</time></trkpt><trkpt lat="44.29077613181863" lon="10.163462223626182"><ele>974.0000000000001</ele><time>2026-04-18T09:31:15Z</time></trkpt><trkpt lat="44.29068404982062" lon="10.163341566188931"><ele>974.0000000000001</ele><time>2026-04-18T09:31:17Z</time></trkpt><trkpt lat="44.29056738639822" lon="10.163333663750183"><ele>974.0</ele><time>2026-04-18T09:31:19Z</time></trkpt><trkpt lat="44.29048641746586" lon="10.163374239333965"><ele>974.0</ele><time>2026-04-18T09:31:20Z</time></trkpt><trkpt lat="44.29041915805517" lon="10.163444067582127"><ele>974.2</ele><time>2026-04-18T09:31:21Z</time></trkpt><trkpt lat="44.290328866677534" lon="10.16348290428905"><ele>974.4000000000001</ele><time>2026-04-18T09:31:22Z</time></trkpt><trkpt lat="44.29025056510841" lon="10.163542035471856"><ele>974.6</ele><time>2026-04-18T09:31:23Z</time></trkpt><trkpt lat="44.29017143240505" lon="10.163597827027154"><ele>974.8</ele><time>2026-04-18T09:31:24Z</time></trkpt><trkpt lat="44.29010204322062" lon="10.16364608619504"><ele>975.0</ele><time>2026-04-18T09:31:25Z</time></trkpt><trkpt lat="44.29000326333444" lon="10.163596668889083"><ele>975.0</ele><time>2026-04-18T09:31:26Z</time></trkpt><trkpt lat="44.28990420997464" lon="10.163560012682053"><ele>975.0</ele><time>2026-04-18T09:31:27Z</time></trkpt><trkpt lat="44.289813714326165" lon="10.163517344854831"><ele>975.0</ele><time>2026-04-18T09:31:28Z</time></trkpt><trkpt lat="44.28969481712769" lon="10.163464388365076"><ele>975.0</ele><time>2026-04-18T09:31:29Z</time></trkpt><trkpt lat="44.28958856105562" lon="10.163433797774648"><ele>975.0</ele><time>2026-04-18T09:31:30Z</time></trkpt><trkpt lat="44.28948355769764" lon="10.163432802687188"><ele>977.6666666666666</ele><time>2026-04-18T09:31:31Z</time></trkpt><trkpt lat="44.28937833504382" lon="10.16344912985413"><ele>980.3333333333333</ele><time>2026-04-18T09:31:32Z</time></trkpt><trkpt lat="44.28928337049229" lon="10.163463994964602"><ele>983.0</ele><time>2026-04-18T09:31:33Z</time></trkpt><trkpt lat="44.28921110303934" lon="10.163465024274545"><ele>985.6666666666666</ele><time>2026-04-18T09:31:34Z</time></trkpt><trkpt lat="44.2891158337802" lon="10.163444033688952"><ele>988.3333333333333</ele><time>2026-04-18T09:31:36Z</time></trkpt><trkpt lat="44.28905779056258" lon="10.163392640472296"><ele>991.0</ele><time>2026-04-18T09:31:38Z</time></trkpt><trkpt lat="44.289019830055466" lon="10.163317415510097"><ele>990.5999999999999</ele><time>2026-04-18T09:31:39Z</time></trkpt><trkpt lat="44.2889738247731" lon="10.163154445239"><ele>990.1999999999999</ele><time>2026-04-18T09:31:41Z</time></trkpt><trkpt lat="44.28892653434442" lon="10.16306056224467"><ele>989.8000000000001</ele><time>2026-04-18T09:31:42Z</time></trkpt><trkpt lat="44.28888388862956" lon="10.162893523860935"><ele>989.4000000000001</ele><time>2026-04-18T09:31:44Z</time></trkpt><trkpt lat="44.288821808458174" lon="10.16281621360968"><ele>989.0</ele><time>2026-04-18T09:31:45Z</time></trkpt><trkpt lat="44.288756259749945" lon="10.162749751768507"><ele>989.0</ele><time>2026-04-18T09:31:46Z</time></trkpt><trkpt lat="44.288662121883576" lon="10.16274132200085"><ele>989.0000000000001</ele><time>2026-04-18T09:31:47Z</time></trkpt><trkpt lat="44.28856342334821" lon="10.162740182203903"><ele>989.0000000000001</ele><time>2026-04-18T09:31:48Z</time></trkpt><trkpt lat="44.28845736143217" lon="10.162753567972363"><ele>989.0</ele><time>2026-04-18T09:31:49Z</time></trkpt><trkpt lat="44.28835108139625" lon="10.162786418124712"><ele>989.0</ele><time>2026-04-18T09:31:50Z</time></trkpt><trkpt lat="44.28825423949048" lon="10.16282774327998"><ele>989.0000000000001</ele><time>2026-04-18T09:31:51Z</time></trkpt><trkpt lat="44.288181134262345" lon="10.162859557771633"><ele>989.0</ele><time>2026-04-18T09:31:52Z</time></trkpt><trkpt lat="44.28810021371922" lon="10.162881467338995"><ele>989.0</ele><time>2026-04-18T09:31:53Z</time></trkpt><trkpt lat="44.2880290851822" lon="10.162956661653519"><ele>989.0</ele><time>2026-04-18T09:31:54Z</time></trkpt><trkpt lat="44.287946841573095" lon="10.162991975772487"><ele>989.0000000000001</ele><time>2026-04-18T09:31:55Z</time></trkpt><trkpt lat="44.28787247440808" lon="10.163023617414707"><ele>989.0</ele><time>2026-04-18T09:31:56Z</time></trkpt><trkpt lat="44.28780598612675" lon="10.163048433844073"><ele>988.0000000000001</ele><time>2026-04-18T09:31:57Z</time></trkpt><trkpt lat="44.28773255938219" lon="10.163069604302557"><ele>987.0</ele><time>2026-04-18T09:31:58Z</time></trkpt><trkpt lat="44.28763914352321" lon="10.163083521878887"><ele>986.0</ele><time>2026-04-18T09:31:58.999Z</time></trkpt><trkpt lat="44.28754454071258" lon="10.163089874609845"><ele>985.0</ele><time>2026-04-18T09:31:59.999Z</time></trkpt><trkpt lat="44.28745400605424" lon="10.163096823763391"><ele>984.0000000000001</ele><time>2026-04-18T09:32:00.999Z</time></trkpt><trkpt lat="44.28736323268006" lon="10.16311488680336"><ele>983.0</ele><time>2026-04-18T09:32:01.999Z</time></trkpt><trkpt lat="44.287278458480905" lon="10.163137485753216"><ele>983.3333333333334</ele><time>2026-04-18T09:32:02.999Z</time></trkpt><trkpt lat="44.287189297436534" lon="10.163175970634768"><ele>983.6666666666667</ele><time>2026-04-18T09:32:03.999Z</time></trkpt><trkpt lat="44.28710144376431" lon="10.163249997739232"><ele>984.0</ele><time>2026-04-18T09:32:04.999Z</time></trkpt><trkpt lat="44.287038784144286" lon="10.16332836882088"><ele>984.3333333333333</ele><time>2026-04-18T09:32:05.999Z</time></trkpt><trkpt lat="44.28700203306514" lon="10.163401511891495"><ele>984.6666666666666</ele><time>2026-04-18T09:32:06.999Z</time></trkpt><trkpt lat="44.28697231399034" lon="10.163500973136816"><ele>985.0</ele><time>2026-04-18T09:32:07.999Z</time></trkpt><trkpt lat="44.28694206250603" lon="10.163631786639325"><ele>985.0</ele><time>2026-04-18T09:32:08.999Z</time></trkpt><trkpt lat="44.2869059535781" lon="10.163774750668226"><ele>985.0</ele><time>2026-04-18T09:32:09.999Z</time></trkpt><trkpt lat="44.28687303511216" lon="10.163902309663086"><ele>985.0</ele><time>2026-04-18T09:32:10.999Z</time></trkpt><trkpt lat="44.2868572913116" lon="10.164034895910902"><ele>985.0</ele><time>2026-04-18T09:32:11.999Z</time></trkpt><trkpt lat="44.28682849280701" lon="10.16415330829403"><ele>985.0</ele><time>2026-04-18T09:32:12.999Z</time></trkpt><trkpt lat="44.28678785358873" lon="10.164246066957357"><ele>984.8333333333333</ele><time>2026-04-18T09:32:13.999Z</time></trkpt><trkpt lat="44.28676268949914" lon="10.164352962070847"><ele>984.6666666666666</ele><time>2026-04-18T09:32:14.999Z</time></trkpt><trkpt lat="44.28674773172322" lon="10.164444667655786"><ele>984.5</ele><time>2026-04-18T09:32:15.999Z</time></trkpt><trkpt lat="44.28674839871829" lon="10.164580505401572"><ele>984.3333333333333</ele><time>2026-04-18T09:32:17.999Z</time></trkpt><trkpt lat="44.286755538264984" lon="10.16468077454524"><ele>984.1666666666666</ele><time>2026-04-18T09:32:18.999Z</time></trkpt><trkpt lat="44.2867833672013" lon="10.16480740538389"><ele>984.0</ele><time>2026-04-18T09:32:19.999Z</time></trkpt><trkpt lat="44.286837521566426" lon="10.16491589228783"><ele>984.0</ele><time>2026-04-18T09:32:20.999Z</time></trkpt><trkpt lat="44.286871241654865" lon="10.165010841233482"><ele>984.0</ele><time>2026-04-18T09:32:21.999Z</time></trkpt><trkpt lat="44.28692937383677" lon="10.165064508405969"><ele>984.0</ele><time>2026-04-18T09:32:22.999Z</time></trkpt><trkpt lat="44.2869965303474" lon="10.165113899291995"><ele>984.0</ele><time>2026-04-18T09:32:23.999Z</time></trkpt><trkpt lat="44.28707925540749" lon="10.16512947480717"><ele>984.0</ele><time>2026-04-18T09:32:24.999Z</time></trkpt><trkpt lat="44.28715570317469" lon="10.165132975701985"><ele>984.0</ele><time>2026-04-18T09:32:25.999Z</time></trkpt><trkpt lat="44.28722457651563" lon="10.165127173046637"><ele>985.5</ele><time>2026-04-18T09:32:26.999Z</time></trkpt><trkpt lat="44.287289945100895" lon="10.165112954044549"><ele>987.0</ele><time>2026-04-18T09:32:27.999Z</time></trkpt><trkpt lat="44.287386817331125" lon="10.16508383594568"><ele>988.5</ele><time>2026-04-18T09:32:29.999Z</time></trkpt><trkpt lat="44.287467894124475" lon="10.165030787711435"><ele>990.0</ele><time>2026-04-18T09:34:07.999Z</time></trkpt><trkpt lat="44.28751604635016" lon="10.16495485947327"><ele>991.5</ele><time>2026-04-18T09:34:10.999Z</time></trkpt><trkpt lat="44.287576543908834" lon="10.165049175962737"><ele>993.0</ele><time>2026-04-18T09:34:15.999Z</time></trkpt><trkpt lat="44.28758992251415" lon="10.165155994889668"><ele>993.0</ele><time>2026-04-18T09:34:16.999Z</time></trkpt><trkpt lat="44.28761931248029" lon="10.165297403726854"><ele>993.0</ele><time>2026-04-18T09:34:18.999Z</time></trkpt><trkpt lat="44.2876628116384" lon="10.165431715839675"><ele>993.0</ele><time>2026-04-18T09:34:20.999Z</time></trkpt><trkpt lat="44.28769824044708" lon="10.165541872591852"><ele>993.0</ele><time>2026-04-18T09:34:22.999Z</time></trkpt><trkpt lat="44.28773322003198" lon="10.165687980265796"><ele>993.0</ele><time>2026-04-18T09:34:24.999Z</time></trkpt><trkpt lat="44.28778019134774" lon="10.165816581051812"><ele>990.8</ele><time>2026-04-18T09:34:26.999Z</time></trkpt><trkpt lat="44.287804131160385" lon="10.165969145208196"><ele>988.5999999999999</ele><time>2026-04-18T09:34:28.999Z</time></trkpt><trkpt lat="44.28782861209701" lon="10.166094150478232"><ele>986.4000000000001</ele><time>2026-04-18T09:34:30.999Z</time></trkpt><trkpt lat="44.28783017358999" lon="10.166235739841294"><ele>984.2</ele><time>2026-04-18T09:34:32.999Z</time></trkpt><trkpt lat="44.28780183435908" lon="10.166368588860353"><ele>982.0</ele><time>2026-04-18T09:34:34.999Z</time></trkpt><trkpt lat="44.287755014390115" lon="10.166450373667244"><ele>981.2</ele><time>2026-04-18T09:34:35.999Z</time></trkpt><trkpt lat="44.287692283820675" lon="10.166571049596312"><ele>980.4000000000001</ele><time>2026-04-18T09:34:37.999Z</time></trkpt><trkpt lat="44.2876635524464" lon="10.166691557646477"><ele>979.5999999999999</ele><time>2026-04-18T09:34:39.999Z</time></trkpt><trkpt lat="44.287634971867696" lon="10.166832216626105"><ele>978.8</ele><time>2026-04-18T09:34:41.999Z</time></trkpt><trkpt lat="44.28764468438548" lon="10.166965712333647"><ele>978.0</ele><time>2026-04-18T09:34:43.999Z</time></trkpt><trkpt lat="44.28765880863589" lon="10.167057912449073"><ele>978.0</ele><time>2026-04-18T09:34:44.999Z</time></trkpt><trkpt lat="44.28766667688458" lon="10.167150544815428"><ele>978.0000000000001</ele><time>2026-04-18T09:34:45.999Z</time></trkpt><trkpt lat="44.28770665709207" lon="10.167240056054652"><ele>978.0</ele><time>2026-04-18T09:34:46.999Z</time></trkpt><trkpt lat="44.28776880879051" lon="10.167314086111155"><ele>978.0</ele><time>2026-04-18T09:34:47.999Z</time></trkpt><trkpt lat="44.28783683773896" lon="10.16736271216834"><ele>978.0000000000001</ele><time>2026-04-18T09:34:48.999Z</time></trkpt><trkpt lat="44.287895371181335" lon="10.167412939611296"><ele>978.0</ele><time>2026-04-18T09:34:49.999Z</time></trkpt><trkpt lat="44.28794370419786" lon="10.16748092177343"><ele>978.0</ele><time>2026-04-18T09:34:50.999Z</time></trkpt><trkpt lat="44.28799430191058" lon="10.16753638313961"><ele>975.4</ele><time>2026-04-18T09:34:51.999Z</time></trkpt><trkpt lat="44.288009852142785" lon="10.167724306240117"><ele>972.8</ele><time>2026-04-18T09:34:53.999Z</time></trkpt><trkpt lat="44.28809854186148" lon="10.16787970826965"><ele>970.2</ele><time>2026-04-18T09:34:55.999Z</time></trkpt><trkpt lat="44.28819035322826" lon="10.16791131661781"><ele>967.6</ele><time>2026-04-18T09:34:56.999Z</time></trkpt><trkpt lat="44.28821596888161" lon="10.167998241379788"><ele>965.0</ele><time>2026-04-18T09:34:57.999Z</time></trkpt><trkpt lat="44.288243219640556" lon="10.168084352340722"><ele>966.0000000000001</ele><time>2026-04-18T09:34:58.999Z</time></trkpt><trkpt lat="44.28828218204535" lon="10.168161423325717"><ele>967.0</ele><time>2026-04-18T09:34:59.999Z</time></trkpt><trkpt lat="44.28831479186446" lon="10.168313227168209"><ele>968.0</ele><time>2026-04-18T09:35:02Z</time></trkpt><trkpt lat="44.28834902030755" lon="10.16839751471722"><ele>969.0</ele><time>2026-04-18T09:35:04Z</time></trkpt><trkpt lat="44.28834411910593" lon="10.168513641763925"><ele>970.0000000000001</ele><time>2026-04-18T09:35:06Z</time></trkpt><trkpt lat="44.2883012556572" lon="10.16863339958037"><ele>971.0</ele><time>2026-04-18T09:35:08Z</time></trkpt><trkpt lat="44.28822644668657" lon="10.168689288200698"><ele>971.0000000000001</ele><time>2026-04-18T09:35:10Z</time></trkpt><trkpt lat="44.288156916512584" lon="10.168631198138662"><ele>971.0</ele><time>2026-04-18T09:35:12Z</time></trkpt><trkpt lat="44.288183913438054" lon="10.168508179326468"><ele>971.0</ele><time>2026-04-18T09:35:14Z</time></trkpt><trkpt lat="44.288171503585424" lon="10.1684140062802"><ele>971.0</ele><time>2026-04-18T09:35:15Z</time></trkpt><trkpt lat="44.28816393058221" lon="10.168318826832008"><ele>971.0000000000001</ele><time>2026-04-18T09:35:16Z</time></trkpt><trkpt lat="44.28812508330835" lon="10.1681629823095"><ele>971.0</ele><time>2026-04-18T09:35:18Z</time></trkpt><trkpt lat="44.288089166412036" lon="10.16808902941623"><ele>970.0000000000001</ele><time>2026-04-18T09:35:19Z</time></trkpt><trkpt lat="44.288045965225116" lon="10.16801112002932"><ele>969.0</ele><time>2026-04-18T09:35:20Z</time></trkpt><trkpt lat="44.287999312084246" lon="10.167914034391222"><ele>968.0</ele><time>2026-04-18T09:35:21Z</time></trkpt><trkpt lat="44.2879460041666" lon="10.167831028354193"><ele>967.0</ele><time>2026-04-18T09:35:22Z</time></trkpt><trkpt lat="44.287897650716104" lon="10.1677591157315"><ele>966.0000000000001</ele><time>2026-04-18T09:35:23Z</time></trkpt><trkpt lat="44.28784379368882" lon="10.1676807137731"><ele>965.0</ele><time>2026-04-18T09:35:24Z</time></trkpt><trkpt lat="44.28778057197587" lon="10.167603420247975"><ele>965.0</ele><time>2026-04-18T09:35:25Z</time></trkpt><trkpt lat="44.287709784293156" lon="10.167538311500419"><ele>965.0</ele><time>2026-04-18T09:35:26Z</time></trkpt><trkpt lat="44.28764716325967" lon="10.167494244245097"><ele>965.0</ele><time>2026-04-18T09:35:27Z</time></trkpt><trkpt lat="44.28757822992282" lon="10.167474915841897"><ele>965.0</ele><time>2026-04-18T09:35:28Z</time></trkpt><trkpt lat="44.28751419374184" lon="10.167490318338444"><ele>965.0</ele><time>2026-04-18T09:35:29Z</time></trkpt><trkpt lat="44.28745323049329" lon="10.167524608140148"><ele>965.0</ele><time>2026-04-18T09:35:30Z</time></trkpt><trkpt lat="44.2873898607729" lon="10.167575206023747"><ele>965.0</ele><time>2026-04-18T09:35:31Z</time></trkpt><trkpt lat="44.28732450759229" lon="10.167580481560563"><ele>961.8</ele><time>2026-04-18T09:35:32Z</time></trkpt><trkpt lat="44.28721819030736" lon="10.16751838322998"><ele>958.6</ele><time>2026-04-18T09:35:34Z</time></trkpt><trkpt lat="44.287167424479534" lon="10.167434880024498"><ele>955.4000000000001</ele><time>2026-04-18T09:35:35Z</time></trkpt><trkpt lat="44.287088286054555" lon="10.167295818322742"><ele>952.2</ele><time>2026-04-18T09:35:37Z</time></trkpt><trkpt lat="44.28705395013613" lon="10.167211218478078"><ele>949.0</ele><time>2026-04-18T09:35:38Z</time></trkpt><trkpt lat="44.2870260503307" lon="10.167126620550626"><ele>948.9999999999999</ele><time>2026-04-18T09:35:39Z</time></trkpt><trkpt lat="44.286998546461305" lon="10.167039369464387"><ele>949.0</ele><time>2026-04-18T09:35:40Z</time></trkpt><trkpt lat="44.286966744922175" lon="10.166937768191993"><ele>949.0</ele><time>2026-04-18T09:35:41Z</time></trkpt><trkpt lat="44.28693842217792" lon="10.166844529484845"><ele>949.0</ele><time>2026-04-18T09:35:42Z</time></trkpt><trkpt lat="44.286915923126564" lon="10.166760494049285"><ele>948.9999999999999</ele><time>2026-04-18T09:35:43Z</time></trkpt><trkpt lat="44.28688126890464" lon="10.166584527327293"><ele>949.0</ele><time>2026-04-18T09:35:45Z</time></trkpt><trkpt lat="44.28687258906021" lon="10.166479095885846"><ele>951.8333333333333</ele><time>2026-04-18T09:35:46Z</time></trkpt><trkpt lat="44.2868895093265" lon="10.166384780533221"><ele>954.6666666666666</ele><time>2026-04-18T09:35:47Z</time></trkpt><trkpt lat="44.28688423411548" lon="10.166289427187765"><ele>957.5</ele><time>2026-04-18T09:35:48Z</time></trkpt><trkpt lat="44.28684606904216" lon="10.166167319557163"><ele>960.3333333333333</ele><time>2026-04-18T09:35:50Z</time></trkpt><trkpt lat="44.28676900271164" lon="10.16607446933769"><ele>963.1666666666666</ele><time>2026-04-18T09:35:52Z</time></trkpt><trkpt lat="44.286704006807554" lon="10.166028080568294"><ele>966.0</ele><time>2026-04-18T09:35:53Z</time></trkpt><trkpt lat="44.28663848404865" lon="10.16599301463075"><ele>966.0</ele><time>2026-04-18T09:35:54Z</time></trkpt><trkpt lat="44.286507415274" lon="10.165969509504874"><ele>965.9999999999999</ele><time>2026-04-18T09:35:56Z</time></trkpt><trkpt lat="44.28639585296405" lon="10.165997116590908"><ele>965.9999999999999</ele><time>2026-04-18T09:35:58Z</time></trkpt><trkpt lat="44.28633150219329" lon="10.166022615151935"><ele>966.0</ele><time>2026-04-18T09:35:59Z</time></trkpt><trkpt lat="44.286267605318514" lon="10.166017844474911"><ele>966.0</ele><time>2026-04-18T09:36:00Z</time></trkpt><trkpt lat="44.286162923003026" lon="10.166030926050125"><ele>964.5</ele><time>2026-04-18T09:36:02Z</time></trkpt><trkpt lat="44.286076060627124" lon="10.166039596971642"><ele>963.0</ele><time>2026-04-18T09:36:04Z</time></trkpt><trkpt lat="44.28600393411911" lon="10.16602883492434"><ele>961.5</ele><time>2026-04-18T09:36:06Z</time></trkpt><trkpt lat="44.2859236355849" lon="10.165958814622456"><ele>960.0</ele><time>2026-04-18T09:36:08Z</time></trkpt><trkpt lat="44.28586293597221" lon="10.165864448905126"><ele>958.5</ele><time>2026-04-18T09:36:10Z</time></trkpt><trkpt lat="44.285819402202264" lon="10.165731946668933"><ele>957.0</ele><time>2026-04-18T09:36:12Z</time></trkpt><trkpt lat="44.28578593451641" lon="10.165650035885632"><ele>957.0</ele><time>2026-04-18T09:36:13Z</time></trkpt><trkpt lat="44.28573943724992" lon="10.165581650358874"><ele>957.0</ele><time>2026-04-18T09:36:14Z</time></trkpt><trkpt lat="44.28568441461746" lon="10.165532673483595"><ele>957.0</ele><time>2026-04-18T09:36:15Z</time></trkpt><trkpt lat="44.2856468124927" lon="10.165459842936857"><ele>957.0</ele><time>2026-04-18T09:36:15.999Z</time></trkpt><trkpt lat="44.28556579398224" lon="10.165361433036603"><ele>957.0</ele><time>2026-04-18T09:36:17.999Z</time></trkpt><trkpt lat="44.28550943769736" lon="10.16527311628334"><ele>957.0</ele><time>2026-04-18T09:36:19.999Z</time></trkpt><trkpt lat="44.28546587219426" lon="10.165155936357294"><ele>951.4000000000001</ele><time>2026-04-18T09:36:21.999Z</time></trkpt><trkpt lat="44.285435653180976" lon="10.165003803481735"><ele>945.8000000000001</ele><time>2026-04-18T09:36:23.999Z</time></trkpt><trkpt lat="44.28540610519033" lon="10.164846838716548"><ele>940.2</ele><time>2026-04-18T09:36:25.999Z</time></trkpt><trkpt lat="44.285382567664186" lon="10.16474990098307"><ele>934.6</ele><time>2026-04-18T09:36:26.999Z</time></trkpt><trkpt lat="44.28533906151821" lon="10.164588706106313"><ele>929.0</ele><time>2026-04-18T09:36:28.999Z</time></trkpt><trkpt lat="44.28529861966358" lon="10.164501372027793"><ele>929.0000000000001</ele><time>2026-04-18T09:36:29.999Z</time></trkpt><trkpt lat="44.28528273492509" lon="10.164410929786504"><ele>929.0</ele><time>2026-04-18T09:36:30.999Z</time></trkpt><trkpt lat="44.285262413427475" lon="10.164314997078534"><ele>929.0</ele><time>2026-04-18T09:36:31.999Z</time></trkpt><trkpt lat="44.28523610719628" lon="10.164220444827047"><ele>929.0</ele><time>2026-04-18T09:36:32.999Z</time></trkpt><trkpt lat="44.28518645154914" lon="10.164076433945874"><ele>929.0000000000001</ele><time>2026-04-18T09:36:34.999Z</time></trkpt><trkpt lat="44.28515598587462" lon="10.16398980046788"><ele>929.0</ele><time>2026-04-18T09:36:35.999Z</time></trkpt><trkpt lat="44.28513710371499" lon="10.163820424372128"><ele>928.4000000000001</ele><time>2026-04-18T09:36:37.999Z</time></trkpt><trkpt lat="44.28515148704444" lon="10.163720890320674"><ele>927.8000000000001</ele><time>2026-04-18T09:36:38.999Z</time></trkpt><trkpt lat="44.28520692585424" lon="10.163654550749467"><ele>927.1999999999999</ele><time>2026-04-18T09:36:39.999Z</time></trkpt><trkpt lat="44.28527003724648" lon="10.16349005652156"><ele>926.5999999999999</ele><time>2026-04-18T09:36:41.999Z</time></trkpt><trkpt lat="44.28529300042898" lon="10.163396176475239"><ele>926.0</ele><time>2026-04-18T09:36:42.999Z</time></trkpt><trkpt lat="44.285284329053525" lon="10.163223573666162"><ele>927.3333333333334</ele><time>2026-04-18T09:36:44.999Z</time></trkpt><trkpt lat="44.28523941810486" lon="10.163132259099527"><ele>928.6666666666667</ele><time>2026-04-18T09:36:45.999Z</time></trkpt><trkpt lat="44.28519976966824" lon="10.163055461570023"><ele>930.0</ele><time>2026-04-18T09:36:46.999Z</time></trkpt><trkpt lat="44.285155379452156" lon="10.162977148072699"><ele>931.3333333333333</ele><time>2026-04-18T09:36:47.999Z</time></trkpt><trkpt lat="44.28508664266658" lon="10.162892435240243"><ele>932.6666666666666</ele><time>2026-04-18T09:36:48.999Z</time></trkpt><trkpt lat="44.2850246073898" lon="10.162837914712325"><ele>934.0</ele><time>2026-04-18T09:36:49.999Z</time></trkpt><trkpt lat="44.284964647197675" lon="10.162795302116722"><ele>934.0</ele><time>2026-04-18T09:36:50.999Z</time></trkpt><trkpt lat="44.28485818119262" lon="10.162741959055682"><ele>934.0000000000001</ele><time>2026-04-18T09:36:52.999Z</time></trkpt><trkpt lat="44.28478765756314" lon="10.162710034413651"><ele>934.0000000000001</ele><time>2026-04-18T09:36:53.999Z</time></trkpt><trkpt lat="44.284717156840266" lon="10.16267750841452"><ele>934.0</ele><time>2026-04-18T09:36:54.999Z</time></trkpt><trkpt lat="44.28465221562916" lon="10.162647547255425"><ele>934.0</ele><time>2026-04-18T09:36:55.999Z</time></trkpt><trkpt lat="44.28453900361134" lon="10.162584745237103"><ele>931.4999999999999</ele><time>2026-04-18T09:36:57.999Z</time></trkpt><trkpt lat="44.284474521778975" lon="10.162548567444102"><ele>929.0</ele><time>2026-04-18T09:36:58.999Z</time></trkpt><trkpt lat="44.284406343302706" lon="10.162516518577874"><ele>926.5</ele><time>2026-04-18T09:36:59.999Z</time></trkpt><trkpt lat="44.28433901948122" lon="10.162491288754277"><ele>924.0</ele><time>2026-04-18T09:37:00.999Z</time></trkpt><trkpt lat="44.28425551745825" lon="10.162473632540438"><ele>921.4999999999999</ele><time>2026-04-18T09:37:01.999Z</time></trkpt><trkpt lat="44.28417019582261" lon="10.162484195119147"><ele>919.0</ele><time>2026-04-18T09:37:02.999Z</time></trkpt><trkpt lat="44.28409412438352" lon="10.162482648236212"><ele>918.9999999999999</ele><time>2026-04-18T09:37:03.999Z</time></trkpt><trkpt lat="44.28401797739821" lon="10.162490246752315"><ele>919.0</ele><time>2026-04-18T09:37:04.999Z</time></trkpt><trkpt lat="44.28393894482729" lon="10.162473153278693"><ele>919.0</ele><time>2026-04-18T09:37:05.999Z</time></trkpt><trkpt lat="44.28386993591468" lon="10.162454572029374"><ele>919.0</ele><time>2026-04-18T09:37:06.999Z</time></trkpt><trkpt lat="44.2837912488823" lon="10.16241735955099"><ele>918.9999999999999</ele><time>2026-04-18T09:37:08Z</time></trkpt><trkpt lat="44.28371820376652" lon="10.16237293306907"><ele>919.0</ele><time>2026-04-18T09:37:09Z</time></trkpt><trkpt lat="44.283639090959205" lon="10.162318923666906"><ele>920.1666666666666</ele><time>2026-04-18T09:37:10Z</time></trkpt><trkpt lat="44.283562054012656" lon="10.162259221330503"><ele>921.3333333333333</ele><time>2026-04-18T09:37:11Z</time></trkpt><trkpt lat="44.28349007415537" lon="10.162215771349416"><ele>922.5</ele><time>2026-04-18T09:37:12Z</time></trkpt><trkpt lat="44.28342368640781" lon="10.162152769354426"><ele>923.6666666666667</ele><time>2026-04-18T09:37:13Z</time></trkpt><trkpt lat="44.283354520923425" lon="10.162095566314635"><ele>924.8333333333334</ele><time>2026-04-18T09:37:14Z</time></trkpt><trkpt lat="44.28329378413743" lon="10.16202511256346"><ele>926.0</ele><time>2026-04-18T09:37:15Z</time></trkpt><trkpt lat="44.28322376790372" lon="10.161965798407236"><ele>926.0</ele><time>2026-04-18T09:37:16Z</time></trkpt><trkpt lat="44.28315531469865" lon="10.161914446908984"><ele>925.9999999999999</ele><time>2026-04-18T09:37:17Z</time></trkpt><trkpt lat="44.283051897227125" lon="10.161874193275723"><ele>925.9999999999999</ele><time>2026-04-18T09:37:19Z</time></trkpt><trkpt lat="44.28293782953296" lon="10.161908166113438"><ele>926.0</ele><time>2026-04-18T09:37:21Z</time></trkpt><trkpt lat="44.282805269368616" lon="10.161873384390596"><ele>926.0</ele><time>2026-04-18T09:37:23Z</time></trkpt><trkpt lat="44.282722050138084" lon="10.161850594972204"><ele>925.5000000000001</ele><time>2026-04-18T09:37:24Z</time></trkpt><trkpt lat="44.28263818210427" lon="10.161836033770193"><ele>925.0</ele><time>2026-04-18T09:37:25Z</time></trkpt><trkpt lat="44.28254854454474" lon="10.161832501098283"><ele>924.5</ele><time>2026-04-18T09:37:26Z</time></trkpt><trkpt lat="44.28246090674648" lon="10.161836885679847"><ele>924.0</ele><time>2026-04-18T09:37:27Z</time></trkpt><trkpt lat="44.28236847818021" lon="10.161846928661857"><ele>923.5000000000001</ele><time>2026-04-18T09:37:28Z</time></trkpt><trkpt lat="44.28228294994929" lon="10.161859848766149"><ele>923.0</ele><time>2026-04-18T09:37:29Z</time></trkpt><trkpt lat="44.28219450085171" lon="10.161896593023963"><ele>923.0000000000001</ele><time>2026-04-18T09:37:30Z</time></trkpt><trkpt lat="44.28213997650718" lon="10.161943279453794"><ele>923.0</ele><time>2026-04-18T09:37:31Z</time></trkpt><trkpt lat="44.28211596307984" lon="10.162027890277756"><ele>923.0</ele><time>2026-04-18T09:37:32Z</time></trkpt><trkpt lat="44.282139126677535" lon="10.162136942663187"><ele>923.0</ele><time>2026-04-18T09:37:33Z</time></trkpt><trkpt lat="44.28222730020384" lon="10.16218190308012"><ele>923.0000000000001</ele><time>2026-04-18T09:37:34Z</time></trkpt><trkpt lat="44.282297182702514" lon="10.162158110985951"><ele>923.0</ele><time>2026-04-18T09:37:35Z</time></trkpt><trkpt lat="44.28238198017392" lon="10.162105697841895"><ele>922.3333333333334</ele><time>2026-04-18T09:37:36Z</time></trkpt><trkpt lat="44.28246357661788" lon="10.16208671113562"><ele>921.6666666666667</ele><time>2026-04-18T09:37:37Z</time></trkpt><trkpt lat="44.28255022523031" lon="10.162111339429249"><ele>921.0</ele><time>2026-04-18T09:37:38Z</time></trkpt><trkpt lat="44.282625177353175" lon="10.162161348512011"><ele>920.3333333333333</ele><time>2026-04-18T09:37:39Z</time></trkpt><trkpt lat="44.28268062054472" lon="10.16230004090322"><ele>919.6666666666666</ele><time>2026-04-18T09:37:41Z</time></trkpt><trkpt lat="44.282652151142955" lon="10.162379786296771"><ele>919.0</ele><time>2026-04-18T09:37:42Z</time></trkpt><trkpt lat="44.28259431982249" lon="10.16244656156156"><ele>914.3333333333333</ele><time>2026-04-18T09:37:43Z</time></trkpt><trkpt lat="44.28250086563669" lon="10.16239855173476"><ele>909.6666666666666</ele><time>2026-04-18T09:37:44Z</time></trkpt><trkpt lat="44.28241059685929" lon="10.162416953783202"><ele>905.0</ele><time>2026-04-18T09:37:45Z</time></trkpt><trkpt lat="44.28232626332621" lon="10.162438225024353"><ele>900.3333333333333</ele><time>2026-04-18T09:37:46Z</time></trkpt><trkpt lat="44.28225500557506" lon="10.162461806110015"><ele>895.6666666666666</ele><time>2026-04-18T09:37:47Z</time></trkpt><trkpt lat="44.282164689470264" lon="10.16249169429195"><ele>891.0</ele><time>2026-04-18T09:37:49Z</time></trkpt><trkpt lat="44.28208065122853" lon="10.16250175098224"><ele>891.0</ele><time>2026-04-18T09:37:52Z</time></trkpt><trkpt lat="44.281999610262865" lon="10.162497069148165"><ele>891.0</ele><time>2026-04-18T09:37:55Z</time></trkpt><trkpt lat="44.28193559573297" lon="10.162498307387741"><ele>891.0</ele><time>2026-04-18T09:37:57Z</time></trkpt><trkpt lat="44.28184139337697" lon="10.162522220402094"><ele>891.0</ele><time>2026-04-18T09:38:00Z</time></trkpt><trkpt lat="44.28177212434022" lon="10.162564086713552"><ele>891.0</ele><time>2026-04-18T09:38:03Z</time></trkpt><trkpt lat="44.28169513215172" lon="10.162624678127811"><ele>891.0</ele><time>2026-04-18T09:38:06Z</time></trkpt><trkpt lat="44.281631495489826" lon="10.162672967803962"><ele>891.0</ele><time>2026-04-18T09:38:09Z</time></trkpt><trkpt lat="44.281564949443975" lon="10.16270528919899"><ele>891.0</ele><time>2026-04-18T09:38:12Z</time></trkpt><trkpt lat="44.2814712743847" lon="10.162730460012513"><ele>891.0</ele><time>2026-04-18T09:38:15Z</time></trkpt><trkpt lat="44.28140040100926" lon="10.162773156015257"><ele>891.0</ele><time>2026-04-18T09:38:17.999Z</time></trkpt><trkpt lat="44.28133755975406" lon="10.162820604977687"><ele>891.0</ele><time>2026-04-18T09:38:20.999Z</time></trkpt><trkpt lat="44.28127492767237" lon="10.162879542413453"><ele>891.0</ele><time>2026-04-18T09:38:23.999Z</time></trkpt><trkpt lat="44.28123663800729" lon="10.162999780835678"><ele>891.0</ele><time>2026-04-18T09:38:25.999Z</time></trkpt><trkpt lat="44.28125576752366" lon="10.16311477094113"><ele>891.0</ele><time>2026-04-18T09:38:27.999Z</time></trkpt><trkpt lat="44.281289025907036" lon="10.163196561376745"><ele>891.0</ele><time>2026-04-18T09:38:29.999Z</time></trkpt><trkpt lat="44.28135895578661" lon="10.163271120052519"><ele>891.0</ele><time>2026-04-18T09:38:32.999Z</time></trkpt><trkpt lat="44.28144597559627" lon="10.16327595048358"><ele>891.0</ele><time>2026-04-18T09:38:35.999Z</time></trkpt><trkpt lat="44.28151237944653" lon="10.163271628140258"><ele>891.0</ele><time>2026-04-18T09:38:38.999Z</time></trkpt><trkpt lat="44.28159065010377" lon="10.163242753379567"><ele>891.0000000000001</ele><time>2026-04-18T09:38:42.999Z</time></trkpt><trkpt lat="44.281651514616094" lon="10.163211034671493"><ele>891.0</ele><time>2026-04-18T09:38:45.999Z</time></trkpt><trkpt lat="44.2817098020789" lon="10.163176991035783"><ele>891.0</ele><time>2026-04-18T09:38:48.999Z</time></trkpt><trkpt lat="44.281766394509226" lon="10.163135644561477"><ele>891.0</ele><time>2026-04-18T09:38:51.999Z</time></trkpt><trkpt lat="44.28183807395931" lon="10.163101267360288"><ele>891.0</ele><time>2026-04-18T09:38:54.999Z</time></trkpt><trkpt lat="44.28190994603181" lon="10.163076469918012"><ele>891.0000000000001</ele><time>2026-04-18T09:38:57.999Z</time></trkpt><trkpt lat="44.28197813037107" lon="10.163068150493975"><ele>891.0</ele><time>2026-04-18T09:39:00.999Z</time></trkpt><trkpt lat="44.28205264784849" lon="10.16307899504606"><ele>891.0000000000001</ele><time>2026-04-18T09:39:03.999Z</time></trkpt><trkpt lat="44.28211998632534" lon="10.163097251750509"><ele>891.0</ele><time>2026-04-18T09:39:06.999Z</time></trkpt><trkpt lat="44.28217573273673" lon="10.163168682027028"><ele>891.0</ele><time>2026-04-18T09:39:09.999Z</time></trkpt><trkpt lat="44.28223811190889" lon="10.163222851065443"><ele>891.0</ele><time>2026-04-18T09:39:12.999Z</time></trkpt><trkpt lat="44.282311669600844" lon="10.163272909783634"><ele>891.0</ele><time>2026-04-18T09:39:16Z</time></trkpt><trkpt lat="44.2823713767656" lon="10.163335809986542"><ele>891.0000000000001</ele><time>2026-04-18T09:39:19Z</time></trkpt><trkpt lat="44.282422204035306" lon="10.163403639757934"><ele>891.0</ele><time>2026-04-18T09:39:22Z</time></trkpt><trkpt lat="44.28247784776574" lon="10.16347996018078"><ele>887.5</ele><time>2026-04-18T09:39:25Z</time></trkpt><trkpt lat="44.282534297207775" lon="10.163547473141554"><ele>884.0</ele><time>2026-04-18T09:39:28Z</time></trkpt><trkpt lat="44.28259087349448" lon="10.163645929887275"><ele>880.5</ele><time>2026-04-18T09:39:32Z</time></trkpt><trkpt lat="44.282574088770566" lon="10.163754159020321"><ele>877.0</ele><time>2026-04-18T09:39:35Z</time></trkpt><trkpt lat="44.282559037623656" lon="10.163841517393916"><ele>873.5</ele><time>2026-04-18T09:39:38Z</time></trkpt><trkpt lat="44.282528015324175" lon="10.16394278835154"><ele>870.0</ele><time>2026-04-18T09:39:41Z</time></trkpt><trkpt lat="44.28249600498884" lon="10.16404725592045"><ele>867.6666666666666</ele><time>2026-04-18T09:39:44Z</time></trkpt><trkpt lat="44.28248418017964" lon="10.164141990575663"><ele>865.3333333333333</ele><time>2026-04-18T09:39:47Z</time></trkpt><trkpt lat="44.28247330840757" lon="10.164241782006432"><ele>863.0</ele><time>2026-04-18T09:39:50Z</time></trkpt><trkpt lat="44.28244339166977" lon="10.164337467858838"><ele>860.6666666666666</ele><time>2026-04-18T09:39:53Z</time></trkpt><trkpt lat="44.2824145078042" lon="10.164434423602756"><ele>858.3333333333333</ele><time>2026-04-18T09:39:56Z</time></trkpt><trkpt lat="44.28235809312857" lon="10.164498944181968"><ele>856.0</ele><time>2026-04-18T09:39:59Z</time></trkpt><trkpt lat="44.28227223181295" lon="10.16451224856317"><ele>854.5714285714287</ele><time>2026-04-18T09:40:03Z</time></trkpt><trkpt lat="44.28220205457472" lon="10.164504776718378"><ele>853.1428571428571</ele><time>2026-04-18T09:40:06Z</time></trkpt><trkpt lat="44.28212554530805" lon="10.164490930674226"><ele>851.7142857142858</ele><time>2026-04-18T09:40:09Z</time></trkpt><trkpt lat="44.28204783731836" lon="10.164500074438005"><ele>850.2857142857143</ele><time>2026-04-18T09:40:12Z</time></trkpt><trkpt lat="44.281970387653345" lon="10.164462851429764"><ele>848.8571428571429</ele><time>2026-04-18T09:40:15Z</time></trkpt><trkpt lat="44.28190450714592" lon="10.164450928860383"><ele>847.4285714285714</ele><time>2026-04-18T09:40:19Z</time></trkpt><trkpt lat="44.28183029969618" lon="10.164437499830967"><ele>846.0</ele><time>2026-04-18T09:40:22Z</time></trkpt><trkpt lat="44.28172510069289" lon="10.164410768444753"><ele>846.0</ele><time>2026-04-18T09:40:23.999Z</time></trkpt><trkpt lat="44.28164342103322" lon="10.16438163332117"><ele>846.0</ele><time>2026-04-18T09:40:24.999Z</time></trkpt><trkpt lat="44.28156134615569" lon="10.164364653191534"><ele>846.0</ele><time>2026-04-18T09:40:25.999Z</time></trkpt><trkpt lat="44.28146892543983" lon="10.164317797149389"><ele>846.0</ele><time>2026-04-18T09:40:26.999Z</time></trkpt><trkpt lat="44.28137366554845" lon="10.164258775865017"><ele>846.0</ele><time>2026-04-18T09:40:27.999Z</time></trkpt><trkpt lat="44.28127290170456" lon="10.164211696205408"><ele>844.75</ele><time>2026-04-18T09:40:28.999Z</time></trkpt><trkpt lat="44.281174321619304" lon="10.164152388910798"><ele>843.5</ele><time>2026-04-18T09:40:29.999Z</time></trkpt><trkpt lat="44.28106070733793" lon="10.164099478739079"><ele>842.25</ele><time>2026-04-18T09:40:30.999Z</time></trkpt><trkpt lat="44.28094237100623" lon="10.164106093956592"><ele>841.0</ele><time>2026-04-18T09:40:31.999Z</time></trkpt><trkpt lat="44.280827137916745" lon="10.164088181367172"><ele>841.0</ele><time>2026-04-18T09:40:32.999Z</time></trkpt><trkpt lat="44.28073028053478" lon="10.164064700317303"><ele>841.0</ele><time>2026-04-18T09:40:33.999Z</time></trkpt><trkpt lat="44.280630188037" lon="10.164018408254226"><ele>841.0</ele><time>2026-04-18T09:40:34.999Z</time></trkpt><trkpt lat="44.28056076853811" lon="10.16390825951034"><ele>841.0</ele><time>2026-04-18T09:40:35.999Z</time></trkpt><trkpt lat="44.28049870464327" lon="10.163795966867493"><ele>841.0</ele><time>2026-04-18T09:40:36.999Z</time></trkpt><trkpt lat="44.28045034758441" lon="10.163655057792898"><ele>841.75</ele><time>2026-04-18T09:40:37.999Z</time></trkpt><trkpt lat="44.28039602498204" lon="10.163485150326098"><ele>842.5</ele><time>2026-04-18T09:40:38.999Z</time></trkpt><trkpt lat="44.28031705322533" lon="10.163331105317615"><ele>843.25</ele><time>2026-04-18T09:40:39.999Z</time></trkpt><trkpt lat="44.280208590930705" lon="10.16322369352922"><ele>844.0</ele><time>2026-04-18T09:40:40.999Z</time></trkpt><trkpt lat="44.280090226582686" lon="10.16315010004854"><ele>847.6666666666666</ele><time>2026-04-18T09:40:41.999Z</time></trkpt><trkpt lat="44.27995800133004" lon="10.163093296964782"><ele>851.3333333333333</ele><time>2026-04-18T09:40:42.999Z</time></trkpt><trkpt lat="44.27978011049426" lon="10.163058754944263"><ele>855.0</ele><time>2026-04-18T09:40:43.999Z</time></trkpt><trkpt lat="44.27960077586585" lon="10.163066211658574"><ele>855.0</ele><time>2026-04-18T09:40:44.999Z</time></trkpt><trkpt lat="44.27943163062055" lon="10.163064241025813"><ele>855.0</ele><time>2026-04-18T09:40:45.999Z</time></trkpt><trkpt lat="44.27928008836607" lon="10.163059633981037"><ele>855.0</ele><time>2026-04-18T09:40:46.999Z</time></trkpt><trkpt lat="44.279126365913235" lon="10.163077486244804"><ele>855.0</ele><time>2026-04-18T09:40:47.999Z</time></trkpt><trkpt lat="44.27899181853826" lon="10.163031322588715"><ele>855.0</ele><time>2026-04-18T09:40:48.999Z</time></trkpt><trkpt lat="44.27886040683549" lon="10.16307662958603"><ele>855.0</ele><time>2026-04-18T09:40:49.999Z</time></trkpt><trkpt lat="44.27872567850948" lon="10.163120364806003"><ele>855.0</ele><time>2026-04-18T09:40:50.999Z</time></trkpt><trkpt lat="44.278569722811824" lon="10.163169562634259"><ele>851.0</ele><time>2026-04-18T09:40:51.999Z</time></trkpt><trkpt lat="44.27841330400805" lon="10.16319731331075"><ele>847.0</ele><time>2026-04-18T09:40:52.999Z</time></trkpt><trkpt lat="44.27831354310227" lon="10.163218232056895"><ele>843.0</ele><time>2026-04-18T09:40:53.999Z</time></trkpt><trkpt lat="44.278233306616954" lon="10.163182585804552"><ele>839.0</ele><time>2026-04-18T09:40:54.999Z</time></trkpt><trkpt lat="44.27813918395031" lon="10.163080170291625"><ele>835.2</ele><time>2026-04-18T09:40:55.999Z</time></trkpt><trkpt lat="44.27804015378014" lon="10.16296570394115"><ele>831.4000000000001</ele><time>2026-04-18T09:40:56.999Z</time></trkpt><trkpt lat="44.27795820710729" lon="10.162858025240173"><ele>827.6</ele><time>2026-04-18T09:40:57.999Z</time></trkpt><trkpt lat="44.27788672577046" lon="10.16275669094221"><ele>823.8</ele><time>2026-04-18T09:40:58.999Z</time></trkpt><trkpt lat="44.27787755131675" lon="10.162621172341948"><ele>820.0</ele><time>2026-04-18T09:40:59.999Z</time></trkpt><trkpt lat="44.27785855251722" lon="10.16249110586011"><ele>822.2</ele><time>2026-04-18T09:41:00.999Z</time></trkpt><trkpt lat="44.2778349985561" lon="10.162334384195038"><ele>824.4</ele><time>2026-04-18T09:41:01.999Z</time></trkpt><trkpt lat="44.277839285670794" lon="10.162173173061392"><ele>826.5999999999999</ele><time>2026-04-18T09:41:02.999Z</time></trkpt><trkpt lat="44.27783895803329" lon="10.162011218326281"><ele>828.8</ele><time>2026-04-18T09:41:03.999Z</time></trkpt><trkpt lat="44.27782750123048" lon="10.161907583921614"><ele>831.0</ele><time>2026-04-18T09:41:04.999Z</time></trkpt><trkpt lat="44.277798286371166" lon="10.161808806125816"><ele>831.0</ele><time>2026-04-18T09:41:05.999Z</time></trkpt><trkpt lat="44.2776811930971" lon="10.161749348477281"><ele>831.0</ele><time>2026-04-18T09:41:06.999Z</time></trkpt><trkpt lat="44.27755392750055" lon="10.16171826945453"><ele>831.0</ele><time>2026-04-18T09:41:07.999Z</time></trkpt><trkpt lat="44.27742184555094" lon="10.161677879874501"><ele>831.0</ele><time>2026-04-18T09:41:08.999Z</time></trkpt><trkpt lat="44.277294978202036" lon="10.161631290287339"><ele>829.5</ele><time>2026-04-18T09:41:09.999Z</time></trkpt><trkpt lat="44.27718704508521" lon="10.16157598824077"><ele>828.0</ele><time>2026-04-18T09:41:10.999Z</time></trkpt><trkpt lat="44.27709062652769" lon="10.161491012628941"><ele>826.5</ele><time>2026-04-18T09:41:11.999Z</time></trkpt><trkpt lat="44.276988684128824" lon="10.161365213036225"><ele>825.0</ele><time>2026-04-18T09:41:12.999Z</time></trkpt><trkpt lat="44.27689117400742" lon="10.1612332188938"><ele>825.0</ele><time>2026-04-18T09:41:13.999Z</time></trkpt><trkpt lat="44.276792479434704" lon="10.161118753875009"><ele>825.0</ele><time>2026-04-18T09:41:14.999Z</time></trkpt><trkpt lat="44.2766917312219" lon="10.16101980370488"><ele>825.0</ele><time>2026-04-18T09:41:15.999Z</time></trkpt><trkpt lat="44.27656404008155" lon="10.160964285847287"><ele>825.0</ele><time>2026-04-18T09:41:16.999Z</time></trkpt><trkpt lat="44.276455146991715" lon="10.160885974435848"><ele>823.0</ele><time>2026-04-18T09:41:17.999Z</time></trkpt><trkpt lat="44.276358089282006" lon="10.16083489132655"><ele>821.0</ele><time>2026-04-18T09:41:18.999Z</time></trkpt><trkpt lat="44.27627104358678" lon="10.160783050379912"><ele>819.0</ele><time>2026-04-18T09:41:20Z</time></trkpt><trkpt lat="44.27619121145091" lon="10.160726265352944"><ele>817.0</ele><time>2026-04-18T09:41:21Z</time></trkpt><trkpt lat="44.27608355772932" lon="10.160651142460758"><ele>815.0</ele><time>2026-04-18T09:41:22Z</time></trkpt><trkpt lat="44.275999499909496" lon="10.160517482473757"><ele>815.0</ele><time>2026-04-18T09:41:23Z</time></trkpt><trkpt lat="44.2759026198511" lon="10.160428254970718"><ele>815.0</ele><time>2026-04-18T09:41:24Z</time></trkpt><trkpt lat="44.275779037549505" lon="10.160370760653429"><ele>815.0</ele><time>2026-04-18T09:41:25Z</time></trkpt><trkpt lat="44.27568870608571" lon="10.160260584772857"><ele>815.0</ele><time>2026-04-18T09:41:26Z</time></trkpt><trkpt lat="44.275594899926745" lon="10.160150740166806"><ele>813.2</ele><time>2026-04-18T09:41:27Z</time></trkpt><trkpt lat="44.27552619012287" lon="10.160055993776306"><ele>811.4</ele><time>2026-04-18T09:41:28Z</time></trkpt><trkpt lat="44.27548120789154" lon="10.159968114066766"><ele>809.5999999999999</ele><time>2026-04-18T09:41:29Z</time></trkpt><trkpt lat="44.27541645845335" lon="10.159830374703413"><ele>807.8</ele><time>2026-04-18T09:41:30Z</time></trkpt><trkpt lat="44.2753459504386" lon="10.159678396507788"><ele>806.0</ele><time>2026-04-18T09:41:31Z</time></trkpt><trkpt lat="44.27527510175556" lon="10.159535232032846"><ele>806.0</ele><time>2026-04-18T09:41:32Z</time></trkpt><trkpt lat="44.27518584814187" lon="10.159412017414791"><ele>806.0</ele><time>2026-04-18T09:41:33Z</time></trkpt><trkpt lat="44.275087250899595" lon="10.159324687379485"><ele>806.0</ele><time>2026-04-18T09:41:34Z</time></trkpt><trkpt lat="44.27496900897421" lon="10.159305958969389"><ele>806.0</ele><time>2026-04-18T09:41:35Z</time></trkpt><trkpt lat="44.274856059440346" lon="10.15931251440839"><ele>803.75</ele><time>2026-04-18T09:41:36Z</time></trkpt><trkpt lat="44.27473546853459" lon="10.1593531785471"><ele>801.5</ele><time>2026-04-18T09:41:37Z</time></trkpt><trkpt lat="44.27459407385189" lon="10.159410328825135"><ele>799.25</ele><time>2026-04-18T09:41:38Z</time></trkpt><trkpt lat="44.274465777377976" lon="10.159428878283995"><ele>797.0</ele><time>2026-04-18T09:41:39Z</time></trkpt><trkpt lat="44.27434346857915" lon="10.159436753781106"><ele>797.0</ele><time>2026-04-18T09:41:40Z</time></trkpt><trkpt lat="44.274213940945565" lon="10.159435948091005"><ele>797.0</ele><time>2026-04-18T09:41:41Z</time></trkpt><trkpt lat="44.27409495530715" lon="10.15942212142797"><ele>797.0</ele><time>2026-04-18T09:41:42Z</time></trkpt><trkpt lat="44.27399146165989" lon="10.159387522430105"><ele>797.0</ele><time>2026-04-18T09:41:43Z</time></trkpt><trkpt lat="44.27391744074987" lon="10.159344670785444"><ele>797.0</ele><time>2026-04-18T09:41:44Z</time></trkpt><trkpt lat="44.27385320559828" lon="10.15923199138276"><ele>798.4000000000001</ele><time>2026-04-18T09:41:46Z</time></trkpt><trkpt lat="44.273779070666244" lon="10.159134881790006"><ele>799.8000000000001</ele><time>2026-04-18T09:41:47Z</time></trkpt><trkpt lat="44.27367969340972" lon="10.159046350932922"><ele>801.2</ele><time>2026-04-18T09:41:48Z</time></trkpt><trkpt lat="44.273608565777465" lon="10.158991776003038"><ele>802.6</ele><time>2026-04-18T09:41:49Z</time></trkpt><trkpt lat="44.27352559894756" lon="10.158930134634867"><ele>804.0</ele><time>2026-04-18T09:41:50Z</time></trkpt><trkpt lat="44.27341321987532" lon="10.15889927909573"><ele>804.0</ele><time>2026-04-18T09:41:51Z</time></trkpt><trkpt lat="44.27328757843529" lon="10.158931610806333"><ele>804.0</ele><time>2026-04-18T09:41:52Z</time></trkpt><trkpt lat="44.273177786175324" lon="10.158933615402288"><ele>804.0</ele><time>2026-04-18T09:41:53Z</time></trkpt><trkpt lat="44.27307992773272" lon="10.1589051941279"><ele>804.0</ele><time>2026-04-18T09:41:54Z</time></trkpt><trkpt lat="44.27299008885708" lon="10.158831658694998"><ele>804.0</ele><time>2026-04-18T09:41:55Z</time></trkpt><trkpt lat="44.272911366958986" lon="10.158681429860362"><ele>801.5</ele><time>2026-04-18T09:41:56Z</time></trkpt><trkpt lat="44.27282714359987" lon="10.158520640544012"><ele>799.0</ele><time>2026-04-18T09:41:57Z</time></trkpt><trkpt lat="44.27272828521593" lon="10.158366021068451"><ele>796.5</ele><time>2026-04-18T09:41:58Z</time></trkpt><trkpt lat="44.272638839601335" lon="10.158229917104894"><ele>794.0</ele><time>2026-04-18T09:41:59Z</time></trkpt><trkpt lat="44.272550800006776" lon="10.158102961150385"><ele>794.0</ele><time>2026-04-18T09:42:00Z</time></trkpt><trkpt lat="44.27244817594242" lon="10.157982287368409"><ele>794.0</ele><time>2026-04-18T09:42:01Z</time></trkpt><trkpt lat="44.272324284758405" lon="10.157882338596535"><ele>794.0</ele><time>2026-04-18T09:42:02Z</time></trkpt><trkpt lat="44.272196434378074" lon="10.157806066703351"><ele>794.0</ele><time>2026-04-18T09:42:03Z</time></trkpt><trkpt lat="44.272067393754334" lon="10.15774941614679"><ele>789.0</ele><time>2026-04-18T09:42:04Z</time></trkpt><trkpt lat="44.27196395213902" lon="10.157723877827125"><ele>784.0</ele><time>2026-04-18T09:42:05Z</time></trkpt><trkpt lat="44.27186853944288" lon="10.15772115561842"><ele>779.0</ele><time>2026-04-18T09:42:06Z</time></trkpt><trkpt lat="44.27177429038879" lon="10.157774368861705"><ele>774.0</ele><time>2026-04-18T09:42:07Z</time></trkpt><trkpt lat="44.27166617412553" lon="10.157792532427017"><ele>769.0</ele><time>2026-04-18T09:42:08Z</time></trkpt><trkpt lat="44.27155108421504" lon="10.157804589502307"><ele>766.0</ele><time>2026-04-18T09:42:09Z</time></trkpt><trkpt lat="44.271427046171" lon="10.157794365161815"><ele>763.0</ele><time>2026-04-18T09:42:10Z</time></trkpt><trkpt lat="44.27127206490369" lon="10.157774091839087"><ele>760.0</ele><time>2026-04-18T09:42:11Z</time></trkpt><trkpt lat="44.27111440054222" lon="10.157755287949204"><ele>757.0</ele><time>2026-04-18T09:42:12Z</time></trkpt><trkpt lat="44.27096069049934" lon="10.157761435326593"><ele>757.0</ele><time>2026-04-18T09:42:13Z</time></trkpt><trkpt lat="44.27082193100731" lon="10.157759746981455"><ele>757.0</ele><time>2026-04-18T09:42:14Z</time></trkpt><trkpt lat="44.27069188399182" lon="10.157764763336507"><ele>757.0</ele><time>2026-04-18T09:42:15Z</time></trkpt><trkpt lat="44.27056537081569" lon="10.157788986654268"><ele>757.0</ele><time>2026-04-18T09:42:16Z</time></trkpt><trkpt lat="44.270451922566195" lon="10.157811697577683"><ele>752.0</ele><time>2026-04-18T09:42:17Z</time></trkpt><trkpt lat="44.270324342679075" lon="10.157809154908067"><ele>747.0</ele><time>2026-04-18T09:42:18Z</time></trkpt><trkpt lat="44.270209080183236" lon="10.157767917302003"><ele>742.0</ele><time>2026-04-18T09:42:19Z</time></trkpt><trkpt lat="44.27011653596626" lon="10.15773044818832"><ele>737.0</ele><time>2026-04-18T09:42:20Z</time></trkpt><trkpt lat="44.27005826755348" lon="10.157670468292118"><ele>732.0</ele><time>2026-04-18T09:42:21Z</time></trkpt><trkpt lat="44.27001228323673" lon="10.157552939851403"><ele>732.0</ele><time>2026-04-18T09:42:22Z</time></trkpt><trkpt lat="44.270025895243364" lon="10.157413692142539"><ele>732.0</ele><time>2026-04-18T09:42:23Z</time></trkpt><trkpt lat="44.269999294126464" lon="10.15727325402477"><ele>732.0</ele><time>2026-04-18T09:42:24Z</time></trkpt><trkpt lat="44.26998901992929" lon="10.157136918173146"><ele>732.0</ele><time>2026-04-18T09:42:25Z</time></trkpt><trkpt lat="44.269945515368015" lon="10.156995843800063"><ele>732.0</ele><time>2026-04-18T09:42:26Z</time></trkpt><trkpt lat="44.26990168496465" lon="10.156837969248958"><ele>732.5</ele><time>2026-04-18T09:42:27Z</time></trkpt><trkpt lat="44.269866657020344" lon="10.156666377390694"><ele>733.0</ele><time>2026-04-18T09:42:27.999Z</time></trkpt><trkpt lat="44.26983995743868" lon="10.156506835179758"><ele>733.5</ele><time>2026-04-18T09:42:28.999Z</time></trkpt><trkpt lat="44.26980987717056" lon="10.156349420657646"><ele>734.0</ele><time>2026-04-18T09:42:29.999Z</time></trkpt><trkpt lat="44.26978483783139" lon="10.156219332980616"><ele>732.5</ele><time>2026-04-18T09:42:30.999Z</time></trkpt><trkpt lat="44.26982075641948" lon="10.156126156979184"><ele>731.0</ele><time>2026-04-18T09:42:31.999Z</time></trkpt><trkpt lat="44.2698585309024" lon="10.15605018963849"><ele>729.5</ele><time>2026-04-18T09:42:32.999Z</time></trkpt><trkpt lat="44.26990536244682" lon="10.155957346974734"><ele>728.0</ele><time>2026-04-18T09:42:33.999Z</time></trkpt><trkpt lat="44.269960375459604" lon="10.15585833491144"><ele>726.5</ele><time>2026-04-18T09:42:34.999Z</time></trkpt><trkpt lat="44.270024446115485" lon="10.155780180806374"><ele>725.0</ele><time>2026-04-18T09:42:35.999Z</time></trkpt><trkpt lat="44.27006730758034" lon="10.155710720875105"><ele>727.0</ele><time>2026-04-18T09:42:36.999Z</time></trkpt><trkpt lat="44.27008374382016" lon="10.155596447119352"><ele>729.0</ele><time>2026-04-18T09:42:38.999Z</time></trkpt><trkpt lat="44.2700293489555" lon="10.155469999881891"><ele>731.0</ele><time>2026-04-18T09:42:57.999Z</time></trkpt><trkpt lat="44.26996612960135" lon="10.155404152464419"><ele>733.0</ele><time>2026-04-18T09:42:58.999Z</time></trkpt><trkpt lat="44.26988474474386" lon="10.155346085459032"><ele>735.0</ele><time>2026-04-18T09:42:59.999Z</time></trkpt><trkpt lat="44.269774886764544" lon="10.155300051267782"><ele>728.4</ele><time>2026-04-18T09:43:00.999Z</time></trkpt><trkpt lat="44.26966980412301" lon="10.155273468612194"><ele>721.8</ele><time>2026-04-18T09:43:01.999Z</time></trkpt><trkpt lat="44.26958802891691" lon="10.155204336572016"><ele>715.2</ele><time>2026-04-18T09:43:02.999Z</time></trkpt><trkpt lat="44.26950092320707" lon="10.15513206804255"><ele>708.6</ele><time>2026-04-18T09:43:03.999Z</time></trkpt><trkpt lat="44.26939479211586" lon="10.155024603826813"><ele>702.0</ele><time>2026-04-18T09:43:04.999Z</time></trkpt><trkpt lat="44.26929172012138" lon="10.154846577636453"><ele>702.0</ele><time>2026-04-18T09:43:05.999Z</time></trkpt><trkpt lat="44.2692552301015" lon="10.154647013248201"><ele>702.0</ele><time>2026-04-18T09:43:06.999Z</time></trkpt><trkpt lat="44.269301026958345" lon="10.154734462674842"><ele>702.0</ele><time>2026-04-18T09:43:07.999Z</time></trkpt><trkpt lat="44.269280680417886" lon="10.154575033273318"><ele>702.0</ele><time>2026-04-18T09:43:08.999Z</time></trkpt><trkpt lat="44.26926961831279" lon="10.154423548527639"><ele>702.0</ele><time>2026-04-18T09:43:09.999Z</time></trkpt><trkpt lat="44.26925274130591" lon="10.154277854918607"><ele>702.0</ele><time>2026-04-18T09:43:10.999Z</time></trkpt><trkpt lat="44.26923126116777" lon="10.154162295544795"><ele>702.0</ele><time>2026-04-18T09:43:11.999Z</time></trkpt><trkpt lat="44.26919919364947" lon="10.15405173054287"><ele>702.0</ele><time>2026-04-18T09:43:13.999Z</time></trkpt><trkpt lat="44.26908375495069" lon="10.154141113850478"><ele>702.0</ele><time>2026-04-18T09:43:14.999Z</time></trkpt><trkpt lat="44.269076285668284" lon="10.154377499005728"><ele>702.0</ele><time>2026-04-18T09:43:16.999Z</time></trkpt><trkpt lat="44.269091543010596" lon="10.154533815723077"><ele>702.0</ele><time>2026-04-18T09:43:17.999Z</time></trkpt><trkpt lat="44.26909500830433" lon="10.154683108445619"><ele>702.0</ele><time>2026-04-18T09:43:18.999Z</time></trkpt><trkpt lat="44.26910726044845" lon="10.154836490446646"><ele>702.0</ele><time>2026-04-18T09:43:19.999Z</time></trkpt><trkpt lat="44.26911856011916" lon="10.15497138507663"><ele>702.0</ele><time>2026-04-18T09:43:20.999Z</time></trkpt><trkpt lat="44.26914613682067" lon="10.155084901919091"><ele>701.3333333333334</ele><time>2026-04-18T09:43:21.999Z</time></trkpt><trkpt lat="44.2691838301931" lon="10.155178650849047"><ele>700.6666666666666</ele><time>2026-04-18T09:43:22.999Z</time></trkpt><trkpt lat="44.269225472327236" lon="10.155266439770818"><ele>700.0</ele><time>2026-04-18T09:43:23.999Z</time></trkpt><trkpt lat="44.26926307792587" lon="10.155352227840979"><ele>699.3333333333333</ele><time>2026-04-18T09:43:24.999Z</time></trkpt><trkpt lat="44.2692800240963" lon="10.155474339320454"><ele>698.6666666666666</ele><time>2026-04-18T09:43:26Z</time></trkpt><trkpt lat="44.2692748838391" lon="10.155593660531617"><ele>698.0</ele><time>2026-04-18T09:43:27Z</time></trkpt><trkpt lat="44.26922780228742" lon="10.155698617919944"><ele>697.4</ele><time>2026-04-18T09:43:28Z</time></trkpt><trkpt lat="44.26916321966577" lon="10.155771205958292"><ele>696.8</ele><time>2026-04-18T09:43:29Z</time></trkpt><trkpt lat="44.26905179458095" lon="10.155848270240515"><ele>696.2</ele><time>2026-04-18T09:43:30Z</time></trkpt><trkpt lat="44.268942752292205" lon="10.155906342229978"><ele>695.6</ele><time>2026-04-18T09:43:31Z</time></trkpt><trkpt lat="44.26883284981156" lon="10.155958293809174"><ele>695.0</ele><time>2026-04-18T09:43:32Z</time></trkpt><trkpt lat="44.268718702497395" lon="10.156011069729374"><ele>690.0</ele><time>2026-04-18T09:43:33Z</time></trkpt><trkpt lat="44.268620146103" lon="10.156075212848938"><ele>685.0</ele><time>2026-04-18T09:43:34Z</time></trkpt><trkpt lat="44.26851606117624" lon="10.156127321206354"><ele>680.0</ele><time>2026-04-18T09:43:35Z</time></trkpt><trkpt lat="44.268413736529844" lon="10.156227222689207"><ele>675.0</ele><time>2026-04-18T09:43:36Z</time></trkpt><trkpt lat="44.26832722538472" lon="10.15634571783563"><ele>675.0</ele><time>2026-04-18T09:43:37Z</time></trkpt><trkpt lat="44.26825907423499" lon="10.156411855951042"><ele>675.0</ele><time>2026-04-18T09:43:38Z</time></trkpt><trkpt lat="44.268168582927665" lon="10.156429662485168"><ele>675.0</ele><time>2026-04-18T09:43:40Z</time></trkpt><trkpt lat="44.268118422328406" lon="10.156296342491268"><ele>675.0</ele><time>2026-04-18T09:43:42Z</time></trkpt><trkpt lat="44.268168737447624" lon="10.156197570816476"><ele>675.0</ele><time>2026-04-18T09:43:43Z</time></trkpt><trkpt lat="44.26825308161661" lon="10.156101344058088"><ele>675.0</ele><time>2026-04-18T09:43:44Z</time></trkpt><trkpt lat="44.268339105876635" lon="10.156001073147742"><ele>675.0</ele><time>2026-04-18T09:43:45Z</time></trkpt><trkpt lat="44.26842161171371" lon="10.155916082474379"><ele>675.0</ele><time>2026-04-18T09:43:46Z</time></trkpt><trkpt lat="44.26850674103058" lon="10.15584280621269"><ele>675.0</ele><time>2026-04-18T09:43:47Z</time></trkpt><trkpt lat="44.26859406376245" lon="10.155770584372451"><ele>675.0</ele><time>2026-04-18T09:43:48Z</time></trkpt><trkpt lat="44.26868371880991" lon="10.155699995104715"><ele>673.0</ele><time>2026-04-18T09:43:49Z</time></trkpt><trkpt lat="44.26875921695194" lon="10.155618155120537"><ele>671.0</ele><time>2026-04-18T09:43:50Z</time></trkpt><trkpt lat="44.26880658951914" lon="10.155526401952418"><ele>669.0</ele><time>2026-04-18T09:43:51Z</time></trkpt><trkpt lat="44.26880818757803" lon="10.155403888608545"><ele>667.0</ele><time>2026-04-18T09:43:52Z</time></trkpt><trkpt lat="44.268764120252584" lon="10.155274478016803"><ele>665.0</ele><time>2026-04-18T09:43:53Z</time></trkpt><trkpt lat="44.26868107119322" lon="10.155161200789946"><ele>665.0</ele><time>2026-04-18T09:43:54Z</time></trkpt><trkpt lat="44.26858392427534" lon="10.155064142605571"><ele>665.0</ele><time>2026-04-18T09:43:55Z</time></trkpt><trkpt lat="44.268485420583275" lon="10.154980893300438"><ele>665.0</ele><time>2026-04-18T09:43:56Z</time></trkpt><trkpt lat="44.26841236419563" lon="10.154868926209785"><ele>665.0</ele><time>2026-04-18T09:43:57Z</time></trkpt><trkpt lat="44.26834412492822" lon="10.15473405948592"><ele>664.4</ele><time>2026-04-18T09:43:58Z</time></trkpt><trkpt lat="44.268254009137756" lon="10.15464271345284"><ele>663.8</ele><time>2026-04-18T09:43:59Z</time></trkpt><trkpt lat="44.268193926005566" lon="10.154541535056849"><ele>663.2</ele><time>2026-04-18T09:44:00Z</time></trkpt><trkpt lat="44.26818672360797" lon="10.15442168174719"><ele>662.6</ele><time>2026-04-18T09:44:01Z</time></trkpt><trkpt lat="44.26817648666453" lon="10.154299797827257"><ele>662.0</ele><time>2026-04-18T09:44:02Z</time></trkpt><trkpt lat="44.26825393738216" lon="10.154166901783828"><ele>663.25</ele><time>2026-04-18T09:44:03Z</time></trkpt><trkpt lat="44.26830979306418" lon="10.154006393310613"><ele>664.5</ele><time>2026-04-18T09:44:04Z</time></trkpt><trkpt lat="44.26836435516405" lon="10.153839935599905"><ele>665.75</ele><time>2026-04-18T09:44:05Z</time></trkpt><trkpt lat="44.26841035890608" lon="10.153667261630561"><ele>667.0</ele><time>2026-04-18T09:44:06Z</time></trkpt><trkpt lat="44.268421523100905" lon="10.153507866408267"><ele>667.0</ele><time>2026-04-18T09:44:07Z</time></trkpt><trkpt lat="44.26838569982461" lon="10.15338138151963"><ele>667.0</ele><time>2026-04-18T09:44:08Z</time></trkpt><trkpt lat="44.268308670212285" lon="10.15328004542058"><ele>667.0</ele><time>2026-04-18T09:44:09Z</time></trkpt><trkpt lat="44.26819386611109" lon="10.153167949092419"><ele>667.0</ele><time>2026-04-18T09:44:10Z</time></trkpt><trkpt lat="44.26806780397241" lon="10.153055028462767"><ele>661.0</ele><time>2026-04-18T09:44:11Z</time></trkpt><trkpt lat="44.26795071097637" lon="10.152946407913447"><ele>655.0</ele><time>2026-04-18T09:44:12Z</time></trkpt><trkpt lat="44.26784892074217" lon="10.152834086736336"><ele>649.0</ele><time>2026-04-18T09:44:13Z</time></trkpt><trkpt lat="44.2677458269812" lon="10.15273005532726"><ele>643.0</ele><time>2026-04-18T09:44:14Z</time></trkpt><trkpt lat="44.267644670503046" lon="10.152637541850924"><ele>643.0</ele><time>2026-04-18T09:44:15Z</time></trkpt><trkpt lat="44.267552066623686" lon="10.152505832384259"><ele>643.0</ele><time>2026-04-18T09:44:16Z</time></trkpt><trkpt lat="44.26746968745988" lon="10.152364340508807"><ele>643.0</ele><time>2026-04-18T09:44:17Z</time></trkpt><trkpt lat="44.267391350701644" lon="10.152232756651093"><ele>643.0</ele><time>2026-04-18T09:44:18Z</time></trkpt><trkpt lat="44.26730840577363" lon="10.152136327130584"><ele>635.6</ele><time>2026-04-18T09:44:19Z</time></trkpt><trkpt lat="44.267209578112954" lon="10.15206298885548"><ele>628.1999999999999</ele><time>2026-04-18T09:44:20Z</time></trkpt><trkpt lat="44.267126467347964" lon="10.151995617237406"><ele>620.8</ele><time>2026-04-18T09:44:21Z</time></trkpt><trkpt lat="44.267075884748564" lon="10.151920311905643"><ele>613.4</ele><time>2026-04-18T09:44:22Z</time></trkpt><trkpt lat="44.26707897923245" lon="10.151779517103028"><ele>606.0</ele><time>2026-04-18T09:44:23Z</time></trkpt><trkpt lat="44.267032558653824" lon="10.15162067737402"><ele>605.0</ele><time>2026-04-18T09:44:24Z</time></trkpt><trkpt lat="44.26699950291952" lon="10.151453672250783"><ele>604.0</ele><time>2026-04-18T09:44:25Z</time></trkpt><trkpt lat="44.26699879480226" lon="10.15130463490697"><ele>603.0</ele><time>2026-04-18T09:44:26Z</time></trkpt><trkpt lat="44.26702553171802" lon="10.1511541083004"><ele>602.0</ele><time>2026-04-18T09:44:27Z</time></trkpt><trkpt lat="44.2670643519338" lon="10.150974275101975"><ele>602.0</ele><time>2026-04-18T09:44:28Z</time></trkpt><trkpt lat="44.267091405148626" lon="10.150782101376848"><ele>602.0</ele><time>2026-04-18T09:44:29Z</time></trkpt><trkpt lat="44.26710690506467" lon="10.150594207081896"><ele>602.0</ele><time>2026-04-18T09:44:30Z</time></trkpt><trkpt lat="44.26711874108961" lon="10.150439475585388"><ele>602.0</ele><time>2026-04-18T09:44:31Z</time></trkpt><trkpt lat="44.26715041671068" lon="10.15030162902608"><ele>604.75</ele><time>2026-04-18T09:44:32Z</time></trkpt><trkpt lat="44.267201493973324" lon="10.150165432021518"><ele>607.5</ele><time>2026-04-18T09:44:32.999Z</time></trkpt><trkpt lat="44.26728240396808" lon="10.15002468491984"><ele>610.25</ele><time>2026-04-18T09:44:33.999Z</time></trkpt><trkpt lat="44.26737481300456" lon="10.149901023140107"><ele>613.0</ele><time>2026-04-18T09:44:34.999Z</time></trkpt><trkpt lat="44.2674597730984" lon="10.149765973532562"><ele>613.0</ele><time>2026-04-18T09:44:35.999Z</time></trkpt><trkpt lat="44.26753521239214" lon="10.149626042961552"><ele>613.0</ele><time>2026-04-18T09:44:36.999Z</time></trkpt><trkpt lat="44.26759982069666" lon="10.149474280128278"><ele>613.0</ele><time>2026-04-18T09:44:37.999Z</time></trkpt><trkpt lat="44.26761897940221" lon="10.149306936335027"><ele>613.0</ele><time>2026-04-18T09:44:38.999Z</time></trkpt><trkpt lat="44.267609000753545" lon="10.149117187988727"><ele>612.25</ele><time>2026-04-18T09:44:39.999Z</time></trkpt><trkpt lat="44.267591879276964" lon="10.148920693346554"><ele>611.5</ele><time>2026-04-18T09:44:40.999Z</time></trkpt><trkpt lat="44.26757370966719" lon="10.148726050521503"><ele>610.75</ele><time>2026-04-18T09:44:41.999Z</time></trkpt><trkpt lat="44.26755028580855" lon="10.148537173487698"><ele>610.0</ele><time>2026-04-18T09:44:42.999Z</time></trkpt><trkpt lat="44.26753311812191" lon="10.148348937726734"><ele>611.5</ele><time>2026-04-18T09:44:43.999Z</time></trkpt><trkpt lat="44.26748988755069" lon="10.148169525207434"><ele>613.0</ele><time>2026-04-18T09:44:44.999Z</time></trkpt><trkpt lat="44.26743865668065" lon="10.147995081891782"><ele>614.5</ele><time>2026-04-18T09:44:45.999Z</time></trkpt><trkpt lat="44.26736723355616" lon="10.14784163161422"><ele>616.0</ele><time>2026-04-18T09:44:46.999Z</time></trkpt><trkpt lat="44.267302583870276" lon="10.147702933875706"><ele>607.0</ele><time>2026-04-18T09:44:47.999Z</time></trkpt><trkpt lat="44.26722149019086" lon="10.147576207251442"><ele>598.0</ele><time>2026-04-18T09:44:48.999Z</time></trkpt><trkpt lat="44.26712592899481" lon="10.14747223272422"><ele>589.0</ele><time>2026-04-18T09:44:49.999Z</time></trkpt><trkpt lat="44.26706070106192" lon="10.147372759949466"><ele>580.0</ele><time>2026-04-18T09:44:50.999Z</time></trkpt><trkpt lat="44.26702197999314" lon="10.147288120788756"><ele>571.0</ele><time>2026-04-18T09:44:51.999Z</time></trkpt><trkpt lat="44.26701289042651" lon="10.14716782945341"><ele>571.0</ele><time>2026-04-18T09:44:52.999Z</time></trkpt><trkpt lat="44.266998755121406" lon="10.147008490870837"><ele>571.0</ele><time>2026-04-18T09:44:53.999Z</time></trkpt><trkpt lat="44.26701637021045" lon="10.146834989843043"><ele>571.0</ele><time>2026-04-18T09:44:54.999Z</time></trkpt><trkpt lat="44.267006143192226" lon="10.14667655447204"><ele>571.0</ele><time>2026-04-18T09:44:55.999Z</time></trkpt><trkpt lat="44.26698216020607" lon="10.146552229535349"><ele>571.0</ele><time>2026-04-18T09:44:56.999Z</time></trkpt><trkpt lat="44.26695617125754" lon="10.146448434004325"><ele>569.4</ele><time>2026-04-18T09:44:57.999Z</time></trkpt><trkpt lat="44.26689363035936" lon="10.146371047168927"><ele>567.8</ele><time>2026-04-18T09:44:58.999Z</time></trkpt><trkpt lat="44.26683196243081" lon="10.146231746695786"><ele>566.1999999999999</ele><time>2026-04-18T09:45:00.999Z</time></trkpt><trkpt lat="44.26685580071232" lon="10.14614821358044"><ele>564.6</ele><time>2026-04-18T09:45:01.999Z</time></trkpt><trkpt lat="44.26691129969711" lon="10.146049381730379"><ele>563.0</ele><time>2026-04-18T09:45:02.999Z</time></trkpt><trkpt lat="44.26699280651548" lon="10.145951792344729"><ele>563.0</ele><time>2026-04-18T09:45:03.999Z</time></trkpt><trkpt lat="44.26708763103611" lon="10.145853425333621"><ele>563.0</ele><time>2026-04-18T09:45:04.999Z</time></trkpt><trkpt lat="44.26717675203598" lon="10.145774255859108"><ele>563.0</ele><time>2026-04-18T09:45:05.999Z</time></trkpt><trkpt lat="44.267279450537316" lon="10.145691861606657"><ele>563.0</ele><time>2026-04-18T09:45:06.999Z</time></trkpt><trkpt lat="44.26737890131376" lon="10.145612564889955"><ele>561.0</ele><time>2026-04-18T09:45:07.999Z</time></trkpt><trkpt lat="44.267476058322714" lon="10.145541598072144"><ele>559.0</ele><time>2026-04-18T09:45:08.999Z</time></trkpt><trkpt lat="44.26756894173818" lon="10.145481780469664"><ele>557.0</ele><time>2026-04-18T09:45:09.999Z</time></trkpt><trkpt lat="44.26766072503654" lon="10.145431671206893"><ele>555.0</ele><time>2026-04-18T09:45:10.999Z</time></trkpt><trkpt lat="44.26773221157158" lon="10.145401945796635"><ele>553.0</ele><time>2026-04-18T09:45:11.999Z</time></trkpt><trkpt lat="44.267805539413295" lon="10.14532950963929"><ele>553.0</ele><time>2026-04-18T09:45:13.999Z</time></trkpt><trkpt lat="44.267774417121906" lon="10.145222129653527"><ele>553.0</ele><time>2026-04-18T09:45:15.999Z</time></trkpt><trkpt lat="44.26766190743228" lon="10.14521179039943"><ele>553.0</ele><time>2026-04-18T09:45:17.999Z</time></trkpt><trkpt lat="44.267590158862866" lon="10.145237321316385"><ele>553.0</ele><time>2026-04-18T09:45:18.999Z</time></trkpt><trkpt lat="44.26751266834172" lon="10.145289019408839"><ele>553.0</ele><time>2026-04-18T09:45:19.999Z</time></trkpt><trkpt lat="44.26742088684245" lon="10.145327813140973"><ele>553.0</ele><time>2026-04-18T09:45:20.999Z</time></trkpt><trkpt lat="44.267333461640625" lon="10.145356902256871"><ele>553.0</ele><time>2026-04-18T09:45:21.999Z</time></trkpt><trkpt lat="44.267262299593476" lon="10.145380090769489"><ele>553.0</ele><time>2026-04-18T09:45:22.999Z</time></trkpt><trkpt lat="44.26719585503007" lon="10.145408853987878"><ele>553.0</ele><time>2026-04-18T09:45:23.999Z</time></trkpt><trkpt lat="44.26713838783439" lon="10.145464461615086"><ele>553.0</ele><time>2026-04-18T09:45:24.999Z</time></trkpt><trkpt lat="44.267060897723645" lon="10.145449936160189"><ele>553.0</ele><time>2026-04-18T09:45:26.999Z</time></trkpt><trkpt lat="44.26711558982038" lon="10.145314603893137"><ele>553.0</ele><time>2026-04-18T09:45:28.999Z</time></trkpt><trkpt lat="44.26718324830391" lon="10.145286056148848"><ele>553.0</ele><time>2026-04-18T09:45:29.999Z</time></trkpt><trkpt lat="44.26726882632376" lon="10.145243262885472"><ele>553.0</ele><time>2026-04-18T09:45:30.999Z</time></trkpt><trkpt lat="44.2673543919508" lon="10.145186248305201"><ele>553.0</ele><time>2026-04-18T09:45:32Z</time></trkpt><trkpt lat="44.267443293012285" lon="10.145107343824144"><ele>553.0</ele><time>2026-04-18T09:45:33Z</time></trkpt><trkpt lat="44.26753578225086" lon="10.145019665833408"><ele>553.0</ele><time>2026-04-18T09:45:34Z</time></trkpt><trkpt lat="44.26760321702801" lon="10.144937201997152"><ele>553.0</ele><time>2026-04-18T09:45:35Z</time></trkpt><trkpt lat="44.26766694224723" lon="10.144865322581678"><ele>553.0</ele><time>2026-04-18T09:45:36Z</time></trkpt><trkpt lat="44.26773135413275" lon="10.144781573273852"><ele>553.0</ele><time>2026-04-18T09:45:37Z</time></trkpt><trkpt lat="44.267800055603" lon="10.144707444497229"><ele>553.0</ele><time>2026-04-18T09:45:38Z</time></trkpt><trkpt lat="44.2678712394566" lon="10.144666500572134"><ele>553.0</ele><time>2026-04-18T09:45:39Z</time></trkpt><trkpt lat="44.267937832391276" lon="10.14467901353937"><ele>553.0</ele><time>2026-04-18T09:45:40Z</time></trkpt><trkpt lat="44.267986209858904" lon="10.144746245491136"><ele>553.0</ele><time>2026-04-18T09:45:41Z</time></trkpt><trkpt lat="44.26799536374569" lon="10.144869008258473"><ele>553.0</ele><time>2026-04-18T09:45:42Z</time></trkpt><trkpt lat="44.26801158276989" lon="10.144992897814468"><ele>553.0</ele><time>2026-04-18T09:45:43Z</time></trkpt><trkpt lat="44.26805063566747" lon="10.145116205618429"><ele>553.0</ele><time>2026-04-18T09:45:44Z</time></trkpt><trkpt lat="44.26808721604464" lon="10.145236042543573"><ele>553.0</ele><time>2026-04-18T09:45:45Z</time></trkpt><trkpt lat="44.268135178560165" lon="10.145348658740936"><ele>552.6</ele><time>2026-04-18T09:45:46Z</time></trkpt><trkpt lat="44.26819855344823" lon="10.145455187699682"><ele>552.1999999999999</ele><time>2026-04-18T09:45:47Z</time></trkpt><trkpt lat="44.26825677223067" lon="10.14556219858159"><ele>551.8</ele><time>2026-04-18T09:45:48Z</time></trkpt><trkpt lat="44.268308135998424" lon="10.145675352038488"><ele>551.4</ele><time>2026-04-18T09:45:49Z</time></trkpt><trkpt lat="44.268367153184805" lon="10.145779938198574"><ele>551.0</ele><time>2026-04-18T09:45:50Z</time></trkpt><trkpt lat="44.26842688404979" lon="10.145893639077178"><ele>551.0</ele><time>2026-04-18T09:45:51Z</time></trkpt><trkpt lat="44.26848431108193" lon="10.145988187098437"><ele>551.0</ele><time>2026-04-18T09:45:52Z</time></trkpt><trkpt lat="44.268558089636464" lon="10.146063789027059"><ele>551.0</ele><time>2026-04-18T09:45:53Z</time></trkpt><trkpt lat="44.26867830144923" lon="10.146231268575876"><ele>551.0</ele><time>2026-04-18T09:45:55Z</time></trkpt><trkpt lat="44.268758346674176" lon="10.146346148615017"><ele>551.0</ele><time>2026-04-18T09:45:56Z</time></trkpt><trkpt lat="44.26883097820693" lon="10.146400163235075"><ele>551.0</ele><time>2026-04-18T09:45:57Z</time></trkpt><trkpt lat="44.268944714532" lon="10.146464764007085"><ele>551.0</ele><time>2026-04-18T09:45:59Z</time></trkpt><trkpt lat="44.269015455739776" lon="10.146431803576988"><ele>551.0</ele><time>2026-04-18T09:46:00Z</time></trkpt><trkpt lat="44.26906194869558" lon="10.146330059718373"><ele>551.0</ele><time>2026-04-18T09:46:01Z</time></trkpt><trkpt lat="44.269016149996226" lon="10.146130934418924"><ele>551.0</ele><time>2026-04-18T09:46:02Z</time></trkpt><trkpt lat="44.26895246377146" lon="10.145981045770899"><ele>551.0</ele><time>2026-04-18T09:46:03Z</time></trkpt><trkpt lat="44.268940297520544" lon="10.145813124767447"><ele>551.0</ele><time>2026-04-18T09:46:04Z</time></trkpt><trkpt lat="44.26894378609764" lon="10.145648850056359"><ele>551.0</ele><time>2026-04-18T09:46:05Z</time></trkpt><trkpt lat="44.26895330689836" lon="10.145479275894463"><ele>546.0</ele><time>2026-04-18T09:46:06Z</time></trkpt><trkpt lat="44.268954976164544" lon="10.145313172544636"><ele>541.0</ele><time>2026-04-18T09:46:07Z</time></trkpt><trkpt lat="44.268980158776614" lon="10.145173259512365"><ele>536.0</ele><time>2026-04-18T09:46:08Z</time></trkpt><trkpt lat="44.26904506589016" lon="10.145082046213012"><ele>531.0</ele><time>2026-04-18T09:46:09Z</time></trkpt><trkpt lat="44.26911614094849" lon="10.145007271858368"><ele>526.0</ele><time>2026-04-18T09:46:10Z</time></trkpt><trkpt lat="44.26918181548496" lon="10.144921675728128"><ele>526.8</ele><time>2026-04-18T09:46:11Z</time></trkpt><trkpt lat="44.26921345278801" lon="10.144772078809511"><ele>527.6</ele><time>2026-04-18T09:46:13Z</time></trkpt><trkpt lat="44.26917204012994" lon="10.144651058375453"><ele>528.4</ele><time>2026-04-18T09:46:14Z</time></trkpt><trkpt lat="44.26911724423175" lon="10.144532987516229"><ele>529.2</ele><time>2026-04-18T09:46:15Z</time></trkpt><trkpt lat="44.269053968397465" lon="10.144419669353312"><ele>530.0</ele><time>2026-04-18T09:46:16Z</time></trkpt><trkpt lat="44.26897544490236" lon="10.14429756805486"><ele>526.0</ele><time>2026-04-18T09:46:17Z</time></trkpt><trkpt lat="44.268896357162205" lon="10.144194727009165"><ele>522.0</ele><time>2026-04-18T09:46:18Z</time></trkpt><trkpt lat="44.26883942433764" lon="10.144085842078065"><ele>518.0</ele><time>2026-04-18T09:46:19Z</time></trkpt><trkpt lat="44.26877563405184" lon="10.143976252389804"><ele>514.0</ele><time>2026-04-18T09:46:20Z</time></trkpt><trkpt lat="44.268695296358175" lon="10.143859741384597"><ele>510.0</ele><time>2026-04-18T09:46:21Z</time></trkpt><trkpt lat="44.268623752423586" lon="10.143718612587254"><ele>510.0</ele><time>2026-04-18T09:46:22Z</time></trkpt><trkpt lat="44.26856593804254" lon="10.14355978979706"><ele>510.0</ele><time>2026-04-18T09:46:23Z</time></trkpt><trkpt lat="44.26850702901765" lon="10.14342050327193"><ele>510.0</ele><time>2026-04-18T09:46:24Z</time></trkpt><trkpt lat="44.268451672593244" lon="10.143290470964915"><ele>510.0</ele><time>2026-04-18T09:46:25Z</time></trkpt><trkpt lat="44.268356166594295" lon="10.14318535048724"><ele>506.8</ele><time>2026-04-18T09:46:26Z</time></trkpt><trkpt lat="44.26824219675159" lon="10.143111263782668"><ele>503.6</ele><time>2026-04-18T09:46:27Z</time></trkpt><trkpt lat="44.268145391166954" lon="10.143035159771197"><ele>500.4</ele><time>2026-04-18T09:46:28Z</time></trkpt><trkpt lat="44.26807129655665" lon="10.142939736162486"><ele>497.2</ele><time>2026-04-18T09:46:29Z</time></trkpt><trkpt lat="44.26800852585584" lon="10.14281811548511"><ele>494.0</ele><time>2026-04-18T09:46:30Z</time></trkpt><trkpt lat="44.26794745390092" lon="10.142683532369078"><ele>494.0</ele><time>2026-04-18T09:46:31Z</time></trkpt><trkpt lat="44.267887133211154" lon="10.142547774046118"><ele>494.0</ele><time>2026-04-18T09:46:32Z</time></trkpt><trkpt lat="44.26782115700036" lon="10.142417283029362"><ele>494.0</ele><time>2026-04-18T09:46:33Z</time></trkpt><trkpt lat="44.267766562329626" lon="10.142307412539036"><ele>494.0</ele><time>2026-04-18T09:46:34Z</time></trkpt><trkpt lat="44.267719385245414" lon="10.142213905696666"><ele>494.0</ele><time>2026-04-18T09:46:35Z</time></trkpt><trkpt lat="44.26767409053992" lon="10.14213289080384"><ele>498.3333333333333</ele><time>2026-04-18T09:46:36Z</time></trkpt><trkpt lat="44.267636255996834" lon="10.142014660622499"><ele>502.66666666666663</ele><time>2026-04-18T09:46:38Z</time></trkpt><trkpt lat="44.26758370896568" lon="10.141937530991436"><ele>507.0</ele><time>2026-04-18T09:46:40.999Z</time></trkpt><trkpt lat="44.267514719899694" lon="10.14184191360701"><ele>511.33333333333337</ele><time>2026-04-18T09:47:05.999Z</time></trkpt><trkpt lat="44.2674692956815" lon="10.14177558437225"><ele>515.6666666666667</ele><time>2026-04-18T09:47:06.999Z</time></trkpt><trkpt lat="44.267403600179506" lon="10.14170698303809"><ele>520.0</ele><time>2026-04-18T09:47:07.999Z</time></trkpt><trkpt lat="44.26734997956716" lon="10.141599547032936"><ele>518.0</ele><time>2026-04-18T09:47:08.999Z</time></trkpt><trkpt lat="44.26729964130127" lon="10.141511273568902"><ele>516.0</ele><time>2026-04-18T09:47:09.999Z</time></trkpt><trkpt lat="44.26724819434808" lon="10.141418941701652"><ele>514.0</ele><time>2026-04-18T09:47:10.999Z</time></trkpt><trkpt lat="44.26718373705221" lon="10.141319248321388"><ele>512.0</ele><time>2026-04-18T09:47:11.999Z</time></trkpt><trkpt lat="44.267090425060935" lon="10.14122773652512"><ele>510.0</ele><time>2026-04-18T09:47:12.999Z</time></trkpt><trkpt lat="44.266993157282954" lon="10.141155084092938"><ele>510.0</ele><time>2026-04-18T09:47:13.999Z</time></trkpt><trkpt lat="44.26690223866944" lon="10.14108681634762"><ele>510.0</ele><time>2026-04-18T09:47:14.999Z</time></trkpt><trkpt lat="44.26681972849299" lon="10.141014822151297"><ele>510.0</ele><time>2026-04-18T09:47:15.999Z</time></trkpt><trkpt lat="44.266744231134645" lon="10.140938202141262"><ele>510.0</ele><time>2026-04-18T09:47:16.999Z</time></trkpt><trkpt lat="44.26666692818265" lon="10.140874412397848"><ele>510.0</ele><time>2026-04-18T09:47:17.999Z</time></trkpt><trkpt lat="44.2666005476408" lon="10.140799272016856"><ele>510.0</ele><time>2026-04-18T09:47:18.999Z</time></trkpt><trkpt lat="44.26652808014628" lon="10.140738645881585"><ele>510.0</ele><time>2026-04-18T09:47:19.999Z</time></trkpt><trkpt lat="44.2664688481574" lon="10.140661998362924"><ele>510.0</ele><time>2026-04-18T09:47:20.999Z</time></trkpt><trkpt lat="44.26643671784779" lon="10.14051769973055"><ele>510.0</ele><time>2026-04-18T09:47:21.999Z</time></trkpt><trkpt lat="44.26637264891691" lon="10.140386136512168"><ele>510.0</ele><time>2026-04-18T09:47:22.999Z</time></trkpt><trkpt lat="44.26630917036465" lon="10.140248988790674"><ele>506.4</ele><time>2026-04-18T09:47:23.999Z</time></trkpt><trkpt lat="44.26625500483973" lon="10.140119979870637"><ele>502.8</ele><time>2026-04-18T09:47:24.999Z</time></trkpt><trkpt lat="44.26620442061398" lon="10.139992757982679"><ele>499.20000000000005</ele><time>2026-04-18T09:47:25.999Z</time></trkpt><trkpt lat="44.26615683810807" lon="10.139859169255887"><ele>495.6</ele><time>2026-04-18T09:47:26.999Z</time></trkpt><trkpt lat="44.26611238924679" lon="10.139701784153202"><ele>492.0</ele><time>2026-04-18T09:47:27.999Z</time></trkpt><trkpt lat="44.266061141417296" lon="10.139537717589057"><ele>492.0</ele><time>2026-04-18T09:47:28.999Z</time></trkpt><trkpt lat="44.266011599473984" lon="10.13937926065745"><ele>492.0</ele><time>2026-04-18T09:47:29.999Z</time></trkpt><trkpt lat="44.26596955065403" lon="10.139227715345104"><ele>492.0</ele><time>2026-04-18T09:47:30.999Z</time></trkpt><trkpt lat="44.26592709946197" lon="10.139079111408245"><ele>492.0</ele><time>2026-04-18T09:47:31.999Z</time></trkpt><trkpt lat="44.26588188284663" lon="10.138934292405166"><ele>494.75</ele><time>2026-04-18T09:47:32.999Z</time></trkpt><trkpt lat="44.26583309554024" lon="10.138796816480541"><ele>497.5</ele><time>2026-04-18T09:47:33.999Z</time></trkpt><trkpt lat="44.26577454990432" lon="10.13864873638982"><ele>500.25</ele><time>2026-04-18T09:47:34.999Z</time></trkpt><trkpt lat="44.26571631778252" lon="10.13849990417772"><ele>503.0</ele><time>2026-04-18T09:47:35.999Z</time></trkpt><trkpt lat="44.26565606011366" lon="10.13835549453251"><ele>496.0</ele><time>2026-04-18T09:47:36.999Z</time></trkpt><trkpt lat="44.265590675653414" lon="10.138218030130492"><ele>489.0</ele><time>2026-04-18T09:47:38Z</time></trkpt><trkpt lat="44.26551236755118" lon="10.13808400409774"><ele>482.0</ele><time>2026-04-18T09:47:39Z</time></trkpt><trkpt lat="44.265442518024926" lon="10.137949344163237"><ele>475.0</ele><time>2026-04-18T09:47:40Z</time></trkpt><trkpt lat="44.26538108444719" lon="10.137815093592012"><ele>475.0</ele><time>2026-04-18T09:47:41Z</time></trkpt><trkpt lat="44.26532875477779" lon="10.137685208067369"><ele>475.0</ele><time>2026-04-18T09:47:42Z</time></trkpt><trkpt lat="44.26527511112768" lon="10.13755561707088"><ele>475.0</ele><time>2026-04-18T09:47:43Z</time></trkpt><trkpt lat="44.265231690799" lon="10.137425086290452"><ele>475.0</ele><time>2026-04-18T09:47:44Z</time></trkpt><trkpt lat="44.265189641972" lon="10.13727876113098"><ele>475.0</ele><time>2026-04-18T09:47:45Z</time></trkpt><trkpt lat="44.26514476717898" lon="10.137126977515733"><ele>476.4</ele><time>2026-04-18T09:47:46Z</time></trkpt><trkpt lat="44.265111972297504" lon="10.136977165610665"><ele>477.8</ele><time>2026-04-18T09:47:47Z</time></trkpt><trkpt lat="44.26510451963643" lon="10.136826365294052"><ele>479.20000000000005</ele><time>2026-04-18T09:47:48Z</time></trkpt><trkpt lat="44.26510370390291" lon="10.136705753238843"><ele>480.6</ele><time>2026-04-18T09:47:49Z</time></trkpt><trkpt lat="44.265102208308996" lon="10.136600029006562"><ele>482.0</ele><time>2026-04-18T09:47:50Z</time></trkpt><trkpt lat="44.26503952868937" lon="10.136500176803338"><ele>483.75</ele><time>2026-04-18T09:47:51Z</time></trkpt><trkpt lat="44.264939114055544" lon="10.136408658928064"><ele>485.5</ele><time>2026-04-18T09:47:52Z</time></trkpt><trkpt lat="44.26483540417635" lon="10.136310773047539"><ele>487.25</ele><time>2026-04-18T09:47:53Z</time></trkpt><trkpt lat="44.264763908942165" lon="10.13619086678999"><ele>489.0</ele><time>2026-04-18T09:47:54Z</time></trkpt><trkpt lat="44.26469097466655" lon="10.136049422762285"><ele>482.5</ele><time>2026-04-18T09:47:55Z</time></trkpt><trkpt lat="44.26460989963443" lon="10.135912277557273"><ele>476.0</ele><time>2026-04-18T09:47:56Z</time></trkpt><trkpt lat="44.264526547277306" lon="10.135778137023117"><ele>469.5</ele><time>2026-04-18T09:47:57Z</time></trkpt><trkpt lat="44.264452931489714" lon="10.135643548684328"><ele>463.0</ele><time>2026-04-18T09:47:58Z</time></trkpt><trkpt lat="44.264388789971385" lon="10.135510472159737"><ele>463.0</ele><time>2026-04-18T09:47:59Z</time></trkpt><trkpt lat="44.26432402814153" lon="10.135379083386606"><ele>462.99999999999994</ele><time>2026-04-18T09:48:00Z</time></trkpt><trkpt lat="44.264267794901" lon="10.135244634285204"><ele>462.99999999999994</ele><time>2026-04-18T09:48:01Z</time></trkpt><trkpt lat="44.26421591323351" lon="10.135108982789289"><ele>463.0</ele><time>2026-04-18T09:48:02Z</time></trkpt><trkpt lat="44.264191332806234" lon="10.134961888577596"><ele>463.0</ele><time>2026-04-18T09:48:03Z</time></trkpt><trkpt lat="44.26414324297169" lon="10.134830907704947"><ele>460.2</ele><time>2026-04-18T09:48:04Z</time></trkpt><trkpt lat="44.26412235508274" lon="10.13470340159121"><ele>457.4</ele><time>2026-04-18T09:48:05Z</time></trkpt><trkpt lat="44.264112805601485" lon="10.134594779810831"><ele>454.59999999999997</ele><time>2026-04-18T09:48:06Z</time></trkpt><trkpt lat="44.26414788671739" lon="10.134449808889027"><ele>451.79999999999995</ele><time>2026-04-18T09:48:08Z</time></trkpt><trkpt lat="44.26426866529985" lon="10.134380520465323"><ele>449.0</ele><time>2026-04-18T09:48:10Z</time></trkpt><trkpt lat="44.26435831907025" lon="10.134387371358763"><ele>449.0</ele><time>2026-04-18T09:48:11Z</time></trkpt><trkpt lat="44.26445469912895" lon="10.134413855457266"><ele>449.0</ele><time>2026-04-18T09:48:12Z</time></trkpt><trkpt lat="44.264566035367004" lon="10.134436893070598"><ele>449.0</ele><time>2026-04-18T09:48:13Z</time></trkpt><trkpt lat="44.26466855914561" lon="10.134454194280178"><ele>449.0</ele><time>2026-04-18T09:48:14Z</time></trkpt><trkpt lat="44.26476358848924" lon="10.134492953094545"><ele>449.0</ele><time>2026-04-18T09:48:15Z</time></trkpt><trkpt lat="44.264850342792876" lon="10.134530949697828"><ele>448.99999999999994</ele><time>2026-04-18T09:48:16Z</time></trkpt><trkpt lat="44.26493558643442" lon="10.134578541917104"><ele>449.0</ele><time>2026-04-18T09:48:17Z</time></trkpt><trkpt lat="44.26501331925687" lon="10.134625003215826"><ele>449.0</ele><time>2026-04-18T09:48:18Z</time></trkpt><trkpt lat="44.265087212608314" lon="10.134653037213807"><ele>449.0</ele><time>2026-04-18T09:48:19Z</time></trkpt><trkpt lat="44.265162261099235" lon="10.134660130173845"><ele>448.99999999999994</ele><time>2026-04-18T09:48:20Z</time></trkpt><trkpt lat="44.26524902299131" lon="10.134638934741476"><ele>449.0</ele><time>2026-04-18T09:48:21Z</time></trkpt><trkpt lat="44.265338682773496" lon="10.13462200131726"><ele>448.99999999999994</ele><time>2026-04-18T09:48:22Z</time></trkpt><trkpt lat="44.26541967470247" lon="10.134629743856804"><ele>449.0</ele><time>2026-04-18T09:48:23Z</time></trkpt><trkpt lat="44.26553350133168" lon="10.134567297965472"><ele>449.0</ele><time>2026-04-18T09:48:25Z</time></trkpt><trkpt lat="44.265572050228066" lon="10.13447963446846"><ele>449.0</ele><time>2026-04-18T09:48:26Z</time></trkpt><trkpt lat="44.265602511132194" lon="10.134380567514755"><ele>448.99999999999994</ele><time>2026-04-18T09:48:27Z</time></trkpt><trkpt lat="44.26562493710164" lon="10.134271804408515"><ele>449.0</ele><time>2026-04-18T09:48:28Z</time></trkpt><trkpt lat="44.26563155890608" lon="10.134146264971934"><ele>447.99999999999994</ele><time>2026-04-18T09:48:29Z</time></trkpt><trkpt lat="44.26562366345017" lon="10.134010342093909"><ele>447.0</ele><time>2026-04-18T09:48:30Z</time></trkpt><trkpt lat="44.26564042099245" lon="10.13388248958827"><ele>446.0</ele><time>2026-04-18T09:48:31Z</time></trkpt><trkpt lat="44.26565254491186" lon="10.133762213405701"><ele>445.0</ele><time>2026-04-18T09:48:32Z</time></trkpt><trkpt lat="44.26566881359537" lon="10.133646143403583"><ele>443.99999999999994</ele><time>2026-04-18T09:48:33Z</time></trkpt><trkpt lat="44.265729249157815" lon="10.13358406145993"><ele>443.0</ele><time>2026-04-18T09:48:34Z</time></trkpt><trkpt lat="44.265801298497315" lon="10.133546868874458"><ele>443.0</ele><time>2026-04-18T09:48:35Z</time></trkpt><trkpt lat="44.26584605209234" lon="10.133413442266756"><ele>443.0</ele><time>2026-04-18T09:48:37Z</time></trkpt><trkpt lat="44.265700170421105" lon="10.133338839840983"><ele>443.0</ele><time>2026-04-18T09:48:39Z</time></trkpt><trkpt lat="44.26560420975172" lon="10.133299181544773"><ele>443.0</ele><time>2026-04-18T09:48:40Z</time></trkpt><trkpt lat="44.26550093316231" lon="10.133293499498642"><ele>439.59999999999997</ele><time>2026-04-18T09:48:41Z</time></trkpt><trkpt lat="44.26542386365263" lon="10.13327571222123"><ele>436.19999999999993</ele><time>2026-04-18T09:48:42Z</time></trkpt><trkpt lat="44.26533100405919" lon="10.133299530183095"><ele>432.8</ele><time>2026-04-18T09:48:44Z</time></trkpt><trkpt lat="44.265362470822524" lon="10.133532898940487"><ele>429.4</ele><time>2026-04-18T09:48:45Z</time></trkpt><trkpt lat="44.265385985606414" lon="10.133675724705165"><ele>426.0</ele><time>2026-04-18T09:48:46Z</time></trkpt><trkpt lat="44.26537959119535" lon="10.133825766293972"><ele>426.0</ele><time>2026-04-18T09:48:47Z</time></trkpt><trkpt lat="44.26535613470961" lon="10.13393509390355"><ele>426.0</ele><time>2026-04-18T09:48:47.999Z</time></trkpt><trkpt lat="44.2652876228599" lon="10.134037573675933"><ele>426.0</ele><time>2026-04-18T09:48:49.999Z</time></trkpt><trkpt lat="44.26519408247221" lon="10.134072164724454"><ele>426.0</ele><time>2026-04-18T09:48:50.999Z</time></trkpt><trkpt lat="44.26511658572068" lon="10.134017458437857"><ele>426.0</ele><time>2026-04-18T09:48:51.999Z</time></trkpt><trkpt lat="44.26506170776562" lon="10.133912843038209"><ele>426.0</ele><time>2026-04-18T09:48:52.999Z</time></trkpt><trkpt lat="44.265019985297414" lon="10.13378538220403"><ele>426.0</ele><time>2026-04-18T09:48:53.999Z</time></trkpt><trkpt lat="44.2649593253413" lon="10.133692860540402"><ele>426.0</ele><time>2026-04-18T09:48:54.999Z</time></trkpt><trkpt lat="44.26487591197731" lon="10.133651459512112"><ele>426.0</ele><time>2026-04-18T09:48:55.999Z</time></trkpt><trkpt lat="44.26477646582349" lon="10.133625432332776"><ele>426.0</ele><time>2026-04-18T09:48:56.999Z</time></trkpt><trkpt lat="44.26468225263115" lon="10.133595052032039"><ele>424.8</ele><time>2026-04-18T09:48:57.999Z</time></trkpt><trkpt lat="44.26458759306963" lon="10.133548833602589"><ele>423.6</ele><time>2026-04-18T09:48:58.999Z</time></trkpt><trkpt lat="44.264494530059366" lon="10.13345935378472"><ele>422.4</ele><time>2026-04-18T09:48:59.999Z</time></trkpt><trkpt lat="44.2644134570415" lon="10.13335148614629"><ele>421.2</ele><time>2026-04-18T09:49:00.999Z</time></trkpt><trkpt lat="44.264314055803375" lon="10.133263963147606"><ele>420.0</ele><time>2026-04-18T09:49:01.999Z</time></trkpt><trkpt lat="44.26419581699786" lon="10.133186313160406"><ele>415.5</ele><time>2026-04-18T09:49:02.999Z</time></trkpt><trkpt lat="44.264081607346256" lon="10.133109256454793"><ele>411.0</ele><time>2026-04-18T09:49:03.999Z</time></trkpt><trkpt lat="44.26396484501826" lon="10.1330424481667"><ele>406.5</ele><time>2026-04-18T09:49:04.999Z</time></trkpt><trkpt lat="44.2638501603902" lon="10.132986466846823"><ele>402.0</ele><time>2026-04-18T09:49:05.999Z</time></trkpt><trkpt lat="44.263734016541946" lon="10.13295202303546"><ele>400.6</ele><time>2026-04-18T09:49:06.999Z</time></trkpt><trkpt lat="44.263616316062866" lon="10.132940281218957"><ele>399.20000000000005</ele><time>2026-04-18T09:49:07.999Z</time></trkpt><trkpt lat="44.26350876161047" lon="10.132909971487823"><ele>397.8</ele><time>2026-04-18T09:49:08.999Z</time></trkpt><trkpt lat="44.26340620990268" lon="10.132890554805641"><ele>396.4</ele><time>2026-04-18T09:49:09.999Z</time></trkpt><trkpt lat="44.26330901657983" lon="10.132892409649635"><ele>395.0</ele><time>2026-04-18T09:49:10.999Z</time></trkpt><trkpt lat="44.26320206132995" lon="10.13293699362951"><ele>395.0</ele><time>2026-04-18T09:49:11.999Z</time></trkpt><trkpt lat="44.26308020521685" lon="10.132968203614608"><ele>395.0</ele><time>2026-04-18T09:49:12.999Z</time></trkpt><trkpt lat="44.262981121163946" lon="10.13298025826527"><ele>395.0</ele><time>2026-04-18T09:49:13.999Z</time></trkpt><trkpt lat="44.26288905059173" lon="10.132944659400403"><ele>395.0</ele><time>2026-04-18T09:49:14.999Z</time></trkpt><trkpt lat="44.2627835594748" lon="10.132870554378883"><ele>395.0</ele><time>2026-04-18T09:49:15.999Z</time></trkpt><trkpt lat="44.2626627703332" lon="10.132805915963178"><ele>395.0</ele><time>2026-04-18T09:49:16.999Z</time></trkpt><trkpt lat="44.262555167128035" lon="10.132721410633668"><ele>395.0</ele><time>2026-04-18T09:49:17.999Z</time></trkpt><trkpt lat="44.262439708869664" lon="10.132640452272584"><ele>395.0</ele><time>2026-04-18T09:49:18.999Z</time></trkpt><trkpt lat="44.26232954983148" lon="10.132559795816523"><ele>395.0</ele><time>2026-04-18T09:49:19.999Z</time></trkpt><trkpt lat="44.26220725142115" lon="10.13248704151363"><ele>390.75</ele><time>2026-04-18T09:49:20.999Z</time></trkpt><trkpt lat="44.262096287389255" lon="10.132410102015202"><ele>386.5</ele><time>2026-04-18T09:49:21.999Z</time></trkpt><trkpt lat="44.2619852431999" lon="10.132325722031375"><ele>382.25</ele><time>2026-04-18T09:49:22.999Z</time></trkpt><trkpt lat="44.26188222293896" lon="10.132223237232063"><ele>378.0</ele><time>2026-04-18T09:49:23.999Z</time></trkpt><trkpt lat="44.26179599118788" lon="10.132108490695787"><ele>378.0</ele><time>2026-04-18T09:49:24.999Z</time></trkpt><trkpt lat="44.26173236068495" lon="10.132005018403989"><ele>378.0</ele><time>2026-04-18T09:49:25.999Z</time></trkpt><trkpt lat="44.26169010702004" lon="10.131933091586035"><ele>378.0</ele><time>2026-04-18T09:49:26.999Z</time></trkpt><trkpt lat="44.261624894748245" lon="10.131880728399546"><ele>378.0</ele><time>2026-04-18T09:49:28.999Z</time></trkpt><trkpt lat="44.26154972570013" lon="10.131870042282108"><ele>378.0</ele><time>2026-04-18T09:50:09Z</time></trkpt><trkpt lat="44.26146423415212" lon="10.13175549001279"><ele>378.0</ele><time>2026-04-18T09:50:20Z</time></trkpt><trkpt lat="44.261409867873596" lon="10.131696654834078"><ele>375.85714285714283</ele><time>2026-04-18T09:50:22Z</time></trkpt><trkpt lat="44.26134284211827" lon="10.131650878258752"><ele>373.7142857142857</ele><time>2026-04-18T09:50:24Z</time></trkpt><trkpt lat="44.26128762112229" lon="10.131591258259585"><ele>371.57142857142856</ele><time>2026-04-18T09:50:26Z</time></trkpt><trkpt lat="44.26123289248194" lon="10.131523385198253"><ele>369.42857142857144</ele><time>2026-04-18T09:50:29Z</time></trkpt><trkpt lat="44.261256448072174" lon="10.131413909988808"><ele>367.2857142857143</ele><time>2026-04-18T09:50:32Z</time></trkpt><trkpt lat="44.26126025452142" lon="10.131299305103203"><ele>365.1428571428571</ele><time>2026-04-18T09:50:35Z</time></trkpt><trkpt lat="44.26126182489763" lon="10.13120615887258"><ele>363.0</ele><time>2026-04-18T09:50:38Z</time></trkpt><trkpt lat="44.2612671183494" lon="10.131098257867203"><ele>362.5</ele><time>2026-04-18T09:50:41Z</time></trkpt><trkpt lat="44.26128213087952" lon="10.131003130447283"><ele>362.0</ele><time>2026-04-18T09:50:44Z</time></trkpt><trkpt lat="44.26117128619457" lon="10.13093695204992"><ele>361.5</ele><time>2026-04-18T09:50:57.999Z</time></trkpt><trkpt lat="44.26110563963086" lon="10.130930308702952"><ele>361.0</ele><time>2026-04-18T09:50:59.999Z</time></trkpt><trkpt lat="44.26103282277543" lon="10.130946307539165"><ele>360.5</ele><time>2026-04-18T09:51:01.999Z</time></trkpt><trkpt lat="44.260955245406386" lon="10.130960209682083"><ele>360.0</ele><time>2026-04-18T09:51:04.999Z</time></trkpt><trkpt lat="44.260892766776216" lon="10.130897464015765"><ele>360.0</ele><time>2026-04-18T09:51:07.999Z</time></trkpt><trkpt lat="44.26083169039215" lon="10.130861766311462"><ele>360.0</ele><time>2026-04-18T09:51:10.999Z</time></trkpt><trkpt lat="44.2607650025817" lon="10.130804403403898"><ele>360.0</ele><time>2026-04-18T09:51:14.999Z</time></trkpt><trkpt lat="44.26069809702554" lon="10.13074195511003"><ele>360.0</ele><time>2026-04-18T09:51:18.999Z</time></trkpt><trkpt lat="44.26064342266069" lon="10.130685666752687"><ele>360.0</ele><time>2026-04-18T09:51:21.999Z</time></trkpt><trkpt lat="44.26062201664291" lon="10.130592245406984"><ele>360.0</ele><time>2026-04-18T09:51:25.999Z</time></trkpt><trkpt lat="44.26066401867096" lon="10.130682183365241"><ele>360.0</ele><time>2026-04-18T09:52:03Z</time></trkpt><trkpt lat="44.26070552828637" lon="10.130760592795918"><ele>360.0</ele><time>2026-04-18T09:52:05Z</time></trkpt><trkpt lat="44.260777105350954" lon="10.130825216743968"><ele>360.0</ele><time>2026-04-18T09:52:08Z</time></trkpt><trkpt lat="44.26085206271962" lon="10.13085782210154"><ele>360.0</ele><time>2026-04-18T09:52:10Z</time></trkpt><trkpt lat="44.26091578738901" lon="10.130919300107038"><ele>360.0</ele><time>2026-04-18T09:52:12Z</time></trkpt><trkpt lat="44.26100541393244" lon="10.130961678892017"><ele>360.0</ele><time>2026-04-18T09:52:15Z</time></trkpt><trkpt lat="44.2610690654363" lon="10.130977124989702"><ele>360.0</ele><time>2026-04-18T09:52:17Z</time></trkpt><trkpt lat="44.2611395310943" lon="10.130938486382682"><ele>360.0</ele><time>2026-04-18T09:52:19Z</time></trkpt><trkpt lat="44.26120523556306" lon="10.130946752479534"><ele>360.0</ele><time>2026-04-18T09:52:21Z</time></trkpt><trkpt lat="44.261276040789845" lon="10.130963195871274"><ele>360.0</ele><time>2026-04-18T09:52:25Z</time></trkpt><trkpt lat="44.26122052130875" lon="10.130913552136896"><ele>360.0</ele><time>2026-04-18T09:52:27Z</time></trkpt><trkpt lat="44.26121729724841" lon="10.131253134243007"><ele>360.0</ele><time>2026-04-18T09:52:31Z</time></trkpt><trkpt lat="44.26124962800428" lon="10.13135986439012"><ele>360.0</ele><time>2026-04-18T09:52:34Z</time></trkpt><trkpt lat="44.2612416409461" lon="10.131455816315519"><ele>360.0</ele><time>2026-04-18T09:52:36Z</time></trkpt><trkpt lat="44.2612542322122" lon="10.131548639949958"><ele>360.0</ele><time>2026-04-18T09:52:38Z</time></trkpt><trkpt lat="44.261328335791" lon="10.131630369594243"><ele>360.0</ele><time>2026-04-18T09:52:40Z</time></trkpt><trkpt lat="44.261383243982856" lon="10.131676005351812"><ele>360.0</ele><time>2026-04-18T09:52:41Z</time></trkpt><trkpt lat="44.26144292437014" lon="10.131729967392149"><ele>360.0</ele><time>2026-04-18T09:52:42Z</time></trkpt><trkpt lat="44.26151604990974" lon="10.13181041084409"><ele>363.0</ele><time>2026-04-18T09:52:44Z</time></trkpt><trkpt lat="44.26155602649789" lon="10.131892565593105"><ele>366.0</ele><time>2026-04-18T09:52:46Z</time></trkpt><trkpt lat="44.261567968021545" lon="10.132040030199668"><ele>369.0</ele><time>2026-04-18T09:52:49Z</time></trkpt><trkpt lat="44.26160346227257" lon="10.132116367831228"><ele>372.0</ele><time>2026-04-18T09:52:50Z</time></trkpt><trkpt lat="44.26164878226801" lon="10.132183989329068"><ele>375.0</ele><time>2026-04-18T09:52:51Z</time></trkpt><trkpt lat="44.26168984052428" lon="10.132254620343524"><ele>378.0</ele><time>2026-04-18T09:52:52Z</time></trkpt><trkpt lat="44.261764657206896" lon="10.132383690620918"><ele>377.8333333333333</ele><time>2026-04-18T09:52:54Z</time></trkpt><trkpt lat="44.26181004408258" lon="10.13246419106309"><ele>377.6666666666667</ele><time>2026-04-18T09:52:55Z</time></trkpt><trkpt lat="44.2618641222326" lon="10.132565743664236"><ele>377.5</ele><time>2026-04-18T09:52:56Z</time></trkpt><trkpt lat="44.26190704574405" lon="10.132667459450602"><ele>377.33333333333337</ele><time>2026-04-18T09:52:57Z</time></trkpt><trkpt lat="44.26194390635254" lon="10.132774825888193"><ele>377.1666666666667</ele><time>2026-04-18T09:52:58Z</time></trkpt><trkpt lat="44.26196022067897" lon="10.132897304276904"><ele>377.0</ele><time>2026-04-18T09:52:58.999Z</time></trkpt><trkpt lat="44.26197041347371" lon="10.133018281278346"><ele>377.0</ele><time>2026-04-18T09:52:59.999Z</time></trkpt><trkpt lat="44.26196770146326" lon="10.133150518951537"><ele>377.0</ele><time>2026-04-18T09:53:00.999Z</time></trkpt><trkpt lat="44.26196252466214" lon="10.133273459758364"><ele>377.0</ele><time>2026-04-18T09:53:01.999Z</time></trkpt><trkpt lat="44.26192861761604" lon="10.133398135688282"><ele>377.0</ele><time>2026-04-18T09:53:02.999Z</time></trkpt><trkpt lat="44.261889105293406" lon="10.133508510390795"><ele>377.0</ele><time>2026-04-18T09:53:03.999Z</time></trkpt><trkpt lat="44.26185495645539" lon="10.13360597177789"><ele>377.0</ele><time>2026-04-18T09:53:04.999Z</time></trkpt><trkpt lat="44.261849015293635" lon="10.13377488570931"><ele>376.0</ele><time>2026-04-18T09:53:06.999Z</time></trkpt><trkpt lat="44.261883385780905" lon="10.13386693950358"><ele>375.0</ele><time>2026-04-18T09:53:07.999Z</time></trkpt><trkpt lat="44.261991359111704" lon="10.133911949880716"><ele>374.0</ele><time>2026-04-18T09:53:08.999Z</time></trkpt><trkpt lat="44.26208285096197" lon="10.133970958671497"><ele>373.0</ele><time>2026-04-18T09:53:09.999Z</time></trkpt><trkpt lat="44.26214995940548" lon="10.134045464206064"><ele>372.0</ele><time>2026-04-18T09:53:10.999Z</time></trkpt><trkpt lat="44.2621965109687" lon="10.13415162650091"><ele>372.0</ele><time>2026-04-18T09:53:11.999Z</time></trkpt><trkpt lat="44.262250269324916" lon="10.134258394900732"><ele>372.0</ele><time>2026-04-18T09:53:12.999Z</time></trkpt><trkpt lat="44.26229529908956" lon="10.134358349078887"><ele>372.0</ele><time>2026-04-18T09:53:13.999Z</time></trkpt><trkpt lat="44.262299051897564" lon="10.134448940579864"><ele>372.0</ele><time>2026-04-18T09:53:14.999Z</time></trkpt><trkpt lat="44.26229188709391" lon="10.134566256330631"><ele>372.0</ele><time>2026-04-18T09:53:15.999Z</time></trkpt><trkpt lat="44.26225478514913" lon="10.134649504928358"><ele>372.0</ele><time>2026-04-18T09:53:16.999Z</time></trkpt><trkpt lat="44.262211603817086" lon="10.134734831590832"><ele>372.0</ele><time>2026-04-18T09:53:18.999Z</time></trkpt><trkpt lat="44.26211838947832" lon="10.134710210353694"><ele>372.0</ele><time>2026-04-18T09:53:20.999Z</time></trkpt><trkpt lat="44.26205657254457" lon="10.134674783798802"><ele>372.0</ele><time>2026-04-18T09:53:21.999Z</time></trkpt><trkpt lat="44.26198533679407" lon="10.134651693709671"><ele>372.0</ele><time>2026-04-18T09:53:22.999Z</time></trkpt><trkpt lat="44.261893508391175" lon="10.134641855133747"><ele>372.0</ele><time>2026-04-18T09:53:23.999Z</time></trkpt><trkpt lat="44.26180561567578" lon="10.13462694436295"><ele>372.0</ele><time>2026-04-18T09:53:24.999Z</time></trkpt><trkpt lat="44.2617239121457" lon="10.134621046536514"><ele>372.0</ele><time>2026-04-18T09:53:25.999Z</time></trkpt><trkpt lat="44.261628958288114" lon="10.134613274328604"><ele>372.0</ele><time>2026-04-18T09:53:26.999Z</time></trkpt><trkpt lat="44.261538814036484" lon="10.134603008759713"><ele>372.0</ele><time>2026-04-18T09:53:27.999Z</time></trkpt><trkpt lat="44.26146309830172" lon="10.134595912624729"><ele>372.0</ele><time>2026-04-18T09:53:28.999Z</time></trkpt><trkpt lat="44.26137719643543" lon="10.134580299547913"><ele>372.0</ele><time>2026-04-18T09:53:29.999Z</time></trkpt><trkpt lat="44.2612934052593" lon="10.134539758706536"><ele>372.0</ele><time>2026-04-18T09:53:30.999Z</time></trkpt><trkpt lat="44.26120976665679" lon="10.134487336529087"><ele>376.0</ele><time>2026-04-18T09:53:31.999Z</time></trkpt><trkpt lat="44.261127856539865" lon="10.134424367802165"><ele>380.0</ele><time>2026-04-18T09:53:32.999Z</time></trkpt><trkpt lat="44.26106037856672" lon="10.134352805326417"><ele>384.0</ele><time>2026-04-18T09:53:33.999Z</time></trkpt><trkpt lat="44.26100376069927" lon="10.134235807326833"><ele>388.0</ele><time>2026-04-18T09:53:34.999Z</time></trkpt><trkpt lat="44.2609695600346" lon="10.134102690447016"><ele>392.0</ele><time>2026-04-18T09:53:35.999Z</time></trkpt><trkpt lat="44.26096570340214" lon="10.13397533602099"><ele>392.0</ele><time>2026-04-18T09:53:36.999Z</time></trkpt><trkpt lat="44.261011848680546" lon="10.133850964488275"><ele>392.0</ele><time>2026-04-18T09:53:37.999Z</time></trkpt><trkpt lat="44.26104309854822" lon="10.133720041533884"><ele>392.0</ele><time>2026-04-18T09:53:38.999Z</time></trkpt><trkpt lat="44.26108598054092" lon="10.133590582640936"><ele>392.0</ele><time>2026-04-18T09:53:39.999Z</time></trkpt><trkpt lat="44.26111413384965" lon="10.13346836028384"><ele>392.0</ele><time>2026-04-18T09:53:40.999Z</time></trkpt><trkpt lat="44.261129589602625" lon="10.133367642189762"><ele>392.0</ele><time>2026-04-18T09:53:41.999Z</time></trkpt><trkpt lat="44.26107883727093" lon="10.13323730040349"><ele>392.0</ele><time>2026-04-18T09:53:43.999Z</time></trkpt><trkpt lat="44.26100312360363" lon="10.133186759929192"><ele>392.0</ele><time>2026-04-18T09:53:44.999Z</time></trkpt><trkpt lat="44.26090579277062" lon="10.133164944684948"><ele>392.0</ele><time>2026-04-18T09:53:45.999Z</time></trkpt><trkpt lat="44.26080081100943" lon="10.13314340450531"><ele>392.0</ele><time>2026-04-18T09:53:46.999Z</time></trkpt><trkpt lat="44.260698401943316" lon="10.13310028916258"><ele>395.0</ele><time>2026-04-18T09:53:47.999Z</time></trkpt><trkpt lat="44.26060386964822" lon="10.133052628832674"><ele>398.0</ele><time>2026-04-18T09:53:48.999Z</time></trkpt><trkpt lat="44.26051357281439" lon="10.133005580922239"><ele>401.0</ele><time>2026-04-18T09:53:49.999Z</time></trkpt><trkpt lat="44.26043580950565" lon="10.132934435550434"><ele>404.0</ele><time>2026-04-18T09:53:50.999Z</time></trkpt><trkpt lat="44.26035064872688" lon="10.132844835872204"><ele>407.0</ele><time>2026-04-18T09:53:51.999Z</time></trkpt><trkpt lat="44.26026591142346" lon="10.132754622095455"><ele>407.0</ele><time>2026-04-18T09:53:52.999Z</time></trkpt><trkpt lat="44.26017675493501" lon="10.132661018596119"><ele>407.0</ele><time>2026-04-18T09:53:53.999Z</time></trkpt><trkpt lat="44.26010409228658" lon="10.132556857167643"><ele>407.0</ele><time>2026-04-18T09:53:54.999Z</time></trkpt><trkpt lat="44.26004076658713" lon="10.13244946615789"><ele>407.0</ele><time>2026-04-18T09:53:56Z</time></trkpt><trkpt lat="44.25996372676419" lon="10.13236330491509"><ele>407.0</ele><time>2026-04-18T09:53:57Z</time></trkpt><trkpt lat="44.25989749055764" lon="10.132256771956929"><ele>405.20000000000005</ele><time>2026-04-18T09:53:58Z</time></trkpt><trkpt lat="44.259823825049196" lon="10.1321713791168"><ele>403.4</ele><time>2026-04-18T09:53:59Z</time></trkpt><trkpt lat="44.259733187915145" lon="10.132104704647157"><ele>401.6</ele><time>2026-04-18T09:54:00Z</time></trkpt><trkpt lat="44.25962875119603" lon="10.132070678973292"><ele>399.79999999999995</ele><time>2026-04-18T09:54:01Z</time></trkpt><trkpt lat="44.25952144543839" lon="10.132071036852897"><ele>398.0</ele><time>2026-04-18T09:54:02Z</time></trkpt><trkpt lat="44.25942083016772" lon="10.13209900537529"><ele>398.0</ele><time>2026-04-18T09:54:03Z</time></trkpt><trkpt lat="44.25933765310609" lon="10.132169830458615"><ele>398.0</ele><time>2026-04-18T09:54:04Z</time></trkpt><trkpt lat="44.25925755261144" lon="10.132276929012303"><ele>398.0</ele><time>2026-04-18T09:54:05Z</time></trkpt><trkpt lat="44.25916416709958" lon="10.132331915418147"><ele>398.0</ele><time>2026-04-18T09:54:06Z</time></trkpt><trkpt lat="44.25908418875185" lon="10.13236845599443"><ele>398.0</ele><time>2026-04-18T09:54:07Z</time></trkpt><trkpt lat="44.25900630662231" lon="10.132352438131894"><ele>401.2</ele><time>2026-04-18T09:54:08Z</time></trkpt><trkpt lat="44.25890627293068" lon="10.132336528073356"><ele>404.4</ele><time>2026-04-18T09:54:09Z</time></trkpt><trkpt lat="44.25881105909178" lon="10.132237460238423"><ele>407.59999999999997</ele><time>2026-04-18T09:54:10Z</time></trkpt><trkpt lat="44.258717742562304" lon="10.132142842363152"><ele>410.79999999999995</ele><time>2026-04-18T09:54:11Z</time></trkpt><trkpt lat="44.25861734159491" lon="10.132071469852376"><ele>414.0</ele><time>2026-04-18T09:54:12Z</time></trkpt><trkpt lat="44.25850215588546" lon="10.132015977258025"><ele>414.0</ele><time>2026-04-18T09:54:13Z</time></trkpt><trkpt lat="44.25839062468645" lon="10.131967521974296"><ele>414.0</ele><time>2026-04-18T09:54:14Z</time></trkpt><trkpt lat="44.25828728892182" lon="10.131911629025778"><ele>414.0</ele><time>2026-04-18T09:54:15Z</time></trkpt><trkpt lat="44.258186464366055" lon="10.131849546018598"><ele>414.0</ele><time>2026-04-18T09:54:16Z</time></trkpt><trkpt lat="44.25808252756305" lon="10.131789600421563"><ele>416.79999999999995</ele><time>2026-04-18T09:54:17Z</time></trkpt><trkpt lat="44.25797968795061" lon="10.131726606109261"><ele>419.59999999999997</ele><time>2026-04-18T09:54:18Z</time></trkpt><trkpt lat="44.25788504045513" lon="10.131659031660616"><ele>422.4</ele><time>2026-04-18T09:54:19Z</time></trkpt><trkpt lat="44.25778089872964" lon="10.131611116898254"><ele>425.2</ele><time>2026-04-18T09:54:20Z</time></trkpt><trkpt lat="44.25767652285212" lon="10.13157832404744"><ele>428.0</ele><time>2026-04-18T09:54:21Z</time></trkpt><trkpt lat="44.257572392564136" lon="10.131580956346081"><ele>428.0</ele><time>2026-04-18T09:54:22Z</time></trkpt><trkpt lat="44.25747313005555" lon="10.131602870724722"><ele>427.99999999999994</ele><time>2026-04-18T09:54:23Z</time></trkpt><trkpt lat="44.257375293588304" lon="10.131674015257111"><ele>427.99999999999994</ele><time>2026-04-18T09:54:24Z</time></trkpt><trkpt lat="44.25729315486755" lon="10.131718925814122"><ele>428.0</ele><time>2026-04-18T09:54:25Z</time></trkpt><trkpt lat="44.25716446640179" lon="10.131704321811133"><ele>428.0</ele><time>2026-04-18T09:54:27Z</time></trkpt><trkpt lat="44.25710827895202" lon="10.131612616472124"><ele>425.79999999999995</ele><time>2026-04-18T09:54:28Z</time></trkpt><trkpt lat="44.25707033012065" lon="10.131518755322572"><ele>423.59999999999997</ele><time>2026-04-18T09:54:29Z</time></trkpt><trkpt lat="44.25700952561582" lon="10.131444863923395"><ele>421.4</ele><time>2026-04-18T09:54:30Z</time></trkpt><trkpt lat="44.25691540026572" lon="10.131405199184893"><ele>419.20000000000005</ele><time>2026-04-18T09:54:31Z</time></trkpt><trkpt lat="44.25679879217185" lon="10.131404353665221"><ele>417.0</ele><time>2026-04-18T09:54:32Z</time></trkpt><trkpt lat="44.25668327687113" lon="10.131421875679262"><ele>417.0</ele><time>2026-04-18T09:54:33Z</time></trkpt><trkpt lat="44.25656879453779" lon="10.131440599667693"><ele>417.0</ele><time>2026-04-18T09:54:34Z</time></trkpt><trkpt lat="44.25645497064645" lon="10.131438852173831"><ele>417.0</ele><time>2026-04-18T09:54:35Z</time></trkpt><trkpt lat="44.25634179331826" lon="10.131442457938244"><ele>417.0</ele><time>2026-04-18T09:54:36Z</time></trkpt><trkpt lat="44.25623767251911" lon="10.131429102443631"><ele>417.0</ele><time>2026-04-18T09:54:37Z</time></trkpt><trkpt lat="44.256139452786336" lon="10.13137337491938"><ele>420.0</ele><time>2026-04-18T09:54:38Z</time></trkpt><trkpt lat="44.25605765768084" lon="10.13130014278996"><ele>423.0</ele><time>2026-04-18T09:54:39Z</time></trkpt><trkpt lat="44.255989964946174" lon="10.131249934572072"><ele>426.0</ele><time>2026-04-18T09:54:40Z</time></trkpt><trkpt lat="44.25592236638309" lon="10.131235985639078"><ele>429.0</ele><time>2026-04-18T09:54:41Z</time></trkpt><trkpt lat="44.25585033121259" lon="10.13126367541281"><ele>432.0</ele><time>2026-04-18T09:54:42Z</time></trkpt><trkpt lat="44.255791066396704" lon="10.131356283085559"><ele>435.0</ele><time>2026-04-18T09:54:43Z</time></trkpt><trkpt lat="44.255757142145164" lon="10.131462085094055"><ele>435.25</ele><time>2026-04-18T09:54:44Z</time></trkpt><trkpt lat="44.2557890820913" lon="10.1315987106368"><ele>435.5</ele><time>2026-04-18T09:54:45Z</time></trkpt><trkpt lat="44.2558252227554" lon="10.13174122940265"><ele>435.75</ele><time>2026-04-18T09:54:46Z</time></trkpt><trkpt lat="44.25586667712212" lon="10.1319115448042"><ele>436.0</ele><time>2026-04-18T09:54:47Z</time></trkpt><trkpt lat="44.255909301723584" lon="10.132086532810613"><ele>436.0</ele><time>2026-04-18T09:54:48Z</time></trkpt><trkpt lat="44.25595003874693" lon="10.132258855929136"><ele>436.0</ele><time>2026-04-18T09:54:49Z</time></trkpt><trkpt lat="44.25598626996568" lon="10.132426650871395"><ele>436.0</ele><time>2026-04-18T09:54:50Z</time></trkpt><trkpt lat="44.256009232842224" lon="10.13259630391501"><ele>436.0</ele><time>2026-04-18T09:54:51Z</time></trkpt><trkpt lat="44.25604177655112" lon="10.132770783895875"><ele>436.0</ele><time>2026-04-18T09:54:52Z</time></trkpt><trkpt lat="44.2560583143033" lon="10.13295374372628"><ele>436.0</ele><time>2026-04-18T09:54:53Z</time></trkpt><trkpt lat="44.25607221746021" lon="10.133130439470108"><ele>436.0</ele><time>2026-04-18T09:54:54Z</time></trkpt><trkpt lat="44.25609616412952" lon="10.133305738711693"><ele>436.0</ele><time>2026-04-18T09:54:55Z</time></trkpt><trkpt lat="44.2561321063162" lon="10.133482774222115"><ele>435.75</ele><time>2026-04-18T09:54:56Z</time></trkpt><trkpt lat="44.256156694606325" lon="10.133661693488863"><ele>435.5</ele><time>2026-04-18T09:54:57Z</time></trkpt><trkpt lat="44.25617709484829" lon="10.133821448516402"><ele>435.25</ele><time>2026-04-18T09:54:58Z</time></trkpt><trkpt lat="44.25619568013325" lon="10.13397422099345"><ele>435.0</ele><time>2026-04-18T09:54:59Z</time></trkpt><trkpt lat="44.25619937505202" lon="10.13412846073077"><ele>436.2</ele><time>2026-04-18T09:55:00Z</time></trkpt><trkpt lat="44.256223572092814" lon="10.134223336454557"><ele>437.4</ele><time>2026-04-18T09:55:01Z</time></trkpt><trkpt lat="44.256231282185155" lon="10.134343139815472"><ele>438.6</ele><time>2026-04-18T09:55:16.999Z</time></trkpt><trkpt lat="44.2562291808055" lon="10.13452410637989"><ele>439.8</ele><time>2026-04-18T09:55:18.999Z</time></trkpt><trkpt lat="44.25620107882369" lon="10.134643790633486"><ele>441.0</ele><time>2026-04-18T09:55:19.999Z</time></trkpt><trkpt lat="44.2561466958446" lon="10.134750239452782"><ele>441.0</ele><time>2026-04-18T09:55:20.999Z</time></trkpt><trkpt lat="44.25608879457081" lon="10.134881244275984"><ele>441.0</ele><time>2026-04-18T09:55:21.999Z</time></trkpt><trkpt lat="44.25603456059774" lon="10.13500383271051"><ele>441.0</ele><time>2026-04-18T09:55:22.999Z</time></trkpt><trkpt lat="44.25599327594504" lon="10.135111268398353"><ele>441.0</ele><time>2026-04-18T09:55:23.999Z</time></trkpt><trkpt lat="44.255989570978436" lon="10.135235654924884"><ele>441.0</ele><time>2026-04-18T09:55:24.999Z</time></trkpt><trkpt lat="44.25602280384537" lon="10.13538575498962"><ele>443.20000000000005</ele><time>2026-04-18T09:55:25.999Z</time></trkpt><trkpt lat="44.25603948116171" lon="10.13556771635852"><ele>445.40000000000003</ele><time>2026-04-18T09:55:26.999Z</time></trkpt><trkpt lat="44.256066713741625" lon="10.135728246996266"><ele>447.6</ele><time>2026-04-18T09:55:27.999Z</time></trkpt><trkpt lat="44.25608838130209" lon="10.135867084590265"><ele>449.8</ele><time>2026-04-18T09:55:28.999Z</time></trkpt><trkpt lat="44.25609509290465" lon="10.135986164287052"><ele>452.0</ele><time>2026-04-18T09:55:29.999Z</time></trkpt><trkpt lat="44.25607961803991" lon="10.136081967751853"><ele>453.99999999999994</ele><time>2026-04-18T09:55:30.999Z</time></trkpt><trkpt lat="44.2560394943285" lon="10.13616790138935"><ele>456.0</ele><time>2026-04-18T09:55:31.999Z</time></trkpt><trkpt lat="44.25597056227048" lon="10.136223065033224"><ele>458.0</ele><time>2026-04-18T09:55:32.999Z</time></trkpt><trkpt lat="44.255901690781144" lon="10.136234538193444"><ele>460.0</ele><time>2026-04-18T09:55:33.999Z</time></trkpt><trkpt lat="44.25582935787818" lon="10.136203187665958"><ele>461.99999999999994</ele><time>2026-04-18T09:55:34.999Z</time></trkpt><trkpt lat="44.25576131015624" lon="10.136135827565804"><ele>464.0</ele><time>2026-04-18T09:55:35.999Z</time></trkpt><trkpt lat="44.2557273476305" lon="10.13604940358992"><ele>464.0</ele><time>2026-04-18T09:55:36.999Z</time></trkpt><trkpt lat="44.255713042306226" lon="10.13592144655621"><ele>464.0</ele><time>2026-04-18T09:55:37.999Z</time></trkpt><trkpt lat="44.255680691243896" lon="10.13579946820637"><ele>464.0</ele><time>2026-04-18T09:55:38.999Z</time></trkpt><trkpt lat="44.25560921554151" lon="10.1356996114392"><ele>464.0</ele><time>2026-04-18T09:55:39.999Z</time></trkpt><trkpt lat="44.25550801912139" lon="10.135626779554489"><ele>464.0</ele><time>2026-04-18T09:55:40.999Z</time></trkpt><trkpt lat="44.25539093098541" lon="10.135574826175079"><ele>465.0</ele><time>2026-04-18T09:55:41.999Z</time></trkpt><trkpt lat="44.255287613512444" lon="10.13551361354482"><ele>466.0</ele><time>2026-04-18T09:55:42.999Z</time></trkpt><trkpt lat="44.25520646755997" lon="10.13540425075731"><ele>467.0</ele><time>2026-04-18T09:55:43.999Z</time></trkpt><trkpt lat="44.25515633885064" lon="10.135247783670648"><ele>468.0</ele><time>2026-04-18T09:55:44.999Z</time></trkpt><trkpt lat="44.25511199753525" lon="10.135084868737076"><ele>468.0</ele><time>2026-04-18T09:55:45.999Z</time></trkpt><trkpt lat="44.25508753046902" lon="10.134927411964"><ele>467.99999999999994</ele><time>2026-04-18T09:55:46.999Z</time></trkpt><trkpt lat="44.25509504790803" lon="10.134805119457841"><ele>467.99999999999994</ele><time>2026-04-18T09:55:47.999Z</time></trkpt><trkpt lat="44.25514037205279" lon="10.134686919257323"><ele>468.0</ele><time>2026-04-18T09:55:48.999Z</time></trkpt><trkpt lat="44.25516053822017" lon="10.134564019119463"><ele>468.0</ele><time>2026-04-18T09:55:49.999Z</time></trkpt><trkpt lat="44.255172310915626" lon="10.134441975346391"><ele>464.25</ele><time>2026-04-18T09:55:50.999Z</time></trkpt><trkpt lat="44.25513182717067" lon="10.134320232581116"><ele>460.5</ele><time>2026-04-18T09:55:51.999Z</time></trkpt><trkpt lat="44.25505160739139" lon="10.134208399742244"><ele>456.75</ele><time>2026-04-18T09:55:52.999Z</time></trkpt><trkpt lat="44.254960816280445" lon="10.134071762736411"><ele>453.0</ele><time>2026-04-18T09:55:53.999Z</time></trkpt><trkpt lat="44.25489054739226" lon="10.133909231083797"><ele>454.5</ele><time>2026-04-18T09:55:54.999Z</time></trkpt><trkpt lat="44.25484255025915" lon="10.133727833664153"><ele>456.0</ele><time>2026-04-18T09:55:55.999Z</time></trkpt><trkpt lat="44.2547943741778" lon="10.13356503970528"><ele>457.5</ele><time>2026-04-18T09:55:56.999Z</time></trkpt><trkpt lat="44.254727791087795" lon="10.133440000287987"><ele>459.0</ele><time>2026-04-18T09:55:57.999Z</time></trkpt><trkpt lat="44.25463018623367" lon="10.133307527197967"><ele>453.0</ele><time>2026-04-18T09:55:58.999Z</time></trkpt><trkpt lat="44.25453264368226" lon="10.133162097799895"><ele>447.0</ele><time>2026-04-18T09:55:59.999Z</time></trkpt><trkpt lat="44.25443600190353" lon="10.133019727318473"><ele>441.0</ele><time>2026-04-18T09:56:00.999Z</time></trkpt><trkpt lat="44.25434914628728" lon="10.132888747099619"><ele>435.0</ele><time>2026-04-18T09:56:02Z</time></trkpt><trkpt lat="44.25424811140725" lon="10.132769718066955"><ele>435.0</ele><time>2026-04-18T09:56:03Z</time></trkpt><trkpt lat="44.25413339101556" lon="10.13265032083333"><ele>435.0</ele><time>2026-04-18T09:56:04Z</time></trkpt><trkpt lat="44.25402217046394" lon="10.13252673118016"><ele>435.0</ele><time>2026-04-18T09:56:05Z</time></trkpt><trkpt lat="44.253915418821904" lon="10.132403666011205"><ele>435.0</ele><time>2026-04-18T09:56:06Z</time></trkpt><trkpt lat="44.25380768893821" lon="10.132304778689248"><ele>431.0</ele><time>2026-04-18T09:56:07Z</time></trkpt><trkpt lat="44.2536924880991" lon="10.132241043146289"><ele>427.0</ele><time>2026-04-18T09:56:08Z</time></trkpt><trkpt lat="44.25356231777957" lon="10.132174451868005"><ele>423.0</ele><time>2026-04-18T09:56:09Z</time></trkpt><trkpt lat="44.25343914674812" lon="10.132113839342988"><ele>419.0</ele><time>2026-04-18T09:56:10Z</time></trkpt><trkpt lat="44.25332161315944" lon="10.132040705917891"><ele>419.0</ele><time>2026-04-18T09:56:11Z</time></trkpt><trkpt lat="44.25320448820879" lon="10.131960049214298"><ele>419.0</ele><time>2026-04-18T09:56:12Z</time></trkpt><trkpt lat="44.25308725921314" lon="10.131873266381325"><ele>419.0</ele><time>2026-04-18T09:56:13Z</time></trkpt><trkpt lat="44.25297622261827" lon="10.131758262303409"><ele>419.0</ele><time>2026-04-18T09:56:14Z</time></trkpt><trkpt lat="44.252879521918345" lon="10.13163318757107"><ele>415.25</ele><time>2026-04-18T09:56:15Z</time></trkpt><trkpt lat="44.252775453663496" lon="10.131529504478442"><ele>411.5</ele><time>2026-04-18T09:56:16Z</time></trkpt><trkpt lat="44.252642631318125" lon="10.131452930515831"><ele>407.75</ele><time>2026-04-18T09:56:17Z</time></trkpt><trkpt lat="44.252504721958175" lon="10.131385962972002"><ele>404.0</ele><time>2026-04-18T09:56:18Z</time></trkpt><trkpt lat="44.25238946724842" lon="10.13126452577272"><ele>408.25</ele><time>2026-04-18T09:56:19Z</time></trkpt><trkpt lat="44.25226522712204" lon="10.131188335024085"><ele>412.5</ele><time>2026-04-18T09:56:20Z</time></trkpt><trkpt lat="44.25214876059008" lon="10.131123678047153"><ele>416.75</ele><time>2026-04-18T09:56:21Z</time></trkpt><trkpt lat="44.25202680879435" lon="10.131061996137637"><ele>421.0</ele><time>2026-04-18T09:56:22Z</time></trkpt><trkpt lat="44.25190970956158" lon="10.130967317278674"><ele>421.0</ele><time>2026-04-18T09:56:23Z</time></trkpt><trkpt lat="44.25180771269447" lon="10.130828706642413"><ele>421.0</ele><time>2026-04-18T09:56:24Z</time></trkpt><trkpt lat="44.25168354238246" lon="10.130719172771078"><ele>421.0</ele><time>2026-04-18T09:56:25Z</time></trkpt><trkpt lat="44.25157283998565" lon="10.13059888766311"><ele>421.0</ele><time>2026-04-18T09:56:26Z</time></trkpt><trkpt lat="44.25146833430868" lon="10.13049065307985"><ele>418.5</ele><time>2026-04-18T09:56:27Z</time></trkpt><trkpt lat="44.251398253555635" lon="10.130343645435314"><ele>416.0</ele><time>2026-04-18T09:56:28Z</time></trkpt><trkpt lat="44.25131265206383" lon="10.13020312363883"><ele>413.5</ele><time>2026-04-18T09:56:29Z</time></trkpt><trkpt lat="44.25123146464003" lon="10.130054529967065"><ele>411.0</ele><time>2026-04-18T09:56:30Z</time></trkpt><trkpt lat="44.251148015693225" lon="10.129921940298523"><ele>403.0</ele><time>2026-04-18T09:56:31Z</time></trkpt><trkpt lat="44.25105049310847" lon="10.129808115212077"><ele>395.0</ele><time>2026-04-18T09:56:32Z</time></trkpt><trkpt lat="44.25094622962823" lon="10.129710035265674"><ele>387.0</ele><time>2026-04-18T09:56:33Z</time></trkpt><trkpt lat="44.25083569635278" lon="10.129615875456434"><ele>379.0</ele><time>2026-04-18T09:56:34Z</time></trkpt><trkpt lat="44.25072896554191" lon="10.129517669545123"><ele>382.25</ele><time>2026-04-18T09:56:35Z</time></trkpt><trkpt lat="44.25062108277616" lon="10.129414595026791"><ele>385.5</ele><time>2026-04-18T09:56:36Z</time></trkpt><trkpt lat="44.250522368161825" lon="10.129297740256819"><ele>388.75</ele><time>2026-04-18T09:56:37Z</time></trkpt><trkpt lat="44.25041736093831" lon="10.129187089352062"><ele>392.0</ele><time>2026-04-18T09:56:38Z</time></trkpt><trkpt lat="44.250308486364204" lon="10.12908549664857"><ele>384.5</ele><time>2026-04-18T09:56:39Z</time></trkpt><trkpt lat="44.25019580379598" lon="10.128988195650798"><ele>377.0</ele><time>2026-04-18T09:56:40Z</time></trkpt><trkpt lat="44.25008456471392" lon="10.12888989752837"><ele>369.5</ele><time>2026-04-18T09:56:41Z</time></trkpt><trkpt lat="44.249972926030445" lon="10.12879880218289"><ele>362.0</ele><time>2026-04-18T09:56:42Z</time></trkpt><trkpt lat="44.24986888878103" lon="10.12871723933476"><ele>362.8</ele><time>2026-04-18T09:56:43Z</time></trkpt><trkpt lat="44.249780217094695" lon="10.128639326043158"><ele>363.6</ele><time>2026-04-18T09:56:44Z</time></trkpt><trkpt lat="44.249697393479465" lon="10.128575507930474"><ele>364.40000000000003</ele><time>2026-04-18T09:56:45Z</time></trkpt><trkpt lat="44.24961601952927" lon="10.12851878895684"><ele>365.20000000000005</ele><time>2026-04-18T09:56:46Z</time></trkpt><trkpt lat="44.249520875903215" lon="10.12847737914093"><ele>366.0</ele><time>2026-04-18T09:56:47Z</time></trkpt><trkpt lat="44.249430265438036" lon="10.128478163274632"><ele>366.0</ele><time>2026-04-18T09:56:48Z</time></trkpt><trkpt lat="44.249337722792646" lon="10.128490245729742"><ele>366.0</ele><time>2026-04-18T09:56:49Z</time></trkpt><trkpt lat="44.2492790948232" lon="10.128529612809436"><ele>366.0</ele><time>2026-04-18T09:56:50Z</time></trkpt><trkpt lat="44.249181570523305" lon="10.128576419258616"><ele>366.0</ele><time>2026-04-18T09:56:51Z</time></trkpt><trkpt lat="44.24909461487909" lon="10.12863260834036"><ele>366.0</ele><time>2026-04-18T09:56:52Z</time></trkpt><trkpt lat="44.249018800325935" lon="10.128682145774063"><ele>366.0</ele><time>2026-04-18T09:56:53Z</time></trkpt><trkpt lat="44.2489574661639" lon="10.128727010200894"><ele>365.0</ele><time>2026-04-18T09:56:54Z</time></trkpt><trkpt lat="44.248864452508336" lon="10.128810531171242"><ele>364.0</ele><time>2026-04-18T09:56:56Z</time></trkpt><trkpt lat="44.248795129644726" lon="10.128927081979677"><ele>363.0</ele><time>2026-04-18T09:56:58Z</time></trkpt><trkpt lat="44.24873156028476" lon="10.129062824031255"><ele>362.0</ele><time>2026-04-18T09:57:00Z</time></trkpt><trkpt lat="44.248674103016675" lon="10.129217658275918"><ele>362.0</ele><time>2026-04-18T09:57:02Z</time></trkpt><trkpt lat="44.24865700213538" lon="10.129306242473751"><ele>362.0</ele><time>2026-04-18T09:57:03Z</time></trkpt><trkpt lat="44.24864446617147" lon="10.129431695773564"><ele>362.0</ele><time>2026-04-18T09:57:04Z</time></trkpt><trkpt lat="44.24863783168832" lon="10.129529921902014"><ele>362.0</ele><time>2026-04-18T09:57:05Z</time></trkpt><trkpt lat="44.24860579126118" lon="10.129638088528791"><ele>362.0</ele><time>2026-04-18T09:57:07Z</time></trkpt><trkpt lat="44.24850346681318" lon="10.129624393401782"><ele>362.0</ele><time>2026-04-18T09:57:09.999Z</time></trkpt><trkpt lat="44.2484068873739" lon="10.129528358828358"><ele>362.0</ele><time>2026-04-18T09:57:11.999Z</time></trkpt><trkpt lat="44.24830185790298" lon="10.12944148176754"><ele>362.0</ele><time>2026-04-18T09:57:13.999Z</time></trkpt><trkpt lat="44.24818959845529" lon="10.129363793527169"><ele>362.0</ele><time>2026-04-18T09:57:15.999Z</time></trkpt><trkpt lat="44.248129661149314" lon="10.129320740573517"><ele>362.0</ele><time>2026-04-18T09:57:16.999Z</time></trkpt><trkpt lat="44.248011783823216" lon="10.129257756896859"><ele>362.0</ele><time>2026-04-18T09:57:18.999Z</time></trkpt><trkpt lat="44.247890169665226" lon="10.129200986834157"><ele>359.8</ele><time>2026-04-18T09:57:20.999Z</time></trkpt><trkpt lat="44.247821724857324" lon="10.129238460731623"><ele>357.6</ele><time>2026-04-18T09:57:21.999Z</time></trkpt><trkpt lat="44.24769830883361" lon="10.129259278972572"><ele>355.40000000000003</ele><time>2026-04-18T09:57:23.999Z</time></trkpt><trkpt lat="44.2475869200174" lon="10.129312943990922"><ele>353.20000000000005</ele><time>2026-04-18T09:57:25.999Z</time></trkpt><trkpt lat="44.24747791364508" lon="10.129326249535985"><ele>351.0</ele><time>2026-04-18T09:57:27.999Z</time></trkpt><trkpt lat="44.24737927803728" lon="10.129353311855205"><ele>350.20000000000005</ele><time>2026-04-18T09:57:29.999Z</time></trkpt><trkpt lat="44.2472858528611" lon="10.12936427381003"><ele>349.40000000000003</ele><time>2026-04-18T09:57:31.999Z</time></trkpt><trkpt lat="44.24720626940433" lon="10.12929015344651"><ele>348.6</ele><time>2026-04-18T09:57:33.999Z</time></trkpt><trkpt lat="44.24715296946131" lon="10.129180181631494"><ele>347.8</ele><time>2026-04-18T09:57:35.999Z</time></trkpt><trkpt lat="44.24708461905517" lon="10.129096046456073"><ele>347.0</ele><time>2026-04-18T09:57:37.999Z</time></trkpt><trkpt lat="44.24695792964268" lon="10.129074003244718"><ele>347.0</ele><time>2026-04-18T09:57:39.999Z</time></trkpt><trkpt lat="44.24687664195821" lon="10.129112814905449"><ele>347.0</ele><time>2026-04-18T09:57:40.999Z</time></trkpt><trkpt lat="44.24679321422957" lon="10.129176531310778"><ele>347.0</ele><time>2026-04-18T09:57:41.999Z</time></trkpt><trkpt lat="44.2467019361152" lon="10.129232480985582"><ele>347.0</ele><time>2026-04-18T09:57:42.999Z</time></trkpt><trkpt lat="44.24662228631687" lon="10.12929520675416"><ele>347.0</ele><time>2026-04-18T09:57:43.999Z</time></trkpt><trkpt lat="44.24655683161902" lon="10.129333604697536"><ele>347.0</ele><time>2026-04-18T09:57:44.999Z</time></trkpt><trkpt lat="44.246490010614465" lon="10.129381003604571"><ele>346.0</ele><time>2026-04-18T09:57:45.999Z</time></trkpt><trkpt lat="44.246410858795166" lon="10.12946645382052"><ele>345.0</ele><time>2026-04-18T09:57:47.999Z</time></trkpt><trkpt lat="44.24630268796287" lon="10.129536669650227"><ele>344.0</ele><time>2026-04-18T09:57:49.999Z</time></trkpt><trkpt lat="44.246226486148764" lon="10.1295738340286"><ele>343.0</ele><time>2026-04-18T09:57:50.999Z</time></trkpt><trkpt lat="44.24613311062887" lon="10.129610153140895"><ele>342.0</ele><time>2026-04-18T09:57:51.999Z</time></trkpt><trkpt lat="44.24604560340595" lon="10.129642339714401"><ele>342.0</ele><time>2026-04-18T09:57:52.999Z</time></trkpt><trkpt lat="44.24595467763557" lon="10.129675124796826"><ele>342.0</ele><time>2026-04-18T09:57:53.999Z</time></trkpt><trkpt lat="44.245866666170734" lon="10.129701382795478"><ele>342.0</ele><time>2026-04-18T09:57:54.999Z</time></trkpt><trkpt lat="44.24578344660529" lon="10.129742393664115"><ele>342.0</ele><time>2026-04-18T09:57:55.999Z</time></trkpt><trkpt lat="44.245694255566015" lon="10.129748963782067"><ele>342.0</ele><time>2026-04-18T09:57:56.999Z</time></trkpt><trkpt lat="44.24560611863666" lon="10.129747357541037"><ele>340.71428571428567</ele><time>2026-04-18T09:57:57.999Z</time></trkpt><trkpt lat="44.24552633187097" lon="10.12973500018177"><ele>339.42857142857144</ele><time>2026-04-18T09:57:58.999Z</time></trkpt><trkpt lat="44.24545761116261" lon="10.129717088800717"><ele>338.1428571428571</ele><time>2026-04-18T09:57:59.999Z</time></trkpt><trkpt lat="44.245390641213405" lon="10.129700195752287"><ele>336.85714285714283</ele><time>2026-04-18T09:58:00.999Z</time></trkpt><trkpt lat="44.24532525363156" lon="10.129683590461994"><ele>335.57142857142856</ele><time>2026-04-18T09:58:01.999Z</time></trkpt><trkpt lat="44.24524892053879" lon="10.129668616486548"><ele>334.2857142857143</ele><time>2026-04-18T09:58:02.999Z</time></trkpt><trkpt lat="44.24516672626807" lon="10.129652592521479"><ele>333.0</ele><time>2026-04-18T09:58:03.999Z</time></trkpt><trkpt lat="44.2450780835358" lon="10.12962837409185"><ele>333.0</ele><time>2026-04-18T09:58:04.999Z</time></trkpt><trkpt lat="44.24499627643941" lon="10.129598880166942"><ele>333.0</ele><time>2026-04-18T09:58:05.999Z</time></trkpt><trkpt lat="44.244917154382605" lon="10.129587219143778"><ele>333.0</ele><time>2026-04-18T09:58:06.999Z</time></trkpt><trkpt lat="44.24485110006298" lon="10.129603538877097"><ele>333.0</ele><time>2026-04-18T09:58:08Z</time></trkpt><trkpt lat="44.24479035298631" lon="10.129642646314062"><ele>333.0</ele><time>2026-04-18T09:58:09Z</time></trkpt><trkpt lat="44.24474846177085" lon="10.129747689335643"><ele>333.0</ele><time>2026-04-18T09:58:10Z</time></trkpt><trkpt lat="44.24469987309997" lon="10.129876294030716"><ele>328.4</ele><time>2026-04-18T09:58:11Z</time></trkpt><trkpt lat="44.244651639022614" lon="10.129999269313222"><ele>323.79999999999995</ele><time>2026-04-18T09:58:12Z</time></trkpt><trkpt lat="44.24459823783802" lon="10.130125028357607"><ele>319.2</ele><time>2026-04-18T09:58:13Z</time></trkpt><trkpt lat="44.244545887946686" lon="10.130253827178752"><ele>314.6</ele><time>2026-04-18T09:58:14Z</time></trkpt><trkpt lat="44.24448937655779" lon="10.130392864415471"><ele>310.0</ele><time>2026-04-18T09:58:15Z</time></trkpt><trkpt lat="44.24443425523197" lon="10.130524433999565"><ele>310.0</ele><time>2026-04-18T09:58:16Z</time></trkpt><trkpt lat="44.24437926229645" lon="10.130647648619604"><ele>310.0</ele><time>2026-04-18T09:58:17Z</time></trkpt><trkpt lat="44.244316370769376" lon="10.130753144430619"><ele>310.0</ele><time>2026-04-18T09:58:18Z</time></trkpt><trkpt lat="44.24423861591356" lon="10.130834423271134"><ele>310.0</ele><time>2026-04-18T09:58:19Z</time></trkpt><trkpt lat="44.24416195857235" lon="10.130888029309187"><ele>310.0</ele><time>2026-04-18T09:58:20Z</time></trkpt><trkpt lat="44.24409832884224" lon="10.130948938891404"><ele>311.0</ele><time>2026-04-18T09:58:21Z</time></trkpt><trkpt lat="44.24406138076017" lon="10.131042333446226"><ele>312.0</ele><time>2026-04-18T09:58:22Z</time></trkpt><trkpt lat="44.24404663345802" lon="10.131170272653868"><ele>313.0</ele><time>2026-04-18T09:58:23Z</time></trkpt><trkpt lat="44.244032586799435" lon="10.131306524881856"><ele>314.0</ele><time>2026-04-18T09:58:24Z</time></trkpt><trkpt lat="44.24400334905624" lon="10.131442859031662"><ele>315.0</ele><time>2026-04-18T09:58:25Z</time></trkpt><trkpt lat="44.243957451572314" lon="10.131566411741362"><ele>315.0</ele><time>2026-04-18T09:58:26Z</time></trkpt><trkpt lat="44.243905122341964" lon="10.131672910809863"><ele>315.0</ele><time>2026-04-18T09:58:27Z</time></trkpt><trkpt lat="44.24384256416493" lon="10.131764682057701"><ele>315.0</ele><time>2026-04-18T09:58:28Z</time></trkpt><trkpt lat="44.243770901707364" lon="10.131831164315479"><ele>315.0</ele><time>2026-04-18T09:58:29Z</time></trkpt><trkpt lat="44.24368746724726" lon="10.131900495708894"><ele>315.0</ele><time>2026-04-18T09:58:30Z</time></trkpt><trkpt lat="44.24361329039079" lon="10.131968789345803"><ele>315.0</ele><time>2026-04-18T09:58:31Z</time></trkpt><trkpt lat="44.2435552304651" lon="10.132032168472405"><ele>315.0</ele><time>2026-04-18T09:58:32Z</time></trkpt><trkpt lat="44.24351524332968" lon="10.13220364889852"><ele>315.0</ele><time>2026-04-18T09:58:34Z</time></trkpt><trkpt lat="44.24356085462881" lon="10.132336503742028"><ele>315.0</ele><time>2026-04-18T09:58:35Z</time></trkpt><trkpt lat="44.24358410097572" lon="10.132472906480244"><ele>315.0</ele><time>2026-04-18T09:58:36Z</time></trkpt><trkpt lat="44.24360681669631" lon="10.132606193567222"><ele>315.5</ele><time>2026-04-18T09:58:37Z</time></trkpt><trkpt lat="44.24362899555909" lon="10.13273633178269"><ele>316.0</ele><time>2026-04-18T09:58:38Z</time></trkpt><trkpt lat="44.243649155114035" lon="10.132855078162612"><ele>316.5</ele><time>2026-04-18T09:58:39Z</time></trkpt><trkpt lat="44.2436652955786" lon="10.132941585466885"><ele>317.0</ele><time>2026-04-18T09:58:40Z</time></trkpt><trkpt lat="44.243672977198976" lon="10.1330562245989"><ele>317.5</ele><time>2026-04-18T09:58:43Z</time></trkpt><trkpt lat="44.24358710824856" lon="10.13302333807345"><ele>318.0</ele><time>2026-04-18T09:58:47Z</time></trkpt><trkpt lat="44.243591592545926" lon="10.132920861822367"><ele>318.0</ele><time>2026-04-18T09:58:48Z</time></trkpt><trkpt lat="44.24356783556282" lon="10.132771851636818"><ele>318.0</ele><time>2026-04-18T09:58:49Z</time></trkpt><trkpt lat="44.24353987150726" lon="10.132636570008232"><ele>318.0</ele><time>2026-04-18T09:58:50Z</time></trkpt><trkpt lat="44.24350225862319" lon="10.132479822425678"><ele>318.0</ele><time>2026-04-18T09:58:51Z</time></trkpt><trkpt lat="44.243450891833575" lon="10.132334657316356"><ele>318.0</ele><time>2026-04-18T09:58:52Z</time></trkpt><trkpt lat="44.24338564901594" lon="10.132203206756758"><ele>317.5</ele><time>2026-04-18T09:58:53Z</time></trkpt><trkpt lat="44.243337580458984" lon="10.13207648677409"><ele>317.0</ele><time>2026-04-18T09:58:54Z</time></trkpt><trkpt lat="44.24328458584316" lon="10.13197501122073"><ele>316.5</ele><time>2026-04-18T09:58:55Z</time></trkpt><trkpt lat="44.24327429101578" lon="10.13186721734198"><ele>316.0</ele><time>2026-04-18T09:58:56Z</time></trkpt><trkpt lat="44.24330293640732" lon="10.13178439794216"><ele>315.5</ele><time>2026-04-18T09:58:57Z</time></trkpt><trkpt lat="44.24336287844353" lon="10.13172112227101"><ele>315.0</ele><time>2026-04-18T09:58:58Z</time></trkpt><trkpt lat="44.24343914298267" lon="10.131648076404982"><ele>315.0</ele><time>2026-04-18T09:58:59Z</time></trkpt><trkpt lat="44.243479698821055" lon="10.13155903497691"><ele>315.0</ele><time>2026-04-18T09:59:00Z</time></trkpt><trkpt lat="44.24341788970005" lon="10.131393935912149"><ele>315.0</ele><time>2026-04-18T09:59:02Z</time></trkpt><trkpt lat="44.24332759842037" lon="10.1313314075053"><ele>315.0</ele><time>2026-04-18T09:59:03Z</time></trkpt><trkpt lat="44.243239167912456" lon="10.131254657547212"><ele>315.0</ele><time>2026-04-18T09:59:04Z</time></trkpt><trkpt lat="44.24319182101858" lon="10.131178934870096"><ele>314.8</ele><time>2026-04-18T09:59:05Z</time></trkpt><trkpt lat="44.243167694146685" lon="10.131034904259442"><ele>314.6</ele><time>2026-04-18T09:59:07Z</time></trkpt><trkpt lat="44.24323037336568" lon="10.130956639016796"><ele>314.4</ele><time>2026-04-18T09:59:08Z</time></trkpt><trkpt lat="44.243273498396306" lon="10.130817677129937"><ele>314.2</ele><time>2026-04-18T09:59:09Z</time></trkpt><trkpt lat="44.2433356689242" lon="10.130672790937037"><ele>314.0</ele><time>2026-04-18T09:59:10Z</time></trkpt><trkpt lat="44.243400271884255" lon="10.130525891375393"><ele>314.2</ele><time>2026-04-18T09:59:11Z</time></trkpt><trkpt lat="44.24346734552517" lon="10.13037883378753"><ele>314.4</ele><time>2026-04-18T09:59:12Z</time></trkpt><trkpt lat="44.24352097277689" lon="10.130253865335195"><ele>314.6</ele><time>2026-04-18T09:59:13Z</time></trkpt><trkpt lat="44.24354486818638" lon="10.13012834933139"><ele>314.8</ele><time>2026-04-18T09:59:14Z</time></trkpt><trkpt lat="44.243528587371024" lon="10.130004864030509"><ele>315.0</ele><time>2026-04-18T09:59:15Z</time></trkpt><trkpt lat="44.24347046059549" lon="10.129884794671627"><ele>315.0</ele><time>2026-04-18T09:59:16Z</time></trkpt><trkpt lat="44.243380566328334" lon="10.12979433841843"><ele>315.0</ele><time>2026-04-18T09:59:17Z</time></trkpt><trkpt lat="44.24328402795866" lon="10.129720155890098"><ele>315.0</ele><time>2026-04-18T09:59:18Z</time></trkpt><trkpt lat="44.2432268953361" lon="10.12959474480383"><ele>315.0</ele><time>2026-04-18T09:59:19Z</time></trkpt><trkpt lat="44.24319545429229" lon="10.129435501086437"><ele>315.0</ele><time>2026-04-18T09:59:20Z</time></trkpt><trkpt lat="44.24320063867828" lon="10.129250964312934"><ele>315.0</ele><time>2026-04-18T09:59:20.999Z</time></trkpt><trkpt lat="44.24318262076004" lon="10.129063020632355"><ele>315.0</ele><time>2026-04-18T09:59:21.999Z</time></trkpt><trkpt lat="44.2431666712636" lon="10.128870402421288"><ele>315.0</ele><time>2026-04-18T09:59:22.999Z</time></trkpt><trkpt lat="44.24314420672977" lon="10.128686900827498"><ele>315.0</ele><time>2026-04-18T09:59:23.999Z</time></trkpt><trkpt lat="44.243135884821946" lon="10.12850573733931"><ele>321.5</ele><time>2026-04-18T09:59:24.999Z</time></trkpt><trkpt lat="44.24312393072029" lon="10.12832484663307"><ele>328.0</ele><time>2026-04-18T09:59:25.999Z</time></trkpt><trkpt lat="44.243108476204696" lon="10.128139876129474"><ele>334.5</ele><time>2026-04-18T09:59:26.999Z</time></trkpt><trkpt lat="44.24309046570221" lon="10.127965671576078"><ele>341.0</ele><time>2026-04-18T09:59:27.999Z</time></trkpt><trkpt lat="44.2430757852217" lon="10.12781044484433"><ele>341.0</ele><time>2026-04-18T09:59:28.999Z</time></trkpt><trkpt lat="44.24305523339398" lon="10.127674342221471"><ele>341.0</ele><time>2026-04-18T09:59:29.999Z</time></trkpt><trkpt lat="44.243027305320126" lon="10.127559324211981"><ele>341.0</ele><time>2026-04-18T09:59:30.999Z</time></trkpt><trkpt lat="44.24297341467874" lon="10.127445833328"><ele>341.0</ele><time>2026-04-18T09:59:31.999Z</time></trkpt><trkpt lat="44.242878466761056" lon="10.127349203432466"><ele>341.0</ele><time>2026-04-18T09:59:32.999Z</time></trkpt><trkpt lat="44.24276170683999" lon="10.12726026769309"><ele>333.25</ele><time>2026-04-18T09:59:33.999Z</time></trkpt><trkpt lat="44.24264191141748" lon="10.12716325090763"><ele>325.5</ele><time>2026-04-18T09:59:34.999Z</time></trkpt><trkpt lat="44.24253382509334" lon="10.127042812943861"><ele>317.75</ele><time>2026-04-18T09:59:35.999Z</time></trkpt><trkpt lat="44.24242864950913" lon="10.126925702767023"><ele>310.0</ele><time>2026-04-18T09:59:36.999Z</time></trkpt><trkpt lat="44.242315860677834" lon="10.126827427476332"><ele>311.75</ele><time>2026-04-18T09:59:37.999Z</time></trkpt><trkpt lat="44.24218643488938" lon="10.126773007897159"><ele>313.5</ele><time>2026-04-18T09:59:38.999Z</time></trkpt><trkpt lat="44.24205107219117" lon="10.126719152659312"><ele>315.25</ele><time>2026-04-18T09:59:39.999Z</time></trkpt><trkpt lat="44.24192578945422" lon="10.1266288915678"><ele>317.0</ele><time>2026-04-18T09:59:40.999Z</time></trkpt><trkpt lat="44.241816948608445" lon="10.126507896773917"><ele>317.0</ele><time>2026-04-18T09:59:41.999Z</time></trkpt><trkpt lat="44.24173201774852" lon="10.126372943293774"><ele>317.0</ele><time>2026-04-18T09:59:42.999Z</time></trkpt><trkpt lat="44.24165181321273" lon="10.126243756358"><ele>317.0</ele><time>2026-04-18T09:59:43.999Z</time></trkpt><trkpt lat="44.24157554699489" lon="10.126111104896497"><ele>317.0</ele><time>2026-04-18T09:59:44.999Z</time></trkpt><trkpt lat="44.24150753269225" lon="10.125962075760928"><ele>317.0</ele><time>2026-04-18T09:59:45.999Z</time></trkpt><trkpt lat="44.241452364654336" lon="10.125816193033936"><ele>317.0</ele><time>2026-04-18T09:59:46.999Z</time></trkpt><trkpt lat="44.24139995204132" lon="10.125685043735894"><ele>317.0</ele><time>2026-04-18T09:59:47.999Z</time></trkpt><trkpt lat="44.2413404661736" lon="10.125584455048179"><ele>317.0</ele><time>2026-04-18T09:59:48.999Z</time></trkpt><trkpt lat="44.2412778311182" lon="10.125514930876562"><ele>317.0</ele><time>2026-04-18T09:59:49.999Z</time></trkpt><trkpt lat="44.24122437688716" lon="10.125468431123139"><ele>317.0</ele><time>2026-04-18T09:59:50.999Z</time></trkpt><trkpt lat="44.24110687133542" lon="10.12545984595758"><ele>317.0</ele><time>2026-04-18T09:59:52.999Z</time></trkpt><trkpt lat="44.241032150723285" lon="10.125449939375969"><ele>317.0</ele><time>2026-04-18T09:59:53.999Z</time></trkpt><trkpt lat="44.240953992102064" lon="10.125442059151116"><ele>317.0</ele><time>2026-04-18T09:59:54.999Z</time></trkpt><trkpt lat="44.240861859768" lon="10.125434971102537"><ele>317.0</ele><time>2026-04-18T09:59:55.999Z</time></trkpt><trkpt lat="44.24077366682619" lon="10.125353901252225"><ele>317.0</ele><time>2026-04-18T09:59:56.999Z</time></trkpt><trkpt lat="44.240670850972506" lon="10.125294036700126"><ele>317.0</ele><time>2026-04-18T09:59:57.999Z</time></trkpt><trkpt lat="44.24057406636387" lon="10.125219237813997"><ele>317.0</ele><time>2026-04-18T09:59:58.999Z</time></trkpt><trkpt lat="44.240478027584025" lon="10.125157677736984"><ele>317.0</ele><time>2026-04-18T09:59:59.999Z</time></trkpt><trkpt lat="44.24037396463864" lon="10.125115520423076"><ele>317.0</ele><time>2026-04-18T10:00:00.999Z</time></trkpt><trkpt lat="44.2402680543294" lon="10.125089385390318"><ele>315.4</ele><time>2026-04-18T10:00:01.999Z</time></trkpt><trkpt lat="44.2401645361596" lon="10.125068160147725"><ele>313.79999999999995</ele><time>2026-04-18T10:00:02.999Z</time></trkpt><trkpt lat="44.240067482698386" lon="10.125042024195771"><ele>312.2</ele><time>2026-04-18T10:00:03.999Z</time></trkpt><trkpt lat="44.2399878984071" lon="10.125012572932944"><ele>310.59999999999997</ele><time>2026-04-18T10:00:04.999Z</time></trkpt><trkpt lat="44.239922686699614" lon="10.12494629071374"><ele>309.0</ele><time>2026-04-18T10:00:05.999Z</time></trkpt><trkpt lat="44.23986321311774" lon="10.124846610038091"><ele>309.0</ele><time>2026-04-18T10:00:06.999Z</time></trkpt><trkpt lat="44.239808890818836" lon="10.124725843921013"><ele>309.0</ele><time>2026-04-18T10:00:07.999Z</time></trkpt><trkpt lat="44.23974968931227" lon="10.124606799832598"><ele>309.0</ele><time>2026-04-18T10:00:08.999Z</time></trkpt><trkpt lat="44.23968165740313" lon="10.124495718322752"><ele>309.0</ele><time>2026-04-18T10:00:09.999Z</time></trkpt><trkpt lat="44.239612456167926" lon="10.124396277918647"><ele>309.0</ele><time>2026-04-18T10:00:10.999Z</time></trkpt><trkpt lat="44.239538772455795" lon="10.124296125201202"><ele>310.5</ele><time>2026-04-18T10:00:11.999Z</time></trkpt><trkpt lat="44.23946697498847" lon="10.124204403075698"><ele>312.0</ele><time>2026-04-18T10:00:12.999Z</time></trkpt><trkpt lat="44.239402652221806" lon="10.124128593065956"><ele>313.5</ele><time>2026-04-18T10:00:14Z</time></trkpt><trkpt lat="44.239347876171976" lon="10.124064049977076"><ele>315.0</ele><time>2026-04-18T10:00:15Z</time></trkpt><trkpt lat="44.23928642838999" lon="10.124007861933896"><ele>316.5</ele><time>2026-04-18T10:00:17Z</time></trkpt><trkpt lat="44.23919847672854" lon="10.124043383997568"><ele>318.0</ele><time>2026-04-18T10:00:20Z</time></trkpt><trkpt lat="44.23910982327668" lon="10.124174276560778"><ele>319.7142857142857</ele><time>2026-04-18T10:00:22Z</time></trkpt><trkpt lat="44.23907232809377" lon="10.124256188729419"><ele>321.42857142857144</ele><time>2026-04-18T10:00:23Z</time></trkpt><trkpt lat="44.23903567079298" lon="10.124340289967149"><ele>323.14285714285717</ele><time>2026-04-18T10:00:24Z</time></trkpt><trkpt lat="44.238998635348985" lon="10.124425259212915"><ele>324.8571428571429</ele><time>2026-04-18T10:00:25Z</time></trkpt><trkpt lat="44.23896164635373" lon="10.124505350168686"><ele>326.57142857142856</ele><time>2026-04-18T10:00:26Z</time></trkpt><trkpt lat="44.238921932444235" lon="10.124591361068166"><ele>328.28571428571433</ele><time>2026-04-18T10:00:27Z</time></trkpt><trkpt lat="44.2388806723555" lon="10.124679639304864"><ele>330.0</ele><time>2026-04-18T10:00:28Z</time></trkpt><trkpt lat="44.238851635785494" lon="10.124782605857373"><ele>330.0</ele><time>2026-04-18T10:00:29Z</time></trkpt><trkpt lat="44.23881049728769" lon="10.12485917121793"><ele>330.0</ele><time>2026-04-18T10:00:30Z</time></trkpt><trkpt lat="44.238752082221566" lon="10.124970892822118"><ele>330.0</ele><time>2026-04-18T10:00:32Z</time></trkpt><trkpt lat="44.23872306553763" lon="10.12504908249904"><ele>330.0</ele><time>2026-04-18T10:00:34Z</time></trkpt><trkpt lat="44.23866070546153" lon="10.125114018849601"><ele>330.0</ele><time>2026-04-18T10:00:45Z</time></trkpt><trkpt lat="44.23861938921947" lon="10.125221796974822"><ele>330.0</ele><time>2026-04-18T10:00:47Z</time></trkpt><trkpt lat="44.23856883523674" lon="10.12534282596155"><ele>330.6</ele><time>2026-04-18T10:00:49Z</time></trkpt><trkpt lat="44.238500899877" lon="10.12548104798024"><ele>331.2</ele><time>2026-04-18T10:00:51Z</time></trkpt><trkpt lat="44.23843432849759" lon="10.125608755655655"><ele>331.79999999999995</ele><time>2026-04-18T10:00:53Z</time></trkpt><trkpt lat="44.23840493792554" lon="10.125722411453294"><ele>332.4</ele><time>2026-04-18T10:00:55Z</time></trkpt><trkpt lat="44.23834860895779" lon="10.12586447899473"><ele>333.0</ele><time>2026-04-18T10:00:57Z</time></trkpt><trkpt lat="44.238314796589265" lon="10.125941925731746"><ele>333.4</ele><time>2026-04-18T10:00:58Z</time></trkpt><trkpt lat="44.23824855013596" lon="10.126078643350576"><ele>333.79999999999995</ele><time>2026-04-18T10:01:00Z</time></trkpt><trkpt lat="44.23818462624094" lon="10.126215802198056"><ele>334.2</ele><time>2026-04-18T10:01:02Z</time></trkpt><trkpt lat="44.238130810484094" lon="10.126330652804697"><ele>334.6</ele><time>2026-04-18T10:01:04Z</time></trkpt><trkpt lat="44.2380937235934" lon="10.126416619527754"><ele>335.0</ele><time>2026-04-18T10:01:06Z</time></trkpt><trkpt lat="44.23804040502793" lon="10.126526772460762"><ele>336.0</ele><time>2026-04-18T10:01:09Z</time></trkpt><trkpt lat="44.23790960852974" lon="10.12678816255703"><ele>337.0</ele><time>2026-04-18T10:01:11Z</time></trkpt><trkpt lat="44.23787602391075" lon="10.126884221728325"><ele>338.0</ele><time>2026-04-18T10:01:14Z</time></trkpt><trkpt lat="44.237825135848425" lon="10.126980395150246"><ele>339.0</ele><time>2026-04-18T10:01:23Z</time></trkpt><trkpt lat="44.23792552295855" lon="10.127183992554995"><ele>339.0</ele><time>2026-04-18T10:01:25Z</time></trkpt><trkpt lat="44.237988337994615" lon="10.127281100223364"><ele>339.0</ele><time>2026-04-18T10:01:26Z</time></trkpt><trkpt lat="44.23805601078726" lon="10.127396423515803"><ele>339.0</ele><time>2026-04-18T10:01:27Z</time></trkpt><trkpt lat="44.23812766767188" lon="10.127532082729909"><ele>339.0</ele><time>2026-04-18T10:01:27.999Z</time></trkpt><trkpt lat="44.23820904662486" lon="10.127672399360375"><ele>338.25</ele><time>2026-04-18T10:01:28.999Z</time></trkpt><trkpt lat="44.23829592313792" lon="10.127816293916808"><ele>337.5</ele><time>2026-04-18T10:01:29.999Z</time></trkpt><trkpt lat="44.23837596604205" lon="10.127958284110488"><ele>336.75</ele><time>2026-04-18T10:01:30.999Z</time></trkpt><trkpt lat="44.23845006104137" lon="10.128084914029097"><ele>336.0</ele><time>2026-04-18T10:01:31.999Z</time></trkpt><trkpt lat="44.23851137693658" lon="10.128210929326926"><ele>338.25</ele><time>2026-04-18T10:01:32.999Z</time></trkpt><trkpt lat="44.23857979257957" lon="10.128343940602608"><ele>340.5</ele><time>2026-04-18T10:01:33.999Z</time></trkpt><trkpt lat="44.23866162598354" lon="10.128492622575369"><ele>342.75</ele><time>2026-04-18T10:01:34.999Z</time></trkpt><trkpt lat="44.23875413300925" lon="10.128657988138212"><ele>345.0</ele><time>2026-04-18T10:01:35.999Z</time></trkpt><trkpt lat="44.23884353051443" lon="10.128813496940342"><ele>345.0</ele><time>2026-04-18T10:01:36.999Z</time></trkpt><trkpt lat="44.23893288293247" lon="10.128962005783176"><ele>345.0</ele><time>2026-04-18T10:01:37.999Z</time></trkpt><trkpt lat="44.23902610798908" lon="10.129104054799988"><ele>345.0</ele><time>2026-04-18T10:01:38.999Z</time></trkpt><trkpt lat="44.23913939188285" lon="10.12924762362619"><ele>345.0</ele><time>2026-04-18T10:01:39.999Z</time></trkpt><trkpt lat="44.2392742903576" lon="10.12938146736579"><ele>347.0</ele><time>2026-04-18T10:01:40.999Z</time></trkpt><trkpt lat="44.239426213585546" lon="10.129494974562167"><ele>349.0</ele><time>2026-04-18T10:01:41.999Z</time></trkpt><trkpt lat="44.23958029383881" lon="10.12958236617791"><ele>351.0</ele><time>2026-04-18T10:01:42.999Z</time></trkpt><trkpt lat="44.239730779564404" lon="10.129621772165107"><ele>350.3333333333333</ele><time>2026-04-18T10:01:43.999Z</time></trkpt><trkpt lat="44.239879862208504" lon="10.129641023271208"><ele>349.66666666666663</ele><time>2026-04-18T10:01:44.999Z</time></trkpt><trkpt lat="44.24003149848916" lon="10.12964331123573"><ele>349.0</ele><time>2026-04-18T10:01:45.999Z</time></trkpt><trkpt lat="44.24019017675025" lon="10.129623791751072"><ele>349.0</ele><time>2026-04-18T10:01:46.999Z</time></trkpt><trkpt lat="44.24034379561951" lon="10.12959911657911"><ele>349.0</ele><time>2026-04-18T10:01:47.999Z</time></trkpt><trkpt lat="44.24048599401547" lon="10.129581281574039"><ele>349.0</ele><time>2026-04-18T10:01:48.999Z</time></trkpt><trkpt lat="44.24061636131567" lon="10.129565062441957"><ele>349.0</ele><time>2026-04-18T10:01:49.999Z</time></trkpt><trkpt lat="44.24074085395667" lon="10.12955847545959"><ele>350.0</ele><time>2026-04-18T10:01:50.999Z</time></trkpt><trkpt lat="44.24087357136119" lon="10.129573643686381"><ele>351.0</ele><time>2026-04-18T10:01:51.999Z</time></trkpt><trkpt lat="44.24100775781847" lon="10.129629131417058"><ele>352.0</ele><time>2026-04-18T10:01:52.999Z</time></trkpt><trkpt lat="44.24113213778478" lon="10.129724048626105"><ele>353.0</ele><time>2026-04-18T10:01:53.999Z</time></trkpt><trkpt lat="44.24124778647952" lon="10.129849932439498"><ele>353.6666666666667</ele><time>2026-04-18T10:01:54.999Z</time></trkpt><trkpt lat="44.24135077530321" lon="10.130000293789017"><ele>354.3333333333333</ele><time>2026-04-18T10:01:55.999Z</time></trkpt><trkpt lat="44.2414352852148" lon="10.13017109081596"><ele>355.0</ele><time>2026-04-18T10:01:56.999Z</time></trkpt><trkpt lat="44.241518073200744" lon="10.130357067008854"><ele>356.3333333333333</ele><time>2026-04-18T10:01:57.999Z</time></trkpt><trkpt lat="44.24160659188083" lon="10.130538960351725"><ele>357.6666666666667</ele><time>2026-04-18T10:01:58.999Z</time></trkpt><trkpt lat="44.241700413370005" lon="10.13070965405012"><ele>359.0</ele><time>2026-04-18T10:01:59.999Z</time></trkpt><trkpt lat="44.24179751458608" lon="10.130891365140197"><ele>359.0</ele><time>2026-04-18T10:02:00.999Z</time></trkpt><trkpt lat="44.24188735372905" lon="10.131059223345355"><ele>359.0</ele><time>2026-04-18T10:02:01.999Z</time></trkpt><trkpt lat="44.24197198636897" lon="10.131210045069443"><ele>359.0</ele><time>2026-04-18T10:02:02.999Z</time></trkpt><trkpt lat="44.24204040485753" lon="10.131366596073555"><ele>359.0</ele><time>2026-04-18T10:02:03.999Z</time></trkpt><trkpt lat="44.242094470244055" lon="10.13155285887577"><ele>360.0</ele><time>2026-04-18T10:02:04.999Z</time></trkpt><trkpt lat="44.242141417634585" lon="10.131770495728453"><ele>361.0</ele><time>2026-04-18T10:02:05.999Z</time></trkpt><trkpt lat="44.242179705745414" lon="10.132017393589875"><ele>362.0</ele><time>2026-04-18T10:02:06.999Z</time></trkpt><trkpt lat="44.2422030593393" lon="10.132263037206346"><ele>365.6666666666667</ele><time>2026-04-18T10:02:07.999Z</time></trkpt><trkpt lat="44.24222608916878" lon="10.132498724198207"><ele>369.3333333333333</ele><time>2026-04-18T10:02:08.999Z</time></trkpt><trkpt lat="44.24225059688724" lon="10.132733376968929"><ele>373.0</ele><time>2026-04-18T10:02:09.999Z</time></trkpt><trkpt lat="44.24225519553007" lon="10.1329723389106"><ele>373.0</ele><time>2026-04-18T10:02:10.999Z</time></trkpt><trkpt lat="44.24225235581696" lon="10.13321657602431"><ele>373.0</ele><time>2026-04-18T10:02:11.999Z</time></trkpt><trkpt lat="44.242246255452045" lon="10.133470764675096"><ele>373.0</ele><time>2026-04-18T10:02:12.999Z</time></trkpt><trkpt lat="44.24223938280056" lon="10.133710127830028"><ele>379.3333333333333</ele><time>2026-04-18T10:02:13.999Z</time></trkpt><trkpt lat="44.2422489077113" lon="10.133942535648156"><ele>385.66666666666663</ele><time>2026-04-18T10:02:14.999Z</time></trkpt><trkpt lat="44.24221558158029" lon="10.134156589822402"><ele>392.0</ele><time>2026-04-18T10:02:15.999Z</time></trkpt><trkpt lat="44.24216751088499" lon="10.134363788629738"><ele>395.0</ele><time>2026-04-18T10:02:16.999Z</time></trkpt><trkpt lat="44.24209384763211" lon="10.134582652863026"><ele>398.0</ele><time>2026-04-18T10:02:17.999Z</time></trkpt><trkpt lat="44.24204810597268" lon="10.13480339354101"><ele>401.0</ele><time>2026-04-18T10:02:18.999Z</time></trkpt><trkpt lat="44.24202378067342" lon="10.135028446408775"><ele>401.0</ele><time>2026-04-18T10:02:20Z</time></trkpt><trkpt lat="44.24204683100919" lon="10.135273421573588"><ele>401.0</ele><time>2026-04-18T10:02:21Z</time></trkpt><trkpt lat="44.24206611008613" lon="10.135533717199252"><ele>401.0</ele><time>2026-04-18T10:02:22Z</time></trkpt><trkpt lat="44.24206750942788" lon="10.135780845302552"><ele>401.0</ele><time>2026-04-18T10:02:23Z</time></trkpt><trkpt lat="44.24206409097264" lon="10.13603236506818"><ele>401.0</ele><time>2026-04-18T10:02:24Z</time></trkpt><trkpt lat="44.24205633961592" lon="10.136288499016562"><ele>401.0</ele><time>2026-04-18T10:02:25Z</time></trkpt><trkpt lat="44.24204547074318" lon="10.13653444241429"><ele>399.25</ele><time>2026-04-18T10:02:26Z</time></trkpt><trkpt lat="44.24203120145285" lon="10.136756707793865"><ele>397.5</ele><time>2026-04-18T10:02:27Z</time></trkpt><trkpt lat="44.24202622667883" lon="10.136952367291098"><ele>395.75</ele><time>2026-04-18T10:02:28Z</time></trkpt><trkpt lat="44.24202695993566" lon="10.137112176733364"><ele>394.0</ele><time>2026-04-18T10:02:29Z</time></trkpt><trkpt lat="44.24205741972078" lon="10.137250566843313"><ele>394.0</ele><time>2026-04-18T10:02:30Z</time></trkpt><trkpt lat="44.24212273219755" lon="10.137383756143203"><ele>394.0</ele><time>2026-04-18T10:02:31Z</time></trkpt><trkpt lat="44.24222431868752" lon="10.137490160214202"><ele>394.0</ele><time>2026-04-18T10:02:32Z</time></trkpt><trkpt lat="44.242362808782445" lon="10.137540937075975"><ele>394.0</ele><time>2026-04-18T10:02:33Z</time></trkpt><trkpt lat="44.242508304661726" lon="10.137537277263093"><ele>387.2</ele><time>2026-04-18T10:02:34Z</time></trkpt><trkpt lat="44.24261956273794" lon="10.13759877096333"><ele>380.4</ele><time>2026-04-18T10:02:35Z</time></trkpt><trkpt lat="44.24269193893271" lon="10.13769606773394"><ele>373.6</ele><time>2026-04-18T10:02:36Z</time></trkpt><trkpt lat="44.2427383227569" lon="10.137832910779062"><ele>366.8</ele><time>2026-04-18T10:02:37Z</time></trkpt><trkpt lat="44.242757066658925" lon="10.137984171877564"><ele>360.0</ele><time>2026-04-18T10:02:38Z</time></trkpt><trkpt lat="44.24275096558518" lon="10.138145930449086"><ele>362.0</ele><time>2026-04-18T10:02:39Z</time></trkpt><trkpt lat="44.24274119573936" lon="10.138337443972393"><ele>364.0</ele><time>2026-04-18T10:02:40Z</time></trkpt><trkpt lat="44.24274042817124" lon="10.13853425697121"><ele>366.0</ele><time>2026-04-18T10:02:41Z</time></trkpt><trkpt lat="44.24272332565127" lon="10.138728091436088"><ele>368.0</ele><time>2026-04-18T10:02:42Z</time></trkpt><trkpt lat="44.24270399999197" lon="10.138920009558706"><ele>369.0</ele><time>2026-04-18T10:02:43Z</time></trkpt><trkpt lat="44.24267776043696" lon="10.139129223839333"><ele>370.0</ele><time>2026-04-18T10:02:44Z</time></trkpt><trkpt lat="44.24265341819608" lon="10.13934627056557"><ele>371.0</ele><time>2026-04-18T10:02:45Z</time></trkpt><trkpt lat="44.24262473291822" lon="10.139566162752908"><ele>371.0</ele><time>2026-04-18T10:02:46Z</time></trkpt><trkpt lat="44.2425948106915" lon="10.139782281247015"><ele>371.0</ele><time>2026-04-18T10:02:47Z</time></trkpt><trkpt lat="44.24256388866957" lon="10.139998483433207"><ele>371.0</ele><time>2026-04-18T10:02:48Z</time></trkpt><trkpt lat="44.242534295934405" lon="10.140232586298659"><ele>370.6666666666667</ele><time>2026-04-18T10:02:49Z</time></trkpt><trkpt lat="44.24250586339181" lon="10.1404602709272"><ele>370.3333333333333</ele><time>2026-04-18T10:02:50Z</time></trkpt><trkpt lat="44.24247906612618" lon="10.140688051101694"><ele>370.0</ele><time>2026-04-18T10:02:51Z</time></trkpt><trkpt lat="44.24244701482531" lon="10.140908463993059"><ele>369.66666666666663</ele><time>2026-04-18T10:02:52Z</time></trkpt><trkpt lat="44.242416186904656" lon="10.141128432040821"><ele>369.3333333333333</ele><time>2026-04-18T10:02:53Z</time></trkpt><trkpt lat="44.242383376161996" lon="10.141350057903551"><ele>369.0</ele><time>2026-04-18T10:02:54Z</time></trkpt><trkpt lat="44.242348481447905" lon="10.1415929552144"><ele>377.66666666666663</ele><time>2026-04-18T10:02:55Z</time></trkpt><trkpt lat="44.242291792793864" lon="10.141828093902717"><ele>386.3333333333333</ele><time>2026-04-18T10:02:56Z</time></trkpt><trkpt lat="44.24222283103119" lon="10.142022370904826"><ele>395.0</ele><time>2026-04-18T10:02:57Z</time></trkpt><trkpt lat="44.24215642224256" lon="10.142164157539698"><ele>395.0</ele><time>2026-04-18T10:02:58Z</time></trkpt><trkpt lat="44.24211677916982" lon="10.142258591262094"><ele>395.0</ele><time>2026-04-18T10:02:59Z</time></trkpt><trkpt lat="44.24208872744229" lon="10.142372319489589"><ele>395.0</ele><time>2026-04-18T10:03:01Z</time></trkpt><trkpt lat="44.242075642914365" lon="10.142466757711286"><ele>395.0</ele><time>2026-04-18T10:03:05Z</time></trkpt><trkpt lat="44.24201257923105" lon="10.142641036491524"><ele>395.0</ele><time>2026-04-18T10:05:00Z</time></trkpt><trkpt lat="44.241973995020565" lon="10.14275535541952"><ele>395.0</ele><time>2026-04-18T10:05:01Z</time></trkpt><trkpt lat="44.24193686338392" lon="10.142922039174769"><ele>395.0</ele><time>2026-04-18T10:05:02Z</time></trkpt><trkpt lat="44.241902773336946" lon="10.143080740109928"><ele>395.0</ele><time>2026-04-18T10:05:03Z</time></trkpt><trkpt lat="44.24185984758881" lon="10.143262023583661"><ele>395.0</ele><time>2026-04-18T10:05:04Z</time></trkpt><trkpt lat="44.241836734972615" lon="10.143429851391888"><ele>395.0</ele><time>2026-04-18T10:05:05Z</time></trkpt><trkpt lat="44.241821425979786" lon="10.143608217624017"><ele>395.0</ele><time>2026-04-18T10:05:06Z</time></trkpt><trkpt lat="44.24184768733984" lon="10.143776425653419"><ele>395.0</ele><time>2026-04-18T10:05:07Z</time></trkpt><trkpt lat="44.24190348913996" lon="10.14395432698819"><ele>395.0</ele><time>2026-04-18T10:05:08Z</time></trkpt><trkpt lat="44.24197637561002" lon="10.144090724805235"><ele>396.66666666666663</ele><time>2026-04-18T10:05:09Z</time></trkpt><trkpt lat="44.242143459290105" lon="10.144209054605819"><ele>398.33333333333337</ele><time>2026-04-18T10:05:10Z</time></trkpt><trkpt lat="44.24215408566054" lon="10.144374408027844"><ele>400.0</ele><time>2026-04-18T10:05:11Z</time></trkpt><trkpt lat="44.2420541284156" lon="10.144713170571363"><ele>400.0</ele><time>2026-04-18T10:05:12Z</time></trkpt><trkpt lat="44.242091168858465" lon="10.144865355455668"><ele>400.0</ele><time>2026-04-18T10:05:13Z</time></trkpt><trkpt lat="44.24210586941327" lon="10.14505794616723"><ele>400.0</ele><time>2026-04-18T10:05:14Z</time></trkpt><trkpt lat="44.24211018932391" lon="10.145254512477102"><ele>400.0</ele><time>2026-04-18T10:05:15Z</time></trkpt><trkpt lat="44.242111545772815" lon="10.145452434613505"><ele>401.6666666666667</ele><time>2026-04-18T10:05:16Z</time></trkpt><trkpt lat="44.242110791141016" lon="10.145664218970218"><ele>403.33333333333337</ele><time>2026-04-18T10:05:17Z</time></trkpt><trkpt lat="44.2421243956171" lon="10.145883861508345"><ele>405.0</ele><time>2026-04-18T10:05:18Z</time></trkpt><trkpt lat="44.24215986988645" lon="10.146108250632434"><ele>406.0</ele><time>2026-04-18T10:05:19Z</time></trkpt><trkpt lat="44.24221703131489" lon="10.146331735856906"><ele>407.0</ele><time>2026-04-18T10:05:20Z</time></trkpt><trkpt lat="44.24226655628697" lon="10.146536533089309"><ele>408.0</ele><time>2026-04-18T10:05:21Z</time></trkpt><trkpt lat="44.2423214080162" lon="10.146719616597192"><ele>408.0</ele><time>2026-04-18T10:05:22Z</time></trkpt><trkpt lat="44.24238942858403" lon="10.146887358364895"><ele>408.0</ele><time>2026-04-18T10:05:23Z</time></trkpt><trkpt lat="44.2425285988976" lon="10.146996995641464"><ele>408.0</ele><time>2026-04-18T10:05:24Z</time></trkpt><trkpt lat="44.2426616608303" lon="10.147098886624816"><ele>408.0</ele><time>2026-04-18T10:05:25Z</time></trkpt><trkpt lat="44.24278674058286" lon="10.147250599710363"><ele>408.0</ele><time>2026-04-18T10:05:26Z</time></trkpt><trkpt lat="44.24278591852321" lon="10.147392092473147"><ele>408.0</ele><time>2026-04-18T10:05:28Z</time></trkpt><trkpt lat="44.24279129606642" lon="10.14758047736911"><ele>408.0</ele><time>2026-04-18T10:05:29Z</time></trkpt><trkpt lat="44.2428646405537" lon="10.147765586638256"><ele>412.75</ele><time>2026-04-18T10:05:30Z</time></trkpt><trkpt lat="44.242956831093984" lon="10.147938511743602"><ele>417.5</ele><time>2026-04-18T10:05:31Z</time></trkpt><trkpt lat="44.242997961868916" lon="10.148137577334294"><ele>422.25</ele><time>2026-04-18T10:05:32Z</time></trkpt><trkpt lat="44.243011497681046" lon="10.148339812731013"><ele>427.0</ele><time>2026-04-18T10:05:33Z</time></trkpt><trkpt lat="44.24300106756425" lon="10.14855291321371"><ele>432.33333333333337</ele><time>2026-04-18T10:05:34Z</time></trkpt><trkpt lat="44.24298886585421" lon="10.148783919633463"><ele>437.66666666666663</ele><time>2026-04-18T10:05:35Z</time></trkpt><trkpt lat="44.24297506176791" lon="10.149024657547304"><ele>443.0</ele><time>2026-04-18T10:05:36Z</time></trkpt><trkpt lat="44.2429608140116" lon="10.149261566459002"><ele>446.66666666666663</ele><time>2026-04-18T10:05:36.999Z</time></trkpt><trkpt lat="44.24294689422908" lon="10.14950530732432"><ele>450.33333333333337</ele><time>2026-04-18T10:05:37.999Z</time></trkpt><trkpt lat="44.24293370982692" lon="10.149754483472444"><ele>454.0</ele><time>2026-04-18T10:05:38.999Z</time></trkpt><trkpt lat="44.242920688937296" lon="10.15000080268305"><ele>454.6666666666667</ele><time>2026-04-18T10:05:39.999Z</time></trkpt><trkpt lat="44.24290842314592" lon="10.150236152842025"><ele>455.33333333333337</ele><time>2026-04-18T10:05:40.999Z</time></trkpt><trkpt lat="44.24290314864486" lon="10.150444887039717"><ele>456.0</ele><time>2026-04-18T10:05:41.999Z</time></trkpt><trkpt lat="44.242911811820306" lon="10.150634437152398"><ele>458.66666666666663</ele><time>2026-04-18T10:05:42.999Z</time></trkpt><trkpt lat="44.24296924399035" lon="10.150829498442832"><ele>461.3333333333333</ele><time>2026-04-18T10:05:43.999Z</time></trkpt><trkpt lat="44.24306165671315" lon="10.151016693453546"><ele>464.0</ele><time>2026-04-18T10:05:44.999Z</time></trkpt><trkpt lat="44.24320585768366" lon="10.151162257645165"><ele>458.66666666666663</ele><time>2026-04-18T10:05:45.999Z</time></trkpt><trkpt lat="44.24333052414983" lon="10.151292077686284"><ele>453.33333333333337</ele><time>2026-04-18T10:05:46.999Z</time></trkpt><trkpt lat="44.24338656481891" lon="10.151485635900663"><ele>448.0</ele><time>2026-04-18T10:05:47.999Z</time></trkpt><trkpt lat="44.24341757776889" lon="10.15171895965992"><ele>448.0</ele><time>2026-04-18T10:05:48.999Z</time></trkpt><trkpt lat="44.24345608412423" lon="10.151967000315947"><ele>448.0</ele><time>2026-04-18T10:05:49.999Z</time></trkpt><trkpt lat="44.243464352040704" lon="10.152184338770857"><ele>448.0</ele><time>2026-04-18T10:05:50.999Z</time></trkpt><trkpt lat="44.243424752946595" lon="10.152360513640852"><ele>451.0</ele><time>2026-04-18T10:05:51.999Z</time></trkpt><trkpt lat="44.24339209460737" lon="10.15259032037183"><ele>454.0</ele><time>2026-04-18T10:05:52.999Z</time></trkpt><trkpt lat="44.24342327727645" lon="10.15279831709188"><ele>457.0</ele><time>2026-04-18T10:05:53.999Z</time></trkpt><trkpt lat="44.24348323764496" lon="10.152989591715375"><ele>457.0</ele><time>2026-04-18T10:05:54.999Z</time></trkpt><trkpt lat="44.24357768873271" lon="10.153187534540516"><ele>457.0</ele><time>2026-04-18T10:05:55.999Z</time></trkpt><trkpt lat="44.24363258927533" lon="10.153420229406624"><ele>457.0</ele><time>2026-04-18T10:05:56.999Z</time></trkpt><trkpt lat="44.24368366347903" lon="10.153660398945295"><ele>459.6666666666667</ele><time>2026-04-18T10:05:57.999Z</time></trkpt><trkpt lat="44.243723209582086" lon="10.153881422799358"><ele>462.33333333333337</ele><time>2026-04-18T10:05:58.999Z</time></trkpt><trkpt lat="44.24375296511881" lon="10.154099035975944"><ele>465.0</ele><time>2026-04-18T10:05:59.999Z</time></trkpt><trkpt lat="44.24375835206986" lon="10.154291390372208"><ele>466.66666666666663</ele><time>2026-04-18T10:06:00.999Z</time></trkpt><trkpt lat="44.24374385949671" lon="10.154479421610365"><ele>468.3333333333333</ele><time>2026-04-18T10:06:01.999Z</time></trkpt><trkpt lat="44.243702907344236" lon="10.154697046181909"><ele>470.0</ele><time>2026-04-18T10:06:02.999Z</time></trkpt><trkpt lat="44.24363792375533" lon="10.15491998488624"><ele>471.3333333333333</ele><time>2026-04-18T10:06:03.999Z</time></trkpt><trkpt lat="44.24354469846284" lon="10.155136865508803"><ele>472.66666666666663</ele><time>2026-04-18T10:06:04.999Z</time></trkpt><trkpt lat="44.243439191149754" lon="10.155332236875873"><ele>474.0</ele><time>2026-04-18T10:06:05.999Z</time></trkpt><trkpt lat="44.24333764274155" lon="10.15552742080166"><ele>474.0</ele><time>2026-04-18T10:06:06.999Z</time></trkpt><trkpt lat="44.243201493848225" lon="10.155645034338633"><ele>474.0</ele><time>2026-04-18T10:06:07.999Z</time></trkpt><trkpt lat="44.24304699868477" lon="10.155734667825373"><ele>474.0</ele><time>2026-04-18T10:06:08.999Z</time></trkpt><trkpt lat="44.2429014797384" lon="10.155824122762567"><ele>477.66666666666663</ele><time>2026-04-18T10:06:09.999Z</time></trkpt><trkpt lat="44.242763022520315" lon="10.15594371443537"><ele>481.3333333333333</ele><time>2026-04-18T10:06:10.999Z</time></trkpt><trkpt lat="44.24263909643948" lon="10.15612252251835"><ele>485.0</ele><time>2026-04-18T10:06:11.999Z</time></trkpt><trkpt lat="44.24253175553516" lon="10.156314828122026"><ele>485.0</ele><time>2026-04-18T10:06:12.999Z</time></trkpt><trkpt lat="44.24245362578975" lon="10.156507409912917"><ele>485.0</ele><time>2026-04-18T10:06:13.999Z</time></trkpt><trkpt lat="44.24239514782822" lon="10.156733439968209"><ele>485.0</ele><time>2026-04-18T10:06:14.999Z</time></trkpt><trkpt lat="44.24234494078992" lon="10.15697911674885"><ele>483.66666666666663</ele><time>2026-04-18T10:06:15.999Z</time></trkpt><trkpt lat="44.24229505044665" lon="10.157212385287908"><ele>482.33333333333337</ele><time>2026-04-18T10:06:16.999Z</time></trkpt><trkpt lat="44.24224488478008" lon="10.15743907553944"><ele>481.0</ele><time>2026-04-18T10:06:17.999Z</time></trkpt><trkpt lat="44.242199314272185" lon="10.157645731676379"><ele>481.0</ele><time>2026-04-18T10:06:18.999Z</time></trkpt><trkpt lat="44.24216537330332" lon="10.15784737685878"><ele>481.0</ele><time>2026-04-18T10:06:19.999Z</time></trkpt><trkpt lat="44.24217489319273" lon="10.158041151457258"><ele>481.0</ele><time>2026-04-18T10:06:20.999Z</time></trkpt><trkpt lat="44.24224627844214" lon="10.158245250802674"><ele>481.33333333333337</ele><time>2026-04-18T10:06:21.999Z</time></trkpt><trkpt lat="44.24236129006814" lon="10.15846750953606"><ele>481.66666666666663</ele><time>2026-04-18T10:06:22.999Z</time></trkpt><trkpt lat="44.24248319166367" lon="10.158675556635758"><ele>482.0</ele><time>2026-04-18T10:06:23.999Z</time></trkpt><trkpt lat="44.24261511644024" lon="10.158856482929927"><ele>482.0</ele><time>2026-04-18T10:06:24.999Z</time></trkpt><trkpt lat="44.24273377834229" lon="10.158993922652485"><ele>482.0</ele><time>2026-04-18T10:06:25.999Z</time></trkpt><trkpt lat="44.242863029105244" lon="10.159094152712065"><ele>482.0</ele><time>2026-04-18T10:06:26.999Z</time></trkpt><trkpt lat="44.24301017402879" lon="10.159118951075378"><ele>478.3333333333333</ele><time>2026-04-18T10:06:27.999Z</time></trkpt><trkpt lat="44.24316590931809" lon="10.159075539468818"><ele>474.66666666666663</ele><time>2026-04-18T10:06:28.999Z</time></trkpt><trkpt lat="44.2433346980394" lon="10.158975153572857"><ele>471.0</ele><time>2026-04-18T10:06:29.999Z</time></trkpt><trkpt lat="44.24349444494092" lon="10.158968924149399"><ele>471.0</ele><time>2026-04-18T10:06:30.999Z</time></trkpt><trkpt lat="44.243646537634305" lon="10.158996967105374"><ele>471.0</ele><time>2026-04-18T10:06:32Z</time></trkpt><trkpt lat="44.24381400560897" lon="10.159038611512347"><ele>471.0</ele><time>2026-04-18T10:06:33Z</time></trkpt><trkpt lat="44.243956699406034" lon="10.159081585437711"><ele>473.20000000000005</ele><time>2026-04-18T10:06:34Z</time></trkpt><trkpt lat="44.24405483751723" lon="10.159153772417485"><ele>475.40000000000003</ele><time>2026-04-18T10:06:35Z</time></trkpt><trkpt lat="44.24410534866774" lon="10.159249480198605"><ele>477.6</ele><time>2026-04-18T10:06:36Z</time></trkpt><trkpt lat="44.24410335813195" lon="10.15938531084542"><ele>479.8</ele><time>2026-04-18T10:06:37Z</time></trkpt><trkpt lat="44.244066635228585" lon="10.15955483002732"><ele>482.0</ele><time>2026-04-18T10:06:38Z</time></trkpt><trkpt lat="44.24409578344712" lon="10.15975152875782"><ele>487.3333333333333</ele><time>2026-04-18T10:06:39Z</time></trkpt><trkpt lat="44.24418191945279" lon="10.159928493350554"><ele>492.66666666666663</ele><time>2026-04-18T10:06:40Z</time></trkpt><trkpt lat="44.24428234586263" lon="10.16012259813276"><ele>498.0</ele><time>2026-04-18T10:06:41Z</time></trkpt><trkpt lat="44.244384549158596" lon="10.160320027584547"><ele>498.0</ele><time>2026-04-18T10:06:42Z</time></trkpt><trkpt lat="44.244468530236865" lon="10.160521020091917"><ele>498.0</ele><time>2026-04-18T10:06:43Z</time></trkpt><trkpt lat="44.24453818657309" lon="10.160757291529734"><ele>498.0</ele><time>2026-04-18T10:06:44Z</time></trkpt><trkpt lat="44.24460719464823" lon="10.1609996246905"><ele>501.33333333333337</ele><time>2026-04-18T10:06:45Z</time></trkpt><trkpt lat="44.24466649037996" lon="10.161228581223435"><ele>504.6666666666667</ele><time>2026-04-18T10:06:46Z</time></trkpt><trkpt lat="44.24471081849286" lon="10.161429035130912"><ele>508.0</ele><time>2026-04-18T10:06:47Z</time></trkpt><trkpt lat="44.244738270894736" lon="10.161634107576106"><ele>508.6666666666667</ele><time>2026-04-18T10:06:48Z</time></trkpt><trkpt lat="44.24474003519797" lon="10.161862194779578"><ele>509.33333333333337</ele><time>2026-04-18T10:06:49Z</time></trkpt><trkpt lat="44.24470607744575" lon="10.162073300693834"><ele>510.0</ele><time>2026-04-18T10:06:50Z</time></trkpt><trkpt lat="44.244654402035444" lon="10.162296973069065"><ele>513.0</ele><time>2026-04-18T10:06:51Z</time></trkpt><trkpt lat="44.244594995340755" lon="10.162540440386945"><ele>516.0</ele><time>2026-04-18T10:06:52Z</time></trkpt><trkpt lat="44.24452460328145" lon="10.162781767604638"><ele>519.0</ele><time>2026-04-18T10:06:53Z</time></trkpt><trkpt lat="44.2444560764303" lon="10.16299651542851"><ele>519.3333333333334</ele><time>2026-04-18T10:06:54Z</time></trkpt><trkpt lat="44.244408696526456" lon="10.163207053592402"><ele>519.6666666666667</ele><time>2026-04-18T10:06:55Z</time></trkpt><trkpt lat="44.2443548367654" lon="10.16343345000319"><ele>520.0</ele><time>2026-04-18T10:06:56Z</time></trkpt><trkpt lat="44.24431943915671" lon="10.163663489824055"><ele>520.0</ele><time>2026-04-18T10:06:57Z</time></trkpt><trkpt lat="44.24429055296324" lon="10.163870202420268"><ele>520.0</ele><time>2026-04-18T10:06:58Z</time></trkpt><trkpt lat="44.24428201524425" lon="10.164056256834057"><ele>520.0</ele><time>2026-04-18T10:06:59Z</time></trkpt><trkpt lat="44.24431368356042" lon="10.164222002012169"><ele>520.0</ele><time>2026-04-18T10:07:00Z</time></trkpt><trkpt lat="44.24439637261889" lon="10.164389139129714"><ele>518.75</ele><time>2026-04-18T10:07:01Z</time></trkpt><trkpt lat="44.244518221301234" lon="10.16451004873411"><ele>517.5</ele><time>2026-04-18T10:07:02Z</time></trkpt><trkpt lat="44.24464905527658" lon="10.164571699752344"><ele>516.25</ele><time>2026-04-18T10:07:03Z</time></trkpt><trkpt lat="44.24478777022472" lon="10.164549579274183"><ele>515.0</ele><time>2026-04-18T10:07:04Z</time></trkpt><trkpt lat="44.24493265813543" lon="10.164442049089846"><ele>511.0</ele><time>2026-04-18T10:07:05Z</time></trkpt><trkpt lat="44.245082930802546" lon="10.164329727925448"><ele>507.0</ele><time>2026-04-18T10:07:06Z</time></trkpt><trkpt lat="44.24522843548976" lon="10.164347402757565"><ele>503.0</ele><time>2026-04-18T10:07:07Z</time></trkpt><trkpt lat="44.24536918885128" lon="10.164408536865901"><ele>503.0</ele><time>2026-04-18T10:07:08Z</time></trkpt><trkpt lat="44.245479583619414" lon="10.164547345424305"><ele>503.0</ele><time>2026-04-18T10:07:09Z</time></trkpt><trkpt lat="44.24559772086961" lon="10.16471423659543"><ele>503.0</ele><time>2026-04-18T10:07:10Z</time></trkpt><trkpt lat="44.24570707165752" lon="10.164915513262034"><ele>505.0</ele><time>2026-04-18T10:07:11Z</time></trkpt><trkpt lat="44.24580729048864" lon="10.165157946449554"><ele>507.0</ele><time>2026-04-18T10:07:12Z</time></trkpt><trkpt lat="44.2459130942252" lon="10.165426491443696"><ele>509.0</ele><time>2026-04-18T10:07:13Z</time></trkpt><trkpt lat="44.246034119927046" lon="10.165681124907188"><ele>515.6666666666666</ele><time>2026-04-18T10:07:14Z</time></trkpt><trkpt lat="44.24614062997883" lon="10.165933798182738"><ele>522.3333333333334</ele><time>2026-04-18T10:07:15Z</time></trkpt><trkpt lat="44.24627235464916" lon="10.166166860543578"><ele>529.0</ele><time>2026-04-18T10:07:16Z</time></trkpt><trkpt lat="44.246382182823616" lon="10.166399817972758"><ele>523.3333333333334</ele><time>2026-04-18T10:07:17Z</time></trkpt><trkpt lat="44.24651247207216" lon="10.166586695888148"><ele>517.6666666666666</ele><time>2026-04-18T10:07:18Z</time></trkpt><trkpt lat="44.24666125775721" lon="10.16670088957835"><ele>512.0</ele><time>2026-04-18T10:07:19Z</time></trkpt><trkpt lat="44.246784419206385" lon="10.166848553378845"><ele>512.0</ele><time>2026-04-18T10:07:20Z</time></trkpt><trkpt lat="44.246901683321106" lon="10.167004003919734"><ele>512.0</ele><time>2026-04-18T10:07:21Z</time></trkpt><trkpt lat="44.2469611785642" lon="10.16721664777569"><ele>512.0</ele><time>2026-04-18T10:07:22Z</time></trkpt><trkpt lat="44.24704106000489" lon="10.167470728332523"><ele>511.66666666666663</ele><time>2026-04-18T10:07:23Z</time></trkpt><trkpt lat="44.247149100181694" lon="10.167712959335077"><ele>511.33333333333337</ele><time>2026-04-18T10:07:24Z</time></trkpt><trkpt lat="44.247250723299175" lon="10.16795250106821"><ele>511.0</ele><time>2026-04-18T10:07:25Z</time></trkpt><trkpt lat="44.24731724731726" lon="10.168210654843591"><ele>511.0</ele><time>2026-04-18T10:07:26Z</time></trkpt><trkpt lat="44.247381879513746" lon="10.168475912851594"><ele>511.0</ele><time>2026-04-18T10:07:27Z</time></trkpt><trkpt lat="44.24744459439735" lon="10.16872948768088"><ele>511.0</ele><time>2026-04-18T10:07:28Z</time></trkpt><trkpt lat="44.2475014453497" lon="10.168953938130043"><ele>513.25</ele><time>2026-04-18T10:07:29Z</time></trkpt><trkpt lat="44.24755329578479" lon="10.169150130072925"><ele>515.5</ele><time>2026-04-18T10:07:30Z</time></trkpt><trkpt lat="44.247600396538125" lon="10.169320603600097"><ele>517.75</ele><time>2026-04-18T10:07:31Z</time></trkpt><trkpt lat="44.24764637602986" lon="10.169487018094715"><ele>520.0</ele><time>2026-04-18T10:07:32Z</time></trkpt><trkpt lat="44.24770561407734" lon="10.169648637424844"><ele>520.0</ele><time>2026-04-18T10:07:33Z</time></trkpt><trkpt lat="44.24775657470597" lon="10.169820337421132"><ele>520.0</ele><time>2026-04-18T10:07:34Z</time></trkpt><trkpt lat="44.247785805033395" lon="10.170004240768263"><ele>520.0</ele><time>2026-04-18T10:07:35Z</time></trkpt><trkpt lat="44.247819848633846" lon="10.170182377162748"><ele>520.0</ele><time>2026-04-18T10:07:36Z</time></trkpt><trkpt lat="44.24784592389882" lon="10.170360309049565"><ele>522.0</ele><time>2026-04-18T10:07:37Z</time></trkpt><trkpt lat="44.24788002332995" lon="10.170534635450041"><ele>524.0</ele><time>2026-04-18T10:07:38Z</time></trkpt><trkpt lat="44.247892073163584" lon="10.170716650383854"><ele>526.0</ele><time>2026-04-18T10:07:39Z</time></trkpt><trkpt lat="44.247901842578244" lon="10.170895763539047"><ele>528.0</ele><time>2026-04-18T10:07:39.999Z</time></trkpt><trkpt lat="44.24790979344521" lon="10.17107374548258"><ele>528.75</ele><time>2026-04-18T10:07:40.999Z</time></trkpt><trkpt lat="44.24791238634614" lon="10.171259608942897"><ele>529.5</ele><time>2026-04-18T10:07:41.999Z</time></trkpt><trkpt lat="44.24792266337916" lon="10.17144067809032"><ele>530.25</ele><time>2026-04-18T10:07:42.999Z</time></trkpt><trkpt lat="44.247931162009884" lon="10.171625367162857"><ele>531.0</ele><time>2026-04-18T10:07:43.999Z</time></trkpt><trkpt lat="44.247938811524946" lon="10.171804875303696"><ele>532.25</ele><time>2026-04-18T10:07:44.999Z</time></trkpt><trkpt lat="44.2479472335407" lon="10.171987426034926"><ele>533.5</ele><time>2026-04-18T10:07:45.999Z</time></trkpt><trkpt lat="44.247952050143866" lon="10.17217060911218"><ele>534.75</ele><time>2026-04-18T10:07:46.999Z</time></trkpt><trkpt lat="44.24795754988017" lon="10.172349542056189"><ele>536.0</ele><time>2026-04-18T10:07:47.999Z</time></trkpt><trkpt lat="44.24796329056359" lon="10.172504295878456"><ele>537.5</ele><time>2026-04-18T10:07:48.999Z</time></trkpt><trkpt lat="44.24796960462161" lon="10.172655625538656"><ele>539.0</ele><time>2026-04-18T10:07:49.999Z</time></trkpt><trkpt lat="44.24797516747977" lon="10.172817995203268"><ele>540.5</ele><time>2026-04-18T10:07:50.999Z</time></trkpt><trkpt lat="44.247979542636365" lon="10.173003720950012"><ele>542.0</ele><time>2026-04-18T10:07:51.999Z</time></trkpt><trkpt lat="44.24798511834837" lon="10.173218822363006"><ele>545.0</ele><time>2026-04-18T10:07:52.999Z</time></trkpt><trkpt lat="44.247991038244066" lon="10.17345457763237"><ele>548.0</ele><time>2026-04-18T10:07:53.999Z</time></trkpt><trkpt lat="44.24800185081673" lon="10.173710645366402"><ele>551.0</ele><time>2026-04-18T10:07:54.999Z</time></trkpt><trkpt lat="44.24800893672288" lon="10.173976628600423"><ele>553.6666666666666</ele><time>2026-04-18T10:07:55.999Z</time></trkpt><trkpt lat="44.24802020385414" lon="10.174249903563144"><ele>556.3333333333334</ele><time>2026-04-18T10:07:56.999Z</time></trkpt><trkpt lat="44.24801887809782" lon="10.174516294072108"><ele>559.0</ele><time>2026-04-18T10:07:57.999Z</time></trkpt><trkpt lat="44.248010782970745" lon="10.174796491287461"><ele>559.3333333333334</ele><time>2026-04-18T10:07:58.999Z</time></trkpt><trkpt lat="44.24799303251921" lon="10.175066332371488"><ele>559.6666666666666</ele><time>2026-04-18T10:07:59.999Z</time></trkpt><trkpt lat="44.24796915565403" lon="10.175307847693993"><ele>560.0</ele><time>2026-04-18T10:08:00.999Z</time></trkpt><trkpt lat="44.24794328904687" lon="10.175525292326467"><ele>560.6666666666666</ele><time>2026-04-18T10:08:01.999Z</time></trkpt><trkpt lat="44.2479659101442" lon="10.175751248542925"><ele>561.3333333333334</ele><time>2026-04-18T10:08:02.999Z</time></trkpt><trkpt lat="44.24804111955524" lon="10.17600265907091"><ele>562.0</ele><time>2026-04-18T10:08:03.999Z</time></trkpt><trkpt lat="44.248155233992435" lon="10.176241472116194"><ele>553.3333333333334</ele><time>2026-04-18T10:08:04.999Z</time></trkpt><trkpt lat="44.24826767920861" lon="10.176468362875063"><ele>544.6666666666666</ele><time>2026-04-18T10:08:05.999Z</time></trkpt><trkpt lat="44.24834794993393" lon="10.176688666137503"><ele>536.0</ele><time>2026-04-18T10:08:06.999Z</time></trkpt><trkpt lat="44.2483827328787" lon="10.176945619678873"><ele>536.0</ele><time>2026-04-18T10:08:07.999Z</time></trkpt><trkpt lat="44.24838762040756" lon="10.177235677313792"><ele>536.0</ele><time>2026-04-18T10:08:08.999Z</time></trkpt><trkpt lat="44.24839514700041" lon="10.177515562726445"><ele>536.0</ele><time>2026-04-18T10:08:09.999Z</time></trkpt><trkpt lat="44.24840864543638" lon="10.177761706920117"><ele>536.6</ele><time>2026-04-18T10:08:10.999Z</time></trkpt><trkpt lat="44.24842142658083" lon="10.177942269427945"><ele>537.2</ele><time>2026-04-18T10:08:11.999Z</time></trkpt><trkpt lat="44.248442208086985" lon="10.178059381369494"><ele>537.8</ele><time>2026-04-18T10:08:12.999Z</time></trkpt><trkpt lat="44.248492383336846" lon="10.178163920176356"><ele>538.4</ele><time>2026-04-18T10:08:13.999Z</time></trkpt><trkpt lat="44.24861674488479" lon="10.178259142267013"><ele>539.0</ele><time>2026-04-18T10:08:14.999Z</time></trkpt><trkpt lat="44.24878923404672" lon="10.178362075773801"><ele>531.6666666666666</ele><time>2026-04-18T10:08:15.999Z</time></trkpt><trkpt lat="44.24896396115481" lon="10.178502843607472"><ele>524.3333333333334</ele><time>2026-04-18T10:08:16.999Z</time></trkpt><trkpt lat="44.249131352872716" lon="10.178635884855632"><ele>517.0</ele><time>2026-04-18T10:08:17.999Z</time></trkpt><trkpt lat="44.24927416421829" lon="10.178751180359187"><ele>517.0</ele><time>2026-04-18T10:08:18.999Z</time></trkpt><trkpt lat="44.249400205381406" lon="10.178843470397451"><ele>517.0</ele><time>2026-04-18T10:08:19.999Z</time></trkpt><trkpt lat="44.249522458418376" lon="10.178870048736826"><ele>517.0</ele><time>2026-04-18T10:08:20.999Z</time></trkpt><trkpt lat="44.24964491087328" lon="10.178842767732084"><ele>517.0</ele><time>2026-04-18T10:08:21.999Z</time></trkpt><trkpt lat="44.249754493611924" lon="10.178761081804328"><ele>521.6666666666667</ele><time>2026-04-18T10:08:22.999Z</time></trkpt><trkpt lat="44.24985655207434" lon="10.178585305875641"><ele>526.3333333333334</ele><time>2026-04-18T10:08:23.999Z</time></trkpt><trkpt lat="44.24995944437797" lon="10.178373387445259"><ele>531.0</ele><time>2026-04-18T10:08:24.999Z</time></trkpt><trkpt lat="44.25003607457761" lon="10.178198472279103"><ele>529.5</ele><time>2026-04-18T10:08:25.999Z</time></trkpt><trkpt lat="44.25005052891089" lon="10.178015545885113"><ele>528.0</ele><time>2026-04-18T10:08:26.999Z</time></trkpt><trkpt lat="44.250018245325634" lon="10.177815345791922"><ele>526.5</ele><time>2026-04-18T10:08:27.999Z</time></trkpt><trkpt lat="44.25005423762934" lon="10.177618862610174"><ele>525.0</ele><time>2026-04-18T10:08:28.999Z</time></trkpt><trkpt lat="44.250164883971124" lon="10.17742682396801"><ele>524.0</ele><time>2026-04-18T10:08:29.999Z</time></trkpt><trkpt lat="44.250277598187594" lon="10.177222907484293"><ele>523.0</ele><time>2026-04-18T10:08:30.999Z</time></trkpt><trkpt lat="44.25035180841716" lon="10.176989975232107"><ele>522.0</ele><time>2026-04-18T10:08:31.999Z</time></trkpt><trkpt lat="44.25038335624107" lon="10.176741085704046"><ele>522.0</ele><time>2026-04-18T10:08:32.999Z</time></trkpt><trkpt lat="44.250409323493265" lon="10.176530428147503"><ele>522.0</ele><time>2026-04-18T10:08:33.999Z</time></trkpt><trkpt lat="44.25048606949274" lon="10.176339900107461"><ele>522.0</ele><time>2026-04-18T10:08:34.999Z</time></trkpt><trkpt lat="44.25057822191989" lon="10.17613518197616"><ele>527.0</ele><time>2026-04-18T10:08:35.999Z</time></trkpt><trkpt lat="44.25063250575639" lon="10.175883468704344"><ele>532.0</ele><time>2026-04-18T10:08:36.999Z</time></trkpt><trkpt lat="44.25068776142035" lon="10.175673668380677"><ele>537.0</ele><time>2026-04-18T10:08:38Z</time></trkpt><trkpt lat="44.25077934340202" lon="10.17549024782945"><ele>537.0</ele><time>2026-04-18T10:08:39Z</time></trkpt><trkpt lat="44.25089039475232" lon="10.175316636428601"><ele>537.0</ele><time>2026-04-18T10:08:40Z</time></trkpt><trkpt lat="44.251025056365144" lon="10.175134782003182"><ele>537.0</ele><time>2026-04-18T10:08:41Z</time></trkpt><trkpt lat="44.25116143743531" lon="10.174947276765037"><ele>536.5</ele><time>2026-04-18T10:08:42Z</time></trkpt><trkpt lat="44.251268580739904" lon="10.17479088831851"><ele>536.0</ele><time>2026-04-18T10:08:43Z</time></trkpt><trkpt lat="44.251348942369184" lon="10.174646107546648"><ele>535.5</ele><time>2026-04-18T10:08:44Z</time></trkpt><trkpt lat="44.25139597249763" lon="10.174480194472137"><ele>535.0</ele><time>2026-04-18T10:08:45Z</time></trkpt><trkpt lat="44.25142284781311" lon="10.174343713670996"><ele>535.0</ele><time>2026-04-18T10:08:46Z</time></trkpt><trkpt lat="44.25151246066671" lon="10.174365515926969"><ele>535.0</ele><time>2026-04-18T10:08:48Z</time></trkpt><trkpt lat="44.251529719425456" lon="10.174474668825399"><ele>535.0</ele><time>2026-04-18T10:08:49Z</time></trkpt><trkpt lat="44.25148088877784" lon="10.174611518288232"><ele>535.0</ele><time>2026-04-18T10:08:50Z</time></trkpt><trkpt lat="44.251381135867376" lon="10.174787136519114"><ele>535.0</ele><time>2026-04-18T10:08:51Z</time></trkpt><trkpt lat="44.251270828561246" lon="10.174983130222335"><ele>535.6666666666667</ele><time>2026-04-18T10:08:52Z</time></trkpt><trkpt lat="44.2511892485708" lon="10.175145198866876"><ele>536.3333333333334</ele><time>2026-04-18T10:08:53Z</time></trkpt><trkpt lat="44.25107077756931" lon="10.17543205735882"><ele>537.0</ele><time>2026-04-18T10:08:54Z</time></trkpt><trkpt lat="44.25100555669987" lon="10.175608809854811"><ele>540.3333333333334</ele><time>2026-04-18T10:08:55Z</time></trkpt><trkpt lat="44.25097299921539" lon="10.175784575399048"><ele>543.6666666666667</ele><time>2026-04-18T10:08:56Z</time></trkpt><trkpt lat="44.25100630102083" lon="10.175981566899699"><ele>547.0</ele><time>2026-04-18T10:08:57Z</time></trkpt><trkpt lat="44.25108788905222" lon="10.176210502856257"><ele>547.0</ele><time>2026-04-18T10:08:58Z</time></trkpt><trkpt lat="44.251165710712705" lon="10.176440739501208"><ele>547.0</ele><time>2026-04-18T10:08:59Z</time></trkpt><trkpt lat="44.251195016724026" lon="10.176680290504194"><ele>547.0</ele><time>2026-04-18T10:09:00Z</time></trkpt><trkpt lat="44.25116490631035" lon="10.176899191141635"><ele>549.25</ele><time>2026-04-18T10:09:01Z</time></trkpt><trkpt lat="44.25110664798913" lon="10.177076727108224"><ele>551.5</ele><time>2026-04-18T10:09:02Z</time></trkpt><trkpt lat="44.251019366551866" lon="10.177192953606964"><ele>553.75</ele><time>2026-04-18T10:09:03Z</time></trkpt><trkpt lat="44.25094585352094" lon="10.177266046417433"><ele>556.0</ele><time>2026-04-18T10:09:04Z</time></trkpt><trkpt lat="44.25096610401801" lon="10.177436754666148"><ele>556.0</ele><time>2026-04-18T10:09:06Z</time></trkpt><trkpt lat="44.25105308038101" lon="10.177469604529295"><ele>556.0</ele><time>2026-04-18T10:09:07Z</time></trkpt><trkpt lat="44.25115503502048" lon="10.177396009497894"><ele>556.0</ele><time>2026-04-18T10:09:08Z</time></trkpt><trkpt lat="44.25124173718812" lon="10.177236646272204"><ele>556.0</ele><time>2026-04-18T10:09:09Z</time></trkpt><trkpt lat="44.25130742521156" lon="10.177039779788473"><ele>556.0</ele><time>2026-04-18T10:09:10Z</time></trkpt><trkpt lat="44.25135865625156" lon="10.176842290258275"><ele>556.0</ele><time>2026-04-18T10:09:11Z</time></trkpt><trkpt lat="44.25141852425617" lon="10.176618517508345"><ele>556.0</ele><time>2026-04-18T10:09:12Z</time></trkpt><trkpt lat="44.25147151116093" lon="10.176384676403288"><ele>563.3333333333334</ele><time>2026-04-18T10:09:13Z</time></trkpt><trkpt lat="44.25150991116701" lon="10.176133450812024"><ele>570.6666666666666</ele><time>2026-04-18T10:09:14Z</time></trkpt><trkpt lat="44.25155649421949" lon="10.175881717835242"><ele>578.0</ele><time>2026-04-18T10:09:15Z</time></trkpt><trkpt lat="44.251611998228476" lon="10.175638193265241"><ele>578.0</ele><time>2026-04-18T10:09:16Z</time></trkpt><trkpt lat="44.25167797423394" lon="10.17539473051201"><ele>578.0</ele><time>2026-04-18T10:09:17Z</time></trkpt><trkpt lat="44.25177472439014" lon="10.175135622223932"><ele>578.0</ele><time>2026-04-18T10:09:18Z</time></trkpt><trkpt lat="44.25191915271248" lon="10.174868102023424"><ele>575.6666666666666</ele><time>2026-04-18T10:09:19Z</time></trkpt><trkpt lat="44.2520374382911" lon="10.174647253694218"><ele>573.3333333333334</ele><time>2026-04-18T10:09:20Z</time></trkpt><trkpt lat="44.25210884958817" lon="10.174521846270322"><ele>571.0</ele><time>2026-04-18T10:09:21Z</time></trkpt><trkpt lat="44.25220361128251" lon="10.1743492448741"><ele>569.75</ele><time>2026-04-18T10:09:22Z</time></trkpt><trkpt lat="44.25229946541155" lon="10.174208712163903"><ele>568.5</ele><time>2026-04-18T10:09:23Z</time></trkpt><trkpt lat="44.2524137847026" lon="10.174085949833604"><ele>567.25</ele><time>2026-04-18T10:09:24Z</time></trkpt><trkpt lat="44.252534215734634" lon="10.173954717341317"><ele>566.0</ele><time>2026-04-18T10:09:25Z</time></trkpt><trkpt lat="44.25263425474697" lon="10.173856520285483"><ele>566.0</ele><time>2026-04-18T10:09:26Z</time></trkpt><trkpt lat="44.252726404022894" lon="10.173782382072181"><ele>566.0</ele><time>2026-04-18T10:09:27Z</time></trkpt><trkpt lat="44.25283402080069" lon="10.17374655359504"><ele>566.0</ele><time>2026-04-18T10:09:28Z</time></trkpt><trkpt lat="44.252961810637714" lon="10.173740932066716"><ele>566.0</ele><time>2026-04-18T10:09:29Z</time></trkpt><trkpt lat="44.253103393836" lon="10.17376496881156"><ele>566.5</ele><time>2026-04-18T10:09:30Z</time></trkpt><trkpt lat="44.25324936621723" lon="10.173819734984052"><ele>567.0</ele><time>2026-04-18T10:09:31Z</time></trkpt><trkpt lat="44.25336807617848" lon="10.173877657471431"><ele>567.5</ele><time>2026-04-18T10:09:32Z</time></trkpt><trkpt lat="44.25348004519435" lon="10.173972607983357"><ele>568.0</ele><time>2026-04-18T10:09:33Z</time></trkpt><trkpt lat="44.253607173802465" lon="10.174126133404462"><ele>578.6666666666667</ele><time>2026-04-18T10:09:34Z</time></trkpt><trkpt lat="44.253735554631" lon="10.17427077292661"><ele>589.3333333333334</ele><time>2026-04-18T10:09:35Z</time></trkpt><trkpt lat="44.25382681191103" lon="10.174429763901875"><ele>600.0</ele><time>2026-04-18T10:09:36Z</time></trkpt><trkpt lat="44.25388081522738" lon="10.174639084652833"><ele>597.5</ele><time>2026-04-18T10:09:37Z</time></trkpt><trkpt lat="44.25396813120855" lon="10.174822483364741"><ele>595.0</ele><time>2026-04-18T10:09:38Z</time></trkpt><trkpt lat="44.254072980287404" lon="10.174974576016234"><ele>592.5</ele><time>2026-04-18T10:09:39Z</time></trkpt><trkpt lat="44.25416807056992" lon="10.175079495356417"><ele>590.0</ele><time>2026-04-18T10:09:40Z</time></trkpt><trkpt lat="44.25426279911258" lon="10.175109686303252"><ele>596.6666666666666</ele><time>2026-04-18T10:09:41Z</time></trkpt><trkpt lat="44.25440390510479" lon="10.175084671877743"><ele>603.3333333333334</ele><time>2026-04-18T10:09:42Z</time></trkpt><trkpt lat="44.25456529286407" lon="10.175017951593121"><ele>610.0</ele><time>2026-04-18T10:09:42.999Z</time></trkpt><trkpt lat="44.25472692347639" lon="10.17495151849324"><ele>612.3333333333334</ele><time>2026-04-18T10:09:43.999Z</time></trkpt><trkpt lat="44.25489025146334" lon="10.174927260723019"><ele>614.6666666666666</ele><time>2026-04-18T10:09:44.999Z</time></trkpt><trkpt lat="44.25505655996764" lon="10.174929610581177"><ele>617.0</ele><time>2026-04-18T10:09:45.999Z</time></trkpt><trkpt lat="44.2552050530489" lon="10.174950053501952"><ele>617.0</ele><time>2026-04-18T10:09:46.999Z</time></trkpt><trkpt lat="44.25535574931752" lon="10.175012141285022"><ele>617.0</ele><time>2026-04-18T10:09:47.999Z</time></trkpt><trkpt lat="44.25550859261778" lon="10.175105226651441"><ele>617.0</ele><time>2026-04-18T10:09:48.999Z</time></trkpt><trkpt lat="44.255656014068016" lon="10.175228758267163"><ele>617.75</ele><time>2026-04-18T10:09:49.999Z</time></trkpt><trkpt lat="44.25578209393579" lon="10.175378577158558"><ele>618.5</ele><time>2026-04-18T10:09:50.999Z</time></trkpt><trkpt lat="44.25591248972021" lon="10.175480714084138"><ele>619.25</ele><time>2026-04-18T10:09:51.999Z</time></trkpt><trkpt lat="44.2560269376444" lon="10.175579043059015"><ele>620.0</ele><time>2026-04-18T10:09:52.999Z</time></trkpt><trkpt lat="44.25607874726831" lon="10.175729794626285"><ele>622.6</ele><time>2026-04-18T10:09:53.999Z</time></trkpt><trkpt lat="44.256119048581446" lon="10.175889741235958"><ele>625.2</ele><time>2026-04-18T10:09:54.999Z</time></trkpt><trkpt lat="44.25619532251054" lon="10.175973596432506"><ele>627.8</ele><time>2026-04-18T10:09:55.999Z</time></trkpt><trkpt lat="44.25627041122771" lon="10.175969505982488"><ele>630.4</ele><time>2026-04-18T10:09:56.999Z</time></trkpt><trkpt lat="44.25637444887407" lon="10.175875992118788"><ele>633.0</ele><time>2026-04-18T10:09:57.999Z</time></trkpt><trkpt lat="44.2564765422741" lon="10.175727028440146"><ele>628.6666666666666</ele><time>2026-04-18T10:09:58.999Z</time></trkpt><trkpt lat="44.25653806666624" lon="10.175546929609265"><ele>624.3333333333333</ele><time>2026-04-18T10:09:59.999Z</time></trkpt><trkpt lat="44.25652965255342" lon="10.175336772048908"><ele>620.0</ele><time>2026-04-18T10:10:00.999Z</time></trkpt><trkpt lat="44.256446326361434" lon="10.17512921723486"><ele>620.0</ele><time>2026-04-18T10:10:01.999Z</time></trkpt><trkpt lat="44.2563186157522" lon="10.17493189456192"><ele>620.0</ele><time>2026-04-18T10:10:02.999Z</time></trkpt><trkpt lat="44.25621667478611" lon="10.174790871664033"><ele>620.0</ele><time>2026-04-18T10:10:03.999Z</time></trkpt><trkpt lat="44.25617708462368" lon="10.174642059758305"><ele>620.0</ele><time>2026-04-18T10:10:04.999Z</time></trkpt><trkpt lat="44.25617488112775" lon="10.174451323343433"><ele>620.0</ele><time>2026-04-18T10:10:05.999Z</time></trkpt><trkpt lat="44.256176336653226" lon="10.174246094065367"><ele>620.0</ele><time>2026-04-18T10:10:06.999Z</time></trkpt><trkpt lat="44.256199970128385" lon="10.174071565169404"><ele>620.0</ele><time>2026-04-18T10:10:07.999Z</time></trkpt><trkpt lat="44.25626742837352" lon="10.173921817027285"><ele>620.0</ele><time>2026-04-18T10:10:08.999Z</time></trkpt><trkpt lat="44.256382394448266" lon="10.17378095463027"><ele>628.6666666666666</ele><time>2026-04-18T10:10:09.999Z</time></trkpt><trkpt lat="44.25649340261022" lon="10.173614981442254"><ele>637.3333333333334</ele><time>2026-04-18T10:10:10.999Z</time></trkpt><trkpt lat="44.25658803941419" lon="10.173430416945335"><ele>646.0</ele><time>2026-04-18T10:10:11.999Z</time></trkpt><trkpt lat="44.25667760572981" lon="10.173240388795143"><ele>645.3333333333334</ele><time>2026-04-18T10:10:12.999Z</time></trkpt><trkpt lat="44.25676620523966" lon="10.173034984959303"><ele>644.6666666666666</ele><time>2026-04-18T10:10:13.999Z</time></trkpt><trkpt lat="44.256848619582975" lon="10.172824991682877"><ele>644.0</ele><time>2026-04-18T10:10:14.999Z</time></trkpt><trkpt lat="44.25693346440116" lon="10.172615199769812"><ele>644.0</ele><time>2026-04-18T10:10:15.999Z</time></trkpt><trkpt lat="44.25702718723957" lon="10.172453458883247"><ele>644.0</ele><time>2026-04-18T10:10:16.999Z</time></trkpt><trkpt lat="44.25712905160663" lon="10.172317921642955"><ele>644.0</ele><time>2026-04-18T10:10:17.999Z</time></trkpt><trkpt lat="44.25724423239392" lon="10.17218907256863"><ele>644.0</ele><time>2026-04-18T10:10:18.999Z</time></trkpt><trkpt lat="44.25737286349386" lon="10.172098327852856"><ele>643.0</ele><time>2026-04-18T10:10:19.999Z</time></trkpt><trkpt lat="44.25749968370617" lon="10.172054444370483"><ele>642.0</ele><time>2026-04-18T10:10:20.999Z</time></trkpt><trkpt lat="44.2576322985338" lon="10.172057281419281"><ele>641.0</ele><time>2026-04-18T10:10:21.999Z</time></trkpt><trkpt lat="44.25776663825902" lon="10.172097496974638"><ele>640.0</ele><time>2026-04-18T10:10:22.999Z</time></trkpt><trkpt lat="44.2578820724209" lon="10.17221141350329"><ele>640.0</ele><time>2026-04-18T10:10:23.999Z</time></trkpt><trkpt lat="44.258009076299494" lon="10.172343775274497"><ele>640.0</ele><time>2026-04-18T10:10:24.999Z</time></trkpt><trkpt lat="44.25816460514954" lon="10.172401893987155"><ele>640.0</ele><time>2026-04-18T10:10:25.999Z</time></trkpt><trkpt lat="44.25831599116444" lon="10.172383936600705"><ele>643.0</ele><time>2026-04-18T10:10:26.999Z</time></trkpt><trkpt lat="44.25839546823603" lon="10.172356221725853"><ele>646.0</ele><time>2026-04-18T10:10:27.999Z</time></trkpt><trkpt lat="44.25839061740695" lon="10.1725149277785"><ele>649.0</ele><time>2026-04-18T10:10:29.999Z</time></trkpt><trkpt lat="44.25831600982515" lon="10.172589917334491"><ele>652.0</ele><time>2026-04-18T10:10:30.999Z</time></trkpt><trkpt lat="44.258180635848696" lon="10.172585183921564"><ele>655.0</ele><time>2026-04-18T10:10:31.999Z</time></trkpt><trkpt lat="44.25800061276397" lon="10.172563097258662"><ele>655.5</ele><time>2026-04-18T10:10:32.999Z</time></trkpt><trkpt lat="44.2578147501901" lon="10.172549898344728"><ele>656.0</ele><time>2026-04-18T10:10:33.999Z</time></trkpt><trkpt lat="44.25768891568213" lon="10.172564145918253"><ele>656.5</ele><time>2026-04-18T10:10:34.999Z</time></trkpt><trkpt lat="44.257558357215146" lon="10.172608411733114"><ele>657.0</ele><time>2026-04-18T10:10:35.999Z</time></trkpt><trkpt lat="44.25746517598795" lon="10.172756465392123"><ele>657.0</ele><time>2026-04-18T10:10:36.999Z</time></trkpt><trkpt lat="44.257431974017635" lon="10.172906247387084"><ele>657.0</ele><time>2026-04-18T10:10:37.999Z</time></trkpt><trkpt lat="44.25744615209435" lon="10.173077116249658"><ele>657.0</ele><time>2026-04-18T10:10:38.999Z</time></trkpt><trkpt lat="44.2575134200881" lon="10.173250570448035"><ele>657.0</ele><time>2026-04-18T10:10:39.999Z</time></trkpt><trkpt lat="44.25756767374519" lon="10.17337215483428"><ele>659.2</ele><time>2026-04-18T10:10:40.999Z</time></trkpt><trkpt lat="44.25759050390713" lon="10.173468369716499"><ele>661.4000000000001</ele><time>2026-04-18T10:10:42.999Z</time></trkpt><trkpt lat="44.257632054027916" lon="10.173562294209527"><ele>663.5999999999999</ele><time>2026-04-18T10:10:44Z</time></trkpt><trkpt lat="44.25767548404542" lon="10.173736738525658"><ele>665.8</ele><time>2026-04-18T10:10:45Z</time></trkpt><trkpt lat="44.25769420482174" lon="10.173966309071147"><ele>668.0</ele><time>2026-04-18T10:10:46Z</time></trkpt><trkpt lat="44.257704028822076" lon="10.174217153900699"><ele>670.0</ele><time>2026-04-18T10:10:47Z</time></trkpt><trkpt lat="44.25770937840208" lon="10.174438375438436"><ele>672.0</ele><time>2026-04-18T10:10:48Z</time></trkpt><trkpt lat="44.25767736813822" lon="10.174645792050903"><ele>674.0</ele><time>2026-04-18T10:10:49Z</time></trkpt><trkpt lat="44.25759787235243" lon="10.174819580934914"><ele>675.0</ele><time>2026-04-18T10:10:50Z</time></trkpt><trkpt lat="44.25752009764128" lon="10.174970918461572"><ele>676.0</ele><time>2026-04-18T10:10:51Z</time></trkpt><trkpt lat="44.25748379785404" lon="10.175105667932312"><ele>677.0</ele><time>2026-04-18T10:10:52Z</time></trkpt><trkpt lat="44.25748550390786" lon="10.17523607076071"><ele>678.0</ele><time>2026-04-18T10:10:53Z</time></trkpt><trkpt lat="44.25754066570367" lon="10.175351540386835"><ele>679.0</ele><time>2026-04-18T10:10:54Z</time></trkpt><trkpt lat="44.25764593806946" lon="10.175456783205426"><ele>679.0</ele><time>2026-04-18T10:10:55Z</time></trkpt><trkpt lat="44.25778301829153" lon="10.17559366708459"><ele>679.0</ele><time>2026-04-18T10:10:56Z</time></trkpt><trkpt lat="44.25789673062785" lon="10.175800212762638"><ele>679.0</ele><time>2026-04-18T10:10:57Z</time></trkpt><trkpt lat="44.257969133875875" lon="10.175998540808894"><ele>678.0</ele><time>2026-04-18T10:10:58Z</time></trkpt><trkpt lat="44.25805241693544" lon="10.176174058046232"><ele>677.0</ele><time>2026-04-18T10:10:59Z</time></trkpt><trkpt lat="44.258205414112176" lon="10.176346640183594"><ele>676.0</ele><time>2026-04-18T10:11:00Z</time></trkpt><trkpt lat="44.258377584970496" lon="10.176500818063614"><ele>678.6666666666667</ele><time>2026-04-18T10:11:01Z</time></trkpt><trkpt lat="44.25854856344467" lon="10.17665020820765"><ele>681.3333333333334</ele><time>2026-04-18T10:11:02Z</time></trkpt><trkpt lat="44.258682532129335" lon="10.17681166492581"><ele>684.0</ele><time>2026-04-18T10:11:03Z</time></trkpt><trkpt lat="44.258811534704286" lon="10.176980577520705"><ele>684.0</ele><time>2026-04-18T10:11:04Z</time></trkpt><trkpt lat="44.25891507087979" lon="10.177137014799884"><ele>684.0</ele><time>2026-04-18T10:11:05Z</time></trkpt><trkpt lat="44.25896878020701" lon="10.177303947122688"><ele>684.0</ele><time>2026-04-18T10:11:06Z</time></trkpt><trkpt lat="44.25899372278924" lon="10.177488086164395"><ele>684.0</ele><time>2026-04-18T10:11:07Z</time></trkpt><trkpt lat="44.25906037774855" lon="10.17764621891007"><ele>694.0</ele><time>2026-04-18T10:11:08Z</time></trkpt><trkpt lat="44.25919927281073" lon="10.177804456051208"><ele>704.0</ele><time>2026-04-18T10:11:09Z</time></trkpt><trkpt lat="44.25937651102527" lon="10.17794986426411"><ele>714.0</ele><time>2026-04-18T10:11:10Z</time></trkpt><trkpt lat="44.25951677562769" lon="10.17807438767544"><ele>714.0</ele><time>2026-04-18T10:11:11Z</time></trkpt><trkpt lat="44.25956783037058" lon="10.178174114703841"><ele>714.0</ele><time>2026-04-18T10:11:12Z</time></trkpt><trkpt lat="44.25961119170689" lon="10.178284027425578"><ele>714.0</ele><time>2026-04-18T10:11:13Z</time></trkpt><trkpt lat="44.25970628381859" lon="10.178508539451373"><ele>714.0</ele><time>2026-04-18T10:11:14Z</time></trkpt><trkpt lat="44.25970318509078" lon="10.178675693591678"><ele>710.0</ele><time>2026-04-18T10:11:15Z</time></trkpt><trkpt lat="44.25961411494125" lon="10.178793486005148"><ele>706.0</ele><time>2026-04-18T10:11:16Z</time></trkpt><trkpt lat="44.25952403451785" lon="10.178866913151532"><ele>702.0</ele><time>2026-04-18T10:11:17Z</time></trkpt><trkpt lat="44.259562287223524" lon="10.179007579080762"><ele>698.0</ele><time>2026-04-18T10:11:19Z</time></trkpt><trkpt lat="44.25965680955545" lon="10.179013924693237"><ele>694.0</ele><time>2026-04-18T10:11:20Z</time></trkpt><trkpt lat="44.259744776388814" lon="10.1789228151799"><ele>708.6666666666667</ele><time>2026-04-18T10:11:21Z</time></trkpt><trkpt lat="44.25981844296084" lon="10.178734579005479"><ele>723.3333333333334</ele><time>2026-04-18T10:11:22Z</time></trkpt><trkpt lat="44.25985126408898" lon="10.1785274169503"><ele>738.0</ele><time>2026-04-18T10:11:23Z</time></trkpt><trkpt lat="44.259820033926886" lon="10.178312184430535"><ele>730.0</ele><time>2026-04-18T10:11:24Z</time></trkpt><trkpt lat="44.25976181601968" lon="10.178094143753055"><ele>722.0</ele><time>2026-04-18T10:11:25Z</time></trkpt><trkpt lat="44.259656920137" lon="10.177903875950635"><ele>714.0</ele><time>2026-04-18T10:11:26Z</time></trkpt><trkpt lat="44.25952827184958" lon="10.177736676042425"><ele>714.0</ele><time>2026-04-18T10:11:27Z</time></trkpt><trkpt lat="44.2594188324364" lon="10.177601463186248"><ele>714.0</ele><time>2026-04-18T10:11:28Z</time></trkpt><trkpt lat="44.25933925628318" lon="10.177472708115005"><ele>714.0</ele><time>2026-04-18T10:11:29Z</time></trkpt><trkpt lat="44.25928803308181" lon="10.17734285626018"><ele>714.0</ele><time>2026-04-18T10:11:30Z</time></trkpt><trkpt lat="44.25927694744332" lon="10.177211207095825"><ele>717.6</ele><time>2026-04-18T10:11:31Z</time></trkpt><trkpt lat="44.25928262892432" lon="10.17708769928491"><ele>721.2</ele><time>2026-04-18T10:11:32Z</time></trkpt><trkpt lat="44.2592882219408" lon="10.176972331318044"><ele>724.8000000000001</ele><time>2026-04-18T10:11:33Z</time></trkpt><trkpt lat="44.25923950987097" lon="10.176841287178144"><ele>728.4000000000001</ele><time>2026-04-18T10:11:34Z</time></trkpt><trkpt lat="44.25913602362836" lon="10.176657335126228"><ele>732.0</ele><time>2026-04-18T10:11:35Z</time></trkpt><trkpt lat="44.2590104717888" lon="10.17645080032575"><ele>727.0</ele><time>2026-04-18T10:11:36Z</time></trkpt><trkpt lat="44.2588833832141" lon="10.176243369207016"><ele>722.0</ele><time>2026-04-18T10:11:37Z</time></trkpt><trkpt lat="44.2587388185074" lon="10.17599446195786"><ele>717.0</ele><time>2026-04-18T10:11:38Z</time></trkpt><trkpt lat="44.25861363495609" lon="10.175802647962517"><ele>718.25</ele><time>2026-04-18T10:11:39Z</time></trkpt><trkpt lat="44.25854757052829" lon="10.175636093141794"><ele>719.5</ele><time>2026-04-18T10:11:40Z</time></trkpt><trkpt lat="44.25851060097879" lon="10.175451170181795"><ele>720.75</ele><time>2026-04-18T10:11:41Z</time></trkpt><trkpt lat="44.258521665264695" lon="10.17523705085718"><ele>722.0</ele><time>2026-04-18T10:11:42Z</time></trkpt><trkpt lat="44.25854235868894" lon="10.174988750746346"><ele>719.75</ele><time>2026-04-18T10:11:43Z</time></trkpt><trkpt lat="44.258543987450146" lon="10.174752110882796"><ele>717.5</ele><time>2026-04-18T10:11:44Z</time></trkpt><trkpt lat="44.25856643707006" lon="10.174551897395064"><ele>715.25</ele><time>2026-04-18T10:11:45Z</time></trkpt><trkpt lat="44.258644600522736" lon="10.174425144841175"><ele>713.0</ele><time>2026-04-18T10:11:46Z</time></trkpt><trkpt lat="44.258754624960815" lon="10.174387529702276"><ele>713.0</ele><time>2026-04-18T10:11:47Z</time></trkpt><trkpt lat="44.2589152099224" lon="10.174379931356103"><ele>713.0</ele><time>2026-04-18T10:11:48Z</time></trkpt><trkpt lat="44.2590804862623" lon="10.174459475826941"><ele>713.0</ele><time>2026-04-18T10:11:49Z</time></trkpt><trkpt lat="44.25925118407307" lon="10.174602778871684"><ele>718.3333333333333</ele><time>2026-04-18T10:11:50Z</time></trkpt><trkpt lat="44.259425424351484" lon="10.174715191453796"><ele>723.6666666666666</ele><time>2026-04-18T10:11:51Z</time></trkpt><trkpt lat="44.259580921440886" lon="10.174750459547226"><ele>729.0</ele><time>2026-04-18T10:11:51.999Z</time></trkpt><trkpt lat="44.25977433846759" lon="10.174763624327543"><ele>748.5</ele><time>2026-04-18T10:11:52.999Z</time></trkpt><trkpt lat="44.26003146232865" lon="10.17487395434339"><ele>768.0</ele><time>2026-04-18T10:11:53.999Z</time></trkpt><trkpt lat="44.26028842711915" lon="10.174865084466902"><ele>768.0</ele><time>2026-04-18T10:11:54.999Z</time></trkpt><trkpt lat="44.26051769908794" lon="10.174869986393086"><ele>768.0</ele><time>2026-04-18T10:11:55.999Z</time></trkpt><trkpt lat="44.260727751567245" lon="10.17491169475481"><ele>768.0</ele><time>2026-04-18T10:11:56.999Z</time></trkpt><trkpt lat="44.26091704252668" lon="10.174960321815318"><ele>768.25</ele><time>2026-04-18T10:11:57.999Z</time></trkpt><trkpt lat="44.26108906522296" lon="10.174998037837298"><ele>768.5</ele><time>2026-04-18T10:11:58.999Z</time></trkpt><trkpt lat="44.26123890474075" lon="10.175026917902391"><ele>768.75</ele><time>2026-04-18T10:11:59.999Z</time></trkpt><trkpt lat="44.26135389440085" lon="10.175051137709485"><ele>769.0</ele><time>2026-04-18T10:12:00.999Z</time></trkpt><trkpt lat="44.26144887890979" lon="10.175001921703625"><ele>765.6666666666666</ele><time>2026-04-18T10:12:01.999Z</time></trkpt><trkpt lat="44.26155822844067" lon="10.174855074043457"><ele>762.3333333333333</ele><time>2026-04-18T10:12:02.999Z</time></trkpt><trkpt lat="44.26169832068956" lon="10.174729371759168"><ele>759.0</ele><time>2026-04-18T10:12:03.999Z</time></trkpt><trkpt lat="44.261893468136684" lon="10.174676827307763"><ele>759.0</ele><time>2026-04-18T10:12:04.999Z</time></trkpt><trkpt lat="44.26205447700514" lon="10.174628922940315"><ele>759.0</ele><time>2026-04-18T10:12:05.999Z</time></trkpt><trkpt lat="44.262165908771415" lon="10.174518949012556"><ele>759.0</ele><time>2026-04-18T10:12:06.999Z</time></trkpt><trkpt lat="44.2622292614439" lon="10.174344485415164"><ele>759.0</ele><time>2026-04-18T10:12:07.999Z</time></trkpt><trkpt lat="44.26224666832281" lon="10.17413316727883"><ele>765.3333333333333</ele><time>2026-04-18T10:12:08.999Z</time></trkpt><trkpt lat="44.26220088151968" lon="10.17391839184962"><ele>771.6666666666666</ele><time>2026-04-18T10:12:09.999Z</time></trkpt><trkpt lat="44.26209159817114" lon="10.173694946195143"><ele>778.0</ele><time>2026-04-18T10:12:10.999Z</time></trkpt><trkpt lat="44.261936780170934" lon="10.173468614594226"><ele>778.0</ele><time>2026-04-18T10:12:11.999Z</time></trkpt><trkpt lat="44.261786244484874" lon="10.173237085923256"><ele>778.0</ele><time>2026-04-18T10:12:12.999Z</time></trkpt><trkpt lat="44.26164241723704" lon="10.172985571126489"><ele>783.0</ele><time>2026-04-18T10:12:13.999Z</time></trkpt><trkpt lat="44.26150680192579" lon="10.172747308393081"><ele>788.0</ele><time>2026-04-18T10:12:14.999Z</time></trkpt><trkpt lat="44.26140621973506" lon="10.172473916695514"><ele>793.0</ele><time>2026-04-18T10:12:15.999Z</time></trkpt><trkpt lat="44.26131549332709" lon="10.172220128666797"><ele>793.0</ele><time>2026-04-18T10:12:16.999Z</time></trkpt><trkpt lat="44.261212704414774" lon="10.172007397075921"><ele>793.0</ele><time>2026-04-18T10:12:17.999Z</time></trkpt><trkpt lat="44.261072844059754" lon="10.1718619570722"><ele>793.0</ele><time>2026-04-18T10:12:18.999Z</time></trkpt><trkpt lat="44.26091000294588" lon="10.171788333401924"><ele>793.0</ele><time>2026-04-18T10:12:19.999Z</time></trkpt><trkpt lat="44.26079909767674" lon="10.171693995040565"><ele>793.0</ele><time>2026-04-18T10:12:20.999Z</time></trkpt><trkpt lat="44.260729701384186" lon="10.171493041938172"><ele>793.0</ele><time>2026-04-18T10:12:21.999Z</time></trkpt><trkpt lat="44.260654100135035" lon="10.171230265564033"><ele>786.3333333333333</ele><time>2026-04-18T10:12:22.999Z</time></trkpt><trkpt lat="44.26053806053211" lon="10.170980823208751"><ele>779.6666666666667</ele><time>2026-04-18T10:12:23.999Z</time></trkpt><trkpt lat="44.26041926174894" lon="10.170750031133549"><ele>773.0</ele><time>2026-04-18T10:12:24.999Z</time></trkpt><trkpt lat="44.26035673249231" lon="10.170552654029642"><ele>773.0</ele><time>2026-04-18T10:12:25.999Z</time></trkpt><trkpt lat="44.260330532524435" lon="10.170375307399182"><ele>773.0</ele><time>2026-04-18T10:12:26.999Z</time></trkpt><trkpt lat="44.26038410549142" lon="10.170181966396543"><ele>773.0</ele><time>2026-04-18T10:12:27.999Z</time></trkpt><trkpt lat="44.260467770733726" lon="10.17003839597912"><ele>773.0</ele><time>2026-04-18T10:12:28.999Z</time></trkpt><trkpt lat="44.260591156545935" lon="10.169899263565549"><ele>789.6666666666667</ele><time>2026-04-18T10:12:29.999Z</time></trkpt><trkpt lat="44.26069174506106" lon="10.169732393546925"><ele>806.3333333333333</ele><time>2026-04-18T10:12:30.999Z</time></trkpt><trkpt lat="44.260752455410675" lon="10.169561459975808"><ele>823.0</ele><time>2026-04-18T10:12:31.999Z</time></trkpt><trkpt lat="44.260736375408854" lon="10.169331641770638"><ele>823.0</ele><time>2026-04-18T10:12:32.999Z</time></trkpt><trkpt lat="44.26066222294337" lon="10.169065192838"><ele>823.0</ele><time>2026-04-18T10:12:33.999Z</time></trkpt><trkpt lat="44.26054658897129" lon="10.168833713044203"><ele>823.0</ele><time>2026-04-18T10:12:34.999Z</time></trkpt><trkpt lat="44.26045067834137" lon="10.168646523616836"><ele>811.0</ele><time>2026-04-18T10:12:35.999Z</time></trkpt><trkpt lat="44.26042144660242" lon="10.168409403431507"><ele>799.0</ele><time>2026-04-18T10:12:36.999Z</time></trkpt><trkpt lat="44.26043948845605" lon="10.168167130235679"><ele>787.0</ele><time>2026-04-18T10:12:37.999Z</time></trkpt><trkpt lat="44.26050975649807" lon="10.16794973439827"><ele>786.0</ele><time>2026-04-18T10:12:38.999Z</time></trkpt><trkpt lat="44.26057754337899" lon="10.167670832463477"><ele>785.0</ele><time>2026-04-18T10:12:39.999Z</time></trkpt><trkpt lat="44.260667982062756" lon="10.167402802547068"><ele>784.0</ele><time>2026-04-18T10:12:40.999Z</time></trkpt><trkpt lat="44.26071374354369" lon="10.167164232493445"><ele>796.6666666666666</ele><time>2026-04-18T10:12:41.999Z</time></trkpt><trkpt lat="44.260708476624814" lon="10.166914482161477"><ele>809.3333333333333</ele><time>2026-04-18T10:12:42.999Z</time></trkpt><trkpt lat="44.26063657294903" lon="10.166670092918794"><ele>822.0</ele><time>2026-04-18T10:12:43.999Z</time></trkpt><trkpt lat="44.2605186577942" lon="10.166434325961122"><ele>822.0</ele><time>2026-04-18T10:12:44.999Z</time></trkpt><trkpt lat="44.26038186927652" lon="10.16622827710715"><ele>822.0</ele><time>2026-04-18T10:12:45.999Z</time></trkpt><trkpt lat="44.260260265854036" lon="10.166080743376192"><ele>822.0</ele><time>2026-04-18T10:12:46.999Z</time></trkpt><trkpt lat="44.26017702310704" lon="10.165957896273248"><ele>822.0</ele><time>2026-04-18T10:12:47.999Z</time></trkpt><trkpt lat="44.26012890720846" lon="10.165790709475509"><ele>822.0</ele><time>2026-04-18T10:12:48.999Z</time></trkpt><trkpt lat="44.26014467208737" lon="10.165671459081572"><ele>822.0</ele><time>2026-04-18T10:12:50Z</time></trkpt><trkpt lat="44.26020422894808" lon="10.16561490697976"><ele>822.0</ele><time>2026-04-18T10:12:51Z</time></trkpt><trkpt lat="44.26028494518989" lon="10.165584472948435"><ele>822.0</ele><time>2026-04-18T10:12:52Z</time></trkpt><trkpt lat="44.26039735473768" lon="10.16566314467007"><ele>822.0</ele><time>2026-04-18T10:12:53Z</time></trkpt><trkpt lat="44.26048610833551" lon="10.165871399362224"><ele>822.0</ele><time>2026-04-18T10:12:54Z</time></trkpt><trkpt lat="44.26058639077238" lon="10.166120113921005"><ele>822.0</ele><time>2026-04-18T10:12:55Z</time></trkpt><trkpt lat="44.260683340623" lon="10.166309505460639"><ele>824.3333333333333</ele><time>2026-04-18T10:12:56Z</time></trkpt><trkpt lat="44.2608295108642" lon="10.166469397496032"><ele>826.6666666666666</ele><time>2026-04-18T10:12:57Z</time></trkpt><trkpt lat="44.26102837792071" lon="10.166590697810122"><ele>829.0</ele><time>2026-04-18T10:12:58Z</time></trkpt><trkpt lat="44.26125198582041" lon="10.16668324076337"><ele>832.5</ele><time>2026-04-18T10:12:59Z</time></trkpt><trkpt lat="44.26143997700778" lon="10.166841555178578"><ele>836.0</ele><time>2026-04-18T10:13:00Z</time></trkpt><trkpt lat="44.26164962724693" lon="10.167020215953604"><ele>838.0</ele><time>2026-04-18T10:13:01Z</time></trkpt><trkpt lat="44.26187189096589" lon="10.167192864347555"><ele>840.0</ele><time>2026-04-18T10:13:02Z</time></trkpt><trkpt lat="44.26210622585655" lon="10.167350384805607"><ele>845.6666666666667</ele><time>2026-04-18T10:13:03Z</time></trkpt><trkpt lat="44.262298486508165" lon="10.167519488065354"><ele>851.3333333333334</ele><time>2026-04-18T10:13:04Z</time></trkpt><trkpt lat="44.26245887787733" lon="10.167684793992105"><ele>857.0</ele><time>2026-04-18T10:13:05Z</time></trkpt><trkpt lat="44.26259983024539" lon="10.167820859984074"><ele>857.0</ele><time>2026-04-18T10:13:06Z</time></trkpt><trkpt lat="44.26277589448236" lon="10.167909490801435"><ele>857.0</ele><time>2026-04-18T10:13:07Z</time></trkpt><trkpt lat="44.262982306291555" lon="10.167927857102399"><ele>857.0</ele><time>2026-04-18T10:13:08Z</time></trkpt><trkpt lat="44.263185364041874" lon="10.167867460806146"><ele>857.5</ele><time>2026-04-18T10:13:09Z</time></trkpt><trkpt lat="44.26335075920092" lon="10.167789760469633"><ele>858.0</ele><time>2026-04-18T10:13:10Z</time></trkpt><trkpt lat="44.263472363406386" lon="10.167720533387818"><ele>858.5</ele><time>2026-04-18T10:13:11Z</time></trkpt><trkpt lat="44.263566098755895" lon="10.167677112105894"><ele>859.0</ele><time>2026-04-18T10:13:12Z</time></trkpt><trkpt lat="44.26366283158022" lon="10.167698425435304"><ele>859.0</ele><time>2026-04-18T10:13:13Z</time></trkpt><trkpt lat="44.26375266667814" lon="10.16778012258446"><ele>859.0</ele><time>2026-04-18T10:13:14Z</time></trkpt><trkpt lat="44.26383548741082" lon="10.167947895210109"><ele>859.0</ele><time>2026-04-18T10:13:15Z</time></trkpt><trkpt lat="44.26394665289574" lon="10.168185209376048"><ele>861.3333333333333</ele><time>2026-04-18T10:13:16Z</time></trkpt><trkpt lat="44.26401610769128" lon="10.168378061624605"><ele>863.6666666666667</ele><time>2026-04-18T10:13:17Z</time></trkpt><trkpt lat="44.26404580498744" lon="10.168577127227513"><ele>866.0</ele><time>2026-04-18T10:13:18Z</time></trkpt><trkpt lat="44.26405124977327" lon="10.168846951701926"><ele>869.0</ele><time>2026-04-18T10:13:19Z</time></trkpt><trkpt lat="44.26406735100182" lon="10.169135378150248"><ele>872.0</ele><time>2026-04-18T10:13:20Z</time></trkpt><trkpt lat="44.264056606130254" lon="10.169432624676487"><ele>875.0</ele><time>2026-04-18T10:13:21Z</time></trkpt><trkpt lat="44.264056526642825" lon="10.16973055938076"><ele>877.0</ele><time>2026-04-18T10:13:22Z</time></trkpt><trkpt lat="44.26406086482269" lon="10.170030207010893"><ele>879.0</ele><time>2026-04-18T10:13:23Z</time></trkpt><trkpt lat="44.26405542204074" lon="10.170303037444718"><ele>881.0</ele><time>2026-04-18T10:13:24Z</time></trkpt><trkpt lat="44.264058442917005" lon="10.170542191529288"><ele>884.3333333333334</ele><time>2026-04-18T10:13:25Z</time></trkpt><trkpt lat="44.264084985187594" lon="10.170757804531508"><ele>887.6666666666667</ele><time>2026-04-18T10:13:26Z</time></trkpt><trkpt lat="44.26417203574181" lon="10.170995447043628"><ele>891.0</ele><time>2026-04-18T10:13:27Z</time></trkpt><trkpt lat="44.26430835033113" lon="10.171254872555414"><ele>891.0</ele><time>2026-04-18T10:13:28Z</time></trkpt><trkpt lat="44.264449676865425" lon="10.171522088434273"><ele>891.0</ele><time>2026-04-18T10:13:29Z</time></trkpt><trkpt lat="44.264578127638714" lon="10.17179222800061"><ele>894.3333333333333</ele><time>2026-04-18T10:13:30Z</time></trkpt><trkpt lat="44.26469265178366" lon="10.172036589648839"><ele>897.6666666666666</ele><time>2026-04-18T10:13:31Z</time></trkpt><trkpt lat="44.26480709534009" lon="10.17226609151859"><ele>901.0</ele><time>2026-04-18T10:13:32Z</time></trkpt><trkpt lat="44.264937261384944" lon="10.172460296806822"><ele>901.0</ele><time>2026-04-18T10:13:33Z</time></trkpt><trkpt lat="44.26508460933993" lon="10.172595253739582"><ele>901.0</ele><time>2026-04-18T10:13:34Z</time></trkpt><trkpt lat="44.26518124524296" lon="10.172705386393439"><ele>901.0</ele><time>2026-04-18T10:13:35Z</time></trkpt><trkpt lat="44.26521862584023" lon="10.172830497086228"><ele>901.0</ele><time>2026-04-18T10:13:36Z</time></trkpt><trkpt lat="44.265150289671574" lon="10.1729973980542"><ele>906.0</ele><time>2026-04-18T10:13:37Z</time></trkpt><trkpt lat="44.26511827943569" lon="10.173243700158807"><ele>911.0</ele><time>2026-04-18T10:13:38Z</time></trkpt><trkpt lat="44.26508590945698" lon="10.173526304273103"><ele>916.0</ele><time>2026-04-18T10:13:39Z</time></trkpt><trkpt lat="44.2650986528241" lon="10.173835126355758"><ele>918.6666666666666</ele><time>2026-04-18T10:13:40Z</time></trkpt><trkpt lat="44.2651509005517" lon="10.174150574165733"><ele>921.3333333333333</ele><time>2026-04-18T10:13:41Z</time></trkpt><trkpt lat="44.26522377472493" lon="10.174419951066971"><ele>924.0</ele><time>2026-04-18T10:13:42Z</time></trkpt><trkpt lat="44.265259157196795" lon="10.174693904042877"><ele>925.0</ele><time>2026-04-18T10:13:43Z</time></trkpt><trkpt lat="44.26528306552061" lon="10.17495650048944"><ele>926.0</ele><time>2026-04-18T10:13:44Z</time></trkpt><trkpt lat="44.26527804921405" lon="10.17523707985814"><ele>927.0</ele><time>2026-04-18T10:13:45Z</time></trkpt><trkpt lat="44.265235600525585" lon="10.175555038275478"><ele>926.0</ele><time>2026-04-18T10:13:46Z</time></trkpt><trkpt lat="44.26520360274899" lon="10.175864015478062"><ele>925.0</ele><time>2026-04-18T10:13:47Z</time></trkpt><trkpt lat="44.2651766075457" lon="10.176147912560271"><ele>924.0</ele><time>2026-04-18T10:13:48Z</time></trkpt><trkpt lat="44.265182213102534" lon="10.176446571280795"><ele>925.3333333333333</ele><time>2026-04-18T10:13:49Z</time></trkpt><trkpt lat="44.26519808564223" lon="10.176763894366989"><ele>926.6666666666666</ele><time>2026-04-18T10:13:50Z</time></trkpt><trkpt lat="44.265212482083854" lon="10.177041365996587"><ele>928.0</ele><time>2026-04-18T10:13:51Z</time></trkpt><trkpt lat="44.26526387055785" lon="10.177260407334801"><ele>930.0</ele><time>2026-04-18T10:13:52Z</time></trkpt><trkpt lat="44.265311543583046" lon="10.177458926572626"><ele>932.0</ele><time>2026-04-18T10:13:53Z</time></trkpt><trkpt lat="44.26530882217274" lon="10.177636563012966"><ele>934.0</ele><time>2026-04-18T10:13:54Z</time></trkpt><trkpt lat="44.26527650195372" lon="10.177859704893756"><ele>936.0</ele><time>2026-04-18T10:13:55Z</time></trkpt><trkpt lat="44.26523855020748" lon="10.178120654693476"><ele>940.0</ele><time>2026-04-18T10:13:56Z</time></trkpt><trkpt lat="44.26521094691874" lon="10.178407183582998"><ele>944.0</ele><time>2026-04-18T10:13:57Z</time></trkpt><trkpt lat="44.26517347443234" lon="10.17864339214616"><ele>948.0</ele><time>2026-04-18T10:13:57.999Z</time></trkpt><trkpt lat="44.26515333872916" lon="10.178830304707821"><ele>948.0</ele><time>2026-04-18T10:13:58.999Z</time></trkpt><trkpt lat="44.265173583696985" lon="10.178990328660177"><ele>948.0</ele><time>2026-04-18T10:13:59.999Z</time></trkpt><trkpt lat="44.265259402208315" lon="10.179128636800206"><ele>948.0</ele><time>2026-04-18T10:14:00.999Z</time></trkpt><trkpt lat="44.26540732103161" lon="10.17919650234065"><ele>948.0</ele><time>2026-04-18T10:14:01.999Z</time></trkpt><trkpt lat="44.26559301816824" lon="10.179194754103378"><ele>945.0</ele><time>2026-04-18T10:14:02.999Z</time></trkpt><trkpt lat="44.26579924963038" lon="10.179167470093423"><ele>942.0</ele><time>2026-04-18T10:14:03.999Z</time></trkpt><trkpt lat="44.266006155063224" lon="10.179218590716106"><ele>939.0</ele><time>2026-04-18T10:14:04.999Z</time></trkpt><trkpt lat="44.26617997277854" lon="10.179291289770594"><ele>939.0</ele><time>2026-04-18T10:14:05.999Z</time></trkpt><trkpt lat="44.26633570208395" lon="10.179402672543825"><ele>939.0</ele><time>2026-04-18T10:14:06.999Z</time></trkpt><trkpt lat="44.26650673030818" lon="10.179544682780875"><ele>939.0</ele><time>2026-04-18T10:14:07.999Z</time></trkpt><trkpt lat="44.26665917736446" lon="10.179652568267603"><ele>936.5</ele><time>2026-04-18T10:14:08.999Z</time></trkpt><trkpt lat="44.26676981306152" lon="10.179730294397356"><ele>934.0</ele><time>2026-04-18T10:14:09.999Z</time></trkpt><trkpt lat="44.26686876258164" lon="10.179750735771995"><ele>931.5</ele><time>2026-04-18T10:14:10.999Z</time></trkpt><trkpt lat="44.266999199418045" lon="10.179667537979718"><ele>929.0</ele><time>2026-04-18T10:14:11.999Z</time></trkpt><trkpt lat="44.26715522494518" lon="10.17953042294613"><ele>930.3333333333334</ele><time>2026-04-18T10:14:12.999Z</time></trkpt><trkpt lat="44.26733383830078" lon="10.17945060462892"><ele>931.6666666666667</ele><time>2026-04-18T10:14:13.999Z</time></trkpt><trkpt lat="44.26749895316442" lon="10.179398536823161"><ele>933.0</ele><time>2026-04-18T10:14:14.999Z</time></trkpt><trkpt lat="44.26761748852288" lon="10.179423356268776"><ele>933.0</ele><time>2026-04-18T10:14:15.999Z</time></trkpt><trkpt lat="44.26767922046803" lon="10.179513467271779"><ele>933.0</ele><time>2026-04-18T10:14:16.999Z</time></trkpt><trkpt lat="44.26776097548081" lon="10.17963122897922"><ele>933.0</ele><time>2026-04-18T10:14:17.999Z</time></trkpt><trkpt lat="44.26784988005472" lon="10.17976021336613"><ele>933.0</ele><time>2026-04-18T10:14:18.999Z</time></trkpt><trkpt lat="44.267953764557525" lon="10.179793924943914"><ele>933.0</ele><time>2026-04-18T10:14:19.999Z</time></trkpt><trkpt lat="44.268071139908784" lon="10.179712477726417"><ele>940.0</ele><time>2026-04-18T10:14:20.999Z</time></trkpt><trkpt lat="44.26816895405262" lon="10.179527132492577"><ele>947.0</ele><time>2026-04-18T10:14:21.999Z</time></trkpt><trkpt lat="44.26827478699407" lon="10.17930326955803"><ele>954.0</ele><time>2026-04-18T10:14:22.999Z</time></trkpt><trkpt lat="44.26837774181369" lon="10.179147379247631"><ele>954.0</ele><time>2026-04-18T10:14:23.999Z</time></trkpt><trkpt lat="44.26851741209773" lon="10.179063312822857"><ele>954.0</ele><time>2026-04-18T10:14:24.999Z</time></trkpt><trkpt lat="44.26869147485013" lon="10.178955132877913"><ele>954.0</ele><time>2026-04-18T10:14:25.999Z</time></trkpt><trkpt lat="44.268887445687334" lon="10.178881554157732"><ele>947.6666666666667</ele><time>2026-04-18T10:14:26.999Z</time></trkpt><trkpt lat="44.26905746748495" lon="10.178757108449428"><ele>941.3333333333334</ele><time>2026-04-18T10:14:27.999Z</time></trkpt><trkpt lat="44.269175893094115" lon="10.178626319959031"><ele>935.0</ele><time>2026-04-18T10:14:28.999Z</time></trkpt><trkpt lat="44.26932648615549" lon="10.178609258759899"><ele>935.0</ele><time>2026-04-18T10:14:29.999Z</time></trkpt><trkpt lat="44.26951042468647" lon="10.178567823095973"><ele>935.0</ele><time>2026-04-18T10:14:30.999Z</time></trkpt><trkpt lat="44.269714649582866" lon="10.1785403767962"><ele>935.0</ele><time>2026-04-18T10:14:31.999Z</time></trkpt><trkpt lat="44.26993700897161" lon="10.178438606008436"><ele>939.3333333333334</ele><time>2026-04-18T10:14:32.999Z</time></trkpt><trkpt lat="44.270143550976385" lon="10.178298733247754"><ele>943.6666666666667</ele><time>2026-04-18T10:14:33.999Z</time></trkpt><trkpt lat="44.270317338531356" lon="10.178185742511127"><ele>948.0</ele><time>2026-04-18T10:14:34.999Z</time></trkpt><trkpt lat="44.27045288258567" lon="10.178150277722791"><ele>946.5</ele><time>2026-04-18T10:14:35.999Z</time></trkpt><trkpt lat="44.27055227297673" lon="10.178141666271825"><ele>945.0</ele><time>2026-04-18T10:14:36.999Z</time></trkpt><trkpt lat="44.27063921667812" lon="10.178208823294135"><ele>943.5</ele><time>2026-04-18T10:14:37.999Z</time></trkpt><trkpt lat="44.270721444582364" lon="10.178340364533273"><ele>942.0</ele><time>2026-04-18T10:14:38.999Z</time></trkpt><trkpt lat="44.27077770885999" lon="10.178547084820476"><ele>942.0</ele><time>2026-04-18T10:14:39.999Z</time></trkpt><trkpt lat="44.27086868306595" lon="10.178794570240369"><ele>942.0</ele><time>2026-04-18T10:14:40.999Z</time></trkpt><trkpt lat="44.27096094917539" lon="10.179048632477055"><ele>942.0</ele><time>2026-04-18T10:14:41.999Z</time></trkpt><trkpt lat="44.27105354826495" lon="10.179236922210094"><ele>947.3333333333333</ele><time>2026-04-18T10:14:42.999Z</time></trkpt><trkpt lat="44.2711969308226" lon="10.179474143762945"><ele>952.6666666666666</ele><time>2026-04-18T10:14:43.999Z</time></trkpt><trkpt lat="44.271262394899246" lon="10.179634492156502"><ele>958.0</ele><time>2026-04-18T10:14:44.999Z</time></trkpt><trkpt lat="44.271296526268245" lon="10.179822441022223"><ele>963.6666666666666</ele><time>2026-04-18T10:14:45.999Z</time></trkpt><trkpt lat="44.2713213119558" lon="10.180074356859741"><ele>969.3333333333333</ele><time>2026-04-18T10:14:46.999Z</time></trkpt><trkpt lat="44.27132555341474" lon="10.180288230933277"><ele>975.0</ele><time>2026-04-18T10:14:47.999Z</time></trkpt><trkpt lat="44.27128509997553" lon="10.180450734026365"><ele>975.0</ele><time>2026-04-18T10:14:48.999Z</time></trkpt><trkpt lat="44.271233518549565" lon="10.180654006600156"><ele>975.0</ele><time>2026-04-18T10:14:49.999Z</time></trkpt><trkpt lat="44.27120664103919" lon="10.180846416163277"><ele>975.0</ele><time>2026-04-18T10:14:50.999Z</time></trkpt><trkpt lat="44.27124089415682" lon="10.180989316463725"><ele>975.0</ele><time>2026-04-18T10:14:51.999Z</time></trkpt><trkpt lat="44.27133126879576" lon="10.181098970658132"><ele>963.6666666666667</ele><time>2026-04-18T10:14:52.999Z</time></trkpt><trkpt lat="44.27146836080934" lon="10.181131412687764"><ele>952.3333333333334</ele><time>2026-04-18T10:14:53.999Z</time></trkpt><trkpt lat="44.271636977242565" lon="10.181058868234548"><ele>941.0</ele><time>2026-04-18T10:14:54.999Z</time></trkpt><trkpt lat="44.2718136101583" lon="10.18092058502757"><ele>941.0</ele><time>2026-04-18T10:14:56Z</time></trkpt><trkpt lat="44.2720209963421" lon="10.180784472859635"><ele>941.0</ele><time>2026-04-18T10:14:57Z</time></trkpt><trkpt lat="44.272256504946284" lon="10.180674009183866"><ele>931.6666666666667</ele><time>2026-04-18T10:14:58Z</time></trkpt><trkpt lat="44.27248847088348" lon="10.180524517065592"><ele>922.3333333333333</ele><time>2026-04-18T10:14:59Z</time></trkpt><trkpt lat="44.27266862211708" lon="10.18042753143707"><ele>913.0</ele><time>2026-04-18T10:15:00Z</time></trkpt><trkpt lat="44.27280755008975" lon="10.180364784341377"><ele>913.0</ele><time>2026-04-18T10:15:01Z</time></trkpt><trkpt lat="44.272943045875564" lon="10.180364467764257"><ele>913.0</ele><time>2026-04-18T10:15:02Z</time></trkpt><trkpt lat="44.27308825895891" lon="10.180406449621858"><ele>913.0</ele><time>2026-04-18T10:15:03Z</time></trkpt><trkpt lat="44.27328922386608" lon="10.180477247660013"><ele>916.3333333333333</ele><time>2026-04-18T10:15:04Z</time></trkpt><trkpt lat="44.27349891041172" lon="10.180553136801414"><ele>919.6666666666667</ele><time>2026-04-18T10:15:05Z</time></trkpt><trkpt lat="44.27370560574357" lon="10.180628088084774"><ele>923.0</ele><time>2026-04-18T10:15:06Z</time></trkpt><trkpt lat="44.2739012607148" lon="10.180709445815696"><ele>925.0</ele><time>2026-04-18T10:15:07Z</time></trkpt><trkpt lat="44.27406704370645" lon="10.180820986935482"><ele>927.0</ele><time>2026-04-18T10:15:08Z</time></trkpt><trkpt lat="44.27419250067857" lon="10.1809208332144"><ele>929.0</ele><time>2026-04-18T10:15:09Z</time></trkpt><trkpt lat="44.274269165041915" lon="10.181006302362501"><ele>931.0</ele><time>2026-04-18T10:15:10Z</time></trkpt><trkpt lat="44.27431052813667" lon="10.18114769372047"><ele>931.0</ele><time>2026-04-18T10:15:11Z</time></trkpt><trkpt lat="44.27429547829078" lon="10.181341134785994"><ele>931.0</ele><time>2026-04-18T10:15:12Z</time></trkpt><trkpt lat="44.27427885455088" lon="10.181603394359978"><ele>931.0</ele><time>2026-04-18T10:15:13Z</time></trkpt><trkpt lat="44.27429071783963" lon="10.18189369638082"><ele>937.0</ele><time>2026-04-18T10:15:14Z</time></trkpt><trkpt lat="44.274346133194335" lon="10.182132975726242"><ele>943.0</ele><time>2026-04-18T10:15:15Z</time></trkpt><trkpt lat="44.27443035858708" lon="10.182426873718516"><ele>949.0</ele><time>2026-04-18T10:15:16Z</time></trkpt><trkpt lat="44.27457374081099" lon="10.182670791987753"><ele>950.0</ele><time>2026-04-18T10:15:17Z</time></trkpt><trkpt lat="44.27475542643652" lon="10.182836716158793"><ele>951.0</ele><time>2026-04-18T10:15:18Z</time></trkpt><trkpt lat="44.27496357167645" lon="10.18298758275073"><ele>947.0</ele><time>2026-04-18T10:15:19Z</time></trkpt><trkpt lat="44.27513501142101" lon="10.183164310595643"><ele>943.0</ele><time>2026-04-18T10:15:20Z</time></trkpt><trkpt lat="44.27531062850454" lon="10.183323479369387"><ele>939.0</ele><time>2026-04-18T10:15:21Z</time></trkpt><trkpt lat="44.27545537191932" lon="10.18346738875381"><ele>939.0</ele><time>2026-04-18T10:15:22Z</time></trkpt><trkpt lat="44.27557250376529" lon="10.183629631949477"><ele>939.0</ele><time>2026-04-18T10:15:23Z</time></trkpt><trkpt lat="44.27565965306224" lon="10.183821373286447"><ele>939.0</ele><time>2026-04-18T10:15:24Z</time></trkpt><trkpt lat="44.27572922273198" lon="10.184083194929421"><ele>939.3333333333333</ele><time>2026-04-18T10:15:25Z</time></trkpt><trkpt lat="44.275818356764766" lon="10.18436011113479"><ele>939.6666666666666</ele><time>2026-04-18T10:15:26Z</time></trkpt><trkpt lat="44.2759494993195" lon="10.1846256445837"><ele>940.0</ele><time>2026-04-18T10:15:27Z</time></trkpt><trkpt lat="44.276090610213984" lon="10.18490880535935"><ele>940.0</ele><time>2026-04-18T10:15:28Z</time></trkpt><trkpt lat="44.27622002330372" lon="10.185179978311975"><ele>940.0</ele><time>2026-04-18T10:15:29Z</time></trkpt><trkpt lat="44.276340251022155" lon="10.185414196803208"><ele>940.0</ele><time>2026-04-18T10:15:30Z</time></trkpt><trkpt lat="44.2764690514842" lon="10.18560537100033"><ele>935.3333333333333</ele><time>2026-04-18T10:15:31Z</time></trkpt><trkpt lat="44.27664190269255" lon="10.185751681677003"><ele>930.6666666666667</ele><time>2026-04-18T10:15:32Z</time></trkpt><trkpt lat="44.27685614993323" lon="10.185884048703208"><ele>926.0</ele><time>2026-04-18T10:15:33Z</time></trkpt><trkpt lat="44.277054109858994" lon="10.18601397940753"><ele>926.0</ele><time>2026-04-18T10:15:34Z</time></trkpt><trkpt lat="44.27723386296753" lon="10.18611615609029"><ele>926.0</ele><time>2026-04-18T10:15:35Z</time></trkpt><trkpt lat="44.2774329694682" lon="10.186138369874232"><ele>926.0</ele><time>2026-04-18T10:15:36Z</time></trkpt><trkpt lat="44.27764946703652" lon="10.186096311653804"><ele>923.6666666666667</ele><time>2026-04-18T10:15:37Z</time></trkpt><trkpt lat="44.27783832431859" lon="10.185998121026685"><ele>921.3333333333333</ele><time>2026-04-18T10:15:38Z</time></trkpt><trkpt lat="44.2780095690433" lon="10.185830657523896"><ele>919.0</ele><time>2026-04-18T10:15:39Z</time></trkpt><trkpt lat="44.27815720239305" lon="10.185652633903576"><ele>916.0</ele><time>2026-04-18T10:15:40Z</time></trkpt><trkpt lat="44.27830958253946" lon="10.18556746046521"><ele>913.0</ele><time>2026-04-18T10:15:41Z</time></trkpt><trkpt lat="44.27851661203459" lon="10.185559508343147"><ele>910.0</ele><time>2026-04-18T10:15:42Z</time></trkpt><trkpt lat="44.27871699644735" lon="10.185502638091734"><ele>910.0</ele><time>2026-04-18T10:15:43Z</time></trkpt><trkpt lat="44.27887560521436" lon="10.18547151092999"><ele>910.0</ele><time>2026-04-18T10:15:44Z</time></trkpt><trkpt lat="44.27900048099812" lon="10.185498211164587"><ele>910.0</ele><time>2026-04-18T10:15:45Z</time></trkpt><trkpt lat="44.27910527398389" lon="10.185560863519253"><ele>910.0</ele><time>2026-04-18T10:15:46Z</time></trkpt><trkpt lat="44.27922299312618" lon="10.185712320457872"><ele>915.3333333333333</ele><time>2026-04-18T10:15:47Z</time></trkpt><trkpt lat="44.279305851915126" lon="10.185908550023267"><ele>920.6666666666667</ele><time>2026-04-18T10:15:48Z</time></trkpt><trkpt lat="44.27933502742164" lon="10.186120455352706"><ele>926.0</ele><time>2026-04-18T10:15:49Z</time></trkpt><trkpt lat="44.27930710487996" lon="10.186337825819257"><ele>927.3333333333334</ele><time>2026-04-18T10:15:50Z</time></trkpt><trkpt lat="44.27922027181526" lon="10.18653735254056"><ele>928.6666666666667</ele><time>2026-04-18T10:15:51Z</time></trkpt><trkpt lat="44.27906649636395" lon="10.186710397802946"><ele>930.0</ele><time>2026-04-18T10:15:52Z</time></trkpt><trkpt lat="44.278921451938054" lon="10.186932069042172"><ele>935.6666666666667</ele><time>2026-04-18T10:15:53Z</time></trkpt><trkpt lat="44.27881926461064" lon="10.187102205661054"><ele>941.3333333333334</ele><time>2026-04-18T10:15:54Z</time></trkpt><trkpt lat="44.27878522311002" lon="10.187307671280859"><ele>947.0</ele><time>2026-04-18T10:15:55Z</time></trkpt><trkpt lat="44.27881293947732" lon="10.18754629174619"><ele>955.5</ele><time>2026-04-18T10:15:56Z</time></trkpt><trkpt lat="44.27886653861542" lon="10.187853201432485"><ele>964.0</ele><time>2026-04-18T10:15:57Z</time></trkpt><trkpt lat="44.278919919990486" lon="10.188167405288215"><ele>957.3333333333333</ele><time>2026-04-18T10:15:58Z</time></trkpt><trkpt lat="44.278975041229714" lon="10.188474890268376"><ele>950.6666666666667</ele><time>2026-04-18T10:15:59Z</time></trkpt><trkpt lat="44.27903312132849" lon="10.188741350427053"><ele>944.0</ele><time>2026-04-18T10:16:00Z</time></trkpt><trkpt lat="44.279096473330306" lon="10.189059654941664"><ele>944.0</ele><time>2026-04-18T10:16:01Z</time></trkpt><trkpt lat="44.279188132058955" lon="10.18943640536565"><ele>944.0</ele><time>2026-04-18T10:16:02Z</time></trkpt><trkpt lat="44.2792729146602" lon="10.189763488058448"><ele>948.3333333333334</ele><time>2026-04-18T10:16:03Z</time></trkpt><trkpt lat="44.27934976232345" lon="10.190030559312355"><ele>952.6666666666667</ele><time>2026-04-18T10:16:04Z</time></trkpt><trkpt lat="44.27944326758458" lon="10.190278863422105"><ele>957.0</ele><time>2026-04-18T10:16:04.999Z</time></trkpt><trkpt lat="44.279553689757286" lon="10.190472319281305"><ele>957.0</ele><time>2026-04-18T10:16:05.999Z</time></trkpt><trkpt lat="44.27963592659708" lon="10.190665085989492"><ele>957.0</ele><time>2026-04-18T10:16:06.999Z</time></trkpt><trkpt lat="44.27968247248106" lon="10.1908604630007"><ele>957.0</ele><time>2026-04-18T10:16:07.999Z</time></trkpt><trkpt lat="44.27969375627903" lon="10.191088415514532"><ele>962.0</ele><time>2026-04-18T10:16:08.999Z</time></trkpt><trkpt lat="44.279694577421594" lon="10.191362352610872"><ele>967.0</ele><time>2026-04-18T10:16:09.999Z</time></trkpt><trkpt lat="44.27970552745854" lon="10.191656439343705"><ele>972.0</ele><time>2026-04-18T10:16:10.999Z</time></trkpt><trkpt lat="44.279686608711046" lon="10.191922042896602"><ele>975.6666666666667</ele><time>2026-04-18T10:16:11.999Z</time></trkpt><trkpt lat="44.27968098885213" lon="10.192161664073295"><ele>979.3333333333334</ele><time>2026-04-18T10:16:12.999Z</time></trkpt><trkpt lat="44.27967529561777" lon="10.192383445004229"><ele>983.0</ele><time>2026-04-18T10:16:13.999Z</time></trkpt><trkpt lat="44.27959820491285" lon="10.19258679602307"><ele>983.0</ele><time>2026-04-18T10:16:14.999Z</time></trkpt><trkpt lat="44.27949995830279" lon="10.192774879779927"><ele>983.0</ele><time>2026-04-18T10:16:15.999Z</time></trkpt><trkpt lat="44.279357890987995" lon="10.192959657236582"><ele>983.0</ele><time>2026-04-18T10:16:16.999Z</time></trkpt><trkpt lat="44.27919563231919" lon="10.193191801553738"><ele>986.5</ele><time>2026-04-18T10:16:17.999Z</time></trkpt><trkpt lat="44.2790148065442" lon="10.193404350167889"><ele>990.0</ele><time>2026-04-18T10:16:18.999Z</time></trkpt><trkpt lat="44.278851502796584" lon="10.19362127016317"><ele>990.0</ele><time>2026-04-18T10:16:19.999Z</time></trkpt><trkpt lat="44.278709059786564" lon="10.193855824373795"><ele>990.0</ele><time>2026-04-18T10:16:20.999Z</time></trkpt><trkpt lat="44.278599043365666" lon="10.194091093597468"><ele>990.0</ele><time>2026-04-18T10:16:21.999Z</time></trkpt><trkpt lat="44.27850368148105" lon="10.194350962064183"><ele>986.6666666666667</ele><time>2026-04-18T10:16:22.999Z</time></trkpt><trkpt lat="44.27843619813611" lon="10.194604862111905"><ele>983.3333333333334</ele><time>2026-04-18T10:16:23.999Z</time></trkpt><trkpt lat="44.27838860817229" lon="10.194834991179036"><ele>980.0</ele><time>2026-04-18T10:16:24.999Z</time></trkpt><trkpt lat="44.27836592198739" lon="10.195055764165364"><ele>976.0</ele><time>2026-04-18T10:16:25.999Z</time></trkpt><trkpt lat="44.27840095872713" lon="10.195276073583829"><ele>972.0</ele><time>2026-04-18T10:16:26.999Z</time></trkpt><trkpt lat="44.2784794398008" lon="10.195508981051605"><ele>968.0</ele><time>2026-04-18T10:16:27.999Z</time></trkpt><trkpt lat="44.2785360135514" lon="10.195778459269343"><ele>963.6666666666667</ele><time>2026-04-18T10:16:28.999Z</time></trkpt><trkpt lat="44.27861002212668" lon="10.196076750498657"><ele>959.3333333333333</ele><time>2026-04-18T10:16:29.999Z</time></trkpt><trkpt lat="44.27868261714893" lon="10.196371301239811"><ele>955.0</ele><time>2026-04-18T10:16:30.999Z</time></trkpt><trkpt lat="44.27876633993016" lon="10.196682642090014"><ele>955.0</ele><time>2026-04-18T10:16:31.999Z</time></trkpt><trkpt lat="44.278837937794975" lon="10.196995314459095"><ele>955.0</ele><time>2026-04-18T10:16:32.999Z</time></trkpt><trkpt lat="44.27891729212446" lon="10.197300095110853"><ele>957.6666666666666</ele><time>2026-04-18T10:16:33.999Z</time></trkpt><trkpt lat="44.27899833025344" lon="10.19759589961358"><ele>960.3333333333333</ele><time>2026-04-18T10:16:34.999Z</time></trkpt><trkpt lat="44.279086783484445" lon="10.197871193508083"><ele>963.0</ele><time>2026-04-18T10:16:35.999Z</time></trkpt><trkpt lat="44.27919658641623" lon="10.198115299476429"><ele>966.0</ele><time>2026-04-18T10:16:36.999Z</time></trkpt><trkpt lat="44.27929859786447" lon="10.19833469683997"><ele>969.0</ele><time>2026-04-18T10:16:37.999Z</time></trkpt><trkpt lat="44.279385906596076" lon="10.198510079205402"><ele>972.0</ele><time>2026-04-18T10:16:38.999Z</time></trkpt><trkpt lat="44.27948397419857" lon="10.198649171960795"><ele>972.0</ele><time>2026-04-18T10:16:39.999Z</time></trkpt><trkpt lat="44.27962066595011" lon="10.19874101820403"><ele>972.0</ele><time>2026-04-18T10:16:40.999Z</time></trkpt><trkpt lat="44.27979812854198" lon="10.198825969777468"><ele>972.0</ele><time>2026-04-18T10:16:41.999Z</time></trkpt><trkpt lat="44.279985662688425" lon="10.198904655390072"><ele>968.6666666666667</ele><time>2026-04-18T10:16:42.999Z</time></trkpt><trkpt lat="44.280167857558645" lon="10.198958640430053"><ele>965.3333333333334</ele><time>2026-04-18T10:16:43.999Z</time></trkpt><trkpt lat="44.28033721910719" lon="10.199046809465193"><ele>962.0</ele><time>2026-04-18T10:16:44.999Z</time></trkpt><trkpt lat="44.28049794805774" lon="10.199117831266154"><ele>959.6666666666667</ele><time>2026-04-18T10:16:45.999Z</time></trkpt><trkpt lat="44.28065592896659" lon="10.199138647221867"><ele>957.3333333333333</ele><time>2026-04-18T10:16:46.999Z</time></trkpt><trkpt lat="44.2808377987734" lon="10.19908811141215"><ele>955.0</ele><time>2026-04-18T10:16:47.999Z</time></trkpt><trkpt lat="44.28101632216712" lon="10.198989317744227"><ele>955.0</ele><time>2026-04-18T10:16:48.999Z</time></trkpt><trkpt lat="44.28120179209363" lon="10.19890212955467"><ele>955.0</ele><time>2026-04-18T10:16:49.999Z</time></trkpt><trkpt lat="44.281382262632214" lon="10.198811358838075"><ele>955.0</ele><time>2026-04-18T10:16:50.999Z</time></trkpt><trkpt lat="44.281548974488345" lon="10.198687566409506"><ele>962.6666666666666</ele><time>2026-04-18T10:16:51.999Z</time></trkpt><trkpt lat="44.28171601575263" lon="10.198563963700492"><ele>970.3333333333333</ele><time>2026-04-18T10:16:52.999Z</time></trkpt><trkpt lat="44.28186053514988" lon="10.198446679617549"><ele>978.0</ele><time>2026-04-18T10:16:53.999Z</time></trkpt><trkpt lat="44.281976244097756" lon="10.198324370457692"><ele>978.0</ele><time>2026-04-18T10:16:54.999Z</time></trkpt><trkpt lat="44.28206975260066" lon="10.198268185122371"><ele>978.0</ele><time>2026-04-18T10:16:55.999Z</time></trkpt><trkpt lat="44.28214518746087" lon="10.19832412049928"><ele>978.0</ele><time>2026-04-18T10:16:56.999Z</time></trkpt><trkpt lat="44.282242486507116" lon="10.198353804614348"><ele>978.0</ele><time>2026-04-18T10:16:57.999Z</time></trkpt><trkpt lat="44.282380013804485" lon="10.198399600496492"><ele>978.0</ele><time>2026-04-18T10:16:58.999Z</time></trkpt><trkpt lat="44.28253041584035" lon="10.198368110507777"><ele>982.75</ele><time>2026-04-18T10:16:59.999Z</time></trkpt><trkpt lat="44.28268408211214" lon="10.198325937786873"><ele>987.5</ele><time>2026-04-18T10:17:00.999Z</time></trkpt><trkpt lat="44.2828264567076" lon="10.198307821124805"><ele>992.25</ele><time>2026-04-18T10:17:02Z</time></trkpt><trkpt lat="44.28294747088146" lon="10.198351585123008"><ele>997.0</ele><time>2026-04-18T10:17:03Z</time></trkpt><trkpt lat="44.28307463997144" lon="10.19838140922664"><ele>999.25</ele><time>2026-04-18T10:17:04Z</time></trkpt><trkpt lat="44.28320810713762" lon="10.198432265066968"><ele>1001.5</ele><time>2026-04-18T10:17:05Z</time></trkpt><trkpt lat="44.28333947421478" lon="10.198439027364655"><ele>1003.75</ele><time>2026-04-18T10:17:06Z</time></trkpt><trkpt lat="44.28347926250557" lon="10.198380879313076"><ele>1006.0</ele><time>2026-04-18T10:17:07Z</time></trkpt><trkpt lat="44.28363995096862" lon="10.1982950819382"><ele>1006.0</ele><time>2026-04-18T10:17:08Z</time></trkpt><trkpt lat="44.28377889428353" lon="10.198259201124221"><ele>1006.0</ele><time>2026-04-18T10:17:09Z</time></trkpt><trkpt lat="44.283891465959684" lon="10.198294763261604"><ele>1006.0</ele><time>2026-04-18T10:17:10Z</time></trkpt><trkpt lat="44.28397335440944" lon="10.198442943962798"><ele>1006.0</ele><time>2026-04-18T10:17:11Z</time></trkpt><trkpt lat="44.28408313750306" lon="10.198587678988716"><ele>1001.0</ele><time>2026-04-18T10:17:12Z</time></trkpt><trkpt lat="44.284220547895565" lon="10.198760440397281"><ele>996.0</ele><time>2026-04-18T10:17:13Z</time></trkpt><trkpt lat="44.28437105525017" lon="10.19891011775453"><ele>991.0</ele><time>2026-04-18T10:17:14Z</time></trkpt><trkpt lat="44.284484361972304" lon="10.19910251770861"><ele>1001.0</ele><time>2026-04-18T10:17:15Z</time></trkpt><trkpt lat="44.284582310301765" lon="10.199310115953907"><ele>1011.0</ele><time>2026-04-18T10:17:16Z</time></trkpt><trkpt lat="44.28466832850481" lon="10.199554605280476"><ele>1021.0</ele><time>2026-04-18T10:17:17Z</time></trkpt><trkpt lat="44.28473105318857" lon="10.199791296603987"><ele>1017.6666666666666</ele><time>2026-04-18T10:17:18Z</time></trkpt><trkpt lat="44.284802952208686" lon="10.200007944951139"><ele>1014.3333333333333</ele><time>2026-04-18T10:17:19Z</time></trkpt><trkpt lat="44.284892350501025" lon="10.200217257470621"><ele>1011.0</ele><time>2026-04-18T10:17:20Z</time></trkpt><trkpt lat="44.285032941487174" lon="10.200401023932757"><ele>1011.0</ele><time>2026-04-18T10:17:21Z</time></trkpt><trkpt lat="44.28513669668871" lon="10.200575144303269"><ele>1011.0</ele><time>2026-04-18T10:17:22Z</time></trkpt><trkpt lat="44.285193429921755" lon="10.200768240655586"><ele>1011.0</ele><time>2026-04-18T10:17:23Z</time></trkpt><trkpt lat="44.28521891890651" lon="10.201005814543748"><ele>1015.5</ele><time>2026-04-18T10:17:24Z</time></trkpt><trkpt lat="44.285237236580954" lon="10.201280144826173"><ele>1020.0</ele><time>2026-04-18T10:17:25Z</time></trkpt><trkpt lat="44.28526606658998" lon="10.20147907477542"><ele>1024.5</ele><time>2026-04-18T10:17:26Z</time></trkpt><trkpt lat="44.28529760372614" lon="10.201603626170373"><ele>1029.0</ele><time>2026-04-18T10:17:27Z</time></trkpt><trkpt lat="44.285380256536826" lon="10.201680147021586"><ele>1027.75</ele><time>2026-04-18T10:17:28Z</time></trkpt><trkpt lat="44.28550753372654" lon="10.20171465714111"><ele>1026.5</ele><time>2026-04-18T10:17:29Z</time></trkpt><trkpt lat="44.28564328267424" lon="10.201786598727164"><ele>1025.25</ele><time>2026-04-18T10:17:30Z</time></trkpt><trkpt lat="44.2857188571234" lon="10.201902270078948"><ele>1024.0</ele><time>2026-04-18T10:17:31Z</time></trkpt><trkpt lat="44.28576569784922" lon="10.202070641717588"><ele>1024.0</ele><time>2026-04-18T10:17:32Z</time></trkpt><trkpt lat="44.28584790575729" lon="10.202295948831148"><ele>1024.0</ele><time>2026-04-18T10:17:33Z</time></trkpt><trkpt lat="44.2859411317354" lon="10.202440538032487"><ele>1024.0</ele><time>2026-04-18T10:17:34Z</time></trkpt><trkpt lat="44.28604486476806" lon="10.202513904132601"><ele>1024.0</ele><time>2026-04-18T10:17:35Z</time></trkpt><trkpt lat="44.28619435253841" lon="10.202547422023915"><ele>1028.0</ele><time>2026-04-18T10:17:36Z</time></trkpt><trkpt lat="44.2864110367197" lon="10.202489937307151"><ele>1032.0</ele><time>2026-04-18T10:17:37Z</time></trkpt><trkpt lat="44.28658178506253" lon="10.202542349164325"><ele>1036.0</ele><time>2026-04-18T10:17:38Z</time></trkpt><trkpt lat="44.28670777214622" lon="10.202632898399347"><ele>1036.0</ele><time>2026-04-18T10:17:39Z</time></trkpt><trkpt lat="44.28687389711702" lon="10.20276607248876"><ele>1036.0</ele><time>2026-04-18T10:17:40Z</time></trkpt><trkpt lat="44.287028784570275" lon="10.20290803302301"><ele>1036.0</ele><time>2026-04-18T10:17:41Z</time></trkpt><trkpt lat="44.287179142799246" lon="10.203095293519661"><ele>1037.6666666666665</ele><time>2026-04-18T10:17:42Z</time></trkpt><trkpt lat="44.28730045813331" lon="10.203286715850403"><ele>1039.3333333333333</ele><time>2026-04-18T10:17:43Z</time></trkpt><trkpt lat="44.28737970498622" lon="10.203475015277629"><ele>1041.0</ele><time>2026-04-18T10:17:44Z</time></trkpt><trkpt lat="44.28741805839634" lon="10.203700886825072"><ele>1041.0</ele><time>2026-04-18T10:17:45Z</time></trkpt><trkpt lat="44.287438678750725" lon="10.20398589868504"><ele>1041.0</ele><time>2026-04-18T10:17:46Z</time></trkpt><trkpt lat="44.28745081970807" lon="10.204303614752066"><ele>1041.0</ele><time>2026-04-18T10:17:47Z</time></trkpt><trkpt lat="44.287490276173195" lon="10.20457961762702"><ele>1052.0</ele><time>2026-04-18T10:17:48Z</time></trkpt><trkpt lat="44.287540623225894" lon="10.204834513839577"><ele>1063.0</ele><time>2026-04-18T10:17:49Z</time></trkpt><trkpt lat="44.28760822969466" lon="10.20506179806392"><ele>1074.0</ele><time>2026-04-18T10:17:50Z</time></trkpt><trkpt lat="44.28770555528372" lon="10.205234711802099"><ele>1074.0</ele><time>2026-04-18T10:17:51Z</time></trkpt><trkpt lat="44.28779880542815" lon="10.205347315297121"><ele>1074.0</ele><time>2026-04-18T10:17:52Z</time></trkpt><trkpt lat="44.28793477288145" lon="10.20543168720254"><ele>1074.0</ele><time>2026-04-18T10:17:53Z</time></trkpt><trkpt lat="44.28811840396314" lon="10.20549208971678"><ele>1067.3333333333333</ele><time>2026-04-18T10:17:54Z</time></trkpt><trkpt lat="44.2882669295753" lon="10.205553924743533"><ele>1060.6666666666665</ele><time>2026-04-18T10:17:55Z</time></trkpt><trkpt lat="44.28844160115057" lon="10.205569239763236"><ele>1054.0</ele><time>2026-04-18T10:17:56Z</time></trkpt><trkpt lat="44.288590777592376" lon="10.205488171101619"><ele>1054.0</ele><time>2026-04-18T10:17:57Z</time></trkpt><trkpt lat="44.28875042833107" lon="10.205374859108197"><ele>1054.0</ele><time>2026-04-18T10:17:58Z</time></trkpt><trkpt lat="44.288930047054215" lon="10.205328303618478"><ele>1054.0</ele><time>2026-04-18T10:17:59Z</time></trkpt><trkpt lat="44.28908660520911" lon="10.205290990221307"><ele>1056.0</ele><time>2026-04-18T10:18:00Z</time></trkpt><trkpt lat="44.28925897002272" lon="10.205302867045402"><ele>1058.0</ele><time>2026-04-18T10:18:01Z</time></trkpt><trkpt lat="44.28938906924181" lon="10.205349340331907"><ele>1060.0</ele><time>2026-04-18T10:18:02Z</time></trkpt><trkpt lat="44.289486224754924" lon="10.205419354239282"><ele>1062.0</ele><time>2026-04-18T10:18:03Z</time></trkpt><trkpt lat="44.289562323833344" lon="10.205541468490882"><ele>1067.75</ele><time>2026-04-18T10:18:04Z</time></trkpt><trkpt lat="44.28963788843713" lon="10.205709716028084"><ele>1073.5</ele><time>2026-04-18T10:18:05Z</time></trkpt><trkpt lat="44.289713855722646" lon="10.20592130455565"><ele>1079.25</ele><time>2026-04-18T10:18:06Z</time></trkpt><trkpt lat="44.28979142065579" lon="10.206079423223533"><ele>1085.0</ele><time>2026-04-18T10:18:07Z</time></trkpt><trkpt lat="44.28990080362587" lon="10.20617505478853"><ele>1085.0</ele><time>2026-04-18T10:18:08Z</time></trkpt><trkpt lat="44.29005071135435" lon="10.20616337978001"><ele>1085.0</ele><time>2026-04-18T10:18:09Z</time></trkpt><trkpt lat="44.29019875384745" lon="10.206119390402247"><ele>1085.0</ele><time>2026-04-18T10:18:09.999Z</time></trkpt><trkpt lat="44.29030498413521" lon="10.205997006975348"><ele>1085.0</ele><time>2026-04-18T10:18:10.999Z</time></trkpt><trkpt lat="44.29039477780647" lon="10.205809671155764"><ele>1086.0</ele><time>2026-04-18T10:18:11.999Z</time></trkpt><trkpt lat="44.29050836764039" lon="10.205656572198372"><ele>1087.0</ele><time>2026-04-18T10:18:12.999Z</time></trkpt><trkpt lat="44.29062319053719" lon="10.2055590479893"><ele>1088.0</ele><time>2026-04-18T10:18:13.999Z</time></trkpt><trkpt lat="44.290727199784754" lon="10.2054681149086"><ele>1089.0</ele><time>2026-04-18T10:18:14.999Z</time></trkpt><trkpt lat="44.29083246277612" lon="10.205432852892676"><ele>1089.0</ele><time>2026-04-18T10:18:15.999Z</time></trkpt><trkpt lat="44.29092286136262" lon="10.205351893357546"><ele>1089.0</ele><time>2026-04-18T10:18:16.999Z</time></trkpt><trkpt lat="44.290986827734834" lon="10.205195108828795"><ele>1089.0</ele><time>2026-04-18T10:18:17.999Z</time></trkpt><trkpt lat="44.29105638415263" lon="10.204951976212916"><ele>1089.0</ele><time>2026-04-18T10:18:18.999Z</time></trkpt><trkpt lat="44.291157105996874" lon="10.204691237321528"><ele>1092.0</ele><time>2026-04-18T10:18:19.999Z</time></trkpt><trkpt lat="44.29133124306342" lon="10.20446020908957"><ele>1095.0</ele><time>2026-04-18T10:18:20.999Z</time></trkpt><trkpt lat="44.29151750108341" lon="10.204288139158871"><ele>1095.0</ele><time>2026-04-18T10:18:21.999Z</time></trkpt><trkpt lat="44.29144669073133" lon="10.20435123410956"><ele>1095.0</ele><time>2026-04-18T10:18:22.999Z</time></trkpt><trkpt lat="44.29152231079396" lon="10.204531958849449"><ele>1095.0</ele><time>2026-04-18T10:18:24.999Z</time></trkpt><trkpt lat="44.29161672598277" lon="10.204699155819178"><ele>1095.0</ele><time>2026-04-18T10:18:25.999Z</time></trkpt><trkpt lat="44.29174168599421" lon="10.204879235512555"><ele>1100.0</ele><time>2026-04-18T10:18:26.999Z</time></trkpt><trkpt lat="44.29185955989015" lon="10.205050433564113"><ele>1105.0</ele><time>2026-04-18T10:18:27.999Z</time></trkpt><trkpt lat="44.29197531548501" lon="10.205145375683147"><ele>1110.0</ele><time>2026-04-18T10:18:28.999Z</time></trkpt><trkpt lat="44.29211764826188" lon="10.205163995688693"><ele>1115.0</ele><time>2026-04-18T10:18:29.999Z</time></trkpt><trkpt lat="44.292266055662466" lon="10.205101010495222"><ele>1116.3333333333335</ele><time>2026-04-18T10:18:30.999Z</time></trkpt><trkpt lat="44.29242470174227" lon="10.20493974883624"><ele>1117.6666666666667</ele><time>2026-04-18T10:18:31.999Z</time></trkpt><trkpt lat="44.29260754477955" lon="10.204775797776277"><ele>1119.0</ele><time>2026-04-18T10:18:32.999Z</time></trkpt><trkpt lat="44.292785586941434" lon="10.204735234755846"><ele>1119.0</ele><time>2026-04-18T10:18:33.999Z</time></trkpt><trkpt lat="44.29289033744042" lon="10.20476946016588"><ele>1119.0</ele><time>2026-04-18T10:18:34.999Z</time></trkpt><trkpt lat="44.29294232280416" lon="10.204852732378681"><ele>1119.0</ele><time>2026-04-18T10:18:35.999Z</time></trkpt><trkpt lat="44.29292382499214" lon="10.20497771573183"><ele>1119.0</ele><time>2026-04-18T10:18:36.999Z</time></trkpt><trkpt lat="44.29294083349954" lon="10.20515820913373"><ele>1119.0</ele><time>2026-04-18T10:18:37.999Z</time></trkpt><trkpt lat="44.29304354448163" lon="10.20534046388367"><ele>1116.6666666666667</ele><time>2026-04-18T10:18:38.999Z</time></trkpt><trkpt lat="44.29317931863156" lon="10.20549143557052"><ele>1114.3333333333335</ele><time>2026-04-18T10:18:39.999Z</time></trkpt><trkpt lat="44.29335134608273" lon="10.205641522048012"><ele>1112.0</ele><time>2026-04-18T10:18:40.999Z</time></trkpt><trkpt lat="44.29351367535996" lon="10.20584877519863"><ele>1117.3333333333335</ele><time>2026-04-18T10:18:41.999Z</time></trkpt><trkpt lat="44.29364566060485" lon="10.206057282786727"><ele>1122.6666666666667</ele><time>2026-04-18T10:18:42.999Z</time></trkpt><trkpt lat="44.29380517379211" lon="10.206200330312384"><ele>1128.0</ele><time>2026-04-18T10:18:43.999Z</time></trkpt><trkpt lat="44.29403236806168" lon="10.206249998725015"><ele>1128.0</ele><time>2026-04-18T10:18:44.999Z</time></trkpt><trkpt lat="44.29425964223257" lon="10.206296414046736"><ele>1128.0</ele><time>2026-04-18T10:18:45.999Z</time></trkpt><trkpt lat="44.294496213637636" lon="10.206264480528286"><ele>1128.0</ele><time>2026-04-18T10:18:46.999Z</time></trkpt><trkpt lat="44.29469213671014" lon="10.20622427367906"><ele>1128.0</ele><time>2026-04-18T10:18:47.999Z</time></trkpt><trkpt lat="44.29483716445781" lon="10.206237369482109"><ele>1128.0</ele><time>2026-04-18T10:18:48.999Z</time></trkpt><trkpt lat="44.29493456511029" lon="10.206324153866827"><ele>1127.3333333333333</ele><time>2026-04-18T10:18:49.999Z</time></trkpt><trkpt lat="44.29499418034859" lon="10.20648454307278"><ele>1126.6666666666665</ele><time>2026-04-18T10:18:50.999Z</time></trkpt><trkpt lat="44.29506984195956" lon="10.20668272912832"><ele>1126.0</ele><time>2026-04-18T10:18:51.999Z</time></trkpt><trkpt lat="44.295135338500096" lon="10.20694018628074"><ele>1132.0</ele><time>2026-04-18T10:18:52.999Z</time></trkpt><trkpt lat="44.295192960988295" lon="10.207222692418021"><ele>1138.0</ele><time>2026-04-18T10:18:53.999Z</time></trkpt><trkpt lat="44.29523331327807" lon="10.207497403367322"><ele>1144.0</ele><time>2026-04-18T10:18:54.999Z</time></trkpt><trkpt lat="44.29526499724476" lon="10.207774758424668"><ele>1147.3333333333333</ele><time>2026-04-18T10:18:55.999Z</time></trkpt><trkpt lat="44.29529109138488" lon="10.208050307650025"><ele>1150.6666666666667</ele><time>2026-04-18T10:18:56.999Z</time></trkpt><trkpt lat="44.295317837682774" lon="10.20829567727561"><ele>1154.0</ele><time>2026-04-18T10:18:57.999Z</time></trkpt><trkpt lat="44.295391257011794" lon="10.20851395825392"><ele>1154.3333333333335</ele><time>2026-04-18T10:18:58.999Z</time></trkpt><trkpt lat="44.29545907996372" lon="10.208768840836166"><ele>1154.6666666666667</ele><time>2026-04-18T10:18:59.999Z</time></trkpt><trkpt lat="44.295573177762236" lon="10.20903801564536"><ele>1155.0</ele><time>2026-04-18T10:19:00.999Z</time></trkpt><trkpt lat="44.29566245863522" lon="10.209325822534623"><ele>1155.0</ele><time>2026-04-18T10:19:01.999Z</time></trkpt><trkpt lat="44.29576153975523" lon="10.2096055043344"><ele>1155.0</ele><time>2026-04-18T10:19:02.999Z</time></trkpt><trkpt lat="44.295860828957586" lon="10.209867692761184"><ele>1155.0</ele><time>2026-04-18T10:19:03.999Z</time></trkpt><trkpt lat="44.29595931727522" lon="10.210115040742668"><ele>1155.0</ele><time>2026-04-18T10:19:04.999Z</time></trkpt><trkpt lat="44.296059003689415" lon="10.210358277258884"><ele>1155.0</ele><time>2026-04-18T10:19:05.999Z</time></trkpt><trkpt lat="44.29615349414785" lon="10.210577308150812"><ele>1155.0</ele><time>2026-04-18T10:19:06.999Z</time></trkpt><trkpt lat="44.296235691034326" lon="10.210761561685048"><ele>1155.25</ele><time>2026-04-18T10:19:08Z</time></trkpt><trkpt lat="44.29632134784323" lon="10.210938161872724"><ele>1155.5</ele><time>2026-04-18T10:19:09Z</time></trkpt><trkpt lat="44.29641384566796" lon="10.211102239513638"><ele>1155.75</ele><time>2026-04-18T10:19:10Z</time></trkpt><trkpt lat="44.29650437041377" lon="10.211264407753077"><ele>1156.0</ele><time>2026-04-18T10:19:11Z</time></trkpt><trkpt lat="44.29660614522634" lon="10.211404963013434"><ele>1159.25</ele><time>2026-04-18T10:19:12Z</time></trkpt><trkpt lat="44.29669765047769" lon="10.211541627231354"><ele>1162.5</ele><time>2026-04-18T10:19:13Z</time></trkpt><trkpt lat="44.29680939221243" lon="10.211659742904308"><ele>1165.75</ele><time>2026-04-18T10:19:14Z</time></trkpt><trkpt lat="44.29690649267185" lon="10.211785458234997"><ele>1169.0</ele><time>2026-04-18T10:19:15Z</time></trkpt><trkpt lat="44.29700213154929" lon="10.211910938445069"><ele>1169.0</ele><time>2026-04-18T10:19:16Z</time></trkpt><trkpt lat="44.297104586238696" lon="10.212020753805517"><ele>1169.0</ele><time>2026-04-18T10:19:17Z</time></trkpt><trkpt lat="44.29720992044718" lon="10.212149498822601"><ele>1169.0</ele><time>2026-04-18T10:19:18Z</time></trkpt><trkpt lat="44.29733136491676" lon="10.212285700590845"><ele>1169.0</ele><time>2026-04-18T10:19:19Z</time></trkpt><trkpt lat="44.29747430713187" lon="10.212396863492488"><ele>1172.3333333333335</ele><time>2026-04-18T10:19:20Z</time></trkpt><trkpt lat="44.29761537562337" lon="10.212508293608453"><ele>1175.6666666666667</ele><time>2026-04-18T10:19:21Z</time></trkpt><trkpt lat="44.29775879849167" lon="10.212658095088099"><ele>1179.0</ele><time>2026-04-18T10:19:22Z</time></trkpt><trkpt lat="44.29787935689082" lon="10.212821901595522"><ele>1179.0</ele><time>2026-04-18T10:19:23Z</time></trkpt><trkpt lat="44.29798398954925" lon="10.21298975747594"><ele>1179.0</ele><time>2026-04-18T10:19:24Z</time></trkpt><trkpt lat="44.29811180336857" lon="10.21309485760043"><ele>1179.0</ele><time>2026-04-18T10:19:25Z</time></trkpt><trkpt lat="44.298253169243345" lon="10.213133140055493"><ele>1180.25</ele><time>2026-04-18T10:19:26Z</time></trkpt><trkpt lat="44.298379281181305" lon="10.213106313842605"><ele>1181.5</ele><time>2026-04-18T10:19:27Z</time></trkpt><trkpt lat="44.29851116024468" lon="10.213044672342832"><ele>1182.75</ele><time>2026-04-18T10:19:28Z</time></trkpt><trkpt lat="44.29863712164282" lon="10.212964910236987"><ele>1184.0</ele><time>2026-04-18T10:19:29Z</time></trkpt><trkpt lat="44.29875563119115" lon="10.212914350199947"><ele>1184.0</ele><time>2026-04-18T10:19:30Z</time></trkpt><trkpt lat="44.29887650804242" lon="10.212946792906356"><ele>1184.0</ele><time>2026-04-18T10:19:31Z</time></trkpt><trkpt lat="44.29902157249146" lon="10.213040037001946"><ele>1184.0</ele><time>2026-04-18T10:19:32Z</time></trkpt><trkpt lat="44.29917050579691" lon="10.213194738799613"><ele>1184.75</ele><time>2026-04-18T10:19:33Z</time></trkpt><trkpt lat="44.2992967524805" lon="10.213337475809949"><ele>1185.5</ele><time>2026-04-18T10:19:34Z</time></trkpt><trkpt lat="44.29939293946141" lon="10.213436748928839"><ele>1186.25</ele><time>2026-04-18T10:19:35Z</time></trkpt><trkpt lat="44.29950176276617" lon="10.213446574570924"><ele>1187.0</ele><time>2026-04-18T10:19:36Z</time></trkpt><trkpt lat="44.299616549614086" lon="10.213361572242414"><ele>1187.0</ele><time>2026-04-18T10:19:37Z</time></trkpt><trkpt lat="44.29968933413584" lon="10.213198465868889"><ele>1187.0</ele><time>2026-04-18T10:19:38Z</time></trkpt><trkpt lat="44.2996927840537" lon="10.212989107844853"><ele>1187.0</ele><time>2026-04-18T10:19:39Z</time></trkpt><trkpt lat="44.299617226912424" lon="10.212793817938381"><ele>1187.0</ele><time>2026-04-18T10:19:40Z</time></trkpt><trkpt lat="44.299533853487354" lon="10.212594570593366"><ele>1186.3333333333335</ele><time>2026-04-18T10:19:41Z</time></trkpt><trkpt lat="44.2994774616174" lon="10.212362379738313"><ele>1185.6666666666667</ele><time>2026-04-18T10:19:42Z</time></trkpt><trkpt lat="44.299435707236675" lon="10.212128596256946"><ele>1185.0</ele><time>2026-04-18T10:19:43Z</time></trkpt><trkpt lat="44.29940235768203" lon="10.21190163469546"><ele>1184.25</ele><time>2026-04-18T10:19:44Z</time></trkpt><trkpt lat="44.29939504584304" lon="10.211729510935603"><ele>1183.5</ele><time>2026-04-18T10:19:45Z</time></trkpt><trkpt lat="44.29940600884131" lon="10.211583841188652"><ele>1182.75</ele><time>2026-04-18T10:19:46Z</time></trkpt><trkpt lat="44.299502204851215" lon="10.211463797685779"><ele>1182.0</ele><time>2026-04-18T10:19:47Z</time></trkpt><trkpt lat="44.29963590411311" lon="10.211401681355374"><ele>1188.0</ele><time>2026-04-18T10:19:48Z</time></trkpt><trkpt lat="44.29976476604107" lon="10.211465806701923"><ele>1194.0</ele><time>2026-04-18T10:19:49Z</time></trkpt><trkpt lat="44.29986305674438" lon="10.21157907511564"><ele>1200.0</ele><time>2026-04-18T10:19:50Z</time></trkpt><trkpt lat="44.29988994954909" lon="10.211772419887675"><ele>1206.0</ele><time>2026-04-18T10:19:51Z</time></trkpt><trkpt lat="44.29988804819388" lon="10.212014104262643"><ele>1206.0</ele><time>2026-04-18T10:19:52Z</time></trkpt><trkpt lat="44.299925264485964" lon="10.212272624716576"><ele>1206.0</ele><time>2026-04-18T10:19:53Z</time></trkpt><trkpt lat="44.299995429372565" lon="10.212509028848551"><ele>1206.0</ele><time>2026-04-18T10:19:54Z</time></trkpt><trkpt lat="44.300108957495645" lon="10.212724388535701"><ele>1205.0</ele><time>2026-04-18T10:19:55Z</time></trkpt><trkpt lat="44.30025793757223" lon="10.212905714612283"><ele>1204.0</ele><time>2026-04-18T10:19:56Z</time></trkpt><trkpt lat="44.30045343722991" lon="10.21304424275376"><ele>1203.0</ele><time>2026-04-18T10:19:57Z</time></trkpt><trkpt lat="44.30065617073746" lon="10.213183387124872"><ele>1207.0</ele><time>2026-04-18T10:19:58Z</time></trkpt><trkpt lat="44.30084313792902" lon="10.213334949599174"><ele>1211.0</ele><time>2026-04-18T10:19:59Z</time></trkpt><trkpt lat="44.30100060164967" lon="10.213454838141597"><ele>1215.0</ele><time>2026-04-18T10:20:00Z</time></trkpt><trkpt lat="44.30113429320435" lon="10.21359416107015"><ele>1215.0</ele><time>2026-04-18T10:20:01Z</time></trkpt><trkpt lat="44.301256214287235" lon="10.213763338397024"><ele>1215.0</ele><time>2026-04-18T10:20:02Z</time></trkpt><trkpt lat="44.30135684468952" lon="10.213920848065667"><ele>1215.0</ele><time>2026-04-18T10:20:03Z</time></trkpt><trkpt lat="44.301456340684354" lon="10.214048646481395"><ele>1216.6</ele><time>2026-04-18T10:20:04Z</time></trkpt><trkpt lat="44.30154761790127" lon="10.214137343397866"><ele>1218.2</ele><time>2026-04-18T10:20:05Z</time></trkpt><trkpt lat="44.30161509264175" lon="10.214237738557914"><ele>1219.8</ele><time>2026-04-18T10:20:06Z</time></trkpt><trkpt lat="44.3016825334106" lon="10.214320058789202"><ele>1221.4</ele><time>2026-04-18T10:20:07Z</time></trkpt><trkpt lat="44.30178512779668" lon="10.214364427372733"><ele>1223.0</ele><time>2026-04-18T10:20:08Z</time></trkpt><trkpt lat="44.30187612755307" lon="10.214374327161309"><ele>1223.0</ele><time>2026-04-18T10:20:09Z</time></trkpt><trkpt lat="44.301964677967376" lon="10.214389004369153"><ele>1223.0</ele><time>2026-04-18T10:20:10Z</time></trkpt><trkpt lat="44.30204547052824" lon="10.214389778035999"><ele>1223.0</ele><time>2026-04-18T10:20:11Z</time></trkpt><trkpt lat="44.302128383266336" lon="10.21440511860405"><ele>1223.0</ele><time>2026-04-18T10:20:12Z</time></trkpt><trkpt lat="44.30219144359442" lon="10.214485607714094"><ele>1223.0</ele><time>2026-04-18T10:20:13Z</time></trkpt><trkpt lat="44.30223510105104" lon="10.214613445804089"><ele>1223.0</ele><time>2026-04-18T10:20:14Z</time></trkpt><trkpt lat="44.30226864519579" lon="10.214757836700649"><ele>1228.6666666666667</ele><time>2026-04-18T10:20:15Z</time></trkpt><trkpt lat="44.30231589772492" lon="10.214958267543475"><ele>1234.3333333333333</ele><time>2026-04-18T10:20:16Z</time></trkpt><trkpt lat="44.302371768766626" lon="10.215205248843327"><ele>1240.0</ele><time>2026-04-18T10:20:16.999Z</time></trkpt><trkpt lat="44.30243306184723" lon="10.215467675379681"><ele>1238.3333333333333</ele><time>2026-04-18T10:20:17.999Z</time></trkpt><trkpt lat="44.302485794590474" lon="10.21570028954489"><ele>1236.6666666666667</ele><time>2026-04-18T10:20:18.999Z</time></trkpt><trkpt lat="44.3025498655736" lon="10.215897923781947"><ele>1235.0</ele><time>2026-04-18T10:20:19.999Z</time></trkpt><trkpt lat="44.30263320196986" lon="10.216057090433038"><ele>1235.0</ele><time>2026-04-18T10:20:20.999Z</time></trkpt><trkpt lat="44.3027438710405" lon="10.216185182392088"><ele>1235.0</ele><time>2026-04-18T10:20:21.999Z</time></trkpt><trkpt lat="44.30287304944603" lon="10.21628853054908"><ele>1235.0</ele><time>2026-04-18T10:20:22.999Z</time></trkpt><trkpt lat="44.30298969312633" lon="10.216392661837098"><ele>1235.0</ele><time>2026-04-18T10:20:23.999Z</time></trkpt><trkpt lat="44.30310101785419" lon="10.216489788649188"><ele>1237.75</ele><time>2026-04-18T10:20:24.999Z</time></trkpt><trkpt lat="44.303201380705424" lon="10.216587882271394"><ele>1240.5</ele><time>2026-04-18T10:20:25.999Z</time></trkpt><trkpt lat="44.30329149478822" lon="10.216682686220176"><ele>1243.25</ele><time>2026-04-18T10:20:26.999Z</time></trkpt><trkpt lat="44.30338349094404" lon="10.21678256681615"><ele>1246.0</ele><time>2026-04-18T10:20:27.999Z</time></trkpt><trkpt lat="44.30347321655222" lon="10.216883765810499"><ele>1246.0</ele><time>2026-04-18T10:20:28.999Z</time></trkpt><trkpt lat="44.303560220236854" lon="10.216971615758386"><ele>1246.0</ele><time>2026-04-18T10:20:29.999Z</time></trkpt><trkpt lat="44.3036366319161" lon="10.217057189355728"><ele>1246.0</ele><time>2026-04-18T10:20:30.999Z</time></trkpt><trkpt lat="44.30370500785925" lon="10.217135293347939"><ele>1246.0</ele><time>2026-04-18T10:20:31.999Z</time></trkpt><trkpt lat="44.30376903444825" lon="10.21719831015993"><ele>1246.0</ele><time>2026-04-18T10:20:32.999Z</time></trkpt><trkpt lat="44.30383332419739" lon="10.217235414789407"><ele>1246.0</ele><time>2026-04-18T10:20:33.999Z</time></trkpt><trkpt lat="44.30393799925564" lon="10.217232129754649"><ele>1246.3333333333333</ele><time>2026-04-18T10:20:35.999Z</time></trkpt><trkpt lat="44.304026247255884" lon="10.217184339787083"><ele>1246.6666666666665</ele><time>2026-04-18T10:20:37.999Z</time></trkpt><trkpt lat="44.304122772527926" lon="10.217134147173793"><ele>1247.0</ele><time>2026-04-18T10:20:39.999Z</time></trkpt><trkpt lat="44.30419354831759" lon="10.21709530818626"><ele>1247.3333333333333</ele><time>2026-04-18T10:20:41.999Z</time></trkpt><trkpt lat="44.30425742245904" lon="10.21706258236559"><ele>1247.6666666666667</ele><time>2026-04-18T10:20:43.999Z</time></trkpt><trkpt lat="44.30431831468544" lon="10.217027605748465"><ele>1248.0</ele><time>2026-04-18T10:20:45.999Z</time></trkpt><trkpt lat="44.30433680473759" lon="10.216923398599668"><ele>1248.0</ele><time>2026-04-18T10:20:56.999Z</time></trkpt><trkpt lat="44.30422050708499" lon="10.216824454121946"><ele>1248.0</ele><time>2026-04-18T10:21:01.999Z</time></trkpt><trkpt lat="44.30429539329909" lon="10.216871102306536"><ele>1248.0</ele><time>2026-04-18T10:21:02.999Z</time></trkpt><trkpt lat="44.304245688524816" lon="10.216813162418404"><ele>1248.0</ele><time>2026-04-18T10:21:04.999Z</time></trkpt><trkpt lat="44.304182942338215" lon="10.216839862175453"><ele>1248.0</ele><time>2026-04-18T10:22:48.999Z</time></trkpt><trkpt lat="44.304163645772036" lon="10.216958222812224"><ele>1248.0</ele><time>2026-04-18T10:22:53.999Z</time></trkpt><trkpt lat="44.304133068495865" lon="10.216857173588071"><ele>1248.0</ele><time>2026-04-18T10:22:54.999Z</time></trkpt><trkpt lat="44.304147996417214" lon="10.216996481592433"><ele>1248.0</ele><time>2026-04-18T10:23:08.137Z</time></trkpt><trkpt lat="44.304054977756806" lon="10.216915396682156"><ele>1248.0</ele><time>2026-04-18T10:23:09.999Z</time></trkpt><trkpt lat="44.30406462497234" lon="10.216804736445765"><ele>1248.0</ele><time>2026-04-18T10:23:14.999Z</time></trkpt><trkpt lat="44.30401095978548" lon="10.216862431522372"><ele>1248.0</ele><time>2026-04-18T10:23:15.999Z</time></trkpt><trkpt lat="44.30415562389083" lon="10.216999963019585"><ele>1248.0</ele><time>2026-04-18T10:23:22.936Z</time></trkpt><trkpt lat="44.304015836629546" lon="10.216957063512552"><ele>1248.0</ele><time>2026-04-18T10:23:32.999Z</time></trkpt><trkpt lat="44.30421559308325" lon="10.216958559970092"><ele>1248.0</ele><time>2026-04-18T10:25:27.016Z</time></trkpt><trkpt lat="44.3041021410371" lon="10.216980097450401"><ele>1248.0</ele><time>2026-04-18T10:25:51.999Z</time></trkpt><trkpt lat="44.304038075408315" lon="10.216947372977291"><ele>1248.0</ele><time>2026-04-18T10:27:09.999Z</time></trkpt><trkpt lat="44.30409962259841" lon="10.216908536321652"><ele>1248.0</ele><time>2026-04-18T10:27:14.999Z</time></trkpt><trkpt lat="44.3041337342189" lon="10.216828595424348"><ele>1248.0</ele><time>2026-04-18T10:27:21.999Z</time></trkpt><trkpt lat="44.30410202101015" lon="10.216750388590057"><ele>1248.0</ele><time>2026-04-18T10:27:27.999Z</time></trkpt><trkpt lat="44.304107777875515" lon="10.216655474853509"><ele>1248.0</ele><time>2026-04-18T10:27:35.999Z</time></trkpt><trkpt lat="44.30416188252593" lon="10.216713099965345"><ele>1248.0</ele><time>2026-04-18T10:40:04.999Z</time></trkpt><trkpt lat="44.30420152051735" lon="10.216797216143009"><ele>1248.0</ele><time>2026-04-18T10:40:11.999Z</time></trkpt><trkpt lat="44.30426300725494" lon="10.21682713112052"><ele>1248.0</ele><time>2026-04-18T10:40:18.999Z</time></trkpt><trkpt lat="44.30421305012137" lon="10.21676517919256"><ele>1248.0</ele><time>2026-04-18T10:40:33.999Z</time></trkpt><trkpt lat="44.304136830564296" lon="10.21667903973185"><ele>1248.0</ele><time>2026-04-18T10:40:48Z</time></trkpt><trkpt lat="44.304157433291145" lon="10.216775779252359"><ele>1248.0</ele><time>2026-04-18T10:41:22Z</time></trkpt><trkpt lat="44.304149433883794" lon="10.216869107462077"><ele>1248.0</ele><time>2026-04-18T10:41:36.015Z</time></trkpt><trkpt lat="44.304142702016215" lon="10.216956621550553"><ele>1248.0</ele><time>2026-04-18T10:41:42Z</time></trkpt><trkpt lat="44.304257654626205" lon="10.216935379440166"><ele>1248.0</ele><time>2026-04-18T10:41:45Z</time></trkpt><trkpt lat="44.30412046992067" lon="10.216948393434622"><ele>1248.0</ele><time>2026-04-18T10:41:49Z</time></trkpt><trkpt lat="44.30405196360805" lon="10.217062111380836"><ele>1248.0</ele><time>2026-04-18T10:43:57Z</time></trkpt><trkpt lat="44.30415022362421" lon="10.216984165307952"><ele>1248.0</ele><time>2026-04-18T10:44:23.999Z</time></trkpt><trkpt lat="44.304214151722405" lon="10.216983417733147"><ele>1248.0</ele><time>2026-04-18T10:45:37Z</time></trkpt><trkpt lat="44.30416047829994" lon="10.216913146593061"><ele>1248.0</ele><time>2026-04-18T10:46:50.999Z</time></trkpt><trkpt lat="44.304166147267615" lon="10.216820627488064"><ele>1248.0</ele><time>2026-04-18T10:48:12Z</time></trkpt><trkpt lat="44.30422810093845" lon="10.216799087097783"><ele>1248.0</ele><time>2026-04-18T10:48:29.999Z</time></trkpt><trkpt lat="44.30429337922405" lon="10.216832446535582"><ele>1248.0</ele><time>2026-04-18T10:48:46.999Z</time></trkpt><trkpt lat="44.3042303101083" lon="10.216804894907886"><ele>1248.0</ele><time>2026-04-18T10:49:08.999Z</time></trkpt><trkpt lat="44.30416649985354" lon="10.216872115586517"><ele>1248.0</ele><time>2026-04-18T10:50:05Z</time></trkpt><trkpt lat="44.304156466938956" lon="10.216777880590431"><ele>1248.0</ele><time>2026-04-18T10:50:34.999Z</time></trkpt><trkpt lat="44.304134415652854" lon="10.216689796757143"><ele>1248.0</ele><time>2026-04-18T10:50:43.999Z</time></trkpt><trkpt lat="44.30407440234578" lon="10.216646863419884"><ele>1248.0</ele><time>2026-04-18T10:50:50.999Z</time></trkpt><trkpt lat="44.304014318429175" lon="10.216612491965025"><ele>1248.0</ele><time>2026-04-18T10:50:57.999Z</time></trkpt><trkpt lat="44.30395030979875" lon="10.216629075446141"><ele>1248.0</ele><time>2026-04-18T10:51:03.999Z</time></trkpt><trkpt lat="44.303883773004735" lon="10.2166035230964"><ele>1248.0</ele><time>2026-04-18T10:51:07.999Z</time></trkpt><trkpt lat="44.30383087982786" lon="10.216554421670493"><ele>1248.0</ele><time>2026-04-18T10:51:11.999Z</time></trkpt><trkpt lat="44.30380611442885" lon="10.21640152425063"><ele>1248.0</ele><time>2026-04-18T10:52:02Z</time></trkpt><trkpt lat="44.30378925799061" lon="10.216502960976205"><ele>1248.0</ele><time>2026-04-18T10:52:11Z</time></trkpt><trkpt lat="44.30383749449401" lon="10.216577184702603"><ele>1248.0</ele><time>2026-04-18T10:52:13Z</time></trkpt><trkpt lat="44.30388975111363" lon="10.216648983591963"><ele>1248.0</ele><time>2026-04-18T10:52:15Z</time></trkpt><trkpt lat="44.30395168076788" lon="10.216696039208191"><ele>1248.0</ele><time>2026-04-18T10:52:17Z</time></trkpt><trkpt lat="44.30402352504995" lon="10.216702721800356"><ele>1248.0</ele><time>2026-04-18T10:52:32.999Z</time></trkpt><trkpt lat="44.3040944433799" lon="10.216689705019261"><ele>1248.0</ele><time>2026-04-18T10:52:42.999Z</time></trkpt><trkpt lat="44.30423347618018" lon="10.216733661649675"><ele>1248.0</ele><time>2026-04-18T11:05:40.999Z</time></trkpt><trkpt lat="44.30417034264115" lon="10.21685270819353"><ele>1248.0</ele><time>2026-04-18T11:07:01Z</time></trkpt><trkpt lat="44.30419163471893" lon="10.216952380178704"><ele>1248.0</ele><time>2026-04-18T11:07:17Z</time></trkpt><trkpt lat="44.30422404657733" lon="10.216875223280198"><ele>1248.0</ele><time>2026-04-18T11:07:48.999Z</time></trkpt><trkpt lat="44.304309317445224" lon="10.216921016090582"><ele>1248.0</ele><time>2026-04-18T11:10:27Z</time></trkpt><trkpt lat="44.30436248356972" lon="10.217009285088235"><ele>1248.0</ele><time>2026-04-18T11:10:29Z</time></trkpt><trkpt lat="44.30444143395568" lon="10.21702064869596"><ele>1248.0</ele><time>2026-04-18T11:10:30Z</time></trkpt><trkpt lat="44.30454779641945" lon="10.217017340159032"><ele>1248.0</ele><time>2026-04-18T11:10:31Z</time></trkpt><trkpt lat="44.30464356134973" lon="10.217047859545353"><ele>1248.0</ele><time>2026-04-18T11:10:32Z</time></trkpt><trkpt lat="44.30475487693377" lon="10.21710937085978"><ele>1248.0</ele><time>2026-04-18T11:10:33Z</time></trkpt><trkpt lat="44.304873913440346" lon="10.217204668216882"><ele>1246.6666666666667</ele><time>2026-04-18T11:10:34Z</time></trkpt><trkpt lat="44.304993006562185" lon="10.217345567968303"><ele>1245.3333333333335</ele><time>2026-04-18T11:10:35Z</time></trkpt><trkpt lat="44.30512000430753" lon="10.217517057981063"><ele>1244.0</ele><time>2026-04-18T11:10:36Z</time></trkpt><trkpt lat="44.305241264143845" lon="10.217665878008074"><ele>1244.0</ele><time>2026-04-18T11:10:37Z</time></trkpt><trkpt lat="44.305361501268116" lon="10.217799889006976"><ele>1244.0</ele><time>2026-04-18T11:10:38Z</time></trkpt><trkpt lat="44.30549323808404" lon="10.217945687469879"><ele>1244.0</ele><time>2026-04-18T11:10:39Z</time></trkpt><trkpt lat="44.305607016817405" lon="10.218068902586719"><ele>1241.75</ele><time>2026-04-18T11:10:40Z</time></trkpt><trkpt lat="44.30570488876461" lon="10.218181386370539"><ele>1239.5</ele><time>2026-04-18T11:10:41Z</time></trkpt><trkpt lat="44.30574057632725" lon="10.218309996206488"><ele>1237.25</ele><time>2026-04-18T11:10:42Z</time></trkpt><trkpt lat="44.305751440743386" lon="10.218456966267684"><ele>1235.0</ele><time>2026-04-18T11:10:43Z</time></trkpt><trkpt lat="44.305704698588286" lon="10.218619692805646"><ele>1235.0</ele><time>2026-04-18T11:10:44Z</time></trkpt><trkpt lat="44.30564332880781" lon="10.218834030431074"><ele>1235.0</ele><time>2026-04-18T11:10:45Z</time></trkpt><trkpt lat="44.30559704524811" lon="10.21903770858671"><ele>1235.0</ele><time>2026-04-18T11:10:46Z</time></trkpt><trkpt lat="44.305562456226006" lon="10.219217725259442"><ele>1234.0</ele><time>2026-04-18T11:10:47Z</time></trkpt><trkpt lat="44.30558533155421" lon="10.219385594262125"><ele>1233.0</ele><time>2026-04-18T11:10:48Z</time></trkpt><trkpt lat="44.30565977523219" lon="10.219542607112093"><ele>1232.0</ele><time>2026-04-18T11:10:49Z</time></trkpt><trkpt lat="44.30578845538374" lon="10.219659524344413"><ele>1231.0</ele><time>2026-04-18T11:10:50Z</time></trkpt><trkpt lat="44.305965920511035" lon="10.219738235802026"><ele>1231.0</ele><time>2026-04-18T11:10:51Z</time></trkpt><trkpt lat="44.30614576098478" lon="10.219808467777607"><ele>1231.0</ele><time>2026-04-18T11:10:52Z</time></trkpt><trkpt lat="44.30631340671516" lon="10.219846527487942"><ele>1231.0</ele><time>2026-04-18T11:10:53Z</time></trkpt><trkpt lat="44.30649042256519" lon="10.219831162435122"><ele>1227.3333333333333</ele><time>2026-04-18T11:10:54Z</time></trkpt><trkpt lat="44.306650117050076" lon="10.219802205731364"><ele>1223.6666666666667</ele><time>2026-04-18T11:10:55Z</time></trkpt><trkpt lat="44.30680131174239" lon="10.219780354708313"><ele>1220.0</ele><time>2026-04-18T11:10:56Z</time></trkpt><trkpt lat="44.30694761576194" lon="10.219784779595427"><ele>1220.0</ele><time>2026-04-18T11:10:57Z</time></trkpt><trkpt lat="44.30708870199386" lon="10.219800511563585"><ele>1220.0</ele><time>2026-04-18T11:10:58Z</time></trkpt><trkpt lat="44.30721961080439" lon="10.219872409480459"><ele>1220.0</ele><time>2026-04-18T11:10:59Z</time></trkpt><trkpt lat="44.307360500104075" lon="10.219964465388603"><ele>1220.0</ele><time>2026-04-18T11:11:00Z</time></trkpt><trkpt lat="44.307501035613605" lon="10.220043397890686"><ele>1219.0</ele><time>2026-04-18T11:11:01Z</time></trkpt><trkpt lat="44.30759093049681" lon="10.2201427235769"><ele>1218.0</ele><time>2026-04-18T11:11:02Z</time></trkpt><trkpt lat="44.307637617473276" lon="10.22025835694644"><ele>1217.0</ele><time>2026-04-18T11:11:03Z</time></trkpt><trkpt lat="44.30764822705164" lon="10.220416622354373"><ele>1216.0</ele><time>2026-04-18T11:11:04Z</time></trkpt><trkpt lat="44.30759621701406" lon="10.220572464707995"><ele>1215.0</ele><time>2026-04-18T11:11:05Z</time></trkpt><trkpt lat="44.30747848847777" lon="10.220685591041377"><ele>1215.0</ele><time>2026-04-18T11:11:06Z</time></trkpt><trkpt lat="44.307332659947065" lon="10.220842688892802"><ele>1215.0</ele><time>2026-04-18T11:11:07Z</time></trkpt><trkpt lat="44.30719994289278" lon="10.221009857730605"><ele>1215.0</ele><time>2026-04-18T11:11:08Z</time></trkpt><trkpt lat="44.30706551025322" lon="10.221128388004674"><ele>1215.0</ele><time>2026-04-18T11:11:09Z</time></trkpt><trkpt lat="44.30692771950349" lon="10.221239207896337"><ele>1215.0</ele><time>2026-04-18T11:11:10Z</time></trkpt><trkpt lat="44.30678104117696" lon="10.221322458135914"><ele>1215.0</ele><time>2026-04-18T11:11:11Z</time></trkpt><trkpt lat="44.30660015606315" lon="10.221385753942863"><ele>1218.3333333333333</ele><time>2026-04-18T11:11:12Z</time></trkpt><trkpt lat="44.30640179645174" lon="10.221423308132415"><ele>1221.6666666666665</ele><time>2026-04-18T11:11:13Z</time></trkpt><trkpt lat="44.30621627494143" lon="10.221467129205529"><ele>1225.0</ele><time>2026-04-18T11:11:14Z</time></trkpt><trkpt lat="44.306069440104665" lon="10.221475476137652"><ele>1219.0</ele><time>2026-04-18T11:11:15Z</time></trkpt><trkpt lat="44.30594016985011" lon="10.221511642552917"><ele>1213.0</ele><time>2026-04-18T11:11:16Z</time></trkpt><trkpt lat="44.305823408433895" lon="10.221613787746728"><ele>1207.0</ele><time>2026-04-18T11:11:17Z</time></trkpt><trkpt lat="44.3057318171071" lon="10.22183355989052"><ele>1207.0</ele><time>2026-04-18T11:11:18Z</time></trkpt><trkpt lat="44.305684789927824" lon="10.222103720939842"><ele>1207.0</ele><time>2026-04-18T11:11:19Z</time></trkpt><trkpt lat="44.30561928828103" lon="10.222356567647402"><ele>1207.0</ele><time>2026-04-18T11:11:20Z</time></trkpt><trkpt lat="44.30552899294974" lon="10.222570415575467"><ele>1207.5</ele><time>2026-04-18T11:11:21Z</time></trkpt><trkpt lat="44.30539614085183" lon="10.222834104516723"><ele>1208.0</ele><time>2026-04-18T11:11:22Z</time></trkpt><trkpt lat="44.30526434533708" lon="10.223092048036433"><ele>1201.6666666666667</ele><time>2026-04-18T11:11:23Z</time></trkpt><trkpt lat="44.305153659253044" lon="10.223323889565188"><ele>1195.3333333333333</ele><time>2026-04-18T11:11:24Z</time></trkpt><trkpt lat="44.30500502704179" lon="10.223472539612848"><ele>1189.0</ele><time>2026-04-18T11:11:25Z</time></trkpt><trkpt lat="44.30484949085783" lon="10.223610510885617"><ele>1190.3333333333333</ele><time>2026-04-18T11:11:26Z</time></trkpt><trkpt lat="44.30472102831234" lon="10.223771404027582"><ele>1191.6666666666667</ele><time>2026-04-18T11:11:27Z</time></trkpt><trkpt lat="44.30462247390288" lon="10.223976430529415"><ele>1193.0</ele><time>2026-04-18T11:11:28Z</time></trkpt><trkpt lat="44.30455353011467" lon="10.224233692124045"><ele>1193.0</ele><time>2026-04-18T11:11:29Z</time></trkpt><trkpt lat="44.30450267027343" lon="10.224446800122445"><ele>1193.0</ele><time>2026-04-18T11:11:30Z</time></trkpt><trkpt lat="44.30449930268753" lon="10.224681678800701"><ele>1193.0</ele><time>2026-04-18T11:11:31Z</time></trkpt><trkpt lat="44.304538349079294" lon="10.224954582045898"><ele>1189.3333333333335</ele><time>2026-04-18T11:11:32Z</time></trkpt><trkpt lat="44.30458593597612" lon="10.225244481789986"><ele>1185.6666666666667</ele><time>2026-04-18T11:11:33Z</time></trkpt><trkpt lat="44.30459579418343" lon="10.225488786061469"><ele>1182.0</ele><time>2026-04-18T11:11:34Z</time></trkpt><trkpt lat="44.304629224508126" lon="10.225671403864387"><ele>1181.75</ele><time>2026-04-18T11:11:35Z</time></trkpt><trkpt lat="44.304667943324816" lon="10.225795270445778"><ele>1181.5</ele><time>2026-04-18T11:11:36Z</time></trkpt><trkpt lat="44.304753746270926" lon="10.225889941473657"><ele>1181.25</ele><time>2026-04-18T11:11:37Z</time></trkpt><trkpt lat="44.304879876168854" lon="10.225917851585747"><ele>1181.0</ele><time>2026-04-18T11:11:38Z</time></trkpt><trkpt lat="44.30503072026057" lon="10.225825497384507"><ele>1178.0</ele><time>2026-04-18T11:11:39Z</time></trkpt><trkpt lat="44.30519330123782" lon="10.225671453315623"><ele>1175.0</ele><time>2026-04-18T11:11:40Z</time></trkpt><trkpt lat="44.30535107241478" lon="10.225496251612565"><ele>1172.0</ele><time>2026-04-18T11:11:41Z</time></trkpt><trkpt lat="44.30550896845065" lon="10.225359445227223"><ele>1167.3333333333335</ele><time>2026-04-18T11:11:42Z</time></trkpt><trkpt lat="44.3056914726135" lon="10.225254533279019"><ele>1162.6666666666667</ele><time>2026-04-18T11:11:43Z</time></trkpt><trkpt lat="44.30587772467494" lon="10.225158365879748"><ele>1158.0</ele><time>2026-04-18T11:11:44Z</time></trkpt><trkpt lat="44.30607578270322" lon="10.225086551078364"><ele>1158.0</ele><time>2026-04-18T11:11:45Z</time></trkpt><trkpt lat="44.306276429808015" lon="10.225043315975517"><ele>1158.0</ele><time>2026-04-18T11:11:46Z</time></trkpt><trkpt lat="44.306485734815126" lon="10.225035758147849"><ele>1158.0</ele><time>2026-04-18T11:11:47Z</time></trkpt><trkpt lat="44.3066944326484" lon="10.225013859029291"><ele>1158.6666666666667</ele><time>2026-04-18T11:11:48Z</time></trkpt><trkpt lat="44.3069002023709" lon="10.22498140887917"><ele>1159.3333333333335</ele><time>2026-04-18T11:11:49Z</time></trkpt><trkpt lat="44.30709961967169" lon="10.224915371640884"><ele>1160.0</ele><time>2026-04-18T11:11:50Z</time></trkpt><trkpt lat="44.307294421405985" lon="10.224822999310987"><ele>1155.3333333333335</ele><time>2026-04-18T11:11:51Z</time></trkpt><trkpt lat="44.30747357102171" lon="10.224747442815705"><ele>1150.6666666666667</ele><time>2026-04-18T11:11:52Z</time></trkpt><trkpt lat="44.307641244810206" lon="10.22469562014915"><ele>1146.0</ele><time>2026-04-18T11:11:53Z</time></trkpt><trkpt lat="44.30782613064416" lon="10.22466516506086"><ele>1146.0</ele><time>2026-04-18T11:11:54Z</time></trkpt><trkpt lat="44.30802014837357" lon="10.224663084414624"><ele>1146.0</ele><time>2026-04-18T11:11:55Z</time></trkpt><trkpt lat="44.30821495284763" lon="10.224684866944353"><ele>1146.0</ele><time>2026-04-18T11:11:56Z</time></trkpt><trkpt lat="44.30841106343255" lon="10.22473458290977"><ele>1148.3333333333333</ele><time>2026-04-18T11:11:57Z</time></trkpt><trkpt lat="44.30859914271916" lon="10.224807105972666"><ele>1150.6666666666665</ele><time>2026-04-18T11:11:58Z</time></trkpt><trkpt lat="44.30880208610118" lon="10.224913637041377"><ele>1153.0</ele><time>2026-04-18T11:11:59Z</time></trkpt><trkpt lat="44.30901327894452" lon="10.225038567851653"><ele>1148.0</ele><time>2026-04-18T11:12:00Z</time></trkpt><trkpt lat="44.30921504694364" lon="10.225154718766348"><ele>1143.0</ele><time>2026-04-18T11:12:01Z</time></trkpt><trkpt lat="44.3094093552337" lon="10.225252666327101"><ele>1138.0</ele><time>2026-04-18T11:12:01.999Z</time></trkpt><trkpt lat="44.30959999496541" lon="10.225353089093202"><ele>1137.0</ele><time>2026-04-18T11:12:02.999Z</time></trkpt><trkpt lat="44.3097754301882" lon="10.225457201319271"><ele>1136.0</ele><time>2026-04-18T11:12:03.999Z</time></trkpt><trkpt lat="44.30992793345968" lon="10.225602841458795"><ele>1135.0</ele><time>2026-04-18T11:12:04.999Z</time></trkpt><trkpt lat="44.31007443103609" lon="10.225768158293315"><ele>1135.0</ele><time>2026-04-18T11:12:05.999Z</time></trkpt><trkpt lat="44.310222367147944" lon="10.225975598645192"><ele>1135.0</ele><time>2026-04-18T11:12:06.999Z</time></trkpt><trkpt lat="44.31038116092893" lon="10.226188031226199"><ele>1135.0</ele><time>2026-04-18T11:12:07.999Z</time></trkpt><trkpt lat="44.310528756776264" lon="10.226416713129414"><ele>1131.0</ele><time>2026-04-18T11:12:08.999Z</time></trkpt><trkpt lat="44.31067686406992" lon="10.22664582863723"><ele>1127.0</ele><time>2026-04-18T11:12:09.999Z</time></trkpt><trkpt lat="44.31081917869322" lon="10.226857798474569"><ele>1123.0</ele><time>2026-04-18T11:12:10.999Z</time></trkpt><trkpt lat="44.31095736702852" lon="10.227060956522253"><ele>1123.0</ele><time>2026-04-18T11:12:11.999Z</time></trkpt><trkpt lat="44.311088489099234" lon="10.227251985391272"><ele>1123.0</ele><time>2026-04-18T11:12:12.999Z</time></trkpt><trkpt lat="44.311235852602664" lon="10.227406757776176"><ele>1123.0</ele><time>2026-04-18T11:12:13.999Z</time></trkpt><trkpt lat="44.311390419700594" lon="10.227527812979258"><ele>1120.0</ele><time>2026-04-18T11:12:14.999Z</time></trkpt><trkpt lat="44.31151022025587" lon="10.22769688795982"><ele>1117.0</ele><time>2026-04-18T11:12:15.999Z</time></trkpt><trkpt lat="44.3116016695801" lon="10.22789141755739"><ele>1114.0</ele><time>2026-04-18T11:12:16.999Z</time></trkpt><trkpt lat="44.311674219126196" lon="10.228135841028397"><ele>1114.0</ele><time>2026-04-18T11:12:17.999Z</time></trkpt><trkpt lat="44.31170894525493" lon="10.228358846726534"><ele>1114.0</ele><time>2026-04-18T11:12:18.999Z</time></trkpt><trkpt lat="44.311715953973014" lon="10.22852876749658"><ele>1114.0</ele><time>2026-04-18T11:12:19.999Z</time></trkpt><trkpt lat="44.311678467661174" lon="10.228677997546496"><ele>1114.0</ele><time>2026-04-18T11:12:20.999Z</time></trkpt><trkpt lat="44.31158516715433" lon="10.22885140611897"><ele>1116.6666666666665</ele><time>2026-04-18T11:12:21.999Z</time></trkpt><trkpt lat="44.311487406231656" lon="10.229066312551742"><ele>1119.3333333333333</ele><time>2026-04-18T11:12:22.999Z</time></trkpt><trkpt lat="44.311394103168354" lon="10.22925465951747"><ele>1122.0</ele><time>2026-04-18T11:12:23.999Z</time></trkpt><trkpt lat="44.31128147597901" lon="10.229398002317058"><ele>1122.0</ele><time>2026-04-18T11:12:24.999Z</time></trkpt><trkpt lat="44.3111441286092" lon="10.229452866157587"><ele>1122.0</ele><time>2026-04-18T11:12:26Z</time></trkpt><trkpt lat="44.310997551074855" lon="10.229504200697187"><ele>1122.0</ele><time>2026-04-18T11:12:27Z</time></trkpt><trkpt lat="44.310865092890026" lon="10.229625141665862"><ele>1122.0</ele><time>2026-04-18T11:12:28Z</time></trkpt><trkpt lat="44.310729252031116" lon="10.229794127920258"><ele>1122.0</ele><time>2026-04-18T11:12:29Z</time></trkpt><trkpt lat="44.31061372441999" lon="10.229916007464409"><ele>1122.0</ele><time>2026-04-18T11:12:30Z</time></trkpt><trkpt lat="44.310528679119" lon="10.230039324264185"><ele>1122.0</ele><time>2026-04-18T11:12:31Z</time></trkpt><trkpt lat="44.310450725980765" lon="10.230122076173288"><ele>1121.6</ele><time>2026-04-18T11:12:32Z</time></trkpt><trkpt lat="44.310394735706616" lon="10.230196879892526"><ele>1121.2</ele><time>2026-04-18T11:12:33Z</time></trkpt><trkpt lat="44.310373801094734" lon="10.230288532841868"><ele>1120.8</ele><time>2026-04-18T11:12:34Z</time></trkpt><trkpt lat="44.31038997346841" lon="10.230401773417281"><ele>1120.4</ele><time>2026-04-18T11:12:35Z</time></trkpt><trkpt lat="44.31049562366426" lon="10.230487439155581"><ele>1120.0</ele><time>2026-04-18T11:12:36Z</time></trkpt><trkpt lat="44.310618175560094" lon="10.230518661782641"><ele>1115.75</ele><time>2026-04-18T11:12:37Z</time></trkpt><trkpt lat="44.310744394140066" lon="10.230550900454174"><ele>1111.5</ele><time>2026-04-18T11:12:38Z</time></trkpt><trkpt lat="44.31085078445138" lon="10.23059165563307"><ele>1107.25</ele><time>2026-04-18T11:12:39Z</time></trkpt><trkpt lat="44.31092596020269" lon="10.230688011698192"><ele>1103.0</ele><time>2026-04-18T11:12:40Z</time></trkpt><trkpt lat="44.31099677509201" lon="10.230828114526272"><ele>1103.0</ele><time>2026-04-18T11:12:41Z</time></trkpt><trkpt lat="44.311094757690945" lon="10.23097500802251"><ele>1103.0</ele><time>2026-04-18T11:12:42Z</time></trkpt><trkpt lat="44.31116057000924" lon="10.231122596323065"><ele>1103.0</ele><time>2026-04-18T11:12:43Z</time></trkpt><trkpt lat="44.31125470486791" lon="10.231259280146489"><ele>1103.0</ele><time>2026-04-18T11:12:44Z</time></trkpt><trkpt lat="44.31137172378871" lon="10.231391964755248"><ele>1100.25</ele><time>2026-04-18T11:12:45Z</time></trkpt><trkpt lat="44.3114937790883" lon="10.23148277826904"><ele>1097.5</ele><time>2026-04-18T11:12:46Z</time></trkpt><trkpt lat="44.31162066193051" lon="10.23154353049002"><ele>1094.75</ele><time>2026-04-18T11:12:47Z</time></trkpt><trkpt lat="44.31175069738302" lon="10.231574291325927"><ele>1092.0</ele><time>2026-04-18T11:12:48Z</time></trkpt><trkpt lat="44.31188047871882" lon="10.2315873821094"><ele>1092.0</ele><time>2026-04-18T11:12:49Z</time></trkpt><trkpt lat="44.311986474221946" lon="10.231642490122894"><ele>1092.0</ele><time>2026-04-18T11:12:50Z</time></trkpt><trkpt lat="44.31209216868045" lon="10.231731842363097"><ele>1092.0</ele><time>2026-04-18T11:12:51Z</time></trkpt><trkpt lat="44.31220343482285" lon="10.231910841704844"><ele>1092.0</ele><time>2026-04-18T11:12:52Z</time></trkpt><trkpt lat="44.312338253852815" lon="10.232151169326198"><ele>1087.5</ele><time>2026-04-18T11:12:53Z</time></trkpt><trkpt lat="44.312484733566215" lon="10.232415374024717"><ele>1083.0</ele><time>2026-04-18T11:12:54Z</time></trkpt><trkpt lat="44.312632929239314" lon="10.232644622043889"><ele>1083.0</ele><time>2026-04-18T11:12:55Z</time></trkpt><trkpt lat="44.31276128397409" lon="10.232863421830636"><ele>1083.0</ele><time>2026-04-18T11:12:56Z</time></trkpt><trkpt lat="44.312906411803255" lon="10.233052330175635"><ele>1083.0</ele><time>2026-04-18T11:12:57Z</time></trkpt><trkpt lat="44.31302590224651" lon="10.233265710771276"><ele>1077.25</ele><time>2026-04-18T11:12:58Z</time></trkpt><trkpt lat="44.313115055943065" lon="10.233435040943696"><ele>1071.5</ele><time>2026-04-18T11:12:59Z</time></trkpt><trkpt lat="44.31315932110661" lon="10.233558570211748"><ele>1065.75</ele><time>2026-04-18T11:13:00Z</time></trkpt><trkpt lat="44.31315137556163" lon="10.23368495839988"><ele>1060.0</ele><time>2026-04-18T11:13:01Z</time></trkpt><trkpt lat="44.313100181725176" lon="10.23383612846342"><ele>1068.75</ele><time>2026-04-18T11:13:02Z</time></trkpt><trkpt lat="44.31296060977955" lon="10.233908023054836"><ele>1077.5</ele><time>2026-04-18T11:13:03Z</time></trkpt><trkpt lat="44.312849238164816" lon="10.233991861652157"><ele>1086.25</ele><time>2026-04-18T11:13:04Z</time></trkpt><trkpt lat="44.31280229798066" lon="10.23409814566387"><ele>1095.0</ele><time>2026-04-18T11:13:05Z</time></trkpt><trkpt lat="44.31281776226017" lon="10.234225779620964"><ele>1095.3333333333333</ele><time>2026-04-18T11:13:06Z</time></trkpt><trkpt lat="44.312877819258084" lon="10.234339529353802"><ele>1095.6666666666665</ele><time>2026-04-18T11:13:07Z</time></trkpt><trkpt lat="44.31303364221093" lon="10.234383627650885"><ele>1096.0</ele><time>2026-04-18T11:13:08Z</time></trkpt><trkpt lat="44.31323278983369" lon="10.234450724867086"><ele>1086.6666666666665</ele><time>2026-04-18T11:13:09Z</time></trkpt><trkpt lat="44.313355995668665" lon="10.23456574899047"><ele>1077.3333333333333</ele><time>2026-04-18T11:13:10Z</time></trkpt><trkpt lat="44.31343517477653" lon="10.234756839873516"><ele>1068.0</ele><time>2026-04-18T11:13:11Z</time></trkpt><trkpt lat="44.31355040201072" lon="10.235015401088514"><ele>1068.0</ele><time>2026-04-18T11:13:12Z</time></trkpt><trkpt lat="44.31365050959845" lon="10.23532023603012"><ele>1068.0</ele><time>2026-04-18T11:13:13Z</time></trkpt><trkpt lat="44.31369557301795" lon="10.235566907509737"><ele>1068.0</ele><time>2026-04-18T11:13:14Z</time></trkpt><trkpt lat="44.31374690460971" lon="10.23575285917542"><ele>1070.6666666666667</ele><time>2026-04-18T11:13:15Z</time></trkpt><trkpt lat="44.31381705455077" lon="10.235902373498185"><ele>1073.3333333333335</ele><time>2026-04-18T11:13:16Z</time></trkpt><trkpt lat="44.31397728132243" lon="10.2360609347474"><ele>1076.0</ele><time>2026-04-18T11:13:17Z</time></trkpt><trkpt lat="44.314152806207716" lon="10.236251897321841"><ele>1070.0</ele><time>2026-04-18T11:13:18Z</time></trkpt><trkpt lat="44.314252981100175" lon="10.236418206780563"><ele>1064.0</ele><time>2026-04-18T11:13:19Z</time></trkpt><trkpt lat="44.31429465841246" lon="10.236545415917611"><ele>1058.0</ele><time>2026-04-18T11:13:20Z</time></trkpt><trkpt lat="44.31427667032618" lon="10.236709616438262"><ele>1052.0</ele><time>2026-04-18T11:13:21Z</time></trkpt><trkpt lat="44.314292576705114" lon="10.236881188636776"><ele>1052.0</ele><time>2026-04-18T11:13:22Z</time></trkpt><trkpt lat="44.31428664031665" lon="10.236987615592861"><ele>1052.0</ele><time>2026-04-18T11:13:23Z</time></trkpt><trkpt lat="44.314401150754975" lon="10.237039593549595"><ele>1052.0</ele><time>2026-04-18T11:13:25Z</time></trkpt><trkpt lat="44.31446877061652" lon="10.236947231920015"><ele>1052.0</ele><time>2026-04-18T11:13:26Z</time></trkpt><trkpt lat="44.31447883448465" lon="10.236786945321917"><ele>1052.0</ele><time>2026-04-18T11:13:27Z</time></trkpt><trkpt lat="44.31445792207766" lon="10.236562095196954"><ele>1047.6666666666667</ele><time>2026-04-18T11:13:28Z</time></trkpt><trkpt lat="44.31444320591015" lon="10.236302442142701"><ele>1043.3333333333333</ele><time>2026-04-18T11:13:29Z</time></trkpt><trkpt lat="44.31440432153907" lon="10.236022446535756"><ele>1039.0</ele><time>2026-04-18T11:13:30Z</time></trkpt><trkpt lat="44.31432909354106" lon="10.23574872303378"><ele>1035.0</ele><time>2026-04-18T11:13:31Z</time></trkpt><trkpt lat="44.31425117737691" lon="10.23551587819626"><ele>1031.0</ele><time>2026-04-18T11:13:32Z</time></trkpt><trkpt lat="44.31418559105295" lon="10.235318182959071"><ele>1027.0</ele><time>2026-04-18T11:13:33Z</time></trkpt><trkpt lat="44.314131018701374" lon="10.235165565096976"><ele>1027.0</ele><time>2026-04-18T11:13:34Z</time></trkpt><trkpt lat="44.314106626075166" lon="10.235035936693937"><ele>1027.0</ele><time>2026-04-18T11:13:35Z</time></trkpt><trkpt lat="44.31408731776362" lon="10.234952141295135"><ele>1027.0</ele><time>2026-04-18T11:13:36Z</time></trkpt><trkpt lat="44.31418660090202" lon="10.2348919754758"><ele>1027.0</ele><time>2026-04-18T11:13:38Z</time></trkpt><trkpt lat="44.3142711649711" lon="10.235007227769605"><ele>1027.0</ele><time>2026-04-18T11:13:39Z</time></trkpt><trkpt lat="44.31437693578043" lon="10.235200465717275"><ele>1027.0</ele><time>2026-04-18T11:13:40Z</time></trkpt><trkpt lat="44.314498907124666" lon="10.23539779167183"><ele>1027.0</ele><time>2026-04-18T11:13:41Z</time></trkpt><trkpt lat="44.3146513817202" lon="10.235625248403313"><ele>1027.0</ele><time>2026-04-18T11:13:42Z</time></trkpt><trkpt lat="44.31476874453474" lon="10.235839777630206"><ele>1017.5</ele><time>2026-04-18T11:13:43Z</time></trkpt><trkpt lat="44.31492441063019" lon="10.236092695665658"><ele>1008.0</ele><time>2026-04-18T11:13:44Z</time></trkpt><trkpt lat="44.315063268662044" lon="10.236359827835194"><ele>1013.0</ele><time>2026-04-18T11:13:45Z</time></trkpt><trkpt lat="44.31519312764562" lon="10.236609764322841"><ele>1018.0</ele><time>2026-04-18T11:13:46Z</time></trkpt><trkpt lat="44.31531229369116" lon="10.236840155429508"><ele>1023.0</ele><time>2026-04-18T11:13:47Z</time></trkpt><trkpt lat="44.3154364210602" lon="10.23704712315924"><ele>1017.3333333333333</ele><time>2026-04-18T11:13:48Z</time></trkpt><trkpt lat="44.315583183054756" lon="10.237238374567463"><ele>1011.6666666666666</ele><time>2026-04-18T11:13:49Z</time></trkpt><trkpt lat="44.3157623316383" lon="10.237398032239213"><ele>1006.0</ele><time>2026-04-18T11:13:50Z</time></trkpt><trkpt lat="44.31593860615185" lon="10.23754062560822"><ele>1006.0</ele><time>2026-04-18T11:13:51Z</time></trkpt><trkpt lat="44.316074577507095" lon="10.237702784517882"><ele>1006.0</ele><time>2026-04-18T11:13:52Z</time></trkpt><trkpt lat="44.31615408679215" lon="10.23791241345074"><ele>1006.0</ele><time>2026-04-18T11:13:53Z</time></trkpt><trkpt lat="44.31623472044562" lon="10.238112727141718"><ele>1009.1999999999999</ele><time>2026-04-18T11:13:54Z</time></trkpt><trkpt lat="44.31630139272038" lon="10.238271028051033"><ele>1012.3999999999999</ele><time>2026-04-18T11:13:55Z</time></trkpt><trkpt lat="44.31634128694719" lon="10.23842038314334"><ele>1015.6</ele><time>2026-04-18T11:13:56Z</time></trkpt><trkpt lat="44.31636433181504" lon="10.238543409215422"><ele>1018.8</ele><time>2026-04-18T11:13:57Z</time></trkpt><trkpt lat="44.31640701644428" lon="10.238611536128653"><ele>1022.0</ele><time>2026-04-18T11:13:58Z</time></trkpt><trkpt lat="44.31653002251271" lon="10.238519916355934"><ele>1016.6666666666667</ele><time>2026-04-18T11:14:00Z</time></trkpt><trkpt lat="44.316450418441164" lon="10.238263410687393"><ele>1011.3333333333333</ele><time>2026-04-18T11:14:01.999Z</time></trkpt><trkpt lat="44.3163593893566" lon="10.238116240117863"><ele>1006.0</ele><time>2026-04-18T11:14:02.999Z</time></trkpt><trkpt lat="44.31629769251866" lon="10.23792196276629"><ele>1006.0</ele><time>2026-04-18T11:14:03.999Z</time></trkpt><trkpt lat="44.31622870282148" lon="10.2377033019506"><ele>1006.0</ele><time>2026-04-18T11:14:04.999Z</time></trkpt><trkpt lat="44.31617083163662" lon="10.237424882225934"><ele>1006.0</ele><time>2026-04-18T11:14:05.999Z</time></trkpt><trkpt lat="44.31609680471739" lon="10.237173307198026"><ele>1000.3333333333333</ele><time>2026-04-18T11:14:06.999Z</time></trkpt><trkpt lat="44.31601294527228" lon="10.236940378684203"><ele>994.6666666666667</ele><time>2026-04-18T11:14:07.999Z</time></trkpt><trkpt lat="44.315943538712716" lon="10.23672502429858"><ele>989.0</ele><time>2026-04-18T11:14:08.999Z</time></trkpt><trkpt lat="44.31588273453525" lon="10.236521335933887"><ele>984.75</ele><time>2026-04-18T11:14:09.999Z</time></trkpt><trkpt lat="44.315810307408974" lon="10.236332739075525"><ele>980.5</ele><time>2026-04-18T11:14:10.999Z</time></trkpt><trkpt lat="44.31571270758527" lon="10.236170184958832"><ele>976.25</ele><time>2026-04-18T11:14:11.999Z</time></trkpt><trkpt lat="44.31561351993977" lon="10.236046882976352"><ele>972.0</ele><time>2026-04-18T11:14:12.999Z</time></trkpt><trkpt lat="44.31556550051667" lon="10.23595812229212"><ele>972.0</ele><time>2026-04-18T11:14:13.999Z</time></trkpt><trkpt lat="44.315566558715815" lon="10.235869691532775"><ele>972.0</ele><time>2026-04-18T11:14:15.999Z</time></trkpt><trkpt lat="44.31564014423836" lon="10.235881095284011"><ele>972.0</ele><time>2026-04-18T11:14:16.999Z</time></trkpt><trkpt lat="44.31569663884516" lon="10.235966784242345"><ele>972.0</ele><time>2026-04-18T11:14:17.999Z</time></trkpt><trkpt lat="44.31577039445805" lon="10.236121459987013"><ele>972.0</ele><time>2026-04-18T11:14:18.999Z</time></trkpt><trkpt lat="44.31585944864406" lon="10.23629753696644"><ele>972.0</ele><time>2026-04-18T11:14:19.999Z</time></trkpt><trkpt lat="44.31599621138741" lon="10.23645564231698"><ele>972.0</ele><time>2026-04-18T11:14:20.999Z</time></trkpt><trkpt lat="44.31613187902455" lon="10.236589549541055"><ele>972.0</ele><time>2026-04-18T11:14:21.999Z</time></trkpt><trkpt lat="44.31627403976152" lon="10.236712397995511"><ele>969.3333333333333</ele><time>2026-04-18T11:14:22.999Z</time></trkpt><trkpt lat="44.31645328203422" lon="10.236774605086499"><ele>966.6666666666666</ele><time>2026-04-18T11:14:23.999Z</time></trkpt><trkpt lat="44.316640663453924" lon="10.236765701581149"><ele>964.0</ele><time>2026-04-18T11:14:24.999Z</time></trkpt><trkpt lat="44.31675095896153" lon="10.2366965184983"><ele>964.0</ele><time>2026-04-18T11:14:25.999Z</time></trkpt><trkpt lat="44.316867897663165" lon="10.2366656451517"><ele>964.0</ele><time>2026-04-18T11:14:26.999Z</time></trkpt><trkpt lat="44.31705894252763" lon="10.236742775776822"><ele>964.0</ele><time>2026-04-18T11:14:27.999Z</time></trkpt><trkpt lat="44.317189852673486" lon="10.236887019731968"><ele>959.6666666666666</ele><time>2026-04-18T11:14:28.999Z</time></trkpt><trkpt lat="44.317290325968585" lon="10.237090517359517"><ele>955.3333333333333</ele><time>2026-04-18T11:14:29.999Z</time></trkpt><trkpt lat="44.31735448593018" lon="10.237342181181978"><ele>951.0</ele><time>2026-04-18T11:14:30.999Z</time></trkpt><trkpt lat="44.317413688961864" lon="10.237585895350376"><ele>950.6666666666667</ele><time>2026-04-18T11:14:32Z</time></trkpt><trkpt lat="44.31744242476715" lon="10.237821004502571"><ele>950.3333333333334</ele><time>2026-04-18T11:14:33Z</time></trkpt><trkpt lat="44.31748470798441" lon="10.238019858704893"><ele>950.0</ele><time>2026-04-18T11:14:34Z</time></trkpt><trkpt lat="44.3175598395106" lon="10.23818481328083"><ele>952.0</ele><time>2026-04-18T11:14:35Z</time></trkpt><trkpt lat="44.317673052569376" lon="10.238320211954377"><ele>954.0</ele><time>2026-04-18T11:14:36Z</time></trkpt><trkpt lat="44.31780326422534" lon="10.238400281003603"><ele>956.0</ele><time>2026-04-18T11:14:37Z</time></trkpt><trkpt lat="44.317919680429526" lon="10.238448039436406"><ele>958.0</ele><time>2026-04-18T11:14:38Z</time></trkpt><trkpt lat="44.31803415929232" lon="10.238412801139972"><ele>955.25</ele><time>2026-04-18T11:14:39Z</time></trkpt><trkpt lat="44.31814515759647" lon="10.238282741142875"><ele>952.5</ele><time>2026-04-18T11:14:40Z</time></trkpt><trkpt lat="44.31827444399632" lon="10.238134074957038"><ele>949.75</ele><time>2026-04-18T11:14:41Z</time></trkpt><trkpt lat="44.31839267824864" lon="10.238046611570555"><ele>947.0</ele><time>2026-04-18T11:14:42Z</time></trkpt><trkpt lat="44.31851971803189" lon="10.238088294228808"><ele>947.0</ele><time>2026-04-18T11:14:43Z</time></trkpt><trkpt lat="44.31871041768295" lon="10.238088414752195"><ele>947.0</ele><time>2026-04-18T11:14:44Z</time></trkpt><trkpt lat="44.31891468471248" lon="10.23811997265898"><ele>947.0</ele><time>2026-04-18T11:14:45Z</time></trkpt><trkpt lat="44.31912220426656" lon="10.238146548594711"><ele>943.6666666666667</ele><time>2026-04-18T11:14:46Z</time></trkpt><trkpt lat="44.31930991201475" lon="10.238220823921512"><ele>940.3333333333333</ele><time>2026-04-18T11:14:47Z</time></trkpt><trkpt lat="44.31950901483277" lon="10.238319088876207"><ele>937.0</ele><time>2026-04-18T11:14:48Z</time></trkpt><trkpt lat="44.319708578394575" lon="10.238446617018612"><ele>939.5</ele><time>2026-04-18T11:14:49Z</time></trkpt><trkpt lat="44.319932429904775" lon="10.238590674315626"><ele>942.0</ele><time>2026-04-18T11:14:50Z</time></trkpt><trkpt lat="44.32012586700112" lon="10.23873967237838"><ele>942.0</ele><time>2026-04-18T11:14:51Z</time></trkpt><trkpt lat="44.320278268503614" lon="10.23891422653348"><ele>942.0</ele><time>2026-04-18T11:14:52Z</time></trkpt><trkpt lat="44.32039418780405" lon="10.239107567272054"><ele>942.0</ele><time>2026-04-18T11:14:53Z</time></trkpt><trkpt lat="44.32050022564079" lon="10.239277922653981"><ele>940.6666666666667</ele><time>2026-04-18T11:14:54Z</time></trkpt><trkpt lat="44.32066405292954" lon="10.239402066219252"><ele>939.3333333333334</ele><time>2026-04-18T11:14:55Z</time></trkpt><trkpt lat="44.32084816525092" lon="10.239500812237736"><ele>938.0</ele><time>2026-04-18T11:14:56Z</time></trkpt><trkpt lat="44.32100560801113" lon="10.239587307417588"><ele>938.0</ele><time>2026-04-18T11:14:57Z</time></trkpt><trkpt lat="44.32115748047968" lon="10.239638476749967"><ele>938.0</ele><time>2026-04-18T11:14:58Z</time></trkpt><trkpt lat="44.3213021469664" lon="10.239659036589263"><ele>938.0</ele><time>2026-04-18T11:14:59Z</time></trkpt><trkpt lat="44.32144812139344" lon="10.23968292822033"><ele>938.0</ele><time>2026-04-18T11:15:00Z</time></trkpt><trkpt lat="44.32157377141502" lon="10.239719035640443"><ele>938.0</ele><time>2026-04-18T11:15:01Z</time></trkpt><trkpt lat="44.32167881017632" lon="10.239728666869091"><ele>938.0</ele><time>2026-04-18T11:15:02Z</time></trkpt><trkpt lat="44.321762849765385" lon="10.239695329092756"><ele>938.0</ele><time>2026-04-18T11:15:03Z</time></trkpt><trkpt lat="44.32181520336773" lon="10.239588993918346"><ele>938.0</ele><time>2026-04-18T11:15:04Z</time></trkpt><trkpt lat="44.32187468212328" lon="10.23948789527815"><ele>938.0</ele><time>2026-04-18T11:15:05Z</time></trkpt><trkpt lat="44.32198188094093" lon="10.239458772998429"><ele>938.0000000000001</ele><time>2026-04-18T11:15:07Z</time></trkpt><trkpt lat="44.32203771131134" lon="10.239515952304737"><ele>938.0</ele><time>2026-04-18T11:15:08Z</time></trkpt><trkpt lat="44.32209622042339" lon="10.239615007902687"><ele>938.0</ele><time>2026-04-18T11:15:09Z</time></trkpt><trkpt lat="44.322130903944654" lon="10.239713322249251"><ele>938.0</ele><time>2026-04-18T11:15:10Z</time></trkpt><trkpt lat="44.32217557974978" lon="10.239828247071005"><ele>938.0000000000001</ele><time>2026-04-18T11:15:11Z</time></trkpt><trkpt lat="44.322240920749095" lon="10.239891857936351"><ele>938.0</ele><time>2026-04-18T11:15:12Z</time></trkpt><trkpt lat="44.3223417788319" lon="10.239936514290145"><ele>933.0</ele><time>2026-04-18T11:15:13Z</time></trkpt><trkpt lat="44.32243331371857" lon="10.23994769131742"><ele>928.0</ele><time>2026-04-18T11:15:14Z</time></trkpt><trkpt lat="44.322562200034795" lon="10.240015926837039"><ele>923.0</ele><time>2026-04-18T11:15:16Z</time></trkpt><trkpt lat="44.3226215236389" lon="10.240168256865836"><ele>918.0</ele><time>2026-04-18T11:15:17Z</time></trkpt><trkpt lat="44.32272079803305" lon="10.24041864849751"><ele>910.5</ele><time>2026-04-18T11:15:18Z</time></trkpt><trkpt lat="44.32286003256277" lon="10.240711715849915"><ele>903.0</ele><time>2026-04-18T11:15:19Z</time></trkpt><trkpt lat="44.32294648751778" lon="10.241010541555706"><ele>903.0</ele><time>2026-04-18T11:15:20Z</time></trkpt><trkpt lat="44.32303583657195" lon="10.24125955094294"><ele>903.0</ele><time>2026-04-18T11:15:21Z</time></trkpt><trkpt lat="44.32310788600073" lon="10.241462509377092"><ele>903.0</ele><time>2026-04-18T11:15:22Z</time></trkpt><trkpt lat="44.3231953502279" lon="10.241688186428645"><ele>901.6666666666667</ele><time>2026-04-18T11:15:23Z</time></trkpt><trkpt lat="44.32327617809709" lon="10.241922946514226"><ele>900.3333333333334</ele><time>2026-04-18T11:15:24Z</time></trkpt><trkpt lat="44.32338406354021" lon="10.24215287977047"><ele>899.0</ele><time>2026-04-18T11:15:25Z</time></trkpt><trkpt lat="44.32354885746472" lon="10.24235963599875"><ele>895.0</ele><time>2026-04-18T11:15:26Z</time></trkpt><trkpt lat="44.32372853503431" lon="10.242561210356225"><ele>891.0</ele><time>2026-04-18T11:15:27Z</time></trkpt><trkpt lat="44.323889799707025" lon="10.242785970797746"><ele>893.5</ele><time>2026-04-18T11:15:28Z</time></trkpt><trkpt lat="44.32403727448728" lon="10.243053454524247"><ele>896.0</ele><time>2026-04-18T11:15:29Z</time></trkpt><trkpt lat="44.32417104398165" lon="10.24331520742576"><ele>896.0</ele><time>2026-04-18T11:15:30Z</time></trkpt><trkpt lat="44.32430322312105" lon="10.243582059915624"><ele>896.0</ele><time>2026-04-18T11:15:31Z</time></trkpt><trkpt lat="44.32442090940845" lon="10.243845391143903"><ele>889.5</ele><time>2026-04-18T11:15:32Z</time></trkpt><trkpt lat="44.324494115936076" lon="10.244136522897348"><ele>883.0</ele><time>2026-04-18T11:15:33Z</time></trkpt><trkpt lat="44.324565084117324" lon="10.244464000518612"><ele>881.0</ele><time>2026-04-18T11:15:34Z</time></trkpt><trkpt lat="44.324611276622825" lon="10.244798626322636"><ele>879.0</ele><time>2026-04-18T11:15:35Z</time></trkpt><trkpt lat="44.32466730824298" lon="10.24513101417857"><ele>888.0</ele><time>2026-04-18T11:15:36Z</time></trkpt><trkpt lat="44.32473598103193" lon="10.245450265347213"><ele>897.0</ele><time>2026-04-18T11:15:37Z</time></trkpt><trkpt lat="44.324798372412545" lon="10.24576550330359"><ele>897.0</ele><time>2026-04-18T11:15:38Z</time></trkpt><trkpt lat="44.3248553711229" lon="10.246068044424607"><ele>897.0</ele><time>2026-04-18T11:15:39Z</time></trkpt><trkpt lat="44.324905620738406" lon="10.246339824947896"><ele>897.0</ele><time>2026-04-18T11:15:40Z</time></trkpt><trkpt lat="44.324959107922545" lon="10.246541669158832"><ele>895.3333333333333</ele><time>2026-04-18T11:15:41Z</time></trkpt><trkpt lat="44.32504051422093" lon="10.246692030481745"><ele>893.6666666666666</ele><time>2026-04-18T11:15:42Z</time></trkpt><trkpt lat="44.32518610940527" lon="10.246804662561432"><ele>892.0</ele><time>2026-04-18T11:15:43Z</time></trkpt><trkpt lat="44.32536451354734" lon="10.246932593568726"><ele>892.0</ele><time>2026-04-18T11:15:44Z</time></trkpt><trkpt lat="44.32554686905852" lon="10.247102891692"><ele>892.0</ele><time>2026-04-18T11:15:45Z</time></trkpt><trkpt lat="44.3257047268215" lon="10.24727491160274"><ele>892.0</ele><time>2026-04-18T11:15:46Z</time></trkpt><trkpt lat="44.32583537069087" lon="10.247455765655813"><ele>892.6666666666666</ele><time>2026-04-18T11:15:47Z</time></trkpt><trkpt lat="44.32588426055164" lon="10.24770882353157"><ele>893.3333333333333</ele><time>2026-04-18T11:15:48Z</time></trkpt><trkpt lat="44.32594112631645" lon="10.247991035328536"><ele>894.0</ele><time>2026-04-18T11:15:49Z</time></trkpt><trkpt lat="44.32600069027558" lon="10.248282347028164"><ele>892.3333333333333</ele><time>2026-04-18T11:15:50Z</time></trkpt><trkpt lat="44.32605496039656" lon="10.248542446060545"><ele>890.6666666666666</ele><time>2026-04-18T11:15:51Z</time></trkpt><trkpt lat="44.3261085441193" lon="10.248767648698442"><ele>889.0</ele><time>2026-04-18T11:15:52Z</time></trkpt><trkpt lat="44.326195112667456" lon="10.24896241994376"><ele>885.3333333333333</ele><time>2026-04-18T11:15:53Z</time></trkpt><trkpt lat="44.32634104113504" lon="10.249126153062663"><ele>881.6666666666667</ele><time>2026-04-18T11:15:54Z</time></trkpt><trkpt lat="44.32646145123081" lon="10.249332314563286"><ele>878.0</ele><time>2026-04-18T11:15:55Z</time></trkpt><trkpt lat="44.3265331015574" lon="10.249544177953164"><ele>878.5</ele><time>2026-04-18T11:15:56Z</time></trkpt><trkpt lat="44.32655135746177" lon="10.249703583963143"><ele>879.0</ele><time>2026-04-18T11:15:57Z</time></trkpt><trkpt lat="44.32649165188735" lon="10.24983507495317"><ele>879.5</ele><time>2026-04-18T11:15:58Z</time></trkpt><trkpt lat="44.326355429346364" lon="10.24992337836806"><ele>880.0</ele><time>2026-04-18T11:15:59Z</time></trkpt><trkpt lat="44.32627942515069" lon="10.250067902220266"><ele>880.0</ele><time>2026-04-18T11:16:00Z</time></trkpt><trkpt lat="44.32625897421911" lon="10.250192514961016"><ele>880.0</ele><time>2026-04-18T11:16:01Z</time></trkpt><trkpt lat="44.32631355620315" lon="10.250336447471252"><ele>880.0</ele><time>2026-04-18T11:16:02Z</time></trkpt><trkpt lat="44.326419141684205" lon="10.25052223965851"><ele>880.0</ele><time>2026-04-18T11:16:03Z</time></trkpt><trkpt lat="44.32652425774773" lon="10.250755531525668"><ele>886.3333333333333</ele><time>2026-04-18T11:16:04Z</time></trkpt><trkpt lat="44.326620596387905" lon="10.251022533371012"><ele>892.6666666666667</ele><time>2026-04-18T11:16:05Z</time></trkpt><trkpt lat="44.32671800473394" lon="10.251290293757611"><ele>899.0</ele><time>2026-04-18T11:16:06Z</time></trkpt><trkpt lat="44.32674855207241" lon="10.25153278282379"><ele>899.0</ele><time>2026-04-18T11:16:07Z</time></trkpt><trkpt lat="44.326785466267005" lon="10.251685166159039"><ele>899.0</ele><time>2026-04-18T11:16:08Z</time></trkpt><trkpt lat="44.32683354891362" lon="10.251786769764724"><ele>899.0</ele><time>2026-04-18T11:16:09Z</time></trkpt><trkpt lat="44.326964914223204" lon="10.251842789535507"><ele>899.0</ele><time>2026-04-18T11:16:09.999Z</time></trkpt><trkpt lat="44.327148792179365" lon="10.251892329972025"><ele>913.6666666666667</ele><time>2026-04-18T11:16:10.999Z</time></trkpt><trkpt lat="44.32733912992354" lon="10.252003903200546"><ele>928.3333333333333</ele><time>2026-04-18T11:16:11.999Z</time></trkpt><trkpt lat="44.32751936249083" lon="10.252149523492877"><ele>943.0</ele><time>2026-04-18T11:16:12.999Z</time></trkpt><trkpt lat="44.32768068376316" lon="10.252280442028768"><ele>935.75</ele><time>2026-04-18T11:16:13.999Z</time></trkpt><trkpt lat="44.32771237320614" lon="10.252404122811155"><ele>928.5</ele><time>2026-04-18T11:16:14.999Z</time></trkpt><trkpt lat="44.327618872475206" lon="10.252589686838716"><ele>921.25</ele><time>2026-04-18T11:16:15.999Z</time></trkpt><trkpt lat="44.327676796987895" lon="10.252810237553385"><ele>914.0</ele><time>2026-04-18T11:16:17.999Z</time></trkpt><trkpt lat="44.32780104906764" lon="10.252985975063861"><ele>920.6666666666667</ele><time>2026-04-18T11:16:18.999Z</time></trkpt><trkpt lat="44.327944498703545" lon="10.25320379821024"><ele>927.3333333333333</ele><time>2026-04-18T11:16:19.999Z</time></trkpt><trkpt lat="44.328087214934214" lon="10.253426480030587"><ele>934.0</ele><time>2026-04-18T11:16:20.999Z</time></trkpt><trkpt lat="44.32818682437458" lon="10.253563970865983"><ele>934.0</ele><time>2026-04-18T11:16:21.999Z</time></trkpt><trkpt lat="44.32828047740113" lon="10.253602130416057"><ele>934.0000000000001</ele><time>2026-04-18T11:16:22.999Z</time></trkpt><trkpt lat="44.32839321159274" lon="10.253584003101112"><ele>934.0000000000001</ele><time>2026-04-18T11:16:23.999Z</time></trkpt><trkpt lat="44.3284737344008" lon="10.253652108559653"><ele>934.0</ele><time>2026-04-18T11:16:24.999Z</time></trkpt><trkpt lat="44.32844356896079" lon="10.253827632499176"><ele>934.0</ele><time>2026-04-18T11:16:25.999Z</time></trkpt><trkpt lat="44.32845905772563" lon="10.254030771679847"><ele>924.5</ele><time>2026-04-18T11:16:26.999Z</time></trkpt><trkpt lat="44.32850845338645" lon="10.254153395915539"><ele>915.0</ele><time>2026-04-18T11:16:27.999Z</time></trkpt><trkpt lat="44.3285939848104" lon="10.254215179245833"><ele>905.5</ele><time>2026-04-18T11:16:28.999Z</time></trkpt><trkpt lat="44.32872768980567" lon="10.254199278576754"><ele>896.0</ele><time>2026-04-18T11:16:29.999Z</time></trkpt><trkpt lat="44.32884652298304" lon="10.254204531120216"><ele>907.0</ele><time>2026-04-18T11:16:30.999Z</time></trkpt><trkpt lat="44.32890830496487" lon="10.25437202563735"><ele>918.0</ele><time>2026-04-18T11:16:31.999Z</time></trkpt><trkpt lat="44.32901073583251" lon="10.25451423351995"><ele>929.0</ele><time>2026-04-18T11:16:32.999Z</time></trkpt><trkpt lat="44.32910977656832" lon="10.254587058804365"><ele>940.0</ele><time>2026-04-18T11:16:33.999Z</time></trkpt><trkpt lat="44.32925760124141" lon="10.254554368094555"><ele>940.0</ele><time>2026-04-18T11:16:34.999Z</time></trkpt><trkpt lat="44.3293911773086" lon="10.254537386465932"><ele>940.0</ele><time>2026-04-18T11:16:35.999Z</time></trkpt><trkpt lat="44.32946416346188" lon="10.254591319211812"><ele>940.0</ele><time>2026-04-18T11:16:36.999Z</time></trkpt><trkpt lat="44.329497360299655" lon="10.254714006143168"><ele>940.0</ele><time>2026-04-18T11:16:38Z</time></trkpt><trkpt lat="44.32941882676992" lon="10.254903524406021"><ele>928.75</ele><time>2026-04-18T11:16:39Z</time></trkpt><trkpt lat="44.32940211320867" lon="10.25515496439789"><ele>917.5</ele><time>2026-04-18T11:16:40Z</time></trkpt><trkpt lat="44.32941944804332" lon="10.255334278990833"><ele>906.25</ele><time>2026-04-18T11:16:41Z</time></trkpt><trkpt lat="44.32944575935173" lon="10.255453232755753"><ele>895.0</ele><time>2026-04-18T11:16:42Z</time></trkpt><trkpt lat="44.329538905046824" lon="10.255522494154317"><ele>895.0</ele><time>2026-04-18T11:16:43Z</time></trkpt><trkpt lat="44.329698857952536" lon="10.255512307162853"><ele>895.0</ele><time>2026-04-18T11:16:44Z</time></trkpt><trkpt lat="44.329890476833455" lon="10.255451855970035"><ele>895.0</ele><time>2026-04-18T11:16:45Z</time></trkpt><trkpt lat="44.33009764318569" lon="10.255373687516617"><ele>893.8</ele><time>2026-04-18T11:16:46Z</time></trkpt><trkpt lat="44.33018875028938" lon="10.255381853970839"><ele>892.6</ele><time>2026-04-18T11:16:47Z</time></trkpt><trkpt lat="44.330245466070124" lon="10.255451943881017"><ele>891.4000000000001</ele><time>2026-04-18T11:16:48Z</time></trkpt><trkpt lat="44.33028485691945" lon="10.255594815182283"><ele>890.2</ele><time>2026-04-18T11:16:49Z</time></trkpt><trkpt lat="44.33028115549915" lon="10.255811967459191"><ele>889.0</ele><time>2026-04-18T11:16:50Z</time></trkpt><trkpt lat="44.33033250838018" lon="10.255971959457643"><ele>889.0</ele><time>2026-04-18T11:16:51Z</time></trkpt><trkpt lat="44.330463073187" lon="10.25609933018301"><ele>889.0</ele><time>2026-04-18T11:16:52Z</time></trkpt><trkpt lat="44.33064408504408" lon="10.256214680469872"><ele>889.0</ele><time>2026-04-18T11:16:53Z</time></trkpt><trkpt lat="44.33085705810983" lon="10.25632927546123"><ele>891.6666666666666</ele><time>2026-04-18T11:16:54Z</time></trkpt><trkpt lat="44.33107325506503" lon="10.256462812869149"><ele>894.3333333333333</ele><time>2026-04-18T11:16:55Z</time></trkpt><trkpt lat="44.331263401191826" lon="10.256580641189764"><ele>897.0</ele><time>2026-04-18T11:16:56Z</time></trkpt><trkpt lat="44.331395759485964" lon="10.25672158913097"><ele>897.0</ele><time>2026-04-18T11:16:57Z</time></trkpt><trkpt lat="44.3315243043798" lon="10.256899940024756"><ele>897.0</ele><time>2026-04-18T11:16:58Z</time></trkpt><trkpt lat="44.33165326544065" lon="10.257041192279864"><ele>897.0</ele><time>2026-04-18T11:16:59Z</time></trkpt><trkpt lat="44.331750722492984" lon="10.257110753995093"><ele>897.0</ele><time>2026-04-18T11:17:00Z</time></trkpt><trkpt lat="44.331891387394656" lon="10.257125754782132"><ele>897.0</ele><time>2026-04-18T11:17:01Z</time></trkpt><trkpt lat="44.332086203928" lon="10.257084461568848"><ele>897.0</ele><time>2026-04-18T11:17:02Z</time></trkpt><trkpt lat="44.3322487921219" lon="10.257047567410318"><ele>892.0</ele><time>2026-04-18T11:17:03Z</time></trkpt><trkpt lat="44.332382055901476" lon="10.25697523673495"><ele>887.0</ele><time>2026-04-18T11:17:04Z</time></trkpt><trkpt lat="44.332473493918144" lon="10.256826489293413"><ele>882.0</ele><time>2026-04-18T11:17:05Z</time></trkpt><trkpt lat="44.332642272098525" lon="10.256608319103377"><ele>889.0</ele><time>2026-04-18T11:17:06Z</time></trkpt><trkpt lat="44.33276889155849" lon="10.256420058686908"><ele>896.0</ele><time>2026-04-18T11:17:07Z</time></trkpt><trkpt lat="44.332897474181166" lon="10.256261757619525"><ele>903.0</ele><time>2026-04-18T11:17:08Z</time></trkpt><trkpt lat="44.33303413577803" lon="10.256137953050448"><ele>894.0</ele><time>2026-04-18T11:17:09Z</time></trkpt><trkpt lat="44.333162187878976" lon="10.256028103848262"><ele>885.0</ele><time>2026-04-18T11:17:10Z</time></trkpt><trkpt lat="44.33326643421543" lon="10.255922953232236"><ele>876.0</ele><time>2026-04-18T11:17:11Z</time></trkpt><trkpt lat="44.33332676517129" lon="10.255788464716211"><ele>867.0</ele><time>2026-04-18T11:17:12Z</time></trkpt><trkpt lat="44.333366405189786" lon="10.255652507697082"><ele>871.2</ele><time>2026-04-18T11:17:13Z</time></trkpt><trkpt lat="44.33341427772396" lon="10.255539197094453"><ele>875.4000000000001</ele><time>2026-04-18T11:17:14Z</time></trkpt><trkpt lat="44.33347871273786" lon="10.255443270322225"><ele>879.5999999999999</ele><time>2026-04-18T11:17:15Z</time></trkpt><trkpt lat="44.33355350414817" lon="10.255369722944584"><ele>883.8</ele><time>2026-04-18T11:17:16Z</time></trkpt><trkpt lat="44.33364267167694" lon="10.255319823808005"><ele>888.0</ele><time>2026-04-18T11:17:17Z</time></trkpt><trkpt lat="44.33373019577557" lon="10.255268824480728"><ele>888.0</ele><time>2026-04-18T11:17:18Z</time></trkpt><trkpt lat="44.333794650084705" lon="10.255156010844066"><ele>888.0</ele><time>2026-04-18T11:17:19Z</time></trkpt><trkpt lat="44.33389029627684" lon="10.254942124720984"><ele>888.0</ele><time>2026-04-18T11:17:20Z</time></trkpt><trkpt lat="44.33398978533684" lon="10.254695330141866"><ele>882.0</ele><time>2026-04-18T11:17:21Z</time></trkpt><trkpt lat="44.334072006059515" lon="10.254466435300222"><ele>876.0</ele><time>2026-04-18T11:17:22Z</time></trkpt><trkpt lat="44.33414179117848" lon="10.254296732293822"><ele>870.0</ele><time>2026-04-18T11:17:23Z</time></trkpt><trkpt lat="44.334185170489626" lon="10.254183438101084"><ele>864.0</ele><time>2026-04-18T11:17:24Z</time></trkpt><trkpt lat="44.33424399192945" lon="10.25409579190797"><ele>864.0</ele><time>2026-04-18T11:17:26Z</time></trkpt><trkpt lat="44.33429077668254" lon="10.254166778988626"><ele>864.0000000000001</ele><time>2026-04-18T11:17:27Z</time></trkpt><trkpt lat="44.33428829492835" lon="10.254280704402852"><ele>864.0000000000001</ele><time>2026-04-18T11:17:28Z</time></trkpt><trkpt lat="44.33423822747069" lon="10.254432737863418"><ele>864.0</ele><time>2026-04-18T11:17:29Z</time></trkpt><trkpt lat="44.334190502332305" lon="10.254632420156957"><ele>864.0</ele><time>2026-04-18T11:17:30Z</time></trkpt><trkpt lat="44.33417507912517" lon="10.254865043252321"><ele>860.4000000000001</ele><time>2026-04-18T11:17:31Z</time></trkpt><trkpt lat="44.334163109530664" lon="10.255051209518916"><ele>856.8000000000001</ele><time>2026-04-18T11:17:32Z</time></trkpt><trkpt lat="44.334155699544944" lon="10.25517167730316"><ele>853.2</ele><time>2026-04-18T11:17:33Z</time></trkpt><trkpt lat="44.33424615599521" lon="10.255237525313222"><ele>849.5999999999999</ele><time>2026-04-18T11:17:35Z</time></trkpt><trkpt lat="44.33430532964308" lon="10.255168554741413"><ele>846.0</ele><time>2026-04-18T11:17:36Z</time></trkpt><trkpt lat="44.33432851666145" lon="10.255007648455356"><ele>852.0</ele><time>2026-04-18T11:17:37Z</time></trkpt><trkpt lat="44.33433854863533" lon="10.25476598615748"><ele>858.0</ele><time>2026-04-18T11:17:38Z</time></trkpt><trkpt lat="44.33435605090119" lon="10.254519788174415"><ele>864.0</ele><time>2026-04-18T11:17:39Z</time></trkpt><trkpt lat="44.33440910084492" lon="10.254312010632226"><ele>864.0</ele><time>2026-04-18T11:17:40Z</time></trkpt><trkpt lat="44.33453494463795" lon="10.254117165863676"><ele>864.0</ele><time>2026-04-18T11:17:41Z</time></trkpt><trkpt lat="44.33468375023767" lon="10.253890750192548"><ele>864.0</ele><time>2026-04-18T11:17:42Z</time></trkpt><trkpt lat="44.334857936754155" lon="10.253654631987512"><ele>854.0</ele><time>2026-04-18T11:17:43Z</time></trkpt><trkpt lat="44.33504014186944" lon="10.253444746183629"><ele>844.0</ele><time>2026-04-18T11:17:44Z</time></trkpt><trkpt lat="44.335214113307465" lon="10.253227771091069"><ele>855.5</ele><time>2026-04-18T11:17:45Z</time></trkpt><trkpt lat="44.335383623239096" lon="10.253007361790404"><ele>867.0</ele><time>2026-04-18T11:17:46Z</time></trkpt><trkpt lat="44.33554709486763" lon="10.252766649988711"><ele>854.0</ele><time>2026-04-18T11:17:47Z</time></trkpt><trkpt lat="44.335699480604944" lon="10.252516870975862"><ele>841.0</ele><time>2026-04-18T11:17:48Z</time></trkpt><trkpt lat="44.335858074264735" lon="10.252256102652353"><ele>841.0</ele><time>2026-04-18T11:17:49Z</time></trkpt><trkpt lat="44.336012230119834" lon="10.252017747490745"><ele>841.0</ele><time>2026-04-18T11:17:50Z</time></trkpt><trkpt lat="44.33615657068811" lon="10.251793284651948"><ele>841.0</ele><time>2026-04-18T11:17:51Z</time></trkpt><trkpt lat="44.33629215677776" lon="10.251571859860917"><ele>836.0</ele><time>2026-04-18T11:17:52Z</time></trkpt><trkpt lat="44.33640453176833" lon="10.251364733266724"><ele>831.0</ele><time>2026-04-18T11:17:53Z</time></trkpt><trkpt lat="44.33646867804189" lon="10.251198722409221"><ele>826.0</ele><time>2026-04-18T11:17:54Z</time></trkpt><trkpt lat="44.3365177811947" lon="10.251100433721279"><ele>821.0</ele><time>2026-04-18T11:17:55Z</time></trkpt><trkpt lat="44.33661129199172" lon="10.251053214227714"><ele>821.0</ele><time>2026-04-18T11:17:57Z</time></trkpt><trkpt lat="44.33664105414883" lon="10.251154829893036"><ele>821.0</ele><time>2026-04-18T11:17:58Z</time></trkpt><trkpt lat="44.33658520213472" lon="10.251307413083413"><ele>821.0</ele><time>2026-04-18T11:17:59Z</time></trkpt><trkpt lat="44.33649475088479" lon="10.251528122283446"><ele>821.0</ele><time>2026-04-18T11:18:00Z</time></trkpt><trkpt lat="44.33640050259391" lon="10.251770850773523"><ele>821.0</ele><time>2026-04-18T11:18:01Z</time></trkpt><trkpt lat="44.33628233141815" lon="10.252054040282033"><ele>821.0</ele><time>2026-04-18T11:18:02Z</time></trkpt><trkpt lat="44.33617543055439" lon="10.252323506330523"><ele>821.0</ele><time>2026-04-18T11:18:03Z</time></trkpt><trkpt lat="44.33606855442105" lon="10.252590498710607"><ele>821.0</ele><time>2026-04-18T11:18:04Z</time></trkpt><trkpt lat="44.33597977277883" lon="10.2528166402358"><ele>821.0</ele><time>2026-04-18T11:18:05Z</time></trkpt><trkpt lat="44.33590867875324" lon="10.253006546656206"><ele>818.0</ele><time>2026-04-18T11:18:06Z</time></trkpt><trkpt lat="44.33585793463395" lon="10.253161405049536"><ele>815.0</ele><time>2026-04-18T11:18:06.999Z</time></trkpt><trkpt lat="44.33582102712748" lon="10.253271503736517"><ele>812.0</ele><time>2026-04-18T11:18:07.999Z</time></trkpt><trkpt lat="44.33587297205783" lon="10.253425562125917"><ele>809.0</ele><time>2026-04-18T11:18:09.999Z</time></trkpt><trkpt lat="44.335946138670415" lon="10.253451752011543"><ele>806.0</ele><time>2026-04-18T11:18:10.999Z</time></trkpt><trkpt lat="44.33602129313129" lon="10.25340679166755"><ele>806.0</ele><time>2026-04-18T11:18:11.999Z</time></trkpt><trkpt lat="44.33606275340296" lon="10.253224916449629"><ele>806.0</ele><time>2026-04-18T11:18:12.999Z</time></trkpt><trkpt lat="44.33609514970635" lon="10.25302646307544"><ele>806.0</ele><time>2026-04-18T11:18:13.999Z</time></trkpt><trkpt lat="44.33616622994207" lon="10.252802601395398"><ele>803.8</ele><time>2026-04-18T11:18:14.999Z</time></trkpt><trkpt lat="44.33625937305734" lon="10.252632585605102"><ele>801.5999999999999</ele><time>2026-04-18T11:18:15.999Z</time></trkpt><trkpt lat="44.33634019734924" lon="10.252515221565112"><ele>799.4</ele><time>2026-04-18T11:18:16.999Z</time></trkpt><trkpt lat="44.33640427602884" lon="10.252444898409427"><ele>797.2</ele><time>2026-04-18T11:18:17.999Z</time></trkpt><trkpt lat="44.33648982054734" lon="10.252424991116305"><ele>795.0</ele><time>2026-04-18T11:18:18.999Z</time></trkpt><trkpt lat="44.33657582708656" lon="10.25250439026453"><ele>795.0</ele><time>2026-04-18T11:18:19.999Z</time></trkpt><trkpt lat="44.33666661484302" lon="10.25267241974396"><ele>795.0</ele><time>2026-04-18T11:18:20.999Z</time></trkpt><trkpt lat="44.33679323652053" lon="10.252897296846658"><ele>795.0</ele><time>2026-04-18T11:18:21.999Z</time></trkpt><trkpt lat="44.33693404439955" lon="10.253112747797552"><ele>791.0</ele><time>2026-04-18T11:18:22.999Z</time></trkpt><trkpt lat="44.337086460653644" lon="10.253328185008607"><ele>787.0</ele><time>2026-04-18T11:18:23.999Z</time></trkpt><trkpt lat="44.33723109487411" lon="10.253550647726758"><ele>783.0</ele><time>2026-04-18T11:18:24.999Z</time></trkpt><trkpt lat="44.337370837564094" lon="10.253766316467367"><ele>780.0</ele><time>2026-04-18T11:18:25.999Z</time></trkpt><trkpt lat="44.337468378896176" lon="10.253970828002414"><ele>777.0</ele><time>2026-04-18T11:18:26.999Z</time></trkpt><trkpt lat="44.337492494042046" lon="10.254176785617911"><ele>774.0</ele><time>2026-04-18T11:18:27.999Z</time></trkpt><trkpt lat="44.33747870697321" lon="10.254382494055966"><ele>774.0</ele><time>2026-04-18T11:18:28.999Z</time></trkpt><trkpt lat="44.33744751977328" lon="10.254636642046645"><ele>774.0</ele><time>2026-04-18T11:18:29.999Z</time></trkpt><trkpt lat="44.33738593040835" lon="10.254900042540946"><ele>774.0</ele><time>2026-04-18T11:18:30.999Z</time></trkpt><trkpt lat="44.3372947285017" lon="10.255143960131363"><ele>771.25</ele><time>2026-04-18T11:18:31.999Z</time></trkpt><trkpt lat="44.33718521115551" lon="10.255321379702766"><ele>768.5</ele><time>2026-04-18T11:18:32.999Z</time></trkpt><trkpt lat="44.337083157311135" lon="10.255444460901698"><ele>765.75</ele><time>2026-04-18T11:18:33.999Z</time></trkpt><trkpt lat="44.33701722772049" lon="10.255574386856301"><ele>763.0</ele><time>2026-04-18T11:18:34.999Z</time></trkpt><trkpt lat="44.33697257847681" lon="10.255688076556805"><ele>763.0</ele><time>2026-04-18T11:18:35.999Z</time></trkpt><trkpt lat="44.336991588623" lon="10.255823640269499"><ele>763.0</ele><time>2026-04-18T11:18:36.999Z</time></trkpt><trkpt lat="44.3370712430906" lon="10.255959067972604"><ele>763.0</ele><time>2026-04-18T11:18:37.999Z</time></trkpt><trkpt lat="44.337206319547015" lon="10.256062592337708"><ele>763.0</ele><time>2026-04-18T11:18:38.999Z</time></trkpt><trkpt lat="44.33735682018904" lon="10.256168614663235"><ele>773.6666666666667</ele><time>2026-04-18T11:18:39.999Z</time></trkpt><trkpt lat="44.33744800515538" lon="10.256365863672361"><ele>784.3333333333334</ele><time>2026-04-18T11:18:40.999Z</time></trkpt><trkpt lat="44.33751137316792" lon="10.256610082241492"><ele>795.0</ele><time>2026-04-18T11:18:41.999Z</time></trkpt><trkpt lat="44.33755617031577" lon="10.25689946037656"><ele>795.0</ele><time>2026-04-18T11:18:42.999Z</time></trkpt><trkpt lat="44.33760641617852" lon="10.257206953465076"><ele>795.0</ele><time>2026-04-18T11:18:44Z</time></trkpt><trkpt lat="44.33765668744412" lon="10.25751423009053"><ele>792.0</ele><time>2026-04-18T11:18:45Z</time></trkpt><trkpt lat="44.33770312502988" lon="10.257809187705353"><ele>789.0</ele><time>2026-04-18T11:18:46Z</time></trkpt><trkpt lat="44.337749788109335" lon="10.258095492491513"><ele>786.0</ele><time>2026-04-18T11:18:47Z</time></trkpt><trkpt lat="44.33781436782889" lon="10.258355964495486"><ele>784.3333333333333</ele><time>2026-04-18T11:18:48Z</time></trkpt><trkpt lat="44.33788555739404" lon="10.258593384387105"><ele>782.6666666666666</ele><time>2026-04-18T11:18:49Z</time></trkpt><trkpt lat="44.33800087906195" lon="10.258791889391237"><ele>781.0</ele><time>2026-04-18T11:18:50Z</time></trkpt><trkpt lat="44.338154531257466" lon="10.258936807873443"><ele>781.6666666666666</ele><time>2026-04-18T11:18:51Z</time></trkpt><trkpt lat="44.33833978162271" lon="10.259028525931218"><ele>782.3333333333333</ele><time>2026-04-18T11:18:52Z</time></trkpt><trkpt lat="44.338538027230435" lon="10.259096272874123"><ele>783.0</ele><time>2026-04-18T11:18:53Z</time></trkpt><trkpt lat="44.33870328230895" lon="10.259227869426896"><ele>783.0</ele><time>2026-04-18T11:18:54Z</time></trkpt><trkpt lat="44.3388279998135" lon="10.259376868173366"><ele>783.0</ele><time>2026-04-18T11:18:55Z</time></trkpt><trkpt lat="44.33892913571467" lon="10.259558050876441"><ele>783.0</ele><time>2026-04-18T11:18:56Z</time></trkpt><trkpt lat="44.338995709220576" lon="10.259789212830281"><ele>786.0</ele><time>2026-04-18T11:18:57Z</time></trkpt><trkpt lat="44.339052255881015" lon="10.260005534708148"><ele>789.0</ele><time>2026-04-18T11:18:58Z</time></trkpt><trkpt lat="44.339045403122746" lon="10.260186361240555"><ele>792.0</ele><time>2026-04-18T11:18:59Z</time></trkpt><trkpt lat="44.338990744115904" lon="10.260382008799265"><ele>795.0</ele><time>2026-04-18T11:19:00Z</time></trkpt><trkpt lat="44.33894012824247" lon="10.260629725673526"><ele>796.6666666666667</ele><time>2026-04-18T11:19:01Z</time></trkpt><trkpt lat="44.338916956628886" lon="10.260890963493248"><ele>798.3333333333334</ele><time>2026-04-18T11:19:02Z</time></trkpt><trkpt lat="44.33891083032196" lon="10.261151013849272"><ele>800.0</ele><time>2026-04-18T11:19:03Z</time></trkpt><trkpt lat="44.338929907507854" lon="10.261377759027152"><ele>799.0</ele><time>2026-04-18T11:19:04Z</time></trkpt><trkpt lat="44.339003240831126" lon="10.26159161780448"><ele>798.0</ele><time>2026-04-18T11:19:05Z</time></trkpt><trkpt lat="44.33911898330805" lon="10.261805721330294"><ele>797.0</ele><time>2026-04-18T11:19:06Z</time></trkpt><trkpt lat="44.33924724601505" lon="10.261966551149602"><ele>797.0</ele><time>2026-04-18T11:19:07Z</time></trkpt><trkpt lat="44.33942011572435" lon="10.262051967083448"><ele>797.0</ele><time>2026-04-18T11:19:08Z</time></trkpt><trkpt lat="44.33955210404284" lon="10.262195298697888"><ele>797.0</ele><time>2026-04-18T11:19:09Z</time></trkpt><trkpt lat="44.33965885759772" lon="10.262374630148754"><ele>795.75</ele><time>2026-04-18T11:19:10Z</time></trkpt><trkpt lat="44.339718972581785" lon="10.262556796836561"><ele>794.5</ele><time>2026-04-18T11:19:11Z</time></trkpt><trkpt lat="44.339685683000035" lon="10.262713597761396"><ele>793.25</ele><time>2026-04-18T11:19:12Z</time></trkpt><trkpt lat="44.33960964902953" lon="10.262842984916611"><ele>792.0</ele><time>2026-04-18T11:19:13Z</time></trkpt><trkpt lat="44.33949551468503" lon="10.263017746602127"><ele>793.0</ele><time>2026-04-18T11:19:14Z</time></trkpt><trkpt lat="44.33941496440378" lon="10.263196281576004"><ele>794.0</ele><time>2026-04-18T11:19:15Z</time></trkpt><trkpt lat="44.33938957810605" lon="10.263376350421492"><ele>795.0</ele><time>2026-04-18T11:19:16Z</time></trkpt><trkpt lat="44.33941747164714" lon="10.263595622860686"><ele>796.0</ele><time>2026-04-18T11:19:17Z</time></trkpt><trkpt lat="44.33948811524989" lon="10.263879049471953"><ele>796.0</ele><time>2026-04-18T11:19:18Z</time></trkpt><trkpt lat="44.3394977532755" lon="10.264198646712165"><ele>796.0</ele><time>2026-04-18T11:19:19Z</time></trkpt><trkpt lat="44.33944957310476" lon="10.264497388317102"><ele>796.0</ele><time>2026-04-18T11:19:20Z</time></trkpt><trkpt lat="44.339429297876926" lon="10.26462981932703"><ele>797.4</ele><time>2026-04-18T11:19:21Z</time></trkpt><trkpt lat="44.33941914097037" lon="10.264821479810614"><ele>798.8</ele><time>2026-04-18T11:19:22Z</time></trkpt><trkpt lat="44.3394258559781" lon="10.264975693155204"><ele>800.1999999999999</ele><time>2026-04-18T11:19:23Z</time></trkpt><trkpt lat="44.33944879033894" lon="10.265082659092112"><ele>801.5999999999999</ele><time>2026-04-18T11:19:24Z</time></trkpt><trkpt lat="44.33944818911118" lon="10.265234562044396"><ele>803.0</ele><time>2026-04-18T11:19:26Z</time></trkpt><trkpt lat="44.339449410011" lon="10.265333143354969"><ele>803.0</ele><time>2026-04-18T11:19:28Z</time></trkpt><trkpt lat="44.33949992732076" lon="10.265472865468222"><ele>803.0</ele><time>2026-04-18T11:19:30Z</time></trkpt><trkpt lat="44.339559803970666" lon="10.265519419229099"><ele>803.0</ele><time>2026-04-18T11:19:31Z</time></trkpt><trkpt lat="44.33962751909193" lon="10.265525358739696"><ele>803.0</ele><time>2026-04-18T11:19:32Z</time></trkpt><trkpt lat="44.33972673783793" lon="10.265410305263186"><ele>803.0</ele><time>2026-04-18T11:19:34Z</time></trkpt><trkpt lat="44.339750355724924" lon="10.265311854439195"><ele>805.6666666666667</ele><time>2026-04-18T11:19:35Z</time></trkpt><trkpt lat="44.33975587664467" lon="10.265222624830168"><ele>808.3333333333334</ele><time>2026-04-18T11:19:36Z</time></trkpt><trkpt lat="44.33977400545244" lon="10.265121808693305"><ele>811.0</ele><time>2026-04-18T11:19:37Z</time></trkpt><trkpt lat="44.33981244987513" lon="10.265030963689387"><ele>813.6666666666667</ele><time>2026-04-18T11:19:38Z</time></trkpt><trkpt lat="44.33988950053467" lon="10.264930378539566"><ele>816.3333333333334</ele><time>2026-04-18T11:19:40Z</time></trkpt><trkpt lat="44.33998553930388" lon="10.264925897482739"><ele>819.0</ele><time>2026-04-18T11:19:42Z</time></trkpt><trkpt lat="44.34005029136065" lon="10.264937332279521"><ele>819.0</ele><time>2026-04-18T11:19:44Z</time></trkpt><trkpt lat="44.34014038783839" lon="10.264961018510096"><ele>819.0</ele><time>2026-04-18T11:19:46Z</time></trkpt><trkpt lat="44.34023178311987" lon="10.264937765584621"><ele>819.0</ele><time>2026-04-18T11:19:48Z</time></trkpt><trkpt lat="44.340358823512105" lon="10.26484139243603"><ele>819.0</ele><time>2026-04-18T11:20:11.999Z</time></trkpt><trkpt lat="44.34044160782357" lon="10.26479409864526"><ele>819.0</ele><time>2026-04-18T11:20:12.999Z</time></trkpt><trkpt lat="44.3405457887479" lon="10.264801905932657"><ele>821.25</ele><time>2026-04-18T11:20:13.999Z</time></trkpt><trkpt lat="44.34067768638801" lon="10.26483501410785"><ele>823.5</ele><time>2026-04-18T11:20:14.999Z</time></trkpt><trkpt lat="44.340800567357846" lon="10.264932136557752"><ele>825.75</ele><time>2026-04-18T11:20:15.999Z</time></trkpt><trkpt lat="44.34091567889421" lon="10.265036124511168"><ele>828.0</ele><time>2026-04-18T11:20:16.999Z</time></trkpt><trkpt lat="44.34106741199647" lon="10.26505843283225"><ele>828.0</ele><time>2026-04-18T11:20:17.999Z</time></trkpt><trkpt lat="44.341180328470365" lon="10.265089143618967"><ele>828.0</ele><time>2026-04-18T11:20:18.999Z</time></trkpt><trkpt lat="44.341269584586044" lon="10.265122457121727"><ele>828.0</ele><time>2026-04-18T11:20:19.999Z</time></trkpt><trkpt lat="44.34136298621215" lon="10.265155725779874"><ele>828.0</ele><time>2026-04-18T11:20:20.999Z</time></trkpt><trkpt lat="44.34146640406731" lon="10.265206492388966"><ele>828.0</ele><time>2026-04-18T11:20:21.999Z</time></trkpt><trkpt lat="44.341549794699596" lon="10.265272284968697"><ele>827.8</ele><time>2026-04-18T11:20:22.999Z</time></trkpt><trkpt lat="44.34160318406352" lon="10.265338066424151"><ele>827.5999999999999</ele><time>2026-04-18T11:20:23.999Z</time></trkpt><trkpt lat="44.34164426642331" lon="10.265424601763055"><ele>827.4000000000001</ele><time>2026-04-18T11:20:24.999Z</time></trkpt><trkpt lat="44.341686554365566" lon="10.265548493336142"><ele>827.2</ele><time>2026-04-18T11:20:25.999Z</time></trkpt><trkpt lat="44.34175751028859" lon="10.265666006544016"><ele>827.0</ele><time>2026-04-18T11:20:26.999Z</time></trkpt><trkpt lat="44.34185701471" lon="10.265756577323268"><ele>827.0</ele><time>2026-04-18T11:20:27.999Z</time></trkpt><trkpt lat="44.341976797053064" lon="10.265783896436064"><ele>827.0</ele><time>2026-04-18T11:20:28.999Z</time></trkpt><trkpt lat="44.34209395000705" lon="10.265768554130194"><ele>827.0</ele><time>2026-04-18T11:20:29.999Z</time></trkpt><trkpt lat="44.34219039031552" lon="10.265740451176118"><ele>827.0</ele><time>2026-04-18T11:20:30.999Z</time></trkpt><trkpt lat="44.34228561556111" lon="10.265733812769671"><ele>827.0</ele><time>2026-04-18T11:20:31.999Z</time></trkpt><trkpt lat="44.34238592455331" lon="10.265762843456962"><ele>829.6666666666667</ele><time>2026-04-18T11:20:32.999Z</time></trkpt><trkpt lat="44.34247213133456" lon="10.265823158558733"><ele>832.3333333333334</ele><time>2026-04-18T11:20:33.999Z</time></trkpt><trkpt lat="44.342559853952935" lon="10.265887117494715"><ele>835.0</ele><time>2026-04-18T11:20:34.999Z</time></trkpt><trkpt lat="44.34263935397395" lon="10.265932125769497"><ele>837.6666666666667</ele><time>2026-04-18T11:20:35.999Z</time></trkpt><trkpt lat="44.34270815635679" lon="10.265970383333805"><ele>840.3333333333334</ele><time>2026-04-18T11:20:36.999Z</time></trkpt><trkpt lat="44.34276796279424" lon="10.265998879973923"><ele>843.0</ele><time>2026-04-18T11:20:37.999Z</time></trkpt><trkpt lat="44.342838767819245" lon="10.266060878047512"><ele>843.0</ele><time>2026-04-18T11:20:39.999Z</time></trkpt><trkpt lat="44.342900343648246" lon="10.265953199493115"><ele>843.0</ele><time>2026-04-18T11:20:40.999Z</time></trkpt><trkpt lat="44.3429660037684" lon="10.265962194709365"><ele>843.0</ele><time>2026-04-18T11:20:43.999Z</time></trkpt><trkpt lat="44.34298353841907" lon="10.266151171048053"><ele>843.0</ele><time>2026-04-18T11:23:42Z</time></trkpt><trkpt lat="44.34303634028564" lon="10.26606320313409"><ele>843.0</ele><time>2026-04-18T11:23:44Z</time></trkpt><trkpt lat="44.343070913127306" lon="10.266155736151392"><ele>842.1666666666666</ele><time>2026-04-18T11:23:46Z</time></trkpt><trkpt lat="44.34312279505686" lon="10.266221179278531"><ele>841.3333333333333</ele><time>2026-04-18T11:23:47Z</time></trkpt><trkpt lat="44.34319499620645" lon="10.266280976156997"><ele>840.5</ele><time>2026-04-18T11:23:48Z</time></trkpt><trkpt lat="44.34328517450434" lon="10.266337760411128"><ele>839.6666666666666</ele><time>2026-04-18T11:23:49Z</time></trkpt><trkpt lat="44.34334453957073" lon="10.266408840196025"><ele>838.8333333333333</ele><time>2026-04-18T11:23:50Z</time></trkpt><trkpt lat="44.34342765430268" lon="10.266479354889706"><ele>838.0</ele><time>2026-04-18T11:23:51Z</time></trkpt><trkpt lat="44.34349671066973" lon="10.26654115414137"><ele>838.0</ele><time>2026-04-18T11:23:52Z</time></trkpt><trkpt lat="44.34355124600074" lon="10.26660786005417"><ele>838.0</ele><time>2026-04-18T11:23:53Z</time></trkpt><trkpt lat="44.343597010032646" lon="10.266691650495986"><ele>838.0</ele><time>2026-04-18T11:23:54Z</time></trkpt><trkpt lat="44.34361827050251" lon="10.266848862004757"><ele>838.0</ele><time>2026-04-18T11:23:55Z</time></trkpt><trkpt lat="44.34366996414302" lon="10.26702723948292"><ele>838.0</ele><time>2026-04-18T11:23:56Z</time></trkpt><trkpt lat="44.34370443046101" lon="10.267210139365407"><ele>836.25</ele><time>2026-04-18T11:23:57Z</time></trkpt><trkpt lat="44.343749209088976" lon="10.267405807412901"><ele>834.5</ele><time>2026-04-18T11:23:58Z</time></trkpt><trkpt lat="44.34379423234355" lon="10.267595650062903"><ele>832.75</ele><time>2026-04-18T11:23:59Z</time></trkpt><trkpt lat="44.34383764241698" lon="10.267775398586199"><ele>831.0</ele><time>2026-04-18T11:24:00Z</time></trkpt><trkpt lat="44.34388572887024" lon="10.267944749523528"><ele>830.5</ele><time>2026-04-18T11:24:01Z</time></trkpt><trkpt lat="44.34392569070932" lon="10.268100174203525"><ele>830.0</ele><time>2026-04-18T11:24:02Z</time></trkpt><trkpt lat="44.343917527720926" lon="10.268271857580714"><ele>829.5</ele><time>2026-04-18T11:24:03Z</time></trkpt><trkpt lat="44.343885309631034" lon="10.268449972318855"><ele>829.0</ele><time>2026-04-18T11:24:04Z</time></trkpt><trkpt lat="44.34386544527485" lon="10.268657554797954"><ele>829.0</ele><time>2026-04-18T11:24:05Z</time></trkpt><trkpt lat="44.34385295050254" lon="10.268864924531591"><ele>829.0</ele><time>2026-04-18T11:24:06Z</time></trkpt><trkpt lat="44.3438294309643" lon="10.269052693740694"><ele>829.0</ele><time>2026-04-18T11:24:06.999Z</time></trkpt><trkpt lat="44.343808387970654" lon="10.269226985594711"><ele>829.0</ele><time>2026-04-18T11:24:07.999Z</time></trkpt><trkpt lat="44.34379844812084" lon="10.269411791040994"><ele>828.75</ele><time>2026-04-18T11:24:08.999Z</time></trkpt><trkpt lat="44.34382049895847" lon="10.269604691380154"><ele>828.5</ele><time>2026-04-18T11:24:09.999Z</time></trkpt><trkpt lat="44.34386145177052" lon="10.269797319056464"><ele>828.25</ele><time>2026-04-18T11:24:10.999Z</time></trkpt><trkpt lat="44.34390250557646" lon="10.269950174346588"><ele>828.0</ele><time>2026-04-18T11:24:11.999Z</time></trkpt><trkpt lat="44.34402117001515" lon="10.27006707744154"><ele>831.5</ele><time>2026-04-18T11:24:12.999Z</time></trkpt><trkpt lat="44.34413331898132" lon="10.27019526446003"><ele>835.0</ele><time>2026-04-18T11:24:13.999Z</time></trkpt><trkpt lat="44.34426068639156" lon="10.27026065530481"><ele>838.5</ele><time>2026-04-18T11:24:14.999Z</time></trkpt><trkpt lat="44.34439133345072" lon="10.270396489702057"><ele>842.0</ele><time>2026-04-18T11:24:15.999Z</time></trkpt><trkpt lat="44.34454914649543" lon="10.270507328192695"><ele>841.6666666666667</ele><time>2026-04-18T11:24:16.999Z</time></trkpt><trkpt lat="44.344696815511426" lon="10.270641846005223"><ele>841.3333333333333</ele><time>2026-04-18T11:24:17.999Z</time></trkpt><trkpt lat="44.344844009382264" lon="10.270769369108024"><ele>841.0</ele><time>2026-04-18T11:24:18.999Z</time></trkpt><trkpt lat="44.34498362601479" lon="10.270886627086638"><ele>841.0</ele><time>2026-04-18T11:24:19.999Z</time></trkpt><trkpt lat="44.34511948979273" lon="10.271027666016208"><ele>841.0</ele><time>2026-04-18T11:24:20.999Z</time></trkpt><trkpt lat="44.34520416797647" lon="10.271229423270306"><ele>841.0</ele><time>2026-04-18T11:24:21.999Z</time></trkpt><trkpt lat="44.34527828584497" lon="10.271454274321819"><ele>839.0</ele><time>2026-04-18T11:24:22.999Z</time></trkpt><trkpt lat="44.3453565409489" lon="10.271675596946812"><ele>837.0</ele><time>2026-04-18T11:24:23.999Z</time></trkpt><trkpt lat="44.34542065966239" lon="10.271869242355192"><ele>835.0</ele><time>2026-04-18T11:24:24.999Z</time></trkpt><trkpt lat="44.34549647575326" lon="10.272013527519157"><ele>837.0</ele><time>2026-04-18T11:24:25.999Z</time></trkpt><trkpt lat="44.34561597321075" lon="10.27210551158122"><ele>839.0</ele><time>2026-04-18T11:24:26.999Z</time></trkpt><trkpt lat="44.34576879234635" lon="10.2721745178855"><ele>841.0</ele><time>2026-04-18T11:24:27.999Z</time></trkpt><trkpt lat="44.34590962600494" lon="10.272242882692082"><ele>843.0</ele><time>2026-04-18T11:24:28.999Z</time></trkpt><trkpt lat="44.34603431056927" lon="10.27232374246979"><ele>843.0</ele><time>2026-04-18T11:24:29.999Z</time></trkpt><trkpt lat="44.34613782420148" lon="10.27243169192079"><ele>843.0</ele><time>2026-04-18T11:24:30.999Z</time></trkpt><trkpt lat="44.34620248150215" lon="10.272583195165724"><ele>843.0</ele><time>2026-04-18T11:24:31.999Z</time></trkpt><trkpt lat="44.3462772316075" lon="10.272706229197066"><ele>843.0</ele><time>2026-04-18T11:24:32.999Z</time></trkpt><trkpt lat="44.34633433669748" lon="10.272811872453937"><ele>843.8</ele><time>2026-04-18T11:24:34.999Z</time></trkpt><trkpt lat="44.34644580031891" lon="10.272790986639958"><ele>844.5999999999999</ele><time>2026-04-18T11:24:36.999Z</time></trkpt><trkpt lat="44.3465020469693" lon="10.272716199393352"><ele>845.4000000000001</ele><time>2026-04-18T11:24:37.999Z</time></trkpt><trkpt lat="44.34657819820838" lon="10.272627556719259"><ele>846.2</ele><time>2026-04-18T11:24:38.999Z</time></trkpt><trkpt lat="44.34667078129" lon="10.272575236186697"><ele>847.0</ele><time>2026-04-18T11:24:39.999Z</time></trkpt><trkpt lat="44.34677219338632" lon="10.272569493401907"><ele>847.0</ele><time>2026-04-18T11:24:40.999Z</time></trkpt><trkpt lat="44.34690413726971" lon="10.272590785266905"><ele>847.0</ele><time>2026-04-18T11:24:41.999Z</time></trkpt><trkpt lat="44.347034165427914" lon="10.272675422715944"><ele>847.0</ele><time>2026-04-18T11:24:42.999Z</time></trkpt><trkpt lat="44.34714796421692" lon="10.272778272082261"><ele>847.0</ele><time>2026-04-18T11:24:43.999Z</time></trkpt><trkpt lat="44.34725945167721" lon="10.272902618957472"><ele>847.4000000000001</ele><time>2026-04-18T11:24:44.999Z</time></trkpt><trkpt lat="44.347324881834744" lon="10.273081876824197"><ele>847.8000000000001</ele><time>2026-04-18T11:24:45.999Z</time></trkpt><trkpt lat="44.34735993146065" lon="10.273259791326497"><ele>848.2</ele><time>2026-04-18T11:24:46.999Z</time></trkpt><trkpt lat="44.34740240274561" lon="10.273369079934366"><ele>848.6</ele><time>2026-04-18T11:24:47.999Z</time></trkpt><trkpt lat="44.34746402080406" lon="10.273401571879027"><ele>849.0</ele><time>2026-04-18T11:24:48.999Z</time></trkpt><trkpt lat="44.347546392324425" lon="10.273364000198583"><ele>849.0</ele><time>2026-04-18T11:24:49.999Z</time></trkpt><trkpt lat="44.34763325995345" lon="10.2732975736627"><ele>849.0</ele><time>2026-04-18T11:24:50.999Z</time></trkpt><trkpt lat="44.34771080392228" lon="10.273187558660872"><ele>849.0</ele><time>2026-04-18T11:24:51.999Z</time></trkpt><trkpt lat="44.3477734608956" lon="10.273066007555325"><ele>849.0</ele><time>2026-04-18T11:24:52.999Z</time></trkpt><trkpt lat="44.34785078074432" lon="10.27298127403364"><ele>849.0</ele><time>2026-04-18T11:24:53.999Z</time></trkpt><trkpt lat="44.34794069068496" lon="10.272966433850344"><ele>851.2</ele><time>2026-04-18T11:24:54.999Z</time></trkpt><trkpt lat="44.34802393793354" lon="10.273030524679626"><ele>853.4000000000001</ele><time>2026-04-18T11:24:55.999Z</time></trkpt><trkpt lat="44.348077892406174" lon="10.2731378239125"><ele>855.6</ele><time>2026-04-18T11:24:56.999Z</time></trkpt><trkpt lat="44.34808668507935" lon="10.273292603846738"><ele>857.8</ele><time>2026-04-18T11:24:57.999Z</time></trkpt><trkpt lat="44.34806929693285" lon="10.273433234052586"><ele>860.0</ele><time>2026-04-18T11:24:58.999Z</time></trkpt><trkpt lat="44.34806873593303" lon="10.273587005415356"><ele>861.75</ele><time>2026-04-18T11:24:59.999Z</time></trkpt><trkpt lat="44.3481294030013" lon="10.273742761600953"><ele>863.5</ele><time>2026-04-18T11:25:00.999Z</time></trkpt><trkpt lat="44.348241449169734" lon="10.273906190061888"><ele>865.25</ele><time>2026-04-18T11:25:02Z</time></trkpt><trkpt lat="44.348348706759026" lon="10.27406433187499"><ele>867.0</ele><time>2026-04-18T11:25:03Z</time></trkpt><trkpt lat="44.34845141789999" lon="10.274231905886031"><ele>867.0</ele><time>2026-04-18T11:25:04Z</time></trkpt><trkpt lat="44.34854883345965" lon="10.274403303951855"><ele>867.0</ele><time>2026-04-18T11:25:05Z</time></trkpt><trkpt lat="44.348646034454376" lon="10.274578024744248"><ele>867.0</ele><time>2026-04-18T11:25:06Z</time></trkpt><trkpt lat="44.34873546784646" lon="10.274730902023087"><ele>868.75</ele><time>2026-04-18T11:25:07Z</time></trkpt><trkpt lat="44.34881162588288" lon="10.274860321696893"><ele>870.5</ele><time>2026-04-18T11:25:08Z</time></trkpt><trkpt lat="44.348901095710836" lon="10.274950651521928"><ele>872.25</ele><time>2026-04-18T11:25:09Z</time></trkpt><trkpt lat="44.34901325628856" lon="10.274977471068196"><ele>874.0</ele><time>2026-04-18T11:25:10Z</time></trkpt><trkpt lat="44.349127681078116" lon="10.274939668845448"><ele>874.0</ele><time>2026-04-18T11:25:11Z</time></trkpt><trkpt lat="44.34920694183544" lon="10.274842617534626"><ele>874.0000000000001</ele><time>2026-04-18T11:25:12Z</time></trkpt><trkpt lat="44.34925553040094" lon="10.274698978997655"><ele>874.0000000000001</ele><time>2026-04-18T11:25:13Z</time></trkpt><trkpt lat="44.3492753528595" lon="10.274531938919912"><ele>874.0</ele><time>2026-04-18T11:25:14Z</time></trkpt><trkpt lat="44.34927928306341" lon="10.274386105959602"><ele>874.0</ele><time>2026-04-18T11:25:15Z</time></trkpt><trkpt lat="44.349282775933965" lon="10.274297844601405"><ele>875.2</ele><time>2026-04-18T11:25:16Z</time></trkpt><trkpt lat="44.34931103293572" lon="10.274169268797932"><ele>876.4000000000001</ele><time>2026-04-18T11:25:19Z</time></trkpt><trkpt lat="44.34939754987212" lon="10.274067441630816"><ele>877.6</ele><time>2026-04-18T11:25:33Z</time></trkpt><trkpt lat="44.34949181442053" lon="10.274000312493236"><ele>878.8</ele><time>2026-04-18T11:25:34Z</time></trkpt><trkpt lat="44.34959478158066" lon="10.273950310810385"><ele>880.0</ele><time>2026-04-18T11:25:35Z</time></trkpt><trkpt lat="44.34971797394973" lon="10.273906688879764"><ele>881.5</ele><time>2026-04-18T11:25:36Z</time></trkpt><trkpt lat="44.349844842272816" lon="10.273858282786273"><ele>883.0</ele><time>2026-04-18T11:25:37Z</time></trkpt><trkpt lat="44.3499673369985" lon="10.273798435228544"><ele>884.5</ele><time>2026-04-18T11:25:38Z</time></trkpt><trkpt lat="44.35007261974629" lon="10.273700466582655"><ele>886.0</ele><time>2026-04-18T11:25:39Z</time></trkpt><trkpt lat="44.350171759688415" lon="10.27354508493362"><ele>886.0</ele><time>2026-04-18T11:25:40Z</time></trkpt><trkpt lat="44.350263496052506" lon="10.27336280012787"><ele>886.0</ele><time>2026-04-18T11:25:41Z</time></trkpt><trkpt lat="44.35035332956209" lon="10.27321497407441"><ele>886.0</ele><time>2026-04-18T11:25:42Z</time></trkpt><trkpt lat="44.350418354096604" lon="10.273090974705848"><ele>886.0</ele><time>2026-04-18T11:25:43Z</time></trkpt><trkpt lat="44.35047687948671" lon="10.272988677161795"><ele>889.25</ele><time>2026-04-18T11:25:44Z</time></trkpt><trkpt lat="44.35054488556258" lon="10.272903956767726"><ele>892.5</ele><time>2026-04-18T11:25:45Z</time></trkpt><trkpt lat="44.35063031534583" lon="10.272821450640064"><ele>895.75</ele><time>2026-04-18T11:25:46Z</time></trkpt><trkpt lat="44.35074665985802" lon="10.272760325093326"><ele>899.0</ele><time>2026-04-18T11:25:47Z</time></trkpt><trkpt lat="44.35088744297639" lon="10.272679627073716"><ele>899.0</ele><time>2026-04-18T11:25:48Z</time></trkpt><trkpt lat="44.35104489956182" lon="10.272621318617677"><ele>899.0</ele><time>2026-04-18T11:25:49Z</time></trkpt><trkpt lat="44.35119375857599" lon="10.272555432609945"><ele>899.0</ele><time>2026-04-18T11:25:50Z</time></trkpt><trkpt lat="44.35133542945842" lon="10.272491161760087"><ele>899.25</ele><time>2026-04-18T11:25:51Z</time></trkpt><trkpt lat="44.35146240853481" lon="10.272438443869836"><ele>899.5</ele><time>2026-04-18T11:25:52Z</time></trkpt><trkpt lat="44.35158120305675" lon="10.272380219890048"><ele>899.75</ele><time>2026-04-18T11:25:53Z</time></trkpt><trkpt lat="44.35168831447129" lon="10.272286292535053"><ele>900.0</ele><time>2026-04-18T11:25:54Z</time></trkpt><trkpt lat="44.35178153420935" lon="10.272134376685377"><ele>906.0</ele><time>2026-04-18T11:25:55Z</time></trkpt><trkpt lat="44.351853962907285" lon="10.271951520027372"><ele>912.0</ele><time>2026-04-18T11:25:56Z</time></trkpt><trkpt lat="44.35194181080307" lon="10.27183982685336"><ele>918.0</ele><time>2026-04-18T11:25:57Z</time></trkpt><trkpt lat="44.35204053391167" lon="10.27177054322551"><ele>924.0</ele><time>2026-04-18T11:25:58Z</time></trkpt><trkpt lat="44.35218091411069" lon="10.271766198685132"><ele>928.6666666666667</ele><time>2026-04-18T11:25:59Z</time></trkpt><trkpt lat="44.352343533079626" lon="10.271758941302766"><ele>933.3333333333334</ele><time>2026-04-18T11:26:00Z</time></trkpt><trkpt lat="44.35250192808852" lon="10.271806559928653"><ele>938.0</ele><time>2026-04-18T11:26:01Z</time></trkpt><trkpt lat="44.35263345053562" lon="10.271933192698864"><ele>938.0</ele><time>2026-04-18T11:26:02Z</time></trkpt><trkpt lat="44.35278903696133" lon="10.272069664137014"><ele>938.0</ele><time>2026-04-18T11:26:03Z</time></trkpt><trkpt lat="44.35293608952114" lon="10.272219217769752"><ele>938.0</ele><time>2026-04-18T11:26:04Z</time></trkpt><trkpt lat="44.35308122146773" lon="10.272330064224535"><ele>934.3333333333334</ele><time>2026-04-18T11:26:05Z</time></trkpt><trkpt lat="44.353232296829304" lon="10.272413069655672"><ele>930.6666666666667</ele><time>2026-04-18T11:26:06Z</time></trkpt><trkpt lat="44.35333871476364" lon="10.272540051042155"><ele>927.0</ele><time>2026-04-18T11:26:07Z</time></trkpt><trkpt lat="44.35343451772815" lon="10.272710903854936"><ele>927.0</ele><time>2026-04-18T11:26:08Z</time></trkpt><trkpt lat="44.35354060835037" lon="10.272902421907501"><ele>927.0</ele><time>2026-04-18T11:26:09Z</time></trkpt><trkpt lat="44.35363735983096" lon="10.273079202395381"><ele>927.0</ele><time>2026-04-18T11:26:09.999Z</time></trkpt><trkpt lat="44.35374450099286" lon="10.273229260939395"><ele>927.3333333333333</ele><time>2026-04-18T11:26:10.999Z</time></trkpt><trkpt lat="44.35387430573891" lon="10.273345605047155"><ele>927.6666666666666</ele><time>2026-04-18T11:26:11.999Z</time></trkpt><trkpt lat="44.35402405717481" lon="10.27342829813772"><ele>928.0</ele><time>2026-04-18T11:26:12.999Z</time></trkpt><trkpt lat="44.354187032085775" lon="10.273455053590311"><ele>928.0</ele><time>2026-04-18T11:26:13.999Z</time></trkpt><trkpt lat="44.35437030115521" lon="10.27343489666233"><ele>928.0</ele><time>2026-04-18T11:26:14.999Z</time></trkpt><trkpt lat="44.35454192489555" lon="10.273403560568315"><ele>928.0</ele><time>2026-04-18T11:26:15.999Z</time></trkpt><trkpt lat="44.35471565179338" lon="10.273342705100513"><ele>927.3333333333333</ele><time>2026-04-18T11:26:16.999Z</time></trkpt><trkpt lat="44.354890940280946" lon="10.273240946258364"><ele>926.6666666666667</ele><time>2026-04-18T11:26:17.999Z</time></trkpt><trkpt lat="44.35504782386103" lon="10.273098677742729"><ele>926.0</ele><time>2026-04-18T11:26:18.999Z</time></trkpt><trkpt lat="44.35520099139217" lon="10.272960196151685"><ele>924.5</ele><time>2026-04-18T11:26:19.999Z</time></trkpt><trkpt lat="44.3553324232778" lon="10.272867397092034"><ele>923.0</ele><time>2026-04-18T11:26:20.999Z</time></trkpt><trkpt lat="44.35543932202482" lon="10.272757591711082"><ele>921.5</ele><time>2026-04-18T11:26:21.999Z</time></trkpt><trkpt lat="44.35552312701785" lon="10.272569878079333"><ele>920.0</ele><time>2026-04-18T11:26:22.999Z</time></trkpt><trkpt lat="44.35558762285202" lon="10.272343402549076"><ele>924.6666666666667</ele><time>2026-04-18T11:26:23.999Z</time></trkpt><trkpt lat="44.35571085950366" lon="10.272157829299752"><ele>929.3333333333333</ele><time>2026-04-18T11:26:24.999Z</time></trkpt><trkpt lat="44.355840512672096" lon="10.271964985654952"><ele>934.0</ele><time>2026-04-18T11:26:25.999Z</time></trkpt><trkpt lat="44.35596436583277" lon="10.271800156608718"><ele>934.0</ele><time>2026-04-18T11:26:26.999Z</time></trkpt><trkpt lat="44.35608895378781" lon="10.271678908749495"><ele>934.0</ele><time>2026-04-18T11:26:27.999Z</time></trkpt><trkpt lat="44.35617476889085" lon="10.271564192667402"><ele>934.0</ele><time>2026-04-18T11:26:28.999Z</time></trkpt><trkpt lat="44.35623351417452" lon="10.2714170046032"><ele>934.0</ele><time>2026-04-18T11:26:29.999Z</time></trkpt><trkpt lat="44.35627108460549" lon="10.27120566979876"><ele>930.0</ele><time>2026-04-18T11:26:30.999Z</time></trkpt><trkpt lat="44.356347290523665" lon="10.27098301476825"><ele>926.0</ele><time>2026-04-18T11:26:31.999Z</time></trkpt><trkpt lat="44.35645239193734" lon="10.270787644722233"><ele>922.0</ele><time>2026-04-18T11:26:32.999Z</time></trkpt><trkpt lat="44.35659300469361" lon="10.270642631962092"><ele>926.6666666666666</ele><time>2026-04-18T11:26:33.999Z</time></trkpt><trkpt lat="44.35669631053529" lon="10.270490467620961"><ele>931.3333333333333</ele><time>2026-04-18T11:26:34.999Z</time></trkpt><trkpt lat="44.35678417616427" lon="10.270306345183114"><ele>936.0</ele><time>2026-04-18T11:26:35.999Z</time></trkpt><trkpt lat="44.35684987824426" lon="10.270051176276807"><ele>936.0</ele><time>2026-04-18T11:26:36.999Z</time></trkpt><trkpt lat="44.35694218110336" lon="10.269821933626446"><ele>936.0</ele><time>2026-04-18T11:26:37.999Z</time></trkpt><trkpt lat="44.35701079212507" lon="10.269607798854969"><ele>936.0</ele><time>2026-04-18T11:26:38.999Z</time></trkpt><trkpt lat="44.357054033985875" lon="10.269403518098569"><ele>940.6666666666667</ele><time>2026-04-18T11:26:39.999Z</time></trkpt><trkpt lat="44.35712695928062" lon="10.26922727159268"><ele>945.3333333333334</ele><time>2026-04-18T11:26:40.999Z</time></trkpt><trkpt lat="44.357208886982086" lon="10.269044300264355"><ele>950.0</ele><time>2026-04-18T11:26:41.999Z</time></trkpt><trkpt lat="44.3572947970275" lon="10.268866010290509"><ele>942.5</ele><time>2026-04-18T11:26:42.999Z</time></trkpt><trkpt lat="44.357383906533144" lon="10.2687052232039"><ele>935.0</ele><time>2026-04-18T11:26:43.999Z</time></trkpt><trkpt lat="44.35747696250228" lon="10.268545149363822"><ele>927.5</ele><time>2026-04-18T11:26:44.999Z</time></trkpt><trkpt lat="44.35754531361203" lon="10.268364908608728"><ele>920.0</ele><time>2026-04-18T11:26:45.999Z</time></trkpt><trkpt lat="44.35759708414911" lon="10.268172297486966"><ele>922.5</ele><time>2026-04-18T11:26:46.999Z</time></trkpt><trkpt lat="44.35760988568277" lon="10.267981903831563"><ele>925.0</ele><time>2026-04-18T11:26:47.999Z</time></trkpt><trkpt lat="44.35759632254714" lon="10.267789975007478"><ele>927.5</ele><time>2026-04-18T11:26:48.999Z</time></trkpt><trkpt lat="44.35760878113211" lon="10.267609792644132"><ele>930.0</ele><time>2026-04-18T11:26:49.999Z</time></trkpt><trkpt lat="44.35763965587078" lon="10.267433157618454"><ele>935.25</ele><time>2026-04-18T11:26:50.999Z</time></trkpt><trkpt lat="44.3577143893501" lon="10.267264102048198"><ele>940.5</ele><time>2026-04-18T11:26:51.999Z</time></trkpt><trkpt lat="44.35779966623031" lon="10.26709799467611"><ele>945.75</ele><time>2026-04-18T11:26:52.999Z</time></trkpt><trkpt lat="44.357908488182" lon="10.266951436514386"><ele>951.0</ele><time>2026-04-18T11:26:53.999Z</time></trkpt><trkpt lat="44.35800890436463" lon="10.266810812125591"><ele>945.3333333333334</ele><time>2026-04-18T11:26:54.999Z</time></trkpt><trkpt lat="44.358110358323714" lon="10.26673792066907"><ele>939.6666666666667</ele><time>2026-04-18T11:26:55.999Z</time></trkpt><trkpt lat="44.35817113986123" lon="10.266666856771039"><ele>934.0</ele><time>2026-04-18T11:26:56.999Z</time></trkpt><trkpt lat="44.35824712649639" lon="10.266670363893516"><ele>928.3333333333334</ele><time>2026-04-18T11:26:57.999Z</time></trkpt><trkpt lat="44.3583195949418" lon="10.266732053735048"><ele>922.6666666666667</ele><time>2026-04-18T11:26:58.999Z</time></trkpt><trkpt lat="44.35834825715701" lon="10.266853564395346"><ele>917.0</ele><time>2026-04-18T11:26:59.999Z</time></trkpt><trkpt lat="44.35831181149756" lon="10.266997724082549"><ele>917.0</ele><time>2026-04-18T11:27:00.999Z</time></trkpt><trkpt lat="44.35825975383077" lon="10.267157272423992"><ele>917.0</ele><time>2026-04-18T11:27:01.999Z</time></trkpt><trkpt lat="44.35825636644455" lon="10.267342592202294"><ele>917.0</ele><time>2026-04-18T11:27:02.999Z</time></trkpt><trkpt lat="44.35828046194544" lon="10.267516021256045"><ele>917.0</ele><time>2026-04-18T11:27:03.999Z</time></trkpt><trkpt lat="44.358318783730404" lon="10.267654033461836"><ele>913.5</ele><time>2026-04-18T11:27:04.999Z</time></trkpt><trkpt lat="44.35838706825603" lon="10.267751674951146"><ele>910.0</ele><time>2026-04-18T11:27:05.999Z</time></trkpt><trkpt lat="44.35848428637488" lon="10.26779851471936"><ele>906.5</ele><time>2026-04-18T11:27:06.999Z</time></trkpt><trkpt lat="44.358595364316" lon="10.267771121103777"><ele>903.0</ele><time>2026-04-18T11:27:08Z</time></trkpt><trkpt lat="44.35870534684863" lon="10.267654913495946"><ele>903.0</ele><time>2026-04-18T11:27:09Z</time></trkpt><trkpt lat="44.35881677625814" lon="10.267505399809929"><ele>903.0</ele><time>2026-04-18T11:27:10Z</time></trkpt><trkpt lat="44.35892754593668" lon="10.267368605286546"><ele>903.0</ele><time>2026-04-18T11:27:11Z</time></trkpt><trkpt lat="44.35904288636761" lon="10.267231730750863"><ele>905.75</ele><time>2026-04-18T11:27:12Z</time></trkpt><trkpt lat="44.35914672954884" lon="10.267095230190458"><ele>908.5</ele><time>2026-04-18T11:27:13Z</time></trkpt><trkpt lat="44.359229622836274" lon="10.266966003131747"><ele>911.25</ele><time>2026-04-18T11:27:14Z</time></trkpt><trkpt lat="44.35929566956682" lon="10.266854779939319"><ele>914.0</ele><time>2026-04-18T11:27:15Z</time></trkpt><trkpt lat="44.35931880093007" lon="10.266690785789784"><ele>914.0</ele><time>2026-04-18T11:27:16Z</time></trkpt><trkpt lat="44.35937979637737" lon="10.266530875187241"><ele>914.0000000000001</ele><time>2026-04-18T11:27:17Z</time></trkpt><trkpt lat="44.35943832056669" lon="10.266418829958324"><ele>914.0000000000001</ele><time>2026-04-18T11:27:18Z</time></trkpt><trkpt lat="44.359502612802096" lon="10.26632811922187"><ele>914.0</ele><time>2026-04-18T11:27:19Z</time></trkpt><trkpt lat="44.35958143946348" lon="10.266311447210727"><ele>914.0</ele><time>2026-04-18T11:27:20Z</time></trkpt><trkpt lat="44.359676069936064" lon="10.266442718319563"><ele>914.0</ele><time>2026-04-18T11:27:22Z</time></trkpt><trkpt lat="44.359672167856836" lon="10.266595184901242"><ele>914.0</ele><time>2026-04-18T11:27:23Z</time></trkpt><trkpt lat="44.359658180699796" lon="10.26676587145547"><ele>914.0</ele><time>2026-04-18T11:27:24Z</time></trkpt><trkpt lat="44.359698394463805" lon="10.266925725735234"><ele>914.0</ele><time>2026-04-18T11:27:25Z</time></trkpt><trkpt lat="44.359771274781544" lon="10.267051270271544"><ele>914.4000000000001</ele><time>2026-04-18T11:27:26Z</time></trkpt><trkpt lat="44.359826680678154" lon="10.267175008531076"><ele>914.8000000000001</ele><time>2026-04-18T11:27:27Z</time></trkpt><trkpt lat="44.35987222930609" lon="10.267298387157215"><ele>915.1999999999999</ele><time>2026-04-18T11:27:28Z</time></trkpt><trkpt lat="44.35991017246652" lon="10.267410261874815"><ele>915.5999999999999</ele><time>2026-04-18T11:27:29Z</time></trkpt><trkpt lat="44.3599645842298" lon="10.267519644137495"><ele>916.0</ele><time>2026-04-18T11:27:30Z</time></trkpt><trkpt lat="44.36006516956085" lon="10.26763149204052"><ele>913.75</ele><time>2026-04-18T11:27:31Z</time></trkpt><trkpt lat="44.36015263895115" lon="10.267744037172697"><ele>911.5</ele><time>2026-04-18T11:27:32Z</time></trkpt><trkpt lat="44.360213368618766" lon="10.267854170506972"><ele>909.25</ele><time>2026-04-18T11:27:33Z</time></trkpt><trkpt lat="44.36024990981823" lon="10.267980108135035"><ele>907.0</ele><time>2026-04-18T11:27:34Z</time></trkpt><trkpt lat="44.36018765779772" lon="10.268151970730095"><ele>906.0</ele><time>2026-04-18T11:27:35Z</time></trkpt><trkpt lat="44.36015716823607" lon="10.268350935760019"><ele>905.0</ele><time>2026-04-18T11:27:36Z</time></trkpt><trkpt lat="44.36012371210429" lon="10.268515466638858"><ele>904.0</ele><time>2026-04-18T11:27:37Z</time></trkpt><trkpt lat="44.36012690747992" lon="10.268638940960303"><ele>903.0</ele><time>2026-04-18T11:27:38Z</time></trkpt><trkpt lat="44.360176928891" lon="10.268723888265281"><ele>902.0</ele><time>2026-04-18T11:27:39Z</time></trkpt><trkpt lat="44.3602713305014" lon="10.268795472711568"><ele>902.0</ele><time>2026-04-18T11:27:40Z</time></trkpt><trkpt lat="44.360385070823575" lon="10.268857269111582"><ele>902.0</ele><time>2026-04-18T11:27:41Z</time></trkpt><trkpt lat="44.3605198092" lon="10.268928407339173"><ele>902.0</ele><time>2026-04-18T11:27:42Z</time></trkpt><trkpt lat="44.36064618273801" lon="10.269010444128465"><ele>902.0</ele><time>2026-04-18T11:27:43Z</time></trkpt><trkpt lat="44.360743175735074" lon="10.269103583048281"><ele>903.0</ele><time>2026-04-18T11:27:44Z</time></trkpt><trkpt lat="44.36081134667113" lon="10.269248662409353"><ele>904.0</ele><time>2026-04-18T11:27:45Z</time></trkpt><trkpt lat="44.3608763391343" lon="10.269361719437537"><ele>905.0</ele><time>2026-04-18T11:27:46Z</time></trkpt><trkpt lat="44.36091812438427" lon="10.269450762433834"><ele>906.0</ele><time>2026-04-18T11:27:47Z</time></trkpt><trkpt lat="44.361033016994064" lon="10.269449077676384"><ele>907.0</ele><time>2026-04-18T11:27:49Z</time></trkpt><trkpt lat="44.36111576237487" lon="10.269402972355282"><ele>907.0</ele><time>2026-04-18T11:27:50Z</time></trkpt><trkpt lat="44.36119143372259" lon="10.269347296765819"><ele>907.0</ele><time>2026-04-18T11:27:51Z</time></trkpt><trkpt lat="44.36125791681143" lon="10.269255018729385"><ele>907.0</ele><time>2026-04-18T11:27:52Z</time></trkpt><trkpt lat="44.36131570605571" lon="10.269134378095055"><ele>907.0</ele><time>2026-04-18T11:27:53Z</time></trkpt><trkpt lat="44.36135989344654" lon="10.26898823366889"><ele>907.0</ele><time>2026-04-18T11:27:54Z</time></trkpt><trkpt lat="44.36138293688625" lon="10.268820038685355"><ele>909.25</ele><time>2026-04-18T11:27:55Z</time></trkpt><trkpt lat="44.36137738786055" lon="10.26863711661632"><ele>911.5</ele><time>2026-04-18T11:27:56Z</time></trkpt><trkpt lat="44.36135798180691" lon="10.26844693476896"><ele>913.75</ele><time>2026-04-18T11:27:57Z</time></trkpt><trkpt lat="44.361318166696066" lon="10.268271529268361"><ele>916.0</ele><time>2026-04-18T11:27:58Z</time></trkpt><trkpt lat="44.3612328844862" lon="10.268121385764278"><ele>918.5</ele><time>2026-04-18T11:27:59Z</time></trkpt><trkpt lat="44.361143655494466" lon="10.267993345163823"><ele>921.0</ele><time>2026-04-18T11:28:00Z</time></trkpt><trkpt lat="44.361059722732065" lon="10.26785659963003"><ele>923.5</ele><time>2026-04-18T11:28:01Z</time></trkpt><trkpt lat="44.360977476292284" lon="10.267742964273628"><ele>926.0</ele><time>2026-04-18T11:28:02Z</time></trkpt><trkpt lat="44.360897873507035" lon="10.26762632828306"><ele>926.0</ele><time>2026-04-18T11:28:03Z</time></trkpt><trkpt lat="44.360822933886645" lon="10.267525198753278"><ele>926.0</ele><time>2026-04-18T11:28:04Z</time></trkpt><trkpt lat="44.36078360773442" lon="10.26736664258104"><ele>926.0</ele><time>2026-04-18T11:28:05Z</time></trkpt><trkpt lat="44.36071609786006" lon="10.267212432543221"><ele>926.0</ele><time>2026-04-18T11:28:06Z</time></trkpt><trkpt lat="44.36066553726523" lon="10.267034754129613"><ele>928.25</ele><time>2026-04-18T11:28:07Z</time></trkpt><trkpt lat="44.36060697083876" lon="10.26686009366808"><ele>930.5</ele><time>2026-04-18T11:28:08Z</time></trkpt><trkpt lat="44.36058432583243" lon="10.266670580135523"><ele>932.75</ele><time>2026-04-18T11:28:09Z</time></trkpt><trkpt lat="44.36056668796913" lon="10.266485786492039"><ele>935.0</ele><time>2026-04-18T11:28:10Z</time></trkpt><trkpt lat="44.360539297099116" lon="10.26631376984461"><ele>934.75</ele><time>2026-04-18T11:28:11Z</time></trkpt><trkpt lat="44.36053022410079" lon="10.266129370536348"><ele>934.5</ele><time>2026-04-18T11:28:12Z</time></trkpt><trkpt lat="44.36051157542223" lon="10.265950344453719"><ele>934.25</ele><time>2026-04-18T11:28:13Z</time></trkpt><trkpt lat="44.360494927525814" lon="10.265764488010808"><ele>934.0</ele><time>2026-04-18T11:28:14Z</time></trkpt><trkpt lat="44.36049557710571" lon="10.265582237428516"><ele>934.0</ele><time>2026-04-18T11:28:15Z</time></trkpt><trkpt lat="44.360468700074975" lon="10.265408960159146"><ele>934.0</ele><time>2026-04-18T11:28:15.999Z</time></trkpt><trkpt lat="44.36047135011699" lon="10.265217594747579"><ele>934.0</ele><time>2026-04-18T11:28:16.999Z</time></trkpt><trkpt lat="44.360503385271045" lon="10.26503899406696"><ele>934.0</ele><time>2026-04-18T11:28:17.999Z</time></trkpt><trkpt lat="44.360536230969764" lon="10.264905555393637"><ele>936.2</ele><time>2026-04-18T11:28:18.999Z</time></trkpt><trkpt lat="44.36063931275374" lon="10.264868647113438"><ele>938.4000000000001</ele><time>2026-04-18T11:28:20.999Z</time></trkpt><trkpt lat="44.36067095609219" lon="10.264952972608537"><ele>940.6</ele><time>2026-04-18T11:28:21.999Z</time></trkpt><trkpt lat="44.36068842303908" lon="10.265084271085179"><ele>942.8</ele><time>2026-04-18T11:28:22.999Z</time></trkpt><trkpt lat="44.360665466246445" lon="10.265239977278432"><ele>945.0</ele><time>2026-04-18T11:28:23.999Z</time></trkpt><trkpt lat="44.360675719098616" lon="10.265378559737846"><ele>945.0</ele><time>2026-04-18T11:28:24.999Z</time></trkpt><trkpt lat="44.36074659701003" lon="10.265526196026185"><ele>945.0</ele><time>2026-04-18T11:28:25.999Z</time></trkpt><trkpt lat="44.36084830085864" lon="10.265682626963002"><ele>945.0</ele><time>2026-04-18T11:28:26.999Z</time></trkpt><trkpt lat="44.360947787161365" lon="10.265839931401976"><ele>945.0</ele><time>2026-04-18T11:28:27.999Z</time></trkpt><trkpt lat="44.36102587070498" lon="10.265961244401876"><ele>944.0</ele><time>2026-04-18T11:28:28.999Z</time></trkpt><trkpt lat="44.36108667080193" lon="10.26602230854419"><ele>943.0</ele><time>2026-04-18T11:28:29.999Z</time></trkpt><trkpt lat="44.361154892573275" lon="10.266023340083326"><ele>942.0</ele><time>2026-04-18T11:28:30.999Z</time></trkpt><trkpt lat="44.36123065549509" lon="10.265946885892406"><ele>941.0</ele><time>2026-04-18T11:28:31.999Z</time></trkpt><trkpt lat="44.36127534254318" lon="10.265815903888148"><ele>940.0</ele><time>2026-04-18T11:28:32.999Z</time></trkpt><trkpt lat="44.36127316853129" lon="10.26564448683162"><ele>941.25</ele><time>2026-04-18T11:28:33.999Z</time></trkpt><trkpt lat="44.36123983987836" lon="10.265470297700181"><ele>942.5</ele><time>2026-04-18T11:28:34.999Z</time></trkpt><trkpt lat="44.36118635443983" lon="10.265293760095828"><ele>943.75</ele><time>2026-04-18T11:28:35.999Z</time></trkpt><trkpt lat="44.361152170465765" lon="10.26512338974621"><ele>945.0</ele><time>2026-04-18T11:28:36.999Z</time></trkpt><trkpt lat="44.36113226889894" lon="10.264958886081486"><ele>945.0</ele><time>2026-04-18T11:28:37.999Z</time></trkpt><trkpt lat="44.36111393661787" lon="10.26479638288882"><ele>945.0</ele><time>2026-04-18T11:28:38.999Z</time></trkpt><trkpt lat="44.36110053944372" lon="10.264644550452115"><ele>945.0</ele><time>2026-04-18T11:28:39.999Z</time></trkpt><trkpt lat="44.36111339611105" lon="10.264500387916875"><ele>945.0</ele><time>2026-04-18T11:28:40.999Z</time></trkpt><trkpt lat="44.361158490290464" lon="10.264375354948616"><ele>945.0</ele><time>2026-04-18T11:28:41.999Z</time></trkpt><trkpt lat="44.361229407920504" lon="10.264269765717069"><ele>946.4</ele><time>2026-04-18T11:28:42.999Z</time></trkpt><trkpt lat="44.36131540466401" lon="10.264216109525897"><ele>947.8</ele><time>2026-04-18T11:28:43.999Z</time></trkpt><trkpt lat="44.36138569238648" lon="10.264214055315065"><ele>949.2</ele><time>2026-04-18T11:28:44.999Z</time></trkpt><trkpt lat="44.36145329411879" lon="10.264289295886652"><ele>950.6</ele><time>2026-04-18T11:28:45.999Z</time></trkpt><trkpt lat="44.361513769512634" lon="10.264427050609227"><ele>952.0</ele><time>2026-04-18T11:28:46.999Z</time></trkpt><trkpt lat="44.36156864453799" lon="10.264590022790625"><ele>955.75</ele><time>2026-04-18T11:28:47.999Z</time></trkpt><trkpt lat="44.36159450855799" lon="10.264791435631375"><ele>959.5</ele><time>2026-04-18T11:28:48.999Z</time></trkpt><trkpt lat="44.36162777572695" lon="10.264987174681035"><ele>963.25</ele><time>2026-04-18T11:28:49.999Z</time></trkpt><trkpt lat="44.36164450657516" lon="10.265171346894927"><ele>967.0</ele><time>2026-04-18T11:28:50.999Z</time></trkpt><trkpt lat="44.36167669098134" lon="10.265300085230834"><ele>967.0</ele><time>2026-04-18T11:28:51.999Z</time></trkpt><trkpt lat="44.36171567007969" lon="10.26544325058764"><ele>967.0</ele><time>2026-04-18T11:28:52.999Z</time></trkpt><trkpt lat="44.361778508133135" lon="10.26559903843142"><ele>967.0</ele><time>2026-04-18T11:28:53.999Z</time></trkpt><trkpt lat="44.36184423621544" lon="10.265772137549858"><ele>967.0</ele><time>2026-04-18T11:28:54.999Z</time></trkpt><trkpt lat="44.361904901964095" lon="10.265920163966161"><ele>965.75</ele><time>2026-04-18T11:28:55.999Z</time></trkpt><trkpt lat="44.36196251208694" lon="10.266021916528917"><ele>964.5</ele><time>2026-04-18T11:28:56.999Z</time></trkpt><trkpt lat="44.362088438302045" lon="10.266021901873316"><ele>963.25</ele><time>2026-04-18T11:28:58.999Z</time></trkpt><trkpt lat="44.36214186441127" lon="10.265879851552558"><ele>962.0</ele><time>2026-04-18T11:28:59.999Z</time></trkpt><trkpt lat="44.36211132091034" lon="10.265699660358658"><ele>963.6666666666667</ele><time>2026-04-18T11:29:00.999Z</time></trkpt><trkpt lat="44.36206935685312" lon="10.265495630147429"><ele>965.3333333333333</ele><time>2026-04-18T11:29:01.999Z</time></trkpt><trkpt lat="44.36206203781664" lon="10.26528305990846"><ele>967.0</ele><time>2026-04-18T11:29:02.999Z</time></trkpt><trkpt lat="44.36205485174009" lon="10.265077622440993"><ele>967.0</ele><time>2026-04-18T11:29:03.999Z</time></trkpt><trkpt lat="44.362083859705535" lon="10.264897918183152"><ele>967.0</ele><time>2026-04-18T11:29:04.999Z</time></trkpt><trkpt lat="44.36214597642678" lon="10.26469777996444"><ele>967.0</ele><time>2026-04-18T11:29:05.999Z</time></trkpt><trkpt lat="44.36221721445152" lon="10.264461294530102"><ele>975.6666666666666</ele><time>2026-04-18T11:29:06.999Z</time></trkpt><trkpt lat="44.36227643535443" lon="10.264233723060121"><ele>984.3333333333333</ele><time>2026-04-18T11:29:07.999Z</time></trkpt><trkpt lat="44.36232016548222" lon="10.264046362439842"><ele>993.0</ele><time>2026-04-18T11:29:08.999Z</time></trkpt><trkpt lat="44.3623105621774" lon="10.263842728222842"><ele>995.0</ele><time>2026-04-18T11:29:09.999Z</time></trkpt><trkpt lat="44.362246366240626" lon="10.263629866597578"><ele>997.0</ele><time>2026-04-18T11:29:10.999Z</time></trkpt><trkpt lat="44.36216255635187" lon="10.26341031458996"><ele>999.0</ele><time>2026-04-18T11:29:11.999Z</time></trkpt><trkpt lat="44.36210618139828" lon="10.263202006334069"><ele>998.2</ele><time>2026-04-18T11:29:12.999Z</time></trkpt><trkpt lat="44.36206165381936" lon="10.263068073208418"><ele>997.4000000000001</ele><time>2026-04-18T11:29:14Z</time></trkpt><trkpt lat="44.362074111798954" lon="10.262915241953449"><ele>996.6</ele><time>2026-04-18T11:29:16Z</time></trkpt><trkpt lat="44.3621375958185" lon="10.26286713843091"><ele>995.8</ele><time>2026-04-18T11:29:17Z</time></trkpt><trkpt lat="44.36223483367518" lon="10.262904366085278"><ele>995.0</ele><time>2026-04-18T11:29:18Z</time></trkpt><trkpt lat="44.36230331294503" lon="10.263031035746087"><ele>996.3333333333334</ele><time>2026-04-18T11:29:19Z</time></trkpt><trkpt lat="44.362349745153075" lon="10.263215609836841"><ele>997.6666666666667</ele><time>2026-04-18T11:29:20Z</time></trkpt><trkpt lat="44.362400455640326" lon="10.263427011408792"><ele>999.0</ele><time>2026-04-18T11:29:21Z</time></trkpt><trkpt lat="44.36246192865175" lon="10.263619999154251"><ele>999.0</ele><time>2026-04-18T11:29:22Z</time></trkpt><trkpt lat="44.36251847366175" lon="10.26383411928234"><ele>999.0</ele><time>2026-04-18T11:29:23Z</time></trkpt><trkpt lat="44.362548928139134" lon="10.26405548696995"><ele>999.0</ele><time>2026-04-18T11:29:24Z</time></trkpt><trkpt lat="44.36257218361149" lon="10.264229179068737"><ele>997.5</ele><time>2026-04-18T11:29:25Z</time></trkpt><trkpt lat="44.36262026933959" lon="10.264375083797647"><ele>996.0</ele><time>2026-04-18T11:29:26Z</time></trkpt><trkpt lat="44.362696362738134" lon="10.264517618276656"><ele>994.5</ele><time>2026-04-18T11:29:27Z</time></trkpt><trkpt lat="44.36280540403308" lon="10.264604268894882"><ele>993.0</ele><time>2026-04-18T11:29:28Z</time></trkpt><trkpt lat="44.36290567951899" lon="10.264619741849133"><ele>993.0</ele><time>2026-04-18T11:29:29Z</time></trkpt><trkpt lat="44.363018108452536" lon="10.264584326380527"><ele>993.0</ele><time>2026-04-18T11:29:30Z</time></trkpt><trkpt lat="44.36315286814662" lon="10.264481732533465"><ele>993.0</ele><time>2026-04-18T11:29:31Z</time></trkpt><trkpt lat="44.3632861417603" lon="10.264337257233056"><ele>993.0</ele><time>2026-04-18T11:29:32Z</time></trkpt><trkpt lat="44.36339793750988" lon="10.264173803128902"><ele>997.3333333333333</ele><time>2026-04-18T11:29:33Z</time></trkpt><trkpt lat="44.363510469341264" lon="10.264008978060907"><ele>1001.6666666666666</ele><time>2026-04-18T11:29:34Z</time></trkpt><trkpt lat="44.36363906491374" lon="10.263865061607598"><ele>1006.0</ele><time>2026-04-18T11:29:35Z</time></trkpt><trkpt lat="44.36375787776542" lon="10.263707980155536"><ele>1007.6666666666666</ele><time>2026-04-18T11:29:36Z</time></trkpt><trkpt lat="44.363845762152465" lon="10.263511784858816"><ele>1009.3333333333333</ele><time>2026-04-18T11:29:37Z</time></trkpt><trkpt lat="44.36391380254107" lon="10.263270142216896"><ele>1011.0</ele><time>2026-04-18T11:29:38Z</time></trkpt><trkpt lat="44.36398662426153" lon="10.26303897237925"><ele>1013.0</ele><time>2026-04-18T11:29:39Z</time></trkpt><trkpt lat="44.364051727383696" lon="10.262805803502772"><ele>1015.0</ele><time>2026-04-18T11:29:40Z</time></trkpt><trkpt lat="44.36409686698388" lon="10.26258609054045"><ele>1017.0</ele><time>2026-04-18T11:29:41Z</time></trkpt><trkpt lat="44.36415433996735" lon="10.262386807003606"><ele>1019.0</ele><time>2026-04-18T11:29:42Z</time></trkpt><trkpt lat="44.36419351813051" lon="10.262215336699867"><ele>1021.0</ele><time>2026-04-18T11:29:43Z</time></trkpt><trkpt lat="44.36421064563351" lon="10.262047822511166"><ele>1023.0</ele><time>2026-04-18T11:29:44Z</time></trkpt><trkpt lat="44.364204438840595" lon="10.261882708620133"><ele>1025.0</ele><time>2026-04-18T11:29:45Z</time></trkpt><trkpt lat="44.364188868502424" lon="10.261709634941868"><ele>1025.0</ele><time>2026-04-18T11:29:46Z</time></trkpt><trkpt lat="44.36412365278323" lon="10.261539267199389"><ele>1025.0</ele><time>2026-04-18T11:29:47Z</time></trkpt><trkpt lat="44.3640437131626" lon="10.26136515901347"><ele>1025.0</ele><time>2026-04-18T11:29:48Z</time></trkpt><trkpt lat="44.363980109663736" lon="10.261198374161648"><ele>1025.0</ele><time>2026-04-18T11:29:49Z</time></trkpt><trkpt lat="44.36393904045853" lon="10.261069659319539"><ele>1026.4</ele><time>2026-04-18T11:29:50Z</time></trkpt><trkpt lat="44.363912840953866" lon="10.260942428606391"><ele>1027.8</ele><time>2026-04-18T11:29:51Z</time></trkpt><trkpt lat="44.36393159584233" lon="10.26084697836473"><ele>1029.2</ele><time>2026-04-18T11:29:52Z</time></trkpt><trkpt lat="44.36400492387985" lon="10.260766150229573"><ele>1030.6</ele><time>2026-04-18T11:29:53Z</time></trkpt><trkpt lat="44.364090651341265" lon="10.260715130876068"><ele>1032.0</ele><time>2026-04-18T11:29:54Z</time></trkpt><trkpt lat="44.36419897789732" lon="10.26080966043127"><ele>1032.0</ele><time>2026-04-18T11:29:55Z</time></trkpt><trkpt lat="44.36429663187044" lon="10.260933781450621"><ele>1032.0</ele><time>2026-04-18T11:29:56Z</time></trkpt><trkpt lat="44.36441032000421" lon="10.261061742267293"><ele>1032.0</ele><time>2026-04-18T11:29:57Z</time></trkpt><trkpt lat="44.36450798311629" lon="10.26117258869407"><ele>1032.0</ele><time>2026-04-18T11:29:58Z</time></trkpt><trkpt lat="44.3646002440494" lon="10.261203778077316"><ele>1033.0</ele><time>2026-04-18T11:29:59Z</time></trkpt><trkpt lat="44.364705229692696" lon="10.261173641917585"><ele>1034.0</ele><time>2026-04-18T11:30:00Z</time></trkpt><trkpt lat="44.36478687710468" lon="10.261091115667142"><ele>1035.0</ele><time>2026-04-18T11:30:01Z</time></trkpt><trkpt lat="44.36483636721311" lon="10.26097610190141"><ele>1036.0</ele><time>2026-04-18T11:30:02Z</time></trkpt><trkpt lat="44.36482549805785" lon="10.260797081658971"><ele>1037.0</ele><time>2026-04-18T11:30:03Z</time></trkpt><trkpt lat="44.36477634787705" lon="10.260625013824527"><ele>1039.0</ele><time>2026-04-18T11:30:04Z</time></trkpt><trkpt lat="44.36467799021834" lon="10.26042063528881"><ele>1041.0</ele><time>2026-04-18T11:30:05Z</time></trkpt><trkpt lat="44.36459542578327" lon="10.260205746619969"><ele>1043.0</ele><time>2026-04-18T11:30:06Z</time></trkpt><trkpt lat="44.36450912339135" lon="10.260008480195344"><ele>1043.0</ele><time>2026-04-18T11:30:07Z</time></trkpt><trkpt lat="44.36441701209742" lon="10.259852371023753"><ele>1043.0</ele><time>2026-04-18T11:30:08Z</time></trkpt><trkpt lat="44.3643185109962" lon="10.259764911384986"><ele>1043.0</ele><time>2026-04-18T11:30:09Z</time></trkpt><trkpt lat="44.36422316364514" lon="10.259717414973187"><ele>1043.0</ele><time>2026-04-18T11:30:10Z</time></trkpt><trkpt lat="44.36413613976536" lon="10.259660174048864"><ele>1045.5</ele><time>2026-04-18T11:30:11Z</time></trkpt><trkpt lat="44.364009425168206" lon="10.259620993800093"><ele>1048.0</ele><time>2026-04-18T11:30:12Z</time></trkpt><trkpt lat="44.363859276130974" lon="10.259570787863359"><ele>1050.5</ele><time>2026-04-18T11:30:13Z</time></trkpt><trkpt lat="44.363696400245594" lon="10.259579910358264"><ele>1053.0</ele><time>2026-04-18T11:30:14Z</time></trkpt><trkpt lat="44.3635439781434" lon="10.259602430236805"><ele>1054.2</ele><time>2026-04-18T11:30:15Z</time></trkpt><trkpt lat="44.36342594730152" lon="10.259606179170078"><ele>1055.4</ele><time>2026-04-18T11:30:16Z</time></trkpt><trkpt lat="44.36334175460979" lon="10.259599433026501"><ele>1056.6000000000001</ele><time>2026-04-18T11:30:17Z</time></trkpt><trkpt lat="44.36330040200963" lon="10.259475724226096"><ele>1057.8</ele><time>2026-04-18T11:30:19Z</time></trkpt><trkpt lat="44.36335446579449" lon="10.259379143909902"><ele>1059.0</ele><time>2026-04-18T11:30:20Z</time></trkpt><trkpt lat="44.36345390723209" lon="10.259242930044818"><ele>1059.0</ele><time>2026-04-18T11:30:21Z</time></trkpt><trkpt lat="44.3635621403836" lon="10.259094511826952"><ele>1059.0</ele><time>2026-04-18T11:30:22Z</time></trkpt><trkpt lat="44.363667248634755" lon="10.258938003197656"><ele>1059.0</ele><time>2026-04-18T11:30:23Z</time></trkpt><trkpt lat="44.363769204735306" lon="10.258796876693737"><ele>1059.0</ele><time>2026-04-18T11:30:23.999Z</time></trkpt><trkpt lat="44.3638569639924" lon="10.258706931563506"><ele>1061.0</ele><time>2026-04-18T11:30:24.999Z</time></trkpt><trkpt lat="44.36395753908323" lon="10.258619723057011"><ele>1063.0</ele><time>2026-04-18T11:30:25.999Z</time></trkpt><trkpt lat="44.364058506296665" lon="10.2585794051855"><ele>1065.0</ele><time>2026-04-18T11:30:26.999Z</time></trkpt><trkpt lat="44.3641547198667" lon="10.258605268484308"><ele>1067.0</ele><time>2026-04-18T11:30:27.999Z</time></trkpt><trkpt lat="44.364270022613496" lon="10.258612874390872"><ele>1069.0</ele><time>2026-04-18T11:30:28.999Z</time></trkpt><trkpt lat="44.36438039378617" lon="10.258637698832315"><ele>1069.0</ele><time>2026-04-18T11:30:29.999Z</time></trkpt><trkpt lat="44.36449481841169" lon="10.258593983907897"><ele>1069.0</ele><time>2026-04-18T11:30:30.999Z</time></trkpt><trkpt lat="44.364584177124904" lon="10.258514957482825"><ele>1069.0</ele><time>2026-04-18T11:30:31.999Z</time></trkpt><trkpt lat="44.364668673847994" lon="10.258387647120058"><ele>1069.0</ele><time>2026-04-18T11:30:32.999Z</time></trkpt><trkpt lat="44.36474529595509" lon="10.258219674301094"><ele>1069.75</ele><time>2026-04-18T11:30:33.999Z</time></trkpt><trkpt lat="44.364815030264005" lon="10.25803500646927"><ele>1070.5</ele><time>2026-04-18T11:30:34.999Z</time></trkpt><trkpt lat="44.364864280363086" lon="10.257864971406809"><ele>1071.25</ele><time>2026-04-18T11:30:35.999Z</time></trkpt><trkpt lat="44.36487958407976" lon="10.25769712757753"><ele>1072.0</ele><time>2026-04-18T11:30:36.999Z</time></trkpt><trkpt lat="44.36485942987837" lon="10.257537716023002"><ele>1072.0</ele><time>2026-04-18T11:30:37.999Z</time></trkpt><trkpt lat="44.364820043042236" lon="10.257376297659198"><ele>1072.0</ele><time>2026-04-18T11:30:38.999Z</time></trkpt><trkpt lat="44.36468684323098" lon="10.257254433212056"><ele>1072.0</ele><time>2026-04-18T11:30:39.999Z</time></trkpt><trkpt lat="44.36455176416246" lon="10.257159775746707"><ele>1072.0</ele><time>2026-04-18T11:30:40.999Z</time></trkpt><trkpt lat="44.364461618282306" lon="10.257034252797904"><ele>1076.8</ele><time>2026-04-18T11:30:41.999Z</time></trkpt><trkpt lat="44.36440536960069" lon="10.256942869170317"><ele>1081.6</ele><time>2026-04-18T11:30:42.999Z</time></trkpt><trkpt lat="44.3644127758196" lon="10.256853294538125"><ele>1086.3999999999999</ele><time>2026-04-18T11:30:43.999Z</time></trkpt><trkpt lat="44.3644588466429" lon="10.256765750055612"><ele>1091.2</ele><time>2026-04-18T11:30:44.999Z</time></trkpt><trkpt lat="44.36456108513229" lon="10.256651146767986"><ele>1096.0</ele><time>2026-04-18T11:30:45.999Z</time></trkpt><trkpt lat="44.36466995582252" lon="10.256503812980883"><ele>1097.0</ele><time>2026-04-18T11:30:46.999Z</time></trkpt><trkpt lat="44.36480645716534" lon="10.256426605876273"><ele>1098.0</ele><time>2026-04-18T11:30:47.999Z</time></trkpt><trkpt lat="44.36492089058879" lon="10.256368840036105"><ele>1099.0</ele><time>2026-04-18T11:30:48.999Z</time></trkpt><trkpt lat="44.365023420344976" lon="10.256329951264805"><ele>1100.0</ele><time>2026-04-18T11:30:49.999Z</time></trkpt><trkpt lat="44.36511318149872" lon="10.256220932736309"><ele>1100.0</ele><time>2026-04-18T11:30:50.999Z</time></trkpt><trkpt lat="44.365165954201615" lon="10.25606074308917"><ele>1100.0</ele><time>2026-04-18T11:30:51.999Z</time></trkpt><trkpt lat="44.3651754687668" lon="10.25585237279447"><ele>1100.0</ele><time>2026-04-18T11:30:52.999Z</time></trkpt><trkpt lat="44.36520732086905" lon="10.255642589760113"><ele>1100.0</ele><time>2026-04-18T11:30:53.999Z</time></trkpt><trkpt lat="44.36524633470387" lon="10.255457674928108"><ele>1103.4</ele><time>2026-04-18T11:30:54.999Z</time></trkpt><trkpt lat="44.365314250482946" lon="10.255307811610164"><ele>1106.8</ele><time>2026-04-18T11:30:55.999Z</time></trkpt><trkpt lat="44.365378985273004" lon="10.255184550437512"><ele>1110.2</ele><time>2026-04-18T11:30:56.999Z</time></trkpt><trkpt lat="44.36544230814734" lon="10.255108317099403"><ele>1113.6</ele><time>2026-04-18T11:30:57.999Z</time></trkpt><trkpt lat="44.36550398900376" lon="10.255058068587722"><ele>1117.0</ele><time>2026-04-18T11:30:58.999Z</time></trkpt><trkpt lat="44.365615539450445" lon="10.25513519333186"><ele>1117.0</ele><time>2026-04-18T11:30:59.999Z</time></trkpt><trkpt lat="44.36574642290787" lon="10.255233252258734"><ele>1117.0</ele><time>2026-04-18T11:31:00.999Z</time></trkpt><trkpt lat="44.36587974306395" lon="10.255346323800408"><ele>1117.0</ele><time>2026-04-18T11:31:01.999Z</time></trkpt><trkpt lat="44.366047894410265" lon="10.255424425564016"><ele>1117.0</ele><time>2026-04-18T11:31:02.999Z</time></trkpt><trkpt lat="44.366208749999345" lon="10.255488745124937"><ele>1117.0</ele><time>2026-04-18T11:31:03.999Z</time></trkpt><trkpt lat="44.366346395547794" lon="10.255553550802691"><ele>1117.0</ele><time>2026-04-18T11:31:04.999Z</time></trkpt><trkpt lat="44.36644098514849" lon="10.255672138529045"><ele>1117.0</ele><time>2026-04-18T11:31:05.999Z</time></trkpt><trkpt lat="44.36652649957102" lon="10.255806363470246"><ele>1117.0</ele><time>2026-04-18T11:31:06.999Z</time></trkpt><trkpt lat="44.36660200089107" lon="10.255947275160006"><ele>1117.0</ele><time>2026-04-18T11:31:07.999Z</time></trkpt><trkpt lat="44.36664088970452" lon="10.25609034666537"><ele>1117.0</ele><time>2026-04-18T11:31:08.999Z</time></trkpt><trkpt lat="44.366691103005465" lon="10.256198530283537"><ele>1117.0</ele><time>2026-04-18T11:31:09.999Z</time></trkpt><trkpt lat="44.366789775420436" lon="10.256273668711831"><ele>1117.0</ele><time>2026-04-18T11:31:10.999Z</time></trkpt><trkpt lat="44.36692539775929" lon="10.256282849601291"><ele>1117.0</ele><time>2026-04-18T11:31:11.999Z</time></trkpt><trkpt lat="44.36707534940382" lon="10.256231036202786"><ele>1117.0</ele><time>2026-04-18T11:31:12.999Z</time></trkpt><trkpt lat="44.367228209789104" lon="10.256144069857921"><ele>1117.0</ele><time>2026-04-18T11:31:13.999Z</time></trkpt><trkpt lat="44.36740490697415" lon="10.256094086385028"><ele>1121.6666666666665</ele><time>2026-04-18T11:31:14.999Z</time></trkpt><trkpt lat="44.367584189785674" lon="10.2560580034697"><ele>1126.3333333333333</ele><time>2026-04-18T11:31:15.999Z</time></trkpt><trkpt lat="44.36775772353634" lon="10.255991509789908"><ele>1131.0</ele><time>2026-04-18T11:31:16.999Z</time></trkpt><trkpt lat="44.36791755608505" lon="10.255950930493599"><ele>1132.5</ele><time>2026-04-18T11:31:17.999Z</time></trkpt><trkpt lat="44.36807860479746" lon="10.255886249731597"><ele>1134.0</ele><time>2026-04-18T11:31:18.999Z</time></trkpt><trkpt lat="44.36822036519032" lon="10.255840813291577"><ele>1135.5</ele><time>2026-04-18T11:31:20Z</time></trkpt><trkpt lat="44.36834430678397" lon="10.25579685291209"><ele>1137.0</ele><time>2026-04-18T11:31:21Z</time></trkpt><trkpt lat="44.368458444849836" lon="10.255832012175395"><ele>1137.0</ele><time>2026-04-18T11:31:22Z</time></trkpt><trkpt lat="44.368582009570815" lon="10.255938796616963"><ele>1137.0</ele><time>2026-04-18T11:31:23Z</time></trkpt><trkpt lat="44.36872071268427" lon="10.2560787082679"><ele>1137.0</ele><time>2026-04-18T11:31:24Z</time></trkpt><trkpt lat="44.36884357189218" lon="10.25625238949131"><ele>1139.6666666666667</ele><time>2026-04-18T11:31:25Z</time></trkpt><trkpt lat="44.36894478001453" lon="10.25641130633563"><ele>1142.3333333333335</ele><time>2026-04-18T11:31:26Z</time></trkpt><trkpt lat="44.36904883472611" lon="10.256565247779212"><ele>1145.0</ele><time>2026-04-18T11:31:27Z</time></trkpt><trkpt lat="44.36915042495978" lon="10.256723018009108"><ele>1145.0</ele><time>2026-04-18T11:31:28Z</time></trkpt><trkpt lat="44.369251991927925" lon="10.256877619904929"><ele>1145.0</ele><time>2026-04-18T11:31:29Z</time></trkpt><trkpt lat="44.36936082450408" lon="10.25702760712319"><ele>1145.0</ele><time>2026-04-18T11:31:30Z</time></trkpt><trkpt lat="44.36947541411353" lon="10.257180525647337"><ele>1143.0</ele><time>2026-04-18T11:31:31Z</time></trkpt><trkpt lat="44.36958833846857" lon="10.257331674048432"><ele>1141.0</ele><time>2026-04-18T11:31:32Z</time></trkpt><trkpt lat="44.36970446953285" lon="10.257486533976296"><ele>1139.0</ele><time>2026-04-18T11:31:33Z</time></trkpt><trkpt lat="44.36981508764533" lon="10.257648015646256"><ele>1143.5</ele><time>2026-04-18T11:31:34Z</time></trkpt><trkpt lat="44.369911620178314" lon="10.257817155478369"><ele>1148.0</ele><time>2026-04-18T11:31:35Z</time></trkpt><trkpt lat="44.370000132510775" lon="10.257953128873094"><ele>1152.5</ele><time>2026-04-18T11:31:36Z</time></trkpt><trkpt lat="44.37010470727011" lon="10.258036234587966"><ele>1157.0</ele><time>2026-04-18T11:31:37Z</time></trkpt><trkpt lat="44.37024061576048" lon="10.258075423136795"><ele>1157.0</ele><time>2026-04-18T11:31:38Z</time></trkpt><trkpt lat="44.37039006949678" lon="10.25807283984975"><ele>1157.0</ele><time>2026-04-18T11:31:39Z</time></trkpt><trkpt lat="44.37051995165841" lon="10.258059763384441"><ele>1157.0</ele><time>2026-04-18T11:31:40Z</time></trkpt><trkpt lat="44.37062391335564" lon="10.258041157737203"><ele>1157.0</ele><time>2026-04-18T11:31:41Z</time></trkpt><trkpt lat="44.3707169028181" lon="10.257988806908685"><ele>1160.0</ele><time>2026-04-18T11:31:42Z</time></trkpt><trkpt lat="44.37080046111582" lon="10.257893304128073"><ele>1163.0</ele><time>2026-04-18T11:31:43Z</time></trkpt><trkpt lat="44.37084493642823" lon="10.25775062657273"><ele>1166.0</ele><time>2026-04-18T11:31:44Z</time></trkpt><trkpt lat="44.370838015100695" lon="10.257568532665228"><ele>1169.0</ele><time>2026-04-18T11:31:45Z</time></trkpt><trkpt lat="44.37079954330774" lon="10.257384593399289"><ele>1171.4</ele><time>2026-04-18T11:31:46Z</time></trkpt><trkpt lat="44.37078057019589" lon="10.257259784556192"><ele>1173.8000000000002</ele><time>2026-04-18T11:31:47Z</time></trkpt><trkpt lat="44.37075085325448" lon="10.257158193012332"><ele>1176.1999999999998</ele><time>2026-04-18T11:31:49Z</time></trkpt><trkpt lat="44.370739535424995" lon="10.257041135038865"><ele>1178.6</ele><time>2026-04-18T11:32:15Z</time></trkpt><trkpt lat="44.37087563161497" lon="10.2568574333275"><ele>1181.0</ele><time>2026-04-18T11:32:18Z</time></trkpt><trkpt lat="44.370943079489464" lon="10.256786849014713"><ele>1181.0</ele><time>2026-04-18T11:32:20Z</time></trkpt><trkpt lat="44.37104199302839" lon="10.25675984065931"><ele>1181.0</ele><time>2026-04-18T11:32:23Z</time></trkpt><trkpt lat="44.371124788038934" lon="10.256750456324562"><ele>1181.0</ele><time>2026-04-18T11:32:25Z</time></trkpt><trkpt lat="44.371200582474316" lon="10.25674345968634"><ele>1181.0</ele><time>2026-04-18T11:32:27Z</time></trkpt><trkpt lat="44.37127138316116" lon="10.25674788942634"><ele>1181.0</ele><time>2026-04-18T11:32:29Z</time></trkpt><trkpt lat="44.37138293182879" lon="10.256791690576415"><ele>1181.0</ele><time>2026-04-18T11:32:30.999Z</time></trkpt><trkpt lat="44.371477136766984" lon="10.25679575962976"><ele>1183.0</ele><time>2026-04-18T11:32:32.999Z</time></trkpt><trkpt lat="44.37158435019307" lon="10.256743928626205"><ele>1185.0</ele><time>2026-04-18T11:32:34.999Z</time></trkpt><trkpt lat="44.37164262109794" lon="10.256814071359932"><ele>1187.0</ele><time>2026-04-18T11:32:36.999Z</time></trkpt><trkpt lat="44.37170137627929" lon="10.256892611241236"><ele>1189.0</ele><time>2026-04-18T11:32:38.999Z</time></trkpt><trkpt lat="44.37179472335878" lon="10.256926995015373"><ele>1191.0</ele><time>2026-04-18T11:32:40.999Z</time></trkpt><trkpt lat="44.37188209784829" lon="10.25690350486408"><ele>1191.0</ele><time>2026-04-18T11:32:42.999Z</time></trkpt><trkpt lat="44.371956889695916" lon="10.256881214869093"><ele>1191.0</ele><time>2026-04-18T11:32:44.999Z</time></trkpt><trkpt lat="44.372031712483285" lon="10.256836250368057"><ele>1191.0</ele><time>2026-04-18T11:32:46.999Z</time></trkpt><trkpt lat="44.372099855254426" lon="10.256789222221995"><ele>1191.0</ele><time>2026-04-18T11:32:48.999Z</time></trkpt><trkpt lat="44.372168693332206" lon="10.256869391584981"><ele>1191.0</ele><time>2026-04-18T11:32:52.999Z</time></trkpt><trkpt lat="44.37218842649637" lon="10.2569579916268"><ele>1191.0</ele><time>2026-04-18T11:32:54.999Z</time></trkpt><trkpt lat="44.37222290183375" lon="10.257085727967421"><ele>1192.5</ele><time>2026-04-18T11:32:57.999Z</time></trkpt><trkpt lat="44.37223314869322" lon="10.257213327921367"><ele>1194.0</ele><time>2026-04-18T11:33:00.999Z</time></trkpt><trkpt lat="44.37227733688893" lon="10.257298862196155"><ele>1195.5</ele><time>2026-04-18T11:33:03.999Z</time></trkpt><trkpt lat="44.37230319659194" lon="10.257392186852984"><ele>1197.0</ele><time>2026-04-18T11:33:06.999Z</time></trkpt><trkpt lat="44.37232852144158" lon="10.257501357219422"><ele>1198.5</ele><time>2026-04-18T11:33:09.999Z</time></trkpt><trkpt lat="44.3723656431822" lon="10.25759963795237"><ele>1200.0</ele><time>2026-04-18T11:33:11.999Z</time></trkpt><trkpt lat="44.37240999778469" lon="10.25769887748257"><ele>1200.0</ele><time>2026-04-18T11:33:13.999Z</time></trkpt><trkpt lat="44.37247763141038" lon="10.257809643226887"><ele>1200.0</ele><time>2026-04-18T11:33:15.999Z</time></trkpt><trkpt lat="44.372554526044674" lon="10.257860014304823"><ele>1200.0</ele><time>2026-04-18T11:33:17.999Z</time></trkpt><trkpt lat="44.372638902928124" lon="10.25786435339174"><ele>1200.0</ele><time>2026-04-18T11:33:57Z</time></trkpt><trkpt lat="44.37270890344552" lon="10.257868049542713"><ele>1200.0</ele><time>2026-04-18T11:33:59Z</time></trkpt><trkpt lat="44.37281914717549" lon="10.25785523654061"><ele>1200.0</ele><time>2026-04-18T11:34:01Z</time></trkpt><trkpt lat="44.37288858172219" lon="10.25785024558664"><ele>1200.0</ele><time>2026-04-18T11:34:02Z</time></trkpt><trkpt lat="44.372961803857784" lon="10.257875838952254"><ele>1200.0</ele><time>2026-04-18T11:34:05Z</time></trkpt><trkpt lat="44.37304987177189" lon="10.257921141122942"><ele>1200.0</ele><time>2026-04-18T11:34:08Z</time></trkpt><trkpt lat="44.373100632858495" lon="10.257996219283475"><ele>1200.0</ele><time>2026-04-18T11:34:11Z</time></trkpt><trkpt lat="44.37314419314277" lon="10.258067220992"><ele>1200.0</ele><time>2026-04-18T11:34:13Z</time></trkpt><trkpt lat="44.37317342103254" lon="10.258167208896552"><ele>1203.0</ele><time>2026-04-18T11:34:15Z</time></trkpt><trkpt lat="44.37319426698812" lon="10.258278263334848"><ele>1206.0</ele><time>2026-04-18T11:34:18Z</time></trkpt><trkpt lat="44.37321476653603" lon="10.258394388853246"><ele>1209.0</ele><time>2026-04-18T11:34:21Z</time></trkpt><trkpt lat="44.37323635205079" lon="10.258488830457463"><ele>1212.0</ele><time>2026-04-18T11:34:23Z</time></trkpt><trkpt lat="44.37328468842854" lon="10.258565234973178"><ele>1215.0</ele><time>2026-04-18T11:34:25Z</time></trkpt><trkpt lat="44.37333594657815" lon="10.258651261862237"><ele>1218.0</ele><time>2026-04-18T11:34:27Z</time></trkpt><trkpt lat="44.373372055308955" lon="10.258737293166403"><ele>1218.0</ele><time>2026-04-18T11:34:29Z</time></trkpt><trkpt lat="44.37337548754895" lon="10.258856335658988"><ele>1218.0</ele><time>2026-04-18T11:34:31.999Z</time></trkpt><trkpt lat="44.37336105210847" lon="10.258968368132626"><ele>1218.0</ele><time>2026-04-18T11:34:34.999Z</time></trkpt><trkpt lat="44.37340192975703" lon="10.25903649540839"><ele>1218.0</ele><time>2026-04-18T11:34:37.999Z</time></trkpt><trkpt lat="44.37337462898661" lon="10.258950080473255"><ele>1218.0</ele><time>2026-04-18T11:36:07Z</time></trkpt><trkpt lat="44.37337347867464" lon="10.25885101222966"><ele>1218.0</ele><time>2026-04-18T11:36:11Z</time></trkpt><trkpt lat="44.373372555553225" lon="10.258741903440729"><ele>1218.0</ele><time>2026-04-18T11:36:14Z</time></trkpt><trkpt lat="44.373315131856444" lon="10.258651271562425"><ele>1218.0</ele><time>2026-04-18T11:36:17Z</time></trkpt><trkpt lat="44.373263443490735" lon="10.258549068016768"><ele>1218.0</ele><time>2026-04-18T11:36:20Z</time></trkpt><trkpt lat="44.37321531509156" lon="10.258476867281153"><ele>1218.0</ele><time>2026-04-18T11:36:22Z</time></trkpt><trkpt lat="44.37319609955799" lon="10.25838749630758"><ele>1218.0</ele><time>2026-04-18T11:36:24Z</time></trkpt><trkpt lat="44.373179225193525" lon="10.258287845730424"><ele>1218.0</ele><time>2026-04-18T11:36:26Z</time></trkpt><trkpt lat="44.37315126751587" lon="10.258190045558731"><ele>1218.0</ele><time>2026-04-18T11:36:29Z</time></trkpt><trkpt lat="44.373123012708795" lon="10.258074161161598"><ele>1219.3333333333333</ele><time>2026-04-18T11:36:32Z</time></trkpt><trkpt lat="44.37305812464862" lon="10.257984591448901"><ele>1220.6666666666667</ele><time>2026-04-18T11:36:35Z</time></trkpt><trkpt lat="44.373009076206415" lon="10.257927632473875"><ele>1222.0</ele><time>2026-04-18T11:36:37Z</time></trkpt><trkpt lat="44.37292687816286" lon="10.257890107566423"><ele>1223.3333333333335</ele><time>2026-04-18T11:36:39.999Z</time></trkpt><trkpt lat="44.37283098812887" lon="10.257870373546785"><ele>1224.6666666666667</ele><time>2026-04-18T11:36:42.999Z</time></trkpt><trkpt lat="44.37276092564758" lon="10.257876526108515"><ele>1226.0</ele><time>2026-04-18T11:36:44.999Z</time></trkpt><trkpt lat="44.37267945769367" lon="10.257886735672521"><ele>1221.6666666666667</ele><time>2026-04-18T11:36:47.999Z</time></trkpt><trkpt lat="44.3726150870984" lon="10.257866937082458"><ele>1217.3333333333335</ele><time>2026-04-18T11:36:50.999Z</time></trkpt><trkpt lat="44.37252517205538" lon="10.257824810565147"><ele>1213.0</ele><time>2026-04-18T11:36:53.999Z</time></trkpt><trkpt lat="44.372463890777034" lon="10.257778016892484"><ele>1208.6666666666667</ele><time>2026-04-18T11:36:55.999Z</time></trkpt><trkpt lat="44.372425148486954" lon="10.25769395593256"><ele>1204.3333333333333</ele><time>2026-04-18T11:36:57.999Z</time></trkpt><trkpt lat="44.37237695976848" lon="10.257581451059542"><ele>1200.0</ele><time>2026-04-18T11:37:00.999Z</time></trkpt><trkpt lat="44.37232584205249" lon="10.257468635869815"><ele>1199.9999999999998</ele><time>2026-04-18T11:37:03.999Z</time></trkpt><trkpt lat="44.37229534356351" lon="10.257378124248252"><ele>1200.0</ele><time>2026-04-18T11:37:05.999Z</time></trkpt><trkpt lat="44.372275594223524" lon="10.257286121178664"><ele>1200.0</ele><time>2026-04-18T11:37:07.999Z</time></trkpt><trkpt lat="44.37225160176012" lon="10.257191302015285"><ele>1200.0</ele><time>2026-04-18T11:37:09.999Z</time></trkpt><trkpt lat="44.372210114479664" lon="10.257095863720574"><ele>1200.0</ele><time>2026-04-18T11:37:12.999Z</time></trkpt><trkpt lat="44.37220574971066" lon="10.257001592153916"><ele>1199.9999999999998</ele><time>2026-04-18T11:37:14.999Z</time></trkpt><trkpt lat="44.372193383812224" lon="10.256911337556586"><ele>1200.0</ele><time>2026-04-18T11:37:17.999Z</time></trkpt><trkpt lat="44.37214645110666" lon="10.25682905654003"><ele>1198.5</ele><time>2026-04-18T11:37:21.999Z</time></trkpt><trkpt lat="44.372062425040156" lon="10.256841285706537"><ele>1197.0</ele><time>2026-04-18T11:37:24.999Z</time></trkpt><trkpt lat="44.37199936478727" lon="10.256886787645355"><ele>1195.5</ele><time>2026-04-18T11:37:27.999Z</time></trkpt><trkpt lat="44.37192591409317" lon="10.256910193242136"><ele>1194.0</ele><time>2026-04-18T11:37:30.999Z</time></trkpt><trkpt lat="44.371850922589296" lon="10.256926021608624"><ele>1192.5</ele><time>2026-04-18T11:37:34.999Z</time></trkpt><trkpt lat="44.37178271487731" lon="10.25692741965726"><ele>1191.0</ele><time>2026-04-18T11:37:38Z</time></trkpt><trkpt lat="44.3716941034425" lon="10.256883949123553"><ele>1191.0</ele><time>2026-04-18T11:37:41Z</time></trkpt><trkpt lat="44.371629641515426" lon="10.25681579887013"><ele>1191.0</ele><time>2026-04-18T11:37:43Z</time></trkpt><trkpt lat="44.371586465564214" lon="10.256750123893841"><ele>1191.0</ele><time>2026-04-18T11:37:45Z</time></trkpt><trkpt lat="44.37149040301564" lon="10.256769994101436"><ele>1191.0</ele><time>2026-04-18T11:37:48Z</time></trkpt><trkpt lat="44.37139416465909" lon="10.256795980050821"><ele>1191.0</ele><time>2026-04-18T11:37:51Z</time></trkpt><trkpt lat="44.371313775031" lon="10.25675259511972"><ele>1191.0</ele><time>2026-04-18T11:37:53Z</time></trkpt><trkpt lat="44.371231500893465" lon="10.256738819179537"><ele>1189.3333333333333</ele><time>2026-04-18T11:37:55Z</time></trkpt><trkpt lat="44.37115664369629" lon="10.256761980177261"><ele>1187.6666666666667</ele><time>2026-04-18T11:37:57Z</time></trkpt><trkpt lat="44.371067961601554" lon="10.256775554310217"><ele>1186.0</ele><time>2026-04-18T11:38:00Z</time></trkpt><trkpt lat="44.371002087855345" lon="10.256778802700339"><ele>1184.3333333333335</ele><time>2026-04-18T11:38:02Z</time></trkpt><trkpt lat="44.37093069707471" lon="10.256823807296062"><ele>1182.6666666666667</ele><time>2026-04-18T11:38:05Z</time></trkpt><trkpt lat="44.37086893376855" lon="10.25689421491373"><ele>1181.0</ele><time>2026-04-18T11:38:08Z</time></trkpt><trkpt lat="44.370818547109685" lon="10.256988960880898"><ele>1181.0</ele><time>2026-04-18T11:38:11Z</time></trkpt><trkpt lat="44.37079203174487" lon="10.257077389436775"><ele>1181.0</ele><time>2026-04-18T11:38:13Z</time></trkpt><trkpt lat="44.370743913618796" lon="10.257140372740835"><ele>1181.0</ele><time>2026-04-18T11:38:16Z</time></trkpt><trkpt lat="44.37067588286121" lon="10.25711477988343"><ele>1181.0</ele><time>2026-04-18T11:38:19Z</time></trkpt><trkpt lat="44.37069220045872" lon="10.25697220888379"><ele>1181.0</ele><time>2026-04-18T11:38:21Z</time></trkpt><trkpt lat="44.37066804040564" lon="10.256879152737177"><ele>1181.0</ele><time>2026-04-18T11:38:22Z</time></trkpt><trkpt lat="44.370645902489144" lon="10.256788242191705"><ele>1181.0</ele><time>2026-04-18T11:38:23Z</time></trkpt><trkpt lat="44.370625290163105" lon="10.256680769434963"><ele>1181.0</ele><time>2026-04-18T11:38:24Z</time></trkpt><trkpt lat="44.37060023604219" lon="10.256547017601976"><ele>1181.0</ele><time>2026-04-18T11:38:25Z</time></trkpt><trkpt lat="44.370551705672604" lon="10.256405885688775"><ele>1181.0</ele><time>2026-04-18T11:38:26Z</time></trkpt><trkpt lat="44.37052115446757" lon="10.256246523514516"><ele>1181.0</ele><time>2026-04-18T11:38:27Z</time></trkpt><trkpt lat="44.37044929229345" lon="10.256119663333681"><ele>1181.0</ele><time>2026-04-18T11:38:28Z</time></trkpt><trkpt lat="44.37037696180572" lon="10.255991658473658"><ele>1180.0</ele><time>2026-04-18T11:38:29Z</time></trkpt><trkpt lat="44.37030108293344" lon="10.255867109514693"><ele>1179.0</ele><time>2026-04-18T11:38:30Z</time></trkpt><trkpt lat="44.37023510719302" lon="10.255736062598773"><ele>1178.0</ele><time>2026-04-18T11:38:31Z</time></trkpt><trkpt lat="44.370157895997735" lon="10.25562232520276"><ele>1177.0</ele><time>2026-04-18T11:38:32Z</time></trkpt><trkpt lat="44.37008059280081" lon="10.255510573651074"><ele>1179.8</ele><time>2026-04-18T11:38:33Z</time></trkpt><trkpt lat="44.36999647952414" lon="10.255415379192275"><ele>1182.6</ele><time>2026-04-18T11:38:34Z</time></trkpt><trkpt lat="44.36993535717885" lon="10.255312383635625"><ele>1185.3999999999999</ele><time>2026-04-18T11:38:35Z</time></trkpt><trkpt lat="44.369917661091215" lon="10.255204015156867"><ele>1188.2</ele><time>2026-04-18T11:38:36Z</time></trkpt><trkpt lat="44.36991214568657" lon="10.25509743344305"><ele>1191.0</ele><time>2026-04-18T11:38:37Z</time></trkpt><trkpt lat="44.369946754605685" lon="10.254972987601484"><ele>1191.0</ele><time>2026-04-18T11:38:38Z</time></trkpt><trkpt lat="44.36999109065765" lon="10.254813762794708"><ele>1191.0</ele><time>2026-04-18T11:38:39Z</time></trkpt><trkpt lat="44.37001770199314" lon="10.254635973691506"><ele>1191.0</ele><time>2026-04-18T11:38:40Z</time></trkpt><trkpt lat="44.37004343167589" lon="10.25446927111245"><ele>1191.0</ele><time>2026-04-18T11:38:41Z</time></trkpt><trkpt lat="44.37004132568071" lon="10.2543105510481"><ele>1193.75</ele><time>2026-04-18T11:38:42Z</time></trkpt><trkpt lat="44.37000336005628" lon="10.254160473054537"><ele>1196.5</ele><time>2026-04-18T11:38:42.999Z</time></trkpt><trkpt lat="44.369943220743124" lon="10.254005418853184"><ele>1199.25</ele><time>2026-04-18T11:38:43.999Z</time></trkpt><trkpt lat="44.36991222404605" lon="10.253830115202257"><ele>1202.0</ele><time>2026-04-18T11:38:44.999Z</time></trkpt><trkpt lat="44.36986940077958" lon="10.253671757177878"><ele>1205.0</ele><time>2026-04-18T11:38:45.999Z</time></trkpt><trkpt lat="44.369828985576625" lon="10.253516503719576"><ele>1208.0</ele><time>2026-04-18T11:38:46.999Z</time></trkpt><trkpt lat="44.36977845422894" lon="10.253370544360216"><ele>1211.0</ele><time>2026-04-18T11:38:47.999Z</time></trkpt><trkpt lat="44.369763001804664" lon="10.25320296008143"><ele>1214.0</ele><time>2026-04-18T11:38:48.999Z</time></trkpt><trkpt lat="44.369748372522764" lon="10.253070001389416"><ele>1215.6000000000001</ele><time>2026-04-18T11:38:49.999Z</time></trkpt><trkpt lat="44.369745170599586" lon="10.252955971038105"><ele>1217.2</ele><time>2026-04-18T11:38:50.999Z</time></trkpt><trkpt lat="44.369825100346816" lon="10.252838892054802"><ele>1218.8000000000002</ele><time>2026-04-18T11:38:52.999Z</time></trkpt><trkpt lat="44.36990376175998" lon="10.252854581787687"><ele>1220.4</ele><time>2026-04-18T11:38:53.999Z</time></trkpt><trkpt lat="44.36996506567053" lon="10.25294429411511"><ele>1222.0</ele><time>2026-04-18T11:38:54.999Z</time></trkpt><trkpt lat="44.36999086836654" lon="10.253094841950135"><ele>1220.4</ele><time>2026-04-18T11:38:55.999Z</time></trkpt><trkpt lat="44.370035005741165" lon="10.25323452036361"><ele>1218.8000000000002</ele><time>2026-04-18T11:38:56.999Z</time></trkpt><trkpt lat="44.370068651585186" lon="10.253401437653908"><ele>1217.2</ele><time>2026-04-18T11:38:57.999Z</time></trkpt><trkpt lat="44.37011105905319" lon="10.253551846546722"><ele>1215.6000000000001</ele><time>2026-04-18T11:38:58.999Z</time></trkpt><trkpt lat="44.37015666260466" lon="10.253672954396457"><ele>1214.0</ele><time>2026-04-18T11:38:59.999Z</time></trkpt><trkpt lat="44.37022679275695" lon="10.253759596693817"><ele>1214.0</ele><time>2026-04-18T11:39:00.999Z</time></trkpt><trkpt lat="44.370345442376006" lon="10.253809517550655"><ele>1214.0</ele><time>2026-04-18T11:39:01.999Z</time></trkpt><trkpt lat="44.37048036194871" lon="10.253832184425985"><ele>1214.0</ele><time>2026-04-18T11:39:02.999Z</time></trkpt><trkpt lat="44.370606436099145" lon="10.253866168873415"><ele>1214.0</ele><time>2026-04-18T11:39:03.999Z</time></trkpt><trkpt lat="44.3707080968586" lon="10.253943933678919"><ele>1215.6000000000001</ele><time>2026-04-18T11:39:04.999Z</time></trkpt><trkpt lat="44.370776491628824" lon="10.254039818051403"><ele>1217.2</ele><time>2026-04-18T11:39:05.999Z</time></trkpt><trkpt lat="44.37080062320721" lon="10.254184640554191"><ele>1218.8000000000002</ele><time>2026-04-18T11:39:06.999Z</time></trkpt><trkpt lat="44.370821785582514" lon="10.254346511246295"><ele>1220.4</ele><time>2026-04-18T11:39:07.999Z</time></trkpt><trkpt lat="44.3708412902174" lon="10.254469761976084"><ele>1222.0</ele><time>2026-04-18T11:39:08.999Z</time></trkpt><trkpt lat="44.37090745160302" lon="10.254574709205862"><ele>1222.0</ele><time>2026-04-18T11:39:09.999Z</time></trkpt><trkpt lat="44.371018002327055" lon="10.254651035024008"><ele>1222.0</ele><time>2026-04-18T11:39:10.999Z</time></trkpt><trkpt lat="44.371147551271534" lon="10.25471464814548"><ele>1222.0</ele><time>2026-04-18T11:39:11.999Z</time></trkpt><trkpt lat="44.37128601750054" lon="10.254752219064885"><ele>1222.0</ele><time>2026-04-18T11:39:12.999Z</time></trkpt><trkpt lat="44.37143527034468" lon="10.254764571514205"><ele>1222.0</ele><time>2026-04-18T11:39:13.999Z</time></trkpt><trkpt lat="44.37158262410526" lon="10.254756061351678"><ele>1222.0</ele><time>2026-04-18T11:39:14.999Z</time></trkpt><trkpt lat="44.37172366836755" lon="10.254792500611998"><ele>1222.0</ele><time>2026-04-18T11:39:15.999Z</time></trkpt><trkpt lat="44.37185281697757" lon="10.25480576042957"><ele>1222.0</ele><time>2026-04-18T11:39:16.999Z</time></trkpt><trkpt lat="44.37196615651109" lon="10.254832629358217"><ele>1222.0</ele><time>2026-04-18T11:39:17.999Z</time></trkpt><trkpt lat="44.372046177508736" lon="10.254835218237341"><ele>1222.0</ele><time>2026-04-18T11:39:18.999Z</time></trkpt><trkpt lat="44.372152967064046" lon="10.254795710145288"><ele>1222.0</ele><time>2026-04-18T11:39:20.999Z</time></trkpt><trkpt lat="44.37221694441738" lon="10.254776950822883"><ele>1222.0</ele><time>2026-04-18T11:39:22.999Z</time></trkpt><trkpt lat="44.37231193070907" lon="10.254731006161759"><ele>1222.0</ele><time>2026-04-18T11:39:41.999Z</time></trkpt><trkpt lat="44.37238020996001" lon="10.254699360847377"><ele>1222.0</ele><time>2026-04-18T11:39:42.999Z</time></trkpt><trkpt lat="44.37249584125583" lon="10.254626208777307"><ele>1225.6666666666665</ele><time>2026-04-18T11:39:45Z</time></trkpt><trkpt lat="44.372575955976544" lon="10.254486602291037"><ele>1229.3333333333333</ele><time>2026-04-18T11:39:47Z</time></trkpt><trkpt lat="44.372606732418916" lon="10.254388205439428"><ele>1233.0</ele><time>2026-04-18T11:39:48Z</time></trkpt><trkpt lat="44.372633310283014" lon="10.25428135252578"><ele>1236.6666666666667</ele><time>2026-04-18T11:39:49Z</time></trkpt><trkpt lat="44.372658268110705" lon="10.254185300867645"><ele>1240.3333333333335</ele><time>2026-04-18T11:39:50Z</time></trkpt><trkpt lat="44.37266703145014" lon="10.254088622667549"><ele>1244.0</ele><time>2026-04-18T11:39:51Z</time></trkpt><trkpt lat="44.372727415120295" lon="10.253957158327342"><ele>1242.8333333333335</ele><time>2026-04-18T11:39:53Z</time></trkpt><trkpt lat="44.37274982002901" lon="10.253841835579115"><ele>1241.6666666666667</ele><time>2026-04-18T11:39:55Z</time></trkpt><trkpt lat="44.372792587419234" lon="10.253725442335845"><ele>1240.5</ele><time>2026-04-18T11:39:57Z</time></trkpt><trkpt lat="44.37282543803221" lon="10.253638165598874"><ele>1239.3333333333333</ele><time>2026-04-18T11:39:58Z</time></trkpt><trkpt lat="44.37286387421068" lon="10.25353572845989"><ele>1238.1666666666665</ele><time>2026-04-18T11:39:59Z</time></trkpt><trkpt lat="44.372908601393924" lon="10.253414099952973"><ele>1237.0</ele><time>2026-04-18T11:40:00Z</time></trkpt><trkpt lat="44.37295683183428" lon="10.253300608236042"><ele>1237.0</ele><time>2026-04-18T11:40:01Z</time></trkpt><trkpt lat="44.37300114278751" lon="10.253196621546214"><ele>1237.0</ele><time>2026-04-18T11:40:02Z</time></trkpt><trkpt lat="44.373050025620344" lon="10.253122814733965"><ele>1237.0</ele><time>2026-04-18T11:40:03Z</time></trkpt><trkpt lat="44.373128328264926" lon="10.253039128900408"><ele>1237.0</ele><time>2026-04-18T11:40:05Z</time></trkpt><trkpt lat="44.3731991036457" lon="10.25296164550814"><ele>1237.0</ele><time>2026-04-18T11:40:07Z</time></trkpt><trkpt lat="44.37325518584918" lon="10.252883356742421"><ele>1237.0</ele><time>2026-04-18T11:40:10Z</time></trkpt><trkpt lat="44.37330549024977" lon="10.252808036748467"><ele>1234.8333333333333</ele><time>2026-04-18T11:44:30Z</time></trkpt><trkpt lat="44.37335303291393" lon="10.252731862528481"><ele>1232.6666666666665</ele><time>2026-04-18T11:44:31Z</time></trkpt><trkpt lat="44.37339901194138" lon="10.252658193331419"><ele>1230.5</ele><time>2026-04-18T11:44:32Z</time></trkpt><trkpt lat="44.37344682867721" lon="10.252574587737227"><ele>1228.3333333333333</ele><time>2026-04-18T11:44:33Z</time></trkpt><trkpt lat="44.373497148633625" lon="10.25246648716673"><ele>1226.1666666666667</ele><time>2026-04-18T11:44:34Z</time></trkpt><trkpt lat="44.37357005299931" lon="10.252348627626597"><ele>1224.0</ele><time>2026-04-18T11:44:35Z</time></trkpt><trkpt lat="44.37364559140202" lon="10.252221899121647"><ele>1224.0</ele><time>2026-04-18T11:44:36Z</time></trkpt><trkpt lat="44.37372908852866" lon="10.252102497032483"><ele>1224.0</ele><time>2026-04-18T11:44:37Z</time></trkpt><trkpt lat="44.37381951024092" lon="10.251982903057035"><ele>1224.0</ele><time>2026-04-18T11:44:38Z</time></trkpt><trkpt lat="44.373912860029215" lon="10.2518892133751"><ele>1224.0</ele><time>2026-04-18T11:44:39Z</time></trkpt><trkpt lat="44.37401439548954" lon="10.251841755655688"><ele>1224.6000000000001</ele><time>2026-04-18T11:44:40Z</time></trkpt><trkpt lat="44.37409560671574" lon="10.251775922489564"><ele>1225.2</ele><time>2026-04-18T11:44:41Z</time></trkpt><trkpt lat="44.3741770888129" lon="10.251734352008075"><ele>1225.8000000000002</ele><time>2026-04-18T11:44:41.999Z</time></trkpt><trkpt lat="44.37427023504007" lon="10.251678229571297"><ele>1226.4</ele><time>2026-04-18T11:44:42.999Z</time></trkpt><trkpt lat="44.374370563562046" lon="10.2516200753611"><ele>1227.0</ele><time>2026-04-18T11:44:43.999Z</time></trkpt><trkpt lat="44.37446675650787" lon="10.251543585937018"><ele>1227.0</ele><time>2026-04-18T11:44:44.999Z</time></trkpt><trkpt lat="44.37456408679381" lon="10.251470012859283"><ele>1227.0</ele><time>2026-04-18T11:44:45.999Z</time></trkpt><trkpt lat="44.37467769504956" lon="10.251398417860255"><ele>1227.0</ele><time>2026-04-18T11:44:46.999Z</time></trkpt><trkpt lat="44.37479100330007" lon="10.251340493651897"><ele>1227.0</ele><time>2026-04-18T11:44:47.999Z</time></trkpt><trkpt lat="44.37489670143182" lon="10.251306399949152"><ele>1225.0</ele><time>2026-04-18T11:44:48.999Z</time></trkpt><trkpt lat="44.374972776108066" lon="10.251283396494403"><ele>1223.0</ele><time>2026-04-18T11:44:49.999Z</time></trkpt><trkpt lat="44.37504007505957" lon="10.251268653214698"><ele>1221.0</ele><time>2026-04-18T11:44:51.999Z</time></trkpt><trkpt lat="44.37510380042057" lon="10.251267886955898"><ele>1219.0</ele><time>2026-04-18T11:44:54.999Z</time></trkpt><trkpt lat="44.375160419907715" lon="10.251225428538955"><ele>1217.0</ele><time>2026-04-18T11:44:58.999Z</time></trkpt><trkpt lat="44.375257733210006" lon="10.251162153483435"><ele>1215.0</ele><time>2026-04-18T11:45:06.999Z</time></trkpt><trkpt lat="44.37533390609733" lon="10.251127644438387"><ele>1215.0</ele><time>2026-04-18T11:45:07.999Z</time></trkpt><trkpt lat="44.37542300379522" lon="10.251082309492505"><ele>1215.0</ele><time>2026-04-18T11:45:08.999Z</time></trkpt><trkpt lat="44.37552921276419" lon="10.250997586174279"><ele>1215.0</ele><time>2026-04-18T11:45:09.999Z</time></trkpt><trkpt lat="44.375635602102825" lon="10.250897894918298"><ele>1215.0</ele><time>2026-04-18T11:45:10.999Z</time></trkpt><trkpt lat="44.37574132592933" lon="10.250795815162512"><ele>1216.25</ele><time>2026-04-18T11:45:11.999Z</time></trkpt><trkpt lat="44.37585122731977" lon="10.250685161820291"><ele>1217.5</ele><time>2026-04-18T11:45:12.999Z</time></trkpt><trkpt lat="44.375948745449556" lon="10.250630900629016"><ele>1218.75</ele><time>2026-04-18T11:45:13.999Z</time></trkpt><trkpt lat="44.37605237516072" lon="10.250563369486798"><ele>1220.0</ele><time>2026-04-18T11:45:14.999Z</time></trkpt><trkpt lat="44.37616660998899" lon="10.250531083612918"><ele>1219.25</ele><time>2026-04-18T11:45:15.999Z</time></trkpt><trkpt lat="44.3762779069811" lon="10.250484499036288"><ele>1218.5</ele><time>2026-04-18T11:45:16.999Z</time></trkpt><trkpt lat="44.376372489745236" lon="10.250397853710153"><ele>1217.75</ele><time>2026-04-18T11:45:17.999Z</time></trkpt><trkpt lat="44.37644496909841" lon="10.250266820015932"><ele>1217.0</ele><time>2026-04-18T11:45:18.999Z</time></trkpt><trkpt lat="44.37652110900223" lon="10.250111944374895"><ele>1217.0</ele><time>2026-04-18T11:45:19.999Z</time></trkpt><trkpt lat="44.3766152101034" lon="10.249985297392987"><ele>1217.0</ele><time>2026-04-18T11:45:20.999Z</time></trkpt><trkpt lat="44.376708610418156" lon="10.24984533901795"><ele>1217.0</ele><time>2026-04-18T11:45:21.999Z</time></trkpt><trkpt lat="44.37679541479742" lon="10.249710333949574"><ele>1217.0</ele><time>2026-04-18T11:45:22.999Z</time></trkpt><trkpt lat="44.376871933129294" lon="10.24959132668122"><ele>1215.75</ele><time>2026-04-18T11:45:23.999Z</time></trkpt><trkpt lat="44.376938733138424" lon="10.249460269250603"><ele>1214.5</ele><time>2026-04-18T11:45:24.999Z</time></trkpt><trkpt lat="44.37702624333814" lon="10.249362798443258"><ele>1213.25</ele><time>2026-04-18T11:45:25.999Z</time></trkpt><trkpt lat="44.37712075497324" lon="10.249278362116332"><ele>1212.0</ele><time>2026-04-18T11:45:26.999Z</time></trkpt><trkpt lat="44.377235873158575" lon="10.249232973652521"><ele>1212.0</ele><time>2026-04-18T11:45:27.999Z</time></trkpt><trkpt lat="44.37736846135051" lon="10.249180362258716"><ele>1212.0</ele><time>2026-04-18T11:45:28.999Z</time></trkpt><trkpt lat="44.37750987124471" lon="10.249175113141673"><ele>1212.0</ele><time>2026-04-18T11:45:29.999Z</time></trkpt><trkpt lat="44.37764549880199" lon="10.249134382560415"><ele>1212.0</ele><time>2026-04-18T11:45:30.999Z</time></trkpt><trkpt lat="44.377765346303484" lon="10.249089108812594"><ele>1212.0</ele><time>2026-04-18T11:45:31.999Z</time></trkpt><trkpt lat="44.37786571215774" lon="10.248962755552034"><ele>1212.0</ele><time>2026-04-18T11:45:32.999Z</time></trkpt><trkpt lat="44.37794568812415" lon="10.248823103441008"><ele>1212.0</ele><time>2026-04-18T11:45:33.999Z</time></trkpt><trkpt lat="44.3780324050928" lon="10.248696284274871"><ele>1212.0</ele><time>2026-04-18T11:45:34.999Z</time></trkpt><trkpt lat="44.378124965591745" lon="10.24858391389734"><ele>1209.0</ele><time>2026-04-18T11:45:35.999Z</time></trkpt><trkpt lat="44.378238615262546" lon="10.248488144374523"><ele>1206.0</ele><time>2026-04-18T11:45:36.999Z</time></trkpt><trkpt lat="44.378364863250496" lon="10.248412400327044"><ele>1203.0</ele><time>2026-04-18T11:45:37.999Z</time></trkpt><trkpt lat="44.37849470531901" lon="10.248326562820763"><ele>1200.0</ele><time>2026-04-18T11:45:38.999Z</time></trkpt><trkpt lat="44.378617676819694" lon="10.24821821903326"><ele>1200.0</ele><time>2026-04-18T11:45:39.999Z</time></trkpt><trkpt lat="44.378753090926864" lon="10.248140743413739"><ele>1200.0</ele><time>2026-04-18T11:45:40.999Z</time></trkpt><trkpt lat="44.3788766064409" lon="10.248043854794702"><ele>1200.0</ele><time>2026-04-18T11:45:41.999Z</time></trkpt><trkpt lat="44.37899497441715" lon="10.247979916018465"><ele>1200.0</ele><time>2026-04-18T11:45:42.999Z</time></trkpt><trkpt lat="44.37910735405017" lon="10.247886710503403"><ele>1197.6</ele><time>2026-04-18T11:45:43.999Z</time></trkpt><trkpt lat="44.37921527431091" lon="10.247826337963717"><ele>1195.2</ele><time>2026-04-18T11:45:44.999Z</time></trkpt><trkpt lat="44.37928080129078" lon="10.24778504120218"><ele>1192.8</ele><time>2026-04-18T11:45:45.999Z</time></trkpt><trkpt lat="44.37934715385097" lon="10.247674895263405"><ele>1190.4</ele><time>2026-04-18T11:45:47.999Z</time></trkpt><trkpt lat="44.37932729918103" lon="10.247567496004386"><ele>1188.0</ele><time>2026-04-18T11:45:48.999Z</time></trkpt><trkpt lat="44.379244265064635" lon="10.247468918569027"><ele>1188.0</ele><time>2026-04-18T11:45:49.999Z</time></trkpt><trkpt lat="44.37910495722914" lon="10.247502659278329"><ele>1188.0</ele><time>2026-04-18T11:45:50.999Z</time></trkpt><trkpt lat="44.37902861067499" lon="10.247446488105213"><ele>1188.0</ele><time>2026-04-18T11:45:51.999Z</time></trkpt><trkpt lat="44.379012629468164" lon="10.247283338301356"><ele>1188.0</ele><time>2026-04-18T11:45:53.999Z</time></trkpt><trkpt lat="44.3790722193366" lon="10.24718012637105"><ele>1188.0</ele><time>2026-04-18T11:45:54.999Z</time></trkpt><trkpt lat="44.37914603942048" lon="10.247025267017836"><ele>1184.25</ele><time>2026-04-18T11:45:55.999Z</time></trkpt><trkpt lat="44.37921399810893" lon="10.246876025732764"><ele>1180.5</ele><time>2026-04-18T11:45:56.999Z</time></trkpt><trkpt lat="44.379281943470964" lon="10.246721510828323"><ele>1176.75</ele><time>2026-04-18T11:45:57.999Z</time></trkpt><trkpt lat="44.37934335884669" lon="10.24654855688848"><ele>1173.0</ele><time>2026-04-18T11:45:58.999Z</time></trkpt><trkpt lat="44.37939920703517" lon="10.246328090027705"><ele>1171.1666666666667</ele><time>2026-04-18T11:45:59.999Z</time></trkpt><trkpt lat="44.37939626284031" lon="10.246191012749703"><ele>1169.3333333333333</ele><time>2026-04-18T11:46:00.999Z</time></trkpt><trkpt lat="44.37942427580532" lon="10.246051214963757"><ele>1167.5</ele><time>2026-04-18T11:46:02Z</time></trkpt><trkpt lat="44.37945515994566" lon="10.24595032077252"><ele>1165.6666666666665</ele><time>2026-04-18T11:46:03Z</time></trkpt><trkpt lat="44.379509677243426" lon="10.245870103798698"><ele>1163.8333333333333</ele><time>2026-04-18T11:46:04Z</time></trkpt><trkpt lat="44.379594319215556" lon="10.245835521859359"><ele>1162.0</ele><time>2026-04-18T11:46:05Z</time></trkpt><trkpt lat="44.37969861771694" lon="10.245798725538798"><ele>1162.0</ele><time>2026-04-18T11:46:06Z</time></trkpt><trkpt lat="44.37981874987987" lon="10.245857641763292"><ele>1162.0</ele><time>2026-04-18T11:46:07Z</time></trkpt><trkpt lat="44.3799358622844" lon="10.24587069385293"><ele>1162.0</ele><time>2026-04-18T11:46:08Z</time></trkpt><trkpt lat="44.38004106094697" lon="10.245894573039175"><ele>1162.0</ele><time>2026-04-18T11:46:09Z</time></trkpt><trkpt lat="44.38013000221105" lon="10.245895658189863"><ele>1162.0</ele><time>2026-04-18T11:46:10Z</time></trkpt><trkpt lat="44.38019763272887" lon="10.245880357440475"><ele>1162.0</ele><time>2026-04-18T11:46:11Z</time></trkpt><trkpt lat="44.380262446176694" lon="10.245726912159823"><ele>1162.0</ele><time>2026-04-18T11:46:13Z</time></trkpt><trkpt lat="44.380159796005934" lon="10.245612615947893"><ele>1162.0</ele><time>2026-04-18T11:46:14Z</time></trkpt><trkpt lat="44.38006299947107" lon="10.245534878543944"><ele>1162.0</ele><time>2026-04-18T11:46:15Z</time></trkpt><trkpt lat="44.379968670185086" lon="10.245424569314572"><ele>1158.8</ele><time>2026-04-18T11:46:16Z</time></trkpt><trkpt lat="44.379869492231364" lon="10.245317253765316"><ele>1155.6</ele><time>2026-04-18T11:46:17Z</time></trkpt><trkpt lat="44.379775447212964" lon="10.24521362402549"><ele>1152.3999999999999</ele><time>2026-04-18T11:46:18Z</time></trkpt><trkpt lat="44.37970462950444" lon="10.245128289887758"><ele>1149.2</ele><time>2026-04-18T11:46:19Z</time></trkpt><trkpt lat="44.37965481043944" lon="10.245060590404838"><ele>1146.0</ele><time>2026-04-18T11:46:20Z</time></trkpt><trkpt lat="44.379684743531726" lon="10.244907047327606"><ele>1146.0</ele><time>2026-04-18T11:46:22Z</time></trkpt><trkpt lat="44.379778774884336" lon="10.244874605812262"><ele>1146.0</ele><time>2026-04-18T11:46:23Z</time></trkpt><trkpt lat="44.379902154215266" lon="10.244918480915606"><ele>1146.0</ele><time>2026-04-18T11:46:24Z</time></trkpt><trkpt lat="44.380045840885344" lon="10.244978110751239"><ele>1146.0</ele><time>2026-04-18T11:46:25Z</time></trkpt><trkpt lat="44.380182406946226" lon="10.245027590822037"><ele>1146.0</ele><time>2026-04-18T11:46:26Z</time></trkpt><trkpt lat="44.38029195452041" lon="10.24506964355575"><ele>1146.0</ele><time>2026-04-18T11:46:27Z</time></trkpt><trkpt lat="44.38040394133877" lon="10.245126900746294"><ele>1146.0</ele><time>2026-04-18T11:46:28Z</time></trkpt><trkpt lat="44.38049446141161" lon="10.245208436316943"><ele>1146.0</ele><time>2026-04-18T11:46:29Z</time></trkpt><trkpt lat="44.38056224038492" lon="10.245322829521987"><ele>1146.0</ele><time>2026-04-18T11:46:30Z</time></trkpt><trkpt lat="44.38060935568664" lon="10.245466966697228"><ele>1145.3999999999999</ele><time>2026-04-18T11:46:31Z</time></trkpt><trkpt lat="44.38064175303782" lon="10.245640051475048"><ele>1144.8</ele><time>2026-04-18T11:46:32Z</time></trkpt><trkpt lat="44.380674600607094" lon="10.24578899824664"><ele>1144.1999999999998</ele><time>2026-04-18T11:46:33Z</time></trkpt><trkpt lat="44.380727740373345" lon="10.245892143698445"><ele>1143.6</ele><time>2026-04-18T11:46:34Z</time></trkpt><trkpt lat="44.38079718628301" lon="10.24593034567062"><ele>1143.0</ele><time>2026-04-18T11:46:35Z</time></trkpt><trkpt lat="44.380886266697196" lon="10.24592091259077"><ele>1143.0</ele><time>2026-04-18T11:46:36Z</time></trkpt><trkpt lat="44.3809905876971" lon="10.245800411930848"><ele>1143.0</ele><time>2026-04-18T11:46:37Z</time></trkpt><trkpt lat="44.381085635053864" lon="10.245688637792622"><ele>1143.0</ele><time>2026-04-18T11:46:38Z</time></trkpt><trkpt lat="44.38118694815349" lon="10.245646697334163"><ele>1143.0</ele><time>2026-04-18T11:46:39Z</time></trkpt><trkpt lat="44.38127828914876" lon="10.245623637264945"><ele>1140.0</ele><time>2026-04-18T11:46:40Z</time></trkpt><trkpt lat="44.381369470770885" lon="10.245728650804631"><ele>1137.0</ele><time>2026-04-18T11:46:41Z</time></trkpt><trkpt lat="44.38146899080761" lon="10.245779118663467"><ele>1134.0</ele><time>2026-04-18T11:46:42Z</time></trkpt><trkpt lat="44.38154119557564" lon="10.245804168419102"><ele>1131.0</ele><time>2026-04-18T11:46:43Z</time></trkpt><trkpt lat="44.38159480626337" lon="10.245739684786855"><ele>1128.0</ele><time>2026-04-18T11:46:44Z</time></trkpt><trkpt lat="44.381610796692094" lon="10.245616702290832"><ele>1125.25</ele><time>2026-04-18T11:46:45Z</time></trkpt><trkpt lat="44.381601252920106" lon="10.24546577601302"><ele>1122.5</ele><time>2026-04-18T11:46:46Z</time></trkpt><trkpt lat="44.381578597822894" lon="10.245288380839984"><ele>1119.75</ele><time>2026-04-18T11:46:47Z</time></trkpt><trkpt lat="44.38155412429237" lon="10.24510298364185"><ele>1117.0</ele><time>2026-04-18T11:46:48Z</time></trkpt><trkpt lat="44.381506342347556" lon="10.244965092173677"><ele>1117.0</ele><time>2026-04-18T11:46:49Z</time></trkpt><trkpt lat="44.38141763716258" lon="10.244899642228418"><ele>1117.0</ele><time>2026-04-18T11:46:50Z</time></trkpt><trkpt lat="44.381326500561876" lon="10.244850753865725"><ele>1117.0</ele><time>2026-04-18T11:46:51Z</time></trkpt><trkpt lat="44.38127221677167" lon="10.244785183792263"><ele>1117.0</ele><time>2026-04-18T11:46:52Z</time></trkpt><trkpt lat="44.381302167200836" lon="10.244686189753391"><ele>1117.0</ele><time>2026-04-18T11:46:53Z</time></trkpt><trkpt lat="44.38137122351155" lon="10.244584025138636"><ele>1117.0</ele><time>2026-04-18T11:46:54Z</time></trkpt><trkpt lat="44.38145391924831" lon="10.244510908920962"><ele>1117.0</ele><time>2026-04-18T11:46:55Z</time></trkpt><trkpt lat="44.38154966928966" lon="10.244499738615737"><ele>1117.0</ele><time>2026-04-18T11:46:56Z</time></trkpt><trkpt lat="44.3816233281133" lon="10.244593331926486"><ele>1117.0</ele><time>2026-04-18T11:46:57Z</time></trkpt><trkpt lat="44.38164539580652" lon="10.244760487695098"><ele>1117.0</ele><time>2026-04-18T11:46:58Z</time></trkpt><trkpt lat="44.38169786377795" lon="10.244914549745026"><ele>1117.0</ele><time>2026-04-18T11:46:59Z</time></trkpt><trkpt lat="44.3817347540031" lon="10.245078488899315"><ele>1117.0</ele><time>2026-04-18T11:47:00Z</time></trkpt><trkpt lat="44.381774854199946" lon="10.245237559238262"><ele>1117.0</ele><time>2026-04-18T11:47:01Z</time></trkpt><trkpt lat="44.381824413619604" lon="10.24538597703433"><ele>1117.0</ele><time>2026-04-18T11:47:02Z</time></trkpt><trkpt lat="44.38189562999214" lon="10.245493705205533"><ele>1117.0</ele><time>2026-04-18T11:47:03Z</time></trkpt><trkpt lat="44.38198880135852" lon="10.2455332067508"><ele>1117.0</ele><time>2026-04-18T11:47:04Z</time></trkpt><trkpt lat="44.382091806535435" lon="10.245504669450595"><ele>1115.2</ele><time>2026-04-18T11:47:05Z</time></trkpt><trkpt lat="44.382195296622555" lon="10.245426407193843"><ele>1113.4</ele><time>2026-04-18T11:47:06Z</time></trkpt><trkpt lat="44.38228541682944" lon="10.24537166059235"><ele>1111.6</ele><time>2026-04-18T11:47:07Z</time></trkpt><trkpt lat="44.3823670262949" lon="10.245410060858056"><ele>1109.8</ele><time>2026-04-18T11:47:08Z</time></trkpt><trkpt lat="44.38241751495823" lon="10.245540874286066"><ele>1108.0</ele><time>2026-04-18T11:47:09Z</time></trkpt><trkpt lat="44.38247320170688" lon="10.245673623505697"><ele>1108.0</ele><time>2026-04-18T11:47:10Z</time></trkpt><trkpt lat="44.38251322638571" lon="10.245826330578959"><ele>1108.0</ele><time>2026-04-18T11:47:11Z</time></trkpt><trkpt lat="44.38256812131584" lon="10.245983283523522"><ele>1108.0</ele><time>2026-04-18T11:47:12Z</time></trkpt><trkpt lat="44.382624426109174" lon="10.24613263315991"><ele>1108.0</ele><time>2026-04-18T11:47:13Z</time></trkpt><trkpt lat="44.38268992157223" lon="10.246251937908928"><ele>1108.0</ele><time>2026-04-18T11:47:14Z</time></trkpt><trkpt lat="44.382788586023146" lon="10.246321631987964"><ele>1108.0</ele><time>2026-04-18T11:47:15Z</time></trkpt><trkpt lat="44.38291580363073" lon="10.24634455337686"><ele>1108.0</ele><time>2026-04-18T11:47:16Z</time></trkpt><trkpt lat="44.38304190476103" lon="10.2463526389794"><ele>1108.0</ele><time>2026-04-18T11:47:17Z</time></trkpt><trkpt lat="44.383167262086296" lon="10.246353569617794"><ele>1104.1666666666665</ele><time>2026-04-18T11:47:18Z</time></trkpt><trkpt lat="44.38328504143068" lon="10.246361686352893"><ele>1100.3333333333333</ele><time>2026-04-18T11:47:19Z</time></trkpt><trkpt lat="44.38339131401973" lon="10.246378621983572"><ele>1096.5</ele><time>2026-04-18T11:47:20Z</time></trkpt><trkpt lat="44.383469920882995" lon="10.24636814612438"><ele>1092.6666666666667</ele><time>2026-04-18T11:47:21Z</time></trkpt><trkpt lat="44.38351913790561" lon="10.24630792526241"><ele>1088.8333333333335</ele><time>2026-04-18T11:47:22Z</time></trkpt><trkpt lat="44.38354626383367" lon="10.246214721972184"><ele>1085.0</ele><time>2026-04-18T11:47:22.999Z</time></trkpt><trkpt lat="44.38349393315896" lon="10.246064274820043"><ele>1085.0</ele><time>2026-04-18T11:47:23.999Z</time></trkpt><trkpt lat="44.3834194999873" lon="10.245910931337134"><ele>1085.0</ele><time>2026-04-18T11:47:24.999Z</time></trkpt><trkpt lat="44.383370582737626" lon="10.245741625622347"><ele>1085.0</ele><time>2026-04-18T11:47:25.999Z</time></trkpt><trkpt lat="44.38330695433355" lon="10.245599804337312"><ele>1085.0</ele><time>2026-04-18T11:47:26.999Z</time></trkpt><trkpt lat="44.38327307903985" lon="10.245432023973331"><ele>1081.0</ele><time>2026-04-18T11:47:27.999Z</time></trkpt><trkpt lat="44.38322507424673" lon="10.245280783872355"><ele>1077.0</ele><time>2026-04-18T11:47:28.999Z</time></trkpt><trkpt lat="44.383154660226026" lon="10.245149134478124"><ele>1073.0</ele><time>2026-04-18T11:47:29.999Z</time></trkpt><trkpt lat="44.38309064288217" lon="10.245019321996065"><ele>1069.0</ele><time>2026-04-18T11:47:30.999Z</time></trkpt><trkpt lat="44.383021312347985" lon="10.24489903765404"><ele>1070.2</ele><time>2026-04-18T11:47:31.999Z</time></trkpt><trkpt lat="44.38295105505174" lon="10.244776025866576"><ele>1071.4</ele><time>2026-04-18T11:47:32.999Z</time></trkpt><trkpt lat="44.38290808778292" lon="10.244637961255558"><ele>1072.6</ele><time>2026-04-18T11:47:33.999Z</time></trkpt><trkpt lat="44.38287706535654" lon="10.244499648725338"><ele>1073.8</ele><time>2026-04-18T11:47:34.999Z</time></trkpt><trkpt lat="44.38284399315248" lon="10.244354468946325"><ele>1075.0</ele><time>2026-04-18T11:47:35.999Z</time></trkpt><trkpt lat="44.38279671828848" lon="10.244218760956576"><ele>1075.0</ele><time>2026-04-18T11:47:36.999Z</time></trkpt><trkpt lat="44.382757938139385" lon="10.244079753414054"><ele>1075.0</ele><time>2026-04-18T11:47:37.999Z</time></trkpt><trkpt lat="44.38271697837252" lon="10.243932719279062"><ele>1075.0</ele><time>2026-04-18T11:47:38.999Z</time></trkpt><trkpt lat="44.3826225082747" lon="10.243832786067992"><ele>1075.0</ele><time>2026-04-18T11:47:39.999Z</time></trkpt><trkpt lat="44.38252490544465" lon="10.24374577431779"><ele>1070.25</ele><time>2026-04-18T11:47:40.999Z</time></trkpt><trkpt lat="44.38244614044629" lon="10.243622337548773"><ele>1065.5</ele><time>2026-04-18T11:47:41.999Z</time></trkpt><trkpt lat="44.382377608615705" lon="10.243489856104917"><ele>1060.75</ele><time>2026-04-18T11:47:42.999Z</time></trkpt><trkpt lat="44.38230477437428" lon="10.24334820871658"><ele>1056.0</ele><time>2026-04-18T11:47:43.999Z</time></trkpt><trkpt lat="44.3822331075439" lon="10.243213118262243"><ele>1059.25</ele><time>2026-04-18T11:47:44.999Z</time></trkpt><trkpt lat="44.3821595371997" lon="10.24307822586263"><ele>1062.5</ele><time>2026-04-18T11:47:45.999Z</time></trkpt><trkpt lat="44.382110863268466" lon="10.242931538672275"><ele>1065.75</ele><time>2026-04-18T11:47:46.999Z</time></trkpt><trkpt lat="44.38207463857214" lon="10.242767755396738"><ele>1069.0</ele><time>2026-04-18T11:47:47.999Z</time></trkpt><trkpt lat="44.382046845301836" lon="10.242596034964713"><ele>1069.0</ele><time>2026-04-18T11:47:48.999Z</time></trkpt><trkpt lat="44.38200887842323" lon="10.24241650579689"><ele>1069.0</ele><time>2026-04-18T11:47:49.999Z</time></trkpt><trkpt lat="44.3819879565712" lon="10.242243738883657"><ele>1069.0</ele><time>2026-04-18T11:47:50.999Z</time></trkpt><trkpt lat="44.3819714499465" lon="10.242083227663608"><ele>1069.0</ele><time>2026-04-18T11:47:51.999Z</time></trkpt><trkpt lat="44.381917363313185" lon="10.241929693884469"><ele>1066.6000000000001</ele><time>2026-04-18T11:47:52.999Z</time></trkpt><trkpt lat="44.38183254678001" lon="10.241814535854667"><ele>1064.2</ele><time>2026-04-18T11:47:53.999Z</time></trkpt><trkpt lat="44.381773085092576" lon="10.241705200935192"><ele>1061.8000000000002</ele><time>2026-04-18T11:47:54.999Z</time></trkpt><trkpt lat="44.38173774086178" lon="10.2415916767342"><ele>1059.4</ele><time>2026-04-18T11:47:55.999Z</time></trkpt><trkpt lat="44.381759780859305" lon="10.241467714827442"><ele>1057.0</ele><time>2026-04-18T11:47:56.999Z</time></trkpt><trkpt lat="44.381782640858994" lon="10.241318933883674"><ele>1052.0</ele><time>2026-04-18T11:47:57.999Z</time></trkpt><trkpt lat="44.38179591124384" lon="10.241168189045647"><ele>1047.0</ele><time>2026-04-18T11:47:58.999Z</time></trkpt><trkpt lat="44.38176057285045" lon="10.241050048270274"><ele>1042.0</ele><time>2026-04-18T11:47:59.999Z</time></trkpt><trkpt lat="44.381675930136275" lon="10.240936324103615"><ele>1037.0</ele><time>2026-04-18T11:48:00.999Z</time></trkpt><trkpt lat="44.38158480510878" lon="10.24079546447842"><ele>1037.0</ele><time>2026-04-18T11:48:01.999Z</time></trkpt><trkpt lat="44.38148351199205" lon="10.24065532619685"><ele>1037.0</ele><time>2026-04-18T11:48:02.999Z</time></trkpt><trkpt lat="44.381391977463075" lon="10.240519525786048"><ele>1037.0</ele><time>2026-04-18T11:48:03.999Z</time></trkpt><trkpt lat="44.38130706861732" lon="10.240378048248662"><ele>1037.0</ele><time>2026-04-18T11:48:04.999Z</time></trkpt><trkpt lat="44.38123626219884" lon="10.240253468243445"><ele>1035.6</ele><time>2026-04-18T11:48:05.999Z</time></trkpt><trkpt lat="44.38118450829062" lon="10.240150726571358"><ele>1034.2</ele><time>2026-04-18T11:48:06.999Z</time></trkpt><trkpt lat="44.38115693315937" lon="10.240063931306564"><ele>1032.8</ele><time>2026-04-18T11:48:08Z</time></trkpt><trkpt lat="44.38115594629148" lon="10.23995573030619"><ele>1031.4</ele><time>2026-04-18T11:48:09Z</time></trkpt><trkpt lat="44.381244231712984" lon="10.239844442204346"><ele>1030.0</ele><time>2026-04-18T11:48:10Z</time></trkpt><trkpt lat="44.38131824950203" lon="10.239692631419828"><ele>1026.0</ele><time>2026-04-18T11:48:11Z</time></trkpt><trkpt lat="44.38139944959852" lon="10.239563747234833"><ele>1022.0</ele><time>2026-04-18T11:48:12Z</time></trkpt><trkpt lat="44.38147067028735" lon="10.239452617404176"><ele>1018.0</ele><time>2026-04-18T11:48:13Z</time></trkpt><trkpt lat="44.38156270057604" lon="10.23939449577931"><ele>1014.0</ele><time>2026-04-18T11:48:14Z</time></trkpt><trkpt lat="44.3816604900513" lon="10.23941920842036"><ele>1010.0</ele><time>2026-04-18T11:48:15Z</time></trkpt><trkpt lat="44.3817356651089" lon="10.239555663328513"><ele>1010.0</ele><time>2026-04-18T11:48:16Z</time></trkpt><trkpt lat="44.38183509380376" lon="10.239677250845068"><ele>1010.0</ele><time>2026-04-18T11:48:17Z</time></trkpt><trkpt lat="44.38191980021144" lon="10.239823209174013"><ele>1010.0</ele><time>2026-04-18T11:48:18Z</time></trkpt><trkpt lat="44.381996889940744" lon="10.239952396642071"><ele>1010.0</ele><time>2026-04-18T11:48:19Z</time></trkpt><trkpt lat="44.38206121205717" lon="10.240078834909372"><ele>1008.4</ele><time>2026-04-18T11:48:20Z</time></trkpt><trkpt lat="44.38210407553067" lon="10.24017691760623"><ele>1006.8</ele><time>2026-04-18T11:48:21Z</time></trkpt><trkpt lat="44.382201064036174" lon="10.240222171774018"><ele>1005.2</ele><time>2026-04-18T11:48:23Z</time></trkpt><trkpt lat="44.38225583042839" lon="10.240171521010762"><ele>1003.6</ele><time>2026-04-18T11:48:24Z</time></trkpt><trkpt lat="44.38223980653079" lon="10.240019233279694"><ele>1002.0</ele><time>2026-04-18T11:48:25Z</time></trkpt><trkpt lat="44.38218565471459" lon="10.239841951423104"><ele>1004.0</ele><time>2026-04-18T11:48:26Z</time></trkpt><trkpt lat="44.38214126394024" lon="10.239652733487913"><ele>1006.0</ele><time>2026-04-18T11:48:27Z</time></trkpt><trkpt lat="44.382111851239316" lon="10.239452084131177"><ele>1008.0</ele><time>2026-04-18T11:48:28Z</time></trkpt><trkpt lat="44.38207986383335" lon="10.239235109734802"><ele>1010.0</ele><time>2026-04-18T11:48:29Z</time></trkpt><trkpt lat="44.382047476883606" lon="10.239040621507757"><ele>1005.75</ele><time>2026-04-18T11:48:30Z</time></trkpt><trkpt lat="44.38201126361767" lon="10.2388566650288"><ele>1001.5</ele><time>2026-04-18T11:48:31Z</time></trkpt><trkpt lat="44.38196961666449" lon="10.238684568094328"><ele>997.25</ele><time>2026-04-18T11:48:32Z</time></trkpt><trkpt lat="44.38189769341084" lon="10.238551878142832"><ele>993.0</ele><time>2026-04-18T11:48:33Z</time></trkpt><trkpt lat="44.38180255158749" lon="10.238426708130545"><ele>993.0</ele><time>2026-04-18T11:48:34Z</time></trkpt><trkpt lat="44.38173898785428" lon="10.238311868934316"><ele>993.0</ele><time>2026-04-18T11:48:35Z</time></trkpt><trkpt lat="44.38171827059489" lon="10.238218938647979"><ele>993.0</ele><time>2026-04-18T11:48:36Z</time></trkpt><trkpt lat="44.38181716702956" lon="10.238090077589794"><ele>993.0</ele><time>2026-04-18T11:48:38Z</time></trkpt><trkpt lat="44.38194738761822" lon="10.238124710815674"><ele>993.0</ele><time>2026-04-18T11:48:39Z</time></trkpt><trkpt lat="44.38206618458549" lon="10.238090704004662"><ele>990.2</ele><time>2026-04-18T11:48:40Z</time></trkpt><trkpt lat="44.38216380764858" lon="10.238045141772101"><ele>987.4</ele><time>2026-04-18T11:48:41Z</time></trkpt><trkpt lat="44.382242954277054" lon="10.237971617660714"><ele>984.6000000000001</ele><time>2026-04-18T11:48:42Z</time></trkpt><trkpt lat="44.38231164087965" lon="10.23789077052414"><ele>981.8000000000001</ele><time>2026-04-18T11:48:43Z</time></trkpt><trkpt lat="44.38237738577334" lon="10.23780497853625"><ele>979.0</ele><time>2026-04-18T11:48:44Z</time></trkpt><trkpt lat="44.38244208072239" lon="10.237712155061931"><ele>978.2</ele><time>2026-04-18T11:48:45Z</time></trkpt><trkpt lat="44.38251199510895" lon="10.237626718051057"><ele>977.4000000000001</ele><time>2026-04-18T11:48:46Z</time></trkpt><trkpt lat="44.38259056593948" lon="10.237596785408558"><ele>976.6</ele><time>2026-04-18T11:48:47Z</time></trkpt><trkpt lat="44.38265620526633" lon="10.237666242898193"><ele>975.8</ele><time>2026-04-18T11:48:48Z</time></trkpt><trkpt lat="44.3826561931399" lon="10.2378129883044"><ele>975.0</ele><time>2026-04-18T11:48:49Z</time></trkpt><trkpt lat="44.38265919804711" lon="10.237971194866878"><ele>975.0</ele><time>2026-04-18T11:48:50Z</time></trkpt><trkpt lat="44.38265464868862" lon="10.23813315151024"><ele>975.0</ele><time>2026-04-18T11:48:51Z</time></trkpt><trkpt lat="44.38266805062705" lon="10.238284954497939"><ele>975.0</ele><time>2026-04-18T11:48:52Z</time></trkpt><trkpt lat="44.38269247378231" lon="10.238429788967576"><ele>975.0</ele><time>2026-04-18T11:48:53Z</time></trkpt><trkpt lat="44.382736814238754" lon="10.23854904758322"><ele>975.0</ele><time>2026-04-18T11:48:54Z</time></trkpt><trkpt lat="44.3827845819988" lon="10.238638486060193"><ele>976.0</ele><time>2026-04-18T11:48:55Z</time></trkpt><trkpt lat="44.38284756095515" lon="10.238706828612639"><ele>977.0</ele><time>2026-04-18T11:48:56Z</time></trkpt><trkpt lat="44.38290784029568" lon="10.238765581555077"><ele>978.0</ele><time>2026-04-18T11:48:57Z</time></trkpt><trkpt lat="44.382975292611235" lon="10.238792985944583"><ele>979.0</ele><time>2026-04-18T11:48:58Z</time></trkpt><trkpt lat="44.383047359922415" lon="10.238778359434518"><ele>980.0</ele><time>2026-04-18T11:48:59Z</time></trkpt><trkpt lat="44.38312894508533" lon="10.238711233737204"><ele>981.0</ele><time>2026-04-18T11:49:01Z</time></trkpt><trkpt lat="44.38316519331384" lon="10.238605516458753"><ele>978.1666666666666</ele><time>2026-04-18T11:49:03Z</time></trkpt><trkpt lat="44.383228541982064" lon="10.238479706871875"><ele>975.3333333333333</ele><time>2026-04-18T11:49:05Z</time></trkpt><trkpt lat="44.38324227320492" lon="10.23836579079745"><ele>972.5</ele><time>2026-04-18T11:49:06Z</time></trkpt><trkpt lat="44.38326850447369" lon="10.238259416573356"><ele>969.6666666666666</ele><time>2026-04-18T11:49:07Z</time></trkpt><trkpt lat="44.383306184339645" lon="10.238169280862415"><ele>966.8333333333333</ele><time>2026-04-18T11:49:08Z</time></trkpt><trkpt lat="44.383326309990025" lon="10.238077309801415"><ele>964.0</ele><time>2026-04-18T11:49:09Z</time></trkpt><trkpt lat="44.38332688293051" lon="10.237978514638701"><ele>964.0</ele><time>2026-04-18T11:49:10Z</time></trkpt><trkpt lat="44.38334238631864" lon="10.237886998202042"><ele>964.0000000000001</ele><time>2026-04-18T11:49:11Z</time></trkpt><trkpt lat="44.38334670833201" lon="10.237790124044635"><ele>964.0</ele><time>2026-04-18T11:49:12Z</time></trkpt><trkpt lat="44.38334895781144" lon="10.237694466506985"><ele>964.0</ele><time>2026-04-18T11:49:13Z</time></trkpt><trkpt lat="44.383343944228514" lon="10.237596553898525"><ele>964.0000000000001</ele><time>2026-04-18T11:49:14Z</time></trkpt><trkpt lat="44.38332265445568" lon="10.237486149547935"><ele>964.0</ele><time>2026-04-18T11:49:15Z</time></trkpt><trkpt lat="44.38330410234763" lon="10.237365592734404"><ele>964.0</ele><time>2026-04-18T11:49:16Z</time></trkpt><trkpt lat="44.383260381928054" lon="10.237241764740187"><ele>963.4000000000001</ele><time>2026-04-18T11:49:17Z</time></trkpt><trkpt lat="44.38319883724696" lon="10.23712612068863"><ele>962.8000000000001</ele><time>2026-04-18T11:49:18Z</time></trkpt><trkpt lat="44.38314260974041" lon="10.237009913933822"><ele>962.1999999999999</ele><time>2026-04-18T11:49:19Z</time></trkpt><trkpt lat="44.38306830790432" lon="10.236916172373334"><ele>961.5999999999999</ele><time>2026-04-18T11:49:20Z</time></trkpt><trkpt lat="44.38297602350541" lon="10.236844874764316"><ele>961.0</ele><time>2026-04-18T11:49:21Z</time></trkpt><trkpt lat="44.382874061856974" lon="10.236768869449374"><ele>961.0</ele><time>2026-04-18T11:49:22Z</time></trkpt><trkpt lat="44.38276390107423" lon="10.236717736253816"><ele>960.9999999999999</ele><time>2026-04-18T11:49:23Z</time></trkpt><trkpt lat="44.382671805510086" lon="10.236645300850306"><ele>960.9999999999999</ele><time>2026-04-18T11:49:24Z</time></trkpt><trkpt lat="44.38259588910284" lon="10.236536267913246"><ele>961.0</ele><time>2026-04-18T11:49:25Z</time></trkpt><trkpt lat="44.38253335804985" lon="10.236408185224212"><ele>961.0</ele><time>2026-04-18T11:49:26Z</time></trkpt><trkpt lat="44.382464147022795" lon="10.236280097551022"><ele>956.0</ele><time>2026-04-18T11:49:27Z</time></trkpt><trkpt lat="44.38237888442371" lon="10.236165171542307"><ele>951.0</ele><time>2026-04-18T11:49:28Z</time></trkpt><trkpt lat="44.382274557269774" lon="10.236077649673131"><ele>946.0</ele><time>2026-04-18T11:49:29Z</time></trkpt><trkpt lat="44.38215032591471" lon="10.23604421851919"><ele>941.0</ele><time>2026-04-18T11:49:30Z</time></trkpt><trkpt lat="44.38202278725405" lon="10.236032742999171"><ele>940.0</ele><time>2026-04-18T11:49:31Z</time></trkpt><trkpt lat="44.38188906023812" lon="10.236041693669387"><ele>938.9999999999999</ele><time>2026-04-18T11:49:32Z</time></trkpt><trkpt lat="44.38177226469507" lon="10.23602238376601"><ele>937.9999999999999</ele><time>2026-04-18T11:49:33Z</time></trkpt><trkpt lat="44.38168156250714" lon="10.23602095484467"><ele>937.0</ele><time>2026-04-18T11:49:34Z</time></trkpt><trkpt lat="44.38161560204395" lon="10.236009956655483"><ele>936.0</ele><time>2026-04-18T11:49:35Z</time></trkpt><trkpt lat="44.38157182972253" lon="10.235874772383685"><ele>936.0</ele><time>2026-04-18T11:49:37Z</time></trkpt><trkpt lat="44.381655311245204" lon="10.235789122815554"><ele>936.0</ele><time>2026-04-18T11:49:38Z</time></trkpt><trkpt lat="44.38175790251079" lon="10.235754931880997"><ele>936.0</ele><time>2026-04-18T11:49:39Z</time></trkpt><trkpt lat="44.381885999709716" lon="10.235678966661276"><ele>936.0</ele><time>2026-04-18T11:49:40Z</time></trkpt><trkpt lat="44.38202351645892" lon="10.235620686901692"><ele>931.0</ele><time>2026-04-18T11:49:41Z</time></trkpt><trkpt lat="44.382159281292125" lon="10.23557645339612"><ele>926.0</ele><time>2026-04-18T11:49:42Z</time></trkpt><trkpt lat="44.38229360690254" lon="10.235561675764693"><ele>921.0</ele><time>2026-04-18T11:49:43Z</time></trkpt><trkpt lat="44.38243256912685" lon="10.235542109654647"><ele>916.0</ele><time>2026-04-18T11:49:44Z</time></trkpt><trkpt lat="44.38257897356082" lon="10.235540344926187"><ele>916.0</ele><time>2026-04-18T11:49:45Z</time></trkpt><trkpt lat="44.38272697114816" lon="10.235556912405162"><ele>916.0</ele><time>2026-04-18T11:49:46Z</time></trkpt><trkpt lat="44.38286227695644" lon="10.235574309995227"><ele>916.0</ele><time>2026-04-18T11:49:46.999Z</time></trkpt><trkpt lat="44.38299189745871" lon="10.235585441762984"><ele>916.0</ele><time>2026-04-18T11:49:47.999Z</time></trkpt><trkpt lat="44.38312056203028" lon="10.235584875360603"><ele>915.25</ele><time>2026-04-18T11:49:48.999Z</time></trkpt><trkpt lat="44.3832514340126" lon="10.235569636957706"><ele>914.5</ele><time>2026-04-18T11:49:49.999Z</time></trkpt><trkpt lat="44.383380523644895" lon="10.235548334440118"><ele>913.75</ele><time>2026-04-18T11:49:50.999Z</time></trkpt><trkpt lat="44.38351035591725" lon="10.23551114703041"><ele>913.0</ele><time>2026-04-18T11:49:51.999Z</time></trkpt><trkpt lat="44.383609239855964" lon="10.235477049417307"><ele>912.9999999999999</ele><time>2026-04-18T11:49:52.999Z</time></trkpt><trkpt lat="44.383683164953" lon="10.235459962740858"><ele>913.0</ele><time>2026-04-18T11:49:53.999Z</time></trkpt><trkpt lat="44.383785920421985" lon="10.23546295462264"><ele>913.0</ele><time>2026-04-18T11:49:55.999Z</time></trkpt><trkpt lat="44.383861679852025" lon="10.235479397516135"><ele>913.0</ele><time>2026-04-18T11:49:57.999Z</time></trkpt><trkpt lat="44.3839346557342" lon="10.23543829678704"><ele>912.9999999999999</ele><time>2026-04-18T11:50:00.999Z</time></trkpt><trkpt lat="44.38385688830323" lon="10.235464863053574"><ele>913.0</ele><time>2026-04-18T11:50:41Z</time></trkpt><trkpt lat="44.38377633271606" lon="10.235472696190318"><ele>912.9999999999999</ele><time>2026-04-18T11:50:42Z</time></trkpt><trkpt lat="44.3837101884482" lon="10.235473336325592"><ele>913.0</ele><time>2026-04-18T11:50:43Z</time></trkpt><trkpt lat="44.383642929343054" lon="10.235482678013064"><ele>913.0</ele><time>2026-04-18T11:50:49Z</time></trkpt><trkpt lat="44.383729361790216" lon="10.2355319972021"><ele>913.0</ele><time>2026-04-18T11:50:53Z</time></trkpt><trkpt lat="44.38382854868426" lon="10.235527400675004"><ele>912.9999999999999</ele><time>2026-04-18T11:50:55Z</time></trkpt><trkpt lat="44.383914010776216" lon="10.235521856279963"><ele>913.0</ele><time>2026-04-18T11:50:57Z</time></trkpt><trkpt lat="44.38398602346188" lon="10.235517184404667"><ele>912.6666666666666</ele><time>2026-04-18T11:50:59Z</time></trkpt><trkpt lat="44.38406242100685" lon="10.235469731937561"><ele>912.3333333333333</ele><time>2026-04-18T11:51:02Z</time></trkpt><trkpt lat="44.38417740637636" lon="10.235901281025782"><ele>912.0</ele><time>2026-04-18T11:51:03Z</time></trkpt><trkpt lat="44.38423479652406" lon="10.23597992135685"><ele>913.5714285714286</ele><time>2026-04-18T11:51:05Z</time></trkpt><trkpt lat="44.384287525679575" lon="10.236056348596913"><ele>915.1428571428571</ele><time>2026-04-18T11:51:07Z</time></trkpt><trkpt lat="44.38433025198303" lon="10.23612395359874"><ele>916.7142857142857</ele><time>2026-04-18T11:51:10Z</time></trkpt><trkpt lat="44.38432866907646" lon="10.236214138542307"><ele>918.2857142857142</ele><time>2026-04-18T11:51:20Z</time></trkpt><trkpt lat="44.38435926663195" lon="10.236128930193752"><ele>919.8571428571429</ele><time>2026-04-18T11:51:32Z</time></trkpt><trkpt lat="44.38430520578735" lon="10.236066898436823"><ele>921.4285714285713</ele><time>2026-04-18T11:51:35Z</time></trkpt><trkpt lat="44.384242463574836" lon="10.235972428444486"><ele>923.0</ele><time>2026-04-18T11:51:37Z</time></trkpt><trkpt lat="44.38419774054364" lon="10.235906687863801"><ele>923.0</ele><time>2026-04-18T11:51:38Z</time></trkpt><trkpt lat="44.38411731680442" lon="10.23582433510796"><ele>923.0</ele><time>2026-04-18T11:51:40Z</time></trkpt><trkpt lat="44.38401340930992" lon="10.235759718064076"><ele>923.0</ele><time>2026-04-18T11:51:42Z</time></trkpt><trkpt lat="44.383900361701926" lon="10.235680260136432"><ele>923.0</ele><time>2026-04-18T11:51:44Z</time></trkpt><trkpt lat="44.3838382109226" lon="10.235641457600574"><ele>923.0</ele><time>2026-04-18T11:51:45Z</time></trkpt><trkpt lat="44.38372358732101" lon="10.235427646560986"><ele>921.5714285714286</ele><time>2026-04-18T11:51:47Z</time></trkpt><trkpt lat="44.3836393088855" lon="10.235429279417959"><ele>920.1428571428571</ele><time>2026-04-18T11:51:49Z</time></trkpt><trkpt lat="44.383704195383885" lon="10.235427515731098"><ele>918.7142857142857</ele><time>2026-04-18T11:51:53.999Z</time></trkpt><trkpt lat="44.38378381229518" lon="10.23542647973468"><ele>917.2857142857142</ele><time>2026-04-18T11:51:54.999Z</time></trkpt><trkpt lat="44.38386817219234" lon="10.235420264598845"><ele>915.8571428571429</ele><time>2026-04-18T11:51:55.999Z</time></trkpt><trkpt lat="44.3839292969333" lon="10.235394425667849"><ele>914.4285714285713</ele><time>2026-04-18T11:51:56.999Z</time></trkpt><trkpt lat="44.38398768042258" lon="10.23535561297698"><ele>912.9999999999999</ele><time>2026-04-18T11:51:57.999Z</time></trkpt><trkpt lat="44.38403410606754" lon="10.235274680687331"><ele>912.9999999999999</ele><time>2026-04-18T11:51:58.999Z</time></trkpt><trkpt lat="44.38408172772809" lon="10.235181817880774"><ele>913.0</ele><time>2026-04-18T11:51:59.999Z</time></trkpt><trkpt lat="44.38412469787435" lon="10.235088125704296"><ele>913.0</ele><time>2026-04-18T11:52:00.999Z</time></trkpt><trkpt lat="44.38410314237753" lon="10.234980968330461"><ele>913.0</ele><time>2026-04-18T11:52:01.999Z</time></trkpt><trkpt lat="44.38403283440768" lon="10.234902706223586"><ele>912.9999999999999</ele><time>2026-04-18T11:52:02.999Z</time></trkpt><trkpt lat="44.383928038714714" lon="10.23486062616338"><ele>913.0</ele><time>2026-04-18T11:52:03.999Z</time></trkpt><trkpt lat="44.38380401873016" lon="10.234838204989702"><ele>908.5</ele><time>2026-04-18T11:52:04.999Z</time></trkpt><trkpt lat="44.38368801512869" lon="10.234793888639846"><ele>904.0</ele><time>2026-04-18T11:52:05.999Z</time></trkpt><trkpt lat="44.38358166623844" lon="10.234729015615287"><ele>899.5</ele><time>2026-04-18T11:52:06.999Z</time></trkpt><trkpt lat="44.383477069820884" lon="10.234666251810099"><ele>895.0</ele><time>2026-04-18T11:52:07.999Z</time></trkpt><trkpt lat="44.38337279298461" lon="10.234611240997657"><ele>895.0</ele><time>2026-04-18T11:52:08.999Z</time></trkpt><trkpt lat="44.38326398017994" lon="10.234562761615248"><ele>895.0</ele><time>2026-04-18T11:52:09.999Z</time></trkpt><trkpt lat="44.383154961143774" lon="10.234520611381598"><ele>895.0</ele><time>2026-04-18T11:52:10.999Z</time></trkpt><trkpt lat="44.38304495844042" lon="10.234480552006072"><ele>895.0</ele><time>2026-04-18T11:52:11.999Z</time></trkpt><trkpt lat="44.38293909238309" lon="10.234437654504802"><ele>894.75</ele><time>2026-04-18T11:52:12.999Z</time></trkpt><trkpt lat="44.38283612145614" lon="10.234385442300656"><ele>894.5</ele><time>2026-04-18T11:52:13.999Z</time></trkpt><trkpt lat="44.38272278919712" lon="10.23432266369916"><ele>894.25</ele><time>2026-04-18T11:52:14.999Z</time></trkpt><trkpt lat="44.382594619268346" lon="10.234271706882353"><ele>894.0</ele><time>2026-04-18T11:52:15.999Z</time></trkpt><trkpt lat="44.38246567027624" lon="10.234221829501953"><ele>894.0</ele><time>2026-04-18T11:52:16.999Z</time></trkpt><trkpt lat="44.382349005032026" lon="10.234174223574561"><ele>894.0</ele><time>2026-04-18T11:52:17.999Z</time></trkpt><trkpt lat="44.38221934309594" lon="10.234145747585611"><ele>894.0</ele><time>2026-04-18T11:52:18.999Z</time></trkpt><trkpt lat="44.38210238097349" lon="10.234159886205683"><ele>894.0</ele><time>2026-04-18T11:52:20Z</time></trkpt><trkpt lat="44.381972393865176" lon="10.234214642086824"><ele>890.5</ele><time>2026-04-18T11:52:21Z</time></trkpt><trkpt lat="44.38184058489616" lon="10.234278581643453"><ele>887.0</ele><time>2026-04-18T11:52:22Z</time></trkpt><trkpt lat="44.38172430318262" lon="10.234366324167912"><ele>883.5</ele><time>2026-04-18T11:52:23Z</time></trkpt><trkpt lat="44.38160335774587" lon="10.234490241341827"><ele>880.0</ele><time>2026-04-18T11:52:24Z</time></trkpt><trkpt lat="44.381489269341245" lon="10.234626370785001"><ele>880.0</ele><time>2026-04-18T11:52:25Z</time></trkpt><trkpt lat="44.381376072903365" lon="10.234743321480533"><ele>880.0</ele><time>2026-04-18T11:52:26Z</time></trkpt><trkpt lat="44.381258696171535" lon="10.234840059820867"><ele>880.0</ele><time>2026-04-18T11:52:27Z</time></trkpt><trkpt lat="44.381127560953736" lon="10.234925922951213"><ele>880.0</ele><time>2026-04-18T11:52:28Z</time></trkpt><trkpt lat="44.38099074032553" lon="10.23499053934068"><ele>880.25</ele><time>2026-04-18T11:52:29Z</time></trkpt><trkpt lat="44.380857867686" lon="10.2350441819368"><ele>880.5</ele><time>2026-04-18T11:52:30Z</time></trkpt><trkpt lat="44.38073604362998" lon="10.235105064025129"><ele>880.75</ele><time>2026-04-18T11:52:31Z</time></trkpt><trkpt lat="44.380613398130954" lon="10.235195543567057"><ele>881.0</ele><time>2026-04-18T11:52:32Z</time></trkpt><trkpt lat="44.38049499769882" lon="10.235309499122609"><ele>879.0</ele><time>2026-04-18T11:52:33Z</time></trkpt><trkpt lat="44.38037025149139" lon="10.235415381700433"><ele>877.0</ele><time>2026-04-18T11:52:34Z</time></trkpt><trkpt lat="44.38024482405172" lon="10.235486009173536"><ele>875.0</ele><time>2026-04-18T11:52:35Z</time></trkpt><trkpt lat="44.38011183872949" lon="10.23546526834674"><ele>873.0</ele><time>2026-04-18T11:52:36Z</time></trkpt><trkpt lat="44.379994398873926" lon="10.235494879073993"><ele>873.0</ele><time>2026-04-18T11:52:37Z</time></trkpt><trkpt lat="44.37989026942085" lon="10.235521606812762"><ele>873.0</ele><time>2026-04-18T11:52:38Z</time></trkpt><trkpt lat="44.37979766252569" lon="10.235511384458167"><ele>873.0</ele><time>2026-04-18T11:52:39Z</time></trkpt><trkpt lat="44.37974191998449" lon="10.235468208656442"><ele>873.0</ele><time>2026-04-18T11:52:40Z</time></trkpt><trkpt lat="44.37968984984327" lon="10.235390432584554"><ele>873.0</ele><time>2026-04-18T11:52:42Z</time></trkpt><trkpt lat="44.37961431406488" lon="10.235306533800856"><ele>873.0</ele><time>2026-04-18T11:52:44Z</time></trkpt><trkpt lat="44.37959970048848" lon="10.23514672924084"><ele>873.0</ele><time>2026-04-18T11:52:46Z</time></trkpt><trkpt lat="44.379636685088634" lon="10.235043901690085"><ele>873.0</ele><time>2026-04-18T11:52:47Z</time></trkpt><trkpt lat="44.37971650560925" lon="10.234911814710548"><ele>873.0</ele><time>2026-04-18T11:52:48Z</time></trkpt><trkpt lat="44.37978569490204" lon="10.23474002041762"><ele>873.0</ele><time>2026-04-18T11:52:49Z</time></trkpt><trkpt lat="44.37984671425881" lon="10.23455397626119"><ele>874.0</ele><time>2026-04-18T11:52:50Z</time></trkpt><trkpt lat="44.37987275305184" lon="10.234332430486685"><ele>875.0</ele><time>2026-04-18T11:52:51Z</time></trkpt><trkpt lat="44.37988050814016" lon="10.234083723004993"><ele>876.0</ele><time>2026-04-18T11:52:52Z</time></trkpt><trkpt lat="44.379913854569786" lon="10.23389154336211"><ele>878.25</ele><time>2026-04-18T11:52:53Z</time></trkpt><trkpt lat="44.3799353079991" lon="10.233718118512956"><ele>880.5</ele><time>2026-04-18T11:52:54Z</time></trkpt><trkpt lat="44.379991368238166" lon="10.233540868376227"><ele>882.75</ele><time>2026-04-18T11:52:55Z</time></trkpt><trkpt lat="44.38007663882913" lon="10.233360396859162"><ele>885.0</ele><time>2026-04-18T11:52:56Z</time></trkpt><trkpt lat="44.38017853311624" lon="10.233154442743412"><ele>887.0</ele><time>2026-04-18T11:52:57Z</time></trkpt><trkpt lat="44.38029589904613" lon="10.232978112682453"><ele>889.0</ele><time>2026-04-18T11:52:58Z</time></trkpt><trkpt lat="44.38040594833512" lon="10.23280356237116"><ele>891.0</ele><time>2026-04-18T11:52:59Z</time></trkpt><trkpt lat="44.38051001069367" lon="10.23262427771982"><ele>882.6666666666667</ele><time>2026-04-18T11:53:00Z</time></trkpt><trkpt lat="44.380599223441145" lon="10.232432924737541"><ele>874.3333333333334</ele><time>2026-04-18T11:53:01Z</time></trkpt><trkpt lat="44.380671216864144" lon="10.232209545601856"><ele>866.0</ele><time>2026-04-18T11:53:02Z</time></trkpt><trkpt lat="44.38072198361654" lon="10.231999036728881"><ele>866.0</ele><time>2026-04-18T11:53:03Z</time></trkpt><trkpt lat="44.38076015410643" lon="10.231829428366096"><ele>866.0</ele><time>2026-04-18T11:53:04Z</time></trkpt><trkpt lat="44.38077042995082" lon="10.231674144158076"><ele>866.0</ele><time>2026-04-18T11:53:05Z</time></trkpt><trkpt lat="44.38075445298353" lon="10.231513287158583"><ele>866.0</ele><time>2026-04-18T11:53:06Z</time></trkpt><trkpt lat="44.38075909676691" lon="10.23131674772079"><ele>866.0</ele><time>2026-04-18T11:53:07Z</time></trkpt><trkpt lat="44.38076102102831" lon="10.23110116044864"><ele>866.0</ele><time>2026-04-18T11:53:08Z</time></trkpt><trkpt lat="44.38077446839547" lon="10.230878228458355"><ele>866.0</ele><time>2026-04-18T11:53:09Z</time></trkpt><trkpt lat="44.38080101678184" lon="10.230661628767223"><ele>865.3333333333334</ele><time>2026-04-18T11:53:10Z</time></trkpt><trkpt lat="44.38083605149542" lon="10.230447650051264"><ele>864.6666666666667</ele><time>2026-04-18T11:53:11Z</time></trkpt><trkpt lat="44.38087178508265" lon="10.23023470989328"><ele>864.0</ele><time>2026-04-18T11:53:12Z</time></trkpt><trkpt lat="44.38090879695168" lon="10.23003895835961"><ele>864.0</ele><time>2026-04-18T11:53:13Z</time></trkpt><trkpt lat="44.38095137557431" lon="10.229868058450867"><ele>864.0</ele><time>2026-04-18T11:53:14Z</time></trkpt><trkpt lat="44.38103196858078" lon="10.229713735029067"><ele>864.0</ele><time>2026-04-18T11:53:15Z</time></trkpt><trkpt lat="44.38113462111978" lon="10.229573530986512"><ele>864.0</ele><time>2026-04-18T11:53:16Z</time></trkpt><trkpt lat="44.38122693430777" lon="10.229423241385419"><ele>863.25</ele><time>2026-04-18T11:53:17Z</time></trkpt><trkpt lat="44.38131109739255" lon="10.22929582699536"><ele>862.5</ele><time>2026-04-18T11:53:18Z</time></trkpt><trkpt lat="44.381364302792306" lon="10.229125625988766"><ele>861.75</ele><time>2026-04-18T11:53:19Z</time></trkpt><trkpt lat="44.3813765389039" lon="10.22894310394775"><ele>861.0</ele><time>2026-04-18T11:53:20Z</time></trkpt><trkpt lat="44.38135240431197" lon="10.228755290621306"><ele>858.75</ele><time>2026-04-18T11:53:21Z</time></trkpt><trkpt lat="44.38129569307787" lon="10.228587334748159"><ele>856.5</ele><time>2026-04-18T11:53:22Z</time></trkpt><trkpt lat="44.38120116900738" lon="10.228424991337214"><ele>854.25</ele><time>2026-04-18T11:53:23Z</time></trkpt><trkpt lat="44.38108440712217" lon="10.228265910429839"><ele>852.0</ele><time>2026-04-18T11:53:24Z</time></trkpt><trkpt lat="44.38097890074592" lon="10.228118393825131"><ele>848.75</ele><time>2026-04-18T11:53:25Z</time></trkpt><trkpt lat="44.38088027824109" lon="10.22797647200211"><ele>845.5</ele><time>2026-04-18T11:53:26Z</time></trkpt><trkpt lat="44.380787227056686" lon="10.227835500285543"><ele>842.25</ele><time>2026-04-18T11:53:27Z</time></trkpt><trkpt lat="44.38067865417186" lon="10.227736918015134"><ele>839.0</ele><time>2026-04-18T11:53:28Z</time></trkpt><trkpt lat="44.380556294816856" lon="10.22765578830253"><ele>837.75</ele><time>2026-04-18T11:53:29Z</time></trkpt><trkpt lat="44.38040657268681" lon="10.22761253280658"><ele>836.5</ele><time>2026-04-18T11:53:30Z</time></trkpt><trkpt lat="44.38025598348297" lon="10.227549753809196"><ele>835.25</ele><time>2026-04-18T11:53:31Z</time></trkpt><trkpt lat="44.38012748163337" lon="10.227500994770523"><ele>834.0</ele><time>2026-04-18T11:53:32Z</time></trkpt><trkpt lat="44.38002879584527" lon="10.227441367402808"><ele>834.0</ele><time>2026-04-18T11:53:33Z</time></trkpt><trkpt lat="44.37999199159565" lon="10.227358547332145"><ele>834.0</ele><time>2026-04-18T11:53:34Z</time></trkpt><trkpt lat="44.38000779638459" lon="10.227265138965116"><ele>834.0</ele><time>2026-04-18T11:53:35Z</time></trkpt><trkpt lat="44.38003953180279" lon="10.22716420844025"><ele>834.0</ele><time>2026-04-18T11:53:36Z</time></trkpt><trkpt lat="44.38011432988999" lon="10.227056218839543"><ele>834.0</ele><time>2026-04-18T11:53:37Z</time></trkpt><trkpt lat="44.38021786480091" lon="10.226964716325094"><ele>834.0</ele><time>2026-04-18T11:53:38Z</time></trkpt><trkpt lat="44.38035945576271" lon="10.22691620383379"><ele>831.25</ele><time>2026-04-18T11:53:39Z</time></trkpt><trkpt lat="44.380497692175" lon="10.22688888430841"><ele>828.5</ele><time>2026-04-18T11:53:40Z</time></trkpt><trkpt lat="44.38063531990087" lon="10.226903730907752"><ele>825.75</ele><time>2026-04-18T11:53:41Z</time></trkpt><trkpt lat="44.38078538384473" lon="10.22697299565709"><ele>823.0</ele><time>2026-04-18T11:53:42Z</time></trkpt><trkpt lat="44.38093797223384" lon="10.22706948269595"><ele>822.75</ele><time>2026-04-18T11:53:43Z</time></trkpt><trkpt lat="44.38108554497633" lon="10.22715623372894"><ele>822.5</ele><time>2026-04-18T11:53:44Z</time></trkpt><trkpt lat="44.38122159968065" lon="10.22722201190652"><ele>822.25</ele><time>2026-04-18T11:53:45Z</time></trkpt><trkpt lat="44.38134921268479" lon="10.227285256684691"><ele>822.0</ele><time>2026-04-18T11:53:46Z</time></trkpt><trkpt lat="44.3814609139671" lon="10.22737029813046"><ele>822.75</ele><time>2026-04-18T11:53:47Z</time></trkpt><trkpt lat="44.38154437654518" lon="10.227507138677224"><ele>823.5</ele><time>2026-04-18T11:53:48Z</time></trkpt><trkpt lat="44.38160736444491" lon="10.227678149791112"><ele>824.25</ele><time>2026-04-18T11:53:48.999Z</time></trkpt><trkpt lat="44.38166200762048" lon="10.227817197605804"><ele>825.0</ele><time>2026-04-18T11:53:49.999Z</time></trkpt><trkpt lat="44.38172653111059" lon="10.227895773236988"><ele>825.0</ele><time>2026-04-18T11:53:50.999Z</time></trkpt><trkpt lat="44.38179510773109" lon="10.227924083199023"><ele>825.0</ele><time>2026-04-18T11:53:51.999Z</time></trkpt><trkpt lat="44.381865788075814" lon="10.227880686142361"><ele>825.0</ele><time>2026-04-18T11:53:52.999Z</time></trkpt><trkpt lat="44.381907621626254" lon="10.227772645956316"><ele>825.0</ele><time>2026-04-18T11:53:53.999Z</time></trkpt><trkpt lat="44.381939731830805" lon="10.227641125083865"><ele>825.0</ele><time>2026-04-18T11:53:54.999Z</time></trkpt><trkpt lat="44.381875717911214" lon="10.227472392735617"><ele>821.0</ele><time>2026-04-18T11:53:55.999Z</time></trkpt><trkpt lat="44.38180193887206" lon="10.22728299878488"><ele>817.0</ele><time>2026-04-18T11:53:56.999Z</time></trkpt><trkpt lat="44.381733933114496" lon="10.227088862207017"><ele>813.0</ele><time>2026-04-18T11:53:57.999Z</time></trkpt><trkpt lat="44.38166401537615" lon="10.226885478769221"><ele>813.0</ele><time>2026-04-18T11:53:58.999Z</time></trkpt><trkpt lat="44.381593298881036" lon="10.22669826178781"><ele>813.0</ele><time>2026-04-18T11:53:59.999Z</time></trkpt><trkpt lat="44.38150722886568" lon="10.226553004490288"><ele>813.0</ele><time>2026-04-18T11:54:00.999Z</time></trkpt><trkpt lat="44.38141047841063" lon="10.226430520503923"><ele>813.0</ele><time>2026-04-18T11:54:01.999Z</time></trkpt><trkpt lat="44.38133540669494" lon="10.226296356990058"><ele>810.5</ele><time>2026-04-18T11:54:02.999Z</time></trkpt><trkpt lat="44.38128306385408" lon="10.226159503711871"><ele>808.0</ele><time>2026-04-18T11:54:03.999Z</time></trkpt><trkpt lat="44.381282863896345" lon="10.225999635493375"><ele>805.5</ele><time>2026-04-18T11:54:04.999Z</time></trkpt><trkpt lat="44.38126962458244" lon="10.225827706471481"><ele>803.0</ele><time>2026-04-18T11:54:05.999Z</time></trkpt><trkpt lat="44.381218542778534" lon="10.22569687386557"><ele>799.75</ele><time>2026-04-18T11:54:06.999Z</time></trkpt><trkpt lat="44.381136413128445" lon="10.225614657831272"><ele>796.5</ele><time>2026-04-18T11:54:07.999Z</time></trkpt><trkpt lat="44.38100285967068" lon="10.22558076693452"><ele>793.25</ele><time>2026-04-18T11:54:08.999Z</time></trkpt><trkpt lat="44.380834642898996" lon="10.225580458285705"><ele>790.0</ele><time>2026-04-18T11:54:09.999Z</time></trkpt><trkpt lat="44.38067312326069" lon="10.225576314818847"><ele>790.0</ele><time>2026-04-18T11:54:10.999Z</time></trkpt><trkpt lat="44.38053469154885" lon="10.225543037168123"><ele>790.0</ele><time>2026-04-18T11:54:11.999Z</time></trkpt><trkpt lat="44.38040589803629" lon="10.22553062945553"><ele>790.0</ele><time>2026-04-18T11:54:12.999Z</time></trkpt><trkpt lat="44.38030511948894" lon="10.225509581064626"><ele>790.0</ele><time>2026-04-18T11:54:13.999Z</time></trkpt><trkpt lat="44.380231419729924" lon="10.225463969776692"><ele>795.4</ele><time>2026-04-18T11:54:14.999Z</time></trkpt><trkpt lat="44.380193301291854" lon="10.225367705513214"><ele>800.8</ele><time>2026-04-18T11:54:15.999Z</time></trkpt><trkpt lat="44.38019724981303" lon="10.22524643654801"><ele>806.2</ele><time>2026-04-18T11:54:16.999Z</time></trkpt><trkpt lat="44.380232776671754" lon="10.225101413324348"><ele>811.6</ele><time>2026-04-18T11:54:17.999Z</time></trkpt><trkpt lat="44.380281012070654" lon="10.224929593587298"><ele>817.0</ele><time>2026-04-18T11:54:18.999Z</time></trkpt><trkpt lat="44.38031718341945" lon="10.22472646355391"><ele>817.0</ele><time>2026-04-18T11:54:19.999Z</time></trkpt><trkpt lat="44.380360534572645" lon="10.224515206579387"><ele>817.0</ele><time>2026-04-18T11:54:20.999Z</time></trkpt><trkpt lat="44.380387225881975" lon="10.224292180570034"><ele>817.0</ele><time>2026-04-18T11:54:21.999Z</time></trkpt><trkpt lat="44.38040364151162" lon="10.22406635716516"><ele>816.25</ele><time>2026-04-18T11:54:22.999Z</time></trkpt><trkpt lat="44.38040862989089" lon="10.223851682155683"><ele>815.5</ele><time>2026-04-18T11:54:23.999Z</time></trkpt><trkpt lat="44.38039927486151" lon="10.223666192176747"><ele>814.75</ele><time>2026-04-18T11:54:24.999Z</time></trkpt><trkpt lat="44.380358955478314" lon="10.223513577241851"><ele>814.0</ele><time>2026-04-18T11:54:26Z</time></trkpt><trkpt lat="44.38027794622335" lon="10.223412373435208"><ele>813.9999999999999</ele><time>2026-04-18T11:54:27Z</time></trkpt><trkpt lat="44.38018250763792" lon="10.22336510315246"><ele>814.0</ele><time>2026-04-18T11:54:28Z</time></trkpt><trkpt lat="44.38010050029475" lon="10.223313982524576"><ele>814.0</ele><time>2026-04-18T11:54:29Z</time></trkpt><trkpt lat="44.380021445046104" lon="10.223263550806958"><ele>814.0</ele><time>2026-04-18T11:54:30Z</time></trkpt><trkpt lat="44.37995729703916" lon="10.22320324000305"><ele>813.9999999999999</ele><time>2026-04-18T11:54:31Z</time></trkpt><trkpt lat="44.379923273948066" lon="10.223113416105422"><ele>814.0</ele><time>2026-04-18T11:54:32Z</time></trkpt><trkpt lat="44.37992984608561" lon="10.223002684103928"><ele>815.25</ele><time>2026-04-18T11:54:33Z</time></trkpt><trkpt lat="44.37996703245238" lon="10.222882470724175"><ele>816.5</ele><time>2026-04-18T11:54:34Z</time></trkpt><trkpt lat="44.38007966530399" lon="10.222846307282818"><ele>817.75</ele><time>2026-04-18T11:54:35Z</time></trkpt><trkpt lat="44.38020603010723" lon="10.222818157518693"><ele>819.0</ele><time>2026-04-18T11:54:36Z</time></trkpt><trkpt lat="44.3803647527007" lon="10.222803644839173"><ele>819.0</ele><time>2026-04-18T11:54:37Z</time></trkpt><trkpt lat="44.380511307662836" lon="10.222768012044336"><ele>819.0</ele><time>2026-04-18T11:54:38Z</time></trkpt><trkpt lat="44.38063672651041" lon="10.222712316143827"><ele>819.0</ele><time>2026-04-18T11:54:39Z</time></trkpt><trkpt lat="44.38076566879642" lon="10.222657897388842"><ele>819.0</ele><time>2026-04-18T11:54:40Z</time></trkpt><trkpt lat="44.38088887136849" lon="10.222625495728602"><ele>818.5</ele><time>2026-04-18T11:54:41Z</time></trkpt><trkpt lat="44.380997613119945" lon="10.222583493846159"><ele>818.0</ele><time>2026-04-18T11:54:42Z</time></trkpt><trkpt lat="44.3811262306574" lon="10.222512469900654"><ele>817.5</ele><time>2026-04-18T11:54:43Z</time></trkpt><trkpt lat="44.38125287497504" lon="10.222418039655185"><ele>817.0</ele><time>2026-04-18T11:54:44Z</time></trkpt><trkpt lat="44.38137157984099" lon="10.22229416708146"><ele>821.3333333333333</ele><time>2026-04-18T11:54:45Z</time></trkpt><trkpt lat="44.38148256325517" lon="10.222134596972248"><ele>825.6666666666667</ele><time>2026-04-18T11:54:46Z</time></trkpt><trkpt lat="44.38160588565413" lon="10.22197626317919"><ele>830.0</ele><time>2026-04-18T11:54:47Z</time></trkpt><trkpt lat="44.3817232740454" lon="10.221849716927965"><ele>830.0</ele><time>2026-04-18T11:54:48Z</time></trkpt><trkpt lat="44.38181511212426" lon="10.221736338422764"><ele>830.0</ele><time>2026-04-18T11:54:49Z</time></trkpt><trkpt lat="44.381912897041126" lon="10.221657271930994"><ele>830.0</ele><time>2026-04-18T11:54:50Z</time></trkpt><trkpt lat="44.382023918734525" lon="10.221592906601177"><ele>830.0</ele><time>2026-04-18T11:54:51Z</time></trkpt><trkpt lat="44.382147988383856" lon="10.22157352059869"><ele>829.5</ele><time>2026-04-18T11:54:52Z</time></trkpt><trkpt lat="44.38225798495096" lon="10.221524925064955"><ele>829.0</ele><time>2026-04-18T11:54:53Z</time></trkpt><trkpt lat="44.38237113074175" lon="10.221466910087294"><ele>828.5</ele><time>2026-04-18T11:54:54Z</time></trkpt><trkpt lat="44.382494485928724" lon="10.221387584016854"><ele>828.0</ele><time>2026-04-18T11:54:55Z</time></trkpt><trkpt lat="44.382622230843104" lon="10.221310357064834"><ele>828.0</ele><time>2026-04-18T11:54:56Z</time></trkpt><trkpt lat="44.38273677456966" lon="10.221259246727298"><ele>828.0</ele><time>2026-04-18T11:54:57Z</time></trkpt><trkpt lat="44.38284571930212" lon="10.221248206755446"><ele>828.0</ele><time>2026-04-18T11:54:58Z</time></trkpt><trkpt lat="44.38295867377617" lon="10.221316979266955"><ele>828.0</ele><time>2026-04-18T11:54:59Z</time></trkpt><trkpt lat="44.38308632936719" lon="10.22139529671595"><ele>824.5</ele><time>2026-04-18T11:55:00Z</time></trkpt><trkpt lat="44.38320076815058" lon="10.221522789264027"><ele>821.0</ele><time>2026-04-18T11:55:01Z</time></trkpt><trkpt lat="44.383306240260836" lon="10.221640232219213"><ele>817.5</ele><time>2026-04-18T11:55:02Z</time></trkpt><trkpt lat="44.3834096705069" lon="10.221713730722893"><ele>814.0</ele><time>2026-04-18T11:55:03Z</time></trkpt><trkpt lat="44.38352884697693" lon="10.22171848713268"><ele>814.0</ele><time>2026-04-18T11:55:04Z</time></trkpt><trkpt lat="44.383664319532784" lon="10.2216681609321"><ele>814.0</ele><time>2026-04-18T11:55:05Z</time></trkpt><trkpt lat="44.38379161031347" lon="10.221594391284876"><ele>814.0</ele><time>2026-04-18T11:55:06Z</time></trkpt><trkpt lat="44.38390990810082" lon="10.221518924578588"><ele>814.0</ele><time>2026-04-18T11:55:07Z</time></trkpt><trkpt lat="44.38401229250931" lon="10.221408184483678"><ele>812.4000000000001</ele><time>2026-04-18T11:55:08Z</time></trkpt><trkpt lat="44.38409075901923" lon="10.221290589729891"><ele>810.8</ele><time>2026-04-18T11:55:09Z</time></trkpt><trkpt lat="44.38413626795826" lon="10.22119397398209"><ele>809.2</ele><time>2026-04-18T11:55:10Z</time></trkpt><trkpt lat="44.38416062369519" lon="10.22104392441387"><ele>807.5999999999999</ele><time>2026-04-18T11:55:12Z</time></trkpt><trkpt lat="44.38409518259234" lon="10.220945512935671"><ele>806.0</ele><time>2026-04-18T11:55:13Z</time></trkpt><trkpt lat="44.38398485410524" lon="10.220918334989998"><ele>806.0</ele><time>2026-04-18T11:55:14Z</time></trkpt><trkpt lat="44.38387279850353" lon="10.220920750916008"><ele>806.0</ele><time>2026-04-18T11:55:15Z</time></trkpt><trkpt lat="44.383746363096684" lon="10.22091006151491"><ele>806.0</ele><time>2026-04-18T11:55:16Z</time></trkpt><trkpt lat="44.38362229933491" lon="10.220894625705279"><ele>806.0</ele><time>2026-04-18T11:55:17Z</time></trkpt><trkpt lat="44.383504926781896" lon="10.220850455128023"><ele>805.75</ele><time>2026-04-18T11:55:18Z</time></trkpt><trkpt lat="44.38340990440678" lon="10.22076019176924"><ele>805.5</ele><time>2026-04-18T11:55:19Z</time></trkpt><trkpt lat="44.38330842842871" lon="10.220654766918898"><ele>805.25</ele><time>2026-04-18T11:55:20Z</time></trkpt><trkpt lat="44.38321457650576" lon="10.220558174976233"><ele>805.0</ele><time>2026-04-18T11:55:21Z</time></trkpt><trkpt lat="44.38311544830538" lon="10.220456859907852"><ele>805.0</ele><time>2026-04-18T11:55:22Z</time></trkpt><trkpt lat="44.38302876714161" lon="10.220360028227287"><ele>805.0</ele><time>2026-04-18T11:55:23Z</time></trkpt><trkpt lat="44.382951811471415" lon="10.220259203063872"><ele>805.0</ele><time>2026-04-18T11:55:24Z</time></trkpt><trkpt lat="44.38290000077609" lon="10.220164517520729"><ele>805.0</ele><time>2026-04-18T11:55:25Z</time></trkpt><trkpt lat="44.38289753649501" lon="10.220059790977402"><ele>805.0</ele><time>2026-04-18T11:55:26Z</time></trkpt><trkpt lat="44.38293459956056" lon="10.219939324198945"><ele>806.2</ele><time>2026-04-18T11:55:27Z</time></trkpt><trkpt lat="44.382960737133104" lon="10.219804469648588"><ele>807.4</ele><time>2026-04-18T11:55:28Z</time></trkpt><trkpt lat="44.382988033062176" lon="10.219704547402166"><ele>808.5999999999999</ele><time>2026-04-18T11:55:29Z</time></trkpt><trkpt lat="44.38309243116758" lon="10.21966635865424"><ele>809.8</ele><time>2026-04-18T11:55:31Z</time></trkpt><trkpt lat="44.38320449493468" lon="10.219674400210677"><ele>811.0</ele><time>2026-04-18T11:55:32Z</time></trkpt><trkpt lat="44.38333232129909" lon="10.219672945704813"><ele>811.0</ele><time>2026-04-18T11:55:33Z</time></trkpt><trkpt lat="44.38344873455057" lon="10.219670768562684"><ele>811.0</ele><time>2026-04-18T11:55:34Z</time></trkpt><trkpt lat="44.38355626127992" lon="10.219650100347755"><ele>811.0</ele><time>2026-04-18T11:55:35Z</time></trkpt><trkpt lat="44.38364697322187" lon="10.219588872498008"><ele>811.0</ele><time>2026-04-18T11:55:36Z</time></trkpt><trkpt lat="44.38373968280712" lon="10.219479890049945"><ele>811.0</ele><time>2026-04-18T11:55:37Z</time></trkpt><trkpt lat="44.38383762167935" lon="10.219376251557335"><ele>807.75</ele><time>2026-04-18T11:55:38Z</time></trkpt><trkpt lat="44.38394296726339" lon="10.219294713742261"><ele>804.5</ele><time>2026-04-18T11:55:39Z</time></trkpt><trkpt lat="44.38405955626141" lon="10.219235232071302"><ele>801.25</ele><time>2026-04-18T11:55:40Z</time></trkpt><trkpt lat="44.38417905679604" lon="10.219185166588494"><ele>798.0</ele><time>2026-04-18T11:55:41Z</time></trkpt><trkpt lat="44.384292122066256" lon="10.219106019999412"><ele>798.0</ele><time>2026-04-18T11:55:42Z</time></trkpt><trkpt lat="44.38439737232985" lon="10.219000853445923"><ele>798.0</ele><time>2026-04-18T11:55:43Z</time></trkpt><trkpt lat="44.38450627213133" lon="10.218872870574042"><ele>798.0</ele><time>2026-04-18T11:55:44Z</time></trkpt><trkpt lat="44.38460127969643" lon="10.218713757850901"><ele>798.0</ele><time>2026-04-18T11:55:44.999Z</time></trkpt><trkpt lat="44.38469760323545" lon="10.21852835274972"><ele>798.6666666666667</ele><time>2026-04-18T11:55:45.999Z</time></trkpt><trkpt lat="44.384811877657526" lon="10.21836823187359"><ele>799.3333333333334</ele><time>2026-04-18T11:55:46.999Z</time></trkpt><trkpt lat="44.38491944571278" lon="10.21818340071562"><ele>800.0</ele><time>2026-04-18T11:55:47.999Z</time></trkpt><trkpt lat="44.38502533796349" lon="10.21799793228714"><ele>800.0</ele><time>2026-04-18T11:55:48.999Z</time></trkpt><trkpt lat="44.38513276180421" lon="10.21782271391558"><ele>800.0</ele><time>2026-04-18T11:55:49.999Z</time></trkpt><trkpt lat="44.38524162279015" lon="10.217660332051999"><ele>800.0</ele><time>2026-04-18T11:55:50.999Z</time></trkpt><trkpt lat="44.385363411695444" lon="10.217529764306455"><ele>800.0</ele><time>2026-04-18T11:55:51.999Z</time></trkpt><trkpt lat="44.38549669461251" lon="10.217420531346459"><ele>800.0</ele><time>2026-04-18T11:55:52.999Z</time></trkpt><trkpt lat="44.385642136886794" lon="10.217322786312751"><ele>800.0</ele><time>2026-04-18T11:55:53.999Z</time></trkpt><trkpt lat="44.385774204202434" lon="10.217234211627858"><ele>802.0</ele><time>2026-04-18T11:55:54.999Z</time></trkpt><trkpt lat="44.38592220853313" lon="10.217174491275422"><ele>804.0</ele><time>2026-04-18T11:55:55.999Z</time></trkpt><trkpt lat="44.38606705740804" lon="10.217136782046955"><ele>806.0</ele><time>2026-04-18T11:55:56.999Z</time></trkpt><trkpt lat="44.386214076838684" lon="10.217157497340128"><ele>808.0</ele><time>2026-04-18T11:55:57.999Z</time></trkpt><trkpt lat="44.38634433871468" lon="10.217173296691907"><ele>805.2</ele><time>2026-04-18T11:55:58.999Z</time></trkpt><trkpt lat="44.386456993907636" lon="10.21718425607651"><ele>802.4</ele><time>2026-04-18T11:55:59.999Z</time></trkpt><trkpt lat="44.38655791628914" lon="10.217203888063265"><ele>799.6</ele><time>2026-04-18T11:56:00.999Z</time></trkpt><trkpt lat="44.38665633697696" lon="10.217217297344945"><ele>796.8000000000001</ele><time>2026-04-18T11:56:01.999Z</time></trkpt><trkpt lat="44.38676767284145" lon="10.217230332509788"><ele>794.0</ele><time>2026-04-18T11:56:02.999Z</time></trkpt><trkpt lat="44.386902737676586" lon="10.217226803581791"><ele>794.0</ele><time>2026-04-18T11:56:03.999Z</time></trkpt><trkpt lat="44.38704210449571" lon="10.217174441907911"><ele>794.0</ele><time>2026-04-18T11:56:04.999Z</time></trkpt><trkpt lat="44.38717233303133" lon="10.217088480462854"><ele>794.0</ele><time>2026-04-18T11:56:05.999Z</time></trkpt><trkpt lat="44.38729389568243" lon="10.21704623676068"><ele>794.0</ele><time>2026-04-18T11:56:06.999Z</time></trkpt><trkpt lat="44.387412658061116" lon="10.217038763166574"><ele>790.5</ele><time>2026-04-18T11:56:07.999Z</time></trkpt><trkpt lat="44.38753108420007" lon="10.217033165000329"><ele>787.0</ele><time>2026-04-18T11:56:08.999Z</time></trkpt><trkpt lat="44.387644880024915" lon="10.21703356282994"><ele>783.5</ele><time>2026-04-18T11:56:09.999Z</time></trkpt><trkpt lat="44.387753942015316" lon="10.216985479884496"><ele>780.0</ele><time>2026-04-18T11:56:10.999Z</time></trkpt><trkpt lat="44.38787322739682" lon="10.216881447545397"><ele>780.0</ele><time>2026-04-18T11:56:11.999Z</time></trkpt><trkpt lat="44.38798861020972" lon="10.21674074185693"><ele>780.0</ele><time>2026-04-18T11:56:12.999Z</time></trkpt><trkpt lat="44.388106208232436" lon="10.216597278935389"><ele>780.0</ele><time>2026-04-18T11:56:13.999Z</time></trkpt><trkpt lat="44.388243446284136" lon="10.216509540355657"><ele>780.5</ele><time>2026-04-18T11:56:14.999Z</time></trkpt><trkpt lat="44.388374500627386" lon="10.216462771779561"><ele>781.0</ele><time>2026-04-18T11:56:15.999Z</time></trkpt><trkpt lat="44.38848567114711" lon="10.21640022979685"><ele>781.5</ele><time>2026-04-18T11:56:16.999Z</time></trkpt><trkpt lat="44.388589479435645" lon="10.216331117515741"><ele>782.0</ele><time>2026-04-18T11:56:17.999Z</time></trkpt><trkpt lat="44.3887025073929" lon="10.216218890688333"><ele>782.0</ele><time>2026-04-18T11:56:18.999Z</time></trkpt><trkpt lat="44.38882388067244" lon="10.216114477679785"><ele>782.0</ele><time>2026-04-18T11:56:19.999Z</time></trkpt><trkpt lat="44.38894594010518" lon="10.2160026888125"><ele>782.0</ele><time>2026-04-18T11:56:20.999Z</time></trkpt><trkpt lat="44.38905732583286" lon="10.215902651516776"><ele>782.0</ele><time>2026-04-18T11:56:21.999Z</time></trkpt><trkpt lat="44.389162543334045" lon="10.215809241892684"><ele>778.75</ele><time>2026-04-18T11:56:22.999Z</time></trkpt><trkpt lat="44.38926013875975" lon="10.215707474399517"><ele>775.5</ele><time>2026-04-18T11:56:23.999Z</time></trkpt><trkpt lat="44.389345014405784" lon="10.215566667059376"><ele>772.25</ele><time>2026-04-18T11:56:24.999Z</time></trkpt><trkpt lat="44.3894276804977" lon="10.215382812159147"><ele>769.0</ele><time>2026-04-18T11:56:25.999Z</time></trkpt><trkpt lat="44.38953062357698" lon="10.21520814027761"><ele>769.0</ele><time>2026-04-18T11:56:26.999Z</time></trkpt><trkpt lat="44.389620690648414" lon="10.21502600067063"><ele>769.0</ele><time>2026-04-18T11:56:27.999Z</time></trkpt><trkpt lat="44.38970837391664" lon="10.21485418959122"><ele>769.0</ele><time>2026-04-18T11:56:28.999Z</time></trkpt><trkpt lat="44.38980150052029" lon="10.21469334536653"><ele>767.2</ele><time>2026-04-18T11:56:29.999Z</time></trkpt><trkpt lat="44.389854491098916" lon="10.214552754866254"><ele>765.4000000000001</ele><time>2026-04-18T11:56:30.999Z</time></trkpt><trkpt lat="44.38991133198637" lon="10.214504550264918"><ele>763.6</ele><time>2026-04-18T11:56:32Z</time></trkpt><trkpt lat="44.39000307955099" lon="10.214652270472309"><ele>761.8</ele><time>2026-04-18T11:56:33Z</time></trkpt><trkpt lat="44.39003379955642" lon="10.214787194617472"><ele>760.0</ele><time>2026-04-18T11:56:34Z</time></trkpt><trkpt lat="44.389998409316135" lon="10.214929968080515"><ele>757.6</ele><time>2026-04-18T11:56:35Z</time></trkpt><trkpt lat="44.38990924141661" lon="10.215051960151614"><ele>755.2</ele><time>2026-04-18T11:56:36Z</time></trkpt><trkpt lat="44.3898111112178" lon="10.215163824433192"><ele>752.8</ele><time>2026-04-18T11:56:37Z</time></trkpt><trkpt lat="44.38973514109294" lon="10.215276819670924"><ele>750.4</ele><time>2026-04-18T11:56:38Z</time></trkpt><trkpt lat="44.389688998281585" lon="10.215380051612833"><ele>748.0</ele><time>2026-04-18T11:56:39Z</time></trkpt><trkpt lat="44.389711253116616" lon="10.215465614811857"><ele>748.0</ele><time>2026-04-18T11:56:40Z</time></trkpt><trkpt lat="44.389779385287135" lon="10.215513282820115"><ele>748.0</ele><time>2026-04-18T11:56:41Z</time></trkpt><trkpt lat="44.38987228287667" lon="10.215507173362806"><ele>748.0</ele><time>2026-04-18T11:56:42Z</time></trkpt><trkpt lat="44.389965719273505" lon="10.215365933542731"><ele>748.0</ele><time>2026-04-18T11:56:43Z</time></trkpt><trkpt lat="44.390059370482994" lon="10.215229358041457"><ele>748.0</ele><time>2026-04-18T11:56:44Z</time></trkpt><trkpt lat="44.39019553982149" lon="10.215151723016598"><ele>748.0</ele><time>2026-04-18T11:56:45Z</time></trkpt><trkpt lat="44.39034519646077" lon="10.21506893389865"><ele>748.0</ele><time>2026-04-18T11:56:46Z</time></trkpt><trkpt lat="44.39047194748833" lon="10.214956367231224"><ele>748.0</ele><time>2026-04-18T11:56:47Z</time></trkpt><trkpt lat="44.39059640644651" lon="10.214844510324399"><ele>749.25</ele><time>2026-04-18T11:56:48Z</time></trkpt><trkpt lat="44.390725415391515" lon="10.214800884600502"><ele>750.5</ele><time>2026-04-18T11:56:49Z</time></trkpt><trkpt lat="44.390846358151265" lon="10.21477465043623"><ele>751.75</ele><time>2026-04-18T11:56:50Z</time></trkpt><trkpt lat="44.390989495788865" lon="10.214812969069296"><ele>753.0</ele><time>2026-04-18T11:56:51Z</time></trkpt><trkpt lat="44.39113817357061" lon="10.214822122789505"><ele>753.0</ele><time>2026-04-18T11:56:52Z</time></trkpt><trkpt lat="44.39128045852171" lon="10.214786424438552"><ele>753.0</ele><time>2026-04-18T11:56:53Z</time></trkpt><trkpt lat="44.39140747829518" lon="10.214731508488434"><ele>753.0</ele><time>2026-04-18T11:56:54Z</time></trkpt><trkpt lat="44.39152374784723" lon="10.214655634678238"><ele>753.0</ele><time>2026-04-18T11:56:55Z</time></trkpt><trkpt lat="44.39164383058554" lon="10.214540303654019"><ele>747.75</ele><time>2026-04-18T11:56:56Z</time></trkpt><trkpt lat="44.39175429860762" lon="10.214397590804216"><ele>742.5</ele><time>2026-04-18T11:56:57Z</time></trkpt><trkpt lat="44.391855421359715" lon="10.214245542152204"><ele>737.25</ele><time>2026-04-18T11:56:58Z</time></trkpt><trkpt lat="44.39193791967872" lon="10.214100388436348"><ele>732.0</ele><time>2026-04-18T11:56:59Z</time></trkpt><trkpt lat="44.39198820335885" lon="10.213926904237644"><ele>730.75</ele><time>2026-04-18T11:57:00Z</time></trkpt><trkpt lat="44.39200059764003" lon="10.2137286528903"><ele>729.5</ele><time>2026-04-18T11:57:01Z</time></trkpt><trkpt lat="44.392025053131555" lon="10.213539460866935"><ele>728.25</ele><time>2026-04-18T11:57:02Z</time></trkpt><trkpt lat="44.39205302902471" lon="10.213392270601103"><ele>727.0</ele><time>2026-04-18T11:57:03Z</time></trkpt><trkpt lat="44.392119236927684" lon="10.21328491400539"><ele>724.0</ele><time>2026-04-18T11:57:04Z</time></trkpt><trkpt lat="44.39223231213356" lon="10.213241014176061"><ele>721.0</ele><time>2026-04-18T11:57:05Z</time></trkpt><trkpt lat="44.39236787727156" lon="10.213217655392086"><ele>718.0</ele><time>2026-04-18T11:57:06Z</time></trkpt><trkpt lat="44.39249720056199" lon="10.21318818330707"><ele>715.0</ele><time>2026-04-18T11:57:07Z</time></trkpt><trkpt lat="44.3926057132212" lon="10.213259979863405"><ele>715.0</ele><time>2026-04-18T11:57:08Z</time></trkpt><trkpt lat="44.392695234235255" lon="10.21338667256595"><ele>715.0</ele><time>2026-04-18T11:57:09Z</time></trkpt><trkpt lat="44.392785442786426" lon="10.21349066140118"><ele>715.0</ele><time>2026-04-18T11:57:10Z</time></trkpt><trkpt lat="44.39288730977618" lon="10.213529766736446"><ele>715.0</ele><time>2026-04-18T11:57:11Z</time></trkpt><trkpt lat="44.39300107341322" lon="10.213502972030906"><ele>713.25</ele><time>2026-04-18T11:57:12Z</time></trkpt><trkpt lat="44.39312654212913" lon="10.213424871461534"><ele>711.5</ele><time>2026-04-18T11:57:13Z</time></trkpt><trkpt lat="44.39325911906263" lon="10.213303395140438"><ele>709.75</ele><time>2026-04-18T11:57:14Z</time></trkpt><trkpt lat="44.39340329603825" lon="10.213251223417355"><ele>708.0</ele><time>2026-04-18T11:57:15Z</time></trkpt><trkpt lat="44.3935639983834" lon="10.213211534619099"><ele>708.0</ele><time>2026-04-18T11:57:16Z</time></trkpt><trkpt lat="44.393729660979126" lon="10.213198551528839"><ele>708.0</ele><time>2026-04-18T11:57:17Z</time></trkpt><trkpt lat="44.393887286368916" lon="10.213166244782807"><ele>708.0</ele><time>2026-04-18T11:57:18Z</time></trkpt><trkpt lat="44.39402374577425" lon="10.213113139276105"><ele>706.2</ele><time>2026-04-18T11:57:19Z</time></trkpt><trkpt lat="44.39413493784097" lon="10.2130952613994"><ele>704.4</ele><time>2026-04-18T11:57:20Z</time></trkpt><trkpt lat="44.39420787286078" lon="10.213078380292147"><ele>702.6</ele><time>2026-04-18T11:57:21Z</time></trkpt><trkpt lat="44.39426063215495" lon="10.213163559539419"><ele>700.8000000000001</ele><time>2026-04-18T11:57:22Z</time></trkpt><trkpt lat="44.39424294073787" lon="10.213286967054215"><ele>699.0</ele><time>2026-04-18T11:57:23Z</time></trkpt><trkpt lat="44.394155229732355" lon="10.213384612546337"><ele>699.0</ele><time>2026-04-18T11:57:24Z</time></trkpt><trkpt lat="44.394005130891514" lon="10.213409481708272"><ele>699.0</ele><time>2026-04-18T11:57:25Z</time></trkpt><trkpt lat="44.39384871648302" lon="10.213482057445495"><ele>699.0</ele><time>2026-04-18T11:57:26Z</time></trkpt><trkpt lat="44.39367996671089" lon="10.21353978766298"><ele>701.25</ele><time>2026-04-18T11:57:27Z</time></trkpt><trkpt lat="44.393524330083274" lon="10.213598990775369"><ele>703.5</ele><time>2026-04-18T11:57:28Z</time></trkpt><trkpt lat="44.39339409903905" lon="10.213654612533135"><ele>705.75</ele><time>2026-04-18T11:57:29Z</time></trkpt><trkpt lat="44.39328698036445" lon="10.213694325502853"><ele>708.0</ele><time>2026-04-18T11:57:30Z</time></trkpt><trkpt lat="44.393204763300645" lon="10.213732127069672"><ele>708.0</ele><time>2026-04-18T11:57:31Z</time></trkpt><trkpt lat="44.39315850282833" lon="10.213822556065358"><ele>708.0</ele><time>2026-04-18T11:57:32Z</time></trkpt><trkpt lat="44.393167013301614" lon="10.213942867552031"><ele>708.0</ele><time>2026-04-18T11:57:33Z</time></trkpt><trkpt lat="44.39322505133116" lon="10.214039628235364"><ele>708.0</ele><time>2026-04-18T11:57:34Z</time></trkpt><trkpt lat="44.3933169935548" lon="10.214087413123885"><ele>708.0</ele><time>2026-04-18T11:57:35Z</time></trkpt><trkpt lat="44.39343616705776" lon="10.214059791316094"><ele>708.0</ele><time>2026-04-18T11:57:36Z</time></trkpt><trkpt lat="44.393536177822064" lon="10.214027285580272"><ele>708.0</ele><time>2026-04-18T11:57:37Z</time></trkpt><trkpt lat="44.39361373715456" lon="10.213998385200748"><ele>708.0</ele><time>2026-04-18T11:57:39Z</time></trkpt><trkpt lat="44.39372513717431" lon="10.214016769284706"><ele>708.0</ele><time>2026-04-18T11:57:58.999Z</time></trkpt><trkpt lat="44.393793332952" lon="10.213943441608086"><ele>708.0</ele><time>2026-04-18T11:57:59.999Z</time></trkpt><trkpt lat="44.39387529458657" lon="10.213860489964095"><ele>705.0</ele><time>2026-04-18T11:58:00.999Z</time></trkpt><trkpt lat="44.39399963014497" lon="10.213763145938684"><ele>702.0</ele><time>2026-04-18T11:58:01.999Z</time></trkpt><trkpt lat="44.39413172096718" lon="10.21367550987136"><ele>699.0</ele><time>2026-04-18T11:58:02.999Z</time></trkpt><trkpt lat="44.39427642626043" lon="10.213576780290632"><ele>699.0</ele><time>2026-04-18T11:58:03.999Z</time></trkpt><trkpt lat="44.3944229256681" lon="10.213478936096704"><ele>699.0</ele><time>2026-04-18T11:58:04.999Z</time></trkpt><trkpt lat="44.394558799951795" lon="10.213393627307944"><ele>699.0</ele><time>2026-04-18T11:58:05.999Z</time></trkpt><trkpt lat="44.394681734601804" lon="10.213316423845436"><ele>699.0</ele><time>2026-04-18T11:58:06.999Z</time></trkpt><trkpt lat="44.394798425532414" lon="10.21321509228361"><ele>697.6666666666666</ele><time>2026-04-18T11:58:07.999Z</time></trkpt><trkpt lat="44.394908439375" lon="10.213058784173558"><ele>696.3333333333333</ele><time>2026-04-18T11:58:08.999Z</time></trkpt><trkpt lat="44.39501214840862" lon="10.212871439813227"><ele>695.0</ele><time>2026-04-18T11:58:09.999Z</time></trkpt><trkpt lat="44.39506692218118" lon="10.21269841813751"><ele>695.0</ele><time>2026-04-18T11:58:10.999Z</time></trkpt><trkpt lat="44.395098225621375" lon="10.212542718154362"><ele>695.0</ele><time>2026-04-18T11:58:11.999Z</time></trkpt><trkpt lat="44.39507529845876" lon="10.212402340718974"><ele>695.0</ele><time>2026-04-18T11:58:12.999Z</time></trkpt><trkpt lat="44.39499777533377" lon="10.2122919533082"><ele>695.0</ele><time>2026-04-18T11:58:13.999Z</time></trkpt><trkpt lat="44.39486467681569" lon="10.212186211172618"><ele>688.6666666666666</ele><time>2026-04-18T11:58:14.999Z</time></trkpt><trkpt lat="44.39470429656479" lon="10.212112760555522"><ele>682.3333333333334</ele><time>2026-04-18T11:58:15.999Z</time></trkpt><trkpt lat="44.394552119498954" lon="10.212105258710585"><ele>676.0</ele><time>2026-04-18T11:58:16.999Z</time></trkpt><trkpt lat="44.39441309703383" lon="10.212203112100017"><ele>683.3333333333334</ele><time>2026-04-18T11:58:17.999Z</time></trkpt><trkpt lat="44.3942820470107" lon="10.212358994494283"><ele>690.6666666666666</ele><time>2026-04-18T11:58:18.999Z</time></trkpt><trkpt lat="44.39415096225046" lon="10.212558592626127"><ele>698.0</ele><time>2026-04-18T11:58:19.999Z</time></trkpt><trkpt lat="44.394023211239315" lon="10.212710545009012"><ele>698.0</ele><time>2026-04-18T11:58:20.999Z</time></trkpt><trkpt lat="44.39389307077689" lon="10.212727006893502"><ele>698.0</ele><time>2026-04-18T11:58:21.999Z</time></trkpt><trkpt lat="44.39378604026629" lon="10.212669672648694"><ele>698.0</ele><time>2026-04-18T11:58:22.999Z</time></trkpt><trkpt lat="44.39368204309885" lon="10.212538977377145"><ele>698.0</ele><time>2026-04-18T11:58:23.999Z</time></trkpt><trkpt lat="44.39354473411452" lon="10.212388827169114"><ele>698.3333333333333</ele><time>2026-04-18T11:58:24.999Z</time></trkpt><trkpt lat="44.3934080200771" lon="10.212314130624037"><ele>698.6666666666666</ele><time>2026-04-18T11:58:25.999Z</time></trkpt><trkpt lat="44.39326347463133" lon="10.212287166567487"><ele>699.0</ele><time>2026-04-18T11:58:26.999Z</time></trkpt><trkpt lat="44.39307974634981" lon="10.212341680540613"><ele>698.3333333333334</ele><time>2026-04-18T11:58:27.999Z</time></trkpt><trkpt lat="44.392878241507944" lon="10.212425338348515"><ele>697.6666666666667</ele><time>2026-04-18T11:58:28.999Z</time></trkpt><trkpt lat="44.39269254808113" lon="10.212466505927193"><ele>697.0</ele><time>2026-04-18T11:58:29.999Z</time></trkpt><trkpt lat="44.39251450767094" lon="10.212512761643278"><ele>697.0</ele><time>2026-04-18T11:58:30.999Z</time></trkpt><trkpt lat="44.3923505556782" lon="10.2125244530361"><ele>697.0</ele><time>2026-04-18T11:58:31.999Z</time></trkpt><trkpt lat="44.39217803007547" lon="10.212475559520527"><ele>697.0</ele><time>2026-04-18T11:58:32.999Z</time></trkpt><trkpt lat="44.392005301981634" lon="10.212356278722677"><ele>692.3333333333334</ele><time>2026-04-18T11:58:33.999Z</time></trkpt><trkpt lat="44.39182107370364" lon="10.212228177990196"><ele>687.6666666666666</ele><time>2026-04-18T11:58:34.999Z</time></trkpt><trkpt lat="44.3916639190557" lon="10.21211650415845"><ele>683.0</ele><time>2026-04-18T11:58:35.999Z</time></trkpt><trkpt lat="44.39151640578396" lon="10.212011681472477"><ele>683.0</ele><time>2026-04-18T11:58:36.999Z</time></trkpt><trkpt lat="44.39137946207784" lon="10.211928463607414"><ele>683.0</ele><time>2026-04-18T11:58:38Z</time></trkpt><trkpt lat="44.39122413938151" lon="10.211886177909475"><ele>683.0</ele><time>2026-04-18T11:58:39Z</time></trkpt><trkpt lat="44.3910401711551" lon="10.211898873317542"><ele>685.3333333333333</ele><time>2026-04-18T11:58:40Z</time></trkpt><trkpt lat="44.39085383859311" lon="10.21188889033283"><ele>687.6666666666666</ele><time>2026-04-18T11:58:41Z</time></trkpt><trkpt lat="44.39068976089987" lon="10.211885799838212"><ele>690.0</ele><time>2026-04-18T11:58:42Z</time></trkpt><trkpt lat="44.390549592639815" lon="10.211834059761893"><ele>690.0</ele><time>2026-04-18T11:58:43Z</time></trkpt><trkpt lat="44.39044912545052" lon="10.211738065581441"><ele>690.0</ele><time>2026-04-18T11:58:44Z</time></trkpt><trkpt lat="44.39036585584038" lon="10.21156853795683"><ele>690.0</ele><time>2026-04-18T11:58:45Z</time></trkpt><trkpt lat="44.390282174531286" lon="10.2113453261127"><ele>690.0</ele><time>2026-04-18T11:58:46Z</time></trkpt><trkpt lat="44.390174523506175" lon="10.21111706377187"><ele>690.0</ele><time>2026-04-18T11:58:47Z</time></trkpt><trkpt lat="44.39008218921495" lon="10.210927406406139"><ele>690.0</ele><time>2026-04-18T11:58:48Z</time></trkpt><trkpt lat="44.38997030175666" lon="10.210813272943025"><ele>690.0</ele><time>2026-04-18T11:58:49Z</time></trkpt><trkpt lat="44.38982983966559" lon="10.210607632918087"><ele>692.3333333333334</ele><time>2026-04-18T11:58:50Z</time></trkpt><trkpt lat="44.3896236280068" lon="10.210682340247736"><ele>694.6666666666667</ele><time>2026-04-18T11:58:51Z</time></trkpt><trkpt lat="44.38945472379984" lon="10.210694813410054"><ele>697.0</ele><time>2026-04-18T11:58:52Z</time></trkpt><trkpt lat="44.389312425458705" lon="10.210751721540602"><ele>697.0</ele><time>2026-04-18T11:58:53Z</time></trkpt><trkpt lat="44.3891844181143" lon="10.210802108375097"><ele>697.0</ele><time>2026-04-18T11:58:54Z</time></trkpt><trkpt lat="44.3890839381211" lon="10.210721472413063"><ele>697.0</ele><time>2026-04-18T11:58:55Z</time></trkpt><trkpt lat="44.38901171611844" lon="10.210596528252324"><ele>697.0</ele><time>2026-04-18T11:58:56Z</time></trkpt><trkpt lat="44.388966353822234" lon="10.210428030458838"><ele>697.25</ele><time>2026-04-18T11:58:57Z</time></trkpt><trkpt lat="44.38893262470012" lon="10.210277426643323"><ele>697.5</ele><time>2026-04-18T11:58:58Z</time></trkpt><trkpt lat="44.38895375330952" lon="10.210130705604302"><ele>697.75</ele><time>2026-04-18T11:58:59Z</time></trkpt><trkpt lat="44.38895348849063" lon="10.209937016444721"><ele>698.0</ele><time>2026-04-18T11:59:00Z</time></trkpt><trkpt lat="44.38898107173822" lon="10.209713415959596"><ele>698.0</ele><time>2026-04-18T11:59:01Z</time></trkpt><trkpt lat="44.38900009611197" lon="10.209446950138743"><ele>698.0</ele><time>2026-04-18T11:59:02Z</time></trkpt><trkpt lat="44.38902065842151" lon="10.209187328532115"><ele>698.0</ele><time>2026-04-18T11:59:03Z</time></trkpt><trkpt lat="44.38903091997385" lon="10.20891421852217"><ele>700.6666666666666</ele><time>2026-04-18T11:59:04Z</time></trkpt><trkpt lat="44.38906124429387" lon="10.208646460932494"><ele>703.3333333333334</ele><time>2026-04-18T11:59:05Z</time></trkpt><trkpt lat="44.3891211024819" lon="10.208377126268077"><ele>706.0</ele><time>2026-04-18T11:59:06Z</time></trkpt><trkpt lat="44.38919577450817" lon="10.208113840407766"><ele>711.0</ele><time>2026-04-18T11:59:07Z</time></trkpt><trkpt lat="44.38927321933288" lon="10.207854381778917"><ele>716.0</ele><time>2026-04-18T11:59:08Z</time></trkpt><trkpt lat="44.38933704479031" lon="10.207588238056905"><ele>721.0</ele><time>2026-04-18T11:59:09Z</time></trkpt><trkpt lat="44.389385130515734" lon="10.207314377344064"><ele>723.6666666666667</ele><time>2026-04-18T11:59:10Z</time></trkpt><trkpt lat="44.38942423505201" lon="10.207044584266836"><ele>726.3333333333334</ele><time>2026-04-18T11:59:11Z</time></trkpt><trkpt lat="44.38944763127127" lon="10.206786415943027"><ele>729.0</ele><time>2026-04-18T11:59:12Z</time></trkpt><trkpt lat="44.38946129852195" lon="10.206555912380912"><ele>727.3333333333334</ele><time>2026-04-18T11:59:13Z</time></trkpt><trkpt lat="44.389462998245335" lon="10.206330865389104"><ele>725.6666666666667</ele><time>2026-04-18T11:59:14Z</time></trkpt><trkpt lat="44.38944588866003" lon="10.206093204577005"><ele>724.0</ele><time>2026-04-18T11:59:15Z</time></trkpt><trkpt lat="44.38942797949105" lon="10.205853016347703"><ele>722.6666666666667</ele><time>2026-04-18T11:59:16Z</time></trkpt><trkpt lat="44.389411778461586" lon="10.205623884071299"><ele>721.3333333333334</ele><time>2026-04-18T11:59:17Z</time></trkpt><trkpt lat="44.38939058239979" lon="10.205411375365625"><ele>720.0</ele><time>2026-04-18T11:59:18Z</time></trkpt><trkpt lat="44.389350682423014" lon="10.205189903210025"><ele>720.0</ele><time>2026-04-18T11:59:19Z</time></trkpt><trkpt lat="44.38934097486393" lon="10.204984549424992"><ele>720.0</ele><time>2026-04-18T11:59:20Z</time></trkpt><trkpt lat="44.38931516590474" lon="10.20479298058754"><ele>720.0</ele><time>2026-04-18T11:59:21Z</time></trkpt><trkpt lat="44.389275227827106" lon="10.204633602755349"><ele>720.0</ele><time>2026-04-18T11:59:22Z</time></trkpt><trkpt lat="44.38924041631206" lon="10.204500149768263"><ele>719.2</ele><time>2026-04-18T11:59:23Z</time></trkpt><trkpt lat="44.38918423924882" lon="10.204408457512143"><ele>718.4</ele><time>2026-04-18T11:59:24Z</time></trkpt><trkpt lat="44.3891169009259" lon="10.204322937602708"><ele>717.5999999999999</ele><time>2026-04-18T11:59:25Z</time></trkpt><trkpt lat="44.389016341032246" lon="10.204277915097528"><ele>716.8</ele><time>2026-04-18T11:59:26Z</time></trkpt><trkpt lat="44.388931111350516" lon="10.204194604829487"><ele>716.0</ele><time>2026-04-18T11:59:27Z</time></trkpt><trkpt lat="44.38885027247488" lon="10.204115328618261"><ele>716.6666666666666</ele><time>2026-04-18T11:59:28Z</time></trkpt><trkpt lat="44.38879084641255" lon="10.204021557964209"><ele>717.3333333333333</ele><time>2026-04-18T11:59:29Z</time></trkpt><trkpt lat="44.38877090337047" lon="10.20391691073067"><ele>718.0</ele><time>2026-04-18T11:59:30Z</time></trkpt><trkpt lat="44.38875198270622" lon="10.20380430866821"><ele>718.6666666666666</ele><time>2026-04-18T11:59:31Z</time></trkpt><trkpt lat="44.38872253577032" lon="10.203706115852643"><ele>719.3333333333334</ele><time>2026-04-18T11:59:32Z</time></trkpt><trkpt lat="44.38870913383747" lon="10.203603356503196"><ele>720.0</ele><time>2026-04-18T11:59:33Z</time></trkpt><trkpt lat="44.388703928947386" lon="10.203496443799954"><ele>720.0</ele><time>2026-04-18T11:59:34Z</time></trkpt><trkpt lat="44.38868985714284" lon="10.203406775959568"><ele>720.0</ele><time>2026-04-18T11:59:35Z</time></trkpt><trkpt lat="44.38866291339444" lon="10.203237885181625"><ele>720.0</ele><time>2026-04-18T11:59:37Z</time></trkpt><trkpt lat="44.38863334497764" lon="10.203158750691173"><ele>720.0</ele><time>2026-04-18T11:59:38Z</time></trkpt><trkpt lat="44.38863340446951" lon="10.203063534005482"><ele>720.0</ele><time>2026-04-18T11:59:39Z</time></trkpt><trkpt lat="44.38861711552001" lon="10.202972335151438"><ele>720.0</ele><time>2026-04-18T11:59:40Z</time></trkpt><trkpt lat="44.38860021133393" lon="10.202880628144708"><ele>720.6666666666666</ele><time>2026-04-18T11:59:41Z</time></trkpt><trkpt lat="44.388586004169056" lon="10.202787475820246"><ele>721.3333333333334</ele><time>2026-04-18T11:59:42Z</time></trkpt><trkpt lat="44.38857456226768" lon="10.202699060363296"><ele>722.0</ele><time>2026-04-18T11:59:43Z</time></trkpt><trkpt lat="44.388560958739504" lon="10.202605479083834"><ele>722.6666666666667</ele><time>2026-04-18T11:59:45Z</time></trkpt><trkpt lat="44.38853276609449" lon="10.20247504325058"><ele>723.3333333333334</ele><time>2026-04-18T11:59:47Z</time></trkpt><trkpt lat="44.38850658882179" lon="10.20231873123888"><ele>724.0</ele><time>2026-04-18T11:59:48Z</time></trkpt><trkpt lat="44.38848207539734" lon="10.202139458128899"><ele>725.0</ele><time>2026-04-18T11:59:49Z</time></trkpt><trkpt lat="44.38845566697215" lon="10.20195009979335"><ele>726.0</ele><time>2026-04-18T11:59:49.999Z</time></trkpt><trkpt lat="44.3884225738923" lon="10.20180086946793"><ele>727.0</ele><time>2026-04-18T11:59:50.999Z</time></trkpt><trkpt lat="44.3884102187623" lon="10.20169859045238"><ele>728.0</ele><time>2026-04-18T11:59:51.999Z</time></trkpt><trkpt lat="44.38837814559644" lon="10.201576743776272"><ele>729.0</ele><time>2026-04-18T11:59:53.999Z</time></trkpt><trkpt lat="44.38835104715558" lon="10.201481957149802"><ele>729.0</ele><time>2026-04-18T11:59:56.999Z</time></trkpt><trkpt lat="44.38824529586663" lon="10.201460668734292"><ele>729.0</ele><time>2026-04-18T12:00:00.999Z</time></trkpt><trkpt lat="44.388346389836585" lon="10.201468111021832"><ele>729.0</ele><time>2026-04-18T12:00:01.999Z</time></trkpt><trkpt lat="44.38823289862181" lon="10.201474240693218"><ele>729.0</ele><time>2026-04-18T12:00:03.999Z</time></trkpt><trkpt lat="44.38827631550163" lon="10.201669890683595"><ele>729.0</ele><time>2026-04-18T12:00:05.999Z</time></trkpt><trkpt lat="44.388341827169064" lon="10.201697552732513"><ele>729.0</ele><time>2026-04-18T12:00:07.999Z</time></trkpt><trkpt lat="44.3883973196286" lon="10.201787169683913"><ele>729.0</ele><time>2026-04-18T12:00:09.999Z</time></trkpt><trkpt lat="44.38842976881826" lon="10.20193441472021"><ele>729.0</ele><time>2026-04-18T12:00:10.999Z</time></trkpt><trkpt lat="44.388453804849654" lon="10.20213436603089"><ele>729.0</ele><time>2026-04-18T12:00:11.999Z</time></trkpt><trkpt lat="44.3884922213177" lon="10.202368844735666"><ele>727.3333333333334</ele><time>2026-04-18T12:00:12.999Z</time></trkpt><trkpt lat="44.38853745451094" lon="10.202648315136797"><ele>725.6666666666667</ele><time>2026-04-18T12:00:13.999Z</time></trkpt><trkpt lat="44.388578344031295" lon="10.202916488605315"><ele>724.0</ele><time>2026-04-18T12:00:14.999Z</time></trkpt><trkpt lat="44.38861756919566" lon="10.203158560679713"><ele>722.6666666666667</ele><time>2026-04-18T12:00:15.999Z</time></trkpt><trkpt lat="44.38865185997601" lon="10.20338510772598"><ele>721.3333333333334</ele><time>2026-04-18T12:00:16.999Z</time></trkpt><trkpt lat="44.38868609992808" lon="10.203595820101196"><ele>720.0</ele><time>2026-04-18T12:00:17.999Z</time></trkpt><trkpt lat="44.38871419084504" lon="10.20379033011833"><ele>720.0</ele><time>2026-04-18T12:00:18.999Z</time></trkpt><trkpt lat="44.388738171989246" lon="10.203967896948056"><ele>720.0</ele><time>2026-04-18T12:00:19.999Z</time></trkpt><trkpt lat="44.38877221441928" lon="10.204130585841117"><ele>720.0</ele><time>2026-04-18T12:00:20.999Z</time></trkpt><trkpt lat="44.388872302173695" lon="10.204249690405987"><ele>720.0</ele><time>2026-04-18T12:00:21.999Z</time></trkpt><trkpt lat="44.38900211549505" lon="10.20432059651125"><ele>720.0</ele><time>2026-04-18T12:00:22.999Z</time></trkpt><trkpt lat="44.38912923389522" lon="10.204451268864288"><ele>720.0</ele><time>2026-04-18T12:00:23.999Z</time></trkpt><trkpt lat="44.389236974196514" lon="10.204563082639257"><ele>720.0</ele><time>2026-04-18T12:00:24.999Z</time></trkpt><trkpt lat="44.389278347243014" lon="10.204760262824946"><ele>720.0</ele><time>2026-04-18T12:00:25.999Z</time></trkpt><trkpt lat="44.38930857134599" lon="10.20499561035936"><ele>720.0</ele><time>2026-04-18T12:00:26.999Z</time></trkpt><trkpt lat="44.38935386726966" lon="10.205257579526476"><ele>720.0</ele><time>2026-04-18T12:00:27.999Z</time></trkpt><trkpt lat="44.389386466480964" lon="10.205533072486462"><ele>720.0</ele><time>2026-04-18T12:00:28.999Z</time></trkpt><trkpt lat="44.38941635786233" lon="10.205801622743056"><ele>721.3333333333334</ele><time>2026-04-18T12:00:29.999Z</time></trkpt><trkpt lat="44.38942198590281" lon="10.206065426882853"><ele>722.6666666666667</ele><time>2026-04-18T12:00:30.999Z</time></trkpt><trkpt lat="44.3894338288432" lon="10.20631815379138"><ele>724.0</ele><time>2026-04-18T12:00:31.999Z</time></trkpt><trkpt lat="44.38943168820831" lon="10.206549033051093"><ele>725.6666666666667</ele><time>2026-04-18T12:00:32.999Z</time></trkpt><trkpt lat="44.38941628052147" lon="10.206775134230176"><ele>727.3333333333334</ele><time>2026-04-18T12:00:33.999Z</time></trkpt><trkpt lat="44.389393812523636" lon="10.207006925235163"><ele>729.0</ele><time>2026-04-18T12:00:34.999Z</time></trkpt><trkpt lat="44.389364807424684" lon="10.207248171160144"><ele>726.3333333333334</ele><time>2026-04-18T12:00:35.999Z</time></trkpt><trkpt lat="44.38932390500592" lon="10.207468451091865"><ele>723.6666666666667</ele><time>2026-04-18T12:00:36.999Z</time></trkpt><trkpt lat="44.38927731441964" lon="10.20769554492076"><ele>721.0</ele><time>2026-04-18T12:00:37.999Z</time></trkpt><trkpt lat="44.38922006572321" lon="10.207936384204823"><ele>716.0</ele><time>2026-04-18T12:00:38.999Z</time></trkpt><trkpt lat="44.38915129396007" lon="10.208189003230874"><ele>711.0</ele><time>2026-04-18T12:00:39.999Z</time></trkpt><trkpt lat="44.38908305755787" lon="10.208430461580596"><ele>706.0</ele><time>2026-04-18T12:00:40.999Z</time></trkpt><trkpt lat="44.38903248752717" lon="10.20868184174938"><ele>706.0</ele><time>2026-04-18T12:00:41.999Z</time></trkpt><trkpt lat="44.389008068869146" lon="10.20893523832825"><ele>706.0</ele><time>2026-04-18T12:00:42.999Z</time></trkpt><trkpt lat="44.38898675168125" lon="10.2091897414911"><ele>706.0</ele><time>2026-04-18T12:00:44Z</time></trkpt><trkpt lat="44.38897844819485" lon="10.209439825764628"><ele>703.3333333333334</ele><time>2026-04-18T12:00:45Z</time></trkpt><trkpt lat="44.38896565270361" lon="10.20969530228452"><ele>700.6666666666666</ele><time>2026-04-18T12:00:46Z</time></trkpt><trkpt lat="44.38894859556395" lon="10.209929853574994"><ele>698.0</ele><time>2026-04-18T12:00:47Z</time></trkpt><trkpt lat="44.38892861449978" lon="10.210138695338197"><ele>697.75</ele><time>2026-04-18T12:00:48Z</time></trkpt><trkpt lat="44.388916165712814" lon="10.210296487784435"><ele>697.5</ele><time>2026-04-18T12:00:49Z</time></trkpt><trkpt lat="44.38891909321792" lon="10.21044350311178"><ele>697.25</ele><time>2026-04-18T12:00:50Z</time></trkpt><trkpt lat="44.388957181364255" lon="10.21059928914411"><ele>697.0</ele><time>2026-04-18T12:00:51Z</time></trkpt><trkpt lat="44.38904920977108" lon="10.210746828391235"><ele>697.0</ele><time>2026-04-18T12:00:52Z</time></trkpt><trkpt lat="44.38915079691871" lon="10.21082737949598"><ele>697.0</ele><time>2026-04-18T12:00:53Z</time></trkpt><trkpt lat="44.3892703996611" lon="10.210863520263228"><ele>697.0</ele><time>2026-04-18T12:00:54Z</time></trkpt><trkpt lat="44.389461563728545" lon="10.21079192050544"><ele>697.0</ele><time>2026-04-18T12:00:55Z</time></trkpt><trkpt lat="44.38960614700678" lon="10.210725611188254"><ele>694.6666666666667</ele><time>2026-04-18T12:00:56Z</time></trkpt><trkpt lat="44.38975846768493" lon="10.210758659914204"><ele>692.3333333333334</ele><time>2026-04-18T12:00:57Z</time></trkpt><trkpt lat="44.38991385599992" lon="10.21083074173709"><ele>690.0</ele><time>2026-04-18T12:00:58Z</time></trkpt><trkpt lat="44.39007017311448" lon="10.210951504890467"><ele>690.0</ele><time>2026-04-18T12:00:59Z</time></trkpt><trkpt lat="44.39016006915498" lon="10.211129624347711"><ele>690.0</ele><time>2026-04-18T12:01:00Z</time></trkpt><trkpt lat="44.390244771425564" lon="10.211345770785387"><ele>690.0</ele><time>2026-04-18T12:01:01Z</time></trkpt><trkpt lat="44.3903373921681" lon="10.211559652745072"><ele>690.0</ele><time>2026-04-18T12:01:02Z</time></trkpt><trkpt lat="44.39040779473973" lon="10.211756825408745"><ele>690.0</ele><time>2026-04-18T12:01:03Z</time></trkpt><trkpt lat="44.390491341030156" lon="10.21188267417975"><ele>690.0</ele><time>2026-04-18T12:01:04Z</time></trkpt><trkpt lat="44.39061460182335" lon="10.211944389043815"><ele>690.0</ele><time>2026-04-18T12:01:05Z</time></trkpt><trkpt lat="44.39078516317096" lon="10.211954299878442"><ele>690.0</ele><time>2026-04-18T12:01:06Z</time></trkpt><trkpt lat="44.390985858198256" lon="10.211944939704999"><ele>690.0</ele><time>2026-04-18T12:01:07Z</time></trkpt><trkpt lat="44.39118048206574" lon="10.211916938569864"><ele>690.0</ele><time>2026-04-18T12:01:08Z</time></trkpt><trkpt lat="44.3913408643068" lon="10.211958843722044"><ele>687.6666666666666</ele><time>2026-04-18T12:01:09Z</time></trkpt><trkpt lat="44.39149239299756" lon="10.212045986515314"><ele>685.3333333333333</ele><time>2026-04-18T12:01:10Z</time></trkpt><trkpt lat="44.39166946883217" lon="10.212172560274853"><ele>683.0</ele><time>2026-04-18T12:01:11Z</time></trkpt><trkpt lat="44.391867953028125" lon="10.21229915694074"><ele>687.6666666666666</ele><time>2026-04-18T12:01:12Z</time></trkpt><trkpt lat="44.39205283131464" lon="10.212443316742604"><ele>692.3333333333334</ele><time>2026-04-18T12:01:13Z</time></trkpt><trkpt lat="44.39221737214989" lon="10.212553504163353"><ele>697.0</ele><time>2026-04-18T12:01:14Z</time></trkpt><trkpt lat="44.39238647904944" lon="10.212599553758416"><ele>697.0</ele><time>2026-04-18T12:01:15Z</time></trkpt><trkpt lat="44.39258456051416" lon="10.212566015747738"><ele>697.0</ele><time>2026-04-18T12:01:16Z</time></trkpt><trkpt lat="44.392803952529086" lon="10.212480081014156"><ele>697.0</ele><time>2026-04-18T12:01:17Z</time></trkpt><trkpt lat="44.39301317531831" lon="10.212399936604342"><ele>697.6666666666667</ele><time>2026-04-18T12:01:18Z</time></trkpt><trkpt lat="44.393208027170125" lon="10.212363719670327"><ele>698.3333333333334</ele><time>2026-04-18T12:01:19Z</time></trkpt><trkpt lat="44.39337559094844" lon="10.212348686533218"><ele>699.0</ele><time>2026-04-18T12:01:20Z</time></trkpt><trkpt lat="44.39351550779011" lon="10.212408135889143"><ele>699.0</ele><time>2026-04-18T12:01:21Z</time></trkpt><trkpt lat="44.39363234722526" lon="10.212542124533107"><ele>699.0</ele><time>2026-04-18T12:01:22Z</time></trkpt><trkpt lat="44.393753496782146" lon="10.21267100072848"><ele>699.0</ele><time>2026-04-18T12:01:23Z</time></trkpt><trkpt lat="44.393863461074574" lon="10.212767510089645"><ele>699.0</ele><time>2026-04-18T12:01:24Z</time></trkpt><trkpt lat="44.39399230569811" lon="10.212772177564181"><ele>698.6666666666666</ele><time>2026-04-18T12:01:25Z</time></trkpt><trkpt lat="44.394139147138624" lon="10.21267592634963"><ele>698.3333333333333</ele><time>2026-04-18T12:01:26Z</time></trkpt><trkpt lat="44.39425803914096" lon="10.212487009870078"><ele>698.0</ele><time>2026-04-18T12:01:27Z</time></trkpt><trkpt lat="44.39438979127744" lon="10.212340578530474"><ele>692.5</ele><time>2026-04-18T12:01:28Z</time></trkpt><trkpt lat="44.394507700810586" lon="10.212224911333275"><ele>687.0</ele><time>2026-04-18T12:01:29Z</time></trkpt><trkpt lat="44.394620101549684" lon="10.2121631529504"><ele>681.5</ele><time>2026-04-18T12:01:30Z</time></trkpt><trkpt lat="44.3947549641266" lon="10.21215775456244"><ele>676.0</ele><time>2026-04-18T12:01:31Z</time></trkpt><trkpt lat="44.394889512617375" lon="10.212230074859926"><ele>680.75</ele><time>2026-04-18T12:01:32Z</time></trkpt><trkpt lat="44.395012797782925" lon="10.212370214547548"><ele>685.5</ele><time>2026-04-18T12:01:33Z</time></trkpt><trkpt lat="44.39507131740309" lon="10.212531150699487"><ele>690.25</ele><time>2026-04-18T12:01:34Z</time></trkpt><trkpt lat="44.39505895723761" lon="10.212679083429151"><ele>695.0</ele><time>2026-04-18T12:01:35Z</time></trkpt><trkpt lat="44.395002607626395" lon="10.212827025301255"><ele>695.0</ele><time>2026-04-18T12:01:36Z</time></trkpt><trkpt lat="44.39489796808211" lon="10.212998219931656"><ele>695.0</ele><time>2026-04-18T12:01:37Z</time></trkpt><trkpt lat="44.39479380073803" lon="10.213183257029932"><ele>695.0</ele><time>2026-04-18T12:01:38Z</time></trkpt><trkpt lat="44.39467079476705" lon="10.213319171559395"><ele>696.3333333333333</ele><time>2026-04-18T12:01:39Z</time></trkpt><trkpt lat="44.39450202863596" lon="10.213400348515083"><ele>697.6666666666666</ele><time>2026-04-18T12:01:40Z</time></trkpt><trkpt lat="44.39431952489945" lon="10.213527720118527"><ele>699.0</ele><time>2026-04-18T12:01:41Z</time></trkpt><trkpt lat="44.394128840989495" lon="10.213634444647296"><ele>699.0</ele><time>2026-04-18T12:01:42Z</time></trkpt><trkpt lat="44.39396153197891" lon="10.213737536979135"><ele>699.0</ele><time>2026-04-18T12:01:43Z</time></trkpt><trkpt lat="44.39381371443613" lon="10.21386423578527"><ele>699.0</ele><time>2026-04-18T12:01:44Z</time></trkpt><trkpt lat="44.39368503038431" lon="10.213996366899716"><ele>698.3333333333334</ele><time>2026-04-18T12:01:45Z</time></trkpt><trkpt lat="44.39358781316517" lon="10.214168125185232"><ele>697.6666666666667</ele><time>2026-04-18T12:01:46Z</time></trkpt><trkpt lat="44.39351876085391" lon="10.214382570314699"><ele>697.0</ele><time>2026-04-18T12:01:47Z</time></trkpt><trkpt lat="44.39350108181031" lon="10.214599419210217"><ele>697.0</ele><time>2026-04-18T12:01:48Z</time></trkpt><trkpt lat="44.39346982380853" lon="10.214772564886124"><ele>697.0</ele><time>2026-04-18T12:01:49Z</time></trkpt><trkpt lat="44.39338276749924" lon="10.214907026476851"><ele>697.0</ele><time>2026-04-18T12:01:50Z</time></trkpt><trkpt lat="44.393241067927086" lon="10.214948108293509"><ele>697.0</ele><time>2026-04-18T12:01:51Z</time></trkpt><trkpt lat="44.393069477100575" lon="10.215038993193584"><ele>695.0</ele><time>2026-04-18T12:01:52Z</time></trkpt><trkpt lat="44.39287653275686" lon="10.21510271232659"><ele>693.0</ele><time>2026-04-18T12:01:53Z</time></trkpt><trkpt lat="44.39268341948293" lon="10.215179695966526"><ele>691.0</ele><time>2026-04-18T12:01:54Z</time></trkpt><trkpt lat="44.39250738307625" lon="10.215261228219187"><ele>691.0</ele><time>2026-04-18T12:01:54.999Z</time></trkpt><trkpt lat="44.392343495548026" lon="10.215337843306372"><ele>691.0</ele><time>2026-04-18T12:01:55.999Z</time></trkpt><trkpt lat="44.392199246356554" lon="10.215412424913378"><ele>691.0</ele><time>2026-04-18T12:01:56.999Z</time></trkpt><trkpt lat="44.39207460552923" lon="10.215515382655258"><ele>692.75</ele><time>2026-04-18T12:01:57.999Z</time></trkpt><trkpt lat="44.39198183317076" lon="10.215655530608823"><ele>694.5</ele><time>2026-04-18T12:01:58.999Z</time></trkpt><trkpt lat="44.39188979172953" lon="10.215800822265672"><ele>696.25</ele><time>2026-04-18T12:01:59.999Z</time></trkpt><trkpt lat="44.39179358182928" lon="10.215930242455526"><ele>698.0</ele><time>2026-04-18T12:02:00.999Z</time></trkpt><trkpt lat="44.3917217069235" lon="10.216046023439306"><ele>698.0</ele><time>2026-04-18T12:02:01.999Z</time></trkpt><trkpt lat="44.391679086599645" lon="10.216180862739908"><ele>698.0</ele><time>2026-04-18T12:02:02.999Z</time></trkpt><trkpt lat="44.39168262123226" lon="10.216370300787252"><ele>698.0</ele><time>2026-04-18T12:02:03.999Z</time></trkpt><trkpt lat="44.39171584439994" lon="10.216587273370214"><ele>698.0</ele><time>2026-04-18T12:02:04.999Z</time></trkpt><trkpt lat="44.39170516668296" lon="10.216819210079692"><ele>692.0</ele><time>2026-04-18T12:02:05.999Z</time></trkpt><trkpt lat="44.39164621110005" lon="10.217061428613842"><ele>686.0</ele><time>2026-04-18T12:02:06.999Z</time></trkpt><trkpt lat="44.39159027551274" lon="10.217293372663324"><ele>680.0</ele><time>2026-04-18T12:02:07.999Z</time></trkpt><trkpt lat="44.39158023587365" lon="10.217528920028164"><ele>676.6666666666666</ele><time>2026-04-18T12:02:08.999Z</time></trkpt><trkpt lat="44.391590231875526" lon="10.217795973392507"><ele>673.3333333333334</ele><time>2026-04-18T12:02:09.999Z</time></trkpt><trkpt lat="44.39160559171093" lon="10.21803355507586"><ele>670.0</ele><time>2026-04-18T12:02:10.999Z</time></trkpt><trkpt lat="44.39160894153544" lon="10.21824550899092"><ele>668.2</ele><time>2026-04-18T12:02:11.999Z</time></trkpt><trkpt lat="44.39159762191512" lon="10.218401858421036"><ele>666.4</ele><time>2026-04-18T12:02:12.999Z</time></trkpt><trkpt lat="44.391553186747366" lon="10.218523792350029"><ele>664.5999999999999</ele><time>2026-04-18T12:02:13.999Z</time></trkpt><trkpt lat="44.3914532085482" lon="10.218602709770266"><ele>662.8</ele><time>2026-04-18T12:02:14.999Z</time></trkpt><trkpt lat="44.391348239879626" lon="10.218644486654052"><ele>661.0</ele><time>2026-04-18T12:02:15.999Z</time></trkpt><trkpt lat="44.391219916506024" lon="10.21870711909712"><ele>664.0</ele><time>2026-04-18T12:02:16.999Z</time></trkpt><trkpt lat="44.3910637321402" lon="10.218755387612891"><ele>667.0</ele><time>2026-04-18T12:02:17.999Z</time></trkpt><trkpt lat="44.39094778201605" lon="10.218802258571719"><ele>670.0</ele><time>2026-04-18T12:02:18.999Z</time></trkpt><trkpt lat="44.3908743260441" lon="10.218883936795386"><ele>673.0</ele><time>2026-04-18T12:02:19.999Z</time></trkpt><trkpt lat="44.39083283634467" lon="10.21902787047313"><ele>673.0</ele><time>2026-04-18T12:02:20.999Z</time></trkpt><trkpt lat="44.390809499315985" lon="10.219193800794049"><ele>673.0</ele><time>2026-04-18T12:02:21.999Z</time></trkpt><trkpt lat="44.39082322802165" lon="10.21932530257974"><ele>673.0</ele><time>2026-04-18T12:02:22.999Z</time></trkpt><trkpt lat="44.390896421649416" lon="10.219431481690053"><ele>673.0</ele><time>2026-04-18T12:02:23.999Z</time></trkpt><trkpt lat="44.39100778477933" lon="10.219527820373022"><ele>673.0</ele><time>2026-04-18T12:02:24.999Z</time></trkpt><trkpt lat="44.391175048479546" lon="10.219603558372816"><ele>673.0</ele><time>2026-04-18T12:02:25.999Z</time></trkpt><trkpt lat="44.39133560565489" lon="10.219674993074488"><ele>673.0</ele><time>2026-04-18T12:02:26.999Z</time></trkpt><trkpt lat="44.391458406221226" lon="10.219755753917928"><ele>666.5</ele><time>2026-04-18T12:02:27.999Z</time></trkpt><trkpt lat="44.391533501455775" lon="10.219857750817665"><ele>660.0</ele><time>2026-04-18T12:02:28.999Z</time></trkpt><trkpt lat="44.391552542844416" lon="10.219984363091617"><ele>653.5</ele><time>2026-04-18T12:02:29.999Z</time></trkpt><trkpt lat="44.39152039328712" lon="10.220132184364699"><ele>647.0</ele><time>2026-04-18T12:02:30.999Z</time></trkpt><trkpt lat="44.39143366986637" lon="10.220318560588096"><ele>652.6666666666666</ele><time>2026-04-18T12:02:31.999Z</time></trkpt><trkpt lat="44.3913288123556" lon="10.22050858986288"><ele>658.3333333333334</ele><time>2026-04-18T12:02:32.999Z</time></trkpt><trkpt lat="44.391208675674974" lon="10.220669909825647"><ele>664.0</ele><time>2026-04-18T12:02:33.999Z</time></trkpt><trkpt lat="44.39106661655802" lon="10.22082741842311"><ele>664.0</ele><time>2026-04-18T12:02:34.999Z</time></trkpt><trkpt lat="44.39092343650403" lon="10.220981031454226"><ele>664.0</ele><time>2026-04-18T12:02:35.999Z</time></trkpt><trkpt lat="44.390765393687424" lon="10.221131344972395"><ele>664.0</ele><time>2026-04-18T12:02:36.999Z</time></trkpt><trkpt lat="44.39062628595993" lon="10.221250636884777"><ele>663.75</ele><time>2026-04-18T12:02:37.999Z</time></trkpt><trkpt lat="44.390488340255835" lon="10.221343845769795"><ele>663.5</ele><time>2026-04-18T12:02:38.999Z</time></trkpt><trkpt lat="44.390372594816206" lon="10.221430048172413"><ele>663.25</ele><time>2026-04-18T12:02:39.999Z</time></trkpt><trkpt lat="44.39029742042535" lon="10.221521501567937"><ele>663.0</ele><time>2026-04-18T12:02:40.999Z</time></trkpt><trkpt lat="44.39026061471815" lon="10.221646019893235"><ele>663.0</ele><time>2026-04-18T12:02:41.999Z</time></trkpt><trkpt lat="44.39027364681079" lon="10.221830347567554"><ele>663.0</ele><time>2026-04-18T12:02:42.999Z</time></trkpt><trkpt lat="44.39031148216268" lon="10.222037853723727"><ele>663.0</ele><time>2026-04-18T12:02:43.999Z</time></trkpt><trkpt lat="44.39033700213875" lon="10.222219703700395"><ele>663.0</ele><time>2026-04-18T12:02:44.999Z</time></trkpt><trkpt lat="44.39036610101109" lon="10.222348639347096"><ele>662.75</ele><time>2026-04-18T12:02:45.999Z</time></trkpt><trkpt lat="44.39045465407012" lon="10.222443256279016"><ele>662.5</ele><time>2026-04-18T12:02:46.999Z</time></trkpt><trkpt lat="44.39060125304226" lon="10.222482717002126"><ele>662.25</ele><time>2026-04-18T12:02:47.999Z</time></trkpt><trkpt lat="44.390784387529585" lon="10.222474041740469"><ele>662.0</ele><time>2026-04-18T12:02:48.999Z</time></trkpt><trkpt lat="44.39096211525217" lon="10.222421969799278"><ele>663.6666666666666</ele><time>2026-04-18T12:02:50Z</time></trkpt><trkpt lat="44.39115314802691" lon="10.222338731168293"><ele>665.3333333333334</ele><time>2026-04-18T12:02:51Z</time></trkpt><trkpt lat="44.39134846074435" lon="10.222260425298375"><ele>667.0</ele><time>2026-04-18T12:02:52Z</time></trkpt><trkpt lat="44.39151634012988" lon="10.222198832551275"><ele>662.0</ele><time>2026-04-18T12:02:53Z</time></trkpt><trkpt lat="44.39166969478567" lon="10.222163342705823"><ele>657.0</ele><time>2026-04-18T12:02:54Z</time></trkpt><trkpt lat="44.39180554654525" lon="10.22214505543585"><ele>652.0</ele><time>2026-04-18T12:02:55Z</time></trkpt><trkpt lat="44.39193883382408" lon="10.222139062775899"><ele>647.0</ele><time>2026-04-18T12:02:56Z</time></trkpt><trkpt lat="44.392073444744454" lon="10.222133394719885"><ele>651.25</ele><time>2026-04-18T12:02:57Z</time></trkpt><trkpt lat="44.39220854715347" lon="10.222125067486077"><ele>655.5</ele><time>2026-04-18T12:02:58Z</time></trkpt><trkpt lat="44.39233492550968" lon="10.222090662231016"><ele>659.75</ele><time>2026-04-18T12:02:59Z</time></trkpt><trkpt lat="44.39244327540623" lon="10.221962304931129"><ele>664.0</ele><time>2026-04-18T12:03:00Z</time></trkpt><trkpt lat="44.39253237801502" lon="10.22174380663908"><ele>664.0</ele><time>2026-04-18T12:03:01Z</time></trkpt><trkpt lat="44.39262928808714" lon="10.22151138521778"><ele>664.0</ele><time>2026-04-18T12:03:02Z</time></trkpt><trkpt lat="44.392754832247356" lon="10.221310641399725"><ele>664.0</ele><time>2026-04-18T12:03:03Z</time></trkpt><trkpt lat="44.392902298957395" lon="10.221115038126584"><ele>665.3333333333334</ele><time>2026-04-18T12:03:04Z</time></trkpt><trkpt lat="44.39303756676078" lon="10.220918150846883"><ele>666.6666666666666</ele><time>2026-04-18T12:03:05Z</time></trkpt><trkpt lat="44.39316469300633" lon="10.22076741895106"><ele>668.0</ele><time>2026-04-18T12:03:06Z</time></trkpt><trkpt lat="44.39327210108492" lon="10.220603586361626"><ele>668.0</ele><time>2026-04-18T12:03:07Z</time></trkpt><trkpt lat="44.39334702151007" lon="10.220385317788395"><ele>668.0</ele><time>2026-04-18T12:03:08Z</time></trkpt><trkpt lat="44.39342246636204" lon="10.220127012300782"><ele>668.0</ele><time>2026-04-18T12:03:09Z</time></trkpt><trkpt lat="44.39353600642337" lon="10.219908475156487"><ele>663.0</ele><time>2026-04-18T12:03:10Z</time></trkpt><trkpt lat="44.393657230117945" lon="10.219723460086136"><ele>658.0</ele><time>2026-04-18T12:03:11Z</time></trkpt><trkpt lat="44.39379761601251" lon="10.219552646049145"><ele>653.0</ele><time>2026-04-18T12:03:12Z</time></trkpt><trkpt lat="44.39394853613029" lon="10.219414215996379"><ele>664.6666666666666</ele><time>2026-04-18T12:03:13Z</time></trkpt><trkpt lat="44.394110187179976" lon="10.21926684384194"><ele>676.3333333333334</ele><time>2026-04-18T12:03:14Z</time></trkpt><trkpt lat="44.39426885732143" lon="10.219138640643363"><ele>688.0</ele><time>2026-04-18T12:03:15Z</time></trkpt><trkpt lat="44.39441205749136" lon="10.219007242827955"><ele>682.6666666666667</ele><time>2026-04-18T12:03:16Z</time></trkpt><trkpt lat="44.39453266312287" lon="10.218828001773101"><ele>677.3333333333334</ele><time>2026-04-18T12:03:17Z</time></trkpt><trkpt lat="44.394638391307964" lon="10.218616219452981"><ele>672.0</ele><time>2026-04-18T12:03:18Z</time></trkpt><trkpt lat="44.3947175369264" lon="10.218339646614407"><ele>679.3333333333334</ele><time>2026-04-18T12:03:19Z</time></trkpt><trkpt lat="44.39482302675716" lon="10.218094744343503"><ele>686.6666666666667</ele><time>2026-04-18T12:03:20Z</time></trkpt><trkpt lat="44.39490884442965" lon="10.217858908899238"><ele>694.0</ele><time>2026-04-18T12:03:21Z</time></trkpt><trkpt lat="44.39498952904236" lon="10.217637179357233"><ele>694.0</ele><time>2026-04-18T12:03:22Z</time></trkpt><trkpt lat="44.39506215145251" lon="10.217433909485166"><ele>694.0</ele><time>2026-04-18T12:03:23Z</time></trkpt><trkpt lat="44.39513124183179" lon="10.217275644373936"><ele>694.0</ele><time>2026-04-18T12:03:24Z</time></trkpt><trkpt lat="44.395216856844506" lon="10.2171428226592"><ele>694.0</ele><time>2026-04-18T12:03:25Z</time></trkpt><trkpt lat="44.39531884366084" lon="10.217054189990073"><ele>693.6666666666667</ele><time>2026-04-18T12:03:26Z</time></trkpt><trkpt lat="44.39545486941671" lon="10.217008943974859"><ele>693.3333333333334</ele><time>2026-04-18T12:03:27Z</time></trkpt><trkpt lat="44.395619186887785" lon="10.21697825691025"><ele>693.0</ele><time>2026-04-18T12:03:28Z</time></trkpt><trkpt lat="44.39580777356722" lon="10.216947141750808"><ele>693.0</ele><time>2026-04-18T12:03:29Z</time></trkpt><trkpt lat="44.39598135979385" lon="10.216902126195093"><ele>693.0</ele><time>2026-04-18T12:03:30Z</time></trkpt><trkpt lat="44.39614090498398" lon="10.216790192360708"><ele>693.0</ele><time>2026-04-18T12:03:31Z</time></trkpt><trkpt lat="44.396302944024434" lon="10.216612435670172"><ele>690.3333333333334</ele><time>2026-04-18T12:03:32Z</time></trkpt><trkpt lat="44.39647475262094" lon="10.216473525810617"><ele>687.6666666666667</ele><time>2026-04-18T12:03:33Z</time></trkpt><trkpt lat="44.39662219793064" lon="10.21634025567707"><ele>685.0</ele><time>2026-04-18T12:03:34Z</time></trkpt><trkpt lat="44.39677077166031" lon="10.216230830272135"><ele>685.0</ele><time>2026-04-18T12:03:35Z</time></trkpt><trkpt lat="44.39694301121132" lon="10.216142900080253"><ele>685.0</ele><time>2026-04-18T12:03:36Z</time></trkpt><trkpt lat="44.397143967953745" lon="10.21610647383505"><ele>685.0</ele><time>2026-04-18T12:03:37Z</time></trkpt><trkpt lat="44.39733183415457" lon="10.21604125290884"><ele>692.6666666666667</ele><time>2026-04-18T12:03:38Z</time></trkpt><trkpt lat="44.39750914544408" lon="10.21591274896988"><ele>700.3333333333334</ele><time>2026-04-18T12:03:39Z</time></trkpt><trkpt lat="44.3976676436494" lon="10.215783463754573"><ele>708.0</ele><time>2026-04-18T12:03:40Z</time></trkpt><trkpt lat="44.397820283005444" lon="10.215700540513668"><ele>708.0</ele><time>2026-04-18T12:03:41Z</time></trkpt><trkpt lat="44.39796329569873" lon="10.215682454009846"><ele>708.0</ele><time>2026-04-18T12:03:42Z</time></trkpt><trkpt lat="44.39811255697235" lon="10.215732030437758"><ele>708.0</ele><time>2026-04-18T12:03:43Z</time></trkpt><trkpt lat="44.398255582587105" lon="10.215867054051447"><ele>708.0</ele><time>2026-04-18T12:03:44Z</time></trkpt><trkpt lat="44.398396436093265" lon="10.216015639517156"><ele>708.0</ele><time>2026-04-18T12:03:45Z</time></trkpt><trkpt lat="44.39848977613627" lon="10.216135960862088"><ele>708.0</ele><time>2026-04-18T12:03:46Z</time></trkpt><trkpt lat="44.39852203062663" lon="10.216262785859056"><ele>708.0</ele><time>2026-04-18T12:03:47Z</time></trkpt><trkpt lat="44.398489882426595" lon="10.216401119778403"><ele>714.6666666666666</ele><time>2026-04-18T12:03:48Z</time></trkpt><trkpt lat="44.39838768085413" lon="10.216515281832864"><ele>721.3333333333333</ele><time>2026-04-18T12:03:49Z</time></trkpt><trkpt lat="44.398264135549304" lon="10.216682467869628"><ele>728.0</ele><time>2026-04-18T12:03:50Z</time></trkpt><trkpt lat="44.39812427062983" lon="10.216848015592998"><ele>730.6666666666666</ele><time>2026-04-18T12:03:51Z</time></trkpt><trkpt lat="44.39799735914399" lon="10.217031949568112"><ele>733.3333333333334</ele><time>2026-04-18T12:03:52Z</time></trkpt><trkpt lat="44.39785988459036" lon="10.217230523665956"><ele>736.0</ele><time>2026-04-18T12:03:53Z</time></trkpt><trkpt lat="44.39771109710878" lon="10.217418808924302"><ele>736.0</ele><time>2026-04-18T12:03:54Z</time></trkpt><trkpt lat="44.39758886976007" lon="10.217585878286368"><ele>736.0</ele><time>2026-04-18T12:03:55Z</time></trkpt><trkpt lat="44.397494361120074" lon="10.217744082080873"><ele>736.0</ele><time>2026-04-18T12:03:56Z</time></trkpt><trkpt lat="44.39743524553939" lon="10.21792736082057"><ele>736.0</ele><time>2026-04-18T12:03:57Z</time></trkpt><trkpt lat="44.39741120097969" lon="10.218143018658552"><ele>736.0</ele><time>2026-04-18T12:03:58Z</time></trkpt><trkpt lat="44.397370290417584" lon="10.218389392878542"><ele>736.0</ele><time>2026-04-18T12:03:58.999Z</time></trkpt><trkpt lat="44.39727527637148" lon="10.218592556381045"><ele>738.6666666666667</ele><time>2026-04-18T12:03:59.999Z</time></trkpt><trkpt lat="44.397146696589715" lon="10.2188015017763"><ele>741.3333333333334</ele><time>2026-04-18T12:04:00.999Z</time></trkpt><trkpt lat="44.397030152927634" lon="10.21903215208009"><ele>744.0</ele><time>2026-04-18T12:04:01.999Z</time></trkpt><trkpt lat="44.396924041382796" lon="10.219258278244844"><ele>744.0</ele><time>2026-04-18T12:04:02.999Z</time></trkpt><trkpt lat="44.39682204539899" lon="10.219460065053006"><ele>744.0</ele><time>2026-04-18T12:04:03.999Z</time></trkpt><trkpt lat="44.39674543763966" lon="10.219650380811295"><ele>744.0</ele><time>2026-04-18T12:04:04.999Z</time></trkpt><trkpt lat="44.39671352342985" lon="10.219848602801898"><ele>745.3333333333334</ele><time>2026-04-18T12:04:05.999Z</time></trkpt><trkpt lat="44.39675842285972" lon="10.220062689280784"><ele>746.6666666666667</ele><time>2026-04-18T12:04:06.999Z</time></trkpt><trkpt lat="44.39684050828623" lon="10.22031066606223"><ele>748.0</ele><time>2026-04-18T12:04:07.999Z</time></trkpt><trkpt lat="44.39693476627093" lon="10.220538638104028"><ele>745.0</ele><time>2026-04-18T12:04:08.999Z</time></trkpt><trkpt lat="44.39703608786539" lon="10.220736381822611"><ele>742.0</ele><time>2026-04-18T12:04:09.999Z</time></trkpt><trkpt lat="44.39716857336233" lon="10.220907751996057"><ele>739.0</ele><time>2026-04-18T12:04:10.999Z</time></trkpt><trkpt lat="44.39734255043411" lon="10.221023676748517"><ele>739.0</ele><time>2026-04-18T12:04:11.999Z</time></trkpt><trkpt lat="44.39749970430089" lon="10.221127376168933"><ele>739.0</ele><time>2026-04-18T12:04:12.999Z</time></trkpt><trkpt lat="44.39762679152221" lon="10.221282980639144"><ele>739.0</ele><time>2026-04-18T12:04:13.999Z</time></trkpt><trkpt lat="44.397709849030875" lon="10.221504992901417"><ele>743.3333333333334</ele><time>2026-04-18T12:04:14.999Z</time></trkpt><trkpt lat="44.397766683704695" lon="10.221778680342549"><ele>747.6666666666666</ele><time>2026-04-18T12:04:15.999Z</time></trkpt><trkpt lat="44.39783261465318" lon="10.222069024792505"><ele>752.0</ele><time>2026-04-18T12:04:16.999Z</time></trkpt><trkpt lat="44.39792066021579" lon="10.222315176729895"><ele>748.3333333333333</ele><time>2026-04-18T12:04:17.999Z</time></trkpt><trkpt lat="44.398005062530714" lon="10.222547423729315"><ele>744.6666666666666</ele><time>2026-04-18T12:04:18.999Z</time></trkpt><trkpt lat="44.39808649019882" lon="10.22277277081491"><ele>741.0</ele><time>2026-04-18T12:04:19.999Z</time></trkpt><trkpt lat="44.3981662781642" lon="10.22298058357741"><ele>744.6666666666666</ele><time>2026-04-18T12:04:20.999Z</time></trkpt><trkpt lat="44.398253093391055" lon="10.223166989360864"><ele>748.3333333333333</ele><time>2026-04-18T12:04:21.999Z</time></trkpt><trkpt lat="44.398354715375206" lon="10.22333581166446"><ele>752.0</ele><time>2026-04-18T12:04:22.999Z</time></trkpt><trkpt lat="44.398504539883014" lon="10.223445250556402"><ele>752.0</ele><time>2026-04-18T12:04:23.999Z</time></trkpt><trkpt lat="44.39870548037438" lon="10.223490610778946"><ele>752.0</ele><time>2026-04-18T12:04:24.999Z</time></trkpt><trkpt lat="44.39892366528132" lon="10.223538667569489"><ele>752.0</ele><time>2026-04-18T12:04:25.999Z</time></trkpt><trkpt lat="44.39911364903574" lon="10.223596881397373"><ele>750.6666666666666</ele><time>2026-04-18T12:04:26.999Z</time></trkpt><trkpt lat="44.39927420005916" lon="10.223637107865972"><ele>749.3333333333334</ele><time>2026-04-18T12:04:27.999Z</time></trkpt><trkpt lat="44.39941386444204" lon="10.223606254784256"><ele>748.0</ele><time>2026-04-18T12:04:28.999Z</time></trkpt><trkpt lat="44.399575520194695" lon="10.223486469301083"><ele>750.6666666666667</ele><time>2026-04-18T12:04:29.999Z</time></trkpt><trkpt lat="44.399751048181194" lon="10.22332466974216"><ele>753.3333333333334</ele><time>2026-04-18T12:04:30.999Z</time></trkpt><trkpt lat="44.39996153703845" lon="10.223221371359813"><ele>756.0</ele><time>2026-04-18T12:04:31.999Z</time></trkpt><trkpt lat="44.40017259155076" lon="10.22314133871362"><ele>748.0</ele><time>2026-04-18T12:04:32.999Z</time></trkpt><trkpt lat="44.400397430133324" lon="10.223070351811927"><ele>740.0</ele><time>2026-04-18T12:04:33.999Z</time></trkpt><trkpt lat="44.40062805217462" lon="10.22303195742301"><ele>740.0</ele><time>2026-04-18T12:04:34.999Z</time></trkpt><trkpt lat="44.400828824319106" lon="10.222998144138568"><ele>740.0</ele><time>2026-04-18T12:04:35.999Z</time></trkpt><trkpt lat="44.40101296210524" lon="10.223008451265413"><ele>740.0</ele><time>2026-04-18T12:04:36.999Z</time></trkpt><trkpt lat="44.40117973307345" lon="10.22309827064032"><ele>746.0</ele><time>2026-04-18T12:04:37.999Z</time></trkpt><trkpt lat="44.40135546728896" lon="10.223211654971378"><ele>752.0</ele><time>2026-04-18T12:04:38.999Z</time></trkpt><trkpt lat="44.401544189797804" lon="10.223249122208601"><ele>758.0</ele><time>2026-04-18T12:04:39.999Z</time></trkpt><trkpt lat="44.40173763388917" lon="10.223251492405582"><ele>758.0</ele><time>2026-04-18T12:04:40.999Z</time></trkpt><trkpt lat="44.40193947742957" lon="10.223301662053572"><ele>758.0</ele><time>2026-04-18T12:04:41.999Z</time></trkpt><trkpt lat="44.40211122848286" lon="10.223409264332872"><ele>758.0</ele><time>2026-04-18T12:04:42.999Z</time></trkpt><trkpt lat="44.40225061349904" lon="10.223526968617398"><ele>757.3333333333333</ele><time>2026-04-18T12:04:43.999Z</time></trkpt><trkpt lat="44.40234590503673" lon="10.22370891299162"><ele>756.6666666666666</ele><time>2026-04-18T12:04:44.999Z</time></trkpt><trkpt lat="44.40245585343577" lon="10.223957932903273"><ele>756.0</ele><time>2026-04-18T12:04:45.999Z</time></trkpt><trkpt lat="44.40254531626318" lon="10.22424158382971"><ele>756.0</ele><time>2026-04-18T12:04:46.999Z</time></trkpt><trkpt lat="44.402602806986145" lon="10.224540835543808"><ele>756.0</ele><time>2026-04-18T12:04:47.999Z</time></trkpt><trkpt lat="44.4026878631335" lon="10.224813408688814"><ele>756.0</ele><time>2026-04-18T12:04:48.999Z</time></trkpt><trkpt lat="44.4027873009688" lon="10.225012231274109"><ele>758.3333333333334</ele><time>2026-04-18T12:04:49.999Z</time></trkpt><trkpt lat="44.402925382513004" lon="10.225133005643839"><ele>760.6666666666667</ele><time>2026-04-18T12:04:50.999Z</time></trkpt><trkpt lat="44.403114695422516" lon="10.225248101180291"><ele>763.0</ele><time>2026-04-18T12:04:51.999Z</time></trkpt><trkpt lat="44.40328218315751" lon="10.22543618561962"><ele>761.6666666666667</ele><time>2026-04-18T12:04:52.999Z</time></trkpt><trkpt lat="44.403423748416" lon="10.225677341050163"><ele>760.3333333333334</ele><time>2026-04-18T12:04:53.999Z</time></trkpt><trkpt lat="44.40354546345924" lon="10.225907393560009"><ele>759.0</ele><time>2026-04-18T12:04:54.999Z</time></trkpt><trkpt lat="44.403636806106064" lon="10.226142916588062"><ele>759.0</ele><time>2026-04-18T12:04:56Z</time></trkpt><trkpt lat="44.40370150612775" lon="10.226420468357674"><ele>759.0</ele><time>2026-04-18T12:04:57Z</time></trkpt><trkpt lat="44.40374250019519" lon="10.22672279734788"><ele>759.0</ele><time>2026-04-18T12:04:58Z</time></trkpt><trkpt lat="44.40378902014058" lon="10.227031202939619"><ele>755.3333333333334</ele><time>2026-04-18T12:04:59Z</time></trkpt><trkpt lat="44.40384158464368" lon="10.227305214475123"><ele>751.6666666666667</ele><time>2026-04-18T12:05:00Z</time></trkpt><trkpt lat="44.4038967695944" lon="10.227562634400655"><ele>748.0</ele><time>2026-04-18T12:05:01Z</time></trkpt><trkpt lat="44.40392944791552" lon="10.227811503968562"><ele>748.0</ele><time>2026-04-18T12:05:02Z</time></trkpt><trkpt lat="44.40393445090948" lon="10.228031826650078"><ele>748.0</ele><time>2026-04-18T12:05:03Z</time></trkpt><trkpt lat="44.403967670738524" lon="10.228211418865795"><ele>748.0</ele><time>2026-04-18T12:05:04Z</time></trkpt><trkpt lat="44.40405554951367" lon="10.228363916463334"><ele>748.0</ele><time>2026-04-18T12:05:05Z</time></trkpt><trkpt lat="44.40421659091657" lon="10.228492481513886"><ele>748.0</ele><time>2026-04-18T12:05:06Z</time></trkpt><trkpt lat="44.40439595216114" lon="10.228625978086567"><ele>748.0</ele><time>2026-04-18T12:05:07Z</time></trkpt><trkpt lat="44.40455953372542" lon="10.228834054073154"><ele>748.0</ele><time>2026-04-18T12:05:08Z</time></trkpt><trkpt lat="44.40471459707683" lon="10.229068407758053"><ele>748.0</ele><time>2026-04-18T12:05:09Z</time></trkpt><trkpt lat="44.40486249116903" lon="10.229280756174555"><ele>748.0</ele><time>2026-04-18T12:05:10Z</time></trkpt><trkpt lat="44.40499214658529" lon="10.229447750887182"><ele>748.0</ele><time>2026-04-18T12:05:11Z</time></trkpt><trkpt lat="44.40508630114963" lon="10.229591323009545"><ele>748.0</ele><time>2026-04-18T12:05:12Z</time></trkpt><trkpt lat="44.40515413484006" lon="10.229749332627456"><ele>748.0</ele><time>2026-04-18T12:05:13Z</time></trkpt><trkpt lat="44.40519579195781" lon="10.229957081311145"><ele>748.0</ele><time>2026-04-18T12:05:14Z</time></trkpt><trkpt lat="44.40519825743474" lon="10.230208909899387"><ele>752.6666666666667</ele><time>2026-04-18T12:05:15Z</time></trkpt><trkpt lat="44.405178803760876" lon="10.230468886037247"><ele>757.3333333333334</ele><time>2026-04-18T12:05:16Z</time></trkpt><trkpt lat="44.40513488635938" lon="10.23070156454543"><ele>762.0</ele><time>2026-04-18T12:05:17Z</time></trkpt><trkpt lat="44.40506371961499" lon="10.230909667319695"><ele>762.3333333333334</ele><time>2026-04-18T12:05:18Z</time></trkpt><trkpt lat="44.405038048860334" lon="10.231122317211462"><ele>762.6666666666667</ele><time>2026-04-18T12:05:19Z</time></trkpt><trkpt lat="44.40506077850083" lon="10.231388854625813"><ele>763.0</ele><time>2026-04-18T12:05:20Z</time></trkpt><trkpt lat="44.405108847430256" lon="10.231650262613124"><ele>763.0</ele><time>2026-04-18T12:05:21Z</time></trkpt><trkpt lat="44.40513114423008" lon="10.231917190210497"><ele>763.0</ele><time>2026-04-18T12:05:22Z</time></trkpt><trkpt lat="44.40510735236739" lon="10.23219263516255"><ele>763.0</ele><time>2026-04-18T12:05:23Z</time></trkpt><trkpt lat="44.40506087528882" lon="10.232471616310093"><ele>761.6666666666667</ele><time>2026-04-18T12:05:24Z</time></trkpt><trkpt lat="44.4050131077313" lon="10.232727881278862"><ele>760.3333333333334</ele><time>2026-04-18T12:05:25Z</time></trkpt><trkpt lat="44.404956027894656" lon="10.233004166327543"><ele>759.0</ele><time>2026-04-18T12:05:26Z</time></trkpt><trkpt lat="44.40488970776437" lon="10.233278611567265"><ele>755.0</ele><time>2026-04-18T12:05:27Z</time></trkpt><trkpt lat="44.40481058567541" lon="10.233564616325259"><ele>751.0</ele><time>2026-04-18T12:05:28Z</time></trkpt><trkpt lat="44.40473193135947" lon="10.23387740144656"><ele>759.0</ele><time>2026-04-18T12:05:29Z</time></trkpt><trkpt lat="44.404653532422905" lon="10.234158947442575"><ele>767.0</ele><time>2026-04-18T12:05:30Z</time></trkpt><trkpt lat="44.40459126505644" lon="10.234420720639903"><ele>775.0</ele><time>2026-04-18T12:05:31Z</time></trkpt><trkpt lat="44.40454485554017" lon="10.234670005574577"><ele>771.6666666666666</ele><time>2026-04-18T12:05:32Z</time></trkpt><trkpt lat="44.40451383792444" lon="10.234913011098048"><ele>768.3333333333333</ele><time>2026-04-18T12:05:33Z</time></trkpt><trkpt lat="44.40450209679308" lon="10.2351376975771"><ele>765.0</ele><time>2026-04-18T12:05:34Z</time></trkpt><trkpt lat="44.40452236326999" lon="10.235350792820144"><ele>765.0</ele><time>2026-04-18T12:05:35Z</time></trkpt><trkpt lat="44.40460150946144" lon="10.235520204815861"><ele>765.0</ele><time>2026-04-18T12:05:36Z</time></trkpt><trkpt lat="44.40472358733175" lon="10.235645407321785"><ele>765.0</ele><time>2026-04-18T12:05:37Z</time></trkpt><trkpt lat="44.404875807315804" lon="10.235741883178013"><ele>758.6666666666666</ele><time>2026-04-18T12:05:38Z</time></trkpt><trkpt lat="44.40502883795915" lon="10.235865227498936"><ele>752.3333333333333</ele><time>2026-04-18T12:05:39Z</time></trkpt><trkpt lat="44.4051152570577" lon="10.236054015761482"><ele>746.0</ele><time>2026-04-18T12:05:40Z</time></trkpt><trkpt lat="44.40514054835923" lon="10.236279374600489"><ele>747.3333333333333</ele><time>2026-04-18T12:05:41Z</time></trkpt><trkpt lat="44.40514502773327" lon="10.236526732020236"><ele>748.6666666666666</ele><time>2026-04-18T12:05:42Z</time></trkpt><trkpt lat="44.40515557707189" lon="10.236771304349535"><ele>750.0</ele><time>2026-04-18T12:05:43Z</time></trkpt><trkpt lat="44.40514676223604" lon="10.236974572332127"><ele>750.0</ele><time>2026-04-18T12:05:44Z</time></trkpt><trkpt lat="44.40514014536537" lon="10.237160471813086"><ele>750.0</ele><time>2026-04-18T12:05:45Z</time></trkpt><trkpt lat="44.405134236720144" lon="10.237313529506647"><ele>750.0</ele><time>2026-04-18T12:05:46Z</time></trkpt><trkpt lat="44.40513637886171" lon="10.237436659430045"><ele>750.0</ele><time>2026-04-18T12:05:47Z</time></trkpt><trkpt lat="44.405166781754126" lon="10.237534344605876"><ele>750.0</ele><time>2026-04-18T12:05:48Z</time></trkpt><trkpt lat="44.40522726910222" lon="10.237621195803069"><ele>749.0</ele><time>2026-04-18T12:05:49Z</time></trkpt><trkpt lat="44.405319257512836" lon="10.237717905541869"><ele>748.0</ele><time>2026-04-18T12:05:50Z</time></trkpt><trkpt lat="44.40543297775083" lon="10.23778667860058"><ele>747.0</ele><time>2026-04-18T12:05:51Z</time></trkpt><trkpt lat="44.405551433897564" lon="10.237861602450891"><ele>746.0</ele><time>2026-04-18T12:05:52Z</time></trkpt><trkpt lat="44.40569013398141" lon="10.237914968034277"><ele>746.0</ele><time>2026-04-18T12:05:53Z</time></trkpt><trkpt lat="44.40587387462313" lon="10.237967716633943"><ele>746.0</ele><time>2026-04-18T12:05:54Z</time></trkpt><trkpt lat="44.4060653902972" lon="10.238000484115894"><ele>746.0</ele><time>2026-04-18T12:05:55Z</time></trkpt><trkpt lat="44.406241137053925" lon="10.23801678266319"><ele>745.0</ele><time>2026-04-18T12:05:56Z</time></trkpt><trkpt lat="44.40640473414534" lon="10.238011802963907"><ele>744.0</ele><time>2026-04-18T12:05:57Z</time></trkpt><trkpt lat="44.40656118745462" lon="10.237979390757056"><ele>743.0</ele><time>2026-04-18T12:05:58Z</time></trkpt><trkpt lat="44.40670725400357" lon="10.237971974685998"><ele>743.0</ele><time>2026-04-18T12:05:59Z</time></trkpt><trkpt lat="44.40685385892749" lon="10.238027149443809"><ele>743.0</ele><time>2026-04-18T12:06:00Z</time></trkpt><trkpt lat="44.407006475822996" lon="10.238138839328457"><ele>743.0</ele><time>2026-04-18T12:06:01Z</time></trkpt><trkpt lat="44.407148085326746" lon="10.23820379634158"><ele>745.25</ele><time>2026-04-18T12:06:02Z</time></trkpt><trkpt lat="44.40728888023167" lon="10.238236245412883"><ele>747.5</ele><time>2026-04-18T12:06:03Z</time></trkpt><trkpt lat="44.40744434704451" lon="10.23823429071183"><ele>749.75</ele><time>2026-04-18T12:06:04Z</time></trkpt><trkpt lat="44.407589462277286" lon="10.23822023325386"><ele>752.0</ele><time>2026-04-18T12:06:05Z</time></trkpt><trkpt lat="44.40769882027818" lon="10.238243734883572"><ele>752.0</ele><time>2026-04-18T12:06:06Z</time></trkpt><trkpt lat="44.40776969408111" lon="10.238350103609207"><ele>752.0</ele><time>2026-04-18T12:06:06.999Z</time></trkpt><trkpt lat="44.40786160536299" lon="10.238471827441211"><ele>752.0</ele><time>2026-04-18T12:06:07.999Z</time></trkpt><trkpt lat="44.40795293768531" lon="10.2386412781082"><ele>752.0</ele><time>2026-04-18T12:06:08.999Z</time></trkpt><trkpt lat="44.408056522102825" lon="10.238798818419584"><ele>751.5</ele><time>2026-04-18T12:06:09.999Z</time></trkpt><trkpt lat="44.408152714380016" lon="10.238935419787655"><ele>751.0</ele><time>2026-04-18T12:06:10.999Z</time></trkpt><trkpt lat="44.40823803905742" lon="10.239055558460024"><ele>750.5</ele><time>2026-04-18T12:06:11.999Z</time></trkpt><trkpt lat="44.40831004489061" lon="10.239163861235012"><ele>750.0</ele><time>2026-04-18T12:06:12.999Z</time></trkpt><trkpt lat="44.40834465158291" lon="10.239284066168983"><ele>750.0</ele><time>2026-04-18T12:06:13.999Z</time></trkpt><trkpt lat="44.40834180096294" lon="10.239429011320116"><ele>750.0</ele><time>2026-04-18T12:06:14.999Z</time></trkpt><trkpt lat="44.40828227210497" lon="10.239618768273782"><ele>750.0</ele><time>2026-04-18T12:06:15.999Z</time></trkpt><trkpt lat="44.40824338023084" lon="10.23983486125186"><ele>750.0</ele><time>2026-04-18T12:06:16.999Z</time></trkpt><trkpt lat="44.408199939988464" lon="10.240025438977312"><ele>749.5</ele><time>2026-04-18T12:06:17.999Z</time></trkpt><trkpt lat="44.40819183573627" lon="10.240183526624149"><ele>749.0</ele><time>2026-04-18T12:06:18.999Z</time></trkpt><trkpt lat="44.408233244027016" lon="10.240326223953241"><ele>748.5</ele><time>2026-04-18T12:06:19.999Z</time></trkpt><trkpt lat="44.408325628483986" lon="10.240430672279144"><ele>748.0</ele><time>2026-04-18T12:06:20.999Z</time></trkpt><trkpt lat="44.40845436444087" lon="10.240460084976448"><ele>748.0</ele><time>2026-04-18T12:06:21.999Z</time></trkpt><trkpt lat="44.40858489560148" lon="10.240395874437807"><ele>748.0</ele><time>2026-04-18T12:06:22.999Z</time></trkpt><trkpt lat="44.40868513999695" lon="10.240267322646012"><ele>748.0</ele><time>2026-04-18T12:06:23.999Z</time></trkpt><trkpt lat="44.40879728849792" lon="10.240093175442617"><ele>748.0</ele><time>2026-04-18T12:06:24.999Z</time></trkpt><trkpt lat="44.40893995372686" lon="10.23993997408936"><ele>743.0</ele><time>2026-04-18T12:06:25.999Z</time></trkpt><trkpt lat="44.409071052062096" lon="10.23976762246711"><ele>738.0</ele><time>2026-04-18T12:06:26.999Z</time></trkpt><trkpt lat="44.40919249882852" lon="10.239623870511119"><ele>733.0</ele><time>2026-04-18T12:06:27.999Z</time></trkpt><trkpt lat="44.40929269609522" lon="10.239549206903002"><ele>733.0</ele><time>2026-04-18T12:06:28.999Z</time></trkpt><trkpt lat="44.40942703275513" lon="10.239497113290845"><ele>733.0</ele><time>2026-04-18T12:06:29.999Z</time></trkpt><trkpt lat="44.40960366788289" lon="10.239540487969208"><ele>733.0</ele><time>2026-04-18T12:06:30.999Z</time></trkpt><trkpt lat="44.40975006018114" lon="10.23957516267291"><ele>735.3333333333334</ele><time>2026-04-18T12:06:31.999Z</time></trkpt><trkpt lat="44.40987626302834" lon="10.239519042516678"><ele>737.6666666666666</ele><time>2026-04-18T12:06:32.999Z</time></trkpt><trkpt lat="44.40999501106979" lon="10.239360137302015"><ele>740.0</ele><time>2026-04-18T12:06:33.999Z</time></trkpt><trkpt lat="44.41007486503829" lon="10.239133156771622"><ele>734.0</ele><time>2026-04-18T12:06:34.999Z</time></trkpt><trkpt lat="44.41016625332341" lon="10.238881405033856"><ele>728.0</ele><time>2026-04-18T12:06:35.999Z</time></trkpt><trkpt lat="44.41024498653029" lon="10.238664970724384"><ele>722.0</ele><time>2026-04-18T12:06:36.999Z</time></trkpt><trkpt lat="44.41032865852411" lon="10.238520920886979"><ele>722.0</ele><time>2026-04-18T12:06:37.999Z</time></trkpt><trkpt lat="44.41044937082011" lon="10.238413539273695"><ele>722.0</ele><time>2026-04-18T12:06:38.999Z</time></trkpt><trkpt lat="44.41061642976227" lon="10.238323235043437"><ele>722.0</ele><time>2026-04-18T12:06:39.999Z</time></trkpt><trkpt lat="44.41078581342421" lon="10.238216522648212"><ele>717.6666666666666</ele><time>2026-04-18T12:06:40.999Z</time></trkpt><trkpt lat="44.41096258246679" lon="10.238120589123856"><ele>713.3333333333334</ele><time>2026-04-18T12:06:41.999Z</time></trkpt><trkpt lat="44.41113156887576" lon="10.238016746404464"><ele>709.0</ele><time>2026-04-18T12:06:42.999Z</time></trkpt><trkpt lat="44.411299349349036" lon="10.237893110674488"><ele>715.6666666666667</ele><time>2026-04-18T12:06:43.999Z</time></trkpt><trkpt lat="44.41143512629894" lon="10.237728268419557"><ele>722.3333333333334</ele><time>2026-04-18T12:06:44.999Z</time></trkpt><trkpt lat="44.41155065119045" lon="10.237533422076547"><ele>729.0</ele><time>2026-04-18T12:06:45.999Z</time></trkpt><trkpt lat="44.411667228509145" lon="10.237374528582844"><ele>726.75</ele><time>2026-04-18T12:06:46.999Z</time></trkpt><trkpt lat="44.41176959531043" lon="10.237259155068484"><ele>724.5</ele><time>2026-04-18T12:06:47.999Z</time></trkpt><trkpt lat="44.41188081116679" lon="10.237202917829345"><ele>722.25</ele><time>2026-04-18T12:06:48.999Z</time></trkpt><trkpt lat="44.41202593104418" lon="10.23721426601746"><ele>720.0</ele><time>2026-04-18T12:06:49.999Z</time></trkpt><trkpt lat="44.41217234727858" lon="10.237230952869366"><ele>720.0</ele><time>2026-04-18T12:06:50.999Z</time></trkpt><trkpt lat="44.41230101490583" lon="10.237213571745455"><ele>720.0</ele><time>2026-04-18T12:06:51.999Z</time></trkpt><trkpt lat="44.412411410446836" lon="10.237085604219523"><ele>720.0</ele><time>2026-04-18T12:06:52.999Z</time></trkpt><trkpt lat="44.412498706140816" lon="10.23688800464417"><ele>720.0</ele><time>2026-04-18T12:06:53.999Z</time></trkpt><trkpt lat="44.412569241555865" lon="10.236625468853394"><ele>713.3333333333334</ele><time>2026-04-18T12:06:54.999Z</time></trkpt><trkpt lat="44.412681394559094" lon="10.236389904272936"><ele>706.6666666666667</ele><time>2026-04-18T12:06:55.999Z</time></trkpt><trkpt lat="44.412806439033744" lon="10.236185333995387"><ele>700.0</ele><time>2026-04-18T12:06:56.999Z</time></trkpt><trkpt lat="44.41292825150223" lon="10.2360068563354"><ele>703.25</ele><time>2026-04-18T12:06:57.999Z</time></trkpt><trkpt lat="44.41302757744033" lon="10.235871944090277"><ele>706.5</ele><time>2026-04-18T12:06:58.999Z</time></trkpt><trkpt lat="44.41311216936599" lon="10.235777373998577"><ele>709.75</ele><time>2026-04-18T12:06:59.999Z</time></trkpt><trkpt lat="44.41320260077733" lon="10.235718809930452"><ele>713.0</ele><time>2026-04-18T12:07:00.999Z</time></trkpt><trkpt lat="44.41332331242695" lon="10.235774221142"><ele>713.0</ele><time>2026-04-18T12:07:02Z</time></trkpt><trkpt lat="44.41342283773777" lon="10.23591228351885"><ele>713.0</ele><time>2026-04-18T12:07:03Z</time></trkpt><trkpt lat="44.41344991129902" lon="10.23609226290861"><ele>713.0</ele><time>2026-04-18T12:07:04Z</time></trkpt><trkpt lat="44.41345320691539" lon="10.236244559893397"><ele>713.0</ele><time>2026-04-18T12:07:05Z</time></trkpt><trkpt lat="44.41347148537714" lon="10.236347949744879"><ele>713.0</ele><time>2026-04-18T12:07:07Z</time></trkpt><trkpt lat="44.41347442562848" lon="10.236448881728277"><ele>713.0</ele><time>2026-04-18T12:07:21Z</time></trkpt><trkpt lat="44.41352716988566" lon="10.236602550572735"><ele>713.0</ele><time>2026-04-18T12:07:22Z</time></trkpt><trkpt lat="44.41357125529682" lon="10.236773145403841"><ele>713.0</ele><time>2026-04-18T12:07:23Z</time></trkpt><trkpt lat="44.413653664002084" lon="10.236996215741542"><ele>713.6666666666666</ele><time>2026-04-18T12:07:24Z</time></trkpt><trkpt lat="44.4137799598023" lon="10.237192389198405"><ele>714.3333333333334</ele><time>2026-04-18T12:07:25Z</time></trkpt><trkpt lat="44.413913786308825" lon="10.237399363850471"><ele>715.0</ele><time>2026-04-18T12:07:26Z</time></trkpt><trkpt lat="44.414030491918915" lon="10.237597799342918"><ele>715.0</ele><time>2026-04-18T12:07:27Z</time></trkpt><trkpt lat="44.41416005452392" lon="10.23782492482149"><ele>715.0</ele><time>2026-04-18T12:07:28Z</time></trkpt><trkpt lat="44.41428963385121" lon="10.238046182411647"><ele>715.0</ele><time>2026-04-18T12:07:29Z</time></trkpt><trkpt lat="44.41441240571236" lon="10.238237972694296"><ele>713.3333333333334</ele><time>2026-04-18T12:07:30Z</time></trkpt><trkpt lat="44.414561513073224" lon="10.238396600762048"><ele>711.6666666666666</ele><time>2026-04-18T12:07:31Z</time></trkpt><trkpt lat="44.41472529449001" lon="10.238530791381747"><ele>710.0</ele><time>2026-04-18T12:07:32Z</time></trkpt><trkpt lat="44.41487319867129" lon="10.238671422203385"><ele>710.0</ele><time>2026-04-18T12:07:33Z</time></trkpt><trkpt lat="44.41501128250003" lon="10.238848344713107"><ele>710.0</ele><time>2026-04-18T12:07:34Z</time></trkpt><trkpt lat="44.41512369014282" lon="10.239040225710962"><ele>710.0</ele><time>2026-04-18T12:07:35Z</time></trkpt><trkpt lat="44.41521777033077" lon="10.239219790011534"><ele>715.75</ele><time>2026-04-18T12:07:36Z</time></trkpt><trkpt lat="44.41528261244235" lon="10.23940439704243"><ele>721.5</ele><time>2026-04-18T12:07:37Z</time></trkpt><trkpt lat="44.415304944585515" lon="10.239611083036905"><ele>727.25</ele><time>2026-04-18T12:07:38Z</time></trkpt><trkpt lat="44.41532702308818" lon="10.239797661654471"><ele>733.0</ele><time>2026-04-18T12:07:39Z</time></trkpt><trkpt lat="44.41538844368802" lon="10.239942643479836"><ele>732.0</ele><time>2026-04-18T12:07:40Z</time></trkpt><trkpt lat="44.4155214498971" lon="10.240044173462625"><ele>731.0</ele><time>2026-04-18T12:07:41Z</time></trkpt><trkpt lat="44.415697978388245" lon="10.240116723556689"><ele>730.0</ele><time>2026-04-18T12:07:42Z</time></trkpt><trkpt lat="44.4158800493029" lon="10.24017833754744"><ele>730.0</ele><time>2026-04-18T12:07:43Z</time></trkpt><trkpt lat="44.41607678930709" lon="10.24028316611258"><ele>730.0</ele><time>2026-04-18T12:07:44Z</time></trkpt><trkpt lat="44.41626273093351" lon="10.24041830452195"><ele>730.0</ele><time>2026-04-18T12:07:45Z</time></trkpt><trkpt lat="44.416457486901145" lon="10.240573891578"><ele>731.0</ele><time>2026-04-18T12:07:46Z</time></trkpt><trkpt lat="44.41665783047303" lon="10.24072903432186"><ele>732.0</ele><time>2026-04-18T12:07:47Z</time></trkpt><trkpt lat="44.416859387313906" lon="10.240892608118713"><ele>732.0</ele><time>2026-04-18T12:07:48Z</time></trkpt><trkpt lat="44.417033565579146" lon="10.241026112211033"><ele>732.0</ele><time>2026-04-18T12:07:49Z</time></trkpt><trkpt lat="44.41719583097498" lon="10.241155899027756"><ele>732.0</ele><time>2026-04-18T12:07:50Z</time></trkpt><trkpt lat="44.417362507757794" lon="10.241294399584877"><ele>729.3333333333334</ele><time>2026-04-18T12:07:51Z</time></trkpt><trkpt lat="44.41752209270614" lon="10.241420575161449"><ele>726.6666666666667</ele><time>2026-04-18T12:07:52Z</time></trkpt><trkpt lat="44.41766576917929" lon="10.241534532764256"><ele>724.0</ele><time>2026-04-18T12:07:53Z</time></trkpt><trkpt lat="44.417775393345984" lon="10.241652353635779"><ele>728.25</ele><time>2026-04-18T12:07:54Z</time></trkpt><trkpt lat="44.41784651986656" lon="10.241807064995456"><ele>732.5</ele><time>2026-04-18T12:07:55Z</time></trkpt><trkpt lat="44.41785038196749" lon="10.241994927324244"><ele>736.75</ele><time>2026-04-18T12:07:56Z</time></trkpt><trkpt lat="44.41783068541748" lon="10.242216641892071"><ele>741.0</ele><time>2026-04-18T12:07:57Z</time></trkpt><trkpt lat="44.417817750322634" lon="10.242480837328596"><ele>747.0</ele><time>2026-04-18T12:07:58Z</time></trkpt><trkpt lat="44.41778652144108" lon="10.242740465378727"><ele>753.0</ele><time>2026-04-18T12:07:59Z</time></trkpt><trkpt lat="44.41775575382394" lon="10.24301116873811"><ele>759.0</ele><time>2026-04-18T12:08:00Z</time></trkpt><trkpt lat="44.41773637452996" lon="10.243249951430755"><ele>761.0</ele><time>2026-04-18T12:08:01Z</time></trkpt><trkpt lat="44.41772767247721" lon="10.243439437589263"><ele>763.0</ele><time>2026-04-18T12:08:02Z</time></trkpt><trkpt lat="44.41775038176278" lon="10.243583422427337"><ele>765.0</ele><time>2026-04-18T12:08:03Z</time></trkpt><trkpt lat="44.417817475103526" lon="10.243708009639317"><ele>767.0</ele><time>2026-04-18T12:08:04Z</time></trkpt><trkpt lat="44.41791835226246" lon="10.243786624184292"><ele>757.3333333333333</ele><time>2026-04-18T12:08:05Z</time></trkpt><trkpt lat="44.418070648969525" lon="10.243812405532497"><ele>747.6666666666666</ele><time>2026-04-18T12:08:06Z</time></trkpt><trkpt lat="44.41824677728335" lon="10.243758392671554"><ele>738.0</ele><time>2026-04-18T12:08:07Z</time></trkpt><trkpt lat="44.41842078850253" lon="10.243679838694906"><ele>738.0</ele><time>2026-04-18T12:08:08Z</time></trkpt><trkpt lat="44.418569108070464" lon="10.243678125859605"><ele>738.0</ele><time>2026-04-18T12:08:09Z</time></trkpt><trkpt lat="44.418707805710866" lon="10.243751629978453"><ele>738.0</ele><time>2026-04-18T12:08:10Z</time></trkpt><trkpt lat="44.41882678050822" lon="10.243883192307024"><ele>738.0</ele><time>2026-04-18T12:08:11Z</time></trkpt><trkpt lat="44.418934730863576" lon="10.243978982117666"><ele>738.25</ele><time>2026-04-18T12:08:12Z</time></trkpt><trkpt lat="44.4190558173851" lon="10.244005493419504"><ele>738.5</ele><time>2026-04-18T12:08:13Z</time></trkpt><trkpt lat="44.41919850883088" lon="10.243940552822957"><ele>738.75</ele><time>2026-04-18T12:08:13.999Z</time></trkpt><trkpt lat="44.419334555837956" lon="10.24382238069982"><ele>739.0</ele><time>2026-04-18T12:08:14.999Z</time></trkpt><trkpt lat="44.41947438070492" lon="10.243738441628851"><ele>739.0</ele><time>2026-04-18T12:08:15.999Z</time></trkpt><trkpt lat="44.41963517403869" lon="10.243716368667297"><ele>739.0</ele><time>2026-04-18T12:08:16.999Z</time></trkpt><trkpt lat="44.41979189775527" lon="10.243740420151472"><ele>739.0</ele><time>2026-04-18T12:08:17.999Z</time></trkpt><trkpt lat="44.41991830956013" lon="10.243803717625308"><ele>741.0</ele><time>2026-04-18T12:08:18.999Z</time></trkpt><trkpt lat="44.42003134780965" lon="10.24392354955278"><ele>743.0</ele><time>2026-04-18T12:08:19.999Z</time></trkpt><trkpt lat="44.420152968313374" lon="10.24407201778864"><ele>745.0</ele><time>2026-04-18T12:08:20.999Z</time></trkpt><trkpt lat="44.420270385515224" lon="10.244174714160716"><ele>747.0</ele><time>2026-04-18T12:08:21.999Z</time></trkpt><trkpt lat="44.42039263829443" lon="10.24420943375143"><ele>747.0</ele><time>2026-04-18T12:08:22.999Z</time></trkpt><trkpt lat="44.42052707772893" lon="10.244153015399943"><ele>747.0</ele><time>2026-04-18T12:08:23.999Z</time></trkpt><trkpt lat="44.42067081160351" lon="10.244029121410854"><ele>747.0</ele><time>2026-04-18T12:08:24.999Z</time></trkpt><trkpt lat="44.4208184983854" lon="10.243885625648005"><ele>747.0</ele><time>2026-04-18T12:08:25.999Z</time></trkpt><trkpt lat="44.42096892731786" lon="10.24374356885528"><ele>747.0</ele><time>2026-04-18T12:08:26.999Z</time></trkpt><trkpt lat="44.421086653327094" lon="10.243561122417434"><ele>747.0</ele><time>2026-04-18T12:08:27.999Z</time></trkpt><trkpt lat="44.42119037781064" lon="10.24335980446635"><ele>745.6666666666666</ele><time>2026-04-18T12:08:28.999Z</time></trkpt><trkpt lat="44.421323469020344" lon="10.243237656365567"><ele>744.3333333333333</ele><time>2026-04-18T12:08:29.999Z</time></trkpt><trkpt lat="44.42149672396644" lon="10.243108427538887"><ele>743.0</ele><time>2026-04-18T12:08:30.999Z</time></trkpt><trkpt lat="44.421675338560384" lon="10.242964393728883"><ele>743.0</ele><time>2026-04-18T12:08:31.999Z</time></trkpt><trkpt lat="44.42182967376564" lon="10.24285324631044"><ele>743.0</ele><time>2026-04-18T12:08:32.999Z</time></trkpt><trkpt lat="44.421970432877046" lon="10.24276333349623"><ele>743.0</ele><time>2026-04-18T12:08:33.999Z</time></trkpt><trkpt lat="44.42213237800751" lon="10.242757089961932"><ele>743.6666666666666</ele><time>2026-04-18T12:08:34.999Z</time></trkpt><trkpt lat="44.42228554792055" lon="10.242787551041184"><ele>744.3333333333334</ele><time>2026-04-18T12:08:35.999Z</time></trkpt><trkpt lat="44.422407650661306" lon="10.242896524878754"><ele>745.0</ele><time>2026-04-18T12:08:36.999Z</time></trkpt><trkpt lat="44.422504508794155" lon="10.243095000966466"><ele>753.6666666666667</ele><time>2026-04-18T12:08:37.999Z</time></trkpt><trkpt lat="44.4226038223317" lon="10.243318200978214"><ele>762.3333333333334</ele><time>2026-04-18T12:08:38.999Z</time></trkpt><trkpt lat="44.4227050945823" lon="10.243490100361296"><ele>771.0</ele><time>2026-04-18T12:08:39.999Z</time></trkpt><trkpt lat="44.422861883580374" lon="10.243610181922511"><ele>772.6666666666667</ele><time>2026-04-18T12:08:40.999Z</time></trkpt><trkpt lat="44.42305016374475" lon="10.243697515309641"><ele>774.3333333333334</ele><time>2026-04-18T12:08:41.999Z</time></trkpt><trkpt lat="44.423223911825026" lon="10.243800223825861"><ele>776.0</ele><time>2026-04-18T12:08:42.999Z</time></trkpt><trkpt lat="44.42336700313597" lon="10.243969740894102"><ele>776.0</ele><time>2026-04-18T12:08:43.999Z</time></trkpt><trkpt lat="44.423488680629184" lon="10.244189177050384"><ele>776.0</ele><time>2026-04-18T12:08:44.999Z</time></trkpt><trkpt lat="44.42359537783522" lon="10.244393589161657"><ele>776.0</ele><time>2026-04-18T12:08:45.999Z</time></trkpt><trkpt lat="44.423743719200175" lon="10.244543198845758"><ele>772.0</ele><time>2026-04-18T12:08:46.999Z</time></trkpt><trkpt lat="44.423919099074865" lon="10.24464876830225"><ele>768.0</ele><time>2026-04-18T12:08:47.999Z</time></trkpt><trkpt lat="44.42411747997162" lon="10.244722174200032"><ele>764.0</ele><time>2026-04-18T12:08:48.999Z</time></trkpt><trkpt lat="44.42431787992096" lon="10.244767032643512"><ele>769.6666666666666</ele><time>2026-04-18T12:08:49.999Z</time></trkpt><trkpt lat="44.42450920886984" lon="10.244824127963607"><ele>775.3333333333333</ele><time>2026-04-18T12:08:50.999Z</time></trkpt><trkpt lat="44.42468013966866" lon="10.244873550666671"><ele>781.0</ele><time>2026-04-18T12:08:51.999Z</time></trkpt><trkpt lat="44.42484327183456" lon="10.244873531580405"><ele>775.6666666666666</ele><time>2026-04-18T12:08:52.999Z</time></trkpt><trkpt lat="44.42501387803165" lon="10.244790461818804"><ele>770.3333333333333</ele><time>2026-04-18T12:08:53.999Z</time></trkpt><trkpt lat="44.4251672147344" lon="10.244638162739983"><ele>765.0</ele><time>2026-04-18T12:08:54.999Z</time></trkpt><trkpt lat="44.42529401452261" lon="10.244497578394636"><ele>765.0</ele><time>2026-04-18T12:08:55.999Z</time></trkpt><trkpt lat="44.42542555729151" lon="10.244470854322213"><ele>765.0</ele><time>2026-04-18T12:08:56.999Z</time></trkpt><trkpt lat="44.42556883367309" lon="10.244501176203729"><ele>765.0</ele><time>2026-04-18T12:08:57.999Z</time></trkpt><trkpt lat="44.42573950881469" lon="10.244596658857654"><ele>767.3333333333333</ele><time>2026-04-18T12:08:58.999Z</time></trkpt><trkpt lat="44.42590902331428" lon="10.244706404475432"><ele>769.6666666666666</ele><time>2026-04-18T12:08:59.999Z</time></trkpt><trkpt lat="44.426091932981755" lon="10.244780485755065"><ele>772.0</ele><time>2026-04-18T12:09:00.999Z</time></trkpt><trkpt lat="44.42627644203687" lon="10.244752940104867"><ele>771.6666666666666</ele><time>2026-04-18T12:09:01.999Z</time></trkpt><trkpt lat="44.42646606884995" lon="10.244662702741083"><ele>771.3333333333333</ele><time>2026-04-18T12:09:02.999Z</time></trkpt><trkpt lat="44.42661626092633" lon="10.24460712454059"><ele>771.0</ele><time>2026-04-18T12:09:03.999Z</time></trkpt><trkpt lat="44.42673318814585" lon="10.244628802823899"><ele>771.0</ele><time>2026-04-18T12:09:04.999Z</time></trkpt><trkpt lat="44.42681026839651" lon="10.24471382868734"><ele>771.0</ele><time>2026-04-18T12:09:05.999Z</time></trkpt><trkpt lat="44.42685700730982" lon="10.244863245582087"><ele>771.0</ele><time>2026-04-18T12:09:06.999Z</time></trkpt><trkpt lat="44.42685917710417" lon="10.245060286865359"><ele>771.0</ele><time>2026-04-18T12:09:08Z</time></trkpt><trkpt lat="44.426807442591695" lon="10.245270984653546"><ele>778.0</ele><time>2026-04-18T12:09:09Z</time></trkpt><trkpt lat="44.42673645655169" lon="10.245489712219157"><ele>785.0</ele><time>2026-04-18T12:09:10Z</time></trkpt><trkpt lat="44.42667724030752" lon="10.24574215396234"><ele>792.0</ele><time>2026-04-18T12:09:11Z</time></trkpt><trkpt lat="44.42664134576718" lon="10.246008792066732"><ele>795.3333333333333</ele><time>2026-04-18T12:09:12Z</time></trkpt><trkpt lat="44.426624143274026" lon="10.246292477640935"><ele>798.6666666666666</ele><time>2026-04-18T12:09:13Z</time></trkpt><trkpt lat="44.42660042406904" lon="10.24657615130732"><ele>802.0</ele><time>2026-04-18T12:09:14Z</time></trkpt><trkpt lat="44.42657571184954" lon="10.246850690617569"><ele>802.0</ele><time>2026-04-18T12:09:15Z</time></trkpt><trkpt lat="44.426569017844436" lon="10.24712413737712"><ele>802.0</ele><time>2026-04-18T12:09:16Z</time></trkpt><trkpt lat="44.42658048114545" lon="10.247407162155197"><ele>802.0</ele><time>2026-04-18T12:09:17Z</time></trkpt><trkpt lat="44.42660252628568" lon="10.247694525546864"><ele>803.0</ele><time>2026-04-18T12:09:18Z</time></trkpt><trkpt lat="44.42662302577595" lon="10.24797834111908"><ele>804.0</ele><time>2026-04-18T12:09:19Z</time></trkpt><trkpt lat="44.42663148217785" lon="10.248234392372291"><ele>805.0</ele><time>2026-04-18T12:09:20Z</time></trkpt><trkpt lat="44.4266236459956" lon="10.24849921070132"><ele>806.6666666666666</ele><time>2026-04-18T12:09:21Z</time></trkpt><trkpt lat="44.42658471192365" lon="10.248773706604581"><ele>808.3333333333333</ele><time>2026-04-18T12:09:22Z</time></trkpt><trkpt lat="44.42652765818476" lon="10.24907295949986"><ele>810.0</ele><time>2026-04-18T12:09:23Z</time></trkpt><trkpt lat="44.426477795420965" lon="10.249371786023683"><ele>810.3333333333333</ele><time>2026-04-18T12:09:24Z</time></trkpt><trkpt lat="44.426440014685014" lon="10.249679103698877"><ele>810.6666666666666</ele><time>2026-04-18T12:09:25Z</time></trkpt><trkpt lat="44.42640857229937" lon="10.249972415233202"><ele>811.0</ele><time>2026-04-18T12:09:26Z</time></trkpt><trkpt lat="44.42636992818331" lon="10.250230971558155"><ele>811.6666666666666</ele><time>2026-04-18T12:09:27Z</time></trkpt><trkpt lat="44.426334305537424" lon="10.250460438375026"><ele>812.3333333333333</ele><time>2026-04-18T12:09:28Z</time></trkpt><trkpt lat="44.42631246052626" lon="10.250689827267301"><ele>813.0</ele><time>2026-04-18T12:09:29Z</time></trkpt><trkpt lat="44.42630655616791" lon="10.250944858943978"><ele>816.0</ele><time>2026-04-18T12:09:30Z</time></trkpt><trkpt lat="44.42630975844484" lon="10.251207431482081"><ele>819.0</ele><time>2026-04-18T12:09:31Z</time></trkpt><trkpt lat="44.42631424496509" lon="10.251460207972785"><ele>822.0</ele><time>2026-04-18T12:09:32Z</time></trkpt><trkpt lat="44.42631864771638" lon="10.251649520396139"><ele>822.0</ele><time>2026-04-18T12:09:33Z</time></trkpt><trkpt lat="44.42634073259854" lon="10.251793442171925"><ele>822.0</ele><time>2026-04-18T12:09:34Z</time></trkpt><trkpt lat="44.42641034549092" lon="10.251924815938592"><ele>822.0</ele><time>2026-04-18T12:09:35Z</time></trkpt><trkpt lat="44.42653650538061" lon="10.252016569070637"><ele>822.0</ele><time>2026-04-18T12:09:36Z</time></trkpt><trkpt lat="44.42667137692842" lon="10.252024337163524"><ele>822.0</ele><time>2026-04-18T12:09:37Z</time></trkpt><trkpt lat="44.42678349157359" lon="10.251936191490145"><ele>822.0</ele><time>2026-04-18T12:09:38Z</time></trkpt><trkpt lat="44.426895723364495" lon="10.251787529215017"><ele>822.0</ele><time>2026-04-18T12:09:39Z</time></trkpt><trkpt lat="44.42701905289473" lon="10.251668329591334"><ele>822.0</ele><time>2026-04-18T12:09:40Z</time></trkpt><trkpt lat="44.42715648416211" lon="10.251619200474883"><ele>822.0</ele><time>2026-04-18T12:09:41Z</time></trkpt><trkpt lat="44.427285863377286" lon="10.251690910437654"><ele>822.0</ele><time>2026-04-18T12:09:42Z</time></trkpt><trkpt lat="44.42739526584713" lon="10.251816155703718"><ele>822.0</ele><time>2026-04-18T12:09:43Z</time></trkpt><trkpt lat="44.42752614650136" lon="10.251986511876447"><ele>822.0</ele><time>2026-04-18T12:09:44Z</time></trkpt><trkpt lat="44.427646890739396" lon="10.252111671997108"><ele>822.0</ele><time>2026-04-18T12:09:45Z</time></trkpt><trkpt lat="44.42776061715071" lon="10.252140381860375"><ele>822.0</ele><time>2026-04-18T12:09:46Z</time></trkpt><trkpt lat="44.427908289057314" lon="10.252112266848906"><ele>822.0</ele><time>2026-04-18T12:09:47Z</time></trkpt><trkpt lat="44.42808601032977" lon="10.252058546106358"><ele>821.0</ele><time>2026-04-18T12:09:48Z</time></trkpt><trkpt lat="44.42827618178964" lon="10.252012005635375"><ele>820.0</ele><time>2026-04-18T12:09:49Z</time></trkpt><trkpt lat="44.42845539391235" lon="10.2519735151306"><ele>819.0</ele><time>2026-04-18T12:09:50Z</time></trkpt><trkpt lat="44.42862229425442" lon="10.251944799718503"><ele>819.0</ele><time>2026-04-18T12:09:51Z</time></trkpt><trkpt lat="44.42878109358927" lon="10.25194937955866"><ele>819.0</ele><time>2026-04-18T12:09:52Z</time></trkpt><trkpt lat="44.42892649267413" lon="10.251947954965647"><ele>819.0</ele><time>2026-04-18T12:09:53Z</time></trkpt><trkpt lat="44.429057200077814" lon="10.251922667414448"><ele>819.0</ele><time>2026-04-18T12:09:54Z</time></trkpt><trkpt lat="44.42917238260787" lon="10.25187748847178"><ele>820.2</ele><time>2026-04-18T12:09:55Z</time></trkpt><trkpt lat="44.429268416812036" lon="10.251828177491447"><ele>821.4000000000001</ele><time>2026-04-18T12:09:56Z</time></trkpt><trkpt lat="44.42933931402277" lon="10.251799837775279"><ele>822.6</ele><time>2026-04-18T12:09:57Z</time></trkpt><trkpt lat="44.429427328662015" lon="10.251759822601455"><ele>823.8</ele><time>2026-04-18T12:09:59Z</time></trkpt><trkpt lat="44.42949770526433" lon="10.251714270547547"><ele>825.0</ele><time>2026-04-18T12:10:00Z</time></trkpt><trkpt lat="44.429575228148074" lon="10.25159175531463"><ele>824.4</ele><time>2026-04-18T12:10:02Z</time></trkpt><trkpt lat="44.42967302231178" lon="10.251566615299454"><ele>823.8</ele><time>2026-04-18T12:10:04Z</time></trkpt><trkpt lat="44.429721011255225" lon="10.251624705441825"><ele>823.2</ele><time>2026-04-18T12:10:05Z</time></trkpt><trkpt lat="44.42974181565059" lon="10.251735049294682"><ele>822.6</ele><time>2026-04-18T12:10:06Z</time></trkpt><trkpt lat="44.42970079960396" lon="10.251891778921973"><ele>822.0</ele><time>2026-04-18T12:10:07Z</time></trkpt><trkpt lat="44.42964508286185" lon="10.252050340162318"><ele>822.6</ele><time>2026-04-18T12:10:08Z</time></trkpt><trkpt lat="44.42961559303306" lon="10.252191976273387"><ele>823.2</ele><time>2026-04-18T12:10:09Z</time></trkpt><trkpt lat="44.429616532042964" lon="10.252322041314555"><ele>823.8</ele><time>2026-04-18T12:10:10Z</time></trkpt><trkpt lat="44.429608517165974" lon="10.252442795610381"><ele>824.4</ele><time>2026-04-18T12:10:11Z</time></trkpt><trkpt lat="44.42958434087529" lon="10.25254801490296"><ele>825.0</ele><time>2026-04-18T12:10:12Z</time></trkpt><trkpt lat="44.42954575253284" lon="10.25267231134771"><ele>824.4</ele><time>2026-04-18T12:10:14Z</time></trkpt><trkpt lat="44.42961501426999" lon="10.252712448138201"><ele>823.8</ele><time>2026-04-18T12:10:16Z</time></trkpt><trkpt lat="44.429703363808244" lon="10.252699872080203"><ele>823.2</ele><time>2026-04-18T12:10:18Z</time></trkpt><trkpt lat="44.429769797755654" lon="10.252537921796543"><ele>822.6</ele><time>2026-04-18T12:10:19.999Z</time></trkpt><trkpt lat="44.4297679725182" lon="10.252402944559721"><ele>822.0</ele><time>2026-04-18T12:10:20.999Z</time></trkpt><trkpt lat="44.429786850391324" lon="10.252254479476848"><ele>822.0</ele><time>2026-04-18T12:10:21.999Z</time></trkpt><trkpt lat="44.429795655501295" lon="10.252082846716025"><ele>822.0</ele><time>2026-04-18T12:10:22.999Z</time></trkpt><trkpt lat="44.4298625124148" lon="10.251925815394552"><ele>822.0</ele><time>2026-04-18T12:10:23.999Z</time></trkpt><trkpt lat="44.42991064579347" lon="10.251767275302123"><ele>822.0</ele><time>2026-04-18T12:10:24.999Z</time></trkpt><trkpt lat="44.42999123978649" lon="10.251615047983094"><ele>818.25</ele><time>2026-04-18T12:10:25.999Z</time></trkpt><trkpt lat="44.430072222938584" lon="10.251444939110991"><ele>814.5</ele><time>2026-04-18T12:10:26.999Z</time></trkpt><trkpt lat="44.43015209294207" lon="10.251297758274266"><ele>810.75</ele><time>2026-04-18T12:10:27.999Z</time></trkpt><trkpt lat="44.43023428475781" lon="10.25116419482706"><ele>807.0</ele><time>2026-04-18T12:10:28.999Z</time></trkpt><trkpt lat="44.430308308430725" lon="10.251051636560643"><ele>807.0</ele><time>2026-04-18T12:10:29.999Z</time></trkpt><trkpt lat="44.43037010360187" lon="10.250948650540128"><ele>807.0</ele><time>2026-04-18T12:10:30.999Z</time></trkpt><trkpt lat="44.43044237212341" lon="10.250911337713815"><ele>807.0</ele><time>2026-04-18T12:10:31.999Z</time></trkpt><trkpt lat="44.43051730931434" lon="10.250941876858748"><ele>807.0</ele><time>2026-04-18T12:10:32.999Z</time></trkpt><trkpt lat="44.43056110881962" lon="10.25104458196855"><ele>807.0</ele><time>2026-04-18T12:10:33.999Z</time></trkpt><trkpt lat="44.43055690999412" lon="10.251190524443832"><ele>807.0</ele><time>2026-04-18T12:10:34.999Z</time></trkpt><trkpt lat="44.4305032640052" lon="10.25134268010565"><ele>810.75</ele><time>2026-04-18T12:10:35.999Z</time></trkpt><trkpt lat="44.430443660809416" lon="10.251500356733867"><ele>814.5</ele><time>2026-04-18T12:10:36.999Z</time></trkpt><trkpt lat="44.43038738071796" lon="10.251671950381047"><ele>818.25</ele><time>2026-04-18T12:10:37.999Z</time></trkpt><trkpt lat="44.43034299973823" lon="10.251846379810587"><ele>822.0</ele><time>2026-04-18T12:10:38.999Z</time></trkpt><trkpt lat="44.43030071058099" lon="10.252005099250326"><ele>822.0</ele><time>2026-04-18T12:10:39.999Z</time></trkpt><trkpt lat="44.430264370480565" lon="10.25215048967338"><ele>822.0</ele><time>2026-04-18T12:10:40.999Z</time></trkpt><trkpt lat="44.43024828099982" lon="10.252254308265847"><ele>822.0</ele><time>2026-04-18T12:10:41.999Z</time></trkpt><trkpt lat="44.43026489776913" lon="10.252341603144613"><ele>822.0</ele><time>2026-04-18T12:10:42.999Z</time></trkpt><trkpt lat="44.43032418848208" lon="10.252390617849898"><ele>822.0</ele><time>2026-04-18T12:10:43.999Z</time></trkpt><trkpt lat="44.43041309296263" lon="10.252389933358682"><ele>822.0</ele><time>2026-04-18T12:10:44.999Z</time></trkpt><trkpt lat="44.43049404802624" lon="10.252312469493784"><ele>816.75</ele><time>2026-04-18T12:10:45.999Z</time></trkpt><trkpt lat="44.430558586708706" lon="10.252170681937324"><ele>811.5</ele><time>2026-04-18T12:10:46.999Z</time></trkpt><trkpt lat="44.43062919296458" lon="10.251993817434673"><ele>806.25</ele><time>2026-04-18T12:10:47.999Z</time></trkpt><trkpt lat="44.43071138036134" lon="10.251812647556328"><ele>801.0</ele><time>2026-04-18T12:10:48.999Z</time></trkpt><trkpt lat="44.43078390162945" lon="10.251625822084613"><ele>800.0</ele><time>2026-04-18T12:10:49.999Z</time></trkpt><trkpt lat="44.43085778117892" lon="10.25144541033489"><ele>799.0</ele><time>2026-04-18T12:10:50.999Z</time></trkpt><trkpt lat="44.43092632770193" lon="10.251257098688464"><ele>798.0</ele><time>2026-04-18T12:10:51.999Z</time></trkpt><trkpt lat="44.43099148122778" lon="10.251066693388006"><ele>798.0</ele><time>2026-04-18T12:10:52.999Z</time></trkpt><trkpt lat="44.431059365320216" lon="10.25088093367908"><ele>798.0</ele><time>2026-04-18T12:10:53.999Z</time></trkpt><trkpt lat="44.431127943914625" lon="10.250707295752226"><ele>798.0</ele><time>2026-04-18T12:10:54.999Z</time></trkpt><trkpt lat="44.431187294426536" lon="10.250548895142128"><ele>798.0</ele><time>2026-04-18T12:10:55.999Z</time></trkpt><trkpt lat="44.4312282383394" lon="10.250414688521191"><ele>793.2</ele><time>2026-04-18T12:10:56.999Z</time></trkpt><trkpt lat="44.43125026981105" lon="10.250306561324436"><ele>788.4</ele><time>2026-04-18T12:10:57.999Z</time></trkpt><trkpt lat="44.43124004373639" lon="10.250207068439527"><ele>783.6</ele><time>2026-04-18T12:10:58.999Z</time></trkpt><trkpt lat="44.431221556785154" lon="10.250113402797652"><ele>778.8000000000001</ele><time>2026-04-18T12:10:59.999Z</time></trkpt><trkpt lat="44.43110613463919" lon="10.250049550536849"><ele>774.0</ele><time>2026-04-18T12:11:00.999Z</time></trkpt><trkpt lat="44.43095820451179" lon="10.250103049540282"><ele>774.0</ele><time>2026-04-18T12:11:01.999Z</time></trkpt><trkpt lat="44.430804040413825" lon="10.250141785772259"><ele>774.0</ele><time>2026-04-18T12:11:02.999Z</time></trkpt><trkpt lat="44.430657244888934" lon="10.250134556915517"><ele>774.0</ele><time>2026-04-18T12:11:03.999Z</time></trkpt><trkpt lat="44.430502842301955" lon="10.250088013405248"><ele>774.3333333333333</ele><time>2026-04-18T12:11:04.999Z</time></trkpt><trkpt lat="44.430341013187444" lon="10.25000570282065"><ele>774.6666666666666</ele><time>2026-04-18T12:11:05.999Z</time></trkpt><trkpt lat="44.430194954863" lon="10.249926930828533"><ele>775.0</ele><time>2026-04-18T12:11:06.999Z</time></trkpt><trkpt lat="44.43006029319461" lon="10.249848330773743"><ele>774.25</ele><time>2026-04-18T12:11:07.999Z</time></trkpt><trkpt lat="44.429927765409296" lon="10.249776921387271"><ele>773.5</ele><time>2026-04-18T12:11:08.999Z</time></trkpt><trkpt lat="44.42979861701884" lon="10.249739420172583"><ele>772.75</ele><time>2026-04-18T12:11:09.999Z</time></trkpt><trkpt lat="44.429665732461956" lon="10.249766549864486"><ele>772.0</ele><time>2026-04-18T12:11:10.999Z</time></trkpt><trkpt lat="44.42952888583099" lon="10.249846727670567"><ele>772.0</ele><time>2026-04-18T12:11:11.999Z</time></trkpt><trkpt lat="44.42940547545878" lon="10.249956675630692"><ele>772.0</ele><time>2026-04-18T12:11:12.999Z</time></trkpt><trkpt lat="44.42928674565663" lon="10.249985894870182"><ele>772.0</ele><time>2026-04-18T12:11:14Z</time></trkpt><trkpt lat="44.42919316386279" lon="10.249965481829168"><ele>772.0</ele><time>2026-04-18T12:11:15Z</time></trkpt><trkpt lat="44.42913090651689" lon="10.24987540594484"><ele>767.8</ele><time>2026-04-18T12:11:16Z</time></trkpt><trkpt lat="44.42907544138682" lon="10.249746833795957"><ele>763.6</ele><time>2026-04-18T12:11:17Z</time></trkpt><trkpt lat="44.42902404838595" lon="10.249643690441962"><ele>759.4</ele><time>2026-04-18T12:11:18Z</time></trkpt><trkpt lat="44.429062856286144" lon="10.249547786914677"><ele>755.1999999999999</ele><time>2026-04-18T12:11:19Z</time></trkpt><trkpt lat="44.429143480523955" lon="10.249491251544702"><ele>751.0</ele><time>2026-04-18T12:11:20Z</time></trkpt><trkpt lat="44.42926520486033" lon="10.24946364620488"><ele>751.0</ele><time>2026-04-18T12:11:21Z</time></trkpt><trkpt lat="44.429413252024304" lon="10.249417032545585"><ele>751.0</ele><time>2026-04-18T12:11:22Z</time></trkpt><trkpt lat="44.429529617164846" lon="10.249349924368044"><ele>751.0</ele><time>2026-04-18T12:11:23Z</time></trkpt><trkpt lat="44.42961302875244" lon="10.249301970435411"><ele>751.0</ele><time>2026-04-18T12:11:24Z</time></trkpt><trkpt lat="44.42973777801177" lon="10.24925227135932"><ele>748.5</ele><time>2026-04-18T12:11:25Z</time></trkpt><trkpt lat="44.42987674213151" lon="10.249254144713564"><ele>746.0</ele><time>2026-04-18T12:11:26Z</time></trkpt><trkpt lat="44.43002787267025" lon="10.249318924091613"><ele>743.5</ele><time>2026-04-18T12:11:27Z</time></trkpt><trkpt lat="44.43016604756822" lon="10.2493639061317"><ele>741.0</ele><time>2026-04-18T12:11:28Z</time></trkpt><trkpt lat="44.43030023368661" lon="10.249358562851945"><ele>741.0</ele><time>2026-04-18T12:11:29Z</time></trkpt><trkpt lat="44.43043417960445" lon="10.249323514958071"><ele>741.0</ele><time>2026-04-18T12:11:30Z</time></trkpt><trkpt lat="44.430564596965205" lon="10.249283023111627"><ele>741.0</ele><time>2026-04-18T12:11:31Z</time></trkpt><trkpt lat="44.43069146399285" lon="10.249234232747122"><ele>741.0</ele><time>2026-04-18T12:11:32Z</time></trkpt><trkpt lat="44.4308195631089" lon="10.249171337720277"><ele>739.75</ele><time>2026-04-18T12:11:33Z</time></trkpt><trkpt lat="44.430940851455695" lon="10.249103103096664"><ele>738.5</ele><time>2026-04-18T12:11:34Z</time></trkpt><trkpt lat="44.43104391641607" lon="10.249051867258615"><ele>737.25</ele><time>2026-04-18T12:11:35Z</time></trkpt><trkpt lat="44.43114595158097" lon="10.249010618246595"><ele>736.0</ele><time>2026-04-18T12:11:36Z</time></trkpt><trkpt lat="44.43125737969699" lon="10.248964263350244"><ele>729.0</ele><time>2026-04-18T12:11:37Z</time></trkpt><trkpt lat="44.43136409599801" lon="10.24891042313861"><ele>722.0</ele><time>2026-04-18T12:11:38Z</time></trkpt><trkpt lat="44.431466201496995" lon="10.248867603257482"><ele>715.0</ele><time>2026-04-18T12:11:39Z</time></trkpt><trkpt lat="44.431569715539325" lon="10.248849160725355"><ele>708.0</ele><time>2026-04-18T12:11:40Z</time></trkpt><trkpt lat="44.43168666384172" lon="10.248875123124924"><ele>701.0</ele><time>2026-04-18T12:11:41Z</time></trkpt><trkpt lat="44.4317931718332" lon="10.248948495841185"><ele>705.25</ele><time>2026-04-18T12:11:42Z</time></trkpt><trkpt lat="44.43190275977594" lon="10.24901345634523"><ele>709.5</ele><time>2026-04-18T12:11:43Z</time></trkpt><trkpt lat="44.43201997336732" lon="10.24904814563797"><ele>713.75</ele><time>2026-04-18T12:11:44Z</time></trkpt><trkpt lat="44.43214006837447" lon="10.249052996795298"><ele>718.0</ele><time>2026-04-18T12:11:45Z</time></trkpt><trkpt lat="44.43225415890542" lon="10.249028646231897"><ele>718.0</ele><time>2026-04-18T12:11:46Z</time></trkpt><trkpt lat="44.4323678067151" lon="10.249008932449044"><ele>718.0</ele><time>2026-04-18T12:11:47Z</time></trkpt><trkpt lat="44.432477148852456" lon="10.249023542850786"><ele>718.0</ele><time>2026-04-18T12:11:48Z</time></trkpt><trkpt lat="44.43257539132909" lon="10.249064758044035"><ele>718.0</ele><time>2026-04-18T12:11:49Z</time></trkpt><trkpt lat="44.43265860844466" lon="10.24914067496256"><ele>718.0</ele><time>2026-04-18T12:11:50Z</time></trkpt><trkpt lat="44.432706661926" lon="10.24926133879787"><ele>718.0</ele><time>2026-04-18T12:11:51Z</time></trkpt><trkpt lat="44.4327229656686" lon="10.249391758883075"><ele>718.0</ele><time>2026-04-18T12:11:52Z</time></trkpt><trkpt lat="44.43274016700288" lon="10.249537776859999"><ele>718.0</ele><time>2026-04-18T12:11:53Z</time></trkpt><trkpt lat="44.43275680035048" lon="10.249682936887128"><ele>718.0</ele><time>2026-04-18T12:11:54Z</time></trkpt><trkpt lat="44.432763488193004" lon="10.249843976627814"><ele>718.0</ele><time>2026-04-18T12:11:55Z</time></trkpt><trkpt lat="44.432738231340245" lon="10.250013552838162"><ele>719.4</ele><time>2026-04-18T12:11:56Z</time></trkpt><trkpt lat="44.43272556937568" lon="10.25016853088337"><ele>720.8</ele><time>2026-04-18T12:11:57Z</time></trkpt><trkpt lat="44.43272043996558" lon="10.250316534808158"><ele>722.2</ele><time>2026-04-18T12:11:58Z</time></trkpt><trkpt lat="44.43271915563199" lon="10.250456335315983"><ele>723.6</ele><time>2026-04-18T12:11:59Z</time></trkpt><trkpt lat="44.43271759951059" lon="10.250595195143054"><ele>725.0</ele><time>2026-04-18T12:12:00Z</time></trkpt><trkpt lat="44.43272164359928" lon="10.250729897525936"><ele>725.0</ele><time>2026-04-18T12:12:01Z</time></trkpt><trkpt lat="44.43273508804227" lon="10.250869229783804"><ele>725.0</ele><time>2026-04-18T12:12:02Z</time></trkpt><trkpt lat="44.43277315498753" lon="10.251001774058635"><ele>725.0</ele><time>2026-04-18T12:12:03Z</time></trkpt><trkpt lat="44.43283244918188" lon="10.251140566292694"><ele>725.0</ele><time>2026-04-18T12:12:04Z</time></trkpt><trkpt lat="44.432891757136346" lon="10.251288057516204"><ele>725.0</ele><time>2026-04-18T12:12:05Z</time></trkpt><trkpt lat="44.43293624956746" lon="10.251438450724507"><ele>725.6</ele><time>2026-04-18T12:12:06Z</time></trkpt><trkpt lat="44.432956794468595" lon="10.251594239353793"><ele>726.2</ele><time>2026-04-18T12:12:07Z</time></trkpt><trkpt lat="44.432970671171915" lon="10.251749573734463"><ele>726.8</ele><time>2026-04-18T12:12:08Z</time></trkpt><trkpt lat="44.432997157045" lon="10.251901429930388"><ele>727.4</ele><time>2026-04-18T12:12:09Z</time></trkpt><trkpt lat="44.433033467803774" lon="10.252050368259923"><ele>728.0</ele><time>2026-04-18T12:12:10Z</time></trkpt><trkpt lat="44.43307189988803" lon="10.252201245400258"><ele>721.0</ele><time>2026-04-18T12:12:11Z</time></trkpt><trkpt lat="44.43310787203545" lon="10.252348358842331"><ele>714.0</ele><time>2026-04-18T12:12:12Z</time></trkpt><trkpt lat="44.43314027063972" lon="10.25249516908392"><ele>707.0</ele><time>2026-04-18T12:12:13Z</time></trkpt><trkpt lat="44.43317366493303" lon="10.252637120178635"><ele>700.0</ele><time>2026-04-18T12:12:14Z</time></trkpt><trkpt lat="44.433219126276455" lon="10.252776731312741"><ele>693.0</ele><time>2026-04-18T12:12:15Z</time></trkpt><trkpt lat="44.43327449225822" lon="10.25290276344156"><ele>693.0</ele><time>2026-04-18T12:12:16Z</time></trkpt><trkpt lat="44.43333629748358" lon="10.253029704391475"><ele>693.0</ele><time>2026-04-18T12:12:17Z</time></trkpt><trkpt lat="44.43339295824564" lon="10.253151818589869"><ele>693.0</ele><time>2026-04-18T12:12:18Z</time></trkpt><trkpt lat="44.43344900702233" lon="10.253282477352199"><ele>693.0</ele><time>2026-04-18T12:12:19Z</time></trkpt><trkpt lat="44.43350056556555" lon="10.253410205271694"><ele>693.0</ele><time>2026-04-18T12:12:20Z</time></trkpt><trkpt lat="44.43355823556055" lon="10.253531501721575"><ele>693.5</ele><time>2026-04-18T12:12:21Z</time></trkpt><trkpt lat="44.43360977234019" lon="10.25366212232609"><ele>694.0</ele><time>2026-04-18T12:12:22Z</time></trkpt><trkpt lat="44.43364866307848" lon="10.253776842892673"><ele>694.5</ele><time>2026-04-18T12:12:23Z</time></trkpt><trkpt lat="44.433670989380516" lon="10.253904079229303"><ele>695.0</ele><time>2026-04-18T12:12:24Z</time></trkpt><trkpt lat="44.43367158725523" lon="10.254024338537075"><ele>695.5</ele><time>2026-04-18T12:12:24.999Z</time></trkpt><trkpt lat="44.43367275611996" lon="10.25412074124937"><ele>696.0</ele><time>2026-04-18T12:12:25.999Z</time></trkpt><trkpt lat="44.433739266915524" lon="10.254227926699222"><ele>690.5999999999999</ele><time>2026-04-18T12:12:27.999Z</time></trkpt><trkpt lat="44.433805586992946" lon="10.254222450730808"><ele>685.2</ele><time>2026-04-18T12:12:28.999Z</time></trkpt><trkpt lat="44.43386652549266" lon="10.254147000527981"><ele>679.8</ele><time>2026-04-18T12:12:29.999Z</time></trkpt><trkpt lat="44.43389796111571" lon="10.254017714220243"><ele>674.4000000000001</ele><time>2026-04-18T12:12:30.999Z</time></trkpt><trkpt lat="44.43392827086454" lon="10.253875963943603"><ele>669.0</ele><time>2026-04-18T12:12:31.999Z</time></trkpt><trkpt lat="44.43395807471355" lon="10.253723138446999"><ele>669.0</ele><time>2026-04-18T12:12:32.999Z</time></trkpt><trkpt lat="44.43398761393592" lon="10.25357166987276"><ele>669.0</ele><time>2026-04-18T12:12:33.999Z</time></trkpt><trkpt lat="44.434000898533405" lon="10.25341910460126"><ele>669.0</ele><time>2026-04-18T12:12:34.999Z</time></trkpt><trkpt lat="44.43404338809769" lon="10.253285676051263"><ele>669.0</ele><time>2026-04-18T12:12:35.999Z</time></trkpt><trkpt lat="44.43406546203884" lon="10.25314570012968"><ele>669.0</ele><time>2026-04-18T12:12:36.999Z</time></trkpt><trkpt lat="44.434092117757686" lon="10.253003671349045"><ele>669.0</ele><time>2026-04-18T12:12:37.999Z</time></trkpt><trkpt lat="44.43413246296259" lon="10.252844843193898"><ele>669.0</ele><time>2026-04-18T12:12:38.999Z</time></trkpt><trkpt lat="44.43417442528262" lon="10.252686570025213"><ele>669.0</ele><time>2026-04-18T12:12:39.999Z</time></trkpt><trkpt lat="44.4342125354525" lon="10.252531620006122"><ele>669.0</ele><time>2026-04-18T12:12:40.999Z</time></trkpt><trkpt lat="44.43424057287622" lon="10.252379843825391"><ele>669.0</ele><time>2026-04-18T12:12:41.999Z</time></trkpt><trkpt lat="44.43426650957876" lon="10.252228638000236"><ele>669.0</ele><time>2026-04-18T12:12:42.999Z</time></trkpt><trkpt lat="44.434299704044214" lon="10.252070328211063"><ele>669.0</ele><time>2026-04-18T12:12:43.999Z</time></trkpt><trkpt lat="44.434321361686145" lon="10.251910563779957"><ele>669.0</ele><time>2026-04-18T12:12:44.999Z</time></trkpt><trkpt lat="44.43435091073361" lon="10.251763803241975"><ele>669.0</ele><time>2026-04-18T12:12:45.999Z</time></trkpt><trkpt lat="44.43437437586006" lon="10.25161491510867"><ele>669.0</ele><time>2026-04-18T12:12:46.999Z</time></trkpt><trkpt lat="44.434385075351905" lon="10.251461549733195"><ele>669.0</ele><time>2026-04-18T12:12:47.999Z</time></trkpt><trkpt lat="44.43437853558865" lon="10.251299942709606"><ele>669.0</ele><time>2026-04-18T12:12:48.999Z</time></trkpt><trkpt lat="44.43435586921775" lon="10.251144110042581"><ele>669.0</ele><time>2026-04-18T12:12:49.999Z</time></trkpt><trkpt lat="44.43432344006693" lon="10.2509917692647"><ele>668.8000000000001</ele><time>2026-04-18T12:12:50.999Z</time></trkpt><trkpt lat="44.434316707618386" lon="10.250831928909527"><ele>668.6</ele><time>2026-04-18T12:12:51.999Z</time></trkpt><trkpt lat="44.43430105190066" lon="10.250681234729502"><ele>668.4</ele><time>2026-04-18T12:12:52.999Z</time></trkpt><trkpt lat="44.43429877314154" lon="10.25053005752554"><ele>668.2</ele><time>2026-04-18T12:12:53.999Z</time></trkpt><trkpt lat="44.4343025195541" lon="10.250375985189994"><ele>668.0</ele><time>2026-04-18T12:12:54.999Z</time></trkpt><trkpt lat="44.434326777735585" lon="10.250209996167209"><ele>667.4</ele><time>2026-04-18T12:12:55.999Z</time></trkpt><trkpt lat="44.43434977770267" lon="10.250055998580438"><ele>666.8</ele><time>2026-04-18T12:12:56.999Z</time></trkpt><trkpt lat="44.434379113963345" lon="10.249902164315957"><ele>666.2</ele><time>2026-04-18T12:12:57.999Z</time></trkpt><trkpt lat="44.434399323949165" lon="10.24976073328352"><ele>665.6</ele><time>2026-04-18T12:12:58.999Z</time></trkpt><trkpt lat="44.434404146888255" lon="10.249621596564715"><ele>665.0</ele><time>2026-04-18T12:12:59.999Z</time></trkpt><trkpt lat="44.434388402071875" lon="10.249488330846743"><ele>664.4</ele><time>2026-04-18T12:13:00.999Z</time></trkpt><trkpt lat="44.434364030655075" lon="10.249355035845012"><ele>663.8</ele><time>2026-04-18T12:13:01.999Z</time></trkpt><trkpt lat="44.43434363608367" lon="10.249230855183555"><ele>663.2</ele><time>2026-04-18T12:13:02.999Z</time></trkpt><trkpt lat="44.43433839702697" lon="10.249117052328296"><ele>662.6</ele><time>2026-04-18T12:13:03.999Z</time></trkpt><trkpt lat="44.43435561607905" lon="10.248987989261108"><ele>662.0</ele><time>2026-04-18T12:13:04.999Z</time></trkpt><trkpt lat="44.434393154674716" lon="10.248864120639777"><ele>662.0</ele><time>2026-04-18T12:13:05.999Z</time></trkpt><trkpt lat="44.43442439271202" lon="10.24872794682112"><ele>662.0</ele><time>2026-04-18T12:13:06.999Z</time></trkpt><trkpt lat="44.434452301606676" lon="10.248608846528219"><ele>662.0</ele><time>2026-04-18T12:13:07.999Z</time></trkpt><trkpt lat="44.4344784750221" lon="10.248480456872542"><ele>662.0</ele><time>2026-04-18T12:13:08.999Z</time></trkpt><trkpt lat="44.4345096320466" lon="10.248373027406993"><ele>662.0</ele><time>2026-04-18T12:13:09.999Z</time></trkpt><trkpt lat="44.43455825377581" lon="10.248311382576562"><ele>662.0</ele><time>2026-04-18T12:13:10.999Z</time></trkpt><trkpt lat="44.4346243613264" lon="10.24831781261119"><ele>657.6</ele><time>2026-04-18T12:13:11.999Z</time></trkpt><trkpt lat="44.43469586551693" lon="10.248365772131185"><ele>653.2</ele><time>2026-04-18T12:13:12.999Z</time></trkpt><trkpt lat="44.43475947021977" lon="10.248463300513023"><ele>648.8</ele><time>2026-04-18T12:13:13.999Z</time></trkpt><trkpt lat="44.4348367268325" lon="10.248570729755357"><ele>644.4</ele><time>2026-04-18T12:13:14.999Z</time></trkpt><trkpt lat="44.43491249584908" lon="10.248659269670563"><ele>640.0</ele><time>2026-04-18T12:13:15.999Z</time></trkpt><trkpt lat="44.43498644976042" lon="10.24874086051937"><ele>640.0</ele><time>2026-04-18T12:13:16.999Z</time></trkpt><trkpt lat="44.43505442333464" lon="10.248820173275112"><ele>640.0</ele><time>2026-04-18T12:13:17.999Z</time></trkpt><trkpt lat="44.435112810365986" lon="10.248907485149058"><ele>640.0</ele><time>2026-04-18T12:13:18.999Z</time></trkpt><trkpt lat="44.435156514439036" lon="10.249009850982745"><ele>640.0</ele><time>2026-04-18T12:13:20Z</time></trkpt><trkpt lat="44.43517628246301" lon="10.24912105849484"><ele>640.0</ele><time>2026-04-18T12:13:21Z</time></trkpt><trkpt lat="44.43516724609429" lon="10.249238487558321"><ele>640.0</ele><time>2026-04-18T12:13:22Z</time></trkpt><trkpt lat="44.435148307473824" lon="10.249360699217405"><ele>640.5</ele><time>2026-04-18T12:13:23Z</time></trkpt><trkpt lat="44.43512971197598" lon="10.249471483271826"><ele>641.0</ele><time>2026-04-18T12:13:24Z</time></trkpt><trkpt lat="44.435117576193164" lon="10.249577419267798"><ele>641.5</ele><time>2026-04-18T12:13:25Z</time></trkpt><trkpt lat="44.43512393150996" lon="10.2496751572905"><ele>642.0</ele><time>2026-04-18T12:13:26Z</time></trkpt><trkpt lat="44.43521304517289" lon="10.2497865451944"><ele>642.5</ele><time>2026-04-18T12:13:28Z</time></trkpt><trkpt lat="44.435280035717064" lon="10.249777167500419"><ele>643.0</ele><time>2026-04-18T12:13:29Z</time></trkpt><trkpt lat="44.43535796357692" lon="10.24972917936103"><ele>643.0</ele><time>2026-04-18T12:13:30Z</time></trkpt><trkpt lat="44.43544775101848" lon="10.249693359348685"><ele>643.0</ele><time>2026-04-18T12:13:31Z</time></trkpt><trkpt lat="44.4355334550716" lon="10.24964799261949"><ele>643.0</ele><time>2026-04-18T12:13:32Z</time></trkpt><trkpt lat="44.435598652483314" lon="10.2495591325164"><ele>643.0</ele><time>2026-04-18T12:13:33Z</time></trkpt><trkpt lat="44.435664325384174" lon="10.249475637933557"><ele>643.0</ele><time>2026-04-18T12:13:34Z</time></trkpt><trkpt lat="44.4357156876076" lon="10.249413190431337"><ele>643.0</ele><time>2026-04-18T12:13:35Z</time></trkpt><trkpt lat="44.4358204697887" lon="10.249372372382856"><ele>640.8</ele><time>2026-04-18T12:13:37Z</time></trkpt><trkpt lat="44.43586992266462" lon="10.249465792414048"><ele>638.5999999999999</ele><time>2026-04-18T12:13:38Z</time></trkpt><trkpt lat="44.43588367304734" lon="10.249609498662231"><ele>636.4000000000001</ele><time>2026-04-18T12:13:39Z</time></trkpt><trkpt lat="44.435888368070465" lon="10.249755095678218"><ele>634.2</ele><time>2026-04-18T12:13:40Z</time></trkpt><trkpt lat="44.435911827583105" lon="10.249894843051438"><ele>632.0</ele><time>2026-04-18T12:13:41Z</time></trkpt><trkpt lat="44.43595664041676" lon="10.250022609918743"><ele>631.2</ele><time>2026-04-18T12:13:42Z</time></trkpt><trkpt lat="44.43600130521316" lon="10.250146199552681"><ele>630.4000000000001</ele><time>2026-04-18T12:13:43Z</time></trkpt><trkpt lat="44.43603588281721" lon="10.250274187211918"><ele>629.5999999999999</ele><time>2026-04-18T12:13:44Z</time></trkpt><trkpt lat="44.43605677519891" lon="10.250392116442644"><ele>628.8</ele><time>2026-04-18T12:13:45Z</time></trkpt><trkpt lat="44.43608549522142" lon="10.250506627659849"><ele>628.0</ele><time>2026-04-18T12:13:46Z</time></trkpt><trkpt lat="44.43611911508537" lon="10.25061807767083"><ele>628.0</ele><time>2026-04-18T12:13:47Z</time></trkpt><trkpt lat="44.43615204815272" lon="10.2507248436763"><ele>628.0</ele><time>2026-04-18T12:13:48Z</time></trkpt><trkpt lat="44.436176932479306" lon="10.25082357147737"><ele>628.0</ele><time>2026-04-18T12:13:49Z</time></trkpt><trkpt lat="44.43620922721306" lon="10.250902375104308"><ele>628.0</ele><time>2026-04-18T12:13:50Z</time></trkpt><trkpt lat="44.43626921434393" lon="10.250939470036537"><ele>628.0</ele><time>2026-04-18T12:13:51Z</time></trkpt><trkpt lat="44.43634269849158" lon="10.25092168146581"><ele>628.0</ele><time>2026-04-18T12:13:52Z</time></trkpt><trkpt lat="44.436408454167015" lon="10.2508245631021"><ele>624.4</ele><time>2026-04-18T12:13:53Z</time></trkpt><trkpt lat="44.436427905972984" lon="10.250678006448725"><ele>620.8</ele><time>2026-04-18T12:13:54Z</time></trkpt><trkpt lat="44.436435681525424" lon="10.250519068555107"><ele>617.2</ele><time>2026-04-18T12:13:55Z</time></trkpt><trkpt lat="44.43644527981131" lon="10.250360314109892"><ele>613.6</ele><time>2026-04-18T12:13:56Z</time></trkpt><trkpt lat="44.43645463749567" lon="10.250205539168753"><ele>610.0</ele><time>2026-04-18T12:13:57Z</time></trkpt><trkpt lat="44.43650559714445" lon="10.25009311274758"><ele>610.0</ele><time>2026-04-18T12:13:58Z</time></trkpt><trkpt lat="44.43659046192045" lon="10.250003285603881"><ele>610.0</ele><time>2026-04-18T12:13:59Z</time></trkpt><trkpt lat="44.43668668806653" lon="10.249895285217573"><ele>610.0</ele><time>2026-04-18T12:14:00Z</time></trkpt><trkpt lat="44.43677558193919" lon="10.24978549225281"><ele>610.0</ele><time>2026-04-18T12:14:01Z</time></trkpt><trkpt lat="44.43682517649387" lon="10.249638488790337"><ele>611.25</ele><time>2026-04-18T12:14:02Z</time></trkpt><trkpt lat="44.43684065024962" lon="10.249475096246163"><ele>612.5</ele><time>2026-04-18T12:14:03Z</time></trkpt><trkpt lat="44.43682401581596" lon="10.249305052250609"><ele>613.75</ele><time>2026-04-18T12:14:04Z</time></trkpt><trkpt lat="44.43681776215366" lon="10.249140613695053"><ele>615.0</ele><time>2026-04-18T12:14:05Z</time></trkpt><trkpt lat="44.43679527420601" lon="10.248986755238793"><ele>613.6</ele><time>2026-04-18T12:14:06Z</time></trkpt><trkpt lat="44.43680278652592" lon="10.248841958775227"><ele>612.2</ele><time>2026-04-18T12:14:07Z</time></trkpt><trkpt lat="44.43683293799663" lon="10.248702208537514"><ele>610.8</ele><time>2026-04-18T12:14:08Z</time></trkpt><trkpt lat="44.43686789563323" lon="10.248556818884419"><ele>609.4</ele><time>2026-04-18T12:14:09Z</time></trkpt><trkpt lat="44.43689099140517" lon="10.248403921589304"><ele>608.0</ele><time>2026-04-18T12:14:10Z</time></trkpt><trkpt lat="44.43694159489332" lon="10.248269538613352"><ele>603.1999999999999</ele><time>2026-04-18T12:14:11Z</time></trkpt><trkpt lat="44.43696331629625" lon="10.248120486735244"><ele>598.4</ele><time>2026-04-18T12:14:12Z</time></trkpt><trkpt lat="44.4369769601184" lon="10.247981790305303"><ele>593.5999999999999</ele><time>2026-04-18T12:14:13Z</time></trkpt><trkpt lat="44.43692653617082" lon="10.247855571218242"><ele>588.8</ele><time>2026-04-18T12:14:14Z</time></trkpt><trkpt lat="44.43683719333166" lon="10.24775401786602"><ele>584.0</ele><time>2026-04-18T12:14:15Z</time></trkpt><trkpt lat="44.43669508119569" lon="10.247726050147184"><ele>584.0</ele><time>2026-04-18T12:14:16Z</time></trkpt><trkpt lat="44.436568974052236" lon="10.247709833602219"><ele>584.0</ele><time>2026-04-18T12:14:17Z</time></trkpt><trkpt lat="44.4364381721697" lon="10.24771477414549"><ele>584.0</ele><time>2026-04-18T12:14:18Z</time></trkpt><trkpt lat="44.43631409861231" lon="10.247692599918187"><ele>584.0</ele><time>2026-04-18T12:14:19Z</time></trkpt><trkpt lat="44.43620223551185" lon="10.247670908289122"><ele>588.25</ele><time>2026-04-18T12:14:20Z</time></trkpt><trkpt lat="44.43609553233391" lon="10.24762483320101"><ele>592.5</ele><time>2026-04-18T12:14:21Z</time></trkpt><trkpt lat="44.435979110064274" lon="10.24757488453335"><ele>596.75</ele><time>2026-04-18T12:14:22Z</time></trkpt><trkpt lat="44.435872139493405" lon="10.247510726094708"><ele>601.0</ele><time>2026-04-18T12:14:23Z</time></trkpt><trkpt lat="44.43577217845695" lon="10.247452654437017"><ele>601.0</ele><time>2026-04-18T12:14:24Z</time></trkpt><trkpt lat="44.43568283388649" lon="10.24738656004784"><ele>601.0</ele><time>2026-04-18T12:14:25Z</time></trkpt><trkpt lat="44.43562562774056" lon="10.247277279424289"><ele>601.0</ele><time>2026-04-18T12:14:26Z</time></trkpt><trkpt lat="44.435594038066476" lon="10.247147603967338"><ele>601.0</ele><time>2026-04-18T12:14:27Z</time></trkpt><trkpt lat="44.43561066431784" lon="10.246983628622576"><ele>601.0</ele><time>2026-04-18T12:14:28Z</time></trkpt><trkpt lat="44.435653845266465" lon="10.246821317811081"><ele>597.4</ele><time>2026-04-18T12:14:29Z</time></trkpt><trkpt lat="44.43571666370878" lon="10.246680467457372"><ele>593.8</ele><time>2026-04-18T12:14:30Z</time></trkpt><trkpt lat="44.435807250480025" lon="10.246577181865295"><ele>590.1999999999999</ele><time>2026-04-18T12:14:30.999Z</time></trkpt><trkpt lat="44.435870799745615" lon="10.246464403059452"><ele>586.6</ele><time>2026-04-18T12:14:31.999Z</time></trkpt><trkpt lat="44.435876540565715" lon="10.246336324578804"><ele>583.0</ele><time>2026-04-18T12:14:32.999Z</time></trkpt><trkpt lat="44.43581965353694" lon="10.246231544316899"><ele>584.0</ele><time>2026-04-18T12:14:33.999Z</time></trkpt><trkpt lat="44.435725538282334" lon="10.246176358923583"><ele>585.0</ele><time>2026-04-18T12:14:34.999Z</time></trkpt><trkpt lat="44.43561765455999" lon="10.246151415199652"><ele>586.0</ele><time>2026-04-18T12:14:35.999Z</time></trkpt><trkpt lat="44.435533341497866" lon="10.246077299536326"><ele>587.0</ele><time>2026-04-18T12:14:36.999Z</time></trkpt><trkpt lat="44.43544872953137" lon="10.246006740718869"><ele>588.0</ele><time>2026-04-18T12:14:37.999Z</time></trkpt><trkpt lat="44.43537543410479" lon="10.245892608352499"><ele>588.0</ele><time>2026-04-18T12:14:38.999Z</time></trkpt><trkpt lat="44.43528909249139" lon="10.245782183995821"><ele>588.0</ele><time>2026-04-18T12:14:39.999Z</time></trkpt><trkpt lat="44.435212699892396" lon="10.245684347278928"><ele>588.0</ele><time>2026-04-18T12:14:40.999Z</time></trkpt><trkpt lat="44.4351357501213" lon="10.245619733270933"><ele>588.0</ele><time>2026-04-18T12:14:41.999Z</time></trkpt><trkpt lat="44.4350569011936" lon="10.245545863556922"><ele>588.0</ele><time>2026-04-18T12:14:43.999Z</time></trkpt><trkpt lat="44.435079563212064" lon="10.24545100228625"><ele>582.6</ele><time>2026-04-18T12:14:45.999Z</time></trkpt><trkpt lat="44.435051042970024" lon="10.245361872401672"><ele>577.1999999999999</ele><time>2026-04-18T12:14:48.999Z</time></trkpt><trkpt lat="44.43498109711645" lon="10.245340770877773"><ele>571.8</ele><time>2026-04-18T12:14:50.999Z</time></trkpt><trkpt lat="44.43509450853855" lon="10.245354393855717"><ele>566.4</ele><time>2026-04-18T12:14:52.999Z</time></trkpt><trkpt lat="44.43508312029206" lon="10.245468845143371"><ele>561.0</ele><time>2026-04-18T12:21:57Z</time></trkpt><trkpt lat="44.435195819029786" lon="10.245532050067505"><ele>562.5</ele><time>2026-04-18T12:22:01Z</time></trkpt><trkpt lat="44.4353636881805" lon="10.245693688489185"><ele>564.0</ele><time>2026-04-18T12:22:02Z</time></trkpt><trkpt lat="44.43545705585171" lon="10.24577414702472"><ele>565.5</ele><time>2026-04-18T12:22:03Z</time></trkpt><trkpt lat="44.435565002031275" lon="10.245833892777847"><ele>567.0</ele><time>2026-04-18T12:22:04Z</time></trkpt><trkpt lat="44.43568573065617" lon="10.245866372947525"><ele>567.0</ele><time>2026-04-18T12:22:05Z</time></trkpt><trkpt lat="44.43580218718172" lon="10.245868631973167"><ele>567.0</ele><time>2026-04-18T12:22:06Z</time></trkpt><trkpt lat="44.435909725971285" lon="10.245836324028053"><ele>567.0</ele><time>2026-04-18T12:22:07Z</time></trkpt><trkpt lat="44.43599612925638" lon="10.245757211622026"><ele>567.0</ele><time>2026-04-18T12:22:08Z</time></trkpt><trkpt lat="44.43607250019026" lon="10.245700307513067"><ele>567.0</ele><time>2026-04-18T12:22:09Z</time></trkpt><trkpt lat="44.43614735154714" lon="10.245718029282212"><ele>567.0</ele><time>2026-04-18T12:22:10Z</time></trkpt><trkpt lat="44.436209703647805" lon="10.24580969931551"><ele>567.0</ele><time>2026-04-18T12:22:11Z</time></trkpt><trkpt lat="44.436206211498614" lon="10.246004141975675"><ele>567.0</ele><time>2026-04-18T12:22:12Z</time></trkpt><trkpt lat="44.43628552901375" lon="10.246176591167293"><ele>567.0</ele><time>2026-04-18T12:22:13Z</time></trkpt><trkpt lat="44.43636391007619" lon="10.246357403574434"><ele>565.0</ele><time>2026-04-18T12:22:14Z</time></trkpt><trkpt lat="44.43644755027551" lon="10.246526971775632"><ele>563.0</ele><time>2026-04-18T12:22:15Z</time></trkpt><trkpt lat="44.436512231096316" lon="10.246691751011186"><ele>561.0</ele><time>2026-04-18T12:22:16Z</time></trkpt><trkpt lat="44.43657980015852" lon="10.24683676412933"><ele>559.0</ele><time>2026-04-18T12:22:17Z</time></trkpt><trkpt lat="44.436650721804796" lon="10.246938306856151"><ele>559.0</ele><time>2026-04-18T12:22:18Z</time></trkpt><trkpt lat="44.436749881292286" lon="10.246974344032154"><ele>559.0</ele><time>2026-04-18T12:22:19Z</time></trkpt><trkpt lat="44.43687470036935" lon="10.246886821652495"><ele>559.0</ele><time>2026-04-18T12:22:20Z</time></trkpt><trkpt lat="44.43701434786546" lon="10.246828537320983"><ele>559.0</ele><time>2026-04-18T12:22:21Z</time></trkpt><trkpt lat="44.43714004546968" lon="10.246751871600125"><ele>555.0</ele><time>2026-04-18T12:22:22Z</time></trkpt><trkpt lat="44.43727610573714" lon="10.24673842977712"><ele>551.0</ele><time>2026-04-18T12:22:23Z</time></trkpt><trkpt lat="44.437417251321776" lon="10.246737567456423"><ele>547.0</ele><time>2026-04-18T12:22:24Z</time></trkpt><trkpt lat="44.43755783158034" lon="10.246716205555614"><ele>543.0</ele><time>2026-04-18T12:22:25Z</time></trkpt><trkpt lat="44.43766725159784" lon="10.246694070326923"><ele>543.0</ele><time>2026-04-18T12:22:26Z</time></trkpt><trkpt lat="44.4377464259384" lon="10.246729059844752"><ele>543.0</ele><time>2026-04-18T12:22:27Z</time></trkpt><trkpt lat="44.43777043161349" lon="10.246886148845176"><ele>543.0</ele><time>2026-04-18T12:22:28Z</time></trkpt><trkpt lat="44.43778560516165" lon="10.247068130682454"><ele>543.0</ele><time>2026-04-18T12:22:29Z</time></trkpt><trkpt lat="44.43782879594364" lon="10.247273910793643"><ele>539.25</ele><time>2026-04-18T12:22:30Z</time></trkpt><trkpt lat="44.43789098788328" lon="10.247457601578475"><ele>535.5</ele><time>2026-04-18T12:22:31Z</time></trkpt><trkpt lat="44.437976923717905" lon="10.247603560333047"><ele>531.75</ele><time>2026-04-18T12:22:32Z</time></trkpt><trkpt lat="44.43807581577977" lon="10.247722889172135"><ele>528.0</ele><time>2026-04-18T12:22:33Z</time></trkpt><trkpt lat="44.43819069031904" lon="10.24781995087458"><ele>528.0</ele><time>2026-04-18T12:22:34Z</time></trkpt><trkpt lat="44.43829152249591" lon="10.24794781416099"><ele>528.0</ele><time>2026-04-18T12:22:35Z</time></trkpt><trkpt lat="44.43831382073337" lon="10.248129916938819"><ele>528.0</ele><time>2026-04-18T12:22:36Z</time></trkpt><trkpt lat="44.43837020845244" lon="10.24821219520648"><ele>528.0</ele><time>2026-04-18T12:22:37Z</time></trkpt><trkpt lat="44.43843178843009" lon="10.248290539163566"><ele>528.0</ele><time>2026-04-18T12:22:39Z</time></trkpt><trkpt lat="44.43849488895283" lon="10.24824929415795"><ele>528.0</ele><time>2026-04-18T12:22:40Z</time></trkpt><trkpt lat="44.43853462683462" lon="10.248132059471056"><ele>528.0</ele><time>2026-04-18T12:22:41Z</time></trkpt><trkpt lat="44.43852277768653" lon="10.247990928203281"><ele>528.0</ele><time>2026-04-18T12:22:42Z</time></trkpt><trkpt lat="44.43848065968402" lon="10.247840538403503"><ele>528.0</ele><time>2026-04-18T12:22:43Z</time></trkpt><trkpt lat="44.43841090115772" lon="10.247693055895686"><ele>528.0</ele><time>2026-04-18T12:22:44Z</time></trkpt><trkpt lat="44.43832712090626" lon="10.2475710310009"><ele>528.0</ele><time>2026-04-18T12:22:45Z</time></trkpt><trkpt lat="44.43825599586473" lon="10.247456569747378"><ele>528.0</ele><time>2026-04-18T12:22:46Z</time></trkpt><trkpt lat="44.43818895010548" lon="10.24733971952715"><ele>528.0</ele><time>2026-04-18T12:22:47Z</time></trkpt><trkpt lat="44.43813917091057" lon="10.247223696955883"><ele>528.0</ele><time>2026-04-18T12:22:48Z</time></trkpt><trkpt lat="44.43811978508584" lon="10.24710182787282"><ele>528.0</ele><time>2026-04-18T12:22:49Z</time></trkpt><trkpt lat="44.43809850262962" lon="10.246986815341568"><ele>526.5</ele><time>2026-04-18T12:22:50Z</time></trkpt><trkpt lat="44.43807177093385" lon="10.246873221478847"><ele>525.0</ele><time>2026-04-18T12:22:51Z</time></trkpt><trkpt lat="44.43808153840666" lon="10.246759514950222"><ele>523.5</ele><time>2026-04-18T12:22:52Z</time></trkpt><trkpt lat="44.43810764691171" lon="10.246653214362695"><ele>522.0</ele><time>2026-04-18T12:22:53Z</time></trkpt><trkpt lat="44.43815587996682" lon="10.246546137551283"><ele>520.5</ele><time>2026-04-18T12:22:54Z</time></trkpt><trkpt lat="44.43821132680013" lon="10.246452220030823"><ele>519.0</ele><time>2026-04-18T12:22:54.999Z</time></trkpt><trkpt lat="44.43826938368532" lon="10.246375514220562"><ele>516.8333333333334</ele><time>2026-04-18T12:22:55.999Z</time></trkpt><trkpt lat="44.43831118523198" lon="10.246296633983404"><ele>514.6666666666666</ele><time>2026-04-18T12:22:56.999Z</time></trkpt><trkpt lat="44.438338254806844" lon="10.246215010458409"><ele>512.5</ele><time>2026-04-18T12:22:57.999Z</time></trkpt><trkpt lat="44.43828788217316" lon="10.246128808828292"><ele>510.3333333333333</ele><time>2026-04-18T12:22:58.999Z</time></trkpt><trkpt lat="44.438160658316285" lon="10.246056653183585"><ele>508.16666666666663</ele><time>2026-04-18T12:23:00.999Z</time></trkpt><trkpt lat="44.43807087742299" lon="10.246051401525655"><ele>506.0</ele><time>2026-04-18T12:23:01.999Z</time></trkpt><trkpt lat="44.43798623003205" lon="10.246018030414161"><ele>508.16666666666663</ele><time>2026-04-18T12:23:02.999Z</time></trkpt><trkpt lat="44.43789649294208" lon="10.245997707604078"><ele>510.3333333333333</ele><time>2026-04-18T12:23:03.999Z</time></trkpt><trkpt lat="44.437816439536356" lon="10.245974029699056"><ele>512.5</ele><time>2026-04-18T12:23:04.999Z</time></trkpt><trkpt lat="44.437740969914046" lon="10.245946096639598"><ele>514.6666666666666</ele><time>2026-04-18T12:23:05.999Z</time></trkpt><trkpt lat="44.43767224378501" lon="10.245905240280251"><ele>516.8333333333334</ele><time>2026-04-18T12:23:06.999Z</time></trkpt><trkpt lat="44.437596018092776" lon="10.245848209777623"><ele>519.0</ele><time>2026-04-18T12:23:07.999Z</time></trkpt><trkpt lat="44.43751441179381" lon="10.245810846443943"><ele>519.0</ele><time>2026-04-18T12:23:08.999Z</time></trkpt><trkpt lat="44.437446550942745" lon="10.245757780185516"><ele>519.0</ele><time>2026-04-18T12:23:09.999Z</time></trkpt><trkpt lat="44.43739922046586" lon="10.245666041708077"><ele>519.0</ele><time>2026-04-18T12:23:10.999Z</time></trkpt><trkpt lat="44.437368559379856" lon="10.245556632174033"><ele>519.0</ele><time>2026-04-18T12:23:11.999Z</time></trkpt><trkpt lat="44.43734636357568" lon="10.245434684373695"><ele>519.0</ele><time>2026-04-18T12:23:12.999Z</time></trkpt><trkpt lat="44.43732131502373" lon="10.245309170251364"><ele>519.0</ele><time>2026-04-18T12:23:13.999Z</time></trkpt><trkpt lat="44.43728043916763" lon="10.245197546302512"><ele>517.6</ele><time>2026-04-18T12:23:14.999Z</time></trkpt><trkpt lat="44.43724418871255" lon="10.245072355066823"><ele>516.2</ele><time>2026-04-18T12:23:15.999Z</time></trkpt><trkpt lat="44.43720502606865" lon="10.244942566563871"><ele>514.8000000000001</ele><time>2026-04-18T12:23:16.999Z</time></trkpt><trkpt lat="44.43715777587622" lon="10.24481975672555"><ele>513.4</ele><time>2026-04-18T12:23:17.999Z</time></trkpt><trkpt lat="44.43710922927909" lon="10.244703417572408"><ele>512.0</ele><time>2026-04-18T12:23:18.999Z</time></trkpt><trkpt lat="44.43705275115487" lon="10.244600355516171"><ele>511.99999999999994</ele><time>2026-04-18T12:23:19.999Z</time></trkpt><trkpt lat="44.43699877408242" lon="10.244502585568233"><ele>512.0</ele><time>2026-04-18T12:23:20.999Z</time></trkpt><trkpt lat="44.43694030362574" lon="10.244409519919357"><ele>512.0</ele><time>2026-04-18T12:23:21.999Z</time></trkpt><trkpt lat="44.436889906068814" lon="10.24431757110448"><ele>512.0</ele><time>2026-04-18T12:23:22.999Z</time></trkpt><trkpt lat="44.436867000417315" lon="10.244210271855554"><ele>511.99999999999994</ele><time>2026-04-18T12:23:23.999Z</time></trkpt><trkpt lat="44.43684294037486" lon="10.244109824776412"><ele>512.0</ele><time>2026-04-18T12:23:24.999Z</time></trkpt><trkpt lat="44.43680768520175" lon="10.244014436920116"><ele>511.4285714285714</ele><time>2026-04-18T12:23:25.999Z</time></trkpt><trkpt lat="44.436792708870975" lon="10.243921390333016"><ele>510.8571428571428</ele><time>2026-04-18T12:23:26.999Z</time></trkpt><trkpt lat="44.43677214558292" lon="10.243833653754523"><ele>510.2857142857143</ele><time>2026-04-18T12:23:27.999Z</time></trkpt><trkpt lat="44.436755721594665" lon="10.243745330915194"><ele>509.71428571428567</ele><time>2026-04-18T12:23:28.999Z</time></trkpt><trkpt lat="44.43673687396509" lon="10.243636836494307"><ele>509.1428571428571</ele><time>2026-04-18T12:23:29.999Z</time></trkpt><trkpt lat="44.436726269441095" lon="10.243515187588057"><ele>508.57142857142856</ele><time>2026-04-18T12:23:30.999Z</time></trkpt><trkpt lat="44.43671884664172" lon="10.243411858501162"><ele>508.0</ele><time>2026-04-18T12:23:31.999Z</time></trkpt><trkpt lat="44.43677660517303" lon="10.243268596511978"><ele>508.0</ele><time>2026-04-18T12:23:33.999Z</time></trkpt><trkpt lat="44.4368829991522" lon="10.243238721103543"><ele>508.0</ele><time>2026-04-18T12:23:34.999Z</time></trkpt><trkpt lat="44.436990803258574" lon="10.243167144096379"><ele>508.0</ele><time>2026-04-18T12:23:35.999Z</time></trkpt><trkpt lat="44.437126067608325" lon="10.243108186008111"><ele>508.0</ele><time>2026-04-18T12:23:36.999Z</time></trkpt><trkpt lat="44.4372668935792" lon="10.243041618059635"><ele>504.33333333333337</ele><time>2026-04-18T12:23:37.999Z</time></trkpt><trkpt lat="44.437414507597055" lon="10.242971459981176"><ele>500.66666666666663</ele><time>2026-04-18T12:23:38.999Z</time></trkpt><trkpt lat="44.43756305957996" lon="10.242907456679635"><ele>497.0</ele><time>2026-04-18T12:23:39.999Z</time></trkpt><trkpt lat="44.437704640944546" lon="10.242844312708657"><ele>497.0</ele><time>2026-04-18T12:23:40.999Z</time></trkpt><trkpt lat="44.43784380203403" lon="10.242779149610147"><ele>497.0</ele><time>2026-04-18T12:23:41.999Z</time></trkpt><trkpt lat="44.43798298863509" lon="10.24272339790081"><ele>497.0</ele><time>2026-04-18T12:23:42.999Z</time></trkpt><trkpt lat="44.438121094715946" lon="10.242675789336046"><ele>497.0</ele><time>2026-04-18T12:23:43.999Z</time></trkpt><trkpt lat="44.43823189582042" lon="10.242637112398647"><ele>495.0</ele><time>2026-04-18T12:23:44.999Z</time></trkpt><trkpt lat="44.438312904725244" lon="10.242584420664128"><ele>493.00000000000006</ele><time>2026-04-18T12:23:45.999Z</time></trkpt><trkpt lat="44.43837922928307" lon="10.242497091554137"><ele>491.00000000000006</ele><time>2026-04-18T12:23:46.999Z</time></trkpt><trkpt lat="44.43841592797003" lon="10.24234981696825"><ele>489.0</ele><time>2026-04-18T12:23:47.999Z</time></trkpt><trkpt lat="44.438412992685684" lon="10.242139198226322"><ele>487.0</ele><time>2026-04-18T12:23:48.999Z</time></trkpt><trkpt lat="44.438399311170656" lon="10.241903032565103"><ele>487.0</ele><time>2026-04-18T12:23:50Z</time></trkpt><trkpt lat="44.43838046091607" lon="10.241666508273827"><ele>487.0</ele><time>2026-04-18T12:23:51Z</time></trkpt><trkpt lat="44.438361027189075" lon="10.241437357385943"><ele>487.0</ele><time>2026-04-18T12:23:52Z</time></trkpt><trkpt lat="44.43833745594117" lon="10.241215014170928"><ele>484.6666666666667</ele><time>2026-04-18T12:23:53Z</time></trkpt><trkpt lat="44.438338832567155" lon="10.240989458550324"><ele>482.33333333333337</ele><time>2026-04-18T12:23:54Z</time></trkpt><trkpt lat="44.43834723031853" lon="10.240771786841137"><ele>480.0</ele><time>2026-04-18T12:23:55Z</time></trkpt><trkpt lat="44.43835525234211" lon="10.240553908084602"><ele>477.25</ele><time>2026-04-18T12:23:56Z</time></trkpt><trkpt lat="44.438361277722336" lon="10.240349906028799"><ele>474.5</ele><time>2026-04-18T12:23:57Z</time></trkpt><trkpt lat="44.43834809181322" lon="10.240184125729819"><ele>471.75</ele><time>2026-04-18T12:23:58Z</time></trkpt><trkpt lat="44.43833530431731" lon="10.240055185609533"><ele>469.0</ele><time>2026-04-18T12:23:59Z</time></trkpt><trkpt lat="44.438283565177" lon="10.239944182612836"><ele>469.0</ele><time>2026-04-18T12:24:00Z</time></trkpt><trkpt lat="44.43817700071304" lon="10.239858610215004"><ele>469.0</ele><time>2026-04-18T12:24:01Z</time></trkpt><trkpt lat="44.43802705028022" lon="10.23982094213418"><ele>469.0</ele><time>2026-04-18T12:24:02Z</time></trkpt><trkpt lat="44.43786613038407" lon="10.239789104990699"><ele>469.0</ele><time>2026-04-18T12:24:03Z</time></trkpt><trkpt lat="44.437715884313434" lon="10.239769549632417"><ele>467.5</ele><time>2026-04-18T12:24:04Z</time></trkpt><trkpt lat="44.43759138879836" lon="10.239722346143859"><ele>466.0</ele><time>2026-04-18T12:24:05Z</time></trkpt><trkpt lat="44.437499330031805" lon="10.23965713775338"><ele>464.5</ele><time>2026-04-18T12:24:06Z</time></trkpt><trkpt lat="44.4374610645966" lon="10.239509700449425"><ele>463.0</ele><time>2026-04-18T12:24:07Z</time></trkpt><trkpt lat="44.43742646589245" lon="10.239315650335403"><ele>463.0</ele><time>2026-04-18T12:24:08Z</time></trkpt><trkpt lat="44.437458035752044" lon="10.239084601311678"><ele>463.0</ele><time>2026-04-18T12:24:09Z</time></trkpt><trkpt lat="44.43753062511084" lon="10.238861425574777"><ele>463.0</ele><time>2026-04-18T12:24:10Z</time></trkpt><trkpt lat="44.43759586300395" lon="10.238640062326919"><ele>460.33333333333337</ele><time>2026-04-18T12:24:11Z</time></trkpt><trkpt lat="44.437653379463974" lon="10.238407160583"><ele>457.66666666666663</ele><time>2026-04-18T12:24:12Z</time></trkpt><trkpt lat="44.43771811444719" lon="10.238203649974928"><ele>455.0</ele><time>2026-04-18T12:24:13Z</time></trkpt><trkpt lat="44.437777595438895" lon="10.23800494802133"><ele>455.0</ele><time>2026-04-18T12:24:14Z</time></trkpt><trkpt lat="44.43783632604745" lon="10.237809792923159"><ele>455.0</ele><time>2026-04-18T12:24:15Z</time></trkpt><trkpt lat="44.43789114061599" lon="10.237625119931236"><ele>455.0</ele><time>2026-04-18T12:24:16Z</time></trkpt><trkpt lat="44.437942252231615" lon="10.237447463670778"><ele>455.0</ele><time>2026-04-18T12:24:17Z</time></trkpt><trkpt lat="44.437991331118354" lon="10.237268537026006"><ele>457.0</ele><time>2026-04-18T12:24:18Z</time></trkpt><trkpt lat="44.43804002085775" lon="10.23708998088722"><ele>459.0</ele><time>2026-04-18T12:24:19Z</time></trkpt><trkpt lat="44.43808854554209" lon="10.236923733039285"><ele>461.0</ele><time>2026-04-18T12:24:20Z</time></trkpt><trkpt lat="44.438133128423466" lon="10.236780323192004"><ele>463.0</ele><time>2026-04-18T12:24:21Z</time></trkpt><trkpt lat="44.43817551103338" lon="10.236643874331545"><ele>463.0</ele><time>2026-04-18T12:24:22Z</time></trkpt><trkpt lat="44.438218537896844" lon="10.236505029230699"><ele>462.99999999999994</ele><time>2026-04-18T12:24:23Z</time></trkpt><trkpt lat="44.43825811997382" lon="10.23637047759045"><ele>462.99999999999994</ele><time>2026-04-18T12:24:24Z</time></trkpt><trkpt lat="44.43829370908515" lon="10.236252962723267"><ele>463.0</ele><time>2026-04-18T12:24:25Z</time></trkpt><trkpt lat="44.43832666289621" lon="10.236144636602118"><ele>463.0</ele><time>2026-04-18T12:24:26Z</time></trkpt><trkpt lat="44.438353249057585" lon="10.236058920805897"><ele>462.79999999999995</ele><time>2026-04-18T12:24:27Z</time></trkpt><trkpt lat="44.43837950773408" lon="10.2359759832835"><ele>462.59999999999997</ele><time>2026-04-18T12:24:29Z</time></trkpt><trkpt lat="44.43848980647168" lon="10.23591269812777"><ele>462.40000000000003</ele><time>2026-04-18T12:24:32Z</time></trkpt><trkpt lat="44.43857854681545" lon="10.23589446963315"><ele>462.20000000000005</ele><time>2026-04-18T12:24:33Z</time></trkpt><trkpt lat="44.43868892638982" lon="10.235881746065768"><ele>462.0</ele><time>2026-04-18T12:24:34Z</time></trkpt><trkpt lat="44.43880775700656" lon="10.235866090847969"><ele>462.0</ele><time>2026-04-18T12:24:35Z</time></trkpt><trkpt lat="44.43893166279348" lon="10.23585123099602"><ele>462.0</ele><time>2026-04-18T12:24:36Z</time></trkpt><trkpt lat="44.43906111830117" lon="10.235842113360876"><ele>462.0</ele><time>2026-04-18T12:24:37Z</time></trkpt><trkpt lat="44.43921051707021" lon="10.235830395849005"><ele>462.0</ele><time>2026-04-18T12:24:38Z</time></trkpt><trkpt lat="44.43936733797669" lon="10.235817330607086"><ele>462.0</ele><time>2026-04-18T12:24:39Z</time></trkpt><trkpt lat="44.439518909244036" lon="10.235806318862618"><ele>462.0</ele><time>2026-04-18T12:24:40Z</time></trkpt><trkpt lat="44.43968137631009" lon="10.235791397389882"><ele>462.0</ele><time>2026-04-18T12:24:41Z</time></trkpt><trkpt lat="44.43984031232691" lon="10.23577638063156"><ele>461.75</ele><time>2026-04-18T12:24:42Z</time></trkpt><trkpt lat="44.43997676666263" lon="10.235758723280748"><ele>461.5</ele><time>2026-04-18T12:24:43Z</time></trkpt><trkpt lat="44.440102853890956" lon="10.235739196399608"><ele>461.25</ele><time>2026-04-18T12:24:44Z</time></trkpt><trkpt lat="44.44021743501443" lon="10.235727780527101"><ele>461.0</ele><time>2026-04-18T12:24:45Z</time></trkpt><trkpt lat="44.440309761842684" lon="10.235732391370357"><ele>461.0</ele><time>2026-04-18T12:24:46Z</time></trkpt><trkpt lat="44.440382549575084" lon="10.23577383604488"><ele>461.0</ele><time>2026-04-18T12:24:47Z</time></trkpt><trkpt lat="44.4404272845004" lon="10.235888000026256"><ele>461.0</ele><time>2026-04-18T12:24:48Z</time></trkpt><trkpt lat="44.44043162566902" lon="10.23605991767589"><ele>461.0</ele><time>2026-04-18T12:24:49Z</time></trkpt><trkpt lat="44.44040831961395" lon="10.23626628946471"><ele>461.0</ele><time>2026-04-18T12:24:50Z</time></trkpt><trkpt lat="44.44038865631529" lon="10.236481631717645"><ele>460.5</ele><time>2026-04-18T12:24:51Z</time></trkpt><trkpt lat="44.440377456614954" lon="10.236700100146855"><ele>460.0</ele><time>2026-04-18T12:24:52Z</time></trkpt><trkpt lat="44.44035680082907" lon="10.23690279762928"><ele>459.5</ele><time>2026-04-18T12:24:53Z</time></trkpt><trkpt lat="44.44034082806282" lon="10.237077418329982"><ele>459.0</ele><time>2026-04-18T12:24:54Z</time></trkpt><trkpt lat="44.44033779201755" lon="10.237235169231976"><ele>459.0</ele><time>2026-04-18T12:24:54.999Z</time></trkpt><trkpt lat="44.440343441299476" lon="10.237399880763194"><ele>459.0</ele><time>2026-04-18T12:24:55.999Z</time></trkpt><trkpt lat="44.44037843678205" lon="10.237558127193376"><ele>459.0</ele><time>2026-04-18T12:24:56.999Z</time></trkpt><trkpt lat="44.44047028638007" lon="10.237696459453275"><ele>459.0</ele><time>2026-04-18T12:24:57.999Z</time></trkpt><trkpt lat="44.44059393071899" lon="10.237821598025864"><ele>464.25</ele><time>2026-04-18T12:24:58.999Z</time></trkpt><trkpt lat="44.440707312930584" lon="10.237958900660072"><ele>469.5</ele><time>2026-04-18T12:24:59.999Z</time></trkpt><trkpt lat="44.440761620488885" lon="10.238141104033193"><ele>474.75</ele><time>2026-04-18T12:25:00.999Z</time></trkpt><trkpt lat="44.440762194185645" lon="10.238350718726293"><ele>480.0</ele><time>2026-04-18T12:25:01.999Z</time></trkpt><trkpt lat="44.44073307523629" lon="10.238523538593906"><ele>480.0</ele><time>2026-04-18T12:25:02.999Z</time></trkpt><trkpt lat="44.440725323565" lon="10.238664520239395"><ele>480.0</ele><time>2026-04-18T12:25:03.999Z</time></trkpt><trkpt lat="44.44075115737876" lon="10.238804636100669"><ele>480.0</ele><time>2026-04-18T12:25:04.999Z</time></trkpt><trkpt lat="44.44081032709817" lon="10.23895042344344"><ele>480.0</ele><time>2026-04-18T12:25:05.999Z</time></trkpt><trkpt lat="44.44090744309917" lon="10.23909339626981"><ele>479.33333333333337</ele><time>2026-04-18T12:25:06.999Z</time></trkpt><trkpt lat="44.44105496654739" lon="10.239203875500092"><ele>478.6666666666667</ele><time>2026-04-18T12:25:07.999Z</time></trkpt><trkpt lat="44.44122731483971" lon="10.239261958527427"><ele>478.0</ele><time>2026-04-18T12:25:08.999Z</time></trkpt><trkpt lat="44.44141342351074" lon="10.239298092021379"><ele>482.6666666666667</ele><time>2026-04-18T12:25:09.999Z</time></trkpt><trkpt lat="44.441588426086454" lon="10.23932228863822"><ele>487.33333333333337</ele><time>2026-04-18T12:25:10.999Z</time></trkpt><trkpt lat="44.44176247416713" lon="10.239343111742587"><ele>492.0</ele><time>2026-04-18T12:25:11.999Z</time></trkpt><trkpt lat="44.44193549266151" lon="10.239363561638635"><ele>492.0</ele><time>2026-04-18T12:25:12.999Z</time></trkpt><trkpt lat="44.442106418631354" lon="10.23939186483859"><ele>492.0</ele><time>2026-04-18T12:25:13.999Z</time></trkpt><trkpt lat="44.44227195511028" lon="10.239417631496567"><ele>492.0</ele><time>2026-04-18T12:25:14.999Z</time></trkpt><trkpt lat="44.44241431186038" lon="10.239441573390641"><ele>495.66666666666663</ele><time>2026-04-18T12:25:15.999Z</time></trkpt><trkpt lat="44.44256356275092" lon="10.239474846017293"><ele>499.3333333333333</ele><time>2026-04-18T12:25:16.999Z</time></trkpt><trkpt lat="44.44272239025002" lon="10.239544414989627"><ele>503.0</ele><time>2026-04-18T12:25:17.999Z</time></trkpt><trkpt lat="44.442879858524094" lon="10.239651981037566"><ele>501.66666666666663</ele><time>2026-04-18T12:25:18.999Z</time></trkpt><trkpt lat="44.44301978147715" lon="10.239797907037511"><ele>500.33333333333337</ele><time>2026-04-18T12:25:19.999Z</time></trkpt><trkpt lat="44.44315130701815" lon="10.239990332997609"><ele>499.0</ele><time>2026-04-18T12:25:20.999Z</time></trkpt><trkpt lat="44.44327090369509" lon="10.240232229616582"><ele>499.0</ele><time>2026-04-18T12:25:21.999Z</time></trkpt><trkpt lat="44.44336811794512" lon="10.240497696178908"><ele>499.0</ele><time>2026-04-18T12:25:22.999Z</time></trkpt><trkpt lat="44.44345729431379" lon="10.24076843580133"><ele>499.0</ele><time>2026-04-18T12:25:23.999Z</time></trkpt><trkpt lat="44.44355350692061" lon="10.24105118013475"><ele>497.5</ele><time>2026-04-18T12:25:24.999Z</time></trkpt><trkpt lat="44.44365645158783" lon="10.241347795672919"><ele>496.0</ele><time>2026-04-18T12:25:25.999Z</time></trkpt><trkpt lat="44.44376703715253" lon="10.241644914094753"><ele>502.5</ele><time>2026-04-18T12:25:26.999Z</time></trkpt><trkpt lat="44.44388455335122" lon="10.241945330229278"><ele>509.0</ele><time>2026-04-18T12:25:27.999Z</time></trkpt><trkpt lat="44.444003192862965" lon="10.242257458416164"><ele>504.0</ele><time>2026-04-18T12:25:28.999Z</time></trkpt><trkpt lat="44.444116917206344" lon="10.242573330687101"><ele>499.0</ele><time>2026-04-18T12:25:29.999Z</time></trkpt><trkpt lat="44.44422822683339" lon="10.242890324345616"><ele>496.5</ele><time>2026-04-18T12:25:30.999Z</time></trkpt><trkpt lat="44.44434442603451" lon="10.243215705666133"><ele>494.0</ele><time>2026-04-18T12:25:31.999Z</time></trkpt><trkpt lat="44.444466135405584" lon="10.243547715367743"><ele>494.0</ele><time>2026-04-18T12:25:32.999Z</time></trkpt><trkpt lat="44.4445861087863" lon="10.243877157625448"><ele>494.0</ele><time>2026-04-18T12:25:33.999Z</time></trkpt><trkpt lat="44.44470178160132" lon="10.244205722441638"><ele>500.0</ele><time>2026-04-18T12:25:34.999Z</time></trkpt><trkpt lat="44.44481031579286" lon="10.244522985555959"><ele>506.0</ele><time>2026-04-18T12:25:35.999Z</time></trkpt><trkpt lat="44.44491905357772" lon="10.244833918389826"><ele>506.5</ele><time>2026-04-18T12:25:36.999Z</time></trkpt><trkpt lat="44.445029951006504" lon="10.245149176312763"><ele>507.0</ele><time>2026-04-18T12:25:37.999Z</time></trkpt><trkpt lat="44.44513721992158" lon="10.245454175730833"><ele>507.5</ele><time>2026-04-18T12:25:38.999Z</time></trkpt><trkpt lat="44.445240908445015" lon="10.24574837300908"><ele>508.0</ele><time>2026-04-18T12:25:39.999Z</time></trkpt><trkpt lat="44.445340633761475" lon="10.246029518505079"><ele>508.0</ele><time>2026-04-18T12:25:40.999Z</time></trkpt><trkpt lat="44.44543402181882" lon="10.246290913208242"><ele>508.0</ele><time>2026-04-18T12:25:41.999Z</time></trkpt><trkpt lat="44.44552871431671" lon="10.246536789800924"><ele>508.0</ele><time>2026-04-18T12:25:42.999Z</time></trkpt><trkpt lat="44.4456460357729" lon="10.246763245307934"><ele>513.0</ele><time>2026-04-18T12:25:43.999Z</time></trkpt><trkpt lat="44.44579620583132" lon="10.246962690790689"><ele>518.0</ele><time>2026-04-18T12:25:44.999Z</time></trkpt><trkpt lat="44.44596687980632" lon="10.247120028532809"><ele>523.0</ele><time>2026-04-18T12:25:45.999Z</time></trkpt><trkpt lat="44.44615949319728" lon="10.247233910095582"><ele>525.3333333333334</ele><time>2026-04-18T12:25:46.999Z</time></trkpt><trkpt lat="44.446359937121095" lon="10.24730127518525"><ele>527.6666666666666</ele><time>2026-04-18T12:25:47.999Z</time></trkpt><trkpt lat="44.446572720218" lon="10.247320398022381"><ele>530.0</ele><time>2026-04-18T12:25:48.999Z</time></trkpt><trkpt lat="44.44678013866251" lon="10.247283532038217"><ele>530.0</ele><time>2026-04-18T12:25:49.999Z</time></trkpt><trkpt lat="44.446991803762764" lon="10.247194559246914"><ele>530.0</ele><time>2026-04-18T12:25:50.999Z</time></trkpt><trkpt lat="44.44719104060168" lon="10.247057340688484"><ele>530.0</ele><time>2026-04-18T12:25:51.999Z</time></trkpt><trkpt lat="44.44736470438987" lon="10.246867458824525"><ele>527.0</ele><time>2026-04-18T12:25:52.999Z</time></trkpt><trkpt lat="44.44752820457427" lon="10.246634810939781"><ele>524.0</ele><time>2026-04-18T12:25:53.999Z</time></trkpt><trkpt lat="44.44768813853307" lon="10.246385665001291"><ele>527.5</ele><time>2026-04-18T12:25:54.999Z</time></trkpt><trkpt lat="44.447862813975505" lon="10.246160136706422"><ele>531.0</ele><time>2026-04-18T12:25:56Z</time></trkpt><trkpt lat="44.44803192012744" lon="10.245919091399216"><ele>531.0</ele><time>2026-04-18T12:25:57Z</time></trkpt><trkpt lat="44.448201455542154" lon="10.245677292858353"><ele>531.0</ele><time>2026-04-18T12:25:58Z</time></trkpt><trkpt lat="44.448371903563114" lon="10.245433505762264"><ele>534.0</ele><time>2026-04-18T12:25:59Z</time></trkpt><trkpt lat="44.448545982990254" lon="10.245184524814544"><ele>537.0</ele><time>2026-04-18T12:26:00Z</time></trkpt><trkpt lat="44.448716702400446" lon="10.244940349608912"><ele>538.0</ele><time>2026-04-18T12:26:01Z</time></trkpt><trkpt lat="44.448891358207035" lon="10.24469641406789"><ele>539.0</ele><time>2026-04-18T12:26:02Z</time></trkpt><trkpt lat="44.44906645378365" lon="10.244461950884165"><ele>539.0</ele><time>2026-04-18T12:26:03Z</time></trkpt><trkpt lat="44.449249185382804" lon="10.244243646562348"><ele>539.0</ele><time>2026-04-18T12:26:04Z</time></trkpt><trkpt lat="44.449445519075816" lon="10.244037425370086"><ele>540.5</ele><time>2026-04-18T12:26:05Z</time></trkpt><trkpt lat="44.44964562199273" lon="10.243847422989775"><ele>542.0</ele><time>2026-04-18T12:26:06Z</time></trkpt><trkpt lat="44.449851916451536" lon="10.24365939100074"><ele>542.0</ele><time>2026-04-18T12:26:07Z</time></trkpt><trkpt lat="44.45005965067136" lon="10.243507522524766"><ele>542.0</ele><time>2026-04-18T12:26:08Z</time></trkpt><trkpt lat="44.450273289156264" lon="10.2433587948214"><ele>539.5</ele><time>2026-04-18T12:26:09Z</time></trkpt><trkpt lat="44.45048531416935" lon="10.243209364374929"><ele>537.0</ele><time>2026-04-18T12:26:10Z</time></trkpt><trkpt lat="44.450677740075996" lon="10.243064360764008"><ele>543.6666666666666</ele><time>2026-04-18T12:26:11Z</time></trkpt><trkpt lat="44.450868219014254" lon="10.242899708268354"><ele>550.3333333333333</ele><time>2026-04-18T12:26:12Z</time></trkpt><trkpt lat="44.45104831851807" lon="10.242717293733406"><ele>557.0</ele><time>2026-04-18T12:26:13Z</time></trkpt><trkpt lat="44.451214347270636" lon="10.242509150670413"><ele>558.0</ele><time>2026-04-18T12:26:14Z</time></trkpt><trkpt lat="44.45138445998289" lon="10.2422990326794"><ele>559.0</ele><time>2026-04-18T12:26:15Z</time></trkpt><trkpt lat="44.45153847201172" lon="10.242073920249304"><ele>560.0</ele><time>2026-04-18T12:26:16Z</time></trkpt><trkpt lat="44.451693434121296" lon="10.241859486176393"><ele>560.0</ele><time>2026-04-18T12:26:17Z</time></trkpt><trkpt lat="44.451862716346305" lon="10.241694671467835"><ele>560.0</ele><time>2026-04-18T12:26:18Z</time></trkpt><trkpt lat="44.45203457058274" lon="10.241579652344035"><ele>560.0</ele><time>2026-04-18T12:26:19Z</time></trkpt><trkpt lat="44.452176425345364" lon="10.241440160433358"><ele>562.3333333333333</ele><time>2026-04-18T12:26:20Z</time></trkpt><trkpt lat="44.4522880799881" lon="10.2412863666308"><ele>564.6666666666666</ele><time>2026-04-18T12:26:21Z</time></trkpt><trkpt lat="44.452354211032045" lon="10.241077788972142"><ele>567.0</ele><time>2026-04-18T12:26:22Z</time></trkpt><trkpt lat="44.452378166059106" lon="10.240854392190288"><ele>567.0</ele><time>2026-04-18T12:26:23Z</time></trkpt><trkpt lat="44.45238689850881" lon="10.240668913315734"><ele>567.0</ele><time>2026-04-18T12:26:24Z</time></trkpt><trkpt lat="44.45242879502568" lon="10.240534905515107"><ele>567.0</ele><time>2026-04-18T12:26:25Z</time></trkpt><trkpt lat="44.45245262425458" lon="10.240417478679115"><ele>567.0</ele><time>2026-04-18T12:26:26Z</time></trkpt><trkpt lat="44.4524997181175" lon="10.24032913007226"><ele>567.0</ele><time>2026-04-18T12:26:27Z</time></trkpt><trkpt lat="44.45254711449817" lon="10.240262410384597"><ele>567.8333333333334</ele><time>2026-04-18T12:26:28Z</time></trkpt><trkpt lat="44.45263256384351" lon="10.240197446328118"><ele>568.6666666666666</ele><time>2026-04-18T12:26:30Z</time></trkpt><trkpt lat="44.45268628329057" lon="10.240135939171402"><ele>569.5</ele><time>2026-04-18T12:26:33Z</time></trkpt><trkpt lat="44.45262756943427" lon="10.240033283341155"><ele>570.3333333333333</ele><time>2026-04-18T12:26:35Z</time></trkpt><trkpt lat="44.45258854546607" lon="10.2399462336915"><ele>571.1666666666666</ele><time>2026-04-18T12:26:41Z</time></trkpt><trkpt lat="44.452538209784635" lon="10.239848263094919"><ele>572.0</ele><time>2026-04-18T12:26:42Z</time></trkpt><trkpt lat="44.45246073141495" lon="10.239773222283384"><ele>574.1666666666666</ele><time>2026-04-18T12:26:43Z</time></trkpt><trkpt lat="44.45239107774458" lon="10.23968569464143"><ele>576.3333333333333</ele><time>2026-04-18T12:26:44Z</time></trkpt><trkpt lat="44.45230417152569" lon="10.239666164342246"><ele>578.5</ele><time>2026-04-18T12:26:45Z</time></trkpt><trkpt lat="44.45224002944832" lon="10.239657507246685"><ele>580.6666666666666</ele><time>2026-04-18T12:26:46Z</time></trkpt><trkpt lat="44.45216910412341" lon="10.239654280126704"><ele>582.8333333333334</ele><time>2026-04-18T12:26:49Z</time></trkpt><trkpt lat="44.45208088438949" lon="10.239769059628903"><ele>585.0</ele><time>2026-04-18T12:29:09.999Z</time></trkpt><trkpt lat="44.452018278613664" lon="10.23986561901924"><ele>585.0</ele><time>2026-04-18T12:29:10.999Z</time></trkpt><trkpt lat="44.4519490970263" lon="10.23995915995074"><ele>585.0</ele><time>2026-04-18T12:29:11.999Z</time></trkpt><trkpt lat="44.45185419886051" lon="10.240045983048702"><ele>585.0</ele><time>2026-04-18T12:29:12.999Z</time></trkpt><trkpt lat="44.45172136250747" lon="10.240088863719064"><ele>585.0</ele><time>2026-04-18T12:29:13.999Z</time></trkpt><trkpt lat="44.45159249946539" lon="10.240184079572485"><ele>585.0</ele><time>2026-04-18T12:29:14.999Z</time></trkpt><trkpt lat="44.451461318590844" lon="10.240255407736651"><ele>585.0</ele><time>2026-04-18T12:29:15.999Z</time></trkpt><trkpt lat="44.4513425728005" lon="10.240323689137192"><ele>585.0</ele><time>2026-04-18T12:29:16.999Z</time></trkpt><trkpt lat="44.45122969865805" lon="10.240359459370517"><ele>585.0</ele><time>2026-04-18T12:29:17.999Z</time></trkpt><trkpt lat="44.45114038941269" lon="10.240394640890344"><ele>584.6</ele><time>2026-04-18T12:29:18.999Z</time></trkpt><trkpt lat="44.45106374756363" lon="10.24041469278417"><ele>584.2</ele><time>2026-04-18T12:29:19.999Z</time></trkpt><trkpt lat="44.451004532190154" lon="10.240308548085837"><ele>583.8</ele><time>2026-04-18T12:29:20.999Z</time></trkpt><trkpt lat="44.450956072459604" lon="10.240208995981533"><ele>583.4</ele><time>2026-04-18T12:29:21.999Z</time></trkpt><trkpt lat="44.451000101407395" lon="10.240074425622456"><ele>583.0</ele><time>2026-04-18T12:29:22.999Z</time></trkpt><trkpt lat="44.45106907102522" lon="10.239984223330096"><ele>583.0</ele><time>2026-04-18T12:29:23.999Z</time></trkpt><trkpt lat="44.45116798571939" lon="10.239947707724346"><ele>583.0</ele><time>2026-04-18T12:29:24.999Z</time></trkpt><trkpt lat="44.45128581851085" lon="10.239925131862218"><ele>583.0</ele><time>2026-04-18T12:29:25.999Z</time></trkpt><trkpt lat="44.45139949264473" lon="10.239873659604315"><ele>583.0</ele><time>2026-04-18T12:29:26.999Z</time></trkpt><trkpt lat="44.4515134637059" lon="10.239809662457725"><ele>585.5</ele><time>2026-04-18T12:29:27.999Z</time></trkpt><trkpt lat="44.45162503371813" lon="10.239692045158582"><ele>588.0</ele><time>2026-04-18T12:29:28.999Z</time></trkpt><trkpt lat="44.451727026533845" lon="10.239540965492406"><ele>590.5</ele><time>2026-04-18T12:29:29.999Z</time></trkpt><trkpt lat="44.45181343009057" lon="10.239388231161847"><ele>593.0</ele><time>2026-04-18T12:29:30.999Z</time></trkpt><trkpt lat="44.451873901058775" lon="10.239227348174678"><ele>593.0</ele><time>2026-04-18T12:29:31.999Z</time></trkpt><trkpt lat="44.45189838062203" lon="10.23905273586526"><ele>593.0</ele><time>2026-04-18T12:29:32.999Z</time></trkpt><trkpt lat="44.451912492345045" lon="10.2388848493327"><ele>593.0</ele><time>2026-04-18T12:29:33.999Z</time></trkpt><trkpt lat="44.45191314124162" lon="10.238722335945225"><ele>593.0</ele><time>2026-04-18T12:29:34.999Z</time></trkpt><trkpt lat="44.451916233271625" lon="10.238553206598816"><ele>595.5</ele><time>2026-04-18T12:29:35.999Z</time></trkpt><trkpt lat="44.451920882426876" lon="10.238356148387162"><ele>598.0</ele><time>2026-04-18T12:29:36.999Z</time></trkpt><trkpt lat="44.45192651227312" lon="10.238164363203186"><ele>600.5</ele><time>2026-04-18T12:29:37.999Z</time></trkpt><trkpt lat="44.45193538536632" lon="10.237970380217577"><ele>603.0</ele><time>2026-04-18T12:29:38.999Z</time></trkpt><trkpt lat="44.45194470263942" lon="10.237768150316665"><ele>604.25</ele><time>2026-04-18T12:29:39.999Z</time></trkpt><trkpt lat="44.45195421067283" lon="10.23756178000252"><ele>605.5</ele><time>2026-04-18T12:29:40.999Z</time></trkpt><trkpt lat="44.45196364694013" lon="10.237356967254788"><ele>606.75</ele><time>2026-04-18T12:29:41.999Z</time></trkpt><trkpt lat="44.45195758820269" lon="10.237150426919166"><ele>608.0</ele><time>2026-04-18T12:29:42.999Z</time></trkpt><trkpt lat="44.45196671451697" lon="10.236941124055377"><ele>609.6666666666666</ele><time>2026-04-18T12:29:43.999Z</time></trkpt><trkpt lat="44.45197125744585" lon="10.236730173061565"><ele>611.3333333333334</ele><time>2026-04-18T12:29:44.999Z</time></trkpt><trkpt lat="44.45197091022469" lon="10.23651460716696"><ele>613.0</ele><time>2026-04-18T12:29:45.999Z</time></trkpt><trkpt lat="44.45198364632792" lon="10.236303966122204"><ele>616.0</ele><time>2026-04-18T12:29:46.999Z</time></trkpt><trkpt lat="44.451977090216836" lon="10.23608645940919"><ele>619.0</ele><time>2026-04-18T12:29:47.999Z</time></trkpt><trkpt lat="44.45194137465623" lon="10.235872417727938"><ele>622.0</ele><time>2026-04-18T12:29:48.999Z</time></trkpt><trkpt lat="44.45190919946568" lon="10.235663853697613"><ele>624.0</ele><time>2026-04-18T12:29:49.999Z</time></trkpt><trkpt lat="44.4518552822222" lon="10.235463418506823"><ele>626.0</ele><time>2026-04-18T12:29:50.999Z</time></trkpt><trkpt lat="44.45180031906803" lon="10.235287836887387"><ele>628.0</ele><time>2026-04-18T12:29:51.999Z</time></trkpt><trkpt lat="44.45172200212098" lon="10.235133921012057"><ele>630.0</ele><time>2026-04-18T12:29:52.999Z</time></trkpt><trkpt lat="44.451614143641294" lon="10.23501987018446"><ele>630.0</ele><time>2026-04-18T12:29:53.999Z</time></trkpt><trkpt lat="44.45152098626129" lon="10.234893008768248"><ele>630.0</ele><time>2026-04-18T12:29:54.999Z</time></trkpt><trkpt lat="44.451458442117044" lon="10.234789917998341"><ele>630.0</ele><time>2026-04-18T12:29:55.999Z</time></trkpt><trkpt lat="44.451458846407306" lon="10.234670451076633"><ele>630.0</ele><time>2026-04-18T12:29:56.999Z</time></trkpt><trkpt lat="44.45147638128029" lon="10.234532778930003"><ele>630.0</ele><time>2026-04-18T12:29:57.999Z</time></trkpt><trkpt lat="44.451556986717016" lon="10.234438992155274"><ele>633.5</ele><time>2026-04-18T12:29:58.999Z</time></trkpt><trkpt lat="44.451669619621654" lon="10.23438833164904"><ele>637.0</ele><time>2026-04-18T12:29:59.999Z</time></trkpt><trkpt lat="44.45180821269362" lon="10.234329662565514"><ele>640.5</ele><time>2026-04-18T12:30:00.999Z</time></trkpt><trkpt lat="44.451948624642306" lon="10.234290033491167"><ele>644.0</ele><time>2026-04-18T12:30:01.999Z</time></trkpt><trkpt lat="44.45206607374812" lon="10.234239153472581"><ele>646.2</ele><time>2026-04-18T12:30:02.999Z</time></trkpt><trkpt lat="44.4521408481794" lon="10.234161421694903"><ele>648.4000000000001</ele><time>2026-04-18T12:30:03.999Z</time></trkpt><trkpt lat="44.452176427788" lon="10.234038113462375"><ele>650.6</ele><time>2026-04-18T12:30:04.999Z</time></trkpt><trkpt lat="44.452155898200076" lon="10.233881933886485"><ele>652.8</ele><time>2026-04-18T12:30:05.999Z</time></trkpt><trkpt lat="44.45209618651671" lon="10.233750821096558"><ele>655.0</ele><time>2026-04-18T12:30:06.999Z</time></trkpt><trkpt lat="44.451961031968224" lon="10.233727363740288"><ele>655.0</ele><time>2026-04-18T12:30:08Z</time></trkpt><trkpt lat="44.451844460763226" lon="10.233781738077028"><ele>655.0</ele><time>2026-04-18T12:30:09Z</time></trkpt><trkpt lat="44.45175563043387" lon="10.233901786865575"><ele>655.0</ele><time>2026-04-18T12:30:10Z</time></trkpt><trkpt lat="44.45165467931626" lon="10.233966376691999"><ele>655.0</ele><time>2026-04-18T12:30:11Z</time></trkpt><trkpt lat="44.45156101349727" lon="10.233959186143556"><ele>655.0</ele><time>2026-04-18T12:30:12Z</time></trkpt><trkpt lat="44.451493018483404" lon="10.233824539915643"><ele>655.0</ele><time>2026-04-18T12:30:13Z</time></trkpt><trkpt lat="44.4514438264076" lon="10.233659875311096"><ele>655.0</ele><time>2026-04-18T12:30:14Z</time></trkpt><trkpt lat="44.45142467168902" lon="10.233502919295487"><ele>655.0</ele><time>2026-04-18T12:30:15Z</time></trkpt><trkpt lat="44.45143282012361" lon="10.23335437878003"><ele>655.0</ele><time>2026-04-18T12:30:16Z</time></trkpt><trkpt lat="44.45149575139411" lon="10.2332276594243"><ele>655.0</ele><time>2026-04-18T12:30:17Z</time></trkpt><trkpt lat="44.451605530814504" lon="10.233126813024679"><ele>655.0</ele><time>2026-04-18T12:30:18Z</time></trkpt><trkpt lat="44.45172093379996" lon="10.233031717420298"><ele>655.0</ele><time>2026-04-18T12:30:19Z</time></trkpt><trkpt lat="44.451832751638" lon="10.232918915402262"><ele>659.0</ele><time>2026-04-18T12:30:20Z</time></trkpt><trkpt lat="44.451944656297" lon="10.232869049682382"><ele>663.0</ele><time>2026-04-18T12:30:21Z</time></trkpt><trkpt lat="44.452057202861354" lon="10.232858207072185"><ele>667.0</ele><time>2026-04-18T12:30:22Z</time></trkpt><trkpt lat="44.45217084802035" lon="10.232846167745613"><ele>671.0</ele><time>2026-04-18T12:30:23Z</time></trkpt><trkpt lat="44.45230185274642" lon="10.23283740393469"><ele>671.4</ele><time>2026-04-18T12:30:24Z</time></trkpt><trkpt lat="44.45241721175571" lon="10.232848297975686"><ele>671.8</ele><time>2026-04-18T12:30:25Z</time></trkpt><trkpt lat="44.45250409094806" lon="10.232847423860782"><ele>672.1999999999999</ele><time>2026-04-18T12:30:26Z</time></trkpt><trkpt lat="44.45256935692851" lon="10.232790168878129"><ele>672.5999999999999</ele><time>2026-04-18T12:30:27Z</time></trkpt><trkpt lat="44.452590143620725" lon="10.232663494086218"><ele>673.0</ele><time>2026-04-18T12:30:28Z</time></trkpt><trkpt lat="44.45258504143467" lon="10.232513024525657"><ele>673.0</ele><time>2026-04-18T12:30:29Z</time></trkpt><trkpt lat="44.452483521340575" lon="10.232382319963508"><ele>673.0</ele><time>2026-04-18T12:30:30Z</time></trkpt><trkpt lat="44.45240155606481" lon="10.232229567840397"><ele>673.0</ele><time>2026-04-18T12:30:31Z</time></trkpt><trkpt lat="44.45238032465573" lon="10.2320903784894"><ele>673.0</ele><time>2026-04-18T12:30:32Z</time></trkpt><trkpt lat="44.45242881953636" lon="10.231947310166078"><ele>675.0</ele><time>2026-04-18T12:30:33Z</time></trkpt><trkpt lat="44.45246880300616" lon="10.231765441055582"><ele>677.0</ele><time>2026-04-18T12:30:34Z</time></trkpt><trkpt lat="44.45248421990572" lon="10.231579070796915"><ele>679.0</ele><time>2026-04-18T12:30:35Z</time></trkpt><trkpt lat="44.45246879336762" lon="10.231406465964467"><ele>681.0</ele><time>2026-04-18T12:30:36Z</time></trkpt><trkpt lat="44.452424261877596" lon="10.231247880129269"><ele>682.5</ele><time>2026-04-18T12:30:37Z</time></trkpt><trkpt lat="44.45231905905136" lon="10.231143277718976"><ele>684.0</ele><time>2026-04-18T12:30:38Z</time></trkpt><trkpt lat="44.45222961082584" lon="10.231023814157478"><ele>685.5</ele><time>2026-04-18T12:30:39Z</time></trkpt><trkpt lat="44.452131736159814" lon="10.230916410605959"><ele>687.0</ele><time>2026-04-18T12:30:40Z</time></trkpt><trkpt lat="44.452032441067445" lon="10.230801265687065"><ele>687.0</ele><time>2026-04-18T12:30:41Z</time></trkpt><trkpt lat="44.45193726175263" lon="10.230690893419341"><ele>687.0</ele><time>2026-04-18T12:30:42Z</time></trkpt><trkpt lat="44.45184453533744" lon="10.230584710360445"><ele>687.0</ele><time>2026-04-18T12:30:43Z</time></trkpt><trkpt lat="44.45174188375752" lon="10.230468990463788"><ele>687.0</ele><time>2026-04-18T12:30:44Z</time></trkpt><trkpt lat="44.451645144419366" lon="10.230361425816183"><ele>688.5</ele><time>2026-04-18T12:30:45Z</time></trkpt><trkpt lat="44.45155327634137" lon="10.230259496917762"><ele>690.0</ele><time>2026-04-18T12:30:46Z</time></trkpt><trkpt lat="44.45146093983988" lon="10.230156600383884"><ele>691.5</ele><time>2026-04-18T12:30:47Z</time></trkpt><trkpt lat="44.45136977060952" lon="10.230051572000088"><ele>693.0</ele><time>2026-04-18T12:30:48Z</time></trkpt><trkpt lat="44.451280019088465" lon="10.229944706067148"><ele>693.2</ele><time>2026-04-18T12:30:49Z</time></trkpt><trkpt lat="44.45120450703046" lon="10.229837298971978"><ele>693.4</ele><time>2026-04-18T12:30:50Z</time></trkpt><trkpt lat="44.45113927614183" lon="10.229755409263134"><ele>693.6</ele><time>2026-04-18T12:30:51Z</time></trkpt><trkpt lat="44.45106909141724" lon="10.229711060712937"><ele>693.8000000000001</ele><time>2026-04-18T12:30:52Z</time></trkpt><trkpt lat="44.450977403030386" lon="10.229699906234154"><ele>694.0</ele><time>2026-04-18T12:30:53Z</time></trkpt><trkpt lat="44.45086052886406" lon="10.229772197222637"><ele>694.0</ele><time>2026-04-18T12:30:54Z</time></trkpt><trkpt lat="44.45074672746566" lon="10.229822183288482"><ele>694.0</ele><time>2026-04-18T12:30:55Z</time></trkpt><trkpt lat="44.4506189954328" lon="10.22987258993555"><ele>694.0</ele><time>2026-04-18T12:30:56Z</time></trkpt><trkpt lat="44.450493784666904" lon="10.229913807690679"><ele>694.0</ele><time>2026-04-18T12:30:57Z</time></trkpt><trkpt lat="44.45036834951626" lon="10.22994528445371"><ele>695.2</ele><time>2026-04-18T12:30:58Z</time></trkpt><trkpt lat="44.45024862604023" lon="10.229930201706427"><ele>696.4000000000001</ele><time>2026-04-18T12:30:59Z</time></trkpt><trkpt lat="44.45014983631658" lon="10.229946618917708"><ele>697.6</ele><time>2026-04-18T12:31:00Z</time></trkpt><trkpt lat="44.450067951430896" lon="10.229894924774143"><ele>698.8</ele><time>2026-04-18T12:31:01Z</time></trkpt><trkpt lat="44.44999733078439" lon="10.229865145951488"><ele>700.0</ele><time>2026-04-18T12:31:02Z</time></trkpt><trkpt lat="44.449970364762486" lon="10.229767040166408"><ele>701.8</ele><time>2026-04-18T12:31:03Z</time></trkpt><trkpt lat="44.450011746671855" lon="10.22963967182472"><ele>703.6</ele><time>2026-04-18T12:31:04Z</time></trkpt><trkpt lat="44.45005228434118" lon="10.229536298549224"><ele>705.4000000000001</ele><time>2026-04-18T12:31:05Z</time></trkpt><trkpt lat="44.450123685024366" lon="10.229409881054142"><ele>707.2</ele><time>2026-04-18T12:31:06Z</time></trkpt><trkpt lat="44.450212978836326" lon="10.229265029467427"><ele>709.0</ele><time>2026-04-18T12:31:07Z</time></trkpt><trkpt lat="44.450309128913034" lon="10.22911604164945"><ele>710.0</ele><time>2026-04-18T12:31:08Z</time></trkpt><trkpt lat="44.450390759343186" lon="10.228960866555607"><ele>711.0</ele><time>2026-04-18T12:31:09Z</time></trkpt><trkpt lat="44.45048658469884" lon="10.22882574943965"><ele>712.0</ele><time>2026-04-18T12:31:10Z</time></trkpt><trkpt lat="44.45058605290311" lon="10.228698899782701"><ele>713.0</ele><time>2026-04-18T12:31:11Z</time></trkpt><trkpt lat="44.45067036185059" lon="10.228556716602982"><ele>713.0</ele><time>2026-04-18T12:31:12Z</time></trkpt><trkpt lat="44.45075544251632" lon="10.228410894843476"><ele>713.0</ele><time>2026-04-18T12:31:13Z</time></trkpt><trkpt lat="44.45085691332496" lon="10.228292213350995"><ele>713.0</ele><time>2026-04-18T12:31:13.999Z</time></trkpt><trkpt lat="44.45095322396055" lon="10.228147126305764"><ele>713.0</ele><time>2026-04-18T12:31:14.999Z</time></trkpt><trkpt lat="44.45105100579939" lon="10.228012609845756"><ele>715.25</ele><time>2026-04-18T12:31:15.999Z</time></trkpt><trkpt lat="44.45115090946937" lon="10.227882540623375"><ele>717.5</ele><time>2026-04-18T12:31:16.999Z</time></trkpt><trkpt lat="44.451247154354284" lon="10.22777535853482"><ele>719.75</ele><time>2026-04-18T12:31:17.999Z</time></trkpt><trkpt lat="44.451345611706756" lon="10.227707772452572"><ele>722.0</ele><time>2026-04-18T12:31:18.999Z</time></trkpt><trkpt lat="44.45144721547859" lon="10.22769372464483"><ele>722.0</ele><time>2026-04-18T12:31:19.999Z</time></trkpt><trkpt lat="44.45153676777448" lon="10.227710872758983"><ele>722.0</ele><time>2026-04-18T12:31:20.999Z</time></trkpt><trkpt lat="44.45160321138198" lon="10.22774826408378"><ele>722.0</ele><time>2026-04-18T12:31:22.999Z</time></trkpt><trkpt lat="44.45172410882173" lon="10.227805507745718"><ele>722.0</ele><time>2026-04-18T12:31:24.999Z</time></trkpt><trkpt lat="44.45184262274323" lon="10.22787229865855"><ele>722.0</ele><time>2026-04-18T12:31:25.999Z</time></trkpt><trkpt lat="44.451971758540104" lon="10.227930821684506"><ele>722.0</ele><time>2026-04-18T12:31:26.999Z</time></trkpt><trkpt lat="44.45209425072729" lon="10.227986709932614"><ele>722.0</ele><time>2026-04-18T12:31:27.999Z</time></trkpt><trkpt lat="44.452206029691276" lon="10.228040813457552"><ele>722.0</ele><time>2026-04-18T12:31:28.999Z</time></trkpt><trkpt lat="44.452321996619624" lon="10.228087181052354"><ele>722.0</ele><time>2026-04-18T12:31:29.999Z</time></trkpt><trkpt lat="44.4524419554537" lon="10.228149609442688"><ele>722.2</ele><time>2026-04-18T12:31:30.999Z</time></trkpt><trkpt lat="44.45255883718685" lon="10.228209903878085"><ele>722.4000000000001</ele><time>2026-04-18T12:31:31.999Z</time></trkpt><trkpt lat="44.45265837120544" lon="10.228260021339624"><ele>722.5999999999999</ele><time>2026-04-18T12:31:32.999Z</time></trkpt><trkpt lat="44.45273281911686" lon="10.228274032674632"><ele>722.8</ele><time>2026-04-18T12:31:33.999Z</time></trkpt><trkpt lat="44.45281567933844" lon="10.228225237965027"><ele>723.0</ele><time>2026-04-18T12:31:34.999Z</time></trkpt><trkpt lat="44.452890420414015" lon="10.228098361442562"><ele>723.75</ele><time>2026-04-18T12:31:35.999Z</time></trkpt><trkpt lat="44.45293529301244" lon="10.227915400877366"><ele>724.5</ele><time>2026-04-18T12:31:36.999Z</time></trkpt><trkpt lat="44.452978070374904" lon="10.227717118826845"><ele>725.25</ele><time>2026-04-18T12:31:37.999Z</time></trkpt><trkpt lat="44.453007732665256" lon="10.227522736489503"><ele>726.0</ele><time>2026-04-18T12:31:38.999Z</time></trkpt><trkpt lat="44.45303938237499" lon="10.227331668240753"><ele>730.0</ele><time>2026-04-18T12:31:39.999Z</time></trkpt><trkpt lat="44.45308273432402" lon="10.227153781414936"><ele>734.0</ele><time>2026-04-18T12:31:40.999Z</time></trkpt><trkpt lat="44.453132002829335" lon="10.226973434062936"><ele>738.0</ele><time>2026-04-18T12:31:41.999Z</time></trkpt><trkpt lat="44.4531782330727" lon="10.22680420827056"><ele>742.0</ele><time>2026-04-18T12:31:42.999Z</time></trkpt><trkpt lat="44.45322062626915" lon="10.226642516294515"><ele>742.0</ele><time>2026-04-18T12:31:43.999Z</time></trkpt><trkpt lat="44.45325564112526" lon="10.226504755153547"><ele>742.0</ele><time>2026-04-18T12:31:44.999Z</time></trkpt><trkpt lat="44.453273403232465" lon="10.226371165447322"><ele>742.0</ele><time>2026-04-18T12:31:45.999Z</time></trkpt><trkpt lat="44.453224684236346" lon="10.226211231126271"><ele>742.0</ele><time>2026-04-18T12:31:46.999Z</time></trkpt><trkpt lat="44.45319523751679" lon="10.226071870783857"><ele>742.0</ele><time>2026-04-18T12:31:47.999Z</time></trkpt><trkpt lat="44.453184509212186" lon="10.225969805312157"><ele>746.25</ele><time>2026-04-18T12:31:48.999Z</time></trkpt><trkpt lat="44.45324980399777" lon="10.225839427409769"><ele>750.5</ele><time>2026-04-18T12:31:50.999Z</time></trkpt><trkpt lat="44.45334671466096" lon="10.225837179661385"><ele>754.75</ele><time>2026-04-18T12:31:51.999Z</time></trkpt><trkpt lat="44.4534448190261" lon="10.22592163716155"><ele>759.0</ele><time>2026-04-18T12:31:52.999Z</time></trkpt><trkpt lat="44.45353765949197" lon="10.226062395921478"><ele>759.0</ele><time>2026-04-18T12:31:53.999Z</time></trkpt><trkpt lat="44.453615677408074" lon="10.22619614084996"><ele>759.0</ele><time>2026-04-18T12:31:54.999Z</time></trkpt><trkpt lat="44.45368585488323" lon="10.22628562621265"><ele>759.0</ele><time>2026-04-18T12:31:55.999Z</time></trkpt><trkpt lat="44.453797174818106" lon="10.226342156345096"><ele>759.0</ele><time>2026-04-18T12:31:56.999Z</time></trkpt><trkpt lat="44.45392492632577" lon="10.226360159490222"><ele>765.6666666666667</ele><time>2026-04-18T12:31:57.999Z</time></trkpt><trkpt lat="44.4540659608996" lon="10.226371844551197"><ele>772.3333333333334</ele><time>2026-04-18T12:31:58.999Z</time></trkpt><trkpt lat="44.45422023853915" lon="10.226385221876214"><ele>779.0</ele><time>2026-04-18T12:31:59.999Z</time></trkpt><trkpt lat="44.45438299628176" lon="10.22639555366945"><ele>779.0</ele><time>2026-04-18T12:32:00.999Z</time></trkpt><trkpt lat="44.45454626288692" lon="10.2263912220394"><ele>779.0</ele><time>2026-04-18T12:32:01.999Z</time></trkpt><trkpt lat="44.45471265265676" lon="10.226390513375861"><ele>779.0</ele><time>2026-04-18T12:32:02.999Z</time></trkpt><trkpt lat="44.45486890909693" lon="10.226383972582859"><ele>781.5</ele><time>2026-04-18T12:32:03.999Z</time></trkpt><trkpt lat="44.45502268666891" lon="10.226365894533357"><ele>784.0</ele><time>2026-04-18T12:32:04.999Z</time></trkpt><trkpt lat="44.45516277318646" lon="10.226342406764232"><ele>786.5</ele><time>2026-04-18T12:32:05.999Z</time></trkpt><trkpt lat="44.45528541948997" lon="10.226321289812304"><ele>789.0</ele><time>2026-04-18T12:32:06.999Z</time></trkpt><trkpt lat="44.45540033554784" lon="10.226293813539497"><ele>787.75</ele><time>2026-04-18T12:32:07.999Z</time></trkpt><trkpt lat="44.455522375750675" lon="10.226235625414917"><ele>786.5</ele><time>2026-04-18T12:32:08.999Z</time></trkpt><trkpt lat="44.45564268584317" lon="10.226164268842062"><ele>785.25</ele><time>2026-04-18T12:32:09.999Z</time></trkpt><trkpt lat="44.45577221824522" lon="10.226089479834311"><ele>784.0</ele><time>2026-04-18T12:32:10.999Z</time></trkpt><trkpt lat="44.45590255784669" lon="10.226009267891243"><ele>784.0</ele><time>2026-04-18T12:32:11.999Z</time></trkpt><trkpt lat="44.45602995071236" lon="10.225933540766585"><ele>784.0</ele><time>2026-04-18T12:32:12.999Z</time></trkpt><trkpt lat="44.45613611046748" lon="10.22586895855683"><ele>784.0</ele><time>2026-04-18T12:32:14Z</time></trkpt><trkpt lat="44.456204080627536" lon="10.225828512749883"><ele>784.0</ele><time>2026-04-18T12:32:15Z</time></trkpt><trkpt lat="44.456281865438676" lon="10.225738836673793"><ele>784.0</ele><time>2026-04-18T12:32:19Z</time></trkpt><trkpt lat="44.456328935653815" lon="10.225649045118844"><ele>784.75</ele><time>2026-04-18T12:32:20Z</time></trkpt><trkpt lat="44.456375002465755" lon="10.225529732817286"><ele>785.5</ele><time>2026-04-18T12:32:21Z</time></trkpt><trkpt lat="44.456419948160864" lon="10.22538549181404"><ele>786.25</ele><time>2026-04-18T12:32:22Z</time></trkpt><trkpt lat="44.45646881937405" lon="10.225224326967403"><ele>787.0</ele><time>2026-04-18T12:32:23Z</time></trkpt><trkpt lat="44.45652294073829" lon="10.225045848657986"><ele>787.0</ele><time>2026-04-18T12:32:24Z</time></trkpt><trkpt lat="44.45658360941118" lon="10.22486771956471"><ele>787.0</ele><time>2026-04-18T12:32:25Z</time></trkpt><trkpt lat="44.45665960543138" lon="10.224709794720967"><ele>787.0</ele><time>2026-04-18T12:32:26Z</time></trkpt><trkpt lat="44.456725002210554" lon="10.224557092603067"><ele>787.0</ele><time>2026-04-18T12:32:27Z</time></trkpt><trkpt lat="44.456800032542034" lon="10.224405276160468"><ele>790.0</ele><time>2026-04-18T12:32:28Z</time></trkpt><trkpt lat="44.456852736390495" lon="10.224224353265774"><ele>793.0</ele><time>2026-04-18T12:32:29Z</time></trkpt><trkpt lat="44.456897541652324" lon="10.224019267928913"><ele>796.0</ele><time>2026-04-18T12:32:30Z</time></trkpt><trkpt lat="44.456929620039595" lon="10.223820939810869"><ele>799.0</ele><time>2026-04-18T12:32:31Z</time></trkpt><trkpt lat="44.456962138495186" lon="10.22365939188659"><ele>800.0</ele><time>2026-04-18T12:32:32Z</time></trkpt><trkpt lat="44.45700835711489" lon="10.223537395836843"><ele>801.0</ele><time>2026-04-18T12:32:33Z</time></trkpt><trkpt lat="44.45710068120802" lon="10.223457364912475"><ele>802.0</ele><time>2026-04-18T12:32:34Z</time></trkpt><trkpt lat="44.45722334858073" lon="10.223416875944032"><ele>803.0</ele><time>2026-04-18T12:32:35Z</time></trkpt><trkpt lat="44.457370125505264" lon="10.223357143920209"><ele>803.0</ele><time>2026-04-18T12:32:36Z</time></trkpt><trkpt lat="44.45749224365194" lon="10.223293449469669"><ele>803.0</ele><time>2026-04-18T12:32:37Z</time></trkpt><trkpt lat="44.4575905942524" lon="10.223193159333926"><ele>803.0</ele><time>2026-04-18T12:32:38Z</time></trkpt><trkpt lat="44.457674685714096" lon="10.223060352994299"><ele>803.0</ele><time>2026-04-18T12:32:39Z</time></trkpt><trkpt lat="44.457775670332836" lon="10.22291248555056"><ele>804.75</ele><time>2026-04-18T12:32:40Z</time></trkpt><trkpt lat="44.4578932295841" lon="10.22283047325506"><ele>806.5</ele><time>2026-04-18T12:32:41Z</time></trkpt><trkpt lat="44.458037754294224" lon="10.222765063325225"><ele>808.25</ele><time>2026-04-18T12:32:42Z</time></trkpt><trkpt lat="44.45817589870297" lon="10.222678237264018"><ele>810.0</ele><time>2026-04-18T12:32:43Z</time></trkpt><trkpt lat="44.45830163758223" lon="10.222588784193945"><ele>810.0</ele><time>2026-04-18T12:32:44Z</time></trkpt><trkpt lat="44.458405067578454" lon="10.222513223178078"><ele>810.0</ele><time>2026-04-18T12:32:45Z</time></trkpt><trkpt lat="44.45849291225969" lon="10.222451421789286"><ele>810.0</ele><time>2026-04-18T12:32:46Z</time></trkpt><trkpt lat="44.45855114117005" lon="10.222402138528363"><ele>810.0</ele><time>2026-04-18T12:32:47Z</time></trkpt><trkpt lat="44.45860388003478" lon="10.222330669134628"><ele>810.0</ele><time>2026-04-18T12:32:50Z</time></trkpt><trkpt lat="44.4585951364496" lon="10.22219603148587"><ele>811.75</ele><time>2026-04-18T12:32:51Z</time></trkpt><trkpt lat="44.458562396309816" lon="10.222060301155777"><ele>813.5</ele><time>2026-04-18T12:32:52Z</time></trkpt><trkpt lat="44.45850715090231" lon="10.221911493945312"><ele>815.25</ele><time>2026-04-18T12:32:53Z</time></trkpt><trkpt lat="44.45844398933255" lon="10.221737022606575"><ele>817.0</ele><time>2026-04-18T12:32:54Z</time></trkpt><trkpt lat="44.45838427819903" lon="10.221584994573655"><ele>817.25</ele><time>2026-04-18T12:32:55Z</time></trkpt><trkpt lat="44.45829753453988" lon="10.221464244466377"><ele>817.5</ele><time>2026-04-18T12:32:56Z</time></trkpt><trkpt lat="44.458200799279545" lon="10.221350621750261"><ele>817.75</ele><time>2026-04-18T12:32:57Z</time></trkpt><trkpt lat="44.45807446734544" lon="10.221266761102896"><ele>818.0</ele><time>2026-04-18T12:32:58Z</time></trkpt><trkpt lat="44.45796002710573" lon="10.221193526166429"><ele>819.0</ele><time>2026-04-18T12:32:59Z</time></trkpt><trkpt lat="44.4578449126935" lon="10.221152345892369"><ele>820.0</ele><time>2026-04-18T12:33:00Z</time></trkpt><trkpt lat="44.45770354092153" lon="10.22120626064256"><ele>821.0</ele><time>2026-04-18T12:33:01Z</time></trkpt><trkpt lat="44.45755839884066" lon="10.221193159195339"><ele>822.0</ele><time>2026-04-18T12:33:02Z</time></trkpt><trkpt lat="44.457436898082996" lon="10.221177032395728"><ele>822.0</ele><time>2026-04-18T12:33:03Z</time></trkpt><trkpt lat="44.457372099065616" lon="10.221113643656718"><ele>822.0</ele><time>2026-04-18T12:33:04Z</time></trkpt><trkpt lat="44.457359024596244" lon="10.220982337597196"><ele>822.0</ele><time>2026-04-18T12:33:05Z</time></trkpt><trkpt lat="44.45736386662966" lon="10.220818210786733"><ele>822.0</ele><time>2026-04-18T12:33:06Z</time></trkpt><trkpt lat="44.45736933807615" lon="10.220616179623653"><ele>822.0</ele><time>2026-04-18T12:33:07Z</time></trkpt><trkpt lat="44.45737364947301" lon="10.220401243752562"><ele>822.6666666666667</ele><time>2026-04-18T12:33:08Z</time></trkpt><trkpt lat="44.45736523690595" lon="10.220187716427882"><ele>823.3333333333334</ele><time>2026-04-18T12:33:09Z</time></trkpt><trkpt lat="44.457332594369426" lon="10.219987789415391"><ele>824.0</ele><time>2026-04-18T12:33:10Z</time></trkpt><trkpt lat="44.45728380284608" lon="10.219786788357089"><ele>825.2</ele><time>2026-04-18T12:33:11Z</time></trkpt><trkpt lat="44.457242867754005" lon="10.219610349751012"><ele>826.4000000000001</ele><time>2026-04-18T12:33:12Z</time></trkpt><trkpt lat="44.45721597549591" lon="10.219466032869034"><ele>827.6</ele><time>2026-04-18T12:33:13Z</time></trkpt><trkpt lat="44.4572134463197" lon="10.219337325867079"><ele>828.8</ele><time>2026-04-18T12:33:14Z</time></trkpt><trkpt lat="44.45723196539013" lon="10.219210884696805"><ele>830.0</ele><time>2026-04-18T12:33:15Z</time></trkpt><trkpt lat="44.45726768456569" lon="10.219054654296253"><ele>830.5</ele><time>2026-04-18T12:33:16Z</time></trkpt><trkpt lat="44.45730282569555" lon="10.218885106006912"><ele>831.0</ele><time>2026-04-18T12:33:17Z</time></trkpt><trkpt lat="44.45732877802605" lon="10.218706748186655"><ele>831.5</ele><time>2026-04-18T12:33:18Z</time></trkpt><trkpt lat="44.45730072837723" lon="10.218545932023304"><ele>832.0</ele><time>2026-04-18T12:33:19Z</time></trkpt><trkpt lat="44.45728404895008" lon="10.218375193876806"><ele>832.0</ele><time>2026-04-18T12:33:20Z</time></trkpt><trkpt lat="44.457282322758246" lon="10.218219842138787"><ele>832.0</ele><time>2026-04-18T12:33:21Z</time></trkpt><trkpt lat="44.45731657439484" lon="10.21806624158331"><ele>832.0</ele><time>2026-04-18T12:33:22Z</time></trkpt><trkpt lat="44.45735846445552" lon="10.217904907616992"><ele>832.0</ele><time>2026-04-18T12:33:23Z</time></trkpt><trkpt lat="44.45739382625475" lon="10.217718869759853"><ele>833.5</ele><time>2026-04-18T12:33:24Z</time></trkpt><trkpt lat="44.45742252864783" lon="10.217548777817667"><ele>835.0</ele><time>2026-04-18T12:33:25Z</time></trkpt><trkpt lat="44.45741114039781" lon="10.217385325251069"><ele>836.5</ele><time>2026-04-18T12:33:26Z</time></trkpt><trkpt lat="44.45742434341547" lon="10.21721903499555"><ele>838.0</ele><time>2026-04-18T12:33:27Z</time></trkpt><trkpt lat="44.45742921414684" lon="10.217086024052573"><ele>841.0</ele><time>2026-04-18T12:33:28Z</time></trkpt><trkpt lat="44.457459441540415" lon="10.21697275486337"><ele>844.0</ele><time>2026-04-18T12:33:29Z</time></trkpt><trkpt lat="44.45753470521209" lon="10.21688536267023"><ele>847.0</ele><time>2026-04-18T12:33:30Z</time></trkpt><trkpt lat="44.457652101823584" lon="10.216862255345296"><ele>850.0</ele><time>2026-04-18T12:33:30.999Z</time></trkpt><trkpt lat="44.45777496574806" lon="10.216831464870557"><ele>853.0</ele><time>2026-04-18T12:33:31.999Z</time></trkpt><trkpt lat="44.45788854792252" lon="10.216829072146457"><ele>852.25</ele><time>2026-04-18T12:33:32.999Z</time></trkpt><trkpt lat="44.45799612025038" lon="10.216894334440083"><ele>851.5</ele><time>2026-04-18T12:33:33.999Z</time></trkpt><trkpt lat="44.45811268025002" lon="10.217006019182977"><ele>850.75</ele><time>2026-04-18T12:33:34.999Z</time></trkpt><trkpt lat="44.458229880646655" lon="10.217099470231332"><ele>850.0</ele><time>2026-04-18T12:33:35.999Z</time></trkpt><trkpt lat="44.45835664797052" lon="10.217134975487898"><ele>850.0</ele><time>2026-04-18T12:33:36.999Z</time></trkpt><trkpt lat="44.458499422867526" lon="10.21714246181793"><ele>850.0</ele><time>2026-04-18T12:33:37.999Z</time></trkpt><trkpt lat="44.458618596904145" lon="10.217173579124326"><ele>850.0</ele><time>2026-04-18T12:33:38.999Z</time></trkpt><trkpt lat="44.45866889594979" lon="10.217330158314663"><ele>850.0</ele><time>2026-04-18T12:33:39.999Z</time></trkpt><trkpt lat="44.45874776738414" lon="10.217401250288994"><ele>849.6</ele><time>2026-04-18T12:33:40.999Z</time></trkpt><trkpt lat="44.45882062085925" lon="10.217460780853399"><ele>849.2</ele><time>2026-04-18T12:33:41.999Z</time></trkpt><trkpt lat="44.45893133182111" lon="10.21745891969591"><ele>848.8</ele><time>2026-04-18T12:33:42.999Z</time></trkpt><trkpt lat="44.459032195462434" lon="10.217379681952432"><ele>848.4</ele><time>2026-04-18T12:33:43.999Z</time></trkpt><trkpt lat="44.45911680185657" lon="10.217255516976865"><ele>848.0</ele><time>2026-04-18T12:33:44.999Z</time></trkpt><trkpt lat="44.459204767756006" lon="10.21715046006777"><ele>848.0</ele><time>2026-04-18T12:33:45.999Z</time></trkpt><trkpt lat="44.4592894096607" lon="10.21706368352295"><ele>848.0</ele><time>2026-04-18T12:33:46.999Z</time></trkpt><trkpt lat="44.45935515273154" lon="10.21696621104412"><ele>848.0</ele><time>2026-04-18T12:33:47.999Z</time></trkpt><trkpt lat="44.459351132339066" lon="10.216789221153604"><ele>848.0</ele><time>2026-04-18T12:33:48.999Z</time></trkpt><trkpt lat="44.45939431814931" lon="10.216629787681544"><ele>848.0</ele><time>2026-04-18T12:33:49.999Z</time></trkpt><trkpt lat="44.45941727603487" lon="10.216448439536071"><ele>848.8333333333334</ele><time>2026-04-18T12:33:50.999Z</time></trkpt><trkpt lat="44.459436845859805" lon="10.216272696788275"><ele>849.6666666666667</ele><time>2026-04-18T12:33:51.999Z</time></trkpt><trkpt lat="44.45946081165354" lon="10.216151511646352"><ele>850.5</ele><time>2026-04-18T12:33:52.999Z</time></trkpt><trkpt lat="44.45948406421806" lon="10.216049514761577"><ele>851.3333333333333</ele><time>2026-04-18T12:33:53.999Z</time></trkpt><trkpt lat="44.459489438534156" lon="10.215945905287025"><ele>852.1666666666666</ele><time>2026-04-18T12:33:54.999Z</time></trkpt><trkpt lat="44.45948193332079" lon="10.215846794582319"><ele>853.0</ele><time>2026-04-18T12:33:55.999Z</time></trkpt><trkpt lat="44.45944503806599" lon="10.215727106803726"><ele>856.0</ele><time>2026-04-18T12:33:56.999Z</time></trkpt><trkpt lat="44.45936160737204" lon="10.21562558751327"><ele>859.0</ele><time>2026-04-18T12:33:57.999Z</time></trkpt><trkpt lat="44.45924905798968" lon="10.215566435007963"><ele>862.0</ele><time>2026-04-18T12:33:58.999Z</time></trkpt><trkpt lat="44.45911279350972" lon="10.215567287570263"><ele>865.0</ele><time>2026-04-18T12:33:59.999Z</time></trkpt><trkpt lat="44.45899534407062" lon="10.215507661802048"><ele>865.0</ele><time>2026-04-18T12:34:00.999Z</time></trkpt><trkpt lat="44.45890087371342" lon="10.215459089058038"><ele>865.0</ele><time>2026-04-18T12:34:01.999Z</time></trkpt><trkpt lat="44.45883217283137" lon="10.215376417139655"><ele>865.0</ele><time>2026-04-18T12:34:02.999Z</time></trkpt><trkpt lat="44.45880695103977" lon="10.21526077805397"><ele>865.0</ele><time>2026-04-18T12:34:03.999Z</time></trkpt><trkpt lat="44.45881181447607" lon="10.21513917266661"><ele>865.0</ele><time>2026-04-18T12:34:04.999Z</time></trkpt><trkpt lat="44.45886618437012" lon="10.215030795499347"><ele>865.0</ele><time>2026-04-18T12:34:05.999Z</time></trkpt><trkpt lat="44.45894357690929" lon="10.214950787093894"><ele>865.0</ele><time>2026-04-18T12:34:06.999Z</time></trkpt><trkpt lat="44.459070758618495" lon="10.21492789876245"><ele>865.0</ele><time>2026-04-18T12:34:07.999Z</time></trkpt><trkpt lat="44.45920364186746" lon="10.21494611308285"><ele>865.0</ele><time>2026-04-18T12:34:08.999Z</time></trkpt><trkpt lat="44.45932883631833" lon="10.214974049169047"><ele>865.0</ele><time>2026-04-18T12:34:09.999Z</time></trkpt><trkpt lat="44.45946461684383" lon="10.215001748666687"><ele>865.0</ele><time>2026-04-18T12:34:10.999Z</time></trkpt><trkpt lat="44.45958281204109" lon="10.215052119446426"><ele>865.0</ele><time>2026-04-18T12:34:11.999Z</time></trkpt><trkpt lat="44.459703911123164" lon="10.215087383914156"><ele>865.0</ele><time>2026-04-18T12:34:12.999Z</time></trkpt><trkpt lat="44.459812236918324" lon="10.215101397302263"><ele>866.0</ele><time>2026-04-18T12:34:13.999Z</time></trkpt><trkpt lat="44.45992964276051" lon="10.215083428319806"><ele>867.0</ele><time>2026-04-18T12:34:14.999Z</time></trkpt><trkpt lat="44.460036414487384" lon="10.214997169419693"><ele>868.0</ele><time>2026-04-18T12:34:15.999Z</time></trkpt><trkpt lat="44.46015056930859" lon="10.214863722753474"><ele>869.0</ele><time>2026-04-18T12:34:16.999Z</time></trkpt><trkpt lat="44.460274314125186" lon="10.214742596128518"><ele>873.25</ele><time>2026-04-18T12:34:17.999Z</time></trkpt><trkpt lat="44.460379302339554" lon="10.214634072259603"><ele>877.5</ele><time>2026-04-18T12:34:18.999Z</time></trkpt><trkpt lat="44.46046158973934" lon="10.214525649033853"><ele>881.75</ele><time>2026-04-18T12:34:20Z</time></trkpt><trkpt lat="44.46057137341026" lon="10.214458826454589"><ele>886.0</ele><time>2026-04-18T12:34:21Z</time></trkpt><trkpt lat="44.46069133968742" lon="10.214472247133513"><ele>888.25</ele><time>2026-04-18T12:34:22Z</time></trkpt><trkpt lat="44.46080544054918" lon="10.214522409891293"><ele>890.5</ele><time>2026-04-18T12:34:23Z</time></trkpt><trkpt lat="44.46092943422469" lon="10.214603883924323"><ele>892.75</ele><time>2026-04-18T12:34:24Z</time></trkpt><trkpt lat="44.46105465072812" lon="10.214701568870268"><ele>895.0</ele><time>2026-04-18T12:34:25Z</time></trkpt><trkpt lat="44.461177462079576" lon="10.214750355017127"><ele>895.5</ele><time>2026-04-18T12:34:26Z</time></trkpt><trkpt lat="44.46130696287339" lon="10.214746953723301"><ele>896.0</ele><time>2026-04-18T12:34:27Z</time></trkpt><trkpt lat="44.461431994546984" lon="10.214714317119828"><ele>896.5</ele><time>2026-04-18T12:34:28Z</time></trkpt><trkpt lat="44.461561768366" lon="10.214694664913825"><ele>897.0</ele><time>2026-04-18T12:34:29Z</time></trkpt><trkpt lat="44.46167320001292" lon="10.21470583475627"><ele>897.0</ele><time>2026-04-18T12:34:30Z</time></trkpt><trkpt lat="44.46180085311924" lon="10.214752123110605"><ele>897.0</ele><time>2026-04-18T12:34:31Z</time></trkpt><trkpt lat="44.461935753411744" lon="10.2148214374836"><ele>897.0</ele><time>2026-04-18T12:34:32Z</time></trkpt><trkpt lat="44.4620768576257" lon="10.214886158536974"><ele>897.0</ele><time>2026-04-18T12:34:33Z</time></trkpt><trkpt lat="44.46221182910566" lon="10.2149397118481"><ele>892.75</ele><time>2026-04-18T12:34:34Z</time></trkpt><trkpt lat="44.46232445177136" lon="10.214967283682823"><ele>888.5</ele><time>2026-04-18T12:34:35Z</time></trkpt><trkpt lat="44.462433041643" lon="10.214972409000152"><ele>884.25</ele><time>2026-04-18T12:34:36Z</time></trkpt><trkpt lat="44.462556487307154" lon="10.214947321525212"><ele>880.0</ele><time>2026-04-18T12:34:37Z</time></trkpt><trkpt lat="44.462682097905926" lon="10.214857750040789"><ele>883.6666666666666</ele><time>2026-04-18T12:34:38Z</time></trkpt><trkpt lat="44.46282537296281" lon="10.214784867244767"><ele>887.3333333333333</ele><time>2026-04-18T12:34:39Z</time></trkpt><trkpt lat="44.462982566724534" lon="10.214690193461152"><ele>891.0</ele><time>2026-04-18T12:34:40Z</time></trkpt><trkpt lat="44.46313610262359" lon="10.214597969092182"><ele>891.0</ele><time>2026-04-18T12:34:41Z</time></trkpt><trkpt lat="44.46329416155768" lon="10.214504099035759"><ele>891.0</ele><time>2026-04-18T12:34:42Z</time></trkpt><trkpt lat="44.46343625271649" lon="10.214420631736537"><ele>891.0</ele><time>2026-04-18T12:34:43Z</time></trkpt><trkpt lat="44.463553734128105" lon="10.214330091147959"><ele>891.0</ele><time>2026-04-18T12:34:44Z</time></trkpt><trkpt lat="44.463663237485974" lon="10.214253756598849"><ele>891.0</ele><time>2026-04-18T12:34:45Z</time></trkpt><trkpt lat="44.46377118533152" lon="10.214135892880195"><ele>891.0</ele><time>2026-04-18T12:34:46Z</time></trkpt><trkpt lat="44.46389303962289" lon="10.214007741786302"><ele>891.0</ele><time>2026-04-18T12:34:47Z</time></trkpt><trkpt lat="44.46401090730957" lon="10.213860396477283"><ele>892.5</ele><time>2026-04-18T12:34:48Z</time></trkpt><trkpt lat="44.46412398807533" lon="10.213720091071357"><ele>894.0</ele><time>2026-04-18T12:34:49Z</time></trkpt><trkpt lat="44.46423322775876" lon="10.213588777150077"><ele>895.5</ele><time>2026-04-18T12:34:50Z</time></trkpt><trkpt lat="44.46432445281812" lon="10.213466482657918"><ele>897.0</ele><time>2026-04-18T12:34:51Z</time></trkpt><trkpt lat="44.46440622413351" lon="10.213324644197343"><ele>898.25</ele><time>2026-04-18T12:34:52Z</time></trkpt><trkpt lat="44.464472907910014" lon="10.213136743383323"><ele>899.5</ele><time>2026-04-18T12:34:53Z</time></trkpt><trkpt lat="44.46452437661569" lon="10.212936940584363"><ele>900.75</ele><time>2026-04-18T12:34:54Z</time></trkpt><trkpt lat="44.464568360524275" lon="10.212752222157485"><ele>902.0</ele><time>2026-04-18T12:34:55Z</time></trkpt><trkpt lat="44.464616077686514" lon="10.212581379532025"><ele>902.4000000000001</ele><time>2026-04-18T12:34:56Z</time></trkpt><trkpt lat="44.4646613814408" lon="10.212442644460111"><ele>902.8000000000001</ele><time>2026-04-18T12:34:57Z</time></trkpt><trkpt lat="44.46471288742925" lon="10.212335547991275"><ele>903.2</ele><time>2026-04-18T12:34:58Z</time></trkpt><trkpt lat="44.46477389198958" lon="10.212252258613683"><ele>903.6</ele><time>2026-04-18T12:34:59Z</time></trkpt><trkpt lat="44.46485040593677" lon="10.21218943951852"><ele>904.0</ele><time>2026-04-18T12:35:00Z</time></trkpt><trkpt lat="44.46495537711007" lon="10.212263932217036"><ele>904.0</ele><time>2026-04-18T12:35:01Z</time></trkpt><trkpt lat="44.465081290221995" lon="10.212324927454947"><ele>904.0</ele><time>2026-04-18T12:35:02Z</time></trkpt><trkpt lat="44.465204152099844" lon="10.212432654335531"><ele>904.0</ele><time>2026-04-18T12:35:03Z</time></trkpt><trkpt lat="44.46533798837934" lon="10.212519731950737"><ele>904.0</ele><time>2026-04-18T12:35:04Z</time></trkpt><trkpt lat="44.46547334757773" lon="10.212591832164485"><ele>905.25</ele><time>2026-04-18T12:35:05Z</time></trkpt><trkpt lat="44.46560609781196" lon="10.212644991006991"><ele>906.5</ele><time>2026-04-18T12:35:06Z</time></trkpt><trkpt lat="44.465741515671475" lon="10.212651964671558"><ele>907.75</ele><time>2026-04-18T12:35:07Z</time></trkpt><trkpt lat="44.46588349826469" lon="10.212611918270287"><ele>909.0</ele><time>2026-04-18T12:35:08Z</time></trkpt><trkpt lat="44.46603013650479" lon="10.212567995743045"><ele>909.0</ele><time>2026-04-18T12:35:09Z</time></trkpt><trkpt lat="44.46617068256623" lon="10.212557946444841"><ele>909.0</ele><time>2026-04-18T12:35:10Z</time></trkpt><trkpt lat="44.46630343460786" lon="10.212534073083157"><ele>909.0</ele><time>2026-04-18T12:35:11Z</time></trkpt><trkpt lat="44.46641395723817" lon="10.21252757055923"><ele>909.0</ele><time>2026-04-18T12:35:12Z</time></trkpt><trkpt lat="44.466529002704945" lon="10.212552391282033"><ele>911.5</ele><time>2026-04-18T12:35:13Z</time></trkpt><trkpt lat="44.46662643577413" lon="10.212600977271203"><ele>914.0</ele><time>2026-04-18T12:35:14Z</time></trkpt><trkpt lat="44.46669207456181" lon="10.212732982042239"><ele>916.5</ele><time>2026-04-18T12:35:15Z</time></trkpt><trkpt lat="44.466730976608076" lon="10.21292231984657"><ele>919.0</ele><time>2026-04-18T12:35:16Z</time></trkpt><trkpt lat="44.466758003189135" lon="10.213139961661152"><ele>917.0</ele><time>2026-04-18T12:35:17Z</time></trkpt><trkpt lat="44.466786030291836" lon="10.21335660710731"><ele>915.0</ele><time>2026-04-18T12:35:18Z</time></trkpt><trkpt lat="44.466820870109515" lon="10.213577250756437"><ele>913.0</ele><time>2026-04-18T12:35:19Z</time></trkpt><trkpt lat="44.466857667123676" lon="10.213792963116422"><ele>913.3333333333333</ele><time>2026-04-18T12:35:20Z</time></trkpt><trkpt lat="44.4668958161471" lon="10.214022799025877"><ele>913.6666666666667</ele><time>2026-04-18T12:35:21Z</time></trkpt><trkpt lat="44.46693237217779" lon="10.214234465648227"><ele>914.0</ele><time>2026-04-18T12:35:22Z</time></trkpt><trkpt lat="44.466974511483585" lon="10.21445742404867"><ele>914.0</ele><time>2026-04-18T12:35:23Z</time></trkpt><trkpt lat="44.46700063280518" lon="10.214678728978205"><ele>914.0</ele><time>2026-04-18T12:35:24Z</time></trkpt><trkpt lat="44.4670190062772" lon="10.214884206677509"><ele>914.0</ele><time>2026-04-18T12:35:25Z</time></trkpt><trkpt lat="44.467048119794" lon="10.21509009537031"><ele>913.5</ele><time>2026-04-18T12:35:26Z</time></trkpt><trkpt lat="44.46709290716071" lon="10.215294679882678"><ele>913.0</ele><time>2026-04-18T12:35:27Z</time></trkpt><trkpt lat="44.46714804504897" lon="10.215491415074174"><ele>912.5</ele><time>2026-04-18T12:35:28Z</time></trkpt><trkpt lat="44.46720992522789" lon="10.215651606543725"><ele>912.0</ele><time>2026-04-18T12:35:29Z</time></trkpt><trkpt lat="44.467274009762654" lon="10.215771355464398"><ele>914.5</ele><time>2026-04-18T12:35:30Z</time></trkpt><trkpt lat="44.46736955503532" lon="10.215878080213546"><ele>917.0</ele><time>2026-04-18T12:35:31Z</time></trkpt><trkpt lat="44.467504530878216" lon="10.2159327875327"><ele>919.5</ele><time>2026-04-18T12:35:32Z</time></trkpt><trkpt lat="44.467658015648134" lon="10.215962508026596"><ele>922.0</ele><time>2026-04-18T12:35:33Z</time></trkpt><trkpt lat="44.46780756851249" lon="10.21604723212389"><ele>922.0</ele><time>2026-04-18T12:35:34Z</time></trkpt><trkpt lat="44.46792871389481" lon="10.21618228737195"><ele>922.0</ele><time>2026-04-18T12:35:35Z</time></trkpt><trkpt lat="44.46803936386753" lon="10.216305670400462"><ele>922.0</ele><time>2026-04-18T12:35:36Z</time></trkpt><trkpt lat="44.468129111061316" lon="10.216400829457479"><ele>922.0</ele><time>2026-04-18T12:35:37Z</time></trkpt><trkpt lat="44.468214077236006" lon="10.216463624759355"><ele>924.4000000000001</ele><time>2026-04-18T12:35:38Z</time></trkpt><trkpt lat="44.46829917679546" lon="10.216482589391795"><ele>926.8000000000001</ele><time>2026-04-18T12:35:39Z</time></trkpt><trkpt lat="44.46839440491176" lon="10.216480144648612"><ele>929.2</ele><time>2026-04-18T12:35:40Z</time></trkpt><trkpt lat="44.46850435400186" lon="10.216369726679138"><ele>931.6</ele><time>2026-04-18T12:35:41Z</time></trkpt><trkpt lat="44.468585335906596" lon="10.216240721859673"><ele>934.0</ele><time>2026-04-18T12:35:42Z</time></trkpt><trkpt lat="44.46862485876666" lon="10.216071579336074"><ele>934.0</ele><time>2026-04-18T12:35:43Z</time></trkpt><trkpt lat="44.468618512532714" lon="10.215860304885746"><ele>934.0</ele><time>2026-04-18T12:35:44Z</time></trkpt><trkpt lat="44.468586587959166" lon="10.215643652439272"><ele>934.0</ele><time>2026-04-18T12:35:45Z</time></trkpt><trkpt lat="44.46859050506103" lon="10.215411939593597"><ele>935.75</ele><time>2026-04-18T12:35:46Z</time></trkpt><trkpt lat="44.468584845991806" lon="10.215184810276233"><ele>937.5</ele><time>2026-04-18T12:35:47Z</time></trkpt><trkpt lat="44.468607927426504" lon="10.215000530057162"><ele>939.25</ele><time>2026-04-18T12:35:47.999Z</time></trkpt><trkpt lat="44.468655856288144" lon="10.214855611774071"><ele>941.0</ele><time>2026-04-18T12:35:48.999Z</time></trkpt><trkpt lat="44.468740423000924" lon="10.214717084503297"><ele>945.3333333333334</ele><time>2026-04-18T12:35:49.999Z</time></trkpt><trkpt lat="44.468865522542956" lon="10.214595020522966"><ele>949.6666666666667</ele><time>2026-04-18T12:35:50.999Z</time></trkpt><trkpt lat="44.469001911792304" lon="10.214470239917835"><ele>954.0</ele><time>2026-04-18T12:35:51.999Z</time></trkpt><trkpt lat="44.46913747332123" lon="10.214323697365126"><ele>954.0</ele><time>2026-04-18T12:35:52.999Z</time></trkpt><trkpt lat="44.46925247099913" lon="10.214202653860658"><ele>954.0</ele><time>2026-04-18T12:35:53.999Z</time></trkpt><trkpt lat="44.4693559395923" lon="10.214039785389458"><ele>954.0</ele><time>2026-04-18T12:35:54.999Z</time></trkpt><trkpt lat="44.46942021641561" lon="10.213843426146314"><ele>955.0</ele><time>2026-04-18T12:35:55.999Z</time></trkpt><trkpt lat="44.46944963096566" lon="10.213641259357239"><ele>956.0</ele><time>2026-04-18T12:35:56.999Z</time></trkpt><trkpt lat="44.46945649110743" lon="10.2134695663983"><ele>957.0</ele><time>2026-04-18T12:35:57.999Z</time></trkpt><trkpt lat="44.46941831310232" lon="10.213327935225214"><ele>958.0</ele><time>2026-04-18T12:35:58.999Z</time></trkpt><trkpt lat="44.46931687077674" lon="10.213230668726096"><ele>960.0</ele><time>2026-04-18T12:35:59.999Z</time></trkpt><trkpt lat="44.46922588714827" lon="10.213122006386005"><ele>962.0</ele><time>2026-04-18T12:36:00.999Z</time></trkpt><trkpt lat="44.46912668970596" lon="10.213008777566044"><ele>964.0</ele><time>2026-04-18T12:36:01.999Z</time></trkpt><trkpt lat="44.469074932327395" lon="10.21288184803362"><ele>966.0</ele><time>2026-04-18T12:36:02.999Z</time></trkpt><trkpt lat="44.46905292266282" lon="10.212730464443101"><ele>966.0</ele><time>2026-04-18T12:36:03.999Z</time></trkpt><trkpt lat="44.469097777125775" lon="10.212570097603857"><ele>966.0</ele><time>2026-04-18T12:36:04.999Z</time></trkpt><trkpt lat="44.46912554943667" lon="10.21240485283584"><ele>966.0</ele><time>2026-04-18T12:36:05.999Z</time></trkpt><trkpt lat="44.469131445933456" lon="10.212240201304029"><ele>966.0</ele><time>2026-04-18T12:36:06.999Z</time></trkpt><trkpt lat="44.469070319425164" lon="10.212085912902305"><ele>967.4</ele><time>2026-04-18T12:36:07.999Z</time></trkpt><trkpt lat="44.46902945239432" lon="10.211932908538383"><ele>968.8</ele><time>2026-04-18T12:36:08.999Z</time></trkpt><trkpt lat="44.46899268899793" lon="10.21178531404977"><ele>970.1999999999999</ele><time>2026-04-18T12:36:09.999Z</time></trkpt><trkpt lat="44.46897173676643" lon="10.211644226773487"><ele>971.5999999999999</ele><time>2026-04-18T12:36:10.999Z</time></trkpt><trkpt lat="44.46899324107067" lon="10.21151147126603"><ele>973.0</ele><time>2026-04-18T12:36:11.999Z</time></trkpt><trkpt lat="44.46901848942722" lon="10.211365805329162"><ele>973.75</ele><time>2026-04-18T12:36:12.999Z</time></trkpt><trkpt lat="44.46905788477107" lon="10.211189672040096"><ele>974.5</ele><time>2026-04-18T12:36:13.999Z</time></trkpt><trkpt lat="44.46910176747527" lon="10.21098799136466"><ele>975.25</ele><time>2026-04-18T12:36:14.999Z</time></trkpt><trkpt lat="44.46914015091287" lon="10.210771865042062"><ele>976.0</ele><time>2026-04-18T12:36:15.999Z</time></trkpt><trkpt lat="44.46915536442772" lon="10.210544350187915"><ele>977.3333333333333</ele><time>2026-04-18T12:36:16.999Z</time></trkpt><trkpt lat="44.469172377951544" lon="10.210319002644612"><ele>978.6666666666667</ele><time>2026-04-18T12:36:17.999Z</time></trkpt><trkpt lat="44.46917989923868" lon="10.21008604730603"><ele>980.0</ele><time>2026-04-18T12:36:18.999Z</time></trkpt><trkpt lat="44.46919368830248" lon="10.209858566057052"><ele>980.6666666666667</ele><time>2026-04-18T12:36:19.999Z</time></trkpt><trkpt lat="44.469231875172504" lon="10.209667384822366"><ele>981.3333333333333</ele><time>2026-04-18T12:36:20.999Z</time></trkpt><trkpt lat="44.46929705734304" lon="10.209472491454557"><ele>982.0</ele><time>2026-04-18T12:36:21.999Z</time></trkpt><trkpt lat="44.46935696788216" lon="10.20925467908005"><ele>982.0</ele><time>2026-04-18T12:36:22.999Z</time></trkpt><trkpt lat="44.469422300202645" lon="10.209054497507418"><ele>982.0</ele><time>2026-04-18T12:36:23.999Z</time></trkpt><trkpt lat="44.46946164718071" lon="10.208855786930963"><ele>982.0</ele><time>2026-04-18T12:36:24.999Z</time></trkpt><trkpt lat="44.469450843328794" lon="10.208643729147962"><ele>983.25</ele><time>2026-04-18T12:36:26Z</time></trkpt><trkpt lat="44.46940834165182" lon="10.20841918699769"><ele>984.5</ele><time>2026-04-18T12:36:27Z</time></trkpt><trkpt lat="44.46941065917158" lon="10.208213649465815"><ele>985.75</ele><time>2026-04-18T12:36:28Z</time></trkpt><trkpt lat="44.469422167308636" lon="10.2080354413613"><ele>987.0</ele><time>2026-04-18T12:36:29Z</time></trkpt><trkpt lat="44.46947329511371" lon="10.207899543488127"><ele>989.25</ele><time>2026-04-18T12:36:30Z</time></trkpt><trkpt lat="44.46954696359576" lon="10.207747301627915"><ele>991.5</ele><time>2026-04-18T12:36:31Z</time></trkpt><trkpt lat="44.46960127621578" lon="10.207570203457365"><ele>993.75</ele><time>2026-04-18T12:36:32Z</time></trkpt><trkpt lat="44.46965033944052" lon="10.207410073798647"><ele>996.0</ele><time>2026-04-18T12:36:33Z</time></trkpt><trkpt lat="44.46970387959472" lon="10.20727795811178"><ele>997.75</ele><time>2026-04-18T12:36:34Z</time></trkpt><trkpt lat="44.46974205395484" lon="10.20712994326616"><ele>999.5</ele><time>2026-04-18T12:36:35Z</time></trkpt><trkpt lat="44.469788011839114" lon="10.206970610472045"><ele>1001.25</ele><time>2026-04-18T12:36:36Z</time></trkpt><trkpt lat="44.46985690171785" lon="10.206810600361681"><ele>1003.0</ele><time>2026-04-18T12:36:37Z</time></trkpt><trkpt lat="44.46995310052375" lon="10.206679659312536"><ele>1003.0</ele><time>2026-04-18T12:36:38Z</time></trkpt><trkpt lat="44.47006777173061" lon="10.206575524568741"><ele>1003.0</ele><time>2026-04-18T12:36:39Z</time></trkpt><trkpt lat="44.47020505270925" lon="10.20649681557699"><ele>1003.0</ele><time>2026-04-18T12:36:40Z</time></trkpt><trkpt lat="44.470355042153926" lon="10.20640127516269"><ele>1003.0</ele><time>2026-04-18T12:36:41Z</time></trkpt><trkpt lat="44.47051030200913" lon="10.206350237518526"><ele>1003.0</ele><time>2026-04-18T12:36:42Z</time></trkpt><trkpt lat="44.47065166870531" lon="10.206262930164895"><ele>1003.0</ele><time>2026-04-18T12:36:43Z</time></trkpt><trkpt lat="44.47078536980015" lon="10.206209986105126"><ele>1003.0</ele><time>2026-04-18T12:36:44Z</time></trkpt><trkpt lat="44.47091749343802" lon="10.206154862626533"><ele>1003.0</ele><time>2026-04-18T12:36:45Z</time></trkpt><trkpt lat="44.47104634416149" lon="10.206096077599593"><ele>1003.0</ele><time>2026-04-18T12:36:46Z</time></trkpt><trkpt lat="44.47116185503928" lon="10.206030471359556"><ele>1003.0</ele><time>2026-04-18T12:36:47Z</time></trkpt><trkpt lat="44.471245558091134" lon="10.205939244542261"><ele>999.25</ele><time>2026-04-18T12:36:48Z</time></trkpt><trkpt lat="44.47129198019841" lon="10.205812995941264"><ele>995.5</ele><time>2026-04-18T12:36:49Z</time></trkpt><trkpt lat="44.47132076952435" lon="10.20562241595763"><ele>991.75</ele><time>2026-04-18T12:36:50Z</time></trkpt><trkpt lat="44.471332585418864" lon="10.205404911522468"><ele>988.0</ele><time>2026-04-18T12:36:51Z</time></trkpt><trkpt lat="44.47137063494746" lon="10.205182291348786"><ele>988.0</ele><time>2026-04-18T12:36:52Z</time></trkpt><trkpt lat="44.47139452896701" lon="10.204946923390597"><ele>988.0</ele><time>2026-04-18T12:36:53Z</time></trkpt><trkpt lat="44.47141895721806" lon="10.204706292826147"><ele>988.0</ele><time>2026-04-18T12:36:54Z</time></trkpt><trkpt lat="44.47144471979167" lon="10.204469550578587"><ele>987.3333333333333</ele><time>2026-04-18T12:36:55Z</time></trkpt><trkpt lat="44.47147009974993" lon="10.204245971045012"><ele>986.6666666666667</ele><time>2026-04-18T12:36:56Z</time></trkpt><trkpt lat="44.471495879677605" lon="10.204026717514012"><ele>986.0</ele><time>2026-04-18T12:36:57Z</time></trkpt><trkpt lat="44.47152438123645" lon="10.203816023885922"><ele>987.0</ele><time>2026-04-18T12:36:58Z</time></trkpt><trkpt lat="44.47156589042976" lon="10.203605760955694"><ele>988.0</ele><time>2026-04-18T12:36:59Z</time></trkpt><trkpt lat="44.471617630992895" lon="10.203424468450605"><ele>989.0</ele><time>2026-04-18T12:37:00Z</time></trkpt><trkpt lat="44.47167336257103" lon="10.203244419674421"><ele>990.0</ele><time>2026-04-18T12:37:01Z</time></trkpt><trkpt lat="44.47173998819111" lon="10.203060758882517"><ele>991.75</ele><time>2026-04-18T12:37:02Z</time></trkpt><trkpt lat="44.47180690478764" lon="10.202877218180168"><ele>993.5</ele><time>2026-04-18T12:37:03Z</time></trkpt><trkpt lat="44.47187729035192" lon="10.202696707685782"><ele>995.25</ele><time>2026-04-18T12:37:04Z</time></trkpt><trkpt lat="44.471952541693014" lon="10.202524201163852"><ele>997.0</ele><time>2026-04-18T12:37:05Z</time></trkpt><trkpt lat="44.47204155917278" lon="10.202372982600144"><ele>996.5</ele><time>2026-04-18T12:37:06Z</time></trkpt><trkpt lat="44.47214906050071" lon="10.202241897699734"><ele>996.0</ele><time>2026-04-18T12:37:07Z</time></trkpt><trkpt lat="44.47226137725966" lon="10.202152103390668"><ele>995.5</ele><time>2026-04-18T12:37:08Z</time></trkpt><trkpt lat="44.472390837678276" lon="10.202098007946242"><ele>995.0</ele><time>2026-04-18T12:37:09Z</time></trkpt><trkpt lat="44.47252578088518" lon="10.20202563556618"><ele>995.0</ele><time>2026-04-18T12:37:10Z</time></trkpt><trkpt lat="44.472672480117026" lon="10.201958244446518"><ele>995.0</ele><time>2026-04-18T12:37:11Z</time></trkpt><trkpt lat="44.47281997431791" lon="10.201897765007518"><ele>995.0</ele><time>2026-04-18T12:37:12Z</time></trkpt><trkpt lat="44.47298093642401" lon="10.201809297213257"><ele>994.6666666666667</ele><time>2026-04-18T12:37:13Z</time></trkpt><trkpt lat="44.47314227505478" lon="10.201733625750489"><ele>994.3333333333333</ele><time>2026-04-18T12:37:14Z</time></trkpt><trkpt lat="44.47331081542485" lon="10.201695766019252"><ele>994.0</ele><time>2026-04-18T12:37:15Z</time></trkpt><trkpt lat="44.47349336630468" lon="10.20168353544207"><ele>994.0</ele><time>2026-04-18T12:37:16Z</time></trkpt><trkpt lat="44.473682966855215" lon="10.201687764096956"><ele>994.0</ele><time>2026-04-18T12:37:17Z</time></trkpt><trkpt lat="44.473870495318174" lon="10.20168224230338"><ele>994.0</ele><time>2026-04-18T12:37:18Z</time></trkpt><trkpt lat="44.47404799371733" lon="10.201665015901115"><ele>992.6666666666666</ele><time>2026-04-18T12:37:19Z</time></trkpt><trkpt lat="44.47420991285216" lon="10.201670740866268"><ele>991.3333333333333</ele><time>2026-04-18T12:37:20Z</time></trkpt><trkpt lat="44.47436157283701" lon="10.201642208646193"><ele>990.0</ele><time>2026-04-18T12:37:21Z</time></trkpt><trkpt lat="44.47450748374031" lon="10.201706233747013"><ele>992.0</ele><time>2026-04-18T12:37:22Z</time></trkpt><trkpt lat="44.474642203805" lon="10.201814468110374"><ele>994.0</ele><time>2026-04-18T12:37:23Z</time></trkpt><trkpt lat="44.47479949747942" lon="10.201959240149737"><ele>996.0</ele><time>2026-04-18T12:37:24Z</time></trkpt><trkpt lat="44.47496099468705" lon="10.202100918664032"><ele>996.0</ele><time>2026-04-18T12:37:25Z</time></trkpt><trkpt lat="44.4751145451517" lon="10.202248341544424"><ele>996.0</ele><time>2026-04-18T12:37:26Z</time></trkpt><trkpt lat="44.47526003813526" lon="10.202372831150255"><ele>996.0</ele><time>2026-04-18T12:37:27Z</time></trkpt><trkpt lat="44.475388781134804" lon="10.202485999136556"><ele>995.0</ele><time>2026-04-18T12:37:28Z</time></trkpt><trkpt lat="44.47551375128197" lon="10.202593963070978"><ele>994.0</ele><time>2026-04-18T12:37:29Z</time></trkpt><trkpt lat="44.47562340646902" lon="10.20271151967527"><ele>993.0</ele><time>2026-04-18T12:37:30Z</time></trkpt><trkpt lat="44.475718094404186" lon="10.202831584478103"><ele>992.0</ele><time>2026-04-18T12:37:31Z</time></trkpt><trkpt lat="44.47581470841267" lon="10.202938438116975"><ele>992.0</ele><time>2026-04-18T12:37:32Z</time></trkpt><trkpt lat="44.47590528258852" lon="10.203036369218179"><ele>992.0</ele><time>2026-04-18T12:37:33Z</time></trkpt><trkpt lat="44.475992425220056" lon="10.203122922839137"><ele>992.0</ele><time>2026-04-18T12:37:34Z</time></trkpt><trkpt lat="44.47608237500448" lon="10.20319926502523"><ele>992.0</ele><time>2026-04-18T12:37:35Z</time></trkpt><trkpt lat="44.47617665662319" lon="10.203277728686855"><ele>992.0</ele><time>2026-04-18T12:37:36Z</time></trkpt><trkpt lat="44.47626310812596" lon="10.203355623986617"><ele>992.0</ele><time>2026-04-18T12:37:37Z</time></trkpt><trkpt lat="44.47635174959527" lon="10.20344558204577"><ele>992.0</ele><time>2026-04-18T12:37:38Z</time></trkpt><trkpt lat="44.47642773914227" lon="10.203524032885861"><ele>992.0</ele><time>2026-04-18T12:37:39Z</time></trkpt><trkpt lat="44.476506945210126" lon="10.203585072305756"><ele>992.0</ele><time>2026-04-18T12:37:40Z</time></trkpt><trkpt lat="44.47660219554051" lon="10.203622287371074"><ele>992.0</ele><time>2026-04-18T12:37:41Z</time></trkpt><trkpt lat="44.47669758168863" lon="10.20364567085455"><ele>992.0</ele><time>2026-04-18T12:37:42Z</time></trkpt><trkpt lat="44.47679532983788" lon="10.20365878553399"><ele>992.0</ele><time>2026-04-18T12:37:43Z</time></trkpt><trkpt lat="44.476895326628295" lon="10.203680799410103"><ele>992.0</ele><time>2026-04-18T12:37:44Z</time></trkpt><trkpt lat="44.47699015198248" lon="10.203711443445162"><ele>992.0</ele><time>2026-04-18T12:37:45Z</time></trkpt><trkpt lat="44.477086031023994" lon="10.203735998198697"><ele>992.0</ele><time>2026-04-18T12:37:46Z</time></trkpt><trkpt lat="44.4771866717841" lon="10.203763781709005"><ele>991.8</ele><time>2026-04-18T12:37:47Z</time></trkpt><trkpt lat="44.47728193898788" lon="10.203813589410952"><ele>991.6</ele><time>2026-04-18T12:37:48Z</time></trkpt><trkpt lat="44.47737587444432" lon="10.203878480873161"><ele>991.3999999999999</ele><time>2026-04-18T12:37:48.999Z</time></trkpt><trkpt lat="44.4774622208224" lon="10.203940201018488"><ele>991.1999999999999</ele><time>2026-04-18T12:37:49.999Z</time></trkpt><trkpt lat="44.47754496681216" lon="10.204003582206662"><ele>991.0</ele><time>2026-04-18T12:37:50.999Z</time></trkpt><trkpt lat="44.477618401992785" lon="10.204046867424026"><ele>991.0</ele><time>2026-04-18T12:37:51.999Z</time></trkpt><trkpt lat="44.47767677240871" lon="10.204087188437356"><ele>990.9999999999999</ele><time>2026-04-18T12:37:52.999Z</time></trkpt><trkpt lat="44.477748535923965" lon="10.204119573179215"><ele>990.9999999999999</ele><time>2026-04-18T12:37:54.999Z</time></trkpt><trkpt lat="44.477815628430115" lon="10.204127928606885"><ele>991.0</ele><time>2026-04-18T12:38:00.999Z</time></trkpt><trkpt lat="44.47784448943272" lon="10.203931433532237"><ele>991.0</ele><time>2026-04-18T12:38:01.999Z</time></trkpt><trkpt lat="44.47783658502437" lon="10.203787609481813"><ele>992.8</ele><time>2026-04-18T12:38:03.999Z</time></trkpt><trkpt lat="44.47782311539712" lon="10.203644818734151"><ele>994.5999999999999</ele><time>2026-04-18T12:38:05.999Z</time></trkpt><trkpt lat="44.477804111993244" lon="10.203531687702815"><ele>996.4</ele><time>2026-04-18T12:38:06.999Z</time></trkpt><trkpt lat="44.477782881388165" lon="10.20342865806259"><ele>998.2</ele><time>2026-04-18T12:38:07.999Z</time></trkpt><trkpt lat="44.47775361854089" lon="10.203295676068441"><ele>1000.0</ele><time>2026-04-18T12:38:08.999Z</time></trkpt><trkpt lat="44.47768347373899" lon="10.203170425818135"><ele>1002.0</ele><time>2026-04-18T12:38:09.999Z</time></trkpt><trkpt lat="44.477645656922576" lon="10.20300943424258"><ele>1004.0</ele><time>2026-04-18T12:38:10.999Z</time></trkpt><trkpt lat="44.47761476580217" lon="10.20286498740925"><ele>1006.0</ele><time>2026-04-18T12:38:11.999Z</time></trkpt><trkpt lat="44.47759390149283" lon="10.202710098449133"><ele>1008.0</ele><time>2026-04-18T12:38:12.999Z</time></trkpt><trkpt lat="44.47757693622242" lon="10.202526639909495"><ele>1008.0</ele><time>2026-04-18T12:38:13.999Z</time></trkpt><trkpt lat="44.47752561034675" lon="10.202365002687017"><ele>1008.0</ele><time>2026-04-18T12:38:14.999Z</time></trkpt><trkpt lat="44.47749132394745" lon="10.202209174851125"><ele>1008.0</ele><time>2026-04-18T12:38:15.999Z</time></trkpt><trkpt lat="44.47745443540352" lon="10.202062197256463"><ele>1008.0</ele><time>2026-04-18T12:38:16.999Z</time></trkpt><trkpt lat="44.477438154432036" lon="10.201916127323118"><ele>1009.5999999999999</ele><time>2026-04-18T12:38:17.999Z</time></trkpt><trkpt lat="44.47742517173377" lon="10.201781472843914"><ele>1011.1999999999999</ele><time>2026-04-18T12:38:18.999Z</time></trkpt><trkpt lat="44.47742657131817" lon="10.201651226143394"><ele>1012.8</ele><time>2026-04-18T12:38:19.999Z</time></trkpt><trkpt lat="44.47745266989293" lon="10.201519206509204"><ele>1014.4</ele><time>2026-04-18T12:38:20.999Z</time></trkpt><trkpt lat="44.47750332193462" lon="10.201379602221705"><ele>1016.0</ele><time>2026-04-18T12:38:21.999Z</time></trkpt><trkpt lat="44.477573580107496" lon="10.201243526851782"><ele>1017.0</ele><time>2026-04-18T12:38:22.999Z</time></trkpt><trkpt lat="44.47764921458701" lon="10.201119827445416"><ele>1017.9999999999999</ele><time>2026-04-18T12:38:23.999Z</time></trkpt><trkpt lat="44.47772232859559" lon="10.201017717856386"><ele>1018.9999999999999</ele><time>2026-04-18T12:38:24.999Z</time></trkpt><trkpt lat="44.47780752310598" lon="10.200975931948198"><ele>1020.0</ele><time>2026-04-18T12:38:25.999Z</time></trkpt><trkpt lat="44.477895304333316" lon="10.201012552855364"><ele>1021.0</ele><time>2026-04-18T12:38:26.999Z</time></trkpt><trkpt lat="44.47799319133803" lon="10.201064515748516"><ele>1022.75</ele><time>2026-04-18T12:38:27.999Z</time></trkpt><trkpt lat="44.47810191902413" lon="10.201090719386006"><ele>1024.5</ele><time>2026-04-18T12:38:28.999Z</time></trkpt><trkpt lat="44.47821072678756" lon="10.201139808825141"><ele>1026.25</ele><time>2026-04-18T12:38:29.999Z</time></trkpt><trkpt lat="44.47832956561595" lon="10.201185906684753"><ele>1028.0</ele><time>2026-04-18T12:38:30.999Z</time></trkpt><trkpt lat="44.4784483451236" lon="10.201221604801965"><ele>1028.0</ele><time>2026-04-18T12:38:32Z</time></trkpt><trkpt lat="44.47857518840086" lon="10.201252721168386"><ele>1028.0</ele><time>2026-04-18T12:38:33Z</time></trkpt><trkpt lat="44.47870111084978" lon="10.201284522774138"><ele>1028.0</ele><time>2026-04-18T12:38:34Z</time></trkpt><trkpt lat="44.478826465416795" lon="10.201321371631689"><ele>1028.0</ele><time>2026-04-18T12:38:35Z</time></trkpt><trkpt lat="44.4789523800612" lon="10.201360060390753"><ele>1029.5</ele><time>2026-04-18T12:38:36Z</time></trkpt><trkpt lat="44.479076361310405" lon="10.201391204946134"><ele>1031.0</ele><time>2026-04-18T12:38:37Z</time></trkpt><trkpt lat="44.47920288704677" lon="10.201401585011858"><ele>1032.5</ele><time>2026-04-18T12:38:38Z</time></trkpt><trkpt lat="44.47932573022673" lon="10.20136008518182"><ele>1034.0</ele><time>2026-04-18T12:38:39Z</time></trkpt><trkpt lat="44.479439789330264" lon="10.20128743198616"><ele>1034.0</ele><time>2026-04-18T12:38:40Z</time></trkpt><trkpt lat="44.47953295545819" lon="10.201216306586746"><ele>1034.0</ele><time>2026-04-18T12:38:41Z</time></trkpt><trkpt lat="44.479615715648094" lon="10.20116434953194"><ele>1034.0</ele><time>2026-04-18T12:38:42Z</time></trkpt><trkpt lat="44.47968023637158" lon="10.201134502720668"><ele>1034.0</ele><time>2026-04-18T12:38:43Z</time></trkpt><trkpt lat="44.47974169757718" lon="10.200977477942857"><ele>1034.0</ele><time>2026-04-18T12:38:48Z</time></trkpt><trkpt lat="44.479741717503536" lon="10.200792713173968"><ele>1032.0</ele><time>2026-04-18T12:38:49Z</time></trkpt><trkpt lat="44.4797448592167" lon="10.20059599841441"><ele>1030.0</ele><time>2026-04-18T12:38:50Z</time></trkpt><trkpt lat="44.47977180516342" lon="10.200356762536966"><ele>1028.0</ele><time>2026-04-18T12:38:51Z</time></trkpt><trkpt lat="44.47975223384598" lon="10.200131465583807"><ele>1028.0</ele><time>2026-04-18T12:38:52Z</time></trkpt><trkpt lat="44.47972431320328" lon="10.199884581816143"><ele>1028.0</ele><time>2026-04-18T12:38:53Z</time></trkpt><trkpt lat="44.47974677945682" lon="10.199674415211714"><ele>1028.0</ele><time>2026-04-18T12:38:54Z</time></trkpt><trkpt lat="44.47979715496597" lon="10.199500136087234"><ele>1027.25</ele><time>2026-04-18T12:38:55Z</time></trkpt><trkpt lat="44.47983665185131" lon="10.199315060683"><ele>1026.5</ele><time>2026-04-18T12:38:56Z</time></trkpt><trkpt lat="44.47982960365241" lon="10.19913996884819"><ele>1025.75</ele><time>2026-04-18T12:38:57Z</time></trkpt><trkpt lat="44.479805617885056" lon="10.198977221089228"><ele>1025.0</ele><time>2026-04-18T12:38:58Z</time></trkpt><trkpt lat="44.479735644067105" lon="10.198848233512496"><ele>1026.5</ele><time>2026-04-18T12:38:59Z</time></trkpt><trkpt lat="44.47962187593717" lon="10.198760607117556"><ele>1028.0</ele><time>2026-04-18T12:39:00Z</time></trkpt><trkpt lat="44.47948034098257" lon="10.198698104207834"><ele>1029.5</ele><time>2026-04-18T12:39:01Z</time></trkpt><trkpt lat="44.47933210718283" lon="10.198623011082363"><ele>1031.0</ele><time>2026-04-18T12:39:02Z</time></trkpt><trkpt lat="44.47920176368431" lon="10.198557125519867"><ele>1031.0</ele><time>2026-04-18T12:39:03Z</time></trkpt><trkpt lat="44.47908693645312" lon="10.19846100905273"><ele>1031.0</ele><time>2026-04-18T12:39:04Z</time></trkpt><trkpt lat="44.47902087522797" lon="10.198286656208367"><ele>1031.0</ele><time>2026-04-18T12:39:05Z</time></trkpt><trkpt lat="44.478913942093364" lon="10.198130150443047"><ele>1031.0</ele><time>2026-04-18T12:39:06Z</time></trkpt><trkpt lat="44.478818759984655" lon="10.198001059009554"><ele>1025.3333333333335</ele><time>2026-04-18T12:39:07Z</time></trkpt><trkpt lat="44.47877671210192" lon="10.197818519945185"><ele>1019.6666666666667</ele><time>2026-04-18T12:39:08Z</time></trkpt><trkpt lat="44.47873606231873" lon="10.197596419870658"><ele>1014.0</ele><time>2026-04-18T12:39:09Z</time></trkpt><trkpt lat="44.4786659429725" lon="10.197407821657004"><ele>1019.25</ele><time>2026-04-18T12:39:10Z</time></trkpt><trkpt lat="44.478628900730634" lon="10.197219776727565"><ele>1024.5</ele><time>2026-04-18T12:39:11Z</time></trkpt><trkpt lat="44.47860813497562" lon="10.197033722116473"><ele>1029.75</ele><time>2026-04-18T12:39:12Z</time></trkpt><trkpt lat="44.478623692690896" lon="10.196837291493791"><ele>1035.0</ele><time>2026-04-18T12:39:13Z</time></trkpt><trkpt lat="44.478647878591175" lon="10.196616120458557"><ele>1033.6666666666667</ele><time>2026-04-18T12:39:14Z</time></trkpt><trkpt lat="44.47866667723362" lon="10.196394664652715"><ele>1032.3333333333335</ele><time>2026-04-18T12:39:15Z</time></trkpt><trkpt lat="44.47872238691432" lon="10.196184564285584"><ele>1031.0</ele><time>2026-04-18T12:39:16Z</time></trkpt><trkpt lat="44.47877909813006" lon="10.195991607143894"><ele>1025.0</ele><time>2026-04-18T12:39:17Z</time></trkpt><trkpt lat="44.47884862696782" lon="10.195801296879266"><ele>1019.0</ele><time>2026-04-18T12:39:18Z</time></trkpt><trkpt lat="44.47891519883828" lon="10.195609792988247"><ele>1013.0</ele><time>2026-04-18T12:39:19Z</time></trkpt><trkpt lat="44.47901741850908" lon="10.195456055527789"><ele>1013.0</ele><time>2026-04-18T12:39:20Z</time></trkpt><trkpt lat="44.47910838024834" lon="10.195298430757775"><ele>1013.0</ele><time>2026-04-18T12:39:21Z</time></trkpt><trkpt lat="44.47919845422731" lon="10.1951518424652"><ele>1013.0</ele><time>2026-04-18T12:39:22Z</time></trkpt><trkpt lat="44.47924283525951" lon="10.19496584294049"><ele>1013.0</ele><time>2026-04-18T12:39:23Z</time></trkpt><trkpt lat="44.479266572334176" lon="10.194748057028663"><ele>1014.3333333333334</ele><time>2026-04-18T12:39:24Z</time></trkpt><trkpt lat="44.47927980204448" lon="10.194529091660561"><ele>1015.6666666666667</ele><time>2026-04-18T12:39:25Z</time></trkpt><trkpt lat="44.479279014303906" lon="10.194300506739705"><ele>1017.0</ele><time>2026-04-18T12:39:26Z</time></trkpt><trkpt lat="44.479317503215206" lon="10.194074675418703"><ele>1018.25</ele><time>2026-04-18T12:39:27Z</time></trkpt><trkpt lat="44.479365224151394" lon="10.193873876778106"><ele>1019.5</ele><time>2026-04-18T12:39:28Z</time></trkpt><trkpt lat="44.47942324094178" lon="10.193682611495284"><ele>1020.75</ele><time>2026-04-18T12:39:29Z</time></trkpt><trkpt lat="44.47947562924829" lon="10.193511295220267"><ele>1022.0</ele><time>2026-04-18T12:39:30Z</time></trkpt><trkpt lat="44.47953003430497" lon="10.193363950415755"><ele>1022.0</ele><time>2026-04-18T12:39:31Z</time></trkpt><trkpt lat="44.479573921330584" lon="10.193240643155182"><ele>1022.0</ele><time>2026-04-18T12:39:32Z</time></trkpt><trkpt lat="44.47966585735688" lon="10.193204546005687"><ele>1022.0</ele><time>2026-04-18T12:39:33Z</time></trkpt><trkpt lat="44.47979975955469" lon="10.193182452213223"><ele>1022.0</ele><time>2026-04-18T12:39:34Z</time></trkpt><trkpt lat="44.47994945253774" lon="10.193140442428835"><ele>1023.25</ele><time>2026-04-18T12:39:35Z</time></trkpt><trkpt lat="44.48010129769929" lon="10.19314564548332"><ele>1024.5</ele><time>2026-04-18T12:39:36Z</time></trkpt><trkpt lat="44.480232439287654" lon="10.193178387699236"><ele>1025.75</ele><time>2026-04-18T12:39:37Z</time></trkpt><trkpt lat="44.48034539833333" lon="10.193203065910039"><ele>1027.0</ele><time>2026-04-18T12:39:38Z</time></trkpt><trkpt lat="44.480445856134736" lon="10.193200286897069"><ele>1026.75</ele><time>2026-04-18T12:39:39Z</time></trkpt><trkpt lat="44.480550715130484" lon="10.193150847011056"><ele>1026.5</ele><time>2026-04-18T12:39:40Z</time></trkpt><trkpt lat="44.48066668624251" lon="10.193099513208315"><ele>1026.25</ele><time>2026-04-18T12:39:41Z</time></trkpt><trkpt lat="44.48079520885903" lon="10.193062024682838"><ele>1026.0</ele><time>2026-04-18T12:39:42Z</time></trkpt><trkpt lat="44.48093653534904" lon="10.19302499515455"><ele>1026.0</ele><time>2026-04-18T12:39:43Z</time></trkpt><trkpt lat="44.481088468757086" lon="10.19299121099766"><ele>1026.0</ele><time>2026-04-18T12:39:44Z</time></trkpt><trkpt lat="44.481228267997366" lon="10.192940372720942"><ele>1026.0</ele><time>2026-04-18T12:39:45Z</time></trkpt><trkpt lat="44.48134912969217" lon="10.192886675377602"><ele>1026.0</ele><time>2026-04-18T12:39:46Z</time></trkpt><trkpt lat="44.48144962807864" lon="10.192819742163323"><ele>1024.8</ele><time>2026-04-18T12:39:47Z</time></trkpt><trkpt lat="44.481522583261" lon="10.192753256631585"><ele>1023.5999999999999</ele><time>2026-04-18T12:39:48Z</time></trkpt><trkpt lat="44.48157330359569" lon="10.1926462971035"><ele>1022.4</ele><time>2026-04-18T12:39:49Z</time></trkpt><trkpt lat="44.481570658237594" lon="10.192502010292943"><ele>1021.2</ele><time>2026-04-18T12:39:50Z</time></trkpt><trkpt lat="44.48151618762203" lon="10.192324845590633"><ele>1020.0</ele><time>2026-04-18T12:39:51Z</time></trkpt><trkpt lat="44.481445905631126" lon="10.19214700508352"><ele>1020.0</ele><time>2026-04-18T12:39:52Z</time></trkpt><trkpt lat="44.48140627127741" lon="10.191925814319363"><ele>1020.0</ele><time>2026-04-18T12:39:52.999Z</time></trkpt><trkpt lat="44.48136025760307" lon="10.191726065218313"><ele>1020.0</ele><time>2026-04-18T12:39:53.999Z</time></trkpt><trkpt lat="44.48130143241934" lon="10.191522585871851"><ele>1028.25</ele><time>2026-04-18T12:39:54.999Z</time></trkpt><trkpt lat="44.481257063968656" lon="10.191315165412577"><ele>1036.5</ele><time>2026-04-18T12:39:55.999Z</time></trkpt><trkpt lat="44.48123511225045" lon="10.191110385641837"><ele>1044.75</ele><time>2026-04-18T12:39:56.999Z</time></trkpt><trkpt lat="44.48121320959954" lon="10.190916986925368"><ele>1053.0</ele><time>2026-04-18T12:39:57.999Z</time></trkpt><trkpt lat="44.48120140557743" lon="10.190741389477948"><ele>1053.5</ele><time>2026-04-18T12:39:58.999Z</time></trkpt><trkpt lat="44.481208729165395" lon="10.190585907307156"><ele>1054.0</ele><time>2026-04-18T12:39:59.999Z</time></trkpt><trkpt lat="44.48116622569033" lon="10.19044119217356"><ele>1054.5</ele><time>2026-04-18T12:40:00.999Z</time></trkpt><trkpt lat="44.48107598764078" lon="10.190307578843704"><ele>1055.0</ele><time>2026-04-18T12:40:01.999Z</time></trkpt><trkpt lat="44.481001009200945" lon="10.190172742816491"><ele>1055.0</ele><time>2026-04-18T12:40:02.999Z</time></trkpt><trkpt lat="44.480974211956145" lon="10.190026059801193"><ele>1055.0</ele><time>2026-04-18T12:40:03.999Z</time></trkpt><trkpt lat="44.48100285503894" lon="10.189901342704077"><ele>1055.0</ele><time>2026-04-18T12:40:04.999Z</time></trkpt><trkpt lat="44.481084340700285" lon="10.189832188093062"><ele>1055.0</ele><time>2026-04-18T12:40:05.999Z</time></trkpt><trkpt lat="44.48118131442743" lon="10.189866835972628"><ele>1055.0</ele><time>2026-04-18T12:40:06.999Z</time></trkpt><trkpt lat="44.48128249303428" lon="10.189855040020653"><ele>1053.0</ele><time>2026-04-18T12:40:07.999Z</time></trkpt><trkpt lat="44.48138520861648" lon="10.189819840239135"><ele>1051.0</ele><time>2026-04-18T12:40:08.999Z</time></trkpt><trkpt lat="44.48148357556564" lon="10.189706732260216"><ele>1049.0</ele><time>2026-04-18T12:40:09.999Z</time></trkpt><trkpt lat="44.48157243688918" lon="10.189567314166572"><ele>1047.0</ele><time>2026-04-18T12:40:10.999Z</time></trkpt><trkpt lat="44.481665957392615" lon="10.189425943793893"><ele>1047.0</ele><time>2026-04-18T12:40:11.999Z</time></trkpt><trkpt lat="44.48176928451457" lon="10.189287123034676"><ele>1047.0</ele><time>2026-04-18T12:40:12.999Z</time></trkpt><trkpt lat="44.481863328960465" lon="10.189162524560627"><ele>1047.0</ele><time>2026-04-18T12:40:13.999Z</time></trkpt><trkpt lat="44.48193974249343" lon="10.189026096846966"><ele>1047.0</ele><time>2026-04-18T12:40:14.999Z</time></trkpt><trkpt lat="44.481961113012986" lon="10.188874410230186"><ele>1049.5</ele><time>2026-04-18T12:40:15.999Z</time></trkpt><trkpt lat="44.48193528953088" lon="10.188698499661951"><ele>1052.0</ele><time>2026-04-18T12:40:16.999Z</time></trkpt><trkpt lat="44.481854840197684" lon="10.18854995024738"><ele>1054.5</ele><time>2026-04-18T12:40:17.999Z</time></trkpt><trkpt lat="44.481804483730976" lon="10.188371500442372"><ele>1057.0</ele><time>2026-04-18T12:40:18.999Z</time></trkpt><trkpt lat="44.48178964289924" lon="10.188191023674086"><ele>1059.75</ele><time>2026-04-18T12:40:19.999Z</time></trkpt><trkpt lat="44.48178401529443" lon="10.188000134504176"><ele>1062.5</ele><time>2026-04-18T12:40:20.999Z</time></trkpt><trkpt lat="44.48178386257655" lon="10.187797719392965"><ele>1065.25</ele><time>2026-04-18T12:40:21.999Z</time></trkpt><trkpt lat="44.481781129424505" lon="10.187621215496689"><ele>1068.0</ele><time>2026-04-18T12:40:22.999Z</time></trkpt><trkpt lat="44.481784012348264" lon="10.187473902297139"><ele>1068.4</ele><time>2026-04-18T12:40:23.999Z</time></trkpt><trkpt lat="44.481792581401976" lon="10.187329541008332"><ele>1068.8</ele><time>2026-04-18T12:40:24.999Z</time></trkpt><trkpt lat="44.48187154159888" lon="10.187222037911699"><ele>1069.2</ele><time>2026-04-18T12:40:25.999Z</time></trkpt><trkpt lat="44.48197512633938" lon="10.187171929931528"><ele>1069.6</ele><time>2026-04-18T12:40:26.999Z</time></trkpt><trkpt lat="44.48208467567475" lon="10.187090439916295"><ele>1070.0</ele><time>2026-04-18T12:40:27.999Z</time></trkpt><trkpt lat="44.48220305689862" lon="10.187015610839568"><ele>1070.0</ele><time>2026-04-18T12:40:28.999Z</time></trkpt><trkpt lat="44.48231533789255" lon="10.186928809971423"><ele>1070.0</ele><time>2026-04-18T12:40:29.999Z</time></trkpt><trkpt lat="44.48241838028962" lon="10.186812413258078"><ele>1070.0</ele><time>2026-04-18T12:40:30.999Z</time></trkpt><trkpt lat="44.48249026645591" lon="10.1866627126395"><ele>1070.0</ele><time>2026-04-18T12:40:31.999Z</time></trkpt><trkpt lat="44.48255671147359" lon="10.186501795502293"><ele>1071.25</ele><time>2026-04-18T12:40:32.999Z</time></trkpt><trkpt lat="44.4826625843409" lon="10.18640739652814"><ele>1072.5</ele><time>2026-04-18T12:40:33.999Z</time></trkpt><trkpt lat="44.48277875128376" lon="10.186319504688305"><ele>1073.75</ele><time>2026-04-18T12:40:34.999Z</time></trkpt><trkpt lat="44.48289902622933" lon="10.186321992701215"><ele>1075.0</ele><time>2026-04-18T12:40:35.999Z</time></trkpt><trkpt lat="44.48299838204066" lon="10.186374242022497"><ele>1075.0</ele><time>2026-04-18T12:40:36.999Z</time></trkpt><trkpt lat="44.48307553790096" lon="10.186375899083252"><ele>1075.0</ele><time>2026-04-18T12:40:38Z</time></trkpt><trkpt lat="44.48313686687874" lon="10.186301023129959"><ele>1075.0</ele><time>2026-04-18T12:40:39Z</time></trkpt><trkpt lat="44.483161888167" lon="10.186176056607307"><ele>1075.0</ele><time>2026-04-18T12:40:40Z</time></trkpt><trkpt lat="44.48310649708761" lon="10.186033931627303"><ele>1075.0</ele><time>2026-04-18T12:40:41Z</time></trkpt><trkpt lat="44.48296918547908" lon="10.185990081969537"><ele>1077.5</ele><time>2026-04-18T12:40:42Z</time></trkpt><trkpt lat="44.48283834706101" lon="10.185969918276434"><ele>1080.0</ele><time>2026-04-18T12:40:43Z</time></trkpt><trkpt lat="44.482697643060774" lon="10.185929872250505"><ele>1082.5</ele><time>2026-04-18T12:40:44Z</time></trkpt><trkpt lat="44.482561563812865" lon="10.185861181401656"><ele>1085.0</ele><time>2026-04-18T12:40:45Z</time></trkpt><trkpt lat="44.482410376206644" lon="10.185840180351084"><ele>1085.0</ele><time>2026-04-18T12:40:46Z</time></trkpt><trkpt lat="44.48226727659239" lon="10.185863003447443"><ele>1085.0</ele><time>2026-04-18T12:40:47Z</time></trkpt><trkpt lat="44.48213504380847" lon="10.185842459842746"><ele>1085.0</ele><time>2026-04-18T12:40:48Z</time></trkpt><trkpt lat="44.48201720015818" lon="10.185774238219393"><ele>1085.0</ele><time>2026-04-18T12:40:49Z</time></trkpt><trkpt lat="44.48189027009578" lon="10.185690358346756"><ele>1090.0</ele><time>2026-04-18T12:40:50Z</time></trkpt><trkpt lat="44.48175469635059" lon="10.185608242022742"><ele>1095.0</ele><time>2026-04-18T12:40:51Z</time></trkpt><trkpt lat="44.48161600523392" lon="10.185578189278994"><ele>1100.0</ele><time>2026-04-18T12:40:52Z</time></trkpt><trkpt lat="44.48147844943658" lon="10.185569063391855"><ele>1105.0</ele><time>2026-04-18T12:40:53Z</time></trkpt><trkpt lat="44.48133550742164" lon="10.185588196930718"><ele>1104.75</ele><time>2026-04-18T12:40:54Z</time></trkpt><trkpt lat="44.48118786343253" lon="10.185578044800252"><ele>1104.5</ele><time>2026-04-18T12:40:55Z</time></trkpt><trkpt lat="44.48106645903119" lon="10.185579955963966"><ele>1104.25</ele><time>2026-04-18T12:40:56Z</time></trkpt><trkpt lat="44.48095750132458" lon="10.185553112167888"><ele>1104.0</ele><time>2026-04-18T12:40:57Z</time></trkpt><trkpt lat="44.48086238503144" lon="10.185454483547248"><ele>1104.0</ele><time>2026-04-18T12:40:58Z</time></trkpt><trkpt lat="44.48078977213522" lon="10.18529192876305"><ele>1104.0</ele><time>2026-04-18T12:40:59Z</time></trkpt><trkpt lat="44.48068078509788" lon="10.185200841621315"><ele>1104.0</ele><time>2026-04-18T12:41:00Z</time></trkpt><trkpt lat="44.4805655201533" lon="10.185142563931837"><ele>1104.0</ele><time>2026-04-18T12:41:01Z</time></trkpt><trkpt lat="44.48042243562787" lon="10.185154413776552"><ele>1105.75</ele><time>2026-04-18T12:41:02Z</time></trkpt><trkpt lat="44.48028862806146" lon="10.185095930940294"><ele>1107.5</ele><time>2026-04-18T12:41:03Z</time></trkpt><trkpt lat="44.480186152753795" lon="10.184979778948945"><ele>1109.25</ele><time>2026-04-18T12:41:04Z</time></trkpt><trkpt lat="44.48008020126192" lon="10.184826774030036"><ele>1111.0</ele><time>2026-04-18T12:41:05Z</time></trkpt><trkpt lat="44.47996340100794" lon="10.184695965903225"><ele>1112.8</ele><time>2026-04-18T12:41:06Z</time></trkpt><trkpt lat="44.47986294909363" lon="10.18458397444086"><ele>1114.6</ele><time>2026-04-18T12:41:07Z</time></trkpt><trkpt lat="44.479775680549515" lon="10.184527914516593"><ele>1116.4</ele><time>2026-04-18T12:41:08Z</time></trkpt><trkpt lat="44.47970623093619" lon="10.184549634900275"><ele>1118.2</ele><time>2026-04-18T12:41:09Z</time></trkpt><trkpt lat="44.47961692592901" lon="10.184640150478884"><ele>1120.0</ele><time>2026-04-18T12:41:10Z</time></trkpt><trkpt lat="44.47954497498805" lon="10.184791615519284"><ele>1121.75</ele><time>2026-04-18T12:41:11Z</time></trkpt><trkpt lat="44.47950449941995" lon="10.184989176671387"><ele>1123.5</ele><time>2026-04-18T12:41:12Z</time></trkpt><trkpt lat="44.4795017908187" lon="10.18517850450069"><ele>1125.25</ele><time>2026-04-18T12:41:13Z</time></trkpt><trkpt lat="44.47947578151004" lon="10.185327353668857"><ele>1127.0</ele><time>2026-04-18T12:41:14Z</time></trkpt><trkpt lat="44.47938406744684" lon="10.185417378794478"><ele>1127.0</ele><time>2026-04-18T12:41:15Z</time></trkpt><trkpt lat="44.47928690075592" lon="10.185466902544634"><ele>1127.0</ele><time>2026-04-18T12:41:16Z</time></trkpt><trkpt lat="44.479159473054935" lon="10.185397498201779"><ele>1127.0</ele><time>2026-04-18T12:41:17Z</time></trkpt><trkpt lat="44.47902901200052" lon="10.18530945671746"><ele>1127.0</ele><time>2026-04-18T12:41:18Z</time></trkpt><trkpt lat="44.47890885499571" lon="10.185228100938323"><ele>1127.0</ele><time>2026-04-18T12:41:19Z</time></trkpt><trkpt lat="44.478809621969134" lon="10.185128782762252"><ele>1127.0</ele><time>2026-04-18T12:41:20Z</time></trkpt><trkpt lat="44.47875811362207" lon="10.185020145478045"><ele>1127.0</ele><time>2026-04-18T12:41:21Z</time></trkpt><trkpt lat="44.47876847197833" lon="10.184906023984398"><ele>1127.0</ele><time>2026-04-18T12:41:22Z</time></trkpt><trkpt lat="44.47883059861178" lon="10.184805047276196"><ele>1127.0</ele><time>2026-04-18T12:41:23Z</time></trkpt><trkpt lat="44.47892984662395" lon="10.184722814322873"><ele>1128.0</ele><time>2026-04-18T12:41:24Z</time></trkpt><trkpt lat="44.47905257357326" lon="10.184618967154199"><ele>1129.0</ele><time>2026-04-18T12:41:25Z</time></trkpt><trkpt lat="44.4791669391604" lon="10.184508755783114"><ele>1130.0</ele><time>2026-04-18T12:41:26Z</time></trkpt><trkpt lat="44.47924544355808" lon="10.184393272644003"><ele>1131.0</ele><time>2026-04-18T12:41:27Z</time></trkpt><trkpt lat="44.479282882538065" lon="10.184243287588348"><ele>1131.0</ele><time>2026-04-18T12:41:28Z</time></trkpt><trkpt lat="44.47926378674179" lon="10.1840719982374"><ele>1131.0</ele><time>2026-04-18T12:41:29Z</time></trkpt><trkpt lat="44.47924413378309" lon="10.183916192296623"><ele>1131.0</ele><time>2026-04-18T12:41:30Z</time></trkpt><trkpt lat="44.47927075129942" lon="10.183767329799307"><ele>1131.0</ele><time>2026-04-18T12:41:31Z</time></trkpt><trkpt lat="44.4792661518464" lon="10.183529077401625"><ele>1134.5</ele><time>2026-04-18T12:41:32Z</time></trkpt><trkpt lat="44.47932010408881" lon="10.18335791397835"><ele>1138.0</ele><time>2026-04-18T12:41:33Z</time></trkpt><trkpt lat="44.479437817151684" lon="10.183241295428775"><ele>1141.5</ele><time>2026-04-18T12:41:34Z</time></trkpt><trkpt lat="44.479559187275676" lon="10.183117178514348"><ele>1145.0</ele><time>2026-04-18T12:41:35Z</time></trkpt><trkpt lat="44.47969224755529" lon="10.183053114521586"><ele>1147.25</ele><time>2026-04-18T12:41:36Z</time></trkpt><trkpt lat="44.47983846015277" lon="10.183078546924408"><ele>1149.5</ele><time>2026-04-18T12:41:37Z</time></trkpt><trkpt lat="44.47999458933522" lon="10.183104407948807"><ele>1151.75</ele><time>2026-04-18T12:41:38Z</time></trkpt><trkpt lat="44.480124364459705" lon="10.183143734732354"><ele>1154.0</ele><time>2026-04-18T12:41:39Z</time></trkpt><trkpt lat="44.48024328959634" lon="10.183152885081807"><ele>1154.0</ele><time>2026-04-18T12:41:40Z</time></trkpt><trkpt lat="44.4803561208423" lon="10.183115403153346"><ele>1154.0</ele><time>2026-04-18T12:41:41Z</time></trkpt><trkpt lat="44.480478511071496" lon="10.183012462684243"><ele>1154.0</ele><time>2026-04-18T12:41:42Z</time></trkpt><trkpt lat="44.48059010632465" lon="10.182888395023678"><ele>1154.0</ele><time>2026-04-18T12:41:43Z</time></trkpt><trkpt lat="44.480668414256584" lon="10.182788228772075"><ele>1151.4</ele><time>2026-04-18T12:41:44Z</time></trkpt><trkpt lat="44.48072398537055" lon="10.182691384450171"><ele>1148.8000000000002</ele><time>2026-04-18T12:41:45Z</time></trkpt><trkpt lat="44.480741298588086" lon="10.182594250844183"><ele>1146.1999999999998</ele><time>2026-04-18T12:41:46Z</time></trkpt><trkpt lat="44.48071782487296" lon="10.18248505995985"><ele>1143.6</ele><time>2026-04-18T12:41:47Z</time></trkpt><trkpt lat="44.48065008925445" lon="10.182386810566827"><ele>1141.0</ele><time>2026-04-18T12:41:48Z</time></trkpt><trkpt lat="44.4805448130431" lon="10.182320883561237"><ele>1145.75</ele><time>2026-04-18T12:41:49Z</time></trkpt><trkpt lat="44.480413082160965" lon="10.182318508541112"><ele>1150.5</ele><time>2026-04-18T12:41:50Z</time></trkpt><trkpt lat="44.48027169109711" lon="10.182332352775626"><ele>1155.25</ele><time>2026-04-18T12:41:51Z</time></trkpt><trkpt lat="44.480149911966485" lon="10.182306277819935"><ele>1160.0</ele><time>2026-04-18T12:41:52Z</time></trkpt><trkpt lat="44.480052163407514" lon="10.182268016657826"><ele>1160.0</ele><time>2026-04-18T12:41:53Z</time></trkpt><trkpt lat="44.479971406023914" lon="10.18222197194798"><ele>1160.0</ele><time>2026-04-18T12:41:53.999Z</time></trkpt><trkpt lat="44.479880331603994" lon="10.182161561784442"><ele>1160.0</ele><time>2026-04-18T12:41:54.999Z</time></trkpt><trkpt lat="44.479771763998635" lon="10.182094838808183"><ele>1160.0</ele><time>2026-04-18T12:41:55.999Z</time></trkpt><trkpt lat="44.47965246734537" lon="10.182058763718219"><ele>1160.0</ele><time>2026-04-18T12:41:56.999Z</time></trkpt><trkpt lat="44.479528208877625" lon="10.182025069418687"><ele>1164.0</ele><time>2026-04-18T12:41:57.999Z</time></trkpt><trkpt lat="44.4793884096095" lon="10.182021788873094"><ele>1168.0</ele><time>2026-04-18T12:41:58.999Z</time></trkpt><trkpt lat="44.479258100999736" lon="10.18198532702565"><ele>1172.0</ele><time>2026-04-18T12:41:59.999Z</time></trkpt><trkpt lat="44.479136757045396" lon="10.181972269845975"><ele>1176.0</ele><time>2026-04-18T12:42:00.999Z</time></trkpt><trkpt lat="44.47902846616864" lon="10.181963757352197"><ele>1176.0</ele><time>2026-04-18T12:42:01.999Z</time></trkpt><trkpt lat="44.47894739122425" lon="10.18195780626005"><ele>1176.0</ele><time>2026-04-18T12:42:02.999Z</time></trkpt><trkpt lat="44.47887027286249" lon="10.181952145585306"><ele>1176.0</ele><time>2026-04-18T12:42:03.999Z</time></trkpt><trkpt lat="44.47879927284528" lon="10.1819469340149"><ele>1176.0</ele><time>2026-04-18T12:42:04.999Z</time></trkpt><trkpt lat="44.478720715656266" lon="10.181964255975126"><ele>1176.0</ele><time>2026-04-18T12:42:05.999Z</time></trkpt><trkpt lat="44.478629024690235" lon="10.181961786921423"><ele>1176.0</ele><time>2026-04-18T12:42:06.999Z</time></trkpt><trkpt lat="44.4785289942718" lon="10.181946645839028"><ele>1176.5</ele><time>2026-04-18T12:42:07.999Z</time></trkpt><trkpt lat="44.47843392611019" lon="10.18191706676193"><ele>1177.0</ele><time>2026-04-18T12:42:08.999Z</time></trkpt><trkpt lat="44.47832089822114" lon="10.18186719467896"><ele>1177.5</ele><time>2026-04-18T12:42:09.999Z</time></trkpt><trkpt lat="44.478207183220185" lon="10.181790752498474"><ele>1178.0</ele><time>2026-04-18T12:42:10.999Z</time></trkpt><trkpt lat="44.47809803294656" lon="10.181700193742168"><ele>1178.0</ele><time>2026-04-18T12:42:11.999Z</time></trkpt><trkpt lat="44.47799818004437" lon="10.181618913479994"><ele>1178.0</ele><time>2026-04-18T12:42:12.999Z</time></trkpt><trkpt lat="44.477912553898875" lon="10.181563863353277"><ele>1178.0</ele><time>2026-04-18T12:42:13.999Z</time></trkpt><trkpt lat="44.47781431034544" lon="10.181522465654288"><ele>1178.0</ele><time>2026-04-18T12:42:14.999Z</time></trkpt><trkpt lat="44.47770262185061" lon="10.181494501317747"><ele>1178.0</ele><time>2026-04-18T12:42:15.999Z</time></trkpt><trkpt lat="44.47758114804423" lon="10.18146939399282"><ele>1182.2</ele><time>2026-04-18T12:42:16.999Z</time></trkpt><trkpt lat="44.47745437699985" lon="10.181444460296385"><ele>1186.4</ele><time>2026-04-18T12:42:17.999Z</time></trkpt><trkpt lat="44.47734494208135" lon="10.181411263674779"><ele>1190.6000000000001</ele><time>2026-04-18T12:42:18.999Z</time></trkpt><trkpt lat="44.4772538976173" lon="10.181359316378533"><ele>1194.8</ele><time>2026-04-18T12:42:19.999Z</time></trkpt><trkpt lat="44.47719079877047" lon="10.181283820143193"><ele>1199.0</ele><time>2026-04-18T12:42:20.999Z</time></trkpt><trkpt lat="44.47717422419229" lon="10.181172126018279"><ele>1199.0</ele><time>2026-04-18T12:42:21.999Z</time></trkpt><trkpt lat="44.47720518947727" lon="10.181053943736247"><ele>1199.0</ele><time>2026-04-18T12:42:22.999Z</time></trkpt><trkpt lat="44.47727370320429" lon="10.180977016214321"><ele>1199.0</ele><time>2026-04-18T12:42:23.999Z</time></trkpt><trkpt lat="44.47736564177607" lon="10.180969535166405"><ele>1199.0</ele><time>2026-04-18T12:42:24.999Z</time></trkpt><trkpt lat="44.47746835859768" lon="10.180986140079446"><ele>1199.0</ele><time>2026-04-18T12:42:25.999Z</time></trkpt><trkpt lat="44.47757781083623" lon="10.180976132771217"><ele>1199.0</ele><time>2026-04-18T12:42:26.999Z</time></trkpt><trkpt lat="44.477706696474876" lon="10.18090800359558"><ele>1199.0</ele><time>2026-04-18T12:42:27.999Z</time></trkpt><trkpt lat="44.47780565699176" lon="10.180772081323417"><ele>1199.0</ele><time>2026-04-18T12:42:28.999Z</time></trkpt><trkpt lat="44.47788848436411" lon="10.180631798968516"><ele>1199.0</ele><time>2026-04-18T12:42:29.999Z</time></trkpt><trkpt lat="44.477985579237505" lon="10.180526896135786"><ele>1199.4</ele><time>2026-04-18T12:42:30.999Z</time></trkpt><trkpt lat="44.47812689398478" lon="10.180478569256628"><ele>1199.8000000000002</ele><time>2026-04-18T12:42:31.999Z</time></trkpt><trkpt lat="44.478231667537166" lon="10.180401692007996"><ele>1200.1999999999998</ele><time>2026-04-18T12:42:32.999Z</time></trkpt><trkpt lat="44.47831485854974" lon="10.180352743112042"><ele>1200.6</ele><time>2026-04-18T12:42:33.999Z</time></trkpt><trkpt lat="44.47835857268663" lon="10.180249172001746"><ele>1201.0</ele><time>2026-04-18T12:42:34.999Z</time></trkpt><trkpt lat="44.47836200924503" lon="10.180135758462502"><ele>1201.0</ele><time>2026-04-18T12:42:35.999Z</time></trkpt><trkpt lat="44.47833136761142" lon="10.180029375745208"><ele>1201.0</ele><time>2026-04-18T12:42:36.999Z</time></trkpt><trkpt lat="44.47820636109727" lon="10.179981337187815"><ele>1201.0</ele><time>2026-04-18T12:42:38.999Z</time></trkpt><trkpt lat="44.4781083388172" lon="10.180001235298615"><ele>1201.0</ele><time>2026-04-18T12:42:39.999Z</time></trkpt><trkpt lat="44.478001310511466" lon="10.180050591951996"><ele>1201.0</ele><time>2026-04-18T12:42:40.999Z</time></trkpt><trkpt lat="44.47789500909061" lon="10.180067589744763"><ele>1204.25</ele><time>2026-04-18T12:42:41.999Z</time></trkpt><trkpt lat="44.47779508755043" lon="10.17998149624675"><ele>1207.5</ele><time>2026-04-18T12:42:42.999Z</time></trkpt><trkpt lat="44.47770362253092" lon="10.179888547121678"><ele>1210.75</ele><time>2026-04-18T12:42:44Z</time></trkpt><trkpt lat="44.477593149974616" lon="10.179848811799879"><ele>1214.0</ele><time>2026-04-18T12:42:45Z</time></trkpt><trkpt lat="44.47746002063023" lon="10.179851224894598"><ele>1214.0</ele><time>2026-04-18T12:42:46Z</time></trkpt><trkpt lat="44.47732985387848" lon="10.1799429233648"><ele>1214.0</ele><time>2026-04-18T12:42:47Z</time></trkpt><trkpt lat="44.477211202456644" lon="10.180055450322648"><ele>1214.0</ele><time>2026-04-18T12:42:48Z</time></trkpt><trkpt lat="44.47709583534475" lon="10.180075899440006"><ele>1214.0</ele><time>2026-04-18T12:42:49Z</time></trkpt><trkpt lat="44.476981258452334" lon="10.180041661170241"><ele>1215.75</ele><time>2026-04-18T12:42:50Z</time></trkpt><trkpt lat="44.47689025499416" lon="10.179906533162203"><ele>1217.5</ele><time>2026-04-18T12:42:51Z</time></trkpt><trkpt lat="44.47676881279397" lon="10.179780103087749"><ele>1219.25</ele><time>2026-04-18T12:42:52Z</time></trkpt><trkpt lat="44.47664761313714" lon="10.179699011620626"><ele>1221.0</ele><time>2026-04-18T12:42:53Z</time></trkpt><trkpt lat="44.47653651633258" lon="10.179614150760646"><ele>1222.3999999999999</ele><time>2026-04-18T12:42:54Z</time></trkpt><trkpt lat="44.4764156892992" lon="10.179595158495927"><ele>1223.8</ele><time>2026-04-18T12:42:55Z</time></trkpt><trkpt lat="44.47629140863981" lon="10.179606750434798"><ele>1225.1999999999998</ele><time>2026-04-18T12:42:56Z</time></trkpt><trkpt lat="44.47619569554148" lon="10.179625290705479"><ele>1226.6</ele><time>2026-04-18T12:42:57Z</time></trkpt><trkpt lat="44.47610632129336" lon="10.179675229174011"><ele>1228.0</ele><time>2026-04-18T12:42:58Z</time></trkpt><trkpt lat="44.4760260039021" lon="10.179730245578035"><ele>1228.3333333333333</ele><time>2026-04-18T12:42:59Z</time></trkpt><trkpt lat="44.475952800698636" lon="10.179747978308422"><ele>1228.6666666666665</ele><time>2026-04-18T12:43:00Z</time></trkpt><trkpt lat="44.47587072888168" lon="10.179732082146433"><ele>1229.0</ele><time>2026-04-18T12:43:02Z</time></trkpt><trkpt lat="44.475827273986795" lon="10.179649917939189"><ele>1229.3333333333333</ele><time>2026-04-18T12:43:05Z</time></trkpt><trkpt lat="44.47582649894478" lon="10.179551601679439"><ele>1229.6666666666667</ele><time>2026-04-18T12:43:08Z</time></trkpt><trkpt lat="44.47589059149547" lon="10.17944352316252"><ele>1230.0</ele><time>2026-04-18T12:43:11Z</time></trkpt><trkpt lat="44.47595202410302" lon="10.17936116664738"><ele>1230.0</ele><time>2026-04-18T12:43:13Z</time></trkpt><trkpt lat="44.47599852990836" lon="10.179262190962815"><ele>1230.0</ele><time>2026-04-18T12:43:15Z</time></trkpt><trkpt lat="44.47605098181577" lon="10.179190075205096"><ele>1230.0</ele><time>2026-04-18T12:43:17Z</time></trkpt><trkpt lat="44.47610314844406" lon="10.179106743498378"><ele>1230.0</ele><time>2026-04-18T12:43:19Z</time></trkpt><trkpt lat="44.4761621170781" lon="10.179040204782792"><ele>1230.0</ele><time>2026-04-18T12:43:21Z</time></trkpt><trkpt lat="44.476198203571904" lon="10.17896505898967"><ele>1230.0</ele><time>2026-04-18T12:43:23Z</time></trkpt><trkpt lat="44.4762617039837" lon="10.178905679254745"><ele>1230.6</ele><time>2026-04-18T12:43:26Z</time></trkpt><trkpt lat="44.476336155997885" lon="10.178846504106442"><ele>1231.2</ele><time>2026-04-18T12:43:29Z</time></trkpt><trkpt lat="44.47640916391562" lon="10.178782242779462"><ele>1231.8</ele><time>2026-04-18T12:43:33Z</time></trkpt><trkpt lat="44.476469261065176" lon="10.178735185987547"><ele>1232.4</ele><time>2026-04-18T12:43:36Z</time></trkpt><trkpt lat="44.476529195875266" lon="10.178663850739532"><ele>1233.0</ele><time>2026-04-18T12:43:39Z</time></trkpt><trkpt lat="44.47653992123481" lon="10.178372973185754"><ele>1233.0</ele><time>2026-04-18T12:43:46Z</time></trkpt><trkpt lat="44.476526652337945" lon="10.17827973307746"><ele>1233.0</ele><time>2026-04-18T12:43:49Z</time></trkpt><trkpt lat="44.47664232549079" lon="10.17805711188406"><ele>1233.0</ele><time>2026-04-18T12:43:54.999Z</time></trkpt><trkpt lat="44.47667423477019" lon="10.17795433221148"><ele>1233.0</ele><time>2026-04-18T12:43:57.999Z</time></trkpt><trkpt lat="44.47668955262153" lon="10.17806761262482"><ele>1233.0</ele><time>2026-04-18T12:46:49.999Z</time></trkpt><trkpt lat="44.476609322961814" lon="10.178134317127615"><ele>1233.0</ele><time>2026-04-18T12:46:51.999Z</time></trkpt><trkpt lat="44.47654403302664" lon="10.17816819763809"><ele>1233.0</ele><time>2026-04-18T12:46:53.999Z</time></trkpt><trkpt lat="44.47647581996065" lon="10.178185511504468"><ele>1233.0</ele><time>2026-04-18T12:46:58Z</time></trkpt><trkpt lat="44.47641315905772" lon="10.17815569064985"><ele>1233.0</ele><time>2026-04-18T12:47:00Z</time></trkpt><trkpt lat="44.476384779876284" lon="10.178057290498039"><ele>1233.0</ele><time>2026-04-18T12:47:03Z</time></trkpt><trkpt lat="44.47633325589321" lon="10.177965993417137"><ele>1233.0</ele><time>2026-04-18T12:47:06Z</time></trkpt><trkpt lat="44.476261177171594" lon="10.177878747372526"><ele>1234.5714285714287</ele><time>2026-04-18T12:47:09Z</time></trkpt><trkpt lat="44.47622470602129" lon="10.177798206687228"><ele>1236.142857142857</ele><time>2026-04-18T12:47:11Z</time></trkpt><trkpt lat="44.47617131243669" lon="10.177728198933814"><ele>1237.7142857142858</ele><time>2026-04-18T12:47:13Z</time></trkpt><trkpt lat="44.47611690693001" lon="10.17766671581056"><ele>1239.2857142857142</ele><time>2026-04-18T12:47:15Z</time></trkpt><trkpt lat="44.476049317074256" lon="10.17761235422572"><ele>1240.857142857143</ele><time>2026-04-18T12:47:19Z</time></trkpt><trkpt lat="44.47599175619524" lon="10.177574764624671"><ele>1242.4285714285713</ele><time>2026-04-18T12:47:22Z</time></trkpt><trkpt lat="44.47591605434362" lon="10.177542290033148"><ele>1244.0</ele><time>2026-04-18T12:47:26Z</time></trkpt><trkpt lat="44.47584702079514" lon="10.17748131393303"><ele>1244.0</ele><time>2026-04-18T12:47:28Z</time></trkpt><trkpt lat="44.475779416590306" lon="10.177417616044059"><ele>1244.0</ele><time>2026-04-18T12:47:31Z</time></trkpt><trkpt lat="44.475828228553326" lon="10.17748722573456"><ele>1244.0</ele><time>2026-04-18T12:47:46Z</time></trkpt><trkpt lat="44.47588996045284" lon="10.177509686653941"><ele>1244.0</ele><time>2026-04-18T12:47:48Z</time></trkpt><trkpt lat="44.47597582659141" lon="10.177564718391052"><ele>1244.0</ele><time>2026-04-18T12:47:51Z</time></trkpt><trkpt lat="44.47603488204246" lon="10.177601962521015"><ele>1244.0</ele><time>2026-04-18T12:47:53Z</time></trkpt><trkpt lat="44.47609623518314" lon="10.177648874896033"><ele>1244.0</ele><time>2026-04-18T12:47:55Z</time></trkpt><trkpt lat="44.47615314057924" lon="10.177704828592605"><ele>1244.0</ele><time>2026-04-18T12:47:57Z</time></trkpt><trkpt lat="44.476205563129284" lon="10.177770863386328"><ele>1244.0</ele><time>2026-04-18T12:47:59Z</time></trkpt><trkpt lat="44.476256186206" lon="10.17784230117392"><ele>1244.0</ele><time>2026-04-18T12:48:01Z</time></trkpt><trkpt lat="44.47630568277147" lon="10.177920988958967"><ele>1244.0</ele><time>2026-04-18T12:48:03Z</time></trkpt><trkpt lat="44.47635501452643" lon="10.178002744213567"><ele>1244.0</ele><time>2026-04-18T12:48:05Z</time></trkpt><trkpt lat="44.47640728105587" lon="10.178099838308164"><ele>1244.0</ele><time>2026-04-18T12:48:07Z</time></trkpt><trkpt lat="44.47644951899268" lon="10.178191199623685"><ele>1242.1666666666667</ele><time>2026-04-18T12:48:08Z</time></trkpt><trkpt lat="44.476474622499715" lon="10.178334168306538"><ele>1240.3333333333335</ele><time>2026-04-18T12:48:10Z</time></trkpt><trkpt lat="44.47652779491924" lon="10.178435416039504"><ele>1238.5</ele><time>2026-04-18T12:48:11.999Z</time></trkpt><trkpt lat="44.47656425984101" lon="10.178527978114705"><ele>1236.6666666666667</ele><time>2026-04-18T12:48:13.999Z</time></trkpt><trkpt lat="44.47661389422502" lon="10.178637751234342"><ele>1234.8333333333333</ele><time>2026-04-18T12:48:16.999Z</time></trkpt><trkpt lat="44.476676913471294" lon="10.178659793516522"><ele>1233.0</ele><time>2026-04-18T12:48:17.999Z</time></trkpt><trkpt lat="44.47676135682074" lon="10.178645771920392"><ele>1233.0</ele><time>2026-04-18T12:48:18.999Z</time></trkpt><trkpt lat="44.476840313883756" lon="10.178651700409986"><ele>1233.0</ele><time>2026-04-18T12:48:19.999Z</time></trkpt><trkpt lat="44.47692079063526" lon="10.178661680329911"><ele>1233.0</ele><time>2026-04-18T12:48:20.999Z</time></trkpt><trkpt lat="44.477001963287584" lon="10.178666129577316"><ele>1233.0</ele><time>2026-04-18T12:48:21.999Z</time></trkpt><trkpt lat="44.477078112680026" lon="10.178664810220459"><ele>1233.0</ele><time>2026-04-18T12:48:22.999Z</time></trkpt><trkpt lat="44.477148993276586" lon="10.17864721641865"><ele>1233.0</ele><time>2026-04-18T12:48:23.999Z</time></trkpt><trkpt lat="44.477191897218155" lon="10.178575415010902"><ele>1233.6</ele><time>2026-04-18T12:48:24.999Z</time></trkpt><trkpt lat="44.47720305456773" lon="10.178476861948498"><ele>1234.1999999999998</ele><time>2026-04-18T12:48:25.999Z</time></trkpt><trkpt lat="44.47717586702869" lon="10.178350640393033"><ele>1234.8</ele><time>2026-04-18T12:48:26.999Z</time></trkpt><trkpt lat="44.47713103740305" lon="10.178217860867667"><ele>1235.3999999999999</ele><time>2026-04-18T12:48:27.999Z</time></trkpt><trkpt lat="44.477075833024394" lon="10.17807279318466"><ele>1236.0</ele><time>2026-04-18T12:48:28.999Z</time></trkpt><trkpt lat="44.477015414722686" lon="10.177939559948571"><ele>1236.0</ele><time>2026-04-18T12:48:29.999Z</time></trkpt><trkpt lat="44.47695948583375" lon="10.177809704561756"><ele>1236.0</ele><time>2026-04-18T12:48:30.999Z</time></trkpt><trkpt lat="44.4769126990296" lon="10.17767666276796"><ele>1236.0</ele><time>2026-04-18T12:48:31.999Z</time></trkpt><trkpt lat="44.47688634528725" lon="10.177536715988069"><ele>1236.0</ele><time>2026-04-18T12:48:32.999Z</time></trkpt><trkpt lat="44.47688364423936" lon="10.177397173152654"><ele>1236.0</ele><time>2026-04-18T12:48:33.999Z</time></trkpt><trkpt lat="44.47691386145369" lon="10.177271873053755"><ele>1235.8</ele><time>2026-04-18T12:48:34.999Z</time></trkpt><trkpt lat="44.47697756302865" lon="10.17715814836014"><ele>1235.6</ele><time>2026-04-18T12:48:35.999Z</time></trkpt><trkpt lat="44.47706162969237" lon="10.17705811783632"><ele>1235.4</ele><time>2026-04-18T12:48:36.999Z</time></trkpt><trkpt lat="44.47714101574539" lon="10.17695720267987"><ele>1235.2</ele><time>2026-04-18T12:48:37.999Z</time></trkpt><trkpt lat="44.47721140980959" lon="10.176836922145698"><ele>1235.0</ele><time>2026-04-18T12:48:38.999Z</time></trkpt><trkpt lat="44.477251609301575" lon="10.176696097937935"><ele>1232.6</ele><time>2026-04-18T12:48:39.999Z</time></trkpt><trkpt lat="44.47725113226424" lon="10.176555117821083"><ele>1230.2</ele><time>2026-04-18T12:48:40.999Z</time></trkpt><trkpt lat="44.47720129002842" lon="10.176439446049208"><ele>1227.8</ele><time>2026-04-18T12:48:41.999Z</time></trkpt><trkpt lat="44.47711017739907" lon="10.176346342263177"><ele>1225.4</ele><time>2026-04-18T12:48:42.999Z</time></trkpt><trkpt lat="44.476989468240724" lon="10.176266482980962"><ele>1223.0</ele><time>2026-04-18T12:48:43.999Z</time></trkpt><trkpt lat="44.47686759525982" lon="10.176183509914047"><ele>1223.0</ele><time>2026-04-18T12:48:44.999Z</time></trkpt><trkpt lat="44.47674655962672" lon="10.176087111796338"><ele>1223.0</ele><time>2026-04-18T12:48:45.999Z</time></trkpt><trkpt lat="44.476649986265805" lon="10.175967096540353"><ele>1223.0</ele><time>2026-04-18T12:48:46.999Z</time></trkpt><trkpt lat="44.476538400334626" lon="10.175869761634878"><ele>1223.0</ele><time>2026-04-18T12:48:47.999Z</time></trkpt><trkpt lat="44.476439207002834" lon="10.175746515218425"><ele>1224.25</ele><time>2026-04-18T12:48:48.999Z</time></trkpt><trkpt lat="44.47634400823048" lon="10.17562716949145"><ele>1225.5</ele><time>2026-04-18T12:48:49.999Z</time></trkpt><trkpt lat="44.476261105121374" lon="10.175517387667123"><ele>1226.75</ele><time>2026-04-18T12:48:50.999Z</time></trkpt><trkpt lat="44.4762001750695" lon="10.175397735839537"><ele>1228.0</ele><time>2026-04-18T12:48:51.999Z</time></trkpt><trkpt lat="44.476158762299356" lon="10.175256563051324"><ele>1228.0</ele><time>2026-04-18T12:48:52.999Z</time></trkpt><trkpt lat="44.47613737896607" lon="10.175096762258935"><ele>1228.0</ele><time>2026-04-18T12:48:53.999Z</time></trkpt><trkpt lat="44.476146303749964" lon="10.174925294643783"><ele>1228.0</ele><time>2026-04-18T12:48:54.999Z</time></trkpt><trkpt lat="44.47620528651322" lon="10.174769360481285"><ele>1228.0</ele><time>2026-04-18T12:48:55.999Z</time></trkpt><trkpt lat="44.47623994605801" lon="10.174615491035992"><ele>1225.0</ele><time>2026-04-18T12:48:56.999Z</time></trkpt><trkpt lat="44.47629171557885" lon="10.17447841322"><ele>1222.0</ele><time>2026-04-18T12:48:57.999Z</time></trkpt><trkpt lat="44.47631172411894" lon="10.174364055535762"><ele>1219.0</ele><time>2026-04-18T12:48:58.999Z</time></trkpt><trkpt lat="44.476300032574095" lon="10.174246642525773"><ele>1216.0</ele><time>2026-04-18T12:48:59.999Z</time></trkpt><trkpt lat="44.476244874283395" lon="10.174142620336513"><ele>1213.0</ele><time>2026-04-18T12:49:00.999Z</time></trkpt><trkpt lat="44.47614924942062" lon="10.174079836712108"><ele>1213.0</ele><time>2026-04-18T12:49:02Z</time></trkpt><trkpt lat="44.47603688367709" lon="10.174057557129007"><ele>1213.0</ele><time>2026-04-18T12:49:03Z</time></trkpt><trkpt lat="44.47591565432664" lon="10.174046220615278"><ele>1213.0</ele><time>2026-04-18T12:49:04Z</time></trkpt><trkpt lat="44.475802988962464" lon="10.1740175666381"><ele>1213.0</ele><time>2026-04-18T12:49:05Z</time></trkpt><trkpt lat="44.47568016830547" lon="10.174009883001316"><ele>1212.25</ele><time>2026-04-18T12:49:06Z</time></trkpt><trkpt lat="44.47555710786215" lon="10.173994832464015"><ele>1211.5</ele><time>2026-04-18T12:49:07Z</time></trkpt><trkpt lat="44.47543936813166" lon="10.173978042473108"><ele>1210.75</ele><time>2026-04-18T12:49:08Z</time></trkpt><trkpt lat="44.47532039648109" lon="10.173955272243516"><ele>1210.0</ele><time>2026-04-18T12:49:09Z</time></trkpt><trkpt lat="44.47520876038029" lon="10.17392064342954"><ele>1210.0</ele><time>2026-04-18T12:49:10Z</time></trkpt><trkpt lat="44.47508831758036" lon="10.173876118710112"><ele>1210.0</ele><time>2026-04-18T12:49:11Z</time></trkpt><trkpt lat="44.474982818778784" lon="10.173827753570597"><ele>1210.0</ele><time>2026-04-18T12:49:12Z</time></trkpt><trkpt lat="44.47487600544731" lon="10.173751356691978"><ele>1210.0</ele><time>2026-04-18T12:49:13Z</time></trkpt><trkpt lat="44.47478245475593" lon="10.173664381458401"><ele>1210.0</ele><time>2026-04-18T12:49:14Z</time></trkpt><trkpt lat="44.474691576593855" lon="10.173566810287191"><ele>1210.0</ele><time>2026-04-18T12:49:15Z</time></trkpt><trkpt lat="44.4746372271802" lon="10.173419638938"><ele>1210.0</ele><time>2026-04-18T12:49:16Z</time></trkpt><trkpt lat="44.474634985413545" lon="10.173245488585218"><ele>1210.0</ele><time>2026-04-18T12:49:17Z</time></trkpt><trkpt lat="44.4746831881223" lon="10.17308381573304"><ele>1210.0</ele><time>2026-04-18T12:49:18Z</time></trkpt><trkpt lat="44.474740018365225" lon="10.17294341563123"><ele>1210.0</ele><time>2026-04-18T12:49:19Z</time></trkpt><trkpt lat="44.474754419322444" lon="10.172808294290475"><ele>1210.0</ele><time>2026-04-18T12:49:20Z</time></trkpt><trkpt lat="44.474726101149194" lon="10.172658624008124"><ele>1210.0</ele><time>2026-04-18T12:49:21Z</time></trkpt><trkpt lat="44.47467464969493" lon="10.172522254926125"><ele>1210.0</ele><time>2026-04-18T12:49:22Z</time></trkpt><trkpt lat="44.47461299672834" lon="10.172399625069785"><ele>1210.0</ele><time>2026-04-18T12:49:23Z</time></trkpt><trkpt lat="44.4745540080552" lon="10.172273803545533"><ele>1210.0</ele><time>2026-04-18T12:49:24Z</time></trkpt><trkpt lat="44.4745050683373" lon="10.172147414285691"><ele>1210.0</ele><time>2026-04-18T12:49:25Z</time></trkpt><trkpt lat="44.474463290714645" lon="10.172034239474543"><ele>1210.0</ele><time>2026-04-18T12:49:26Z</time></trkpt><trkpt lat="44.4744237959612" lon="10.171914429219422"><ele>1210.0</ele><time>2026-04-18T12:49:27Z</time></trkpt><trkpt lat="44.47438656966476" lon="10.171811241675341"><ele>1210.0</ele><time>2026-04-18T12:49:28Z</time></trkpt><trkpt lat="44.47434949015961" lon="10.171685497963342"><ele>1210.0</ele><time>2026-04-18T12:49:29Z</time></trkpt><trkpt lat="44.47431542079634" lon="10.171572109134306"><ele>1210.0</ele><time>2026-04-18T12:49:30Z</time></trkpt><trkpt lat="44.474283703484645" lon="10.17145419427084"><ele>1210.0</ele><time>2026-04-18T12:49:31Z</time></trkpt><trkpt lat="44.47424663918791" lon="10.171330991549935"><ele>1210.0</ele><time>2026-04-18T12:49:32Z</time></trkpt><trkpt lat="44.47421723275954" lon="10.171217845388247"><ele>1209.8</ele><time>2026-04-18T12:49:33Z</time></trkpt><trkpt lat="44.47418029406899" lon="10.17110516345707"><ele>1209.6</ele><time>2026-04-18T12:49:34Z</time></trkpt><trkpt lat="44.474150386443895" lon="10.170982325110845"><ele>1209.4</ele><time>2026-04-18T12:49:35Z</time></trkpt><trkpt lat="44.4741287571153" lon="10.170860700926038"><ele>1209.2</ele><time>2026-04-18T12:49:36Z</time></trkpt><trkpt lat="44.47409664578054" lon="10.17073386245975"><ele>1209.0</ele><time>2026-04-18T12:49:37Z</time></trkpt><trkpt lat="44.47405764298834" lon="10.170618703666575"><ele>1208.2</ele><time>2026-04-18T12:49:38Z</time></trkpt><trkpt lat="44.47402641446543" lon="10.170494483622788"><ele>1207.4</ele><time>2026-04-18T12:49:39Z</time></trkpt><trkpt lat="44.47399545132561" lon="10.170377922771852"><ele>1206.6</ele><time>2026-04-18T12:49:40Z</time></trkpt><trkpt lat="44.473964643529115" lon="10.170244329616178"><ele>1205.8</ele><time>2026-04-18T12:49:41Z</time></trkpt><trkpt lat="44.47393576632819" lon="10.17011365842749"><ele>1205.0</ele><time>2026-04-18T12:49:42Z</time></trkpt><trkpt lat="44.47392111500062" lon="10.169987066416809"><ele>1205.2</ele><time>2026-04-18T12:49:43Z</time></trkpt><trkpt lat="44.47389688363294" lon="10.169851623875987"><ele>1205.4</ele><time>2026-04-18T12:49:44Z</time></trkpt><trkpt lat="44.47389677589667" lon="10.16970621295312"><ele>1205.6</ele><time>2026-04-18T12:49:45Z</time></trkpt><trkpt lat="44.473912428191845" lon="10.169572194614396"><ele>1205.8</ele><time>2026-04-18T12:49:46Z</time></trkpt><trkpt lat="44.473951307478565" lon="10.169451096532221"><ele>1206.0</ele><time>2026-04-18T12:49:47Z</time></trkpt><trkpt lat="44.47400747336859" lon="10.16933532143628"><ele>1206.0</ele><time>2026-04-18T12:49:48Z</time></trkpt><trkpt lat="44.47407314915404" lon="10.169225564820666"><ele>1206.0</ele><time>2026-04-18T12:49:49Z</time></trkpt><trkpt lat="44.47414112590221" lon="10.16913941295488"><ele>1206.0</ele><time>2026-04-18T12:49:50Z</time></trkpt><trkpt lat="44.47421395197674" lon="10.169061014199249"><ele>1206.0</ele><time>2026-04-18T12:49:51Z</time></trkpt><trkpt lat="44.47429648877632" lon="10.168969515755734"><ele>1206.0</ele><time>2026-04-18T12:49:52Z</time></trkpt><trkpt lat="44.47437169291711" lon="10.168875408978172"><ele>1207.3999999999999</ele><time>2026-04-18T12:49:53Z</time></trkpt><trkpt lat="44.47444050322213" lon="10.168779456872018"><ele>1208.8</ele><time>2026-04-18T12:49:54Z</time></trkpt><trkpt lat="44.474517277193954" lon="10.168679696204807"><ele>1210.1999999999998</ele><time>2026-04-18T12:49:55Z</time></trkpt><trkpt lat="44.474594496487676" lon="10.168571081796891"><ele>1211.6</ele><time>2026-04-18T12:49:56Z</time></trkpt><trkpt lat="44.47466700028528" lon="10.168460354075085"><ele>1213.0</ele><time>2026-04-18T12:49:57Z</time></trkpt><trkpt lat="44.47473300354361" lon="10.168352098270335"><ele>1209.6</ele><time>2026-04-18T12:49:58Z</time></trkpt><trkpt lat="44.47480072142053" lon="10.168250677612809"><ele>1206.1999999999998</ele><time>2026-04-18T12:49:59Z</time></trkpt><trkpt lat="44.47487005212179" lon="10.168153484158745"><ele>1202.8</ele><time>2026-04-18T12:50:00Z</time></trkpt><trkpt lat="44.474941569674556" lon="10.168051323367568"><ele>1199.3999999999999</ele><time>2026-04-18T12:50:01Z</time></trkpt><trkpt lat="44.47501108923647" lon="10.167946686106115"><ele>1196.0</ele><time>2026-04-18T12:50:02Z</time></trkpt><trkpt lat="44.475080608600194" lon="10.167841839177939"><ele>1196.0</ele><time>2026-04-18T12:50:03Z</time></trkpt><trkpt lat="44.47515012827167" lon="10.167741928259835"><ele>1196.0</ele><time>2026-04-18T12:50:04Z</time></trkpt><trkpt lat="44.47522871851561" lon="10.167644555228177"><ele>1196.0</ele><time>2026-04-18T12:50:05Z</time></trkpt><trkpt lat="44.475315102635086" lon="10.167553285848577"><ele>1196.0</ele><time>2026-04-18T12:50:06Z</time></trkpt><trkpt lat="44.475408048497975" lon="10.16747457700287"><ele>1196.0</ele><time>2026-04-18T12:50:07Z</time></trkpt><trkpt lat="44.47550098911772" lon="10.167401736701676"><ele>1195.3999999999999</ele><time>2026-04-18T12:50:08Z</time></trkpt><trkpt lat="44.475597157780825" lon="10.167346887168444"><ele>1194.8</ele><time>2026-04-18T12:50:09Z</time></trkpt><trkpt lat="44.4757017914425" lon="10.16729214171653"><ele>1194.1999999999998</ele><time>2026-04-18T12:50:10Z</time></trkpt><trkpt lat="44.47580735198275" lon="10.167242551963385"><ele>1193.6</ele><time>2026-04-18T12:50:11Z</time></trkpt><trkpt lat="44.47591996132763" lon="10.167204232727292"><ele>1193.0</ele><time>2026-04-18T12:50:12Z</time></trkpt><trkpt lat="44.47602831913739" lon="10.167167758776932"><ele>1193.0</ele><time>2026-04-18T12:50:13Z</time></trkpt><trkpt lat="44.476139218073" lon="10.167137781552762"><ele>1193.0</ele><time>2026-04-18T12:50:14Z</time></trkpt><trkpt lat="44.47624969120755" lon="10.167107869881317"><ele>1193.0</ele><time>2026-04-18T12:50:14.999Z</time></trkpt><trkpt lat="44.47635341321843" lon="10.167080343653618"><ele>1193.0</ele><time>2026-04-18T12:50:15.999Z</time></trkpt><trkpt lat="44.47645597446996" lon="10.167057216148686"><ele>1193.0</ele><time>2026-04-18T12:50:16.999Z</time></trkpt><trkpt lat="44.47655491083182" lon="10.167043187232407"><ele>1191.8</ele><time>2026-04-18T12:50:17.999Z</time></trkpt><trkpt lat="44.47666133145513" lon="10.167043018946396"><ele>1190.6</ele><time>2026-04-18T12:50:18.999Z</time></trkpt><trkpt lat="44.476764792929686" lon="10.16705946676981"><ele>1189.4</ele><time>2026-04-18T12:50:19.999Z</time></trkpt><trkpt lat="44.476856538531514" lon="10.167088463764163"><ele>1188.2</ele><time>2026-04-18T12:50:20.999Z</time></trkpt><trkpt lat="44.476944262566214" lon="10.167114756900395"><ele>1187.0</ele><time>2026-04-18T12:50:21.999Z</time></trkpt><trkpt lat="44.47702460972636" lon="10.167121349293367"><ele>1187.0</ele><time>2026-04-18T12:50:22.999Z</time></trkpt><trkpt lat="44.477098758871385" lon="10.167097616005837"><ele>1187.0</ele><time>2026-04-18T12:50:23.999Z</time></trkpt><trkpt lat="44.4771422744796" lon="10.166925164614673"><ele>1187.0</ele><time>2026-04-18T12:50:25.999Z</time></trkpt><trkpt lat="44.47710066553927" lon="10.16677105876923"><ele>1187.0</ele><time>2026-04-18T12:50:26.999Z</time></trkpt><trkpt lat="44.47705224749542" lon="10.16660732023879"><ele>1189.25</ele><time>2026-04-18T12:50:27.999Z</time></trkpt><trkpt lat="44.47700753961012" lon="10.166459825797237"><ele>1191.5</ele><time>2026-04-18T12:50:28.999Z</time></trkpt><trkpt lat="44.476952372621454" lon="10.166277825856818"><ele>1193.75</ele><time>2026-04-18T12:50:29.999Z</time></trkpt><trkpt lat="44.47690486683316" lon="10.166117018185183"><ele>1196.0</ele><time>2026-04-18T12:50:30.999Z</time></trkpt><trkpt lat="44.47685985410652" lon="10.165963277538841"><ele>1196.0</ele><time>2026-04-18T12:50:31.999Z</time></trkpt><trkpt lat="44.47682178096954" lon="10.165818874235532"><ele>1196.0</ele><time>2026-04-18T12:50:32.999Z</time></trkpt><trkpt lat="44.476788852304665" lon="10.165677154257802"><ele>1196.0</ele><time>2026-04-18T12:50:33.999Z</time></trkpt><trkpt lat="44.476767574453255" lon="10.165529702693343"><ele>1196.0</ele><time>2026-04-18T12:50:34.999Z</time></trkpt><trkpt lat="44.476775414425866" lon="10.165368985849929"><ele>1196.0</ele><time>2026-04-18T12:50:35.999Z</time></trkpt><trkpt lat="44.47679827877009" lon="10.165204732773892"><ele>1198.75</ele><time>2026-04-18T12:50:36.999Z</time></trkpt><trkpt lat="44.476870950139386" lon="10.165046353107234"><ele>1201.5</ele><time>2026-04-18T12:50:37.999Z</time></trkpt><trkpt lat="44.476948247254654" lon="10.164910271233131"><ele>1204.25</ele><time>2026-04-18T12:50:38.999Z</time></trkpt><trkpt lat="44.4770129689198" lon="10.16477314015563"><ele>1207.0</ele><time>2026-04-18T12:50:39.999Z</time></trkpt><trkpt lat="44.47709010555447" lon="10.16465101853097"><ele>1208.2</ele><time>2026-04-18T12:50:40.999Z</time></trkpt><trkpt lat="44.4771676571241" lon="10.16453898270962"><ele>1209.4</ele><time>2026-04-18T12:50:41.999Z</time></trkpt><trkpt lat="44.47725011509992" lon="10.164445450594716"><ele>1210.6</ele><time>2026-04-18T12:50:42.999Z</time></trkpt><trkpt lat="44.47730559920126" lon="10.164340872273495"><ele>1211.8</ele><time>2026-04-18T12:50:43.999Z</time></trkpt><trkpt lat="44.47732350220303" lon="10.16422084204897"><ele>1213.0</ele><time>2026-04-18T12:50:44.999Z</time></trkpt><trkpt lat="44.477321131137664" lon="10.164097898005284"><ele>1214.2</ele><time>2026-04-18T12:50:45.999Z</time></trkpt><trkpt lat="44.47725429784386" lon="10.163997432850781"><ele>1215.4</ele><time>2026-04-18T12:50:46.999Z</time></trkpt><trkpt lat="44.477147362029356" lon="10.163960483633366"><ele>1216.6000000000001</ele><time>2026-04-18T12:50:47.999Z</time></trkpt><trkpt lat="44.47706116775326" lon="10.164062520533282"><ele>1217.8</ele><time>2026-04-18T12:50:48.999Z</time></trkpt><trkpt lat="44.47699226896934" lon="10.164177772161077"><ele>1219.0</ele><time>2026-04-18T12:50:49.999Z</time></trkpt><trkpt lat="44.47691331377248" lon="10.164294792262439"><ele>1219.0</ele><time>2026-04-18T12:50:50.999Z</time></trkpt><trkpt lat="44.47680235427242" lon="10.164325266007978"><ele>1219.0</ele><time>2026-04-18T12:50:51.999Z</time></trkpt><trkpt lat="44.47671164576149" lon="10.164298130571565"><ele>1219.0</ele><time>2026-04-18T12:50:52.999Z</time></trkpt><trkpt lat="44.47662115255012" lon="10.164239297184197"><ele>1219.0</ele><time>2026-04-18T12:50:53.999Z</time></trkpt><trkpt lat="44.47651856038301" lon="10.164182598609164"><ele>1219.0</ele><time>2026-04-18T12:50:54.999Z</time></trkpt><trkpt lat="44.47642974737847" lon="10.164122722360325"><ele>1219.0</ele><time>2026-04-18T12:50:55.999Z</time></trkpt><trkpt lat="44.4763605929311" lon="10.16405502393402"><ele>1219.0</ele><time>2026-04-18T12:50:56.999Z</time></trkpt><trkpt lat="44.47632128697039" lon="10.163961466230939"><ele>1219.0</ele><time>2026-04-18T12:50:57.999Z</time></trkpt><trkpt lat="44.476308731303284" lon="10.163848523819647"><ele>1219.0</ele><time>2026-04-18T12:50:58.999Z</time></trkpt><trkpt lat="44.47635226518053" lon="10.1637221247494"><ele>1219.0</ele><time>2026-04-18T12:50:59.999Z</time></trkpt><trkpt lat="44.47641051243931" lon="10.16360604002036"><ele>1219.0</ele><time>2026-04-18T12:51:00.999Z</time></trkpt><trkpt lat="44.47653093267669" lon="10.16356405578926"><ele>1221.25</ele><time>2026-04-18T12:51:01.999Z</time></trkpt><trkpt lat="44.47665134642182" lon="10.163508556675577"><ele>1223.5</ele><time>2026-04-18T12:51:02.999Z</time></trkpt><trkpt lat="44.476765469790486" lon="10.163479861631343"><ele>1225.75</ele><time>2026-04-18T12:51:03.999Z</time></trkpt><trkpt lat="44.476866144412526" lon="10.163420319120489"><ele>1228.0</ele><time>2026-04-18T12:51:04.999Z</time></trkpt><trkpt lat="44.47694987384085" lon="10.163306365887808"><ele>1231.5</ele><time>2026-04-18T12:51:05.999Z</time></trkpt><trkpt lat="44.47700848647043" lon="10.163143338342705"><ele>1235.0</ele><time>2026-04-18T12:51:06.999Z</time></trkpt><trkpt lat="44.47702946288468" lon="10.162958051990946"><ele>1238.5</ele><time>2026-04-18T12:51:08Z</time></trkpt><trkpt lat="44.47702693154427" lon="10.16275748837552"><ele>1242.0</ele><time>2026-04-18T12:51:09Z</time></trkpt><trkpt lat="44.47701715387571" lon="10.162578702147464"><ele>1242.0</ele><time>2026-04-18T12:51:10Z</time></trkpt><trkpt lat="44.477019671595635" lon="10.162432885412988"><ele>1242.0</ele><time>2026-04-18T12:51:11Z</time></trkpt><trkpt lat="44.47705015441691" lon="10.162312436770831"><ele>1242.0</ele><time>2026-04-18T12:51:12Z</time></trkpt><trkpt lat="44.477121658852695" lon="10.162205288887675"><ele>1242.0</ele><time>2026-04-18T12:51:13Z</time></trkpt><trkpt lat="44.47723195407575" lon="10.162138234554519"><ele>1242.0</ele><time>2026-04-18T12:51:14Z</time></trkpt><trkpt lat="44.477369049846274" lon="10.162156963702536"><ele>1240.75</ele><time>2026-04-18T12:51:15Z</time></trkpt><trkpt lat="44.47749927109623" lon="10.16227389449751"><ele>1239.5</ele><time>2026-04-18T12:51:16Z</time></trkpt><trkpt lat="44.477635620256294" lon="10.162371134325731"><ele>1238.25</ele><time>2026-04-18T12:51:17Z</time></trkpt><trkpt lat="44.47775228723563" lon="10.16242854106293"><ele>1237.0</ele><time>2026-04-18T12:51:18Z</time></trkpt><trkpt lat="44.47787153473466" lon="10.162444436861149"><ele>1239.6666666666665</ele><time>2026-04-18T12:51:19Z</time></trkpt><trkpt lat="44.47801891208414" lon="10.16242584624184"><ele>1242.3333333333333</ele><time>2026-04-18T12:51:20Z</time></trkpt><trkpt lat="44.47817669907271" lon="10.162390234542903"><ele>1245.0</ele><time>2026-04-18T12:51:21Z</time></trkpt><trkpt lat="44.47832976660605" lon="10.162340541252638"><ele>1249.0</ele><time>2026-04-18T12:51:22Z</time></trkpt><trkpt lat="44.47849172731379" lon="10.162281028584593"><ele>1253.0</ele><time>2026-04-18T12:51:23Z</time></trkpt><trkpt lat="44.478651106360694" lon="10.162244770500537"><ele>1257.0</ele><time>2026-04-18T12:51:24Z</time></trkpt><trkpt lat="44.47881388980874" lon="10.162280809420686"><ele>1255.3333333333333</ele><time>2026-04-18T12:51:25Z</time></trkpt><trkpt lat="44.478985717129504" lon="10.162389736907706"><ele>1253.6666666666665</ele><time>2026-04-18T12:51:26Z</time></trkpt><trkpt lat="44.47915957891265" lon="10.16248702566283"><ele>1252.0</ele><time>2026-04-18T12:51:27Z</time></trkpt><trkpt lat="44.47933293318187" lon="10.162537112784461"><ele>1252.0</ele><time>2026-04-18T12:51:28Z</time></trkpt><trkpt lat="44.479508238853775" lon="10.162526517730907"><ele>1252.0</ele><time>2026-04-18T12:51:29Z</time></trkpt><trkpt lat="44.479682434616784" lon="10.16247824796172"><ele>1252.0</ele><time>2026-04-18T12:51:30Z</time></trkpt><trkpt lat="44.47984737245539" lon="10.162410501277757"><ele>1259.6666666666665</ele><time>2026-04-18T12:51:31Z</time></trkpt><trkpt lat="44.4800000627773" lon="10.162337767594618"><ele>1267.3333333333333</ele><time>2026-04-18T12:51:32Z</time></trkpt><trkpt lat="44.48013869075894" lon="10.162280509681388"><ele>1275.0</ele><time>2026-04-18T12:51:33Z</time></trkpt><trkpt lat="44.48028410472263" lon="10.162285500521875"><ele>1275.0</ele><time>2026-04-18T12:51:34Z</time></trkpt><trkpt lat="44.48042574207709" lon="10.162352636274308"><ele>1275.0</ele><time>2026-04-18T12:51:35Z</time></trkpt><trkpt lat="44.4805337100572" lon="10.16249983942046"><ele>1275.0</ele><time>2026-04-18T12:51:36Z</time></trkpt><trkpt lat="44.48062601417872" lon="10.162684209565137"><ele>1276.0</ele><time>2026-04-18T12:51:37Z</time></trkpt><trkpt lat="44.480713424903854" lon="10.162892936101827"><ele>1277.0</ele><time>2026-04-18T12:51:38Z</time></trkpt><trkpt lat="44.4808140950074" lon="10.163068545462792"><ele>1278.0</ele><time>2026-04-18T12:51:39Z</time></trkpt><trkpt lat="44.480913957700515" lon="10.163210430756163"><ele>1276.6666666666667</ele><time>2026-04-18T12:51:40Z</time></trkpt><trkpt lat="44.481021810262874" lon="10.163322509566353"><ele>1275.3333333333335</ele><time>2026-04-18T12:51:41Z</time></trkpt><trkpt lat="44.48115548396465" lon="10.163418788027732"><ele>1274.0</ele><time>2026-04-18T12:51:42Z</time></trkpt><trkpt lat="44.481312867568256" lon="10.163492114995945"><ele>1274.0</ele><time>2026-04-18T12:51:43Z</time></trkpt><trkpt lat="44.481484114846985" lon="10.16357406026865"><ele>1274.0</ele><time>2026-04-18T12:51:44Z</time></trkpt><trkpt lat="44.48160107814046" lon="10.163737289962507"><ele>1274.0</ele><time>2026-04-18T12:51:45Z</time></trkpt><trkpt lat="44.48169295644621" lon="10.163931860303267"><ele>1271.25</ele><time>2026-04-18T12:51:46Z</time></trkpt><trkpt lat="44.4817883778779" lon="10.164125693394716"><ele>1268.5</ele><time>2026-04-18T12:51:47Z</time></trkpt><trkpt lat="44.481856694623914" lon="10.16430140612851"><ele>1265.75</ele><time>2026-04-18T12:51:48Z</time></trkpt><trkpt lat="44.48193300263774" lon="10.164442200879064"><ele>1263.0</ele><time>2026-04-18T12:51:49Z</time></trkpt><trkpt lat="44.482019689898856" lon="10.164529198922889"><ele>1265.0</ele><time>2026-04-18T12:51:50Z</time></trkpt><trkpt lat="44.48210820485591" lon="10.164552277747624"><ele>1267.0</ele><time>2026-04-18T12:51:51Z</time></trkpt><trkpt lat="44.48219495699676" lon="10.16452443735963"><ele>1269.0</ele><time>2026-04-18T12:51:52Z</time></trkpt><trkpt lat="44.482272227000095" lon="10.164471459788617"><ele>1271.0</ele><time>2026-04-18T12:51:53Z</time></trkpt><trkpt lat="44.482341707513726" lon="10.16440822400684"><ele>1273.0</ele><time>2026-04-18T12:51:54Z</time></trkpt><trkpt lat="44.48243455466391" lon="10.164363287687866"><ele>1275.0</ele><time>2026-04-18T12:51:56Z</time></trkpt><trkpt lat="44.48248761242109" lon="10.164307719783608"><ele>1275.0</ele><time>2026-04-18T12:51:59Z</time></trkpt><trkpt lat="44.48257377708948" lon="10.164259331069543"><ele>1275.0</ele><time>2026-04-18T12:52:02Z</time></trkpt><trkpt lat="44.48264038771225" lon="10.164227236488541"><ele>1275.0</ele><time>2026-04-18T12:52:03Z</time></trkpt><trkpt lat="44.48272257036347" lon="10.164191014209145"><ele>1275.0</ele><time>2026-04-18T12:52:04Z</time></trkpt><trkpt lat="44.482815644019425" lon="10.164148622814755"><ele>1275.0</ele><time>2026-04-18T12:52:05Z</time></trkpt><trkpt lat="44.48291299098289" lon="10.164097742330496"><ele>1273.6</ele><time>2026-04-18T12:52:06Z</time></trkpt><trkpt lat="44.48302084887362" lon="10.164044807887187"><ele>1272.2</ele><time>2026-04-18T12:52:07Z</time></trkpt><trkpt lat="44.483124762139674" lon="10.163997179354917"><ele>1270.8</ele><time>2026-04-18T12:52:08Z</time></trkpt><trkpt lat="44.483227185028575" lon="10.163963668048995"><ele>1269.4</ele><time>2026-04-18T12:52:09Z</time></trkpt><trkpt lat="44.48332171888745" lon="10.163960564233236"><ele>1268.0</ele><time>2026-04-18T12:52:10Z</time></trkpt><trkpt lat="44.483403616812964" lon="10.16400673382795"><ele>1268.0</ele><time>2026-04-18T12:52:11Z</time></trkpt><trkpt lat="44.483468849430764" lon="10.16408364397613"><ele>1268.0</ele><time>2026-04-18T12:52:12Z</time></trkpt><trkpt lat="44.48351502649658" lon="10.164185677129801"><ele>1268.0</ele><time>2026-04-18T12:52:13Z</time></trkpt><trkpt lat="44.48356098115059" lon="10.164304136155168"><ele>1268.0</ele><time>2026-04-18T12:52:14Z</time></trkpt><trkpt lat="44.48361191495967" lon="10.164426320297116"><ele>1268.0</ele><time>2026-04-18T12:52:15Z</time></trkpt><trkpt lat="44.483667583381035" lon="10.164552186070994"><ele>1268.0</ele><time>2026-04-18T12:52:16Z</time></trkpt><trkpt lat="44.483714622307055" lon="10.16467591353852"><ele>1268.0</ele><time>2026-04-18T12:52:17Z</time></trkpt><trkpt lat="44.483753038533386" lon="10.164818239844513"><ele>1268.0</ele><time>2026-04-18T12:52:18Z</time></trkpt><trkpt lat="44.48378971091221" lon="10.164948588994683"><ele>1268.0</ele><time>2026-04-18T12:52:19Z</time></trkpt><trkpt lat="44.48380302177579" lon="10.165096671641555"><ele>1268.0</ele><time>2026-04-18T12:52:19.999Z</time></trkpt><trkpt lat="44.48380373316612" lon="10.165244942595297"><ele>1266.8</ele><time>2026-04-18T12:52:20.999Z</time></trkpt><trkpt lat="44.48381147702459" lon="10.165381865578945"><ele>1265.6</ele><time>2026-04-18T12:52:21.999Z</time></trkpt><trkpt lat="44.483812595067064" lon="10.165519478190973"><ele>1264.4</ele><time>2026-04-18T12:52:22.999Z</time></trkpt><trkpt lat="44.483812524861534" lon="10.165650507141654"><ele>1263.2</ele><time>2026-04-18T12:52:23.999Z</time></trkpt><trkpt lat="44.483796451397964" lon="10.165785868746362"><ele>1262.0</ele><time>2026-04-18T12:52:24.999Z</time></trkpt><trkpt lat="44.48377914753907" lon="10.165925662633601"><ele>1260.2</ele><time>2026-04-18T12:52:25.999Z</time></trkpt><trkpt lat="44.483767490951536" lon="10.166068509254455"><ele>1258.4</ele><time>2026-04-18T12:52:26.999Z</time></trkpt><trkpt lat="44.48379395970091" lon="10.166199429426797"><ele>1256.6</ele><time>2026-04-18T12:52:27.999Z</time></trkpt><trkpt lat="44.48384888128883" lon="10.16630585126499"><ele>1254.8</ele><time>2026-04-18T12:52:28.999Z</time></trkpt><trkpt lat="44.48394786869695" lon="10.166363819838075"><ele>1253.0</ele><time>2026-04-18T12:52:29.999Z</time></trkpt><trkpt lat="44.48405972944235" lon="10.166355888933303"><ele>1253.0</ele><time>2026-04-18T12:52:30.999Z</time></trkpt><trkpt lat="44.48417226371215" lon="10.1662870550826"><ele>1253.0</ele><time>2026-04-18T12:52:31.999Z</time></trkpt><trkpt lat="44.48428604538438" lon="10.16619095780039"><ele>1253.0</ele><time>2026-04-18T12:52:32.999Z</time></trkpt><trkpt lat="44.484415142303696" lon="10.166109263929895"><ele>1253.0</ele><time>2026-04-18T12:52:33.999Z</time></trkpt><trkpt lat="44.484543404132886" lon="10.166051955027344"><ele>1251.25</ele><time>2026-04-18T12:52:34.999Z</time></trkpt><trkpt lat="44.4846734273339" lon="10.16604004618761"><ele>1249.5</ele><time>2026-04-18T12:52:35.999Z</time></trkpt><trkpt lat="44.48480453737536" lon="10.165995704991236"><ele>1247.75</ele><time>2026-04-18T12:52:36.999Z</time></trkpt><trkpt lat="44.48492792978936" lon="10.165959232844923"><ele>1246.0</ele><time>2026-04-18T12:52:37.999Z</time></trkpt><trkpt lat="44.48505533287584" lon="10.165910039510758"><ele>1246.0</ele><time>2026-04-18T12:52:38.999Z</time></trkpt><trkpt lat="44.4851854856717" lon="10.165853102411072"><ele>1246.0</ele><time>2026-04-18T12:52:39.999Z</time></trkpt><trkpt lat="44.48531044615878" lon="10.165787078717957"><ele>1246.0</ele><time>2026-04-18T12:52:40.999Z</time></trkpt><trkpt lat="44.4854300355402" lon="10.165727899341306"><ele>1246.0</ele><time>2026-04-18T12:52:41.999Z</time></trkpt><trkpt lat="44.48554138947201" lon="10.165682575767573"><ele>1247.25</ele><time>2026-04-18T12:52:42.999Z</time></trkpt><trkpt lat="44.48566939646318" lon="10.165678369303226"><ele>1248.5</ele><time>2026-04-18T12:52:43.999Z</time></trkpt><trkpt lat="44.48580226279993" lon="10.165684424009372"><ele>1249.75</ele><time>2026-04-18T12:52:44.999Z</time></trkpt><trkpt lat="44.48593562115026" lon="10.165691333920917"><ele>1251.0</ele><time>2026-04-18T12:52:45.999Z</time></trkpt><trkpt lat="44.48606641271196" lon="10.165729642386097"><ele>1247.0</ele><time>2026-04-18T12:52:46.999Z</time></trkpt><trkpt lat="44.48618767821216" lon="10.16579357913309"><ele>1243.0</ele><time>2026-04-18T12:52:47.999Z</time></trkpt><trkpt lat="44.486288207851274" lon="10.165922942039359"><ele>1239.0</ele><time>2026-04-18T12:52:48.999Z</time></trkpt><trkpt lat="44.486374851675244" lon="10.16606061588753"><ele>1235.0</ele><time>2026-04-18T12:52:49.999Z</time></trkpt><trkpt lat="44.48644670086896" lon="10.166223148993746"><ele>1235.0</ele><time>2026-04-18T12:52:50.999Z</time></trkpt><trkpt lat="44.48652282753196" lon="10.166352533372248"><ele>1235.0</ele><time>2026-04-18T12:52:51.999Z</time></trkpt><trkpt lat="44.486615587307725" lon="10.16647061299627"><ele>1235.0</ele><time>2026-04-18T12:52:52.999Z</time></trkpt><trkpt lat="44.486708142452294" lon="10.166581666759654"><ele>1235.0</ele><time>2026-04-18T12:52:53.999Z</time></trkpt><trkpt lat="44.48681119290166" lon="10.166677357428766"><ele>1231.75</ele><time>2026-04-18T12:52:54.999Z</time></trkpt><trkpt lat="44.48691138794753" lon="10.166764112585215"><ele>1228.5</ele><time>2026-04-18T12:52:55.999Z</time></trkpt><trkpt lat="44.48702457416547" lon="10.166816235800393"><ele>1225.25</ele><time>2026-04-18T12:52:56.999Z</time></trkpt><trkpt lat="44.48714223089241" lon="10.16680702513338"><ele>1222.0</ele><time>2026-04-18T12:52:57.999Z</time></trkpt><trkpt lat="44.48725827301874" lon="10.16676448126957"><ele>1219.5</ele><time>2026-04-18T12:52:58.999Z</time></trkpt><trkpt lat="44.48737429193233" lon="10.166733491256197"><ele>1217.0</ele><time>2026-04-18T12:52:59.999Z</time></trkpt><trkpt lat="44.48749225271264" lon="10.166756465785214"><ele>1214.5</ele><time>2026-04-18T12:53:00.999Z</time></trkpt><trkpt lat="44.48760953471587" lon="10.166767217309127"><ele>1212.0</ele><time>2026-04-18T12:53:01.999Z</time></trkpt><trkpt lat="44.48772912593657" lon="10.166817506892833"><ele>1212.0</ele><time>2026-04-18T12:53:02.999Z</time></trkpt><trkpt lat="44.487847137371816" lon="10.16686520006461"><ele>1212.0</ele><time>2026-04-18T12:53:03.999Z</time></trkpt><trkpt lat="44.487966786408386" lon="10.16692099701799"><ele>1212.0</ele><time>2026-04-18T12:53:04.999Z</time></trkpt><trkpt lat="44.488074800580534" lon="10.167010373370026"><ele>1212.0</ele><time>2026-04-18T12:53:05.999Z</time></trkpt><trkpt lat="44.48816604695486" lon="10.167142629130847"><ele>1213.25</ele><time>2026-04-18T12:53:06.999Z</time></trkpt><trkpt lat="44.488235857107" lon="10.167284706379435"><ele>1214.5</ele><time>2026-04-18T12:53:07.999Z</time></trkpt><trkpt lat="44.48831753074734" lon="10.167432049847626"><ele>1215.75</ele><time>2026-04-18T12:53:08.999Z</time></trkpt><trkpt lat="44.488396071264376" lon="10.167566510955586"><ele>1217.0</ele><time>2026-04-18T12:53:09.999Z</time></trkpt><trkpt lat="44.48847054527547" lon="10.167711561467565"><ele>1212.75</ele><time>2026-04-18T12:53:10.999Z</time></trkpt><trkpt lat="44.4885369003556" lon="10.167876179557048"><ele>1208.5</ele><time>2026-04-18T12:53:11.999Z</time></trkpt><trkpt lat="44.488590410719965" lon="10.168050639786454"><ele>1204.25</ele><time>2026-04-18T12:53:12.999Z</time></trkpt><trkpt lat="44.488661529990225" lon="10.168221740785057"><ele>1200.0</ele><time>2026-04-18T12:53:14Z</time></trkpt><trkpt lat="44.488691359736585" lon="10.168347485851951"><ele>1196.5</ele><time>2026-04-18T12:53:15Z</time></trkpt><trkpt lat="44.48874558839261" lon="10.16849056940868"><ele>1193.0</ele><time>2026-04-18T12:53:16Z</time></trkpt><trkpt lat="44.48879141593151" lon="10.168646006959841"><ele>1189.5</ele><time>2026-04-18T12:53:17Z</time></trkpt><trkpt lat="44.488832048853965" lon="10.168806040247253"><ele>1186.0</ele><time>2026-04-18T12:53:18Z</time></trkpt><trkpt lat="44.488863605487616" lon="10.1689697733036"><ele>1182.75</ele><time>2026-04-18T12:53:19Z</time></trkpt><trkpt lat="44.48887035743433" lon="10.169137456001781"><ele>1179.5</ele><time>2026-04-18T12:53:20Z</time></trkpt><trkpt lat="44.4888483618264" lon="10.16931100521681"><ele>1176.25</ele><time>2026-04-18T12:53:21Z</time></trkpt><trkpt lat="44.488822646261035" lon="10.169479919925365"><ele>1173.0</ele><time>2026-04-18T12:53:22Z</time></trkpt><trkpt lat="44.48881113956573" lon="10.169652751323609"><ele>1173.0</ele><time>2026-04-18T12:53:23Z</time></trkpt><trkpt lat="44.48881497184714" lon="10.16982711199208"><ele>1173.0</ele><time>2026-04-18T12:53:24Z</time></trkpt><trkpt lat="44.48884624549413" lon="10.169999100590069"><ele>1173.0</ele><time>2026-04-18T12:53:25Z</time></trkpt><trkpt lat="44.488903202824105" lon="10.17016261629902"><ele>1173.0</ele><time>2026-04-18T12:53:26Z</time></trkpt><trkpt lat="44.48894834252357" lon="10.170323152881958"><ele>1170.75</ele><time>2026-04-18T12:53:27Z</time></trkpt><trkpt lat="44.48896065108734" lon="10.170498574691152"><ele>1168.5</ele><time>2026-04-18T12:53:28Z</time></trkpt><trkpt lat="44.488949593046186" lon="10.170682631806166"><ele>1166.25</ele><time>2026-04-18T12:53:29Z</time></trkpt><trkpt lat="44.48895364998757" lon="10.170859978873345"><ele>1164.0</ele><time>2026-04-18T12:53:30Z</time></trkpt><trkpt lat="44.48898381486815" lon="10.171036921690142"><ele>1160.5</ele><time>2026-04-18T12:53:31Z</time></trkpt><trkpt lat="44.48905202855647" lon="10.171201551471297"><ele>1157.0</ele><time>2026-04-18T12:53:32Z</time></trkpt><trkpt lat="44.489147071129075" lon="10.171360618087748"><ele>1153.5</ele><time>2026-04-18T12:53:33Z</time></trkpt><trkpt lat="44.48924217879389" lon="10.17149429869329"><ele>1150.0</ele><time>2026-04-18T12:53:34Z</time></trkpt><trkpt lat="44.48932784889803" lon="10.171625843038042"><ele>1148.5</ele><time>2026-04-18T12:53:35Z</time></trkpt><trkpt lat="44.48940139415733" lon="10.17177703932549"><ele>1147.0</ele><time>2026-04-18T12:53:36Z</time></trkpt><trkpt lat="44.48945266271685" lon="10.171941169734124"><ele>1145.5</ele><time>2026-04-18T12:53:37Z</time></trkpt><trkpt lat="44.4894986330845" lon="10.17210979790606"><ele>1144.0</ele><time>2026-04-18T12:53:38Z</time></trkpt><trkpt lat="44.489556243489574" lon="10.172281116705651"><ele>1145.25</ele><time>2026-04-18T12:53:39Z</time></trkpt><trkpt lat="44.48962506933829" lon="10.172438763115252"><ele>1146.5</ele><time>2026-04-18T12:53:40Z</time></trkpt><trkpt lat="44.48969731458125" lon="10.172603916464215"><ele>1147.75</ele><time>2026-04-18T12:53:41Z</time></trkpt><trkpt lat="44.489749988810644" lon="10.172781940384334"><ele>1149.0</ele><time>2026-04-18T12:53:42Z</time></trkpt><trkpt lat="44.48979748689292" lon="10.172955525642438"><ele>1149.0</ele><time>2026-04-18T12:53:43Z</time></trkpt><trkpt lat="44.489847905225915" lon="10.173124980680553"><ele>1149.0</ele><time>2026-04-18T12:53:44Z</time></trkpt><trkpt lat="44.48989364611738" lon="10.173287596326308"><ele>1149.0</ele><time>2026-04-18T12:53:45Z</time></trkpt><trkpt lat="44.48993290515377" lon="10.173457212993597"><ele>1149.0</ele><time>2026-04-18T12:53:46Z</time></trkpt><trkpt lat="44.48999343627433" lon="10.173613171272748"><ele>1147.5</ele><time>2026-04-18T12:53:47Z</time></trkpt><trkpt lat="44.49008801068337" lon="10.173767122731988"><ele>1146.0</ele><time>2026-04-18T12:53:48Z</time></trkpt><trkpt lat="44.490188347671655" lon="10.173922227408854"><ele>1144.5</ele><time>2026-04-18T12:53:49Z</time></trkpt><trkpt lat="44.49028701031274" lon="10.174072529049289"><ele>1143.0</ele><time>2026-04-18T12:53:50Z</time></trkpt><trkpt lat="44.4903880922587" lon="10.174224048090954"><ele>1142.0</ele><time>2026-04-18T12:53:51Z</time></trkpt><trkpt lat="44.49048501845106" lon="10.17437923104315"><ele>1141.0</ele><time>2026-04-18T12:53:52Z</time></trkpt><trkpt lat="44.49057710363552" lon="10.174528651658504"><ele>1140.0</ele><time>2026-04-18T12:53:53Z</time></trkpt><trkpt lat="44.49066632122138" lon="10.174636052695327"><ele>1139.0</ele><time>2026-04-18T12:53:54Z</time></trkpt><trkpt lat="44.49075938370417" lon="10.174683739596775"><ele>1139.0</ele><time>2026-04-18T12:53:55Z</time></trkpt><trkpt lat="44.49086395881687" lon="10.17466710275854"><ele>1139.0</ele><time>2026-04-18T12:53:56Z</time></trkpt><trkpt lat="44.49097376282249" lon="10.174588886630877"><ele>1139.0</ele><time>2026-04-18T12:53:57Z</time></trkpt><trkpt lat="44.49109217587062" lon="10.174465148135678"><ele>1139.0</ele><time>2026-04-18T12:53:58Z</time></trkpt><trkpt lat="44.491218361454976" lon="10.174345694716074"><ele>1134.75</ele><time>2026-04-18T12:53:59Z</time></trkpt><trkpt lat="44.49134552630559" lon="10.174239972762882"><ele>1130.5</ele><time>2026-04-18T12:54:00Z</time></trkpt><trkpt lat="44.491468911078066" lon="10.17414310509635"><ele>1126.25</ele><time>2026-04-18T12:54:01Z</time></trkpt><trkpt lat="44.49159140074144" lon="10.174043927044288"><ele>1122.0</ele><time>2026-04-18T12:54:02Z</time></trkpt><trkpt lat="44.49171493555193" lon="10.17394155833396"><ele>1121.25</ele><time>2026-04-18T12:54:03Z</time></trkpt><trkpt lat="44.49183732057843" lon="10.17384261452959"><ele>1120.5</ele><time>2026-04-18T12:54:04Z</time></trkpt><trkpt lat="44.49195946294049" lon="10.173746848130781"><ele>1119.75</ele><time>2026-04-18T12:54:05Z</time></trkpt><trkpt lat="44.492060127681306" lon="10.173677674625571"><ele>1119.0</ele><time>2026-04-18T12:54:06Z</time></trkpt><trkpt lat="44.49213800883967" lon="10.17360988847757"><ele>1116.8</ele><time>2026-04-18T12:54:07Z</time></trkpt><trkpt lat="44.492191765184344" lon="10.173520712185551"><ele>1114.6000000000001</ele><time>2026-04-18T12:54:08Z</time></trkpt><trkpt lat="44.49219813230329" lon="10.173394605138029"><ele>1112.4</ele><time>2026-04-18T12:54:09Z</time></trkpt><trkpt lat="44.49217364458989" lon="10.17326596637054"><ele>1110.2</ele><time>2026-04-18T12:54:10Z</time></trkpt><trkpt lat="44.49206464706569" lon="10.173183366570145"><ele>1108.0</ele><time>2026-04-18T12:54:11Z</time></trkpt><trkpt lat="44.491949695056775" lon="10.173150827524228"><ele>1108.0</ele><time>2026-04-18T12:54:12Z</time></trkpt><trkpt lat="44.491857849772934" lon="10.173119615936583"><ele>1108.0</ele><time>2026-04-18T12:54:13Z</time></trkpt><trkpt lat="44.491846417906935" lon="10.17300690496249"><ele>1108.0</ele><time>2026-04-18T12:54:14Z</time></trkpt><trkpt lat="44.491849973060596" lon="10.172892318744667"><ele>1108.0</ele><time>2026-04-18T12:54:15Z</time></trkpt><trkpt lat="44.491932137451634" lon="10.172799059178228"><ele>1108.0</ele><time>2026-04-18T12:54:16Z</time></trkpt><trkpt lat="44.49205785436262" lon="10.172794554475457"><ele>1104.25</ele><time>2026-04-18T12:54:17Z</time></trkpt><trkpt lat="44.49217836728222" lon="10.172851182077485"><ele>1100.5</ele><time>2026-04-18T12:54:18Z</time></trkpt><trkpt lat="44.49231438592248" lon="10.172866182282455"><ele>1096.75</ele><time>2026-04-18T12:54:19Z</time></trkpt><trkpt lat="44.49244944772341" lon="10.172905591067192"><ele>1093.0</ele><time>2026-04-18T12:54:20Z</time></trkpt><trkpt lat="44.49259491176076" lon="10.172930662621436"><ele>1093.0</ele><time>2026-04-18T12:54:21Z</time></trkpt><trkpt lat="44.49274853392329" lon="10.172946465832268"><ele>1093.0</ele><time>2026-04-18T12:54:22Z</time></trkpt><trkpt lat="44.49289651154336" lon="10.17295703146585"><ele>1093.0</ele><time>2026-04-18T12:54:22.999Z</time></trkpt><trkpt lat="44.49304971255678" lon="10.172973529724837"><ele>1090.75</ele><time>2026-04-18T12:54:23.999Z</time></trkpt><trkpt lat="44.49319973533995" lon="10.172999061237041"><ele>1088.5</ele><time>2026-04-18T12:54:24.999Z</time></trkpt><trkpt lat="44.49334653065528" lon="10.173018326219244"><ele>1086.25</ele><time>2026-04-18T12:54:25.999Z</time></trkpt><trkpt lat="44.493491665331504" lon="10.173026268516354"><ele>1084.0</ele><time>2026-04-18T12:54:26.999Z</time></trkpt><trkpt lat="44.493630579084595" lon="10.173030071562996"><ele>1081.5</ele><time>2026-04-18T12:54:27.999Z</time></trkpt><trkpt lat="44.49376397543679" lon="10.1730236330419"><ele>1079.0</ele><time>2026-04-18T12:54:28.999Z</time></trkpt><trkpt lat="44.49389550435061" lon="10.173011874458348"><ele>1076.5</ele><time>2026-04-18T12:54:29.999Z</time></trkpt><trkpt lat="44.494025823983634" lon="10.17301030631105"><ele>1074.0</ele><time>2026-04-18T12:54:30.999Z</time></trkpt><trkpt lat="44.49415220092478" lon="10.173016556024374"><ele>1074.0</ele><time>2026-04-18T12:54:31.999Z</time></trkpt><trkpt lat="44.49426913147832" lon="10.17303198961741"><ele>1074.0</ele><time>2026-04-18T12:54:32.999Z</time></trkpt><trkpt lat="44.49438464204576" lon="10.173073305861603"><ele>1074.0</ele><time>2026-04-18T12:54:33.999Z</time></trkpt><trkpt lat="44.494498095128606" lon="10.173150462744175"><ele>1074.0</ele><time>2026-04-18T12:54:34.999Z</time></trkpt><trkpt lat="44.49458224256739" lon="10.173283510591721"><ele>1074.2</ele><time>2026-04-18T12:54:35.999Z</time></trkpt><trkpt lat="44.494663273911684" lon="10.17339151643501"><ele>1074.4</ele><time>2026-04-18T12:54:36.999Z</time></trkpt><trkpt lat="44.49469577413726" lon="10.173517661406223"><ele>1074.6</ele><time>2026-04-18T12:54:37.999Z</time></trkpt><trkpt lat="44.49468630989506" lon="10.173663033774003"><ele>1074.8</ele><time>2026-04-18T12:54:38.999Z</time></trkpt><trkpt lat="44.49464388475756" lon="10.173826460162244"><ele>1075.0</ele><time>2026-04-18T12:54:39.999Z</time></trkpt><trkpt lat="44.49456717175268" lon="10.17399653201685"><ele>1076.75</ele><time>2026-04-18T12:54:40.999Z</time></trkpt><trkpt lat="44.49447422883397" lon="10.174154571987529"><ele>1078.5</ele><time>2026-04-18T12:54:41.999Z</time></trkpt><trkpt lat="44.4943772579856" lon="10.174319655111827"><ele>1080.25</ele><time>2026-04-18T12:54:42.999Z</time></trkpt><trkpt lat="44.494279478078056" lon="10.174477470383811"><ele>1082.0</ele><time>2026-04-18T12:54:43.999Z</time></trkpt><trkpt lat="44.494189901012504" lon="10.174630155360664"><ele>1082.0</ele><time>2026-04-18T12:54:44.999Z</time></trkpt><trkpt lat="44.49411283085824" lon="10.174789150795991"><ele>1082.0</ele><time>2026-04-18T12:54:45.999Z</time></trkpt><trkpt lat="44.49406043248528" lon="10.174961003963551"><ele>1082.0</ele><time>2026-04-18T12:54:46.999Z</time></trkpt><trkpt lat="44.49404876063062" lon="10.175139201043267"><ele>1082.0</ele><time>2026-04-18T12:54:47.999Z</time></trkpt><trkpt lat="44.494065761780426" lon="10.175331671782336"><ele>1078.75</ele><time>2026-04-18T12:54:48.999Z</time></trkpt><trkpt lat="44.49407603538017" lon="10.17550621021105"><ele>1075.5</ele><time>2026-04-18T12:54:49.999Z</time></trkpt><trkpt lat="44.494078428813275" lon="10.175666055748014"><ele>1072.25</ele><time>2026-04-18T12:54:50.999Z</time></trkpt><trkpt lat="44.49406978686973" lon="10.175816070095188"><ele>1069.0</ele><time>2026-04-18T12:54:51.999Z</time></trkpt><trkpt lat="44.494060766680015" lon="10.17596521782076"><ele>1067.5</ele><time>2026-04-18T12:54:52.999Z</time></trkpt><trkpt lat="44.49405265898842" lon="10.176122200073385"><ele>1066.0</ele><time>2026-04-18T12:54:53.999Z</time></trkpt><trkpt lat="44.49403782757309" lon="10.176288915730515"><ele>1064.5</ele><time>2026-04-18T12:54:54.999Z</time></trkpt><trkpt lat="44.49401277214576" lon="10.176457809181777"><ele>1063.0</ele><time>2026-04-18T12:54:55.999Z</time></trkpt><trkpt lat="44.49398302159779" lon="10.17663226725695"><ele>1061.25</ele><time>2026-04-18T12:54:56.999Z</time></trkpt><trkpt lat="44.49395025999523" lon="10.176797255047344"><ele>1059.5</ele><time>2026-04-18T12:54:57.999Z</time></trkpt><trkpt lat="44.49391662840674" lon="10.176961130972606"><ele>1057.75</ele><time>2026-04-18T12:54:58.999Z</time></trkpt><trkpt lat="44.493879865958476" lon="10.177124631494328"><ele>1056.0</ele><time>2026-04-18T12:54:59.999Z</time></trkpt><trkpt lat="44.493845720749924" lon="10.177270685773298"><ele>1056.3333333333333</ele><time>2026-04-18T12:55:00.999Z</time></trkpt><trkpt lat="44.493782613022695" lon="10.177383734698045"><ele>1056.6666666666667</ele><time>2026-04-18T12:55:01.999Z</time></trkpt><trkpt lat="44.493743806260014" lon="10.17750007660838"><ele>1057.0</ele><time>2026-04-18T12:55:02.999Z</time></trkpt><trkpt lat="44.493692370676754" lon="10.177591570341466"><ele>1057.3333333333335</ele><time>2026-04-18T12:55:03.999Z</time></trkpt><trkpt lat="44.49364779570401" lon="10.177686357111968"><ele>1057.6666666666667</ele><time>2026-04-18T12:55:04.999Z</time></trkpt><trkpt lat="44.4936106404568" lon="10.177785476980695"><ele>1058.0</ele><time>2026-04-18T12:55:05.999Z</time></trkpt><trkpt lat="44.493579844642866" lon="10.177875985645697"><ele>1058.0</ele><time>2026-04-18T12:55:06.999Z</time></trkpt><trkpt lat="44.49356647683411" lon="10.177970746089516"><ele>1058.0</ele><time>2026-04-18T12:55:07.999Z</time></trkpt><trkpt lat="44.493574064120104" lon="10.17805946280727"><ele>1058.0</ele><time>2026-04-18T12:55:08.999Z</time></trkpt><trkpt lat="44.49359494050012" lon="10.178146379231006"><ele>1058.0</ele><time>2026-04-18T12:55:09.999Z</time></trkpt><trkpt lat="44.49364011595126" lon="10.1782155859343"><ele>1058.0</ele><time>2026-04-18T12:55:10.999Z</time></trkpt><trkpt lat="44.4936982759457" lon="10.178275349909592"><ele>1058.0</ele><time>2026-04-18T12:55:11.999Z</time></trkpt><trkpt lat="44.4937665038152" lon="10.178325730547417"><ele>1058.0</ele><time>2026-04-18T12:55:12.999Z</time></trkpt><trkpt lat="44.49382672141043" lon="10.17837030609129"><ele>1055.75</ele><time>2026-04-18T12:55:13.999Z</time></trkpt><trkpt lat="44.49395632902686" lon="10.178403731739866"><ele>1053.5</ele><time>2026-04-18T12:55:15.999Z</time></trkpt><trkpt lat="44.494038372886344" lon="10.17838370836114"><ele>1051.25</ele><time>2026-04-18T12:55:16.999Z</time></trkpt><trkpt lat="44.494119705255656" lon="10.178258287929372"><ele>1049.0</ele><time>2026-04-18T12:55:17.999Z</time></trkpt><trkpt lat="44.49420559170517" lon="10.178114266566277"><ele>1049.0</ele><time>2026-04-18T12:55:18.999Z</time></trkpt><trkpt lat="44.49430519100705" lon="10.177972724775122"><ele>1049.0</ele><time>2026-04-18T12:55:20Z</time></trkpt><trkpt lat="44.49440138125402" lon="10.177863953153526"><ele>1049.0</ele><time>2026-04-18T12:55:21Z</time></trkpt><trkpt lat="44.49450416804875" lon="10.17780560843326"><ele>1049.0</ele><time>2026-04-18T12:55:22Z</time></trkpt><trkpt lat="44.49462458499298" lon="10.177815241686874"><ele>1045.25</ele><time>2026-04-18T12:55:23Z</time></trkpt><trkpt lat="44.494737189495645" lon="10.177792904854474"><ele>1041.5</ele><time>2026-04-18T12:55:24Z</time></trkpt><trkpt lat="44.49485186035925" lon="10.177758193654904"><ele>1037.75</ele><time>2026-04-18T12:55:25Z</time></trkpt><trkpt lat="44.494970121357746" lon="10.17767005640103"><ele>1034.0</ele><time>2026-04-18T12:55:26Z</time></trkpt><trkpt lat="44.4950804630399" lon="10.177564378237008"><ele>1034.0</ele><time>2026-04-18T12:55:27Z</time></trkpt><trkpt lat="44.49518730258615" lon="10.177465061846007"><ele>1034.0</ele><time>2026-04-18T12:55:28Z</time></trkpt><trkpt lat="44.495294621782094" lon="10.177349506821427"><ele>1034.0</ele><time>2026-04-18T12:55:29Z</time></trkpt><trkpt lat="44.49538350996211" lon="10.177256321976309"><ele>1034.0</ele><time>2026-04-18T12:55:30Z</time></trkpt><trkpt lat="44.4954733517399" lon="10.177165927648534"><ele>1032.75</ele><time>2026-04-18T12:55:31Z</time></trkpt><trkpt lat="44.495565977884375" lon="10.177086129505877"><ele>1031.5</ele><time>2026-04-18T12:55:32Z</time></trkpt><trkpt lat="44.49566533708347" lon="10.177014074786458"><ele>1030.25</ele><time>2026-04-18T12:55:33Z</time></trkpt><trkpt lat="44.495780871005636" lon="10.17693809176028"><ele>1029.0</ele><time>2026-04-18T12:55:34Z</time></trkpt><trkpt lat="44.49589602139541" lon="10.176869522650032"><ele>1029.0</ele><time>2026-04-18T12:55:35Z</time></trkpt><trkpt lat="44.4960222402759" lon="10.1768012002524"><ele>1029.0</ele><time>2026-04-18T12:55:36Z</time></trkpt><trkpt lat="44.49616538919945" lon="10.17670975120553"><ele>1029.0</ele><time>2026-04-18T12:55:37Z</time></trkpt><trkpt lat="44.49630397787164" lon="10.176639562343356"><ele>1029.0</ele><time>2026-04-18T12:55:38Z</time></trkpt><trkpt lat="44.496434194357" lon="10.176571749333016"><ele>1029.75</ele><time>2026-04-18T12:55:39Z</time></trkpt><trkpt lat="44.49657105236696" lon="10.1765119062803"><ele>1030.5</ele><time>2026-04-18T12:55:40Z</time></trkpt><trkpt lat="44.496724700777804" lon="10.176512209522405"><ele>1031.25</ele><time>2026-04-18T12:55:41Z</time></trkpt><trkpt lat="44.49687686922033" lon="10.176521771809243"><ele>1032.0</ele><time>2026-04-18T12:55:42Z</time></trkpt><trkpt lat="44.49704021518566" lon="10.176547629274648"><ele>1027.0</ele><time>2026-04-18T12:55:43Z</time></trkpt><trkpt lat="44.497191678622634" lon="10.176594476567164"><ele>1022.0</ele><time>2026-04-18T12:55:44Z</time></trkpt><trkpt lat="44.49734018527828" lon="10.176634133444265"><ele>1017.0</ele><time>2026-04-18T12:55:45Z</time></trkpt><trkpt lat="44.49748077385038" lon="10.176671006072786"><ele>1012.0</ele><time>2026-04-18T12:55:46Z</time></trkpt><trkpt lat="44.49762050102407" lon="10.176710748715827"><ele>1012.0</ele><time>2026-04-18T12:55:47Z</time></trkpt><trkpt lat="44.49775286648244" lon="10.176763883885856"><ele>1012.0</ele><time>2026-04-18T12:55:48Z</time></trkpt><trkpt lat="44.49787501675367" lon="10.176848579445204"><ele>1012.0</ele><time>2026-04-18T12:55:49Z</time></trkpt><trkpt lat="44.49798490936832" lon="10.176970435771045"><ele>1012.0</ele><time>2026-04-18T12:55:50Z</time></trkpt><trkpt lat="44.49809236952019" lon="10.177137268094052"><ele>1014.0</ele><time>2026-04-18T12:55:51Z</time></trkpt><trkpt lat="44.49819610022009" lon="10.177303002344017"><ele>1016.0</ele><time>2026-04-18T12:55:52Z</time></trkpt><trkpt lat="44.498312982333324" lon="10.177452962242823"><ele>1018.0</ele><time>2026-04-18T12:55:53Z</time></trkpt><trkpt lat="44.49843195159696" lon="10.177610006572293"><ele>1013.75</ele><time>2026-04-18T12:55:54Z</time></trkpt><trkpt lat="44.498535325464275" lon="10.177765404206188"><ele>1009.5</ele><time>2026-04-18T12:55:55Z</time></trkpt><trkpt lat="44.49861893625526" lon="10.17792889653722"><ele>1005.25</ele><time>2026-04-18T12:55:56Z</time></trkpt><trkpt lat="44.498678956079196" lon="10.178103643602316"><ele>1001.0</ele><time>2026-04-18T12:55:57Z</time></trkpt><trkpt lat="44.49873696337523" lon="10.178282110374992"><ele>999.75</ele><time>2026-04-18T12:55:58Z</time></trkpt><trkpt lat="44.498809737669305" lon="10.178458847934612"><ele>998.5</ele><time>2026-04-18T12:55:59Z</time></trkpt><trkpt lat="44.498897723859194" lon="10.178620385088816"><ele>997.25</ele><time>2026-04-18T12:56:00Z</time></trkpt><trkpt lat="44.49901387724708" lon="10.17873400281166"><ele>996.0</ele><time>2026-04-18T12:56:01Z</time></trkpt><trkpt lat="44.49915298616661" lon="10.178805375782822"><ele>996.0</ele><time>2026-04-18T12:56:02Z</time></trkpt><trkpt lat="44.49930569949011" lon="10.178868384321449"><ele>996.0</ele><time>2026-04-18T12:56:03Z</time></trkpt><trkpt lat="44.49945093743576" lon="10.178927334320473"><ele>996.0</ele><time>2026-04-18T12:56:04Z</time></trkpt><trkpt lat="44.49959604006701" lon="10.178969129481501"><ele>996.5</ele><time>2026-04-18T12:56:05Z</time></trkpt><trkpt lat="44.49974161788635" lon="10.178986346170245"><ele>997.0</ele><time>2026-04-18T12:56:06Z</time></trkpt><trkpt lat="44.49989212359373" lon="10.178963853634714"><ele>997.5</ele><time>2026-04-18T12:56:07Z</time></trkpt><trkpt lat="44.50003968494322" lon="10.178964236791254"><ele>998.0</ele><time>2026-04-18T12:56:08Z</time></trkpt><trkpt lat="44.50016981052232" lon="10.179074921171704"><ele>993.3333333333334</ele><time>2026-04-18T12:56:09Z</time></trkpt><trkpt lat="44.50028885025709" lon="10.179218889081158"><ele>988.6666666666667</ele><time>2026-04-18T12:56:10Z</time></trkpt><trkpt lat="44.500415962670935" lon="10.179370153052295"><ele>984.0</ele><time>2026-04-18T12:56:11Z</time></trkpt><trkpt lat="44.50052068721823" lon="10.17951250079382"><ele>984.0</ele><time>2026-04-18T12:56:12Z</time></trkpt><trkpt lat="44.500595776181584" lon="10.1796508541911"><ele>984.0</ele><time>2026-04-18T12:56:13Z</time></trkpt><trkpt lat="44.50063507297495" lon="10.17983495188299"><ele>984.0</ele><time>2026-04-18T12:56:14Z</time></trkpt><trkpt lat="44.500653197969505" lon="10.180040181186444"><ele>984.0</ele><time>2026-04-18T12:56:15Z</time></trkpt><trkpt lat="44.50068077845646" lon="10.180223801121116"><ele>980.75</ele><time>2026-04-18T12:56:16Z</time></trkpt><trkpt lat="44.500757196493346" lon="10.18037505317876"><ele>977.5</ele><time>2026-04-18T12:56:17Z</time></trkpt><trkpt lat="44.50088544137733" lon="10.180495568591565"><ele>974.25</ele><time>2026-04-18T12:56:18Z</time></trkpt><trkpt lat="44.50102114159361" lon="10.180612279865962"><ele>971.0</ele><time>2026-04-18T12:56:19Z</time></trkpt><trkpt lat="44.50113034318703" lon="10.18069693063701"><ele>971.75</ele><time>2026-04-18T12:56:20Z</time></trkpt><trkpt lat="44.50124840585978" lon="10.180710208572169"><ele>972.5</ele><time>2026-04-18T12:56:21Z</time></trkpt><trkpt lat="44.5013898873696" lon="10.180653706422559"><ele>973.25</ele><time>2026-04-18T12:56:22Z</time></trkpt><trkpt lat="44.501514361781034" lon="10.180665647585933"><ele>974.0</ele><time>2026-04-18T12:56:23Z</time></trkpt><trkpt lat="44.50161360602003" lon="10.180736234468764"><ele>970.25</ele><time>2026-04-18T12:56:24Z</time></trkpt><trkpt lat="44.50167383659711" lon="10.180893911273031"><ele>966.5</ele><time>2026-04-18T12:56:25Z</time></trkpt><trkpt lat="44.50170990318662" lon="10.181076610983142"><ele>962.75</ele><time>2026-04-18T12:56:26Z</time></trkpt><trkpt lat="44.50172530257475" lon="10.181263512642767"><ele>959.0</ele><time>2026-04-18T12:56:27Z</time></trkpt><trkpt lat="44.50172758777628" lon="10.181442087933597"><ele>956.5</ele><time>2026-04-18T12:56:28Z</time></trkpt><trkpt lat="44.501679347959204" lon="10.18160416106574"><ele>954.0</ele><time>2026-04-18T12:56:28.999Z</time></trkpt><trkpt lat="44.50162764738824" lon="10.181757041789048"><ele>951.5</ele><time>2026-04-18T12:56:29.999Z</time></trkpt><trkpt lat="44.5015821388807" lon="10.181903955975809"><ele>949.0</ele><time>2026-04-18T12:56:30.999Z</time></trkpt><trkpt lat="44.501561665924285" lon="10.182061998448829"><ele>949.0</ele><time>2026-04-18T12:56:31.999Z</time></trkpt><trkpt lat="44.50159592923189" lon="10.182228660153628"><ele>949.0</ele><time>2026-04-18T12:56:32.999Z</time></trkpt><trkpt lat="44.50166902594647" lon="10.182386829666601"><ele>949.0</ele><time>2026-04-18T12:56:33.999Z</time></trkpt><trkpt lat="44.50175341419679" lon="10.182506192981066"><ele>949.0</ele><time>2026-04-18T12:56:34.999Z</time></trkpt><trkpt lat="44.501832794787354" lon="10.182574635409548"><ele>947.25</ele><time>2026-04-18T12:56:35.999Z</time></trkpt><trkpt lat="44.50193903634512" lon="10.182590791292188"><ele>945.5</ele><time>2026-04-18T12:56:36.999Z</time></trkpt><trkpt lat="44.5020614129219" lon="10.182524615124793"><ele>943.75</ele><time>2026-04-18T12:56:37.999Z</time></trkpt><trkpt lat="44.50217684281576" lon="10.182411300148662"><ele>942.0</ele><time>2026-04-18T12:56:38.999Z</time></trkpt><trkpt lat="44.50229599061956" lon="10.182293564890747"><ele>942.0</ele><time>2026-04-18T12:56:39.999Z</time></trkpt><trkpt lat="44.502409756079814" lon="10.182185565663278"><ele>942.0</ele><time>2026-04-18T12:56:40.999Z</time></trkpt><trkpt lat="44.50252955077931" lon="10.182114103701247"><ele>942.0</ele><time>2026-04-18T12:56:41.999Z</time></trkpt><trkpt lat="44.502634775347566" lon="10.182031625313924"><ele>942.0</ele><time>2026-04-18T12:56:42.999Z</time></trkpt><trkpt lat="44.50274211345358" lon="10.181955326954066"><ele>942.0</ele><time>2026-04-18T12:56:43.999Z</time></trkpt><trkpt lat="44.50285259354224" lon="10.181903622346308"><ele>942.0</ele><time>2026-04-18T12:56:44.999Z</time></trkpt><trkpt lat="44.50297374889162" lon="10.181861226435565"><ele>942.0</ele><time>2026-04-18T12:56:45.999Z</time></trkpt><trkpt lat="44.50310999454223" lon="10.181879190590644"><ele>942.0</ele><time>2026-04-18T12:56:46.999Z</time></trkpt><trkpt lat="44.50324162680526" lon="10.181890347088066"><ele>938.5</ele><time>2026-04-18T12:56:47.999Z</time></trkpt><trkpt lat="44.50337530669423" lon="10.181889924559256"><ele>935.0</ele><time>2026-04-18T12:56:48.999Z</time></trkpt><trkpt lat="44.50351822461089" lon="10.18189600921304"><ele>931.5</ele><time>2026-04-18T12:56:49.999Z</time></trkpt><trkpt lat="44.503660496076414" lon="10.181920113816266"><ele>928.0</ele><time>2026-04-18T12:56:50.999Z</time></trkpt><trkpt lat="44.50379685825575" lon="10.181960199476395"><ele>926.5</ele><time>2026-04-18T12:56:51.999Z</time></trkpt><trkpt lat="44.50392666155863" lon="10.1819739306684"><ele>925.0</ele><time>2026-04-18T12:56:52.999Z</time></trkpt><trkpt lat="44.504060500387546" lon="10.181947654645137"><ele>923.5</ele><time>2026-04-18T12:56:53.999Z</time></trkpt><trkpt lat="44.50419839048771" lon="10.181870677058106"><ele>922.0</ele><time>2026-04-18T12:56:54.999Z</time></trkpt><trkpt lat="44.50433278712604" lon="10.181799748289366"><ele>922.0</ele><time>2026-04-18T12:56:55.999Z</time></trkpt><trkpt lat="44.50445256349995" lon="10.181746755922033"><ele>922.0</ele><time>2026-04-18T12:56:56.999Z</time></trkpt><trkpt lat="44.50457089816759" lon="10.181767814591835"><ele>922.0</ele><time>2026-04-18T12:56:57.999Z</time></trkpt><trkpt lat="44.50468998799074" lon="10.181825333978939"><ele>922.0</ele><time>2026-04-18T12:56:58.999Z</time></trkpt><trkpt lat="44.504813720107435" lon="10.181907750461987"><ele>921.0</ele><time>2026-04-18T12:56:59.999Z</time></trkpt><trkpt lat="44.50495894287505" lon="10.18194918727364"><ele>920.0</ele><time>2026-04-18T12:57:00.999Z</time></trkpt><trkpt lat="44.505104739406256" lon="10.181958939983353"><ele>919.0</ele><time>2026-04-18T12:57:01.999Z</time></trkpt><trkpt lat="44.50523015042069" lon="10.182004212489314"><ele>918.0</ele><time>2026-04-18T12:57:02.999Z</time></trkpt><trkpt lat="44.50535447364822" lon="10.182082283110589"><ele>921.0</ele><time>2026-04-18T12:57:03.999Z</time></trkpt><trkpt lat="44.50544049146503" lon="10.182275927807101"><ele>924.0</ele><time>2026-04-18T12:57:04.999Z</time></trkpt><trkpt lat="44.50553830523937" lon="10.182457685314214"><ele>927.0</ele><time>2026-04-18T12:57:05.999Z</time></trkpt><trkpt lat="44.50562319749811" lon="10.182627365063777"><ele>919.6666666666667</ele><time>2026-04-18T12:57:06.999Z</time></trkpt><trkpt lat="44.50571978080798" lon="10.18279128180846"><ele>912.3333333333334</ele><time>2026-04-18T12:57:07.999Z</time></trkpt><trkpt lat="44.50582514575048" lon="10.182935808308077"><ele>905.0</ele><time>2026-04-18T12:57:08.999Z</time></trkpt><trkpt lat="44.50594970620722" lon="10.183064983775086"><ele>905.0</ele><time>2026-04-18T12:57:09.999Z</time></trkpt><trkpt lat="44.50607508369917" lon="10.183187623271394"><ele>905.0</ele><time>2026-04-18T12:57:10.999Z</time></trkpt><trkpt lat="44.506174248578176" lon="10.183337139013641"><ele>905.0</ele><time>2026-04-18T12:57:11.999Z</time></trkpt><trkpt lat="44.50625687124201" lon="10.183516069366808"><ele>905.0</ele><time>2026-04-18T12:57:12.999Z</time></trkpt><trkpt lat="44.506340507704934" lon="10.183713099464539"><ele>905.0</ele><time>2026-04-18T12:57:13.999Z</time></trkpt><trkpt lat="44.50642987230402" lon="10.18389931289007"><ele>905.0</ele><time>2026-04-18T12:57:14.999Z</time></trkpt><trkpt lat="44.506526037708845" lon="10.184057376308255"><ele>901.5</ele><time>2026-04-18T12:57:15.999Z</time></trkpt><trkpt lat="44.506632043051766" lon="10.184232438376057"><ele>898.0</ele><time>2026-04-18T12:57:16.999Z</time></trkpt><trkpt lat="44.506695691208535" lon="10.184414838777288"><ele>894.5</ele><time>2026-04-18T12:57:17.999Z</time></trkpt><trkpt lat="44.50673801993726" lon="10.18459049936031"><ele>891.0</ele><time>2026-04-18T12:57:18.999Z</time></trkpt><trkpt lat="44.50674916505805" lon="10.184775454458212"><ele>888.6666666666667</ele><time>2026-04-18T12:57:19.999Z</time></trkpt><trkpt lat="44.506730756429384" lon="10.184982915610055"><ele>886.3333333333334</ele><time>2026-04-18T12:57:20.999Z</time></trkpt><trkpt lat="44.50667049983419" lon="10.185195467456102"><ele>884.0</ele><time>2026-04-18T12:57:21.999Z</time></trkpt><trkpt lat="44.506600346390144" lon="10.185383184118031"><ele>884.0</ele><time>2026-04-18T12:57:22.999Z</time></trkpt><trkpt lat="44.506531119241295" lon="10.185561099759681"><ele>884.0</ele><time>2026-04-18T12:57:23.999Z</time></trkpt><trkpt lat="44.50647467927399" lon="10.185731698828938"><ele>884.0</ele><time>2026-04-18T12:57:24.999Z</time></trkpt><trkpt lat="44.5064439168125" lon="10.185917514870987"><ele>884.0</ele><time>2026-04-18T12:57:26Z</time></trkpt><trkpt lat="44.50644381047676" lon="10.186135047467877"><ele>883.0</ele><time>2026-04-18T12:57:27Z</time></trkpt><trkpt lat="44.50647542721517" lon="10.186368324987908"><ele>882.0</ele><time>2026-04-18T12:57:28Z</time></trkpt><trkpt lat="44.506509415940876" lon="10.1865850146304"><ele>881.0</ele><time>2026-04-18T12:57:29Z</time></trkpt><trkpt lat="44.50653206699238" lon="10.186786324564"><ele>878.3333333333334</ele><time>2026-04-18T12:57:30Z</time></trkpt><trkpt lat="44.5065528955426" lon="10.186989156300923"><ele>875.6666666666667</ele><time>2026-04-18T12:57:31Z</time></trkpt><trkpt lat="44.50657245994317" lon="10.18719787577679"><ele>873.0</ele><time>2026-04-18T12:57:32Z</time></trkpt><trkpt lat="44.50659618224145" lon="10.187411440196179"><ele>872.3333333333333</ele><time>2026-04-18T12:57:33Z</time></trkpt><trkpt lat="44.50661567590939" lon="10.187626019755426"><ele>871.6666666666666</ele><time>2026-04-18T12:57:34Z</time></trkpt><trkpt lat="44.50663436292171" lon="10.187848307244437"><ele>871.0</ele><time>2026-04-18T12:57:35Z</time></trkpt><trkpt lat="44.50665254132634" lon="10.188069387638873"><ele>870.0</ele><time>2026-04-18T12:57:36Z</time></trkpt><trkpt lat="44.5066695889854" lon="10.188274145844991"><ele>869.0</ele><time>2026-04-18T12:57:37Z</time></trkpt><trkpt lat="44.50668737394868" lon="10.188462307565658"><ele>868.0</ele><time>2026-04-18T12:57:38Z</time></trkpt><trkpt lat="44.50670173727731" lon="10.188626584864116"><ele>867.0</ele><time>2026-04-18T12:57:39Z</time></trkpt><trkpt lat="44.50670959999825" lon="10.18876508805903"><ele>867.0</ele><time>2026-04-18T12:57:40Z</time></trkpt><trkpt lat="44.50669997348866" lon="10.18888991261209"><ele>867.0</ele><time>2026-04-18T12:57:41Z</time></trkpt><trkpt lat="44.50669050420735" lon="10.189023812579094"><ele>867.0</ele><time>2026-04-18T12:57:42Z</time></trkpt><trkpt lat="44.5067166797644" lon="10.189151776768394"><ele>867.0</ele><time>2026-04-18T12:57:43Z</time></trkpt><trkpt lat="44.50678155342489" lon="10.189294820812028"><ele>867.0</ele><time>2026-04-18T12:57:44Z</time></trkpt><trkpt lat="44.50685475352122" lon="10.189449213965673"><ele>866.75</ele><time>2026-04-18T12:57:45Z</time></trkpt><trkpt lat="44.50693032802196" lon="10.189599979470835"><ele>866.5</ele><time>2026-04-18T12:57:46Z</time></trkpt><trkpt lat="44.50700966834343" lon="10.189736957503701"><ele>866.25</ele><time>2026-04-18T12:57:47Z</time></trkpt><trkpt lat="44.50709003712165" lon="10.189856605973322"><ele>866.0</ele><time>2026-04-18T12:57:48Z</time></trkpt><trkpt lat="44.50718660405755" lon="10.189952643163165"><ele>866.0</ele><time>2026-04-18T12:57:49Z</time></trkpt><trkpt lat="44.50730812431843" lon="10.19002512945956"><ele>866.0</ele><time>2026-04-18T12:57:50Z</time></trkpt><trkpt lat="44.50744657577277" lon="10.190059858733498"><ele>866.0</ele><time>2026-04-18T12:57:51Z</time></trkpt><trkpt lat="44.50759110468488" lon="10.190070200197225"><ele>866.0</ele><time>2026-04-18T12:57:52Z</time></trkpt><trkpt lat="44.50771902964202" lon="10.19013173530013"><ele>866.0</ele><time>2026-04-18T12:57:53Z</time></trkpt><trkpt lat="44.50783004825309" lon="10.190206479425216"><ele>866.0</ele><time>2026-04-18T12:57:54Z</time></trkpt><trkpt lat="44.507931250533865" lon="10.190285884266242"><ele>866.0</ele><time>2026-04-18T12:57:55Z</time></trkpt><trkpt lat="44.5080127877218" lon="10.190385513868746"><ele>866.0</ele><time>2026-04-18T12:57:56Z</time></trkpt><trkpt lat="44.5080907296671" lon="10.190483123889198"><ele>863.25</ele><time>2026-04-18T12:57:57Z</time></trkpt><trkpt lat="44.508173302244884" lon="10.1905805409069"><ele>860.5</ele><time>2026-04-18T12:57:58Z</time></trkpt><trkpt lat="44.50826427800058" lon="10.190664427358673"><ele>857.75</ele><time>2026-04-18T12:57:59Z</time></trkpt><trkpt lat="44.50836895847288" lon="10.190722162678517"><ele>855.0</ele><time>2026-04-18T12:58:00Z</time></trkpt><trkpt lat="44.50850360914184" lon="10.190786064640042"><ele>855.0</ele><time>2026-04-18T12:58:01Z</time></trkpt><trkpt lat="44.50866088355267" lon="10.190838885337351"><ele>855.0</ele><time>2026-04-18T12:58:02Z</time></trkpt><trkpt lat="44.50883484258112" lon="10.190895253719665"><ele>855.0</ele><time>2026-04-18T12:58:03Z</time></trkpt><trkpt lat="44.50901509689381" lon="10.1909372329527"><ele>856.3333333333333</ele><time>2026-04-18T12:58:04Z</time></trkpt><trkpt lat="44.509187318881374" lon="10.191007035212836"><ele>857.6666666666666</ele><time>2026-04-18T12:58:05Z</time></trkpt><trkpt lat="44.50934862268832" lon="10.191088512547568"><ele>859.0</ele><time>2026-04-18T12:58:06Z</time></trkpt><trkpt lat="44.509498336159744" lon="10.191182847535943"><ele>859.3333333333333</ele><time>2026-04-18T12:58:07Z</time></trkpt><trkpt lat="44.509646398273084" lon="10.191258417819277"><ele>859.6666666666667</ele><time>2026-04-18T12:58:08Z</time></trkpt><trkpt lat="44.50980773573704" lon="10.191297856771197"><ele>860.0</ele><time>2026-04-18T12:58:09Z</time></trkpt><trkpt lat="44.50998195806882" lon="10.19128688650533"><ele>860.0</ele><time>2026-04-18T12:58:10Z</time></trkpt><trkpt lat="44.51015294542286" lon="10.19123526757622"><ele>860.0</ele><time>2026-04-18T12:58:11Z</time></trkpt><trkpt lat="44.510329865587806" lon="10.191188975354228"><ele>860.0</ele><time>2026-04-18T12:58:12Z</time></trkpt><trkpt lat="44.510511362939944" lon="10.191190671971786"><ele>858.0</ele><time>2026-04-18T12:58:13Z</time></trkpt><trkpt lat="44.510674392680734" lon="10.191248005244454"><ele>856.0</ele><time>2026-04-18T12:58:14Z</time></trkpt><trkpt lat="44.51081933127567" lon="10.191329538774465"><ele>854.0</ele><time>2026-04-18T12:58:15Z</time></trkpt><trkpt lat="44.510947342619694" lon="10.191417966123264"><ele>854.0</ele><time>2026-04-18T12:58:16Z</time></trkpt><trkpt lat="44.511067925241846" lon="10.19147498623832"><ele>854.0</ele><time>2026-04-18T12:58:17Z</time></trkpt><trkpt lat="44.511201465094665" lon="10.191471700515173"><ele>854.0</ele><time>2026-04-18T12:58:18Z</time></trkpt><trkpt lat="44.511352008668126" lon="10.191399679784999"><ele>854.0</ele><time>2026-04-18T12:58:19Z</time></trkpt><trkpt lat="44.511491856932" lon="10.191279346539174"><ele>853.25</ele><time>2026-04-18T12:58:20Z</time></trkpt><trkpt lat="44.511613872745016" lon="10.19115461071671"><ele>852.5</ele><time>2026-04-18T12:58:21Z</time></trkpt><trkpt lat="44.5117248423124" lon="10.191049956116855"><ele>851.75</ele><time>2026-04-18T12:58:22Z</time></trkpt><trkpt lat="44.51183702998032" lon="10.190955655112566"><ele>851.0</ele><time>2026-04-18T12:58:23Z</time></trkpt><trkpt lat="44.511961325282606" lon="10.190886563850167"><ele>850.75</ele><time>2026-04-18T12:58:24Z</time></trkpt><trkpt lat="44.51209585485769" lon="10.190874771843239"><ele>850.5</ele><time>2026-04-18T12:58:25Z</time></trkpt><trkpt lat="44.512234368338724" lon="10.190953993160848"><ele>850.25</ele><time>2026-04-18T12:58:26Z</time></trkpt><trkpt lat="44.51233204753568" lon="10.191136751222551"><ele>850.0</ele><time>2026-04-18T12:58:27Z</time></trkpt><trkpt lat="44.51243313993636" lon="10.19131091877168"><ele>850.0</ele><time>2026-04-18T12:58:28Z</time></trkpt><trkpt lat="44.5125170182863" lon="10.191466548367115"><ele>850.0</ele><time>2026-04-18T12:58:29Z</time></trkpt><trkpt lat="44.51264774421398" lon="10.191565284382715"><ele>850.0</ele><time>2026-04-18T12:58:30Z</time></trkpt><trkpt lat="44.51281071003232" lon="10.191631463132051"><ele>847.0</ele><time>2026-04-18T12:58:31Z</time></trkpt><trkpt lat="44.512968459148276" lon="10.191725053139171"><ele>844.0</ele><time>2026-04-18T12:58:32Z</time></trkpt><trkpt lat="44.51310800443549" lon="10.191836475017134"><ele>841.0</ele><time>2026-04-18T12:58:33Z</time></trkpt><trkpt lat="44.51323221373332" lon="10.191919323486289"><ele>841.0</ele><time>2026-04-18T12:58:34Z</time></trkpt><trkpt lat="44.51337546445559" lon="10.191950697316276"><ele>841.0</ele><time>2026-04-18T12:58:34.999Z</time></trkpt><trkpt lat="44.513544770713246" lon="10.191938270636001"><ele>841.0</ele><time>2026-04-18T12:58:35.999Z</time></trkpt><trkpt lat="44.513724399444584" lon="10.191938029377956"><ele>840.5</ele><time>2026-04-18T12:58:36.999Z</time></trkpt><trkpt lat="44.51387073516942" lon="10.1920019278516"><ele>840.0</ele><time>2026-04-18T12:58:37.999Z</time></trkpt><trkpt lat="44.5139995453236" lon="10.192084038826295"><ele>839.5</ele><time>2026-04-18T12:58:38.999Z</time></trkpt><trkpt lat="44.514132497503205" lon="10.192137006461314"><ele>839.0</ele><time>2026-04-18T12:58:39.999Z</time></trkpt><trkpt lat="44.51427066309462" lon="10.192168227152074"><ele>839.0</ele><time>2026-04-18T12:58:40.999Z</time></trkpt><trkpt lat="44.5144125376644" lon="10.19219722561095"><ele>839.0</ele><time>2026-04-18T12:58:41.999Z</time></trkpt><trkpt lat="44.514559428944835" lon="10.192231599627615"><ele>839.0</ele><time>2026-04-18T12:58:42.999Z</time></trkpt><trkpt lat="44.514698493747176" lon="10.192261764086279"><ele>839.0</ele><time>2026-04-18T12:58:43.999Z</time></trkpt><trkpt lat="44.51482861515397" lon="10.192302320193098"><ele>837.2</ele><time>2026-04-18T12:58:44.999Z</time></trkpt><trkpt lat="44.51494807857017" lon="10.192339172954162"><ele>835.4000000000001</ele><time>2026-04-18T12:58:45.999Z</time></trkpt><trkpt lat="44.51505629728442" lon="10.192367849542109"><ele>833.6</ele><time>2026-04-18T12:58:46.999Z</time></trkpt><trkpt lat="44.51515853843392" lon="10.192398087294517"><ele>831.8</ele><time>2026-04-18T12:58:47.999Z</time></trkpt><trkpt lat="44.51526503095137" lon="10.192406456409818"><ele>830.0</ele><time>2026-04-18T12:58:48.999Z</time></trkpt><trkpt lat="44.51539107515166" lon="10.192360650749057"><ele>826.5</ele><time>2026-04-18T12:58:49.999Z</time></trkpt><trkpt lat="44.51552729712754" lon="10.192313596597154"><ele>823.0</ele><time>2026-04-18T12:58:50.999Z</time></trkpt><trkpt lat="44.51566910016047" lon="10.192261752918167"><ele>819.5</ele><time>2026-04-18T12:58:51.999Z</time></trkpt><trkpt lat="44.515812159745614" lon="10.192210763720476"><ele>816.0</ele><time>2026-04-18T12:58:52.999Z</time></trkpt><trkpt lat="44.51595360571313" lon="10.192158821538241"><ele>816.0</ele><time>2026-04-18T12:58:53.999Z</time></trkpt><trkpt lat="44.51609773560848" lon="10.192113094238742"><ele>816.0</ele><time>2026-04-18T12:58:54.999Z</time></trkpt><trkpt lat="44.51623748412928" lon="10.192075165233458"><ele>816.0</ele><time>2026-04-18T12:58:55.999Z</time></trkpt><trkpt lat="44.51636696046883" lon="10.192025568938469"><ele>816.0</ele><time>2026-04-18T12:58:56.999Z</time></trkpt><trkpt lat="44.51648619856926" lon="10.19199042194423"><ele>814.4</ele><time>2026-04-18T12:58:57.999Z</time></trkpt><trkpt lat="44.51659266165265" lon="10.19195691014886"><ele>812.8</ele><time>2026-04-18T12:58:58.999Z</time></trkpt><trkpt lat="44.51668592143402" lon="10.191916654249459"><ele>811.1999999999999</ele><time>2026-04-18T12:58:59.999Z</time></trkpt><trkpt lat="44.516785506283185" lon="10.1918899092693"><ele>809.5999999999999</ele><time>2026-04-18T12:59:00.999Z</time></trkpt><trkpt lat="44.51686820591771" lon="10.191888525751768"><ele>808.0</ele><time>2026-04-18T12:59:01.999Z</time></trkpt><trkpt lat="44.516952197463766" lon="10.191945994842138"><ele>808.0</ele><time>2026-04-18T12:59:02.999Z</time></trkpt><trkpt lat="44.51704089784952" lon="10.192041456519863"><ele>808.0</ele><time>2026-04-18T12:59:03.999Z</time></trkpt><trkpt lat="44.517131135992614" lon="10.192162787574714"><ele>808.0</ele><time>2026-04-18T12:59:04.999Z</time></trkpt><trkpt lat="44.51722874186533" lon="10.192278697370575"><ele>808.0</ele><time>2026-04-18T12:59:05.999Z</time></trkpt><trkpt lat="44.5173282383481" lon="10.192373038580719"><ele>808.25</ele><time>2026-04-18T12:59:06.999Z</time></trkpt><trkpt lat="44.51743591070416" lon="10.192444095896672"><ele>808.5</ele><time>2026-04-18T12:59:07.999Z</time></trkpt><trkpt lat="44.51754198243073" lon="10.192513822961189"><ele>808.75</ele><time>2026-04-18T12:59:08.999Z</time></trkpt><trkpt lat="44.51764328399099" lon="10.19259248426039"><ele>809.0</ele><time>2026-04-18T12:59:09.999Z</time></trkpt><trkpt lat="44.517736464858146" lon="10.192681637688455"><ele>809.0</ele><time>2026-04-18T12:59:10.999Z</time></trkpt><trkpt lat="44.517811935106096" lon="10.192790465332003"><ele>809.0</ele><time>2026-04-18T12:59:11.999Z</time></trkpt><trkpt lat="44.51786302037261" lon="10.192921358420515"><ele>809.0</ele><time>2026-04-18T12:59:12.999Z</time></trkpt><trkpt lat="44.51789299801196" lon="10.193087391130039"><ele>809.0</ele><time>2026-04-18T12:59:13.999Z</time></trkpt><trkpt lat="44.51791297226879" lon="10.193275377078304"><ele>804.25</ele><time>2026-04-18T12:59:14.999Z</time></trkpt><trkpt lat="44.51794241670873" lon="10.193467844231025"><ele>799.5</ele><time>2026-04-18T12:59:15.999Z</time></trkpt><trkpt lat="44.51797302885766" lon="10.193642976303941"><ele>794.75</ele><time>2026-04-18T12:59:16.999Z</time></trkpt><trkpt lat="44.5180074274562" lon="10.193814454418952"><ele>790.0</ele><time>2026-04-18T12:59:17.999Z</time></trkpt><trkpt lat="44.51803675474101" lon="10.193994732419878"><ele>792.25</ele><time>2026-04-18T12:59:18.999Z</time></trkpt><trkpt lat="44.518065462648245" lon="10.194173121356933"><ele>794.5</ele><time>2026-04-18T12:59:19.999Z</time></trkpt><trkpt lat="44.51809408071814" lon="10.194351458375039"><ele>796.75</ele><time>2026-04-18T12:59:20.999Z</time></trkpt><trkpt lat="44.5181326678408" lon="10.194518690763902"><ele>799.0</ele><time>2026-04-18T12:59:21.999Z</time></trkpt><trkpt lat="44.51817994681603" lon="10.194688101872986"><ele>800.5</ele><time>2026-04-18T12:59:22.999Z</time></trkpt><trkpt lat="44.51824663881605" lon="10.194847110373578"><ele>802.0</ele><time>2026-04-18T12:59:23.999Z</time></trkpt><trkpt lat="44.51832348920954" lon="10.19500384642903"><ele>803.5</ele><time>2026-04-18T12:59:24.999Z</time></trkpt><trkpt lat="44.51840656731994" lon="10.195149496716224"><ele>805.0</ele><time>2026-04-18T12:59:25.999Z</time></trkpt><trkpt lat="44.518494796299294" lon="10.195288498697728"><ele>805.0</ele><time>2026-04-18T12:59:26.999Z</time></trkpt><trkpt lat="44.518583956379494" lon="10.195428259335385"><ele>805.0</ele><time>2026-04-18T12:59:27.999Z</time></trkpt><trkpt lat="44.51866738576046" lon="10.195565523885803"><ele>805.0</ele><time>2026-04-18T12:59:28.999Z</time></trkpt><trkpt lat="44.51874466825462" lon="10.195711233689746"><ele>805.0</ele><time>2026-04-18T12:59:29.999Z</time></trkpt><trkpt lat="44.518805120411855" lon="10.195868977950749"><ele>804.75</ele><time>2026-04-18T12:59:30.999Z</time></trkpt><trkpt lat="44.51885186021722" lon="10.196037880452346"><ele>804.5</ele><time>2026-04-18T12:59:32Z</time></trkpt><trkpt lat="44.51890667244776" lon="10.196200837829386"><ele>804.25</ele><time>2026-04-18T12:59:33Z</time></trkpt><trkpt lat="44.518967154095954" lon="10.196358733687205"><ele>804.0</ele><time>2026-04-18T12:59:34Z</time></trkpt><trkpt lat="44.51902257859338" lon="10.19652029147025"><ele>804.0</ele><time>2026-04-18T12:59:35Z</time></trkpt><trkpt lat="44.5190748312527" lon="10.196674807192306"><ele>804.0</ele><time>2026-04-18T12:59:36Z</time></trkpt><trkpt lat="44.5191271498708" lon="10.196827268738618"><ele>804.0</ele><time>2026-04-18T12:59:37Z</time></trkpt><trkpt lat="44.51918023851555" lon="10.19697482851552"><ele>804.0</ele><time>2026-04-18T12:59:38Z</time></trkpt><trkpt lat="44.51923118711492" lon="10.197119992196232"><ele>804.0</ele><time>2026-04-18T12:59:39Z</time></trkpt><trkpt lat="44.51927925565542" lon="10.197268714209342"><ele>804.0</ele><time>2026-04-18T12:59:40Z</time></trkpt><trkpt lat="44.51933147984982" lon="10.19742356182678"><ele>804.0</ele><time>2026-04-18T12:59:41Z</time></trkpt><trkpt lat="44.519392414966845" lon="10.19758803388566"><ele>804.0</ele><time>2026-04-18T12:59:42Z</time></trkpt><trkpt lat="44.51944938211728" lon="10.197755710477406"><ele>803.5</ele><time>2026-04-18T12:59:43Z</time></trkpt><trkpt lat="44.519506106771196" lon="10.197929731372993"><ele>803.0</ele><time>2026-04-18T12:59:44Z</time></trkpt><trkpt lat="44.51955446612558" lon="10.198104295396059"><ele>802.5</ele><time>2026-04-18T12:59:45Z</time></trkpt><trkpt lat="44.51960643541965" lon="10.198276719385513"><ele>802.0</ele><time>2026-04-18T12:59:46Z</time></trkpt><trkpt lat="44.51966169212995" lon="10.198447384138607"><ele>801.5</ele><time>2026-04-18T12:59:47Z</time></trkpt><trkpt lat="44.51971889797966" lon="10.1986137114303"><ele>801.0</ele><time>2026-04-18T12:59:48Z</time></trkpt><trkpt lat="44.519779910580866" lon="10.198772991318503"><ele>800.5</ele><time>2026-04-18T12:59:49Z</time></trkpt><trkpt lat="44.51983341454213" lon="10.198940704227814"><ele>800.0</ele><time>2026-04-18T12:59:50Z</time></trkpt><trkpt lat="44.519889096417224" lon="10.199101687200825"><ele>800.0</ele><time>2026-04-18T12:59:51Z</time></trkpt><trkpt lat="44.519945258400895" lon="10.199256261175561"><ele>800.0</ele><time>2026-04-18T12:59:52Z</time></trkpt><trkpt lat="44.5200107593468" lon="10.199402366935649"><ele>800.0</ele><time>2026-04-18T12:59:53Z</time></trkpt><trkpt lat="44.52010070177596" lon="10.1995197433527"><ele>800.0</ele><time>2026-04-18T12:59:54Z</time></trkpt><trkpt lat="44.520203820971155" lon="10.199622439239032"><ele>800.0</ele><time>2026-04-18T12:59:55Z</time></trkpt><trkpt lat="44.520320449597364" lon="10.199710592188003"><ele>800.0</ele><time>2026-04-18T12:59:56Z</time></trkpt><trkpt lat="44.520441848312856" lon="10.199781641175763"><ele>800.0</ele><time>2026-04-18T12:59:57Z</time></trkpt><trkpt lat="44.52056598607146" lon="10.199842897840536"><ele>800.0</ele><time>2026-04-18T12:59:58Z</time></trkpt><trkpt lat="44.52069037420625" lon="10.199904962450116"><ele>799.75</ele><time>2026-04-18T12:59:59Z</time></trkpt><trkpt lat="44.520822605618775" lon="10.199947205549298"><ele>799.5</ele><time>2026-04-18T13:00:00Z</time></trkpt><trkpt lat="44.52094826260273" lon="10.199997159621706"><ele>799.25</ele><time>2026-04-18T13:00:01Z</time></trkpt><trkpt lat="44.52107032459778" lon="10.200033716851612"><ele>799.0</ele><time>2026-04-18T13:00:02Z</time></trkpt><trkpt lat="44.52119168790567" lon="10.20007915460929"><ele>798.5</ele><time>2026-04-18T13:00:03Z</time></trkpt><trkpt lat="44.5213147627343" lon="10.200100145206113"><ele>798.0</ele><time>2026-04-18T13:00:04Z</time></trkpt><trkpt lat="44.52143998444553" lon="10.20008885633631"><ele>797.5</ele><time>2026-04-18T13:00:05Z</time></trkpt><trkpt lat="44.52157951902389" lon="10.20008732837704"><ele>797.0</ele><time>2026-04-18T13:00:06Z</time></trkpt><trkpt lat="44.521712359464395" lon="10.200078644497259"><ele>797.0</ele><time>2026-04-18T13:00:07Z</time></trkpt><trkpt lat="44.5218504448019" lon="10.200072435107394"><ele>797.0</ele><time>2026-04-18T13:00:08Z</time></trkpt><trkpt lat="44.521985075795826" lon="10.200063116884102"><ele>797.0</ele><time>2026-04-18T13:00:09Z</time></trkpt><trkpt lat="44.52211778760902" lon="10.200052084218193"><ele>797.0</ele><time>2026-04-18T13:00:10Z</time></trkpt><trkpt lat="44.52224201500656" lon="10.200040050454833"><ele>796.75</ele><time>2026-04-18T13:00:11Z</time></trkpt><trkpt lat="44.522369044594015" lon="10.20003406225345"><ele>796.5</ele><time>2026-04-18T13:00:12Z</time></trkpt><trkpt lat="44.52249737571437" lon="10.200033726206202"><ele>796.25</ele><time>2026-04-18T13:00:13Z</time></trkpt><trkpt lat="44.522627058010535" lon="10.200042795228944"><ele>796.0</ele><time>2026-04-18T13:00:14Z</time></trkpt><trkpt lat="44.52274617043626" lon="10.200068320639787"><ele>796.0</ele><time>2026-04-18T13:00:15Z</time></trkpt><trkpt lat="44.52285723328252" lon="10.200128880975369"><ele>796.0</ele><time>2026-04-18T13:00:16Z</time></trkpt><trkpt lat="44.522962977159374" lon="10.200238105536284"><ele>796.0</ele><time>2026-04-18T13:00:17Z</time></trkpt><trkpt lat="44.5230701306341" lon="10.200382727926621"><ele>796.0</ele><time>2026-04-18T13:00:18Z</time></trkpt><trkpt lat="44.52317209557871" lon="10.20051934808379"><ele>796.25</ele><time>2026-04-18T13:00:19Z</time></trkpt><trkpt lat="44.52328490867479" lon="10.200644226920742"><ele>796.5</ele><time>2026-04-18T13:00:20Z</time></trkpt><trkpt lat="44.52340577059136" lon="10.200768442925233"><ele>796.75</ele><time>2026-04-18T13:00:21Z</time></trkpt><trkpt lat="44.52352616628479" lon="10.20087601373762"><ele>797.0</ele><time>2026-04-18T13:00:22Z</time></trkpt><trkpt lat="44.523652841238444" lon="10.200947940901237"><ele>794.0</ele><time>2026-04-18T13:00:23Z</time></trkpt><trkpt lat="44.52378517228719" lon="10.200972680940428"><ele>791.0</ele><time>2026-04-18T13:00:24Z</time></trkpt><trkpt lat="44.52392390316907" lon="10.20095923864268"><ele>788.0</ele><time>2026-04-18T13:00:25Z</time></trkpt><trkpt lat="44.52406467995265" lon="10.200897592907165"><ele>785.0</ele><time>2026-04-18T13:00:26Z</time></trkpt><trkpt lat="44.524202248169864" lon="10.200804559969155"><ele>785.0</ele><time>2026-04-18T13:00:27Z</time></trkpt><trkpt lat="44.52432768418865" lon="10.20068132117397"><ele>785.0</ele><time>2026-04-18T13:00:28Z</time></trkpt><trkpt lat="44.52445296026956" lon="10.200550312509908"><ele>785.0</ele><time>2026-04-18T13:00:29Z</time></trkpt><trkpt lat="44.52457917550101" lon="10.200428674051151"><ele>782.0</ele><time>2026-04-18T13:00:30Z</time></trkpt><trkpt lat="44.52470175329937" lon="10.200311044873155"><ele>779.0</ele><time>2026-04-18T13:00:31Z</time></trkpt><trkpt lat="44.524825127581124" lon="10.200193238150437"><ele>776.0</ele><time>2026-04-18T13:00:32Z</time></trkpt><trkpt lat="44.52494294739597" lon="10.200085221263823"><ele>773.0</ele><time>2026-04-18T13:00:33Z</time></trkpt><trkpt lat="44.52506415609101" lon="10.199986593912852"><ele>773.0</ele><time>2026-04-18T13:00:34Z</time></trkpt><trkpt lat="44.52519774121412" lon="10.19992548800316"><ele>773.0</ele><time>2026-04-18T13:00:35Z</time></trkpt><trkpt lat="44.52535350458996" lon="10.199929762779291"><ele>773.0</ele><time>2026-04-18T13:00:36Z</time></trkpt><trkpt lat="44.525517290935916" lon="10.199965648518779"><ele>771.25</ele><time>2026-04-18T13:00:37Z</time></trkpt><trkpt lat="44.52567082473603" lon="10.200010941659881"><ele>769.5</ele><time>2026-04-18T13:00:38Z</time></trkpt><trkpt lat="44.5258126005335" lon="10.200056070900171"><ele>767.75</ele><time>2026-04-18T13:00:39Z</time></trkpt><trkpt lat="44.525946397446525" lon="10.200090329340359"><ele>766.0</ele><time>2026-04-18T13:00:40Z</time></trkpt><trkpt lat="44.52606128279183" lon="10.200117941248784"><ele>766.0</ele><time>2026-04-18T13:00:40.999Z</time></trkpt><trkpt lat="44.52615509804747" lon="10.20017280253487"><ele>766.0</ele><time>2026-04-18T13:00:41.999Z</time></trkpt><trkpt lat="44.526226882805446" lon="10.200282093849836"><ele>766.0</ele><time>2026-04-18T13:00:42.999Z</time></trkpt><trkpt lat="44.526267012064764" lon="10.200445811846233"><ele>766.0</ele><time>2026-04-18T13:00:43.999Z</time></trkpt><trkpt lat="44.52624328926856" lon="10.200644173213167"><ele>766.75</ele><time>2026-04-18T13:00:44.999Z</time></trkpt><trkpt lat="44.52622449228924" lon="10.200833916581011"><ele>767.5</ele><time>2026-04-18T13:00:45.999Z</time></trkpt><trkpt lat="44.52618775824085" lon="10.201027689655858"><ele>768.25</ele><time>2026-04-18T13:00:46.999Z</time></trkpt><trkpt lat="44.52617211664974" lon="10.201219872250803"><ele>769.0</ele><time>2026-04-18T13:00:47.999Z</time></trkpt><trkpt lat="44.52617764743119" lon="10.201428077615896"><ele>768.0</ele><time>2026-04-18T13:00:48.999Z</time></trkpt><trkpt lat="44.52622185994709" lon="10.201626817755173"><ele>767.0</ele><time>2026-04-18T13:00:49.999Z</time></trkpt><trkpt lat="44.526305515387584" lon="10.201807943805646"><ele>766.0</ele><time>2026-04-18T13:00:50.999Z</time></trkpt><trkpt lat="44.526393025217345" lon="10.201980557487813"><ele>762.0</ele><time>2026-04-18T13:00:51.999Z</time></trkpt><trkpt lat="44.52646017013604" lon="10.202149957687576"><ele>758.0</ele><time>2026-04-18T13:00:52.999Z</time></trkpt><trkpt lat="44.52652569760381" lon="10.20231928534281"><ele>754.0</ele><time>2026-04-18T13:00:53.999Z</time></trkpt><trkpt lat="44.52659181499196" lon="10.20247684826644"><ele>750.0</ele><time>2026-04-18T13:00:54.999Z</time></trkpt><trkpt lat="44.526654625127385" lon="10.202635050499136"><ele>750.0</ele><time>2026-04-18T13:00:55.999Z</time></trkpt><trkpt lat="44.52671839400395" lon="10.202799039696181"><ele>750.0</ele><time>2026-04-18T13:00:56.999Z</time></trkpt><trkpt lat="44.52678384695385" lon="10.202960757995372"><ele>750.0</ele><time>2026-04-18T13:00:57.999Z</time></trkpt><trkpt lat="44.526855321087616" lon="10.203120161869531"><ele>750.0</ele><time>2026-04-18T13:00:58.999Z</time></trkpt><trkpt lat="44.52692510642784" lon="10.203279285547191"><ele>750.25</ele><time>2026-04-18T13:00:59.999Z</time></trkpt><trkpt lat="44.526990477326656" lon="10.203441324593797"><ele>750.5</ele><time>2026-04-18T13:01:00.999Z</time></trkpt><trkpt lat="44.52705473745618" lon="10.203603856668302"><ele>750.75</ele><time>2026-04-18T13:01:01.999Z</time></trkpt><trkpt lat="44.5271241397669" lon="10.203764240445613"><ele>751.0</ele><time>2026-04-18T13:01:02.999Z</time></trkpt><trkpt lat="44.527202879974794" lon="10.203911011846163"><ele>747.75</ele><time>2026-04-18T13:01:03.999Z</time></trkpt><trkpt lat="44.527293643588315" lon="10.204035907658666"><ele>744.5</ele><time>2026-04-18T13:01:04.999Z</time></trkpt><trkpt lat="44.52739591256534" lon="10.20414093850543"><ele>741.25</ele><time>2026-04-18T13:01:05.999Z</time></trkpt><trkpt lat="44.52750336494638" lon="10.204240202404472"><ele>738.0</ele><time>2026-04-18T13:01:06.999Z</time></trkpt><trkpt lat="44.52761623495034" lon="10.204342229765619"><ele>738.0</ele><time>2026-04-18T13:01:07.999Z</time></trkpt><trkpt lat="44.52773292669309" lon="10.204426953305521"><ele>738.0</ele><time>2026-04-18T13:01:08.999Z</time></trkpt><trkpt lat="44.52782824316228" lon="10.20454906986024"><ele>738.0</ele><time>2026-04-18T13:01:09.999Z</time></trkpt><trkpt lat="44.527934112204065" lon="10.204709702293663"><ele>738.0</ele><time>2026-04-18T13:01:10.999Z</time></trkpt><trkpt lat="44.528009198637605" lon="10.204889463761312"><ele>736.75</ele><time>2026-04-18T13:01:11.999Z</time></trkpt><trkpt lat="44.52808390106558" lon="10.205071423163291"><ele>735.5</ele><time>2026-04-18T13:01:12.999Z</time></trkpt><trkpt lat="44.52816650248471" lon="10.205238746193091"><ele>734.25</ele><time>2026-04-18T13:01:13.999Z</time></trkpt><trkpt lat="44.52825099689231" lon="10.205403302964092"><ele>733.0</ele><time>2026-04-18T13:01:14.999Z</time></trkpt><trkpt lat="44.528322163713554" lon="10.205575117337577"><ele>732.25</ele><time>2026-04-18T13:01:15.999Z</time></trkpt><trkpt lat="44.52839901150045" lon="10.20574776426959"><ele>731.5</ele><time>2026-04-18T13:01:16.999Z</time></trkpt><trkpt lat="44.528475542728124" lon="10.205901548155262"><ele>730.75</ele><time>2026-04-18T13:01:17.999Z</time></trkpt><trkpt lat="44.52855264757064" lon="10.206054536464201"><ele>730.0</ele><time>2026-04-18T13:01:18.999Z</time></trkpt><trkpt lat="44.52862617705701" lon="10.206209677412135"><ele>730.0</ele><time>2026-04-18T13:01:19.999Z</time></trkpt><trkpt lat="44.52870478500938" lon="10.206382296600143"><ele>730.0</ele><time>2026-04-18T13:01:20.999Z</time></trkpt><trkpt lat="44.52878888443585" lon="10.206563775563579"><ele>730.0</ele><time>2026-04-18T13:01:21.999Z</time></trkpt><trkpt lat="44.52887486231818" lon="10.206749907192785"><ele>730.6666666666667</ele><time>2026-04-18T13:01:22.999Z</time></trkpt><trkpt lat="44.52895808523456" lon="10.206942917482605"><ele>731.3333333333334</ele><time>2026-04-18T13:01:23.999Z</time></trkpt><trkpt lat="44.52902830506633" lon="10.20713665612023"><ele>732.0</ele><time>2026-04-18T13:01:24.999Z</time></trkpt><trkpt lat="44.529079267552326" lon="10.207346503709314"><ele>732.0</ele><time>2026-04-18T13:01:25.999Z</time></trkpt><trkpt lat="44.52911124920722" lon="10.207554864924008"><ele>732.0</ele><time>2026-04-18T13:01:26.999Z</time></trkpt><trkpt lat="44.52915033262574" lon="10.207758956048826"><ele>732.0</ele><time>2026-04-18T13:01:27.999Z</time></trkpt><trkpt lat="44.529204203043854" lon="10.20795254354271"><ele>732.0</ele><time>2026-04-18T13:01:28.999Z</time></trkpt><trkpt lat="44.52926298651477" lon="10.208126390675082"><ele>732.0</ele><time>2026-04-18T13:01:29.999Z</time></trkpt><trkpt lat="44.52931839121695" lon="10.208289564311807"><ele>732.0</ele><time>2026-04-18T13:01:30.999Z</time></trkpt><trkpt lat="44.5293770195865" lon="10.208440544044317"><ele>732.0</ele><time>2026-04-18T13:01:31.999Z</time></trkpt><trkpt lat="44.52944142150937" lon="10.208586921124063"><ele>731.0</ele><time>2026-04-18T13:01:32.999Z</time></trkpt><trkpt lat="44.5295058246699" lon="10.208734465944401"><ele>730.0</ele><time>2026-04-18T13:01:33.999Z</time></trkpt><trkpt lat="44.52956551907342" lon="10.20887655435711"><ele>729.0</ele><time>2026-04-18T13:01:34.999Z</time></trkpt><trkpt lat="44.52961880372867" lon="10.209022028780343"><ele>728.0</ele><time>2026-04-18T13:01:35.999Z</time></trkpt><trkpt lat="44.52967857616472" lon="10.209184684975217"><ele>728.0</ele><time>2026-04-18T13:01:36.999Z</time></trkpt><trkpt lat="44.52972388048748" lon="10.20935942214824"><ele>728.0</ele><time>2026-04-18T13:01:38Z</time></trkpt><trkpt lat="44.52975121329283" lon="10.209546394053739"><ele>728.0</ele><time>2026-04-18T13:01:39Z</time></trkpt><trkpt lat="44.529775184553934" lon="10.209730513447752"><ele>728.0</ele><time>2026-04-18T13:01:40Z</time></trkpt><trkpt lat="44.5298014962525" lon="10.209911656597653"><ele>726.75</ele><time>2026-04-18T13:01:41Z</time></trkpt><trkpt lat="44.52982698497246" lon="10.210083932350136"><ele>725.5</ele><time>2026-04-18T13:01:42Z</time></trkpt><trkpt lat="44.52985227840106" lon="10.210257219131709"><ele>724.25</ele><time>2026-04-18T13:01:43Z</time></trkpt><trkpt lat="44.529885692298386" lon="10.210441377521793"><ele>723.0</ele><time>2026-04-18T13:01:44Z</time></trkpt><trkpt lat="44.529930740019736" lon="10.210625556007619"><ele>721.0</ele><time>2026-04-18T13:01:45Z</time></trkpt><trkpt lat="44.52999754527363" lon="10.210813951262672"><ele>719.0</ele><time>2026-04-18T13:01:46Z</time></trkpt><trkpt lat="44.53007173656716" lon="10.210996623107569"><ele>717.0</ele><time>2026-04-18T13:01:47Z</time></trkpt><trkpt lat="44.53015379695481" lon="10.211189730629473"><ele>717.0</ele><time>2026-04-18T13:01:48Z</time></trkpt><trkpt lat="44.530229403705874" lon="10.211373006027898"><ele>717.0</ele><time>2026-04-18T13:01:49Z</time></trkpt><trkpt lat="44.53030969749776" lon="10.2115602046978"><ele>717.0</ele><time>2026-04-18T13:01:50Z</time></trkpt><trkpt lat="44.53039578257267" lon="10.21174398015303"><ele>717.3333333333334</ele><time>2026-04-18T13:01:51Z</time></trkpt><trkpt lat="44.5304819326364" lon="10.211908442100453"><ele>717.6666666666667</ele><time>2026-04-18T13:01:52Z</time></trkpt><trkpt lat="44.53058609249758" lon="10.212057076842155"><ele>718.0</ele><time>2026-04-18T13:01:53Z</time></trkpt><trkpt lat="44.53071282217362" lon="10.21219669259934"><ele>715.6666666666667</ele><time>2026-04-18T13:01:54Z</time></trkpt><trkpt lat="44.530845609220385" lon="10.212330582033545"><ele>713.3333333333334</ele><time>2026-04-18T13:01:55Z</time></trkpt><trkpt lat="44.530966427008494" lon="10.212464051160905"><ele>711.0</ele><time>2026-04-18T13:01:56Z</time></trkpt><trkpt lat="44.53107491951512" lon="10.212609829243345"><ele>711.0</ele><time>2026-04-18T13:01:57Z</time></trkpt><trkpt lat="44.53117814362402" lon="10.212761278252216"><ele>711.0</ele><time>2026-04-18T13:01:58Z</time></trkpt><trkpt lat="44.531275128621786" lon="10.212926812072588"><ele>711.0</ele><time>2026-04-18T13:01:59Z</time></trkpt><trkpt lat="44.531363317723" lon="10.213107285557566"><ele>711.6666666666666</ele><time>2026-04-18T13:02:00Z</time></trkpt><trkpt lat="44.53143313724616" lon="10.213297997651866"><ele>712.3333333333333</ele><time>2026-04-18T13:02:01Z</time></trkpt><trkpt lat="44.53147854233507" lon="10.213509594991208"><ele>713.0</ele><time>2026-04-18T13:02:02Z</time></trkpt><trkpt lat="44.53150948130298" lon="10.213726936810165"><ele>713.0</ele><time>2026-04-18T13:02:03Z</time></trkpt><trkpt lat="44.531530666766166" lon="10.213953813177154"><ele>713.0</ele><time>2026-04-18T13:02:04Z</time></trkpt><trkpt lat="44.53153258008212" lon="10.214185942071698"><ele>713.0</ele><time>2026-04-18T13:02:05Z</time></trkpt><trkpt lat="44.531505760822974" lon="10.214399710149678"><ele>711.25</ele><time>2026-04-18T13:02:06Z</time></trkpt><trkpt lat="44.531471755831966" lon="10.214607322499809"><ele>709.5</ele><time>2026-04-18T13:02:07Z</time></trkpt><trkpt lat="44.53144686716078" lon="10.21481256501561"><ele>707.75</ele><time>2026-04-18T13:02:08Z</time></trkpt><trkpt lat="44.53144565107256" lon="10.215014266425658"><ele>706.0</ele><time>2026-04-18T13:02:09Z</time></trkpt><trkpt lat="44.53147633321697" lon="10.215218759214615"><ele>704.3333333333334</ele><time>2026-04-18T13:02:10Z</time></trkpt><trkpt lat="44.53152538026281" lon="10.215425645568493"><ele>702.6666666666666</ele><time>2026-04-18T13:02:11Z</time></trkpt><trkpt lat="44.531601306699045" lon="10.215621447815172"><ele>701.0</ele><time>2026-04-18T13:02:12Z</time></trkpt><trkpt lat="44.53169378643768" lon="10.21579908986343"><ele>698.6666666666666</ele><time>2026-04-18T13:02:13Z</time></trkpt><trkpt lat="44.53175129495075" lon="10.216013513602304"><ele>696.3333333333334</ele><time>2026-04-18T13:02:14Z</time></trkpt><trkpt lat="44.53178718674396" lon="10.216293468450989"><ele>694.0</ele><time>2026-04-18T13:02:15Z</time></trkpt><trkpt lat="44.53180181005183" lon="10.216573579864349"><ele>692.6666666666667</ele><time>2026-04-18T13:02:16Z</time></trkpt><trkpt lat="44.53180532625488" lon="10.21684889434274"><ele>691.3333333333334</ele><time>2026-04-18T13:02:17Z</time></trkpt><trkpt lat="44.53180873237774" lon="10.217128507180607"><ele>690.0</ele><time>2026-04-18T13:02:18Z</time></trkpt><trkpt lat="44.53181794321634" lon="10.21740924813352"><ele>688.3333333333334</ele><time>2026-04-18T13:02:19Z</time></trkpt><trkpt lat="44.53182998840365" lon="10.21769436907739"><ele>686.6666666666667</ele><time>2026-04-18T13:02:20Z</time></trkpt><trkpt lat="44.531835057492" lon="10.217971711133536"><ele>685.0</ele><time>2026-04-18T13:02:21Z</time></trkpt><trkpt lat="44.53183240524332" lon="10.21825977361731"><ele>682.6666666666667</ele><time>2026-04-18T13:02:22Z</time></trkpt><trkpt lat="44.53180946884922" lon="10.218540130123495"><ele>680.3333333333334</ele><time>2026-04-18T13:02:23Z</time></trkpt><trkpt lat="44.53175925449833" lon="10.218810710729125"><ele>678.0</ele><time>2026-04-18T13:02:24Z</time></trkpt><trkpt lat="44.531704486024054" lon="10.219053999717568"><ele>676.6666666666666</ele><time>2026-04-18T13:02:25Z</time></trkpt><trkpt lat="44.531669318409364" lon="10.21925901939306"><ele>675.3333333333333</ele><time>2026-04-18T13:02:26Z</time></trkpt><trkpt lat="44.53167312554014" lon="10.219469261143114"><ele>674.0</ele><time>2026-04-18T13:02:27Z</time></trkpt><trkpt lat="44.531718483910105" lon="10.219713148567994"><ele>672.3333333333333</ele><time>2026-04-18T13:02:28Z</time></trkpt><trkpt lat="44.53178671459423" lon="10.219954022569839"><ele>670.6666666666666</ele><time>2026-04-18T13:02:29Z</time></trkpt><trkpt lat="44.53183370721346" lon="10.22017183633665"><ele>669.0</ele><time>2026-04-18T13:02:30Z</time></trkpt><trkpt lat="44.53185447127458" lon="10.22038559955737"><ele>669.0</ele><time>2026-04-18T13:02:31Z</time></trkpt><trkpt lat="44.53184552240086" lon="10.220591704251966"><ele>669.0</ele><time>2026-04-18T13:02:32Z</time></trkpt><trkpt lat="44.53180157927284" lon="10.220793153418873"><ele>669.0</ele><time>2026-04-18T13:02:33Z</time></trkpt><trkpt lat="44.53172353143064" lon="10.220975619249572"><ele>669.0</ele><time>2026-04-18T13:02:34Z</time></trkpt><trkpt lat="44.53163353810817" lon="10.221132887361613"><ele>668.0</ele><time>2026-04-18T13:02:35Z</time></trkpt><trkpt lat="44.5315763771735" lon="10.221287322559888"><ele>667.0</ele><time>2026-04-18T13:02:36Z</time></trkpt><trkpt lat="44.53155552951616" lon="10.221476333392829"><ele>666.0</ele><time>2026-04-18T13:02:37Z</time></trkpt><trkpt lat="44.53157580920263" lon="10.221700725158687"><ele>665.0</ele><time>2026-04-18T13:02:38Z</time></trkpt><trkpt lat="44.531634360981585" lon="10.22192781979018"><ele>664.6666666666666</ele><time>2026-04-18T13:02:39Z</time></trkpt><trkpt lat="44.53172114660052" lon="10.22215619839592"><ele>664.3333333333334</ele><time>2026-04-18T13:02:40Z</time></trkpt><trkpt lat="44.53182449272524" lon="10.222366005554477"><ele>664.0</ele><time>2026-04-18T13:02:41Z</time></trkpt><trkpt lat="44.53193426381333" lon="10.22255763459554"><ele>665.6666666666667</ele><time>2026-04-18T13:02:42Z</time></trkpt><trkpt lat="44.53204013107042" lon="10.222743714991267"><ele>667.3333333333334</ele><time>2026-04-18T13:02:43Z</time></trkpt><trkpt lat="44.532163421842576" lon="10.222922451241978"><ele>669.0</ele><time>2026-04-18T13:02:44Z</time></trkpt><trkpt lat="44.53228826717166" lon="10.223093609768553"><ele>664.3333333333334</ele><time>2026-04-18T13:02:45Z</time></trkpt><trkpt lat="44.532397935871046" lon="10.22326373879476"><ele>659.6666666666667</ele><time>2026-04-18T13:02:45.999Z</time></trkpt><trkpt lat="44.53250833663862" lon="10.223436911477913"><ele>655.0</ele><time>2026-04-18T13:02:46.999Z</time></trkpt><trkpt lat="44.53261112466434" lon="10.223604726902781"><ele>655.0</ele><time>2026-04-18T13:02:47.999Z</time></trkpt><trkpt lat="44.53271591480856" lon="10.22376025898001"><ele>655.0</ele><time>2026-04-18T13:02:48.999Z</time></trkpt><trkpt lat="44.532822339018324" lon="10.223900263688225"><ele>655.0</ele><time>2026-04-18T13:02:49.999Z</time></trkpt><trkpt lat="44.53293371827679" lon="10.224023142377712"><ele>655.0</ele><time>2026-04-18T13:02:50.999Z</time></trkpt><trkpt lat="44.53305838994607" lon="10.224111008514996"><ele>652.6666666666667</ele><time>2026-04-18T13:02:51.999Z</time></trkpt><trkpt lat="44.53320831900059" lon="10.224137064399276"><ele>650.3333333333334</ele><time>2026-04-18T13:02:52.999Z</time></trkpt><trkpt lat="44.533378052683666" lon="10.22410795053093"><ele>648.0</ele><time>2026-04-18T13:02:53.999Z</time></trkpt><trkpt lat="44.533556336477155" lon="10.2241030657288"><ele>647.6666666666666</ele><time>2026-04-18T13:02:54.999Z</time></trkpt><trkpt lat="44.53372265994928" lon="10.224145411063637"><ele>647.3333333333333</ele><time>2026-04-18T13:02:55.999Z</time></trkpt><trkpt lat="44.53387373081676" lon="10.224236104117637"><ele>647.0</ele><time>2026-04-18T13:02:56.999Z</time></trkpt><trkpt lat="44.53403045157747" lon="10.224307257575672"><ele>647.0</ele><time>2026-04-18T13:02:57.999Z</time></trkpt><trkpt lat="44.53415068680832" lon="10.224432666504036"><ele>647.0</ele><time>2026-04-18T13:02:58.999Z</time></trkpt><trkpt lat="44.53422718576564" lon="10.224608730359078"><ele>647.0</ele><time>2026-04-18T13:02:59.999Z</time></trkpt><trkpt lat="44.53432042700298" lon="10.224791721314405"><ele>647.0</ele><time>2026-04-18T13:03:00.999Z</time></trkpt><trkpt lat="44.53440093464414" lon="10.225011060088061"><ele>647.0</ele><time>2026-04-18T13:03:01.999Z</time></trkpt><trkpt lat="44.53449746806054" lon="10.225222475516578"><ele>647.0</ele><time>2026-04-18T13:03:02.999Z</time></trkpt><trkpt lat="44.53460639562483" lon="10.225407806082044"><ele>647.0</ele><time>2026-04-18T13:03:03.999Z</time></trkpt><trkpt lat="44.53471325888964" lon="10.225586197120148"><ele>647.0</ele><time>2026-04-18T13:03:04.999Z</time></trkpt><trkpt lat="44.53481805492982" lon="10.225760205161071"><ele>647.0</ele><time>2026-04-18T13:03:05.999Z</time></trkpt><trkpt lat="44.53491667897911" lon="10.225920586562982"><ele>644.25</ele><time>2026-04-18T13:03:06.999Z</time></trkpt><trkpt lat="44.53501631182672" lon="10.226079611154537"><ele>641.5</ele><time>2026-04-18T13:03:07.999Z</time></trkpt><trkpt lat="44.535083457776366" lon="10.226213205515156"><ele>638.75</ele><time>2026-04-18T13:03:08.999Z</time></trkpt><trkpt lat="44.53513372376023" lon="10.226327249305655"><ele>636.0</ele><time>2026-04-18T13:03:09.999Z</time></trkpt><trkpt lat="44.53511485337704" lon="10.226454708739183"><ele>636.0</ele><time>2026-04-18T13:03:10.999Z</time></trkpt><trkpt lat="44.53506968287573" lon="10.22656286858186"><ele>636.0</ele><time>2026-04-18T13:03:11.999Z</time></trkpt><trkpt lat="44.53496730103329" lon="10.226571405235886"><ele>636.0</ele><time>2026-04-18T13:03:12.999Z</time></trkpt><trkpt lat="44.53485959904458" lon="10.226549750095938"><ele>636.0</ele><time>2026-04-18T13:03:13.999Z</time></trkpt><trkpt lat="44.53474602421833" lon="10.22641810504119"><ele>636.0</ele><time>2026-04-18T13:03:14.999Z</time></trkpt><trkpt lat="44.53462819505509" lon="10.226282893300255"><ele>632.3333333333334</ele><time>2026-04-18T13:03:15.999Z</time></trkpt><trkpt lat="44.53450245510565" lon="10.226169856327639"><ele>628.6666666666667</ele><time>2026-04-18T13:03:16.999Z</time></trkpt><trkpt lat="44.53438866751888" lon="10.226026172444062"><ele>625.0</ele><time>2026-04-18T13:03:17.999Z</time></trkpt><trkpt lat="44.53426748988952" lon="10.225896132289652"><ele>625.0</ele><time>2026-04-18T13:03:18.999Z</time></trkpt><trkpt lat="44.53414081301548" lon="10.225794556624656"><ele>625.0</ele><time>2026-04-18T13:03:19.999Z</time></trkpt><trkpt lat="44.53401147073736" lon="10.225730510860188"><ele>625.0</ele><time>2026-04-18T13:03:20.999Z</time></trkpt><trkpt lat="44.53385888609912" lon="10.225698411959655"><ele>625.0</ele><time>2026-04-18T13:03:21.999Z</time></trkpt><trkpt lat="44.53369822640767" lon="10.225682845202615"><ele>623.0</ele><time>2026-04-18T13:03:22.999Z</time></trkpt><trkpt lat="44.53352628944515" lon="10.225663982214261"><ele>621.0</ele><time>2026-04-18T13:03:23.999Z</time></trkpt><trkpt lat="44.533361713956175" lon="10.225643026984455"><ele>619.0</ele><time>2026-04-18T13:03:24.999Z</time></trkpt><trkpt lat="44.53319223949334" lon="10.22561968491199"><ele>622.3333333333334</ele><time>2026-04-18T13:03:25.999Z</time></trkpt><trkpt lat="44.5330273715716" lon="10.22559473629672"><ele>625.6666666666666</ele><time>2026-04-18T13:03:26.999Z</time></trkpt><trkpt lat="44.532864310809224" lon="10.22558488584028"><ele>629.0</ele><time>2026-04-18T13:03:27.999Z</time></trkpt><trkpt lat="44.53269633180567" lon="10.225605746311206"><ele>624.0</ele><time>2026-04-18T13:03:28.999Z</time></trkpt><trkpt lat="44.53252664987562" lon="10.225656538891915"><ele>619.0</ele><time>2026-04-18T13:03:29.999Z</time></trkpt><trkpt lat="44.53235929725577" lon="10.225720605622282"><ele>614.0</ele><time>2026-04-18T13:03:30.999Z</time></trkpt><trkpt lat="44.532202089672694" lon="10.22576556390702"><ele>613.75</ele><time>2026-04-18T13:03:31.999Z</time></trkpt><trkpt lat="44.53205579947105" lon="10.22580519410793"><ele>613.5</ele><time>2026-04-18T13:03:32.999Z</time></trkpt><trkpt lat="44.53192231938843" lon="10.225847552392858"><ele>613.25</ele><time>2026-04-18T13:03:33.999Z</time></trkpt><trkpt lat="44.53180444705104" lon="10.225886909904661"><ele>613.0</ele><time>2026-04-18T13:03:34.999Z</time></trkpt><trkpt lat="44.5317144413238" lon="10.22593964136172"><ele>613.0</ele><time>2026-04-18T13:03:35.999Z</time></trkpt><trkpt lat="44.53164895528379" lon="10.226010267592555"><ele>613.0</ele><time>2026-04-18T13:03:36.999Z</time></trkpt><trkpt lat="44.531608253806226" lon="10.226122195370069"><ele>613.0</ele><time>2026-04-18T13:03:37.999Z</time></trkpt><trkpt lat="44.53161004352268" lon="10.226256045409746"><ele>613.0</ele><time>2026-04-18T13:03:38.999Z</time></trkpt><trkpt lat="44.53166205623495" lon="10.2264024423932"><ele>613.0</ele><time>2026-04-18T13:03:39.999Z</time></trkpt><trkpt lat="44.53177097255335" lon="10.22650215357419"><ele>608.6666666666667</ele><time>2026-04-18T13:03:40.999Z</time></trkpt><trkpt lat="44.53191988129417" lon="10.226534815095249"><ele>604.3333333333334</ele><time>2026-04-18T13:03:41.999Z</time></trkpt><trkpt lat="44.53208962172344" lon="10.22653087145604"><ele>600.0</ele><time>2026-04-18T13:03:42.999Z</time></trkpt><trkpt lat="44.53226611525268" lon="10.226557707190203"><ele>600.0</ele><time>2026-04-18T13:03:44Z</time></trkpt><trkpt lat="44.53242833437924" lon="10.226614978540804"><ele>600.0</ele><time>2026-04-18T13:03:45Z</time></trkpt><trkpt lat="44.53258847889458" lon="10.226669547631092"><ele>600.0</ele><time>2026-04-18T13:03:46Z</time></trkpt><trkpt lat="44.53273615014817" lon="10.226719488155537"><ele>602.0</ele><time>2026-04-18T13:03:47Z</time></trkpt><trkpt lat="44.532896863646044" lon="10.226773271163362"><ele>604.0</ele><time>2026-04-18T13:03:48Z</time></trkpt><trkpt lat="44.53304674454126" lon="10.226853875922306"><ele>606.0</ele><time>2026-04-18T13:03:49Z</time></trkpt><trkpt lat="44.53319365865909" lon="10.226941120956472"><ele>606.0</ele><time>2026-04-18T13:03:50Z</time></trkpt><trkpt lat="44.53333794749274" lon="10.227045611873235"><ele>606.0</ele><time>2026-04-18T13:03:51Z</time></trkpt><trkpt lat="44.533462162225895" lon="10.227206431245333"><ele>606.0</ele><time>2026-04-18T13:03:52Z</time></trkpt><trkpt lat="44.53357135917076" lon="10.227382228785721"><ele>605.0</ele><time>2026-04-18T13:03:53Z</time></trkpt><trkpt lat="44.53366884987481" lon="10.227554508354663"><ele>604.0</ele><time>2026-04-18T13:03:54Z</time></trkpt><trkpt lat="44.53375028136902" lon="10.227756793980557"><ele>603.0</ele><time>2026-04-18T13:03:55Z</time></trkpt><trkpt lat="44.533818042147175" lon="10.22796891542493"><ele>598.3333333333334</ele><time>2026-04-18T13:03:56Z</time></trkpt><trkpt lat="44.53387823560361" lon="10.228188576796086"><ele>593.6666666666667</ele><time>2026-04-18T13:03:57Z</time></trkpt><trkpt lat="44.533963890324465" lon="10.228418840822771"><ele>589.0</ele><time>2026-04-18T13:03:58Z</time></trkpt><trkpt lat="44.53406496356987" lon="10.22864239921281"><ele>589.0</ele><time>2026-04-18T13:03:59Z</time></trkpt><trkpt lat="44.53418165970443" lon="10.228865842835381"><ele>589.0</ele><time>2026-04-18T13:04:00Z</time></trkpt><trkpt lat="44.534343011032696" lon="10.22906852048512"><ele>589.0</ele><time>2026-04-18T13:04:02Z</time></trkpt><trkpt lat="44.53452001531521" lon="10.229146250990098"><ele>586.6666666666667</ele><time>2026-04-18T13:04:03Z</time></trkpt><trkpt lat="44.53470991086439" lon="10.229206420727538"><ele>584.3333333333334</ele><time>2026-04-18T13:04:04Z</time></trkpt><trkpt lat="44.534889234952836" lon="10.229287898483737"><ele>582.0</ele><time>2026-04-18T13:04:05Z</time></trkpt><trkpt lat="44.53505170745705" lon="10.2294124158293"><ele>582.0</ele><time>2026-04-18T13:04:06Z</time></trkpt><trkpt lat="44.53519786194185" lon="10.229575863584808"><ele>582.0</ele><time>2026-04-18T13:04:07Z</time></trkpt><trkpt lat="44.535328909275705" lon="10.22974052310526"><ele>582.0</ele><time>2026-04-18T13:04:08Z</time></trkpt><trkpt lat="44.5354608332012" lon="10.229886229482856"><ele>579.75</ele><time>2026-04-18T13:04:09Z</time></trkpt><trkpt lat="44.53558824963716" lon="10.230018044209329"><ele>577.5</ele><time>2026-04-18T13:04:10Z</time></trkpt><trkpt lat="44.5357093491445" lon="10.230136307290337"><ele>575.25</ele><time>2026-04-18T13:04:11Z</time></trkpt><trkpt lat="44.53580754831357" lon="10.230230040467697"><ele>573.0</ele><time>2026-04-18T13:04:12Z</time></trkpt><trkpt lat="44.5358697659522" lon="10.230334021641898"><ele>573.0</ele><time>2026-04-18T13:04:13Z</time></trkpt><trkpt lat="44.53589342079739" lon="10.230422875378565"><ele>573.0</ele><time>2026-04-18T13:04:14Z</time></trkpt><trkpt lat="44.535888229912565" lon="10.230518797776826"><ele>573.0</ele><time>2026-04-18T13:04:15Z</time></trkpt><trkpt lat="44.53585986066818" lon="10.23061832505031"><ele>573.0</ele><time>2026-04-18T13:04:16Z</time></trkpt><trkpt lat="44.53574601716006" lon="10.230636157908776"><ele>573.0</ele><time>2026-04-18T13:04:17Z</time></trkpt><trkpt lat="44.535642106096205" lon="10.230578756117936"><ele>573.0</ele><time>2026-04-18T13:04:18Z</time></trkpt><trkpt lat="44.535526742901816" lon="10.230476280272727"><ele>570.75</ele><time>2026-04-18T13:04:19Z</time></trkpt><trkpt lat="44.53538348119784" lon="10.230378629191296"><ele>568.5</ele><time>2026-04-18T13:04:20Z</time></trkpt><trkpt lat="44.53526226149709" lon="10.230274158381585"><ele>566.25</ele><time>2026-04-18T13:04:21Z</time></trkpt><trkpt lat="44.53514483989836" lon="10.23018242366316"><ele>564.0</ele><time>2026-04-18T13:04:22Z</time></trkpt><trkpt lat="44.53503571085817" lon="10.230076823980264"><ele>564.0</ele><time>2026-04-18T13:04:23Z</time></trkpt><trkpt lat="44.534915178541034" lon="10.230006457415469"><ele>564.0</ele><time>2026-04-18T13:04:24Z</time></trkpt><trkpt lat="44.534787937218944" lon="10.229911713558376"><ele>564.0</ele><time>2026-04-18T13:04:25Z</time></trkpt><trkpt lat="44.53467694568282" lon="10.229843436995957"><ele>564.0</ele><time>2026-04-18T13:04:26Z</time></trkpt><trkpt lat="44.53456587165288" lon="10.229786065826831"><ele>567.25</ele><time>2026-04-18T13:04:27Z</time></trkpt><trkpt lat="44.534454603369554" lon="10.229752592282345"><ele>570.5</ele><time>2026-04-18T13:04:28Z</time></trkpt><trkpt lat="44.53434401605475" lon="10.229735047238375"><ele>573.75</ele><time>2026-04-18T13:04:29Z</time></trkpt><trkpt lat="44.53422803459741" lon="10.229726949557595"><ele>577.0</ele><time>2026-04-18T13:04:30Z</time></trkpt><trkpt lat="44.53411417004134" lon="10.229733178835605"><ele>577.0</ele><time>2026-04-18T13:04:31Z</time></trkpt><trkpt lat="44.5340106055311" lon="10.229742383728691"><ele>577.0</ele><time>2026-04-18T13:04:32Z</time></trkpt><trkpt lat="44.533913512902494" lon="10.229748314079147"><ele>577.0</ele><time>2026-04-18T13:04:33Z</time></trkpt><trkpt lat="44.53382054887604" lon="10.229749428278243"><ele>577.0</ele><time>2026-04-18T13:04:34Z</time></trkpt><trkpt lat="44.533734014143356" lon="10.229753658588594"><ele>577.0</ele><time>2026-04-18T13:04:35Z</time></trkpt><trkpt lat="44.533666207453614" lon="10.22975406363422"><ele>577.0</ele><time>2026-04-18T13:04:36Z</time></trkpt><trkpt lat="44.53357762053022" lon="10.229806419619596"><ele>571.6</ele><time>2026-04-18T13:04:38Z</time></trkpt><trkpt lat="44.533511516121315" lon="10.229863431983269"><ele>566.2</ele><time>2026-04-18T13:04:40Z</time></trkpt><trkpt lat="44.5334513307254" lon="10.22991863659099"><ele>560.8</ele><time>2026-04-18T13:04:43Z</time></trkpt><trkpt lat="44.533453393849975" lon="10.230031087755837"><ele>555.4</ele><time>2026-04-18T13:04:50Z</time></trkpt><trkpt lat="44.53354005898216" lon="10.230123143616051"><ele>550.0</ele><time>2026-04-18T13:04:51Z</time></trkpt><trkpt lat="44.533653924417415" lon="10.23019417142726"><ele>551.6666666666667</ele><time>2026-04-18T13:04:52Z</time></trkpt><trkpt lat="44.53380781421214" lon="10.230306574311108"><ele>553.3333333333334</ele><time>2026-04-18T13:04:52.999Z</time></trkpt><trkpt lat="44.53396042569334" lon="10.230431704833366"><ele>555.0</ele><time>2026-04-18T13:04:53.999Z</time></trkpt><trkpt lat="44.534105296149754" lon="10.230582504333194"><ele>553.6666666666666</ele><time>2026-04-18T13:04:54.999Z</time></trkpt><trkpt lat="44.5342798232575" lon="10.230760021791978"><ele>552.3333333333333</ele><time>2026-04-18T13:04:55.999Z</time></trkpt><trkpt lat="44.534456236500596" lon="10.230945384044984"><ele>551.0</ele><time>2026-04-18T13:04:56.999Z</time></trkpt><trkpt lat="44.53463209059439" lon="10.231137945732677"><ele>551.0</ele><time>2026-04-18T13:04:57.999Z</time></trkpt><trkpt lat="44.5347944872145" lon="10.231351564529312"><ele>551.0</ele><time>2026-04-18T13:04:58.999Z</time></trkpt><trkpt lat="44.534952877368625" lon="10.23160198771068"><ele>543.0</ele><time>2026-04-18T13:04:59.999Z</time></trkpt><trkpt lat="44.53512408174081" lon="10.231876894152833"><ele>535.0</ele><time>2026-04-18T13:05:00.999Z</time></trkpt><trkpt lat="44.53528756485849" lon="10.2321542796457"><ele>535.5</ele><time>2026-04-18T13:05:01.999Z</time></trkpt><trkpt lat="44.535440479416586" lon="10.232410703993901"><ele>536.0</ele><time>2026-04-18T13:05:02.999Z</time></trkpt><trkpt lat="44.535598504209936" lon="10.232653833893504"><ele>536.0</ele><time>2026-04-18T13:05:03.999Z</time></trkpt><trkpt lat="44.53576969193901" lon="10.232865052256717"><ele>536.0</ele><time>2026-04-18T13:05:04.999Z</time></trkpt><trkpt lat="44.53598293525589" lon="10.233059307434502"><ele>532.0</ele><time>2026-04-18T13:05:05.999Z</time></trkpt><trkpt lat="44.536246575993935" lon="10.233274997492718"><ele>528.0</ele><time>2026-04-18T13:05:06.999Z</time></trkpt><trkpt lat="44.53635174067954" lon="10.233337545800314"><ele>524.0</ele><time>2026-04-18T13:05:07.999Z</time></trkpt><trkpt lat="44.536550243921496" lon="10.233414135413284"><ele>524.0</ele><time>2026-04-18T13:05:08.999Z</time></trkpt><trkpt lat="44.5367883415155" lon="10.233439164144471"><ele>524.0</ele><time>2026-04-18T13:05:09.999Z</time></trkpt><trkpt lat="44.537037326443915" lon="10.233452812674452"><ele>522.0</ele><time>2026-04-18T13:05:10.999Z</time></trkpt><trkpt lat="44.537281452991074" lon="10.233480140086547"><ele>520.0</ele><time>2026-04-18T13:05:11.999Z</time></trkpt><trkpt lat="44.537517868973325" lon="10.23351284526336"><ele>520.0</ele><time>2026-04-18T13:05:12.999Z</time></trkpt><trkpt lat="44.53773572008061" lon="10.233532278667546"><ele>520.0</ele><time>2026-04-18T13:05:13.999Z</time></trkpt><trkpt lat="44.53793900776466" lon="10.233530045858839"><ele>520.0</ele><time>2026-04-18T13:05:14.999Z</time></trkpt><trkpt lat="44.53813421208876" lon="10.233541468707914"><ele>519.0</ele><time>2026-04-18T13:05:15.999Z</time></trkpt><trkpt lat="44.5383216174864" lon="10.233549270408492"><ele>518.0</ele><time>2026-04-18T13:05:16.999Z</time></trkpt><trkpt lat="44.53850974843019" lon="10.233510473136226"><ele>517.0</ele><time>2026-04-18T13:05:17.999Z</time></trkpt><trkpt lat="44.538710782396784" lon="10.233391902120397"><ele>510.5</ele><time>2026-04-18T13:05:18.999Z</time></trkpt><trkpt lat="44.53892217768179" lon="10.233254545682984"><ele>504.0</ele><time>2026-04-18T13:05:19.999Z</time></trkpt><trkpt lat="44.53913575566853" lon="10.233199888759886"><ele>504.0</ele><time>2026-04-18T13:05:20.999Z</time></trkpt><trkpt lat="44.539346150143984" lon="10.233248421289844"><ele>504.0</ele><time>2026-04-18T13:05:21.999Z</time></trkpt><trkpt lat="44.539560576503995" lon="10.23335740179095"><ele>504.0</ele><time>2026-04-18T13:05:22.999Z</time></trkpt><trkpt lat="44.53980146588244" lon="10.233483741858002"><ele>502.0</ele><time>2026-04-18T13:05:23.999Z</time></trkpt><trkpt lat="44.54002418965544" lon="10.233585584691703"><ele>500.0</ele><time>2026-04-18T13:05:24.999Z</time></trkpt><trkpt lat="44.54023782220935" lon="10.233672095197766"><ele>500.0</ele><time>2026-04-18T13:05:25.999Z</time></trkpt><trkpt lat="44.540446910521986" lon="10.233733136526896"><ele>500.0</ele><time>2026-04-18T13:05:26.999Z</time></trkpt><trkpt lat="44.54066228897242" lon="10.23376237275179"><ele>500.0</ele><time>2026-04-18T13:05:27.999Z</time></trkpt><trkpt lat="44.54089846593691" lon="10.233740107000202"><ele>500.0</ele><time>2026-04-18T13:05:28.999Z</time></trkpt><trkpt lat="44.541144266154674" lon="10.233675478967868"><ele>500.0</ele><time>2026-04-18T13:05:29.999Z</time></trkpt><trkpt lat="44.54139247334775" lon="10.233591390668076"><ele>497.0</ele><time>2026-04-18T13:05:30.999Z</time></trkpt><trkpt lat="44.541624286580685" lon="10.233495684808485"><ele>494.0</ele><time>2026-04-18T13:05:31.999Z</time></trkpt><trkpt lat="44.541833916612056" lon="10.233413464532203"><ele>494.0</ele><time>2026-04-18T13:05:32.999Z</time></trkpt><trkpt lat="44.54203261218486" lon="10.233331151998014"><ele>494.0</ele><time>2026-04-18T13:05:33.999Z</time></trkpt><trkpt lat="44.54224467278424" lon="10.233280699127334"><ele>494.0</ele><time>2026-04-18T13:05:34.999Z</time></trkpt><trkpt lat="44.54246516594366" lon="10.233288688076494"><ele>493.5</ele><time>2026-04-18T13:05:35.999Z</time></trkpt><trkpt lat="44.542687690634956" lon="10.233358033953605"><ele>493.0</ele><time>2026-04-18T13:05:36.999Z</time></trkpt><trkpt lat="44.542909645449654" lon="10.233491987428321"><ele>493.0</ele><time>2026-04-18T13:05:37.999Z</time></trkpt><trkpt lat="44.543094500459226" lon="10.233713203440166"><ele>493.0</ele><time>2026-04-18T13:05:38.999Z</time></trkpt><trkpt lat="44.543271458010345" lon="10.233968176610421"><ele>491.6666666666667</ele><time>2026-04-18T13:05:39.999Z</time></trkpt><trkpt lat="44.543456727191874" lon="10.234163959956062"><ele>490.33333333333337</ele><time>2026-04-18T13:05:40.999Z</time></trkpt><trkpt lat="44.54361003135902" lon="10.23437908275325"><ele>489.0</ele><time>2026-04-18T13:05:41.999Z</time></trkpt><trkpt lat="44.5437978903974" lon="10.234540429906493"><ele>489.0</ele><time>2026-04-18T13:05:42.999Z</time></trkpt><trkpt lat="44.543982173238305" lon="10.234650381490237"><ele>489.0</ele><time>2026-04-18T13:05:43.999Z</time></trkpt><trkpt lat="44.543983697067894" lon="10.235043574083688"><ele>489.0</ele><time>2026-04-18T13:05:44.999Z</time></trkpt><trkpt lat="44.5441112001861" lon="10.235154764404143"><ele>489.0</ele><time>2026-04-18T13:05:45.999Z</time></trkpt><trkpt lat="44.544544032046275" lon="10.234671012733862"><ele>485.0</ele><time>2026-04-18T13:05:46.999Z</time></trkpt><trkpt lat="44.54472698073926" lon="10.234529469618176"><ele>481.0</ele><time>2026-04-18T13:05:47.999Z</time></trkpt><trkpt lat="44.54489134401008" lon="10.234303954570652"><ele>477.0</ele><time>2026-04-18T13:05:48.999Z</time></trkpt><trkpt lat="44.54504022727978" lon="10.234075249642315"><ele>479.0</ele><time>2026-04-18T13:05:50Z</time></trkpt><trkpt lat="44.54520113879529" lon="10.233911620164276"><ele>481.0</ele><time>2026-04-18T13:05:51Z</time></trkpt><trkpt lat="44.54540681320736" lon="10.23384009239742"><ele>483.0</ele><time>2026-04-18T13:05:52Z</time></trkpt><trkpt lat="44.54562653545735" lon="10.233859585884408"><ele>483.0</ele><time>2026-04-18T13:05:53Z</time></trkpt><trkpt lat="44.5457996507526" lon="10.233888472275655"><ele>483.0</ele><time>2026-04-18T13:05:54Z</time></trkpt><trkpt lat="44.54596159823559" lon="10.23384996988016"><ele>483.0</ele><time>2026-04-18T13:05:55Z</time></trkpt><trkpt lat="44.546128765257485" lon="10.233701980402541"><ele>476.66666666666663</ele><time>2026-04-18T13:05:56Z</time></trkpt><trkpt lat="44.546279940784416" lon="10.233465593939622"><ele>470.3333333333333</ele><time>2026-04-18T13:05:57Z</time></trkpt><trkpt lat="44.54641260111383" lon="10.233255040957483"><ele>464.0</ele><time>2026-04-18T13:05:58Z</time></trkpt><trkpt lat="44.546548628089546" lon="10.233117444230706"><ele>464.0</ele><time>2026-04-18T13:05:59Z</time></trkpt><trkpt lat="44.546714591285664" lon="10.233046940547105"><ele>464.0</ele><time>2026-04-18T13:06:00Z</time></trkpt><trkpt lat="44.54690019635111" lon="10.233047678685713"><ele>464.0</ele><time>2026-04-18T13:06:01Z</time></trkpt><trkpt lat="44.547090021646554" lon="10.233127763516393"><ele>462.3333333333333</ele><time>2026-04-18T13:06:02Z</time></trkpt><trkpt lat="44.54726197689258" lon="10.23327039218842"><ele>460.66666666666663</ele><time>2026-04-18T13:06:03Z</time></trkpt><trkpt lat="44.54741702723961" lon="10.233450898404673"><ele>459.0</ele><time>2026-04-18T13:06:04Z</time></trkpt><trkpt lat="44.54757447941565" lon="10.233637707309699"><ele>459.0</ele><time>2026-04-18T13:06:05Z</time></trkpt><trkpt lat="44.54773436357846" lon="10.233825578054578"><ele>459.0</ele><time>2026-04-18T13:06:06Z</time></trkpt><trkpt lat="44.54787732692641" lon="10.23403722613327"><ele>459.0</ele><time>2026-04-18T13:06:07Z</time></trkpt><trkpt lat="44.54801751826367" lon="10.234239469061245"><ele>454.66666666666663</ele><time>2026-04-18T13:06:08Z</time></trkpt><trkpt lat="44.54816404000046" lon="10.234418132985171"><ele>450.3333333333333</ele><time>2026-04-18T13:06:09Z</time></trkpt><trkpt lat="44.548326291151724" lon="10.234587387913162"><ele>446.0</ele><time>2026-04-18T13:06:10Z</time></trkpt><trkpt lat="44.5485193492514" lon="10.234725023749197"><ele>440.5</ele><time>2026-04-18T13:06:11Z</time></trkpt><trkpt lat="44.548737975082666" lon="10.234813127932055"><ele>435.0</ele><time>2026-04-18T13:06:12Z</time></trkpt><trkpt lat="44.54895986153186" lon="10.234889271299922"><ele>435.0</ele><time>2026-04-18T13:06:13Z</time></trkpt><trkpt lat="44.54917239074137" lon="10.23499719264889"><ele>435.0</ele><time>2026-04-18T13:06:14Z</time></trkpt><trkpt lat="44.54937284531878" lon="10.235168164050416"><ele>435.0</ele><time>2026-04-18T13:06:15Z</time></trkpt><trkpt lat="44.549547750301286" lon="10.235398376549188"><ele>435.0</ele><time>2026-04-18T13:06:16Z</time></trkpt><trkpt lat="44.54970378093573" lon="10.235633479230321"><ele>431.66666666666663</ele><time>2026-04-18T13:06:17Z</time></trkpt><trkpt lat="44.54986440348071" lon="10.235824363679843"><ele>428.3333333333333</ele><time>2026-04-18T13:06:18Z</time></trkpt><trkpt lat="44.55004403108853" lon="10.235991605856148"><ele>425.0</ele><time>2026-04-18T13:06:19Z</time></trkpt><trkpt lat="44.55023697576856" lon="10.23610391386266"><ele>422.66666666666663</ele><time>2026-04-18T13:06:20Z</time></trkpt><trkpt lat="44.550438842062505" lon="10.236183770236718"><ele>420.33333333333337</ele><time>2026-04-18T13:06:21Z</time></trkpt><trkpt lat="44.55065269937343" lon="10.236217405491516"><ele>418.0</ele><time>2026-04-18T13:06:22Z</time></trkpt><trkpt lat="44.55086890690974" lon="10.236207150564244"><ele>418.0</ele><time>2026-04-18T13:06:23Z</time></trkpt><trkpt lat="44.551086702654075" lon="10.23615782281551"><ele>418.0</ele><time>2026-04-18T13:06:24Z</time></trkpt><trkpt lat="44.5513015780281" lon="10.236059545343041"><ele>418.0</ele><time>2026-04-18T13:06:25Z</time></trkpt><trkpt lat="44.55150707779156" lon="10.23591024481985"><ele>416.0</ele><time>2026-04-18T13:06:26Z</time></trkpt><trkpt lat="44.551702869610146" lon="10.23571739993366"><ele>414.0</ele><time>2026-04-18T13:06:27Z</time></trkpt><trkpt lat="44.551892451610684" lon="10.235513056896831"><ele>408.0</ele><time>2026-04-18T13:06:28Z</time></trkpt><trkpt lat="44.55208183155809" lon="10.235327596797667"><ele>402.0</ele><time>2026-04-18T13:06:29Z</time></trkpt><trkpt lat="44.55223987382335" lon="10.235108024418746"><ele>402.0</ele><time>2026-04-18T13:06:30Z</time></trkpt><trkpt lat="44.552370614186536" lon="10.234850586524187"><ele>402.0</ele><time>2026-04-18T13:06:31Z</time></trkpt><trkpt lat="44.55245968395499" lon="10.234554704392071"><ele>401.5</ele><time>2026-04-18T13:06:32Z</time></trkpt><trkpt lat="44.55250289556176" lon="10.234234916797915"><ele>401.0</ele><time>2026-04-18T13:06:33Z</time></trkpt><trkpt lat="44.55250486697496" lon="10.233892957978444"><ele>400.66666666666663</ele><time>2026-04-18T13:06:34Z</time></trkpt><trkpt lat="44.55248336204544" lon="10.233594191236023"><ele>400.33333333333337</ele><time>2026-04-18T13:06:35Z</time></trkpt><trkpt lat="44.5524806765859" lon="10.23330120066327"><ele>400.0</ele><time>2026-04-18T13:06:36Z</time></trkpt><trkpt lat="44.55250571745853" lon="10.233010575480808"><ele>400.0</ele><time>2026-04-18T13:06:37Z</time></trkpt><trkpt lat="44.55257164315975" lon="10.232717075385901"><ele>400.0</ele><time>2026-04-18T13:06:38Z</time></trkpt><trkpt lat="44.552688808336704" lon="10.232439057424832"><ele>400.0</ele><time>2026-04-18T13:06:39Z</time></trkpt><trkpt lat="44.552852717637286" lon="10.23221844229845"><ele>397.33333333333337</ele><time>2026-04-18T13:06:40Z</time></trkpt><trkpt lat="44.55303575316066" lon="10.232049601624881"><ele>394.66666666666663</ele><time>2026-04-18T13:06:41Z</time></trkpt><trkpt lat="44.5532359151862" lon="10.23193308840173"><ele>392.0</ele><time>2026-04-18T13:06:42Z</time></trkpt><trkpt lat="44.55346375967647" lon="10.231853005286005"><ele>392.0</ele><time>2026-04-18T13:06:43Z</time></trkpt><trkpt lat="44.55369473268324" lon="10.231780492692963"><ele>392.0</ele><time>2026-04-18T13:06:44Z</time></trkpt><trkpt lat="44.55393399917253" lon="10.231702507232924"><ele>389.0</ele><time>2026-04-18T13:06:45Z</time></trkpt><trkpt lat="44.55417467294386" lon="10.231620610210651"><ele>386.0</ele><time>2026-04-18T13:06:46Z</time></trkpt><trkpt lat="44.554413293407904" lon="10.231535287562899"><ele>385.0</ele><time>2026-04-18T13:06:47Z</time></trkpt><trkpt lat="44.55465247639685" lon="10.231444617992873"><ele>384.0</ele><time>2026-04-18T13:06:48Z</time></trkpt><trkpt lat="44.55487854967578" lon="10.231350533607158"><ele>384.0</ele><time>2026-04-18T13:06:49Z</time></trkpt><trkpt lat="44.55509417350163" lon="10.231258581831947"><ele>384.0</ele><time>2026-04-18T13:06:50Z</time></trkpt><trkpt lat="44.555298453503816" lon="10.231177663997215"><ele>384.0</ele><time>2026-04-18T13:06:51Z</time></trkpt><trkpt lat="44.555515753437604" lon="10.231114921146665"><ele>381.6666666666667</ele><time>2026-04-18T13:06:52Z</time></trkpt><trkpt lat="44.555731595692514" lon="10.231139726664603"><ele>379.33333333333337</ele><time>2026-04-18T13:06:53Z</time></trkpt><trkpt lat="44.55593281073803" lon="10.231218545047255"><ele>377.0</ele><time>2026-04-18T13:06:54Z</time></trkpt><trkpt lat="44.55612454834331" lon="10.2312968702605"><ele>376.0</ele><time>2026-04-18T13:06:55Z</time></trkpt><trkpt lat="44.55629912610411" lon="10.231339261908053"><ele>375.0</ele><time>2026-04-18T13:06:56Z</time></trkpt><trkpt lat="44.55648084492214" lon="10.231302242222064"><ele>374.0</ele><time>2026-04-18T13:06:57Z</time></trkpt><trkpt lat="44.556681370866" lon="10.231221296567021"><ele>374.0</ele><time>2026-04-18T13:06:57.999Z</time></trkpt><trkpt lat="44.5568736739221" lon="10.231124545457009"><ele>374.0</ele><time>2026-04-18T13:06:58.999Z</time></trkpt><trkpt lat="44.55704532569757" lon="10.23103326726592"><ele>374.0</ele><time>2026-04-18T13:06:59.999Z</time></trkpt><trkpt lat="44.55723836451766" lon="10.230921919608363"><ele>372.33333333333337</ele><time>2026-04-18T13:07:00.999Z</time></trkpt><trkpt lat="44.557422687903966" lon="10.230844526107443"><ele>370.6666666666667</ele><time>2026-04-18T13:07:01.999Z</time></trkpt><trkpt lat="44.557588631565054" lon="10.230759464165974"><ele>369.0</ele><time>2026-04-18T13:07:02.999Z</time></trkpt><trkpt lat="44.55773514435351" lon="10.230684340139138"><ele>369.0</ele><time>2026-04-18T13:07:03.999Z</time></trkpt><trkpt lat="44.5578725912609" lon="10.230605088850101"><ele>369.0</ele><time>2026-04-18T13:07:04.999Z</time></trkpt><trkpt lat="44.55801026560596" lon="10.230524966166119"><ele>369.0</ele><time>2026-04-18T13:07:05.999Z</time></trkpt><trkpt lat="44.55813070905896" lon="10.230387208243544"><ele>369.0</ele><time>2026-04-18T13:07:06.999Z</time></trkpt><trkpt lat="44.558237919250274" lon="10.230199859472108"><ele>369.0</ele><time>2026-04-18T13:07:07.999Z</time></trkpt><trkpt lat="44.55835483354022" lon="10.230007110649671"><ele>369.0</ele><time>2026-04-18T13:07:08.999Z</time></trkpt><trkpt lat="44.55846663495992" lon="10.229847500456888"><ele>366.6666666666667</ele><time>2026-04-18T13:07:09.999Z</time></trkpt><trkpt lat="44.55859355342461" lon="10.229698994114235"><ele>364.33333333333337</ele><time>2026-04-18T13:07:10.999Z</time></trkpt><trkpt lat="44.55874108359484" lon="10.229572762829612"><ele>362.0</ele><time>2026-04-18T13:07:11.999Z</time></trkpt><trkpt lat="44.55891445959917" lon="10.22951323300383"><ele>362.0</ele><time>2026-04-18T13:07:12.999Z</time></trkpt><trkpt lat="44.55909110990296" lon="10.229441418660922"><ele>362.0</ele><time>2026-04-18T13:07:13.999Z</time></trkpt><trkpt lat="44.55927131587899" lon="10.229446413416243"><ele>362.0</ele><time>2026-04-18T13:07:14.999Z</time></trkpt><trkpt lat="44.559460348563015" lon="10.229491404322587"><ele>361.33333333333337</ele><time>2026-04-18T13:07:15.999Z</time></trkpt><trkpt lat="44.55962592055022" lon="10.229569019242472"><ele>360.6666666666667</ele><time>2026-04-18T13:07:16.999Z</time></trkpt><trkpt lat="44.55977876876082" lon="10.22964128137253"><ele>360.0</ele><time>2026-04-18T13:07:17.999Z</time></trkpt><trkpt lat="44.5599234346609" lon="10.229672270317051"><ele>360.0</ele><time>2026-04-18T13:07:18.999Z</time></trkpt><trkpt lat="44.560071926672805" lon="10.229663938143451"><ele>360.0</ele><time>2026-04-18T13:07:19.999Z</time></trkpt><trkpt lat="44.56020852107163" lon="10.22962307008964"><ele>360.0</ele><time>2026-04-18T13:07:20.999Z</time></trkpt><trkpt lat="44.560335347460324" lon="10.22956351866981"><ele>360.0</ele><time>2026-04-18T13:07:21.999Z</time></trkpt><trkpt lat="44.560453042850405" lon="10.229504205900382"><ele>357.5</ele><time>2026-04-18T13:07:22.999Z</time></trkpt><trkpt lat="44.56057043794549" lon="10.229434402274952"><ele>355.0</ele><time>2026-04-18T13:07:23.999Z</time></trkpt><trkpt lat="44.56068739905104" lon="10.22935252702606"><ele>352.5</ele><time>2026-04-18T13:07:24.999Z</time></trkpt><trkpt lat="44.56080764058821" lon="10.229271419333525"><ele>350.0</ele><time>2026-04-18T13:07:25.999Z</time></trkpt><trkpt lat="44.56092753752635" lon="10.229191363601704"><ele>350.0</ele><time>2026-04-18T13:07:26.999Z</time></trkpt><trkpt lat="44.561038324537925" lon="10.229096848633464"><ele>350.0</ele><time>2026-04-18T13:07:27.999Z</time></trkpt><trkpt lat="44.56113956587292" lon="10.228976495256084"><ele>350.0</ele><time>2026-04-18T13:07:28.999Z</time></trkpt><trkpt lat="44.56122216819768" lon="10.228814605216238"><ele>350.0</ele><time>2026-04-18T13:07:29.999Z</time></trkpt><trkpt lat="44.561317418455275" lon="10.228661152787861"><ele>348.0</ele><time>2026-04-18T13:07:30.999Z</time></trkpt><trkpt lat="44.56139055647326" lon="10.228504620563521"><ele>346.0</ele><time>2026-04-18T13:07:31.999Z</time></trkpt><trkpt lat="44.5614562634889" lon="10.2283415967668"><ele>344.0</ele><time>2026-04-18T13:07:32.999Z</time></trkpt><trkpt lat="44.561525093891895" lon="10.2281689729978"><ele>342.0</ele><time>2026-04-18T13:07:33.999Z</time></trkpt><trkpt lat="44.5616231694335" lon="10.227999648476336"><ele>341.6666666666667</ele><time>2026-04-18T13:07:34.999Z</time></trkpt><trkpt lat="44.561755224722475" lon="10.227870997322906"><ele>341.33333333333337</ele><time>2026-04-18T13:07:35.999Z</time></trkpt><trkpt lat="44.561935378734056" lon="10.22777256478381"><ele>341.0</ele><time>2026-04-18T13:07:36.999Z</time></trkpt><trkpt lat="44.56211001949037" lon="10.22768371393573"><ele>339.6666666666667</ele><time>2026-04-18T13:07:37.999Z</time></trkpt><trkpt lat="44.56226864164503" lon="10.22759171956767"><ele>338.3333333333333</ele><time>2026-04-18T13:07:38.999Z</time></trkpt><trkpt lat="44.562408297253775" lon="10.22750028950416"><ele>337.0</ele><time>2026-04-18T13:07:39.999Z</time></trkpt><trkpt lat="44.56253899154172" lon="10.227417881166943"><ele>337.0</ele><time>2026-04-18T13:07:40.999Z</time></trkpt><trkpt lat="44.56267611347444" lon="10.227338624995921"><ele>337.0</ele><time>2026-04-18T13:07:41.999Z</time></trkpt><trkpt lat="44.56282012387656" lon="10.227254256322055"><ele>337.0</ele><time>2026-04-18T13:07:42.999Z</time></trkpt><trkpt lat="44.56296631576911" lon="10.227165878711872"><ele>336.66666666666663</ele><time>2026-04-18T13:07:43.999Z</time></trkpt><trkpt lat="44.56311561020945" lon="10.227074981326348"><ele>336.3333333333333</ele><time>2026-04-18T13:07:44.999Z</time></trkpt><trkpt lat="44.56327219549546" lon="10.226974845632146"><ele>336.0</ele><time>2026-04-18T13:07:45.999Z</time></trkpt><trkpt lat="44.56342025659283" lon="10.226881111474315"><ele>336.0</ele><time>2026-04-18T13:07:46.999Z</time></trkpt><trkpt lat="44.56357017346865" lon="10.22678799248887"><ele>336.0</ele><time>2026-04-18T13:07:47.999Z</time></trkpt><trkpt lat="44.563717594354856" lon="10.22669899368268"><ele>336.0</ele><time>2026-04-18T13:07:48.999Z</time></trkpt><trkpt lat="44.56386108365737" lon="10.226615619430282"><ele>336.75</ele><time>2026-04-18T13:07:49.999Z</time></trkpt><trkpt lat="44.56399496532623" lon="10.22653011942515"><ele>337.5</ele><time>2026-04-18T13:07:50.999Z</time></trkpt><trkpt lat="44.564137769933005" lon="10.226467596013688"><ele>338.25</ele><time>2026-04-18T13:07:51.999Z</time></trkpt><trkpt lat="44.56426738705208" lon="10.22639308914766"><ele>339.0</ele><time>2026-04-18T13:07:52.999Z</time></trkpt><trkpt lat="44.564389757522456" lon="10.22631731195669"><ele>340.0</ele><time>2026-04-18T13:07:53.999Z</time></trkpt><trkpt lat="44.56451902385936" lon="10.226353866066605"><ele>341.0</ele><time>2026-04-18T13:07:54.999Z</time></trkpt><trkpt lat="44.56463030141917" lon="10.226446097530708"><ele>342.0</ele><time>2026-04-18T13:07:56Z</time></trkpt><trkpt lat="44.5646892635694" lon="10.226618964089978"><ele>343.0</ele><time>2026-04-18T13:07:57Z</time></trkpt><trkpt lat="44.56475826794279" lon="10.22683018290081"><ele>345.3333333333333</ele><time>2026-04-18T13:07:58Z</time></trkpt><trkpt lat="44.564865855539736" lon="10.227027676062026"><ele>347.6666666666667</ele><time>2026-04-18T13:07:59Z</time></trkpt><trkpt lat="44.56504363498963" lon="10.227166803618493"><ele>350.0</ele><time>2026-04-18T13:08:00Z</time></trkpt><trkpt lat="44.565237088649376" lon="10.227262279281737"><ele>350.33333333333337</ele><time>2026-04-18T13:08:01Z</time></trkpt><trkpt lat="44.56537244180365" lon="10.227415811130415"><ele>350.6666666666667</ele><time>2026-04-18T13:08:02Z</time></trkpt><trkpt lat="44.56549715482314" lon="10.22755476443815"><ele>351.0</ele><time>2026-04-18T13:08:03Z</time></trkpt><trkpt lat="44.565605031540976" lon="10.227707088938637"><ele>351.0</ele><time>2026-04-18T13:08:04Z</time></trkpt><trkpt lat="44.56572814706087" lon="10.227838655172995"><ele>351.0</ele><time>2026-04-18T13:08:05Z</time></trkpt><trkpt lat="44.56585651653224" lon="10.2280207494604"><ele>351.0</ele><time>2026-04-18T13:08:06Z</time></trkpt><trkpt lat="44.565998733177544" lon="10.22819290260882"><ele>353.0</ele><time>2026-04-18T13:08:07Z</time></trkpt><trkpt lat="44.56613798595839" lon="10.22836863535803"><ele>355.0</ele><time>2026-04-18T13:08:08Z</time></trkpt><trkpt lat="44.56627092160639" lon="10.22856205404822"><ele>357.0</ele><time>2026-04-18T13:08:09Z</time></trkpt><trkpt lat="44.566381320893164" lon="10.228760082444865"><ele>357.0</ele><time>2026-04-18T13:08:10Z</time></trkpt><trkpt lat="44.566469164164594" lon="10.228948531524724"><ele>357.0</ele><time>2026-04-18T13:08:11Z</time></trkpt><trkpt lat="44.5665421439907" lon="10.229086766003071"><ele>357.0</ele><time>2026-04-18T13:08:12Z</time></trkpt><trkpt lat="44.56659550935171" lon="10.22919713903354"><ele>357.0</ele><time>2026-04-18T13:08:13Z</time></trkpt><trkpt lat="44.56665085995491" lon="10.229265362964073"><ele>357.0</ele><time>2026-04-18T13:08:14Z</time></trkpt><trkpt lat="44.56671741895999" lon="10.229368013360569"><ele>357.0</ele><time>2026-04-18T13:08:16Z</time></trkpt><trkpt lat="44.56683243785248" lon="10.22928145102276"><ele>357.0</ele><time>2026-04-18T13:08:18Z</time></trkpt><trkpt lat="44.56684558978991" lon="10.229152164202207"><ele>357.0</ele><time>2026-04-18T13:08:19Z</time></trkpt><trkpt lat="44.5667535595776" lon="10.229033986659491"><ele>357.0</ele><time>2026-04-18T13:08:20Z</time></trkpt><trkpt lat="44.56664273383725" lon="10.22895302146633"><ele>357.0</ele><time>2026-04-18T13:08:21Z</time></trkpt><trkpt lat="44.56651649613154" lon="10.22885813220417"><ele>357.0</ele><time>2026-04-18T13:08:22Z</time></trkpt><trkpt lat="44.566419400878814" lon="10.22870503833203"><ele>357.0</ele><time>2026-04-18T13:08:23Z</time></trkpt><trkpt lat="44.56634543186858" lon="10.228541250126943"><ele>357.0</ele><time>2026-04-18T13:08:24Z</time></trkpt><trkpt lat="44.56629114089853" lon="10.228381801778909"><ele>357.0</ele><time>2026-04-18T13:08:25Z</time></trkpt><trkpt lat="44.566264003392014" lon="10.228201964318854"><ele>357.0</ele><time>2026-04-18T13:08:26Z</time></trkpt><trkpt lat="44.56628044725247" lon="10.227987027455404"><ele>357.0</ele><time>2026-04-18T13:08:27Z</time></trkpt><trkpt lat="44.566278839090046" lon="10.227756819822051"><ele>357.0</ele><time>2026-04-18T13:08:28Z</time></trkpt><trkpt lat="44.5662986294115" lon="10.22753163177528"><ele>357.5</ele><time>2026-04-18T13:08:29Z</time></trkpt><trkpt lat="44.56630049890477" lon="10.227321512477133"><ele>358.0</ele><time>2026-04-18T13:08:30Z</time></trkpt><trkpt lat="44.56627706625454" lon="10.22713804680978"><ele>358.5</ele><time>2026-04-18T13:08:31Z</time></trkpt><trkpt lat="44.566218419186285" lon="10.226961661609343"><ele>359.0</ele><time>2026-04-18T13:08:32Z</time></trkpt><trkpt lat="44.56609953831123" lon="10.2268028451189"><ele>359.0</ele><time>2026-04-18T13:08:33Z</time></trkpt><trkpt lat="44.56595114178413" lon="10.226636542472923"><ele>359.0</ele><time>2026-04-18T13:08:34Z</time></trkpt><trkpt lat="44.56580221325377" lon="10.226451056139297"><ele>359.0</ele><time>2026-04-18T13:08:35Z</time></trkpt><trkpt lat="44.56566087679448" lon="10.226266197345277"><ele>359.33333333333337</ele><time>2026-04-18T13:08:36Z</time></trkpt><trkpt lat="44.56552155275023" lon="10.226075028088232"><ele>359.6666666666667</ele><time>2026-04-18T13:08:37Z</time></trkpt><trkpt lat="44.56537971625679" lon="10.225887698965154"><ele>360.0</ele><time>2026-04-18T13:08:38Z</time></trkpt><trkpt lat="44.56525067072566" lon="10.225710927943947"><ele>363.3333333333333</ele><time>2026-04-18T13:08:39Z</time></trkpt><trkpt lat="44.565127375141586" lon="10.225539170167405"><ele>366.66666666666663</ele><time>2026-04-18T13:08:40Z</time></trkpt><trkpt lat="44.56503773537185" lon="10.22534481984794"><ele>370.0</ele><time>2026-04-18T13:08:41Z</time></trkpt><trkpt lat="44.56498591775702" lon="10.225130582299837"><ele>370.0</ele><time>2026-04-18T13:08:42Z</time></trkpt><trkpt lat="44.565013810256474" lon="10.224912112430486"><ele>370.0</ele><time>2026-04-18T13:08:43Z</time></trkpt><trkpt lat="44.56504423770786" lon="10.224662490429896"><ele>370.0</ele><time>2026-04-18T13:08:44Z</time></trkpt><trkpt lat="44.56509761355851" lon="10.224420816234387"><ele>371.5</ele><time>2026-04-18T13:08:45Z</time></trkpt><trkpt lat="44.56513237175451" lon="10.224227885154122"><ele>373.0</ele><time>2026-04-18T13:08:46Z</time></trkpt><trkpt lat="44.56516175248133" lon="10.224057347012483"><ele>374.5</ele><time>2026-04-18T13:08:47Z</time></trkpt><trkpt lat="44.565174140333056" lon="10.223878756125705"><ele>376.0</ele><time>2026-04-18T13:08:48Z</time></trkpt><trkpt lat="44.56515178717749" lon="10.2236657435168"><ele>377.66666666666663</ele><time>2026-04-18T13:08:49Z</time></trkpt><trkpt lat="44.565107650084684" lon="10.223421978515178"><ele>379.3333333333333</ele><time>2026-04-18T13:08:50Z</time></trkpt><trkpt lat="44.565047287177634" lon="10.223161923055452"><ele>381.0</ele><time>2026-04-18T13:08:51Z</time></trkpt><trkpt lat="44.564982136918786" lon="10.222903793154588"><ele>384.33333333333337</ele><time>2026-04-18T13:08:52Z</time></trkpt><trkpt lat="44.56490790314582" lon="10.222656488902096"><ele>387.6666666666667</ele><time>2026-04-18T13:08:53Z</time></trkpt><trkpt lat="44.56479680462654" lon="10.222443333786494"><ele>391.0</ele><time>2026-04-18T13:08:54Z</time></trkpt><trkpt lat="44.56463314396429" lon="10.222264255360729"><ele>388.6666666666667</ele><time>2026-04-18T13:08:55Z</time></trkpt><trkpt lat="44.56446225485257" lon="10.222140409178856"><ele>386.33333333333337</ele><time>2026-04-18T13:08:56Z</time></trkpt><trkpt lat="44.56433473900474" lon="10.221969468749993"><ele>384.0</ele><time>2026-04-18T13:08:57Z</time></trkpt><trkpt lat="44.5642341386124" lon="10.22174613621062"><ele>384.0</ele><time>2026-04-18T13:08:58Z</time></trkpt><trkpt lat="44.56414477640695" lon="10.22149161888416"><ele>384.0</ele><time>2026-04-18T13:08:59Z</time></trkpt><trkpt lat="44.56404434163276" lon="10.22122590660221"><ele>384.0</ele><time>2026-04-18T13:09:00Z</time></trkpt><trkpt lat="44.56394782871405" lon="10.220948390998226"><ele>388.0</ele><time>2026-04-18T13:09:01Z</time></trkpt><trkpt lat="44.56385047393952" lon="10.2206625958332"><ele>392.0</ele><time>2026-04-18T13:09:02Z</time></trkpt><trkpt lat="44.56375826565445" lon="10.220388817201263"><ele>396.0</ele><time>2026-04-18T13:09:03Z</time></trkpt><trkpt lat="44.56371092357426" lon="10.220112009078793"><ele>399.66666666666663</ele><time>2026-04-18T13:09:03.999Z</time></trkpt><trkpt lat="44.563696447148054" lon="10.219856495965246"><ele>403.3333333333333</ele><time>2026-04-18T13:09:04.999Z</time></trkpt><trkpt lat="44.56372381256733" lon="10.219576302133063"><ele>407.0</ele><time>2026-04-18T13:09:05.999Z</time></trkpt><trkpt lat="44.56376498982247" lon="10.219280610115664"><ele>407.0</ele><time>2026-04-18T13:09:06.999Z</time></trkpt><trkpt lat="44.56379670733087" lon="10.218987124316165"><ele>407.0</ele><time>2026-04-18T13:09:07.999Z</time></trkpt><trkpt lat="44.56381097360667" lon="10.218705865900604"><ele>407.0</ele><time>2026-04-18T13:09:08.999Z</time></trkpt><trkpt lat="44.56377262328792" lon="10.21841206340279"><ele>411.5</ele><time>2026-04-18T13:09:09.999Z</time></trkpt><trkpt lat="44.563709034442134" lon="10.218097194174193"><ele>416.0</ele><time>2026-04-18T13:09:10.999Z</time></trkpt><trkpt lat="44.563653223636415" lon="10.217784562122478"><ele>403.5</ele><time>2026-04-18T13:09:11.999Z</time></trkpt><trkpt lat="44.563603364019436" lon="10.217471857187615"><ele>391.0</ele><time>2026-04-18T13:09:12.999Z</time></trkpt><trkpt lat="44.56355573829715" lon="10.217166976669986"><ele>391.0</ele><time>2026-04-18T13:09:13.999Z</time></trkpt><trkpt lat="44.563497910554176" lon="10.216859671626096"><ele>391.0</ele><time>2026-04-18T13:09:14.999Z</time></trkpt><trkpt lat="44.56341384731964" lon="10.216575916953783"><ele>391.0</ele><time>2026-04-18T13:09:15.999Z</time></trkpt><trkpt lat="44.56330148388373" lon="10.216302335647757"><ele>392.0</ele><time>2026-04-18T13:09:16.999Z</time></trkpt><trkpt lat="44.56317815478307" lon="10.216046923097073"><ele>393.0</ele><time>2026-04-18T13:09:17.999Z</time></trkpt><trkpt lat="44.56305511311652" lon="10.215809440668169"><ele>394.0</ele><time>2026-04-18T13:09:18.999Z</time></trkpt><trkpt lat="44.562942455384196" lon="10.21557643941473"><ele>388.6666666666667</ele><time>2026-04-18T13:09:19.999Z</time></trkpt><trkpt lat="44.56283546895669" lon="10.215346493425628"><ele>383.33333333333337</ele><time>2026-04-18T13:09:20.999Z</time></trkpt><trkpt lat="44.56277448321668" lon="10.215109030320248"><ele>378.0</ele><time>2026-04-18T13:09:21.999Z</time></trkpt><trkpt lat="44.562807260044885" lon="10.214867136357041"><ele>379.0</ele><time>2026-04-18T13:09:22.999Z</time></trkpt><trkpt lat="44.562814638540374" lon="10.214600674599605"><ele>380.0</ele><time>2026-04-18T13:09:23.999Z</time></trkpt><trkpt lat="44.56284723211366" lon="10.214316465371205"><ele>381.0</ele><time>2026-04-18T13:09:24.999Z</time></trkpt><trkpt lat="44.562872182992436" lon="10.214029642062744"><ele>385.0</ele><time>2026-04-18T13:09:25.999Z</time></trkpt><trkpt lat="44.56288154162756" lon="10.213737673763955"><ele>389.0</ele><time>2026-04-18T13:09:26.999Z</time></trkpt><trkpt lat="44.562874169426756" lon="10.213438937095132"><ele>393.0</ele><time>2026-04-18T13:09:27.999Z</time></trkpt><trkpt lat="44.56283404887241" lon="10.213145086652311"><ele>393.0</ele><time>2026-04-18T13:09:28.999Z</time></trkpt><trkpt lat="44.562757928222034" lon="10.212862361349577"><ele>393.0</ele><time>2026-04-18T13:09:29.999Z</time></trkpt><trkpt lat="44.562653552868106" lon="10.212604589121248"><ele>393.0</ele><time>2026-04-18T13:09:30.999Z</time></trkpt><trkpt lat="44.56252830568172" lon="10.21236486351599"><ele>398.33333333333337</ele><time>2026-04-18T13:09:31.999Z</time></trkpt><trkpt lat="44.56237740229695" lon="10.212138352878567"><ele>403.6666666666667</ele><time>2026-04-18T13:09:32.999Z</time></trkpt><trkpt lat="44.56220975272434" lon="10.211949723188205"><ele>409.0</ele><time>2026-04-18T13:09:33.999Z</time></trkpt><trkpt lat="44.56205214565547" lon="10.211787407717106"><ele>403.6666666666667</ele><time>2026-04-18T13:09:34.999Z</time></trkpt><trkpt lat="44.561947977888" lon="10.211590493483625"><ele>398.33333333333337</ele><time>2026-04-18T13:09:35.999Z</time></trkpt><trkpt lat="44.56187664666361" lon="10.21138956225024"><ele>393.0</ele><time>2026-04-18T13:09:36.999Z</time></trkpt><trkpt lat="44.56184132084554" lon="10.211133102877623"><ele>393.0</ele><time>2026-04-18T13:09:37.999Z</time></trkpt><trkpt lat="44.561802739029844" lon="10.210841518287946"><ele>393.0</ele><time>2026-04-18T13:09:38.999Z</time></trkpt><trkpt lat="44.5617887915658" lon="10.210550535787656"><ele>393.0</ele><time>2026-04-18T13:09:39.999Z</time></trkpt><trkpt lat="44.56174952390721" lon="10.210259193269673"><ele>396.33333333333337</ele><time>2026-04-18T13:09:40.999Z</time></trkpt><trkpt lat="44.56167172423713" lon="10.20997366204949"><ele>399.6666666666667</ele><time>2026-04-18T13:09:41.999Z</time></trkpt><trkpt lat="44.56156819029106" lon="10.209683797108024"><ele>403.0</ele><time>2026-04-18T13:09:42.999Z</time></trkpt><trkpt lat="44.561453913636804" lon="10.209412431353213"><ele>402.5</ele><time>2026-04-18T13:09:43.999Z</time></trkpt><trkpt lat="44.56131708182821" lon="10.209166262613326"><ele>402.0</ele><time>2026-04-18T13:09:44.999Z</time></trkpt><trkpt lat="44.561161967812666" lon="10.208922600064923"><ele>402.0</ele><time>2026-04-18T13:09:45.999Z</time></trkpt><trkpt lat="44.56101649997782" lon="10.208679284290179"><ele>402.0</ele><time>2026-04-18T13:09:46.999Z</time></trkpt><trkpt lat="44.560872630453474" lon="10.208435850802234"><ele>402.0</ele><time>2026-04-18T13:09:47.999Z</time></trkpt><trkpt lat="44.56073209951749" lon="10.208193160211449"><ele>402.0</ele><time>2026-04-18T13:09:48.999Z</time></trkpt><trkpt lat="44.560597567717544" lon="10.207949706988824"><ele>402.0</ele><time>2026-04-18T13:09:49.999Z</time></trkpt><trkpt lat="44.560469340899004" lon="10.207709212937084"><ele>401.0</ele><time>2026-04-18T13:09:50.999Z</time></trkpt><trkpt lat="44.56034671283147" lon="10.207492084184823"><ele>400.0</ele><time>2026-04-18T13:09:51.999Z</time></trkpt><trkpt lat="44.560239746256116" lon="10.207287519646393"><ele>399.0</ele><time>2026-04-18T13:09:52.999Z</time></trkpt><trkpt lat="44.560144299720676" lon="10.20709294175848"><ele>403.33333333333337</ele><time>2026-04-18T13:09:53.999Z</time></trkpt><trkpt lat="44.560076267443996" lon="10.206872979541503"><ele>407.6666666666667</ele><time>2026-04-18T13:09:54.999Z</time></trkpt><trkpt lat="44.560022574613825" lon="10.20665192570049"><ele>412.0</ele><time>2026-04-18T13:09:55.999Z</time></trkpt><trkpt lat="44.559968997761246" lon="10.206430972325448"><ele>413.6666666666667</ele><time>2026-04-18T13:09:56.999Z</time></trkpt><trkpt lat="44.55994576116971" lon="10.206197098354272"><ele>415.33333333333337</ele><time>2026-04-18T13:09:57.999Z</time></trkpt><trkpt lat="44.55991888916611" lon="10.205959092970474"><ele>417.0</ele><time>2026-04-18T13:09:58.999Z</time></trkpt><trkpt lat="44.55988247866026" lon="10.205735599502889"><ele>418.33333333333337</ele><time>2026-04-18T13:09:59.999Z</time></trkpt><trkpt lat="44.55984655871245" lon="10.205506199268292"><ele>419.6666666666667</ele><time>2026-04-18T13:10:00.999Z</time></trkpt><trkpt lat="44.55980668680816" lon="10.205282195737173"><ele>421.0</ele><time>2026-04-18T13:10:02Z</time></trkpt><trkpt lat="44.55977004338015" lon="10.205066109346328"><ele>421.0</ele><time>2026-04-18T13:10:03Z</time></trkpt><trkpt lat="44.559733846161585" lon="10.204838933391848"><ele>421.0</ele><time>2026-04-18T13:10:04Z</time></trkpt><trkpt lat="44.55970266751206" lon="10.204633242938176"><ele>421.0</ele><time>2026-04-18T13:10:05Z</time></trkpt><trkpt lat="44.55968110646096" lon="10.204484007155992"><ele>421.0</ele><time>2026-04-18T13:10:06Z</time></trkpt><trkpt lat="44.55966315106907" lon="10.204382899899551"><ele>421.8</ele><time>2026-04-18T13:10:07Z</time></trkpt><trkpt lat="44.55966181491373" lon="10.204288704936301"><ele>422.6</ele><time>2026-04-18T13:10:09Z</time></trkpt><trkpt lat="44.559731975641306" lon="10.20429966723989"><ele>423.4</ele><time>2026-04-18T13:10:11Z</time></trkpt><trkpt lat="44.559762084045786" lon="10.204433159927891"><ele>424.2</ele><time>2026-04-18T13:10:13Z</time></trkpt><trkpt lat="44.559786792443795" lon="10.204579606432953"><ele>425.0</ele><time>2026-04-18T13:10:14Z</time></trkpt><trkpt lat="44.55982644068592" lon="10.204740287682423"><ele>424.2</ele><time>2026-04-18T13:10:15Z</time></trkpt><trkpt lat="44.55987743297077" lon="10.20488958652021"><ele>423.4</ele><time>2026-04-18T13:10:16Z</time></trkpt><trkpt lat="44.55993425398243" lon="10.20501898003399"><ele>422.6</ele><time>2026-04-18T13:10:17Z</time></trkpt><trkpt lat="44.560010981861815" lon="10.20512037883824"><ele>421.8</ele><time>2026-04-18T13:10:18Z</time></trkpt><trkpt lat="44.56011120610728" lon="10.205164214306217"><ele>421.0</ele><time>2026-04-18T13:10:19Z</time></trkpt><trkpt lat="44.560210487586176" lon="10.205176868230405"><ele>421.0</ele><time>2026-04-18T13:10:20Z</time></trkpt><trkpt lat="44.56032973781111" lon="10.205033573389588"><ele>421.0</ele><time>2026-04-18T13:10:21Z</time></trkpt><trkpt lat="44.56043402150681" lon="10.204876979403943"><ele>421.0</ele><time>2026-04-18T13:10:22Z</time></trkpt><trkpt lat="44.560533284572465" lon="10.204706582953936"><ele>426.75</ele><time>2026-04-18T13:10:23Z</time></trkpt><trkpt lat="44.56063872109305" lon="10.204566072939926"><ele>432.5</ele><time>2026-04-18T13:10:24Z</time></trkpt><trkpt lat="44.56071508484525" lon="10.20441651213996"><ele>438.25</ele><time>2026-04-18T13:10:25Z</time></trkpt><trkpt lat="44.56078893426741" lon="10.20429724619631"><ele>444.0</ele><time>2026-04-18T13:10:26Z</time></trkpt><trkpt lat="44.56082194651694" lon="10.204167802358686"><ele>444.0</ele><time>2026-04-18T13:10:27Z</time></trkpt><trkpt lat="44.560798690719466" lon="10.204022686436028"><ele>444.0</ele><time>2026-04-18T13:10:28Z</time></trkpt><trkpt lat="44.56072154956852" lon="10.203864004678406"><ele>444.0</ele><time>2026-04-18T13:10:29Z</time></trkpt><trkpt lat="44.56062068330715" lon="10.203709294701493"><ele>444.0</ele><time>2026-04-18T13:10:30Z</time></trkpt><trkpt lat="44.56053843064252" lon="10.20356189619855"><ele>447.0</ele><time>2026-04-18T13:10:31Z</time></trkpt><trkpt lat="44.560495723849236" lon="10.203424276018712"><ele>450.0</ele><time>2026-04-18T13:10:32Z</time></trkpt><trkpt lat="44.56046250243074" lon="10.203287213745094"><ele>453.0</ele><time>2026-04-18T13:10:33Z</time></trkpt><trkpt lat="44.56046164700028" lon="10.203157356663857"><ele>456.0</ele><time>2026-04-18T13:10:34Z</time></trkpt><trkpt lat="44.56051602423349" lon="10.203068636798651"><ele>459.0</ele><time>2026-04-18T13:10:36Z</time></trkpt><trkpt lat="44.560582999549624" lon="10.203207700270214"><ele>459.0</ele><time>2026-04-18T13:10:38Z</time></trkpt><trkpt lat="44.56060821949833" lon="10.203308200788726"><ele>459.0</ele><time>2026-04-18T13:10:39Z</time></trkpt><trkpt lat="44.56067523360978" lon="10.203383249149756"><ele>459.0</ele><time>2026-04-18T13:10:40Z</time></trkpt><trkpt lat="44.56074645108936" lon="10.203351779631362"><ele>459.0</ele><time>2026-04-18T13:10:41Z</time></trkpt><trkpt lat="44.56080018238308" lon="10.203259083048867"><ele>459.0</ele><time>2026-04-18T13:10:42Z</time></trkpt><trkpt lat="44.56075886391095" lon="10.203093319571595"><ele>459.0</ele><time>2026-04-18T13:10:43Z</time></trkpt><trkpt lat="44.56072499548732" lon="10.202928666239584"><ele>460.79999999999995</ele><time>2026-04-18T13:10:44Z</time></trkpt><trkpt lat="44.56074561102504" lon="10.20273905435934"><ele>462.59999999999997</ele><time>2026-04-18T13:10:45Z</time></trkpt><trkpt lat="44.560771961526875" lon="10.202593720298273"><ele>464.4</ele><time>2026-04-18T13:10:46Z</time></trkpt><trkpt lat="44.56084346123039" lon="10.20252978922297"><ele>466.2</ele><time>2026-04-18T13:10:48Z</time></trkpt><trkpt lat="44.56091363438766" lon="10.202604284821797"><ele>468.0</ele><time>2026-04-18T13:10:49Z</time></trkpt><trkpt lat="44.56093792323064" lon="10.202761088645117"><ele>468.0</ele><time>2026-04-18T13:10:50Z</time></trkpt><trkpt lat="44.56099905274555" lon="10.202895704638824"><ele>467.99999999999994</ele><time>2026-04-18T13:10:51Z</time></trkpt><trkpt lat="44.56105198360498" lon="10.202982331340097"><ele>467.99999999999994</ele><time>2026-04-18T13:10:52Z</time></trkpt><trkpt lat="44.56113454908592" lon="10.202996809874007"><ele>468.0</ele><time>2026-04-18T13:10:53Z</time></trkpt><trkpt lat="44.561239087378794" lon="10.202937073811487"><ele>468.0</ele><time>2026-04-18T13:10:54Z</time></trkpt><trkpt lat="44.56131022570161" lon="10.202843405184625"><ele>468.0</ele><time>2026-04-18T13:10:55Z</time></trkpt><trkpt lat="44.561325747620025" lon="10.202722061438438"><ele>467.99999999999994</ele><time>2026-04-18T13:10:56Z</time></trkpt><trkpt lat="44.56128603834315" lon="10.202575607837327"><ele>467.99999999999994</ele><time>2026-04-18T13:10:57Z</time></trkpt><trkpt lat="44.561213962058474" lon="10.202436626159775"><ele>468.0</ele><time>2026-04-18T13:10:58Z</time></trkpt><trkpt lat="44.56119356457381" lon="10.20230454494681"><ele>468.0</ele><time>2026-04-18T13:10:59Z</time></trkpt><trkpt lat="44.56122123659068" lon="10.20215777357372"><ele>472.79999999999995</ele><time>2026-04-18T13:11:00Z</time></trkpt><trkpt lat="44.561287139137484" lon="10.202021749725148"><ele>477.59999999999997</ele><time>2026-04-18T13:11:01Z</time></trkpt><trkpt lat="44.56135520462946" lon="10.20194271428225"><ele>482.40000000000003</ele><time>2026-04-18T13:11:02Z</time></trkpt><trkpt lat="44.56142190494719" lon="10.201932215188616"><ele>487.20000000000005</ele><time>2026-04-18T13:11:03Z</time></trkpt><trkpt lat="44.56147291347882" lon="10.202030754582875"><ele>492.0</ele><time>2026-04-18T13:11:04Z</time></trkpt><trkpt lat="44.56151854443131" lon="10.202185076186048"><ele>491.66666666666663</ele><time>2026-04-18T13:11:05Z</time></trkpt><trkpt lat="44.56159221825135" lon="10.202375216888356"><ele>491.3333333333333</ele><time>2026-04-18T13:11:06Z</time></trkpt><trkpt lat="44.56169327546631" lon="10.202562996449055"><ele>491.0</ele><time>2026-04-18T13:11:07Z</time></trkpt><trkpt lat="44.561801607456665" lon="10.202737491197638"><ele>491.0</ele><time>2026-04-18T13:11:08Z</time></trkpt><trkpt lat="44.56186570469411" lon="10.202911550764242"><ele>491.0</ele><time>2026-04-18T13:11:09Z</time></trkpt><trkpt lat="44.561899690037826" lon="10.203045013851968"><ele>491.0</ele><time>2026-04-18T13:11:10Z</time></trkpt><trkpt lat="44.56194226242184" lon="10.20311272308036"><ele>491.0</ele><time>2026-04-18T13:11:10.999Z</time></trkpt><trkpt lat="44.56202210254253" lon="10.203123862324242"><ele>491.0</ele><time>2026-04-18T13:11:11.999Z</time></trkpt><trkpt lat="44.562107747764685" lon="10.203037110293147"><ele>495.4</ele><time>2026-04-18T13:11:12.999Z</time></trkpt><trkpt lat="44.562170757012524" lon="10.20287950028936"><ele>499.8</ele><time>2026-04-18T13:11:13.999Z</time></trkpt><trkpt lat="44.56223957955992" lon="10.202791088345966"><ele>504.19999999999993</ele><time>2026-04-18T13:11:14.999Z</time></trkpt><trkpt lat="44.56234703304852" lon="10.202835740154278"><ele>508.59999999999997</ele><time>2026-04-18T13:11:16.999Z</time></trkpt><trkpt lat="44.56238459664845" lon="10.202974011056572"><ele>513.0</ele><time>2026-04-18T13:11:17.999Z</time></trkpt><trkpt lat="44.56243338805362" lon="10.20311554243647"><ele>512.0</ele><time>2026-04-18T13:11:18.999Z</time></trkpt><trkpt lat="44.562522853774695" lon="10.203236162175116"><ele>511.0</ele><time>2026-04-18T13:11:19.999Z</time></trkpt><trkpt lat="44.56266005342255" lon="10.20333413797029"><ele>510.0</ele><time>2026-04-18T13:11:20.999Z</time></trkpt><trkpt lat="44.56279091307763" lon="10.203426352358658"><ele>509.0</ele><time>2026-04-18T13:11:21.999Z</time></trkpt><trkpt lat="44.56290945828756" lon="10.203526796487932"><ele>513.5</ele><time>2026-04-18T13:11:22.999Z</time></trkpt><trkpt lat="44.56303169919634" lon="10.203627568964766"><ele>518.0</ele><time>2026-04-18T13:11:23.999Z</time></trkpt><trkpt lat="44.56316052014455" lon="10.203722654764839"><ele>522.5</ele><time>2026-04-18T13:11:24.999Z</time></trkpt><trkpt lat="44.56328189047791" lon="10.203814243877508"><ele>527.0</ele><time>2026-04-18T13:11:25.999Z</time></trkpt><trkpt lat="44.56339500302778" lon="10.203899642195623"><ele>525.0</ele><time>2026-04-18T13:11:26.999Z</time></trkpt><trkpt lat="44.56347459221683" lon="10.204032198847626"><ele>523.0</ele><time>2026-04-18T13:11:27.999Z</time></trkpt><trkpt lat="44.563526258054026" lon="10.204173782959831"><ele>521.0</ele><time>2026-04-18T13:11:28.999Z</time></trkpt><trkpt lat="44.563516299944155" lon="10.204364487872864"><ele>519.0</ele><time>2026-04-18T13:11:29.999Z</time></trkpt><trkpt lat="44.56352095003299" lon="10.204547416362908"><ele>519.0</ele><time>2026-04-18T13:11:30.999Z</time></trkpt><trkpt lat="44.56356880385467" lon="10.204689899816271"><ele>519.0</ele><time>2026-04-18T13:11:31.999Z</time></trkpt><trkpt lat="44.563672988565955" lon="10.20480812189844"><ele>519.0</ele><time>2026-04-18T13:11:32.999Z</time></trkpt><trkpt lat="44.5637955931297" lon="10.204830034477336"><ele>519.0</ele><time>2026-04-18T13:11:33.999Z</time></trkpt><trkpt lat="44.56395646024881" lon="10.204784001642704"><ele>522.5</ele><time>2026-04-18T13:11:34.999Z</time></trkpt><trkpt lat="44.564124990577994" lon="10.204774227103508"><ele>526.0</ele><time>2026-04-18T13:11:35.999Z</time></trkpt><trkpt lat="44.56425826286478" lon="10.204777379621685"><ele>529.5</ele><time>2026-04-18T13:11:36.999Z</time></trkpt><trkpt lat="44.5643607281653" lon="10.20476453741977"><ele>533.0</ele><time>2026-04-18T13:11:37.999Z</time></trkpt><trkpt lat="44.564420669190454" lon="10.204878898124107"><ele>533.0</ele><time>2026-04-18T13:11:38.999Z</time></trkpt><trkpt lat="44.56444728068994" lon="10.205015420880507"><ele>533.0</ele><time>2026-04-18T13:11:39.999Z</time></trkpt><trkpt lat="44.56446734513744" lon="10.205155031620299"><ele>533.0</ele><time>2026-04-18T13:11:40.999Z</time></trkpt><trkpt lat="44.56449029494629" lon="10.205248020204696"><ele>533.0</ele><time>2026-04-18T13:11:41.999Z</time></trkpt><trkpt lat="44.56460469214121" lon="10.205218963735867"><ele>533.0</ele><time>2026-04-18T13:11:43.999Z</time></trkpt><trkpt lat="44.56461067049227" lon="10.205051882536218"><ele>536.25</ele><time>2026-04-18T13:11:44.999Z</time></trkpt><trkpt lat="44.56460948007233" lon="10.204889583323856"><ele>539.5</ele><time>2026-04-18T13:11:45.999Z</time></trkpt><trkpt lat="44.56465844080937" lon="10.204712264293445"><ele>542.75</ele><time>2026-04-18T13:11:46.999Z</time></trkpt><trkpt lat="44.56468802798461" lon="10.204540931161233"><ele>546.0</ele><time>2026-04-18T13:11:47.999Z</time></trkpt><trkpt lat="44.56468072971804" lon="10.20437560912356"><ele>547.25</ele><time>2026-04-18T13:11:48.999Z</time></trkpt><trkpt lat="44.56463905760459" lon="10.204218575683212"><ele>548.5</ele><time>2026-04-18T13:11:49.999Z</time></trkpt><trkpt lat="44.5645752177462" lon="10.20405461603661"><ele>549.75</ele><time>2026-04-18T13:11:50.999Z</time></trkpt><trkpt lat="44.564585146753025" lon="10.203892401437562"><ele>551.0</ele><time>2026-04-18T13:11:51.999Z</time></trkpt><trkpt lat="44.564607730048145" lon="10.203730718675114"><ele>552.5</ele><time>2026-04-18T13:11:52.999Z</time></trkpt><trkpt lat="44.56464332496552" lon="10.203528587355306"><ele>554.0</ele><time>2026-04-18T13:11:53.999Z</time></trkpt><trkpt lat="44.564668547063334" lon="10.203315926334072"><ele>555.5</ele><time>2026-04-18T13:11:54.999Z</time></trkpt><trkpt lat="44.564656840623336" lon="10.203111556238753"><ele>557.0</ele><time>2026-04-18T13:11:55.999Z</time></trkpt><trkpt lat="44.5646157626683" lon="10.202903491844046"><ele>557.0</ele><time>2026-04-18T13:11:56.999Z</time></trkpt><trkpt lat="44.56454820911658" lon="10.202702384256561"><ele>557.0</ele><time>2026-04-18T13:11:57.999Z</time></trkpt><trkpt lat="44.5645061837966" lon="10.202532788912142"><ele>557.0</ele><time>2026-04-18T13:11:58.999Z</time></trkpt><trkpt lat="44.56448573199875" lon="10.20239620645888"><ele>557.0</ele><time>2026-04-18T13:11:59.999Z</time></trkpt><trkpt lat="44.56449600075134" lon="10.202263015728022"><ele>557.0</ele><time>2026-04-18T13:12:00.999Z</time></trkpt><trkpt lat="44.564523966111736" lon="10.202116158562255"><ele>557.0</ele><time>2026-04-18T13:12:01.999Z</time></trkpt><trkpt lat="44.56456936662566" lon="10.201943637159818"><ele>557.0</ele><time>2026-04-18T13:12:02.999Z</time></trkpt><trkpt lat="44.56460861882058" lon="10.20175796088817"><ele>557.0</ele><time>2026-04-18T13:12:03.999Z</time></trkpt><trkpt lat="44.564601270553815" lon="10.201555665053812"><ele>564.75</ele><time>2026-04-18T13:12:04.999Z</time></trkpt><trkpt lat="44.56461389124548" lon="10.201353083799848"><ele>572.5</ele><time>2026-04-18T13:12:05.999Z</time></trkpt><trkpt lat="44.56462568980796" lon="10.201147942359704"><ele>580.25</ele><time>2026-04-18T13:12:06.999Z</time></trkpt><trkpt lat="44.56465743967286" lon="10.200955245855376"><ele>588.0</ele><time>2026-04-18T13:12:08Z</time></trkpt><trkpt lat="44.56468864965751" lon="10.20077423808414"><ele>588.0</ele><time>2026-04-18T13:12:09Z</time></trkpt><trkpt lat="44.5647249995525" lon="10.200637883498457"><ele>588.0</ele><time>2026-04-18T13:12:10Z</time></trkpt><trkpt lat="44.56476897782467" lon="10.200523209778634"><ele>588.0</ele><time>2026-04-18T13:12:11Z</time></trkpt><trkpt lat="44.56481622444514" lon="10.200384819612466"><ele>588.0</ele><time>2026-04-18T13:12:12Z</time></trkpt><trkpt lat="44.56486839476076" lon="10.200227991446685"><ele>588.0</ele><time>2026-04-18T13:12:13Z</time></trkpt><trkpt lat="44.56490859172744" lon="10.200056762756152"><ele>588.0</ele><time>2026-04-18T13:12:14Z</time></trkpt><trkpt lat="44.56495466957011" lon="10.199897344437145"><ele>588.0</ele><time>2026-04-18T13:12:15Z</time></trkpt><trkpt lat="44.56496284096538" lon="10.199737393748785"><ele>588.0</ele><time>2026-04-18T13:12:16Z</time></trkpt><trkpt lat="44.564909410038545" lon="10.199591416628405"><ele>588.0</ele><time>2026-04-18T13:12:17Z</time></trkpt><trkpt lat="44.56485683895506" lon="10.199474774743528"><ele>588.0</ele><time>2026-04-18T13:12:18Z</time></trkpt><trkpt lat="44.56490843693741" lon="10.199366636017798"><ele>588.0</ele><time>2026-04-18T13:12:19Z</time></trkpt><trkpt lat="44.565000658157636" lon="10.19926947548003"><ele>588.0</ele><time>2026-04-18T13:12:20Z</time></trkpt><trkpt lat="44.565096358376316" lon="10.19914575791261"><ele>588.0</ele><time>2026-04-18T13:12:21Z</time></trkpt><trkpt lat="44.565161631699716" lon="10.19902523155788"><ele>588.0</ele><time>2026-04-18T13:12:22Z</time></trkpt><trkpt lat="44.56520176094873" lon="10.198923036866761"><ele>589.5</ele><time>2026-04-18T13:12:23Z</time></trkpt><trkpt lat="44.56521509043298" lon="10.198798453209118"><ele>591.0</ele><time>2026-04-18T13:12:24Z</time></trkpt><trkpt lat="44.56510427373822" lon="10.198636336733076"><ele>592.5</ele><time>2026-04-18T13:12:25Z</time></trkpt><trkpt lat="44.56498794885437" lon="10.198510340314416"><ele>594.0</ele><time>2026-04-18T13:12:26Z</time></trkpt><trkpt lat="44.56489099392632" lon="10.198381580113653"><ele>594.0</ele><time>2026-04-18T13:12:27Z</time></trkpt><trkpt lat="44.56486021428315" lon="10.198232335381885"><ele>594.0</ele><time>2026-04-18T13:12:28Z</time></trkpt><trkpt lat="44.56487995595761" lon="10.198072923305341"><ele>594.0</ele><time>2026-04-18T13:12:29Z</time></trkpt><trkpt lat="44.56491932861714" lon="10.197900137855545"><ele>594.0</ele><time>2026-04-18T13:12:30Z</time></trkpt><trkpt lat="44.56499744242161" lon="10.197806903990106"><ele>594.5</ele><time>2026-04-18T13:12:31Z</time></trkpt><trkpt lat="44.565096707986704" lon="10.197717633213612"><ele>595.0</ele><time>2026-04-18T13:12:32Z</time></trkpt><trkpt lat="44.5652207448806" lon="10.197624126658592"><ele>595.5</ele><time>2026-04-18T13:12:33Z</time></trkpt><trkpt lat="44.56537078785686" lon="10.197538715038952"><ele>596.0</ele><time>2026-04-18T13:12:34Z</time></trkpt><trkpt lat="44.56551396992626" lon="10.197452998048556"><ele>597.25</ele><time>2026-04-18T13:12:35Z</time></trkpt><trkpt lat="44.56565183393958" lon="10.197345208320545"><ele>598.5</ele><time>2026-04-18T13:12:36Z</time></trkpt><trkpt lat="44.5657703516398" lon="10.197239912106618"><ele>599.75</ele><time>2026-04-18T13:12:37Z</time></trkpt><trkpt lat="44.565858194042434" lon="10.197136503487174"><ele>601.0</ele><time>2026-04-18T13:12:38Z</time></trkpt><trkpt lat="44.565953912800204" lon="10.197122599758654"><ele>601.0</ele><time>2026-04-18T13:12:39Z</time></trkpt><trkpt lat="44.566051774925846" lon="10.197124917155497"><ele>601.0</ele><time>2026-04-18T13:12:40Z</time></trkpt><trkpt lat="44.566165008757864" lon="10.197176550492573"><ele>601.0</ele><time>2026-04-18T13:12:41Z</time></trkpt><trkpt lat="44.56628849525645" lon="10.197215665358193"><ele>601.0</ele><time>2026-04-18T13:12:42Z</time></trkpt><trkpt lat="44.56638318106525" lon="10.197241444012565"><ele>601.0</ele><time>2026-04-18T13:12:43Z</time></trkpt><trkpt lat="44.566420113226954" lon="10.19731969662858"><ele>602.2</ele><time>2026-04-18T13:12:44Z</time></trkpt><trkpt lat="44.56637015519883" lon="10.197399795315707"><ele>603.4000000000001</ele><time>2026-04-18T13:12:45Z</time></trkpt><trkpt lat="44.56633127100949" lon="10.197506972884936"><ele>604.6</ele><time>2026-04-18T13:12:46Z</time></trkpt><trkpt lat="44.5662747388338" lon="10.197649998861207"><ele>605.8000000000001</ele><time>2026-04-18T13:12:47Z</time></trkpt><trkpt lat="44.566216012016774" lon="10.197792924441261"><ele>607.0</ele><time>2026-04-18T13:12:48Z</time></trkpt><trkpt lat="44.56614266945757" lon="10.197930267261885"><ele>607.0</ele><time>2026-04-18T13:12:49Z</time></trkpt><trkpt lat="44.56618752402393" lon="10.198129279991436"><ele>607.0</ele><time>2026-04-18T13:12:50Z</time></trkpt><trkpt lat="44.56623560795993" lon="10.198305578652917"><ele>607.0</ele><time>2026-04-18T13:12:51Z</time></trkpt><trkpt lat="44.566322030412934" lon="10.198483051680327"><ele>607.0</ele><time>2026-04-18T13:12:52Z</time></trkpt><trkpt lat="44.566420960373904" lon="10.198651214337785"><ele>612.0</ele><time>2026-04-18T13:12:53Z</time></trkpt><trkpt lat="44.566511197381445" lon="10.198821534009626"><ele>617.0</ele><time>2026-04-18T13:12:54Z</time></trkpt><trkpt lat="44.56658979844935" lon="10.198968089293864"><ele>622.0</ele><time>2026-04-18T13:12:55Z</time></trkpt><trkpt lat="44.5666842246404" lon="10.199075907565472"><ele>627.0</ele><time>2026-04-18T13:12:56Z</time></trkpt><trkpt lat="44.56681701453436" lon="10.199142160646494"><ele>627.0</ele><time>2026-04-18T13:12:57Z</time></trkpt><trkpt lat="44.5669463773372" lon="10.199233586131454"><ele>627.0</ele><time>2026-04-18T13:12:58Z</time></trkpt><trkpt lat="44.567045806436596" lon="10.199381767646699"><ele>627.0</ele><time>2026-04-18T13:12:59Z</time></trkpt><trkpt lat="44.56713872800559" lon="10.199557329761292"><ele>627.0</ele><time>2026-04-18T13:13:00Z</time></trkpt><trkpt lat="44.567233078243625" lon="10.199717175016234"><ele>630.6</ele><time>2026-04-18T13:13:01Z</time></trkpt><trkpt lat="44.567296564277974" lon="10.1997917374262"><ele>634.2</ele><time>2026-04-18T13:13:02Z</time></trkpt><trkpt lat="44.567367174061694" lon="10.199737679502654"><ele>637.8</ele><time>2026-04-18T13:13:04Z</time></trkpt><trkpt lat="44.56739317868296" lon="10.199640615417449"><ele>641.4</ele><time>2026-04-18T13:13:05Z</time></trkpt><trkpt lat="44.5673310803339" lon="10.19950183864683"><ele>645.0</ele><time>2026-04-18T13:13:06Z</time></trkpt><trkpt lat="44.56727716944113" lon="10.199367317728314"><ele>645.0</ele><time>2026-04-18T13:13:07Z</time></trkpt><trkpt lat="44.56727916780417" lon="10.19920881935221"><ele>645.0</ele><time>2026-04-18T13:13:08Z</time></trkpt><trkpt lat="44.56732571418398" lon="10.199066307766733"><ele>645.0</ele><time>2026-04-18T13:13:09Z</time></trkpt><trkpt lat="44.5673792138901" lon="10.198902628077676"><ele>645.0</ele><time>2026-04-18T13:13:10Z</time></trkpt><trkpt lat="44.567441476970444" lon="10.198802958606525"><ele>645.0</ele><time>2026-04-18T13:13:11Z</time></trkpt><trkpt lat="44.56755937149149" lon="10.198816788080068"><ele>645.0</ele><time>2026-04-18T13:13:13Z</time></trkpt><trkpt lat="44.567598489892895" lon="10.198956006435722"><ele>645.0</ele><time>2026-04-18T13:13:14Z</time></trkpt><trkpt lat="44.567668378725045" lon="10.199129937110976"><ele>645.0</ele><time>2026-04-18T13:13:15Z</time></trkpt><trkpt lat="44.56773718370466" lon="10.199329957890297"><ele>645.0</ele><time>2026-04-18T13:13:15.999Z</time></trkpt><trkpt lat="44.56782399839681" lon="10.199532897974244"><ele>649.0</ele><time>2026-04-18T13:13:16.999Z</time></trkpt><trkpt lat="44.56788892127439" lon="10.19969337249315"><ele>653.0</ele><time>2026-04-18T13:13:17.999Z</time></trkpt><trkpt lat="44.56794225357654" lon="10.199804293510903"><ele>657.0</ele><time>2026-04-18T13:13:18.999Z</time></trkpt><trkpt lat="44.56805716038053" lon="10.19980376870688"><ele>661.0</ele><time>2026-04-18T13:13:20.999Z</time></trkpt><trkpt lat="44.56812104446823" lon="10.19971786632415"><ele>665.0</ele><time>2026-04-18T13:13:21.999Z</time></trkpt><trkpt lat="44.56816120939465" lon="10.199566648809425"><ele>665.0</ele><time>2026-04-18T13:13:22.999Z</time></trkpt><trkpt lat="44.56818537648102" lon="10.199360673831976"><ele>665.0</ele><time>2026-04-18T13:13:23.999Z</time></trkpt><trkpt lat="44.56824607108265" lon="10.199166767156912"><ele>665.0</ele><time>2026-04-18T13:13:24.999Z</time></trkpt><trkpt lat="44.568308054529254" lon="10.198953431018332"><ele>662.6666666666666</ele><time>2026-04-18T13:13:25.999Z</time></trkpt><trkpt lat="44.568397450010536" lon="10.198740429245676"><ele>660.3333333333334</ele><time>2026-04-18T13:13:26.999Z</time></trkpt><trkpt lat="44.56848601808675" lon="10.19853667621519"><ele>658.0</ele><time>2026-04-18T13:13:27.999Z</time></trkpt><trkpt lat="44.5685554756319" lon="10.198376887114403"><ele>658.0</ele><time>2026-04-18T13:13:28.999Z</time></trkpt><trkpt lat="44.56862451291797" lon="10.198257729390335"><ele>658.0</ele><time>2026-04-18T13:13:29.999Z</time></trkpt><trkpt lat="44.56871391949263" lon="10.198185201151777"><ele>658.0</ele><time>2026-04-18T13:13:30.999Z</time></trkpt><trkpt lat="44.568858382672026" lon="10.198159465327166"><ele>658.0</ele><time>2026-04-18T13:13:31.999Z</time></trkpt><trkpt lat="44.56903455930432" lon="10.198082807664113"><ele>660.3333333333334</ele><time>2026-04-18T13:13:32.999Z</time></trkpt><trkpt lat="44.56920540975931" lon="10.197978760207294"><ele>662.6666666666666</ele><time>2026-04-18T13:13:33.999Z</time></trkpt><trkpt lat="44.569377104210815" lon="10.19788556152561"><ele>665.0</ele><time>2026-04-18T13:13:34.999Z</time></trkpt><trkpt lat="44.56955043634267" lon="10.1978261653817"><ele>669.3333333333333</ele><time>2026-04-18T13:13:35.999Z</time></trkpt><trkpt lat="44.56969480077808" lon="10.197763581125775"><ele>673.6666666666666</ele><time>2026-04-18T13:13:36.999Z</time></trkpt><trkpt lat="44.569858749188164" lon="10.197697245117642"><ele>678.0</ele><time>2026-04-18T13:13:37.999Z</time></trkpt><trkpt lat="44.570012159238" lon="10.197649805903863"><ele>678.0</ele><time>2026-04-18T13:13:38.999Z</time></trkpt><trkpt lat="44.570104315129385" lon="10.197622745048067"><ele>678.0</ele><time>2026-04-18T13:13:39.999Z</time></trkpt><trkpt lat="44.57019675744416" lon="10.197636122582226"><ele>678.0</ele><time>2026-04-18T13:13:40.999Z</time></trkpt><trkpt lat="44.570265079829625" lon="10.197730709378463"><ele>678.0</ele><time>2026-04-18T13:13:41.999Z</time></trkpt><trkpt lat="44.57033718096124" lon="10.197873818741906"><ele>678.0</ele><time>2026-04-18T13:13:42.999Z</time></trkpt><trkpt lat="44.570427514761434" lon="10.198011789545168"><ele>679.75</ele><time>2026-04-18T13:13:43.999Z</time></trkpt><trkpt lat="44.57054226477864" lon="10.198076868000657"><ele>681.5</ele><time>2026-04-18T13:13:44.999Z</time></trkpt><trkpt lat="44.57068266921797" lon="10.198062987244507"><ele>683.25</ele><time>2026-04-18T13:13:45.999Z</time></trkpt><trkpt lat="44.570827728283746" lon="10.197974904831103"><ele>685.0</ele><time>2026-04-18T13:13:46.999Z</time></trkpt><trkpt lat="44.57096757262598" lon="10.197816457162238"><ele>685.0</ele><time>2026-04-18T13:13:47.999Z</time></trkpt><trkpt lat="44.5710896997902" lon="10.197667949656251"><ele>685.0</ele><time>2026-04-18T13:13:48.999Z</time></trkpt><trkpt lat="44.571173146054605" lon="10.197567245907287"><ele>685.0</ele><time>2026-04-18T13:13:49.999Z</time></trkpt><trkpt lat="44.57121831807398" lon="10.19749117346018"><ele>685.0</ele><time>2026-04-18T13:13:50.999Z</time></trkpt><trkpt lat="44.57127798007062" lon="10.197459317074724"><ele>685.0</ele><time>2026-04-18T13:13:52.999Z</time></trkpt><trkpt lat="44.57132426341299" lon="10.197309457483511"><ele>687.2</ele><time>2026-04-18T13:14:03.999Z</time></trkpt><trkpt lat="44.57134139594718" lon="10.197178684562548"><ele>689.4</ele><time>2026-04-18T13:14:04.999Z</time></trkpt><trkpt lat="44.57139734449851" lon="10.19706253273605"><ele>691.5999999999999</ele><time>2026-04-18T13:14:05.999Z</time></trkpt><trkpt lat="44.57146678080895" lon="10.196952763122825"><ele>693.8</ele><time>2026-04-18T13:14:06.999Z</time></trkpt><trkpt lat="44.57154836937814" lon="10.196860752504811"><ele>696.0</ele><time>2026-04-18T13:14:07.999Z</time></trkpt><trkpt lat="44.57161850620396" lon="10.196662935509933"><ele>694.0</ele><time>2026-04-18T13:14:08.999Z</time></trkpt><trkpt lat="44.571707151054355" lon="10.196485242746622"><ele>692.0</ele><time>2026-04-18T13:14:09.999Z</time></trkpt><trkpt lat="44.57179224429948" lon="10.196323705519111"><ele>690.0</ele><time>2026-04-18T13:14:10.999Z</time></trkpt><trkpt lat="44.571871211828935" lon="10.196179028503165"><ele>688.0</ele><time>2026-04-18T13:14:11.999Z</time></trkpt><trkpt lat="44.57194124695881" lon="10.196038172499577"><ele>689.0</ele><time>2026-04-18T13:14:12.999Z</time></trkpt><trkpt lat="44.57203803847655" lon="10.195916643725504"><ele>690.0</ele><time>2026-04-18T13:14:14Z</time></trkpt><trkpt lat="44.57213749231904" lon="10.195803389064638"><ele>691.0</ele><time>2026-04-18T13:14:15Z</time></trkpt><trkpt lat="44.57224766666164" lon="10.195686582553002"><ele>692.0</ele><time>2026-04-18T13:14:16Z</time></trkpt><trkpt lat="44.57238021541231" lon="10.195624277510209"><ele>692.0</ele><time>2026-04-18T13:14:17Z</time></trkpt><trkpt lat="44.57251243263737" lon="10.195562912765443"><ele>692.0</ele><time>2026-04-18T13:14:18Z</time></trkpt><trkpt lat="44.57264674566937" lon="10.195489909239186"><ele>692.0</ele><time>2026-04-18T13:14:19Z</time></trkpt><trkpt lat="44.57277238595767" lon="10.19539768310428"><ele>692.0</ele><time>2026-04-18T13:14:20Z</time></trkpt><trkpt lat="44.5728766225428" lon="10.195280818486065"><ele>695.5</ele><time>2026-04-18T13:14:21Z</time></trkpt><trkpt lat="44.572951739876274" lon="10.195115349582732"><ele>699.0</ele><time>2026-04-18T13:14:22Z</time></trkpt><trkpt lat="44.5730043598154" lon="10.194921356225688"><ele>702.5</ele><time>2026-04-18T13:14:23Z</time></trkpt><trkpt lat="44.573067697394414" lon="10.194726329670686"><ele>706.0</ele><time>2026-04-18T13:14:24Z</time></trkpt><trkpt lat="44.57316407076611" lon="10.19455849604422"><ele>706.0</ele><time>2026-04-18T13:14:25Z</time></trkpt><trkpt lat="44.573239933840156" lon="10.194372980437294"><ele>706.0</ele><time>2026-04-18T13:14:26Z</time></trkpt><trkpt lat="44.5733190193191" lon="10.194202020850929"><ele>706.0</ele><time>2026-04-18T13:14:27Z</time></trkpt><trkpt lat="44.573387499998596" lon="10.194004689729551"><ele>705.0</ele><time>2026-04-18T13:14:28Z</time></trkpt><trkpt lat="44.57343699767374" lon="10.193800536943794"><ele>704.0</ele><time>2026-04-18T13:14:29Z</time></trkpt><trkpt lat="44.57347515561105" lon="10.193587065415116"><ele>703.0</ele><time>2026-04-18T13:14:30Z</time></trkpt><trkpt lat="44.5735147831524" lon="10.193378839693596"><ele>703.0</ele><time>2026-04-18T13:14:31Z</time></trkpt><trkpt lat="44.57355307641989" lon="10.193186140103291"><ele>703.0</ele><time>2026-04-18T13:14:32Z</time></trkpt><trkpt lat="44.57359044992869" lon="10.19299830326718"><ele>703.0</ele><time>2026-04-18T13:14:33Z</time></trkpt><trkpt lat="44.57363262444136" lon="10.192820216881605"><ele>703.0</ele><time>2026-04-18T13:14:34Z</time></trkpt><trkpt lat="44.57367259405694" lon="10.192647623984874"><ele>706.0</ele><time>2026-04-18T13:14:35Z</time></trkpt><trkpt lat="44.57370404002085" lon="10.19249144888768"><ele>709.0</ele><time>2026-04-18T13:14:36Z</time></trkpt><trkpt lat="44.57374873582693" lon="10.192358046892961"><ele>712.0</ele><time>2026-04-18T13:14:37Z</time></trkpt><trkpt lat="44.57377633272081" lon="10.192225091446593"><ele>715.0</ele><time>2026-04-18T13:14:38Z</time></trkpt><trkpt lat="44.57379011534678" lon="10.192075805131541"><ele>718.0</ele><time>2026-04-18T13:14:39Z</time></trkpt><trkpt lat="44.57382286703898" lon="10.191933017347141"><ele>718.0</ele><time>2026-04-18T13:14:40Z</time></trkpt><trkpt lat="44.573863737860705" lon="10.191804277763232"><ele>718.0</ele><time>2026-04-18T13:14:41Z</time></trkpt><trkpt lat="44.57387370418257" lon="10.191677529059483"><ele>718.0</ele><time>2026-04-18T13:14:42Z</time></trkpt><trkpt lat="44.57390003246885" lon="10.191560959125702"><ele>718.0</ele><time>2026-04-18T13:14:43Z</time></trkpt><trkpt lat="44.57393176563849" lon="10.191435895239925"><ele>718.0</ele><time>2026-04-18T13:14:44Z</time></trkpt><trkpt lat="44.57396199287042" lon="10.191309322528427"><ele>717.6666666666667</ele><time>2026-04-18T13:14:45Z</time></trkpt><trkpt lat="44.57398943410165" lon="10.191181516952666"><ele>717.3333333333334</ele><time>2026-04-18T13:14:46Z</time></trkpt><trkpt lat="44.57401639643661" lon="10.191061755976998"><ele>717.0</ele><time>2026-04-18T13:14:47Z</time></trkpt><trkpt lat="44.574043195307176" lon="10.190945078196776"><ele>716.6666666666666</ele><time>2026-04-18T13:14:48Z</time></trkpt><trkpt lat="44.574062761512934" lon="10.190845712257492"><ele>716.3333333333333</ele><time>2026-04-18T13:14:49Z</time></trkpt><trkpt lat="44.574085558673914" lon="10.190752616694667"><ele>716.0</ele><time>2026-04-18T13:14:50Z</time></trkpt><trkpt lat="44.574136002666435" lon="10.190621713880846"><ele>715.3333333333333</ele><time>2026-04-18T13:14:52Z</time></trkpt><trkpt lat="44.57417722890539" lon="10.190526372376535"><ele>714.6666666666666</ele><time>2026-04-18T13:14:58Z</time></trkpt><trkpt lat="44.57419645959347" lon="10.190435073408963"><ele>714.0</ele><time>2026-04-18T13:16:26Z</time></trkpt><trkpt lat="44.574209288362546" lon="10.190293814899391"><ele>713.3333333333334</ele><time>2026-04-18T13:16:29Z</time></trkpt><trkpt lat="44.57424412963324" lon="10.190189678278506"><ele>712.6666666666667</ele><time>2026-04-18T13:16:30Z</time></trkpt><trkpt lat="44.574288179751434" lon="10.19010901778995"><ele>712.0</ele><time>2026-04-18T13:16:31Z</time></trkpt><trkpt lat="44.57433906434303" lon="10.190017473534331"><ele>712.0</ele><time>2026-04-18T13:16:32Z</time></trkpt><trkpt lat="44.5743896862761" lon="10.189923485442723"><ele>712.0</ele><time>2026-04-18T13:16:33Z</time></trkpt><trkpt lat="44.57443625610465" lon="10.189825700353838"><ele>712.0</ele><time>2026-04-18T13:16:34Z</time></trkpt><trkpt lat="44.57449164031544" lon="10.189727013149408"><ele>712.0</ele><time>2026-04-18T13:16:35Z</time></trkpt><trkpt lat="44.574521116835776" lon="10.189610038266363"><ele>712.0</ele><time>2026-04-18T13:16:36Z</time></trkpt><trkpt lat="44.574538922644074" lon="10.189481953136013"><ele>712.0</ele><time>2026-04-18T13:16:37Z</time></trkpt><trkpt lat="44.5745467872375" lon="10.189332788139183"><ele>716.6</ele><time>2026-04-18T13:16:38Z</time></trkpt><trkpt lat="44.57455067690815" lon="10.189175025332279"><ele>721.2</ele><time>2026-04-18T13:16:39Z</time></trkpt><trkpt lat="44.57455445480203" lon="10.189027802029328"><ele>725.8</ele><time>2026-04-18T13:16:40Z</time></trkpt><trkpt lat="44.57456013912207" lon="10.188873909614898"><ele>730.4</ele><time>2026-04-18T13:16:41Z</time></trkpt><trkpt lat="44.57455812230141" lon="10.188717437615558"><ele>735.0</ele><time>2026-04-18T13:16:42Z</time></trkpt><trkpt lat="44.57459182666046" lon="10.188569376345328"><ele>735.0</ele><time>2026-04-18T13:16:43Z</time></trkpt><trkpt lat="44.57460547515617" lon="10.188406555298378"><ele>735.0</ele><time>2026-04-18T13:16:44Z</time></trkpt><trkpt lat="44.574642488557465" lon="10.188254547726356"><ele>735.0</ele><time>2026-04-18T13:16:45Z</time></trkpt><trkpt lat="44.574684637347595" lon="10.188107272191115"><ele>735.0</ele><time>2026-04-18T13:16:46Z</time></trkpt><trkpt lat="44.574724772762494" lon="10.187963257546413"><ele>736.25</ele><time>2026-04-18T13:16:47Z</time></trkpt><trkpt lat="44.57476760214573" lon="10.187820581255817"><ele>737.5</ele><time>2026-04-18T13:16:48Z</time></trkpt><trkpt lat="44.574794432905954" lon="10.187674615068063"><ele>738.75</ele><time>2026-04-18T13:16:49Z</time></trkpt><trkpt lat="44.57481728866834" lon="10.18752164633004"><ele>740.0</ele><time>2026-04-18T13:16:50Z</time></trkpt><trkpt lat="44.574818819412776" lon="10.187350231685476"><ele>742.0</ele><time>2026-04-18T13:16:51Z</time></trkpt><trkpt lat="44.57479792938472" lon="10.187165787231699"><ele>744.0</ele><time>2026-04-18T13:16:52Z</time></trkpt><trkpt lat="44.574762828517684" lon="10.186992768915381"><ele>746.0</ele><time>2026-04-18T13:16:53Z</time></trkpt><trkpt lat="44.57473054942883" lon="10.186812377642495"><ele>748.0</ele><time>2026-04-18T13:16:54Z</time></trkpt><trkpt lat="44.57470957616947" lon="10.18663919089577"><ele>748.5</ele><time>2026-04-18T13:16:55Z</time></trkpt><trkpt lat="44.574723984497176" lon="10.186477077895205"><ele>749.0</ele><time>2026-04-18T13:16:56Z</time></trkpt><trkpt lat="44.574740328280875" lon="10.18631242258958"><ele>749.5</ele><time>2026-04-18T13:16:57Z</time></trkpt><trkpt lat="44.5748376721135" lon="10.186169089876852"><ele>750.0</ele><time>2026-04-18T13:16:58Z</time></trkpt><trkpt lat="44.57490659929156" lon="10.185998283066475"><ele>750.0</ele><time>2026-04-18T13:16:59Z</time></trkpt><trkpt lat="44.574948620398196" lon="10.185834730585595"><ele>750.0</ele><time>2026-04-18T13:17:00Z</time></trkpt><trkpt lat="44.57493889813064" lon="10.18564508127129"><ele>750.0</ele><time>2026-04-18T13:17:01Z</time></trkpt><trkpt lat="44.57490009613526" lon="10.185438016407069"><ele>750.0</ele><time>2026-04-18T13:17:02Z</time></trkpt><trkpt lat="44.574844125726294" lon="10.185230159275655"><ele>752.0</ele><time>2026-04-18T13:17:03Z</time></trkpt><trkpt lat="44.574791213245355" lon="10.185027207720298"><ele>754.0</ele><time>2026-04-18T13:17:04Z</time></trkpt><trkpt lat="44.57476633919958" lon="10.184822670201282"><ele>756.0</ele><time>2026-04-18T13:17:05Z</time></trkpt><trkpt lat="44.5747105879629" lon="10.184628513777689"><ele>759.0</ele><time>2026-04-18T13:17:06Z</time></trkpt><trkpt lat="44.57467015566455" lon="10.184423410761433"><ele>762.0</ele><time>2026-04-18T13:17:07Z</time></trkpt><trkpt lat="44.574629277943494" lon="10.18421796129532"><ele>765.0</ele><time>2026-04-18T13:17:08Z</time></trkpt><trkpt lat="44.57458878189699" lon="10.184013620917538"><ele>768.0</ele><time>2026-04-18T13:17:09Z</time></trkpt><trkpt lat="44.57455361522425" lon="10.183812992323945"><ele>771.0</ele><time>2026-04-18T13:17:10Z</time></trkpt><trkpt lat="44.574515599162446" lon="10.183605545553702"><ele>774.0</ele><time>2026-04-18T13:17:11Z</time></trkpt><trkpt lat="44.57447397200644" lon="10.1834100202259"><ele>777.0</ele><time>2026-04-18T13:17:12Z</time></trkpt><trkpt lat="44.5744410223295" lon="10.183209661765124"><ele>771.0</ele><time>2026-04-18T13:17:13Z</time></trkpt><trkpt lat="44.57440185529267" lon="10.183012460251751"><ele>765.0</ele><time>2026-04-18T13:17:14Z</time></trkpt><trkpt lat="44.57435489671906" lon="10.182813144862221"><ele>759.0</ele><time>2026-04-18T13:17:15Z</time></trkpt><trkpt lat="44.57436500607684" lon="10.182597395282725"><ele>753.0</ele><time>2026-04-18T13:17:16Z</time></trkpt><trkpt lat="44.57438088560283" lon="10.182386296708364"><ele>752.25</ele><time>2026-04-18T13:17:17Z</time></trkpt><trkpt lat="44.574412650589146" lon="10.182178160576026"><ele>751.5</ele><time>2026-04-18T13:17:18Z</time></trkpt><trkpt lat="44.57446367129123" lon="10.18199004927758"><ele>750.75</ele><time>2026-04-18T13:17:19Z</time></trkpt><trkpt lat="44.574543743756145" lon="10.181830580566086"><ele>750.0</ele><time>2026-04-18T13:17:20Z</time></trkpt><trkpt lat="44.57464641421492" lon="10.181685343163666"><ele>757.0</ele><time>2026-04-18T13:17:21Z</time></trkpt><trkpt lat="44.57472045725385" lon="10.18151667984926"><ele>764.0</ele><time>2026-04-18T13:17:22Z</time></trkpt><trkpt lat="44.57477782950092" lon="10.181340435016649"><ele>771.0</ele><time>2026-04-18T13:17:23Z</time></trkpt><trkpt lat="44.574839777700085" lon="10.18118120130392"><ele>778.0</ele><time>2026-04-18T13:17:24Z</time></trkpt><trkpt lat="44.57491272792871" lon="10.18103880918383"><ele>778.0</ele><time>2026-04-18T13:17:25Z</time></trkpt><trkpt lat="44.574991678389395" lon="10.180896909276038"><ele>778.0</ele><time>2026-04-18T13:17:26Z</time></trkpt><trkpt lat="44.5750715088167" lon="10.180752945443622"><ele>778.0</ele><time>2026-04-18T13:17:27Z</time></trkpt><trkpt lat="44.57514291157059" lon="10.180605398797987"><ele>778.0</ele><time>2026-04-18T13:17:28Z</time></trkpt><trkpt lat="44.575219026008845" lon="10.180458425377156"><ele>777.75</ele><time>2026-04-18T13:17:29Z</time></trkpt><trkpt lat="44.575235773778296" lon="10.180264241007793"><ele>777.5</ele><time>2026-04-18T13:17:30Z</time></trkpt><trkpt lat="44.57524613562298" lon="10.180072964192043"><ele>777.25</ele><time>2026-04-18T13:17:31Z</time></trkpt><trkpt lat="44.5752450206468" lon="10.179865625473063"><ele>777.0</ele><time>2026-04-18T13:17:31.999Z</time></trkpt><trkpt lat="44.575235640940804" lon="10.179658965966345"><ele>777.0</ele><time>2026-04-18T13:17:32.999Z</time></trkpt><trkpt lat="44.57522644487799" lon="10.1794551160953"><ele>777.0</ele><time>2026-04-18T13:17:33.999Z</time></trkpt><trkpt lat="44.57522409949278" lon="10.179254291593871"><ele>777.0</ele><time>2026-04-18T13:17:34.999Z</time></trkpt><trkpt lat="44.575226892342776" lon="10.17904929737312"><ele>777.0</ele><time>2026-04-18T13:17:35.999Z</time></trkpt><trkpt lat="44.57522792965111" lon="10.178856114012152"><ele>779.0</ele><time>2026-04-18T13:17:36.999Z</time></trkpt><trkpt lat="44.57522260539067" lon="10.178670908263244"><ele>781.0</ele><time>2026-04-18T13:17:37.999Z</time></trkpt><trkpt lat="44.57521763018328" lon="10.178480821047156"><ele>783.0</ele><time>2026-04-18T13:17:38.999Z</time></trkpt><trkpt lat="44.575233631332225" lon="10.17828935996754"><ele>785.0</ele><time>2026-04-18T13:17:39.999Z</time></trkpt><trkpt lat="44.575241703940385" lon="10.178101534068878"><ele>786.3333333333334</ele><time>2026-04-18T13:17:40.999Z</time></trkpt><trkpt lat="44.575269349293166" lon="10.17790643636479"><ele>787.6666666666667</ele><time>2026-04-18T13:17:41.999Z</time></trkpt><trkpt lat="44.575329519983576" lon="10.177710831643683"><ele>789.0</ele><time>2026-04-18T13:17:42.999Z</time></trkpt><trkpt lat="44.57538631679495" lon="10.177499967644302"><ele>799.3333333333333</ele><time>2026-04-18T13:17:43.999Z</time></trkpt><trkpt lat="44.575459391897155" lon="10.177296286414164"><ele>809.6666666666666</ele><time>2026-04-18T13:17:44.999Z</time></trkpt><trkpt lat="44.575524463995556" lon="10.177105746494059"><ele>820.0</ele><time>2026-04-18T13:17:45.999Z</time></trkpt><trkpt lat="44.57559040638898" lon="10.176903420253597"><ele>820.0</ele><time>2026-04-18T13:17:46.999Z</time></trkpt><trkpt lat="44.57562862354927" lon="10.176697595478004"><ele>820.0</ele><time>2026-04-18T13:17:47.999Z</time></trkpt><trkpt lat="44.57562627369449" lon="10.17648445180884"><ele>820.0</ele><time>2026-04-18T13:17:48.999Z</time></trkpt><trkpt lat="44.57557520066955" lon="10.176277340624143"><ele>823.6666666666666</ele><time>2026-04-18T13:17:49.999Z</time></trkpt><trkpt lat="44.575478492001714" lon="10.176074475340078"><ele>827.3333333333333</ele><time>2026-04-18T13:17:50.999Z</time></trkpt><trkpt lat="44.5753362563632" lon="10.175897361317334"><ele>831.0</ele><time>2026-04-18T13:17:51.999Z</time></trkpt><trkpt lat="44.57526482919749" lon="10.175800954803147"><ele>826.0</ele><time>2026-04-18T13:17:52.999Z</time></trkpt><trkpt lat="44.575134749096506" lon="10.175671445781333"><ele>821.0</ele><time>2026-04-18T13:17:53.999Z</time></trkpt><trkpt lat="44.575036784468736" lon="10.175519062479175"><ele>816.0</ele><time>2026-04-18T13:17:54.999Z</time></trkpt><trkpt lat="44.57502329672023" lon="10.175310168080475"><ele>816.0</ele><time>2026-04-18T13:17:55.999Z</time></trkpt><trkpt lat="44.57501032389865" lon="10.1750833285857"><ele>816.0</ele><time>2026-04-18T13:17:56.999Z</time></trkpt><trkpt lat="44.57499518457752" lon="10.174843902891759"><ele>816.0</ele><time>2026-04-18T13:17:57.999Z</time></trkpt><trkpt lat="44.57498033030123" lon="10.174608984104951"><ele>818.6666666666667</ele><time>2026-04-18T13:17:58.999Z</time></trkpt><trkpt lat="44.574966992525596" lon="10.174398049278086"><ele>821.3333333333334</ele><time>2026-04-18T13:17:59.999Z</time></trkpt><trkpt lat="44.57495301766877" lon="10.17417963910741"><ele>824.0</ele><time>2026-04-18T13:18:00.999Z</time></trkpt><trkpt lat="44.574938186719315" lon="10.173950551768366"><ele>825.0</ele><time>2026-04-18T13:18:01.999Z</time></trkpt><trkpt lat="44.57492314594277" lon="10.173718223060611"><ele>826.0</ele><time>2026-04-18T13:18:02.999Z</time></trkpt><trkpt lat="44.57489178997343" lon="10.17349019061295"><ele>827.0</ele><time>2026-04-18T13:18:03.999Z</time></trkpt><trkpt lat="44.574878313755" lon="10.173270114665014"><ele>830.3333333333334</ele><time>2026-04-18T13:18:04.999Z</time></trkpt><trkpt lat="44.5748589151955" lon="10.173061006853994"><ele>833.6666666666667</ele><time>2026-04-18T13:18:05.999Z</time></trkpt><trkpt lat="44.57481122805016" lon="10.172866503815554"><ele>837.0</ele><time>2026-04-18T13:18:06.999Z</time></trkpt><trkpt lat="44.57471155333559" lon="10.172695715999575"><ele>837.0</ele><time>2026-04-18T13:18:07.999Z</time></trkpt><trkpt lat="44.574580971907146" lon="10.172558067353092"><ele>837.0</ele><time>2026-04-18T13:18:08.999Z</time></trkpt><trkpt lat="44.57447323523888" lon="10.17242547031098"><ele>837.0</ele><time>2026-04-18T13:18:09.999Z</time></trkpt><trkpt lat="44.57443017323951" lon="10.172253129876236"><ele>837.0</ele><time>2026-04-18T13:18:10.999Z</time></trkpt><trkpt lat="44.57447064293208" lon="10.17207174348727"><ele>833.6666666666667</ele><time>2026-04-18T13:18:11.999Z</time></trkpt><trkpt lat="44.57449463362276" lon="10.17184302592397"><ele>830.3333333333334</ele><time>2026-04-18T13:18:12.999Z</time></trkpt><trkpt lat="44.574526179408146" lon="10.171606489196321"><ele>827.0</ele><time>2026-04-18T13:18:13.999Z</time></trkpt><trkpt lat="44.57458445070582" lon="10.171400364030742"><ele>835.25</ele><time>2026-04-18T13:18:14.999Z</time></trkpt><trkpt lat="44.57464516569958" lon="10.171189029580125"><ele>843.5</ele><time>2026-04-18T13:18:15.999Z</time></trkpt><trkpt lat="44.574685291861705" lon="10.171025043463688"><ele>851.75</ele><time>2026-04-18T13:18:16.999Z</time></trkpt><trkpt lat="44.574665690077204" lon="10.170851012468573"><ele>860.0</ele><time>2026-04-18T13:18:17.999Z</time></trkpt><trkpt lat="44.57460093073303" lon="10.170686003304308"><ele>856.3333333333334</ele><time>2026-04-18T13:18:18.999Z</time></trkpt><trkpt lat="44.57450999640888" lon="10.170522720635306"><ele>852.6666666666667</ele><time>2026-04-18T13:18:19.999Z</time></trkpt><trkpt lat="44.57440452125323" lon="10.170358527831233"><ele>849.0</ele><time>2026-04-18T13:18:20.999Z</time></trkpt><trkpt lat="44.57432156636219" lon="10.170163586728892"><ele>849.0</ele><time>2026-04-18T13:18:21.999Z</time></trkpt><trkpt lat="44.57421238146644" lon="10.169985233482894"><ele>849.0</ele><time>2026-04-18T13:18:22.999Z</time></trkpt><trkpt lat="44.57411744040983" lon="10.16978518074157"><ele>849.0</ele><time>2026-04-18T13:18:23.999Z</time></trkpt><trkpt lat="44.574026041311875" lon="10.169602699915044"><ele>848.0</ele><time>2026-04-18T13:18:24.999Z</time></trkpt><trkpt lat="44.573938146620925" lon="10.169432016172275"><ele>847.0</ele><time>2026-04-18T13:18:26Z</time></trkpt><trkpt lat="44.5738534191425" lon="10.169265131949594"><ele>846.0</ele><time>2026-04-18T13:18:27Z</time></trkpt><trkpt lat="44.57377881422861" lon="10.169113014451321"><ele>845.0</ele><time>2026-04-18T13:18:28Z</time></trkpt><trkpt lat="44.57370713222385" lon="10.168971567978328"><ele>845.0</ele><time>2026-04-18T13:18:29Z</time></trkpt><trkpt lat="44.573644862911294" lon="10.168837122276914"><ele>845.0</ele><time>2026-04-18T13:18:30Z</time></trkpt><trkpt lat="44.57361102712935" lon="10.168691028899026"><ele>845.0</ele><time>2026-04-18T13:18:31Z</time></trkpt><trkpt lat="44.57364086598323" lon="10.16853573769947"><ele>845.0</ele><time>2026-04-18T13:18:32Z</time></trkpt><trkpt lat="44.57369492513958" lon="10.168393390300237"><ele>845.0</ele><time>2026-04-18T13:18:33Z</time></trkpt><trkpt lat="44.57378935475147" lon="10.168308243240888"><ele>845.0</ele><time>2026-04-18T13:18:34Z</time></trkpt><trkpt lat="44.573903806393446" lon="10.168221890527223"><ele>845.0</ele><time>2026-04-18T13:18:35Z</time></trkpt><trkpt lat="44.57402646877691" lon="10.16812714416122"><ele>845.0</ele><time>2026-04-18T13:18:36Z</time></trkpt><trkpt lat="44.57415754447528" lon="10.168044064214428"><ele>844.5</ele><time>2026-04-18T13:18:37Z</time></trkpt><trkpt lat="44.57428364918705" lon="10.16795400341"><ele>844.0</ele><time>2026-04-18T13:18:38Z</time></trkpt><trkpt lat="44.574404116570285" lon="10.167869068366425"><ele>843.5</ele><time>2026-04-18T13:18:39Z</time></trkpt><trkpt lat="44.574523614413785" lon="10.16779896671117"><ele>843.0</ele><time>2026-04-18T13:18:40Z</time></trkpt><trkpt lat="44.574636785520205" lon="10.167718974132823"><ele>843.0</ele><time>2026-04-18T13:18:41Z</time></trkpt><trkpt lat="44.57472755544643" lon="10.167593646671333"><ele>843.0</ele><time>2026-04-18T13:18:42Z</time></trkpt><trkpt lat="44.574795973274206" lon="10.167429315223371"><ele>843.0</ele><time>2026-04-18T13:18:43Z</time></trkpt><trkpt lat="44.57484640532084" lon="10.167251218764875"><ele>843.0</ele><time>2026-04-18T13:18:44Z</time></trkpt><trkpt lat="44.57488416992674" lon="10.167076846953597"><ele>840.25</ele><time>2026-04-18T13:18:45Z</time></trkpt><trkpt lat="44.57492463766976" lon="10.16690063741945"><ele>837.5</ele><time>2026-04-18T13:18:46Z</time></trkpt><trkpt lat="44.574971110598895" lon="10.166741403795111"><ele>834.75</ele><time>2026-04-18T13:18:47Z</time></trkpt><trkpt lat="44.57502106484329" lon="10.166586636963574"><ele>832.0</ele><time>2026-04-18T13:18:48Z</time></trkpt><trkpt lat="44.575085290271396" lon="10.166439158349501"><ele>833.25</ele><time>2026-04-18T13:18:49Z</time></trkpt><trkpt lat="44.575175443329066" lon="10.166327547496223"><ele>834.5</ele><time>2026-04-18T13:18:50Z</time></trkpt><trkpt lat="44.57531069476508" lon="10.166314288746548"><ele>835.75</ele><time>2026-04-18T13:18:51Z</time></trkpt><trkpt lat="44.57541128841473" lon="10.166232473308467"><ele>837.0</ele><time>2026-04-18T13:18:52Z</time></trkpt><trkpt lat="44.57549474047881" lon="10.166116452048382"><ele>837.0</ele><time>2026-04-18T13:18:53Z</time></trkpt><trkpt lat="44.57553477580422" lon="10.16594018216084"><ele>837.0</ele><time>2026-04-18T13:18:54Z</time></trkpt><trkpt lat="44.57552672405106" lon="10.165732512221858"><ele>837.0</ele><time>2026-04-18T13:18:55Z</time></trkpt><trkpt lat="44.57546216428189" lon="10.165532461956591"><ele>837.0</ele><time>2026-04-18T13:18:56Z</time></trkpt><trkpt lat="44.57535333215686" lon="10.16536315172072"><ele>833.75</ele><time>2026-04-18T13:18:57Z</time></trkpt><trkpt lat="44.57526089105099" lon="10.165205926735421"><ele>830.5</ele><time>2026-04-18T13:18:58Z</time></trkpt><trkpt lat="44.57525521790972" lon="10.165033006429226"><ele>827.25</ele><time>2026-04-18T13:18:59Z</time></trkpt><trkpt lat="44.57527341488274" lon="10.164858250381727"><ele>824.0</ele><time>2026-04-18T13:19:00Z</time></trkpt><trkpt lat="44.575368146528284" lon="10.164687261129039"><ele>824.0</ele><time>2026-04-18T13:19:01Z</time></trkpt><trkpt lat="44.57543565275625" lon="10.164464517885003"><ele>824.0</ele><time>2026-04-18T13:19:02Z</time></trkpt><trkpt lat="44.5754872473792" lon="10.16423763152803"><ele>824.0</ele><time>2026-04-18T13:19:03Z</time></trkpt><trkpt lat="44.57550200930641" lon="10.16400625561914"><ele>819.0</ele><time>2026-04-18T13:19:04Z</time></trkpt><trkpt lat="44.57554853049952" lon="10.16379748831098"><ele>814.0</ele><time>2026-04-18T13:19:05Z</time></trkpt><trkpt lat="44.575616679400405" lon="10.163594955305069"><ele>809.0</ele><time>2026-04-18T13:19:06Z</time></trkpt><trkpt lat="44.57570112361563" lon="10.163380536700606"><ele>802.6666666666667</ele><time>2026-04-18T13:19:07Z</time></trkpt><trkpt lat="44.57578838154344" lon="10.163175440921494"><ele>796.3333333333333</ele><time>2026-04-18T13:19:08Z</time></trkpt><trkpt lat="44.575884959191576" lon="10.163002871684203"><ele>790.0</ele><time>2026-04-18T13:19:09Z</time></trkpt><trkpt lat="44.57600799203239" lon="10.162882493949601"><ele>790.0</ele><time>2026-04-18T13:19:10Z</time></trkpt><trkpt lat="44.57616592467727" lon="10.162787563743933"><ele>790.0</ele><time>2026-04-18T13:19:11Z</time></trkpt><trkpt lat="44.57630189923944" lon="10.162692591396535"><ele>790.0</ele><time>2026-04-18T13:19:12Z</time></trkpt><trkpt lat="44.57642504725567" lon="10.162552320509395"><ele>790.6666666666666</ele><time>2026-04-18T13:19:13Z</time></trkpt><trkpt lat="44.57651411994257" lon="10.162331924121137"><ele>791.3333333333333</ele><time>2026-04-18T13:19:14Z</time></trkpt><trkpt lat="44.576551094928355" lon="10.162091526460811"><ele>792.0</ele><time>2026-04-18T13:19:15Z</time></trkpt><trkpt lat="44.5766311818592" lon="10.161862080204362"><ele>792.0</ele><time>2026-04-18T13:19:16Z</time></trkpt><trkpt lat="44.5767035173622" lon="10.161633171411966"><ele>792.0</ele><time>2026-04-18T13:19:17Z</time></trkpt><trkpt lat="44.57677304773856" lon="10.161424317293061"><ele>792.0</ele><time>2026-04-18T13:19:18Z</time></trkpt><trkpt lat="44.57684698123631" lon="10.161231514689144"><ele>792.6666666666667</ele><time>2026-04-18T13:19:19Z</time></trkpt><trkpt lat="44.576964179822006" lon="10.16109874703691"><ele>793.3333333333334</ele><time>2026-04-18T13:19:20Z</time></trkpt><trkpt lat="44.57708436035514" lon="10.160945595485492"><ele>794.0</ele><time>2026-04-18T13:19:21Z</time></trkpt><trkpt lat="44.57720262704143" lon="10.160776795161379"><ele>785.3333333333334</ele><time>2026-04-18T13:19:22Z</time></trkpt><trkpt lat="44.57728766704952" lon="10.160532984573797"><ele>776.6666666666667</ele><time>2026-04-18T13:19:23Z</time></trkpt><trkpt lat="44.577395623213306" lon="10.160330282225575"><ele>768.0</ele><time>2026-04-18T13:19:24Z</time></trkpt><trkpt lat="44.57747428293554" lon="10.160194041510271"><ele>768.0</ele><time>2026-04-18T13:19:25Z</time></trkpt><trkpt lat="44.57755683493301" lon="10.160132107580864"><ele>768.0</ele><time>2026-04-18T13:19:26Z</time></trkpt><trkpt lat="44.57765444629503" lon="10.160154289366414"><ele>768.0</ele><time>2026-04-18T13:19:27Z</time></trkpt><trkpt lat="44.577781635441234" lon="10.160218389449506"><ele>768.0</ele><time>2026-04-18T13:19:28Z</time></trkpt><trkpt lat="44.57791575780183" lon="10.160325931662452"><ele>767.25</ele><time>2026-04-18T13:19:29Z</time></trkpt><trkpt lat="44.57804885745308" lon="10.160400616559244"><ele>766.5</ele><time>2026-04-18T13:19:30Z</time></trkpt><trkpt lat="44.57818979707223" lon="10.16041470388342"><ele>765.75</ele><time>2026-04-18T13:19:31Z</time></trkpt><trkpt lat="44.5783288131564" lon="10.160349278535342"><ele>765.0</ele><time>2026-04-18T13:19:32Z</time></trkpt><trkpt lat="44.578463448765966" lon="10.160233780236425"><ele>765.0</ele><time>2026-04-18T13:19:33Z</time></trkpt><trkpt lat="44.57858457559043" lon="10.160123836922155"><ele>765.0</ele><time>2026-04-18T13:19:34Z</time></trkpt><trkpt lat="44.578713096419186" lon="10.160089831538661"><ele>765.0</ele><time>2026-04-18T13:19:35Z</time></trkpt><trkpt lat="44.57883998639035" lon="10.16010355774682"><ele>765.0</ele><time>2026-04-18T13:19:35.999Z</time></trkpt><trkpt lat="44.57894281250767" lon="10.16020284804157"><ele>767.6666666666667</ele><time>2026-04-18T13:19:36.999Z</time></trkpt><trkpt lat="44.57903888119101" lon="10.160352482810243"><ele>770.3333333333334</ele><time>2026-04-18T13:19:37.999Z</time></trkpt><trkpt lat="44.57912441389595" lon="10.160546915591535"><ele>773.0</ele><time>2026-04-18T13:19:38.999Z</time></trkpt><trkpt lat="44.579210672998144" lon="10.160720334276176"><ele>773.0</ele><time>2026-04-18T13:19:39.999Z</time></trkpt><trkpt lat="44.579300858834785" lon="10.160875306893745"><ele>773.0</ele><time>2026-04-18T13:19:40.999Z</time></trkpt><trkpt lat="44.579389647301994" lon="10.161025482891073"><ele>773.0</ele><time>2026-04-18T13:19:41.999Z</time></trkpt><trkpt lat="44.579479550236144" lon="10.161146997710276"><ele>773.0</ele><time>2026-04-18T13:19:42.999Z</time></trkpt><trkpt lat="44.57958764390032" lon="10.161192602673"><ele>767.6666666666667</ele><time>2026-04-18T13:19:43.999Z</time></trkpt><trkpt lat="44.579717120212194" lon="10.161143551693726"><ele>762.3333333333334</ele><time>2026-04-18T13:19:44.999Z</time></trkpt><trkpt lat="44.579846797532014" lon="10.16100589874977"><ele>757.0</ele><time>2026-04-18T13:19:45.999Z</time></trkpt><trkpt lat="44.579963034171605" lon="10.160832572893659"><ele>757.0</ele><time>2026-04-18T13:19:46.999Z</time></trkpt><trkpt lat="44.58008950780559" lon="10.160712194720203"><ele>757.0</ele><time>2026-04-18T13:19:47.999Z</time></trkpt><trkpt lat="44.58024333530544" lon="10.160628679978581"><ele>757.0</ele><time>2026-04-18T13:19:48.999Z</time></trkpt><trkpt lat="44.58040086523036" lon="10.160537828425092"><ele>751.6666666666667</ele><time>2026-04-18T13:19:49.999Z</time></trkpt><trkpt lat="44.58055272477148" lon="10.160477612256642"><ele>746.3333333333334</ele><time>2026-04-18T13:19:50.999Z</time></trkpt><trkpt lat="44.5806938778777" lon="10.160406342897044"><ele>741.0</ele><time>2026-04-18T13:19:51.999Z</time></trkpt><trkpt lat="44.58082977598292" lon="10.160328834496596"><ele>741.0</ele><time>2026-04-18T13:19:52.999Z</time></trkpt><trkpt lat="44.58095840134427" lon="10.160252294511869"><ele>741.0</ele><time>2026-04-18T13:19:53.999Z</time></trkpt><trkpt lat="44.5810834543607" lon="10.160207411300973"><ele>741.0</ele><time>2026-04-18T13:19:54.999Z</time></trkpt><trkpt lat="44.58120402436234" lon="10.16013065276079"><ele>741.0</ele><time>2026-04-18T13:19:55.999Z</time></trkpt><trkpt lat="44.58132217946143" lon="10.160072862291674"><ele>740.75</ele><time>2026-04-18T13:19:56.999Z</time></trkpt><trkpt lat="44.58143169452287" lon="10.160019529317347"><ele>740.5</ele><time>2026-04-18T13:19:57.999Z</time></trkpt><trkpt lat="44.58154308120798" lon="10.159980524814682"><ele>740.25</ele><time>2026-04-18T13:19:58.999Z</time></trkpt><trkpt lat="44.58165302805221" lon="10.15999869142861"><ele>740.0</ele><time>2026-04-18T13:19:59.999Z</time></trkpt><trkpt lat="44.58175757170472" lon="10.16006972627961"><ele>740.0</ele><time>2026-04-18T13:20:00.999Z</time></trkpt><trkpt lat="44.58183236164051" lon="10.160222063161921"><ele>740.0</ele><time>2026-04-18T13:20:01.999Z</time></trkpt><trkpt lat="44.581926553131524" lon="10.160386949348672"><ele>740.0</ele><time>2026-04-18T13:20:02.999Z</time></trkpt><trkpt lat="44.58200761821659" lon="10.160561104442726"><ele>740.0</ele><time>2026-04-18T13:20:03.999Z</time></trkpt><trkpt lat="44.58209722972662" lon="10.16073110958739"><ele>736.75</ele><time>2026-04-18T13:20:04.999Z</time></trkpt><trkpt lat="44.58216628232977" lon="10.160904948154403"><ele>733.5</ele><time>2026-04-18T13:20:05.999Z</time></trkpt><trkpt lat="44.582220240389255" lon="10.161079047610226"><ele>730.25</ele><time>2026-04-18T13:20:06.999Z</time></trkpt><trkpt lat="44.58228961513955" lon="10.161240763705555"><ele>727.0</ele><time>2026-04-18T13:20:07.999Z</time></trkpt><trkpt lat="44.58237959253578" lon="10.161380524214058"><ele>727.0</ele><time>2026-04-18T13:20:08.999Z</time></trkpt><trkpt lat="44.58248928978168" lon="10.161513813719889"><ele>727.0</ele><time>2026-04-18T13:20:09.999Z</time></trkpt><trkpt lat="44.58260155148232" lon="10.161645516553374"><ele>727.0</ele><time>2026-04-18T13:20:10.999Z</time></trkpt><trkpt lat="44.58270388796315" lon="10.161777127623349"><ele>727.0</ele><time>2026-04-18T13:20:11.999Z</time></trkpt><trkpt lat="44.582796262922436" lon="10.161915239702896"><ele>725.5</ele><time>2026-04-18T13:20:12.999Z</time></trkpt><trkpt lat="44.58288499280723" lon="10.162045056401626"><ele>724.0</ele><time>2026-04-18T13:20:13.999Z</time></trkpt><trkpt lat="44.582978017511834" lon="10.162164521838362"><ele>722.5</ele><time>2026-04-18T13:20:14.999Z</time></trkpt><trkpt lat="44.58307914164204" lon="10.16226504707657"><ele>721.0</ele><time>2026-04-18T13:20:15.999Z</time></trkpt><trkpt lat="44.58320638230875" lon="10.162331793867292"><ele>721.0</ele><time>2026-04-18T13:20:16.999Z</time></trkpt><trkpt lat="44.583349099910805" lon="10.16233278658469"><ele>721.0</ele><time>2026-04-18T13:20:17.999Z</time></trkpt><trkpt lat="44.583496643492225" lon="10.162257513762398"><ele>721.0</ele><time>2026-04-18T13:20:18.999Z</time></trkpt><trkpt lat="44.58363716660455" lon="10.16213475989253"><ele>725.0</ele><time>2026-04-18T13:20:19.999Z</time></trkpt><trkpt lat="44.58376163714208" lon="10.161997792313699"><ele>729.0</ele><time>2026-04-18T13:20:20.999Z</time></trkpt><trkpt lat="44.58385869253323" lon="10.16183226365219"><ele>733.0</ele><time>2026-04-18T13:20:21.999Z</time></trkpt><trkpt lat="44.58392744514837" lon="10.161633116220404"><ele>727.3333333333334</ele><time>2026-04-18T13:20:22.999Z</time></trkpt><trkpt lat="44.58398460274268" lon="10.161421039434659"><ele>721.6666666666666</ele><time>2026-04-18T13:20:23.999Z</time></trkpt><trkpt lat="44.584075850519596" lon="10.16123606491509"><ele>716.0</ele><time>2026-04-18T13:20:24.999Z</time></trkpt><trkpt lat="44.58415909935076" lon="10.161031314306125"><ele>716.0</ele><time>2026-04-18T13:20:25.999Z</time></trkpt><trkpt lat="44.58424212521882" lon="10.160861784366185"><ele>716.0</ele><time>2026-04-18T13:20:26.999Z</time></trkpt><trkpt lat="44.58431158192164" lon="10.160683571545817"><ele>716.0</ele><time>2026-04-18T13:20:27.999Z</time></trkpt><trkpt lat="44.58437436246941" lon="10.1605063654212"><ele>716.0</ele><time>2026-04-18T13:20:28.999Z</time></trkpt><trkpt lat="44.584439891775546" lon="10.160324103505685"><ele>715.0</ele><time>2026-04-18T13:20:29.999Z</time></trkpt><trkpt lat="44.58449530440248" lon="10.160131055922557"><ele>714.0</ele><time>2026-04-18T13:20:30.999Z</time></trkpt><trkpt lat="44.584530417599396" lon="10.159920580239756"><ele>713.0</ele><time>2026-04-18T13:20:32Z</time></trkpt><trkpt lat="44.58456369691591" lon="10.159720787760126"><ele>712.0</ele><time>2026-04-18T13:20:33Z</time></trkpt><trkpt lat="44.58461962913957" lon="10.159536131432404"><ele>709.25</ele><time>2026-04-18T13:20:34Z</time></trkpt><trkpt lat="44.58464634949162" lon="10.159349857931675"><ele>706.5</ele><time>2026-04-18T13:20:35Z</time></trkpt><trkpt lat="44.584715704216016" lon="10.159215581951365"><ele>703.75</ele><time>2026-04-18T13:20:36Z</time></trkpt><trkpt lat="44.58479052247433" lon="10.159130745179228"><ele>701.0</ele><time>2026-04-18T13:20:37Z</time></trkpt><trkpt lat="44.584889045833755" lon="10.159093717188426"><ele>701.0</ele><time>2026-04-18T13:20:38Z</time></trkpt><trkpt lat="44.584996345128005" lon="10.159189358260404"><ele>701.0</ele><time>2026-04-18T13:20:39Z</time></trkpt><trkpt lat="44.585092245808724" lon="10.159317140989849"><ele>701.0</ele><time>2026-04-18T13:20:40Z</time></trkpt><trkpt lat="44.585110926360045" lon="10.15951516207913"><ele>701.0</ele><time>2026-04-18T13:20:41Z</time></trkpt><trkpt lat="44.58514659191471" lon="10.15968929832186"><ele>701.0</ele><time>2026-04-18T13:20:42Z</time></trkpt><trkpt lat="44.58520822288194" lon="10.15980237755289"><ele>701.0</ele><time>2026-04-18T13:20:43Z</time></trkpt><trkpt lat="44.58530638495751" lon="10.159853700837662"><ele>701.0</ele><time>2026-04-18T13:20:44Z</time></trkpt><trkpt lat="44.58542233510357" lon="10.159841988450033"><ele>701.0</ele><time>2026-04-18T13:20:45Z</time></trkpt><trkpt lat="44.58553709758245" lon="10.15977941113257"><ele>701.0</ele><time>2026-04-18T13:20:46Z</time></trkpt><trkpt lat="44.58564078181684" lon="10.159692270330504"><ele>700.25</ele><time>2026-04-18T13:20:47Z</time></trkpt><trkpt lat="44.5857446579153" lon="10.159598770809046"><ele>699.5</ele><time>2026-04-18T13:20:48Z</time></trkpt><trkpt lat="44.585853001767674" lon="10.1595203834399"><ele>698.75</ele><time>2026-04-18T13:20:49Z</time></trkpt><trkpt lat="44.58596015086302" lon="10.159452165839445"><ele>698.0</ele><time>2026-04-18T13:20:50Z</time></trkpt><trkpt lat="44.58606699961844" lon="10.159374950890342"><ele>698.0</ele><time>2026-04-18T13:20:51Z</time></trkpt><trkpt lat="44.58617717702035" lon="10.159299004042982"><ele>698.0</ele><time>2026-04-18T13:20:52Z</time></trkpt><trkpt lat="44.58628318690351" lon="10.159222005680299"><ele>698.0</ele><time>2026-04-18T13:20:53Z</time></trkpt><trkpt lat="44.58638374897401" lon="10.159150617586329"><ele>698.0</ele><time>2026-04-18T13:20:54Z</time></trkpt><trkpt lat="44.586485605010864" lon="10.159078011934511"><ele>698.75</ele><time>2026-04-18T13:20:55Z</time></trkpt><trkpt lat="44.58659290055559" lon="10.159003221800772"><ele>699.5</ele><time>2026-04-18T13:20:56Z</time></trkpt><trkpt lat="44.586700254402345" lon="10.158925121880104"><ele>700.25</ele><time>2026-04-18T13:20:57Z</time></trkpt><trkpt lat="44.58679891044434" lon="10.158843416031274"><ele>701.0</ele><time>2026-04-18T13:20:58Z</time></trkpt><trkpt lat="44.58689284972019" lon="10.158745531004653"><ele>701.0</ele><time>2026-04-18T13:20:59Z</time></trkpt><trkpt lat="44.58695761901615" lon="10.15860873011805"><ele>701.0</ele><time>2026-04-18T13:21:00Z</time></trkpt><trkpt lat="44.58698154455635" lon="10.15843793355032"><ele>701.0</ele><time>2026-04-18T13:21:01Z</time></trkpt><trkpt lat="44.586984761110784" lon="10.158263382721819"><ele>701.0</ele><time>2026-04-18T13:21:02Z</time></trkpt><trkpt lat="44.586994550532765" lon="10.158088896602157"><ele>699.75</ele><time>2026-04-18T13:21:03Z</time></trkpt><trkpt lat="44.58701362365633" lon="10.157925444972477"><ele>698.5</ele><time>2026-04-18T13:21:04Z</time></trkpt><trkpt lat="44.587038259443105" lon="10.157768315208754"><ele>697.25</ele><time>2026-04-18T13:21:05Z</time></trkpt><trkpt lat="44.5871076135396" lon="10.1576453693649"><ele>696.0</ele><time>2026-04-18T13:21:06Z</time></trkpt><trkpt lat="44.58720363151612" lon="10.157564569835937"><ele>696.0</ele><time>2026-04-18T13:21:07Z</time></trkpt><trkpt lat="44.587317334692194" lon="10.157472999099598"><ele>696.0</ele><time>2026-04-18T13:21:08Z</time></trkpt><trkpt lat="44.58744287784722" lon="10.15741544070652"><ele>696.0</ele><time>2026-04-18T13:21:09Z</time></trkpt><trkpt lat="44.58756007993962" lon="10.157318337271839"><ele>696.0</ele><time>2026-04-18T13:21:10Z</time></trkpt><trkpt lat="44.587660228759894" lon="10.15720116372066"><ele>697.5</ele><time>2026-04-18T13:21:11Z</time></trkpt><trkpt lat="44.587736809262786" lon="10.157038496881162"><ele>699.0</ele><time>2026-04-18T13:21:12Z</time></trkpt><trkpt lat="44.587803027014566" lon="10.15687580996331"><ele>700.5</ele><time>2026-04-18T13:21:13Z</time></trkpt><trkpt lat="44.587857389193594" lon="10.156713430645302"><ele>702.0</ele><time>2026-04-18T13:21:14Z</time></trkpt><trkpt lat="44.58787583704753" lon="10.156522563591777"><ele>702.0</ele><time>2026-04-18T13:21:15Z</time></trkpt><trkpt lat="44.587859791737884" lon="10.15632145818184"><ele>702.0</ele><time>2026-04-18T13:21:16Z</time></trkpt><trkpt lat="44.587884406080846" lon="10.15611956933226"><ele>702.0</ele><time>2026-04-18T13:21:17Z</time></trkpt><trkpt lat="44.587889806248256" lon="10.155919982055021"><ele>702.0</ele><time>2026-04-18T13:21:18Z</time></trkpt><trkpt lat="44.58791741542141" lon="10.15572513793654"><ele>702.75</ele><time>2026-04-18T13:21:19Z</time></trkpt><trkpt lat="44.58792936302201" lon="10.155540992275961"><ele>703.5</ele><time>2026-04-18T13:21:20Z</time></trkpt><trkpt lat="44.58792755057959" lon="10.155348481177985"><ele>704.25</ele><time>2026-04-18T13:21:21Z</time></trkpt><trkpt lat="44.58789775655478" lon="10.15514404685495"><ele>705.0</ele><time>2026-04-18T13:21:22Z</time></trkpt><trkpt lat="44.587836296327126" lon="10.154940385233315"><ele>693.0</ele><time>2026-04-18T13:21:23Z</time></trkpt><trkpt lat="44.587780461204865" lon="10.154739712168722"><ele>681.0</ele><time>2026-04-18T13:21:24Z</time></trkpt><trkpt lat="44.5877795051623" lon="10.154518966558056"><ele>669.0</ele><time>2026-04-18T13:21:25Z</time></trkpt><trkpt lat="44.58776834994508" lon="10.154316606111744"><ele>669.0</ele><time>2026-04-18T13:21:26Z</time></trkpt><trkpt lat="44.58776202929136" lon="10.154116786910986"><ele>669.0</ele><time>2026-04-18T13:21:27Z</time></trkpt><trkpt lat="44.58771950438441" lon="10.153940448175735"><ele>669.0</ele><time>2026-04-18T13:21:28Z</time></trkpt><trkpt lat="44.58762785459366" lon="10.153775041746652"><ele>669.0</ele><time>2026-04-18T13:21:29Z</time></trkpt><trkpt lat="44.58754455946921" lon="10.153608838980176"><ele>669.25</ele><time>2026-04-18T13:21:30Z</time></trkpt><trkpt lat="44.58747621664406" lon="10.153441335549454"><ele>669.5</ele><time>2026-04-18T13:21:31Z</time></trkpt><trkpt lat="44.58746056964591" lon="10.153246579425714"><ele>669.75</ele><time>2026-04-18T13:21:32Z</time></trkpt><trkpt lat="44.587462136908655" lon="10.153029548306627"><ele>670.0</ele><time>2026-04-18T13:21:33Z</time></trkpt><trkpt lat="44.58745533270942" lon="10.152810432780793"><ele>670.0</ele><time>2026-04-18T13:21:34Z</time></trkpt><trkpt lat="44.58746030317347" lon="10.152601007335905"><ele>670.0</ele><time>2026-04-18T13:21:35Z</time></trkpt><trkpt lat="44.58745172183882" lon="10.152392928387853"><ele>670.0</ele><time>2026-04-18T13:21:36Z</time></trkpt><trkpt lat="44.58746664518291" lon="10.152195486756908"><ele>670.0</ele><time>2026-04-18T13:21:37Z</time></trkpt><trkpt lat="44.58746560014162" lon="10.151994158025"><ele>667.5</ele><time>2026-04-18T13:21:38Z</time></trkpt><trkpt lat="44.58750531365104" lon="10.151806270330598"><ele>665.0</ele><time>2026-04-18T13:21:39Z</time></trkpt><trkpt lat="44.587622087438156" lon="10.151673671248762"><ele>662.5</ele><time>2026-04-18T13:21:40Z</time></trkpt><trkpt lat="44.58773792559776" lon="10.151542241755182"><ele>660.0</ele><time>2026-04-18T13:21:40.999Z</time></trkpt><trkpt lat="44.58785547923011" lon="10.151410684790676"><ele>660.0</ele><time>2026-04-18T13:21:41.999Z</time></trkpt><trkpt lat="44.587970562771716" lon="10.151284394062657"><ele>660.0</ele><time>2026-04-18T13:21:42.999Z</time></trkpt><trkpt lat="44.588076989350405" lon="10.151152427143902"><ele>660.0</ele><time>2026-04-18T13:21:43.999Z</time></trkpt><trkpt lat="44.58817535285101" lon="10.151021291361845"><ele>660.0</ele><time>2026-04-18T13:21:44.999Z</time></trkpt><trkpt lat="44.58826594361773" lon="10.15085968884134"><ele>656.25</ele><time>2026-04-18T13:21:45.999Z</time></trkpt><trkpt lat="44.5883303924864" lon="10.15067194313941"><ele>652.5</ele><time>2026-04-18T13:21:46.999Z</time></trkpt><trkpt lat="44.58837507354814" lon="10.150472855115202"><ele>648.75</ele><time>2026-04-18T13:21:47.999Z</time></trkpt><trkpt lat="44.58842205543586" lon="10.150279053034536"><ele>645.0</ele><time>2026-04-18T13:21:48.999Z</time></trkpt><trkpt lat="44.58848052159179" lon="10.150108688490265"><ele>645.0</ele><time>2026-04-18T13:21:49.999Z</time></trkpt><trkpt lat="44.58854222739586" lon="10.149951672853378"><ele>645.0</ele><time>2026-04-18T13:21:50.999Z</time></trkpt><trkpt lat="44.58865195003421" lon="10.14984180384412"><ele>645.0</ele><time>2026-04-18T13:21:51.999Z</time></trkpt><trkpt lat="44.58877948870466" lon="10.149760445692275"><ele>645.0</ele><time>2026-04-18T13:21:52.999Z</time></trkpt><trkpt lat="44.58891817977988" lon="10.149677425546653"><ele>642.6666666666666</ele><time>2026-04-18T13:21:53.999Z</time></trkpt><trkpt lat="44.589053477265544" lon="10.149584221808796"><ele>640.3333333333333</ele><time>2026-04-18T13:21:54.999Z</time></trkpt><trkpt lat="44.589196141885985" lon="10.149511414259017"><ele>638.0</ele><time>2026-04-18T13:21:55.999Z</time></trkpt><trkpt lat="44.58934144996813" lon="10.149460201991909"><ele>638.0</ele><time>2026-04-18T13:21:56.999Z</time></trkpt><trkpt lat="44.58949388021947" lon="10.149408246044107"><ele>638.0</ele><time>2026-04-18T13:21:57.999Z</time></trkpt><trkpt lat="44.58964949726739" lon="10.14934497649651"><ele>638.0</ele><time>2026-04-18T13:21:58.999Z</time></trkpt><trkpt lat="44.58980631867172" lon="10.149306687540456"><ele>637.6666666666666</ele><time>2026-04-18T13:21:59.999Z</time></trkpt><trkpt lat="44.589960407099184" lon="10.149255838849509"><ele>637.3333333333334</ele><time>2026-04-18T13:22:00.999Z</time></trkpt><trkpt lat="44.590103907005286" lon="10.149175558669384"><ele>637.0</ele><time>2026-04-18T13:22:01.999Z</time></trkpt><trkpt lat="44.59023707981788" lon="10.149055479505158"><ele>633.6666666666667</ele><time>2026-04-18T13:22:02.999Z</time></trkpt><trkpt lat="44.59035167876365" lon="10.148897453081668"><ele>630.3333333333334</ele><time>2026-04-18T13:22:03.999Z</time></trkpt><trkpt lat="44.590494125762255" lon="10.148801989337189"><ele>627.0</ele><time>2026-04-18T13:22:04.999Z</time></trkpt><trkpt lat="44.59062224263742" lon="10.148681966495987"><ele>627.0</ele><time>2026-04-18T13:22:05.999Z</time></trkpt><trkpt lat="44.590754801797985" lon="10.1485902482199"><ele>627.0</ele><time>2026-04-18T13:22:06.999Z</time></trkpt><trkpt lat="44.59088559554652" lon="10.148485269623716"><ele>627.0</ele><time>2026-04-18T13:22:07.999Z</time></trkpt><trkpt lat="44.59100081646668" lon="10.148368841428908"><ele>627.0</ele><time>2026-04-18T13:22:08.999Z</time></trkpt><trkpt lat="44.59109521846369" lon="10.14823770425897"><ele>622.6666666666666</ele><time>2026-04-18T13:22:09.999Z</time></trkpt><trkpt lat="44.59114718116593" lon="10.148050679545412"><ele>618.3333333333333</ele><time>2026-04-18T13:22:10.999Z</time></trkpt><trkpt lat="44.591144626518734" lon="10.147831397146465"><ele>614.0</ele><time>2026-04-18T13:22:11.999Z</time></trkpt><trkpt lat="44.59110725643429" lon="10.147610330669641"><ele>614.0</ele><time>2026-04-18T13:22:12.999Z</time></trkpt><trkpt lat="44.59107513190278" lon="10.147391578076258"><ele>614.0</ele><time>2026-04-18T13:22:13.999Z</time></trkpt><trkpt lat="44.591114297914416" lon="10.14719667263386"><ele>614.0</ele><time>2026-04-18T13:22:14.999Z</time></trkpt><trkpt lat="44.59118778798459" lon="10.147019888288318"><ele>614.0</ele><time>2026-04-18T13:22:15.999Z</time></trkpt><trkpt lat="44.591274840287824" lon="10.146805385817279"><ele>615.6666666666666</ele><time>2026-04-18T13:22:16.999Z</time></trkpt><trkpt lat="44.591355751652166" lon="10.146596291375129"><ele>617.3333333333334</ele><time>2026-04-18T13:22:17.999Z</time></trkpt><trkpt lat="44.591401497859835" lon="10.146376768169873"><ele>619.0</ele><time>2026-04-18T13:22:18.999Z</time></trkpt><trkpt lat="44.59143679886728" lon="10.146159845249677"><ele>619.0</ele><time>2026-04-18T13:22:19.999Z</time></trkpt><trkpt lat="44.5914875505008" lon="10.145961827508724"><ele>619.0</ele><time>2026-04-18T13:22:20.999Z</time></trkpt><trkpt lat="44.591539219577434" lon="10.14577172235771"><ele>619.0</ele><time>2026-04-18T13:22:21.999Z</time></trkpt><trkpt lat="44.59157035806377" lon="10.145581469348427"><ele>619.0</ele><time>2026-04-18T13:22:22.999Z</time></trkpt><trkpt lat="44.59156278480786" lon="10.145371517440879"><ele>616.0</ele><time>2026-04-18T13:22:23.999Z</time></trkpt><trkpt lat="44.591519752777884" lon="10.145147222340965"><ele>613.0</ele><time>2026-04-18T13:22:24.999Z</time></trkpt><trkpt lat="44.591482137632845" lon="10.144929428743321"><ele>610.0</ele><time>2026-04-18T13:22:25.999Z</time></trkpt><trkpt lat="44.59145929741223" lon="10.14471828709789"><ele>607.25</ele><time>2026-04-18T13:22:26.999Z</time></trkpt><trkpt lat="44.591436385234296" lon="10.144512518620898"><ele>604.5</ele><time>2026-04-18T13:22:27.999Z</time></trkpt><trkpt lat="44.59141422168033" lon="10.144317189881173"><ele>601.75</ele><time>2026-04-18T13:22:28.999Z</time></trkpt><trkpt lat="44.59139468940958" lon="10.14412405207713"><ele>599.0</ele><time>2026-04-18T13:22:29.999Z</time></trkpt><trkpt lat="44.59140622954871" lon="10.143954789388603"><ele>598.75</ele><time>2026-04-18T13:22:30.999Z</time></trkpt><trkpt lat="44.591434732944236" lon="10.143805734185635"><ele>598.5</ele><time>2026-04-18T13:22:31.999Z</time></trkpt><trkpt lat="44.591520184582315" lon="10.143699497793548"><ele>598.25</ele><time>2026-04-18T13:22:32.999Z</time></trkpt><trkpt lat="44.59163320735678" lon="10.143629321349415"><ele>598.0</ele><time>2026-04-18T13:22:33.999Z</time></trkpt><trkpt lat="44.591767415258715" lon="10.143641094792768"><ele>598.0</ele><time>2026-04-18T13:22:34.999Z</time></trkpt><trkpt lat="44.591896110194334" lon="10.143727929550085"><ele>598.0</ele><time>2026-04-18T13:22:35.999Z</time></trkpt><trkpt lat="44.592031200023854" lon="10.14383654530898"><ele>598.0</ele><time>2026-04-18T13:22:36.999Z</time></trkpt><trkpt lat="44.59217231802137" lon="10.143928380598433"><ele>596.5</ele><time>2026-04-18T13:22:38Z</time></trkpt><trkpt lat="44.592302404333935" lon="10.144041239611928"><ele>595.0</ele><time>2026-04-18T13:22:39Z</time></trkpt><trkpt lat="44.59242754508627" lon="10.144139775927009"><ele>593.5</ele><time>2026-04-18T13:22:40Z</time></trkpt><trkpt lat="44.59255064305174" lon="10.144226744821639"><ele>592.0</ele><time>2026-04-18T13:22:41Z</time></trkpt><trkpt lat="44.592682324692504" lon="10.14429427616607"><ele>592.0</ele><time>2026-04-18T13:22:42Z</time></trkpt><trkpt lat="44.592830321449206" lon="10.144309947346528"><ele>592.0</ele><time>2026-04-18T13:22:43Z</time></trkpt><trkpt lat="44.59298156913855" lon="10.14425843717262"><ele>592.0</ele><time>2026-04-18T13:22:44Z</time></trkpt><trkpt lat="44.59312815653042" lon="10.144154311225979"><ele>586.6666666666667</ele><time>2026-04-18T13:22:45Z</time></trkpt><trkpt lat="44.59326358908103" lon="10.144026473185653"><ele>581.3333333333334</ele><time>2026-04-18T13:22:46Z</time></trkpt><trkpt lat="44.59340207868057" lon="10.143903453175268"><ele>576.0</ele><time>2026-04-18T13:22:47Z</time></trkpt><trkpt lat="44.59353722889835" lon="10.143800015587114"><ele>577.25</ele><time>2026-04-18T13:22:48Z</time></trkpt><trkpt lat="44.59367565928954" lon="10.143702282968391"><ele>578.5</ele><time>2026-04-18T13:22:49Z</time></trkpt><trkpt lat="44.59380596611423" lon="10.143613659339696"><ele>579.75</ele><time>2026-04-18T13:22:50Z</time></trkpt><trkpt lat="44.593929354618986" lon="10.143516251566238"><ele>581.0</ele><time>2026-04-18T13:22:51Z</time></trkpt><trkpt lat="44.594050516978974" lon="10.14342762425507"><ele>581.0</ele><time>2026-04-18T13:22:52Z</time></trkpt><trkpt lat="44.59416972207511" lon="10.143339680226639"><ele>581.0</ele><time>2026-04-18T13:22:53Z</time></trkpt><trkpt lat="44.59427919037384" lon="10.143243467615514"><ele>581.0</ele><time>2026-04-18T13:22:54Z</time></trkpt><trkpt lat="44.59434496344974" lon="10.143069427128738"><ele>581.0</ele><time>2026-04-18T13:22:55Z</time></trkpt><trkpt lat="44.594357012372264" lon="10.142843789091096"><ele>575.6666666666666</ele><time>2026-04-18T13:22:56Z</time></trkpt><trkpt lat="44.594327138920555" lon="10.142605865798773"><ele>570.3333333333334</ele><time>2026-04-18T13:22:57Z</time></trkpt><trkpt lat="44.5943358716076" lon="10.142381841937276"><ele>565.0</ele><time>2026-04-18T13:22:58Z</time></trkpt><trkpt lat="44.594353241003624" lon="10.142175003148463"><ele>569.3333333333334</ele><time>2026-04-18T13:22:59Z</time></trkpt><trkpt lat="44.59441791558967" lon="10.141987112520281"><ele>573.6666666666666</ele><time>2026-04-18T13:23:00Z</time></trkpt><trkpt lat="44.59452350890713" lon="10.141844641691655"><ele>578.0</ele><time>2026-04-18T13:23:01Z</time></trkpt><trkpt lat="44.59465143384932" lon="10.141677588514298"><ele>571.6666666666666</ele><time>2026-04-18T13:23:02Z</time></trkpt><trkpt lat="44.59475011952796" lon="10.141497215952215"><ele>565.3333333333334</ele><time>2026-04-18T13:23:03Z</time></trkpt><trkpt lat="44.59484159658832" lon="10.14131640723357"><ele>559.0</ele><time>2026-04-18T13:23:04Z</time></trkpt><trkpt lat="44.594892026276646" lon="10.141124342779134"><ele>559.0</ele><time>2026-04-18T13:23:05Z</time></trkpt><trkpt lat="44.59494317197114" lon="10.140923753595745"><ele>559.0</ele><time>2026-04-18T13:23:06Z</time></trkpt><trkpt lat="44.59499828810811" lon="10.14072265463515"><ele>559.0</ele><time>2026-04-18T13:23:07Z</time></trkpt><trkpt lat="44.595058030015345" lon="10.140539606166039"><ele>559.0</ele><time>2026-04-18T13:23:08Z</time></trkpt><trkpt lat="44.59511727116666" lon="10.140356476622234"><ele>555.5</ele><time>2026-04-18T13:23:09Z</time></trkpt><trkpt lat="44.59517417248117" lon="10.140176924917222"><ele>552.0</ele><time>2026-04-18T13:23:10Z</time></trkpt><trkpt lat="44.59522705748117" lon="10.140003313797324"><ele>548.5</ele><time>2026-04-18T13:23:11Z</time></trkpt><trkpt lat="44.595277385875285" lon="10.139822997501389"><ele>545.0</ele><time>2026-04-18T13:23:12Z</time></trkpt><trkpt lat="44.595322048811866" lon="10.139652273628512"><ele>543.5</ele><time>2026-04-18T13:23:13Z</time></trkpt><trkpt lat="44.59535845754051" lon="10.13948456717614"><ele>542.0</ele><time>2026-04-18T13:23:14Z</time></trkpt><trkpt lat="44.59536432230118" lon="10.139316583634399"><ele>540.5</ele><time>2026-04-18T13:23:15Z</time></trkpt><trkpt lat="44.595323564594686" lon="10.13912397159975"><ele>539.0</ele><time>2026-04-18T13:23:16Z</time></trkpt><trkpt lat="44.595262033804744" lon="10.138909507843533"><ele>539.0</ele><time>2026-04-18T13:23:17Z</time></trkpt><trkpt lat="44.59519590509702" lon="10.13867933079162"><ele>539.0</ele><time>2026-04-18T13:23:18Z</time></trkpt><trkpt lat="44.59513153426157" lon="10.138455773112087"><ele>539.0</ele><time>2026-04-18T13:23:19Z</time></trkpt><trkpt lat="44.595057764277556" lon="10.138248585046147"><ele>540.0</ele><time>2026-04-18T13:23:20Z</time></trkpt><trkpt lat="44.59500976693294" lon="10.13804248855888"><ele>541.0</ele><time>2026-04-18T13:23:21Z</time></trkpt><trkpt lat="44.594951316276244" lon="10.13784286532112"><ele>542.0</ele><time>2026-04-18T13:23:22Z</time></trkpt><trkpt lat="44.59489003432041" lon="10.137656358088202"><ele>542.0</ele><time>2026-04-18T13:23:23Z</time></trkpt><trkpt lat="44.59482090338687" lon="10.13746776838665"><ele>542.0</ele><time>2026-04-18T13:23:24Z</time></trkpt><trkpt lat="44.594746153686074" lon="10.137273491030225"><ele>542.0</ele><time>2026-04-18T13:23:25Z</time></trkpt><trkpt lat="44.59467286571681" lon="10.137089701443289"><ele>541.0</ele><time>2026-04-18T13:23:26Z</time></trkpt><trkpt lat="44.594607897907835" lon="10.136899824352295"><ele>540.0</ele><time>2026-04-18T13:23:27Z</time></trkpt><trkpt lat="44.5945858324453" lon="10.136695726196148"><ele>539.0</ele><time>2026-04-18T13:23:28Z</time></trkpt><trkpt lat="44.594591278519815" lon="10.136487759141058"><ele>538.0</ele><time>2026-04-18T13:23:29Z</time></trkpt><trkpt lat="44.5946233068379" lon="10.136280593267596"><ele>534.3333333333334</ele><time>2026-04-18T13:23:30Z</time></trkpt><trkpt lat="44.59470852271804" lon="10.136088693197363"><ele>530.6666666666666</ele><time>2026-04-18T13:23:31Z</time></trkpt><trkpt lat="44.594836129422646" lon="10.135943849476714"><ele>527.0</ele><time>2026-04-18T13:23:32Z</time></trkpt><trkpt lat="44.594963564685735" lon="10.135763487258878"><ele>524.3333333333333</ele><time>2026-04-18T13:23:33Z</time></trkpt><trkpt lat="44.595102718615244" lon="10.135621503199104"><ele>521.6666666666666</ele><time>2026-04-18T13:23:34Z</time></trkpt><trkpt lat="44.59522993939487" lon="10.135470114895979"><ele>519.0</ele><time>2026-04-18T13:23:35Z</time></trkpt><trkpt lat="44.59535890272306" lon="10.135318359278836"><ele>519.0</ele><time>2026-04-18T13:23:36Z</time></trkpt><trkpt lat="44.59548858205785" lon="10.13516278198596"><ele>519.0</ele><time>2026-04-18T13:23:37Z</time></trkpt><trkpt lat="44.595617002887046" lon="10.135008587650576"><ele>519.0</ele><time>2026-04-18T13:23:38Z</time></trkpt><trkpt lat="44.595744451644755" lon="10.134853375248905"><ele>514.0</ele><time>2026-04-18T13:23:39Z</time></trkpt><trkpt lat="44.59586671368448" lon="10.134708026921952"><ele>509.0</ele><time>2026-04-18T13:23:40Z</time></trkpt><trkpt lat="44.59600817749242" lon="10.134610017522528"><ele>504.0</ele><time>2026-04-18T13:23:41Z</time></trkpt><trkpt lat="44.59614736863021" lon="10.134498531848983"><ele>506.0</ele><time>2026-04-18T13:23:42Z</time></trkpt><trkpt lat="44.59631440921538" lon="10.134426210070329"><ele>508.0</ele><time>2026-04-18T13:23:43Z</time></trkpt><trkpt lat="44.596470013902" lon="10.134346678524635"><ele>510.0</ele><time>2026-04-18T13:23:44Z</time></trkpt><trkpt lat="44.59660972822679" lon="10.134242065645871"><ele>510.0</ele><time>2026-04-18T13:23:45Z</time></trkpt><trkpt lat="44.59671521202553" lon="10.134073734463973"><ele>510.0</ele><time>2026-04-18T13:23:46Z</time></trkpt><trkpt lat="44.596805579504704" lon="10.133861865829743"><ele>510.0</ele><time>2026-04-18T13:23:46.999Z</time></trkpt><trkpt lat="44.596889357872584" lon="10.133635851863337"><ele>506.66666666666663</ele><time>2026-04-18T13:23:47.999Z</time></trkpt><trkpt lat="44.59700026835043" lon="10.133458889376753"><ele>503.3333333333333</ele><time>2026-04-18T13:23:48.999Z</time></trkpt><trkpt lat="44.59710927801393" lon="10.133289778423302"><ele>500.0</ele><time>2026-04-18T13:23:49.999Z</time></trkpt><trkpt lat="44.59726883903936" lon="10.133205573870663"><ele>494.66666666666663</ele><time>2026-04-18T13:23:50.999Z</time></trkpt><trkpt lat="44.59743848107983" lon="10.133118139286658"><ele>489.33333333333337</ele><time>2026-04-18T13:23:51.999Z</time></trkpt><trkpt lat="44.597610494376475" lon="10.133021565870443"><ele>484.0</ele><time>2026-04-18T13:23:52.999Z</time></trkpt><trkpt lat="44.59777844799236" lon="10.132949540100489"><ele>484.0</ele><time>2026-04-18T13:23:53.999Z</time></trkpt><trkpt lat="44.597944206335065" lon="10.132862501866816"><ele>484.0</ele><time>2026-04-18T13:23:54.999Z</time></trkpt><trkpt lat="44.59810154591696" lon="10.132778224067536"><ele>484.0</ele><time>2026-04-18T13:23:55.999Z</time></trkpt><trkpt lat="44.59825786993551" lon="10.132699263133002"><ele>484.0</ele><time>2026-04-18T13:23:56.999Z</time></trkpt><trkpt lat="44.59841044457094" lon="10.13261762691608"><ele>484.0</ele><time>2026-04-18T13:23:57.999Z</time></trkpt><trkpt lat="44.59856825306446" lon="10.13253573817961"><ele>484.0</ele><time>2026-04-18T13:23:58.999Z</time></trkpt><trkpt lat="44.598728228359086" lon="10.132446611258189"><ele>479.33333333333337</ele><time>2026-04-18T13:23:59.999Z</time></trkpt><trkpt lat="44.598892748543065" lon="10.132363196936089"><ele>474.66666666666663</ele><time>2026-04-18T13:24:00.999Z</time></trkpt><trkpt lat="44.59905799287275" lon="10.132286081577982"><ele>470.0</ele><time>2026-04-18T13:24:01.999Z</time></trkpt><trkpt lat="44.599220643038194" lon="10.132207515154978"><ele>470.0</ele><time>2026-04-18T13:24:02.999Z</time></trkpt><trkpt lat="44.59937747934406" lon="10.132126784595682"><ele>470.0</ele><time>2026-04-18T13:24:03.999Z</time></trkpt><trkpt lat="44.59951868422738" lon="10.132035744142103"><ele>470.0</ele><time>2026-04-18T13:24:04.999Z</time></trkpt><trkpt lat="44.59964912723066" lon="10.13192285291666"><ele>470.0</ele><time>2026-04-18T13:24:05.999Z</time></trkpt><trkpt lat="44.59977501762423" lon="10.131796143798073"><ele>470.0</ele><time>2026-04-18T13:24:06.999Z</time></trkpt><trkpt lat="44.59989248479018" lon="10.131675608758663"><ele>470.0</ele><time>2026-04-18T13:24:07.999Z</time></trkpt><trkpt lat="44.60001459846748" lon="10.131560669817828"><ele>470.0</ele><time>2026-04-18T13:24:08.999Z</time></trkpt><trkpt lat="44.60014763539372" lon="10.131447549577688"><ele>468.3333333333333</ele><time>2026-04-18T13:24:09.999Z</time></trkpt><trkpt lat="44.60028615788367" lon="10.131340280014433"><ele>466.66666666666663</ele><time>2026-04-18T13:24:10.999Z</time></trkpt><trkpt lat="44.60041394529227" lon="10.131221525902543"><ele>465.0</ele><time>2026-04-18T13:24:11.999Z</time></trkpt><trkpt lat="44.600533635848414" lon="10.131091354464766"><ele>465.0</ele><time>2026-04-18T13:24:12.999Z</time></trkpt><trkpt lat="44.60063783679386" lon="10.130932645141034"><ele>465.0</ele><time>2026-04-18T13:24:13.999Z</time></trkpt><trkpt lat="44.600713904315626" lon="10.130728097214174"><ele>465.0</ele><time>2026-04-18T13:24:14.999Z</time></trkpt><trkpt lat="44.600771603679355" lon="10.130497412710099"><ele>460.66666666666663</ele><time>2026-04-18T13:24:15.999Z</time></trkpt><trkpt lat="44.600807916001415" lon="10.130248878499563"><ele>456.3333333333333</ele><time>2026-04-18T13:24:16.999Z</time></trkpt><trkpt lat="44.60084714764208" lon="10.129998998839126"><ele>452.0</ele><time>2026-04-18T13:24:17.999Z</time></trkpt><trkpt lat="44.600891478044836" lon="10.129755265585166"><ele>448.0</ele><time>2026-04-18T13:24:18.999Z</time></trkpt><trkpt lat="44.600940358754606" lon="10.129521326740937"><ele>444.0</ele><time>2026-04-18T13:24:19.999Z</time></trkpt><trkpt lat="44.60099301768134" lon="10.129298507030713"><ele>440.0</ele><time>2026-04-18T13:24:20.999Z</time></trkpt><trkpt lat="44.60107385719541" lon="10.129103952935067"><ele>438.0</ele><time>2026-04-18T13:24:21.999Z</time></trkpt><trkpt lat="44.60115243022006" lon="10.128900998947383"><ele>436.0</ele><time>2026-04-18T13:24:22.999Z</time></trkpt><trkpt lat="44.601260259140915" lon="10.128714854322261"><ele>434.0</ele><time>2026-04-18T13:24:23.999Z</time></trkpt><trkpt lat="44.60135863817406" lon="10.128528451371466"><ele>434.0</ele><time>2026-04-18T13:24:24.999Z</time></trkpt><trkpt lat="44.60144943045558" lon="10.128343961507388"><ele>434.0</ele><time>2026-04-18T13:24:25.999Z</time></trkpt><trkpt lat="44.60154140925219" lon="10.12815382310242"><ele>434.0</ele><time>2026-04-18T13:24:26.999Z</time></trkpt><trkpt lat="44.60163058027766" lon="10.127985695158474"><ele>430.3333333333333</ele><time>2026-04-18T13:24:27.999Z</time></trkpt><trkpt lat="44.601751227408805" lon="10.127857910965416"><ele>426.66666666666663</ele><time>2026-04-18T13:24:28.999Z</time></trkpt><trkpt lat="44.601859677800455" lon="10.127702162072955"><ele>423.0</ele><time>2026-04-18T13:24:29.999Z</time></trkpt><trkpt lat="44.60198070422585" lon="10.127561847119816"><ele>424.0</ele><time>2026-04-18T13:24:30.999Z</time></trkpt><trkpt lat="44.602095749692495" lon="10.12741604309152"><ele>425.0</ele><time>2026-04-18T13:24:31.999Z</time></trkpt><trkpt lat="44.60220400421423" lon="10.127269598320114"><ele>426.0</ele><time>2026-04-18T13:24:32.999Z</time></trkpt><trkpt lat="44.60230756263786" lon="10.127114047507323"><ele>423.0</ele><time>2026-04-18T13:24:33.999Z</time></trkpt><trkpt lat="44.60241434594499" lon="10.126954845312158"><ele>420.0</ele><time>2026-04-18T13:24:34.999Z</time></trkpt><trkpt lat="44.60250161235866" lon="10.126769154061783"><ele>417.0</ele><time>2026-04-18T13:24:35.999Z</time></trkpt><trkpt lat="44.6026007506596" lon="10.126581743405763"><ele>414.0</ele><time>2026-04-18T13:24:36.999Z</time></trkpt><trkpt lat="44.60268660647372" lon="10.12639950000345"><ele>411.0</ele><time>2026-04-18T13:24:37.999Z</time></trkpt><trkpt lat="44.60276805195059" lon="10.126222019271038"><ele>408.0</ele><time>2026-04-18T13:24:38.999Z</time></trkpt><trkpt lat="44.60285661307736" lon="10.12603638368511"><ele>408.0</ele><time>2026-04-18T13:24:39.999Z</time></trkpt><trkpt lat="44.602937613148626" lon="10.12586648149774"><ele>408.0</ele><time>2026-04-18T13:24:40.999Z</time></trkpt><trkpt lat="44.6030350824622" lon="10.125750224159171"><ele>408.0</ele><time>2026-04-18T13:24:41.999Z</time></trkpt><trkpt lat="44.60313345907294" lon="10.12566667322576"><ele>408.0</ele><time>2026-04-18T13:24:42.999Z</time></trkpt><trkpt lat="44.603248189273266" lon="10.125605973703031"><ele>406.0</ele><time>2026-04-18T13:24:44Z</time></trkpt><trkpt lat="44.60337251002542" lon="10.125533574057698"><ele>404.0</ele><time>2026-04-18T13:24:45Z</time></trkpt><trkpt lat="44.60348577440382" lon="10.125460180799246"><ele>402.0</ele><time>2026-04-18T13:24:46Z</time></trkpt><trkpt lat="44.60358971408174" lon="10.125361326228315"><ele>400.0</ele><time>2026-04-18T13:24:47Z</time></trkpt><trkpt lat="44.60368595419906" lon="10.125252333718594"><ele>399.4</ele><time>2026-04-18T13:24:48Z</time></trkpt><trkpt lat="44.603775535466625" lon="10.12517849216425"><ele>398.8</ele><time>2026-04-18T13:24:49Z</time></trkpt><trkpt lat="44.60385405447114" lon="10.125119875939848"><ele>398.20000000000005</ele><time>2026-04-18T13:24:50Z</time></trkpt><trkpt lat="44.603927568512674" lon="10.125067364452725"><ele>397.6</ele><time>2026-04-18T13:24:51Z</time></trkpt><trkpt lat="44.60399748160828" lon="10.125017518066569"><ele>397.0</ele><time>2026-04-18T13:24:52Z</time></trkpt><trkpt lat="44.60409122004969" lon="10.124937530324882"><ele>396.20000000000005</ele><time>2026-04-18T13:24:54Z</time></trkpt><trkpt lat="44.60412976462025" lon="10.124865505345266"><ele>395.4</ele><time>2026-04-18T13:24:56Z</time></trkpt><trkpt lat="44.60414888910387" lon="10.12476787230227"><ele>394.6</ele><time>2026-04-18T13:25:08Z</time></trkpt><trkpt lat="44.60407543621007" lon="10.124612237931473"><ele>393.79999999999995</ele><time>2026-04-18T13:25:10Z</time></trkpt><trkpt lat="44.603994446566404" lon="10.124558578070438"><ele>393.0</ele><time>2026-04-18T13:25:11Z</time></trkpt><trkpt lat="44.60389537996965" lon="10.124478914211954"><ele>393.0</ele><time>2026-04-18T13:25:12Z</time></trkpt><trkpt lat="44.60380948118209" lon="10.124393088179827"><ele>393.0</ele><time>2026-04-18T13:25:13Z</time></trkpt><trkpt lat="44.603715036473254" lon="10.12431393519549"><ele>393.0</ele><time>2026-04-18T13:25:14Z</time></trkpt><trkpt lat="44.6036185561059" lon="10.124230496851897"><ele>393.0</ele><time>2026-04-18T13:25:15Z</time></trkpt><trkpt lat="44.60352674428139" lon="10.124148433032714"><ele>393.0</ele><time>2026-04-18T13:25:16Z</time></trkpt><trkpt lat="44.60343573623887" lon="10.12406495622166"><ele>393.4</ele><time>2026-04-18T13:25:17Z</time></trkpt><trkpt lat="44.60334885170906" lon="10.123980969743505"><ele>393.79999999999995</ele><time>2026-04-18T13:25:18Z</time></trkpt><trkpt lat="44.60326516552379" lon="10.123901255626746"><ele>394.2</ele><time>2026-04-18T13:25:19Z</time></trkpt><trkpt lat="44.60317986026032" lon="10.12382354813342"><ele>394.6</ele><time>2026-04-18T13:25:20Z</time></trkpt><trkpt lat="44.60309213971711" lon="10.123747636158614"><ele>395.0</ele><time>2026-04-18T13:25:21Z</time></trkpt><trkpt lat="44.602997374145765" lon="10.1236639236806"><ele>395.0</ele><time>2026-04-18T13:25:22Z</time></trkpt><trkpt lat="44.6029034574186" lon="10.123583507774391"><ele>395.0</ele><time>2026-04-18T13:25:23Z</time></trkpt><trkpt lat="44.60281300972736" lon="10.123501652524153"><ele>395.0</ele><time>2026-04-18T13:25:24Z</time></trkpt><trkpt lat="44.602723477840506" lon="10.123424123133068"><ele>395.0</ele><time>2026-04-18T13:25:25Z</time></trkpt><trkpt lat="44.602638429714" lon="10.1233469447974"><ele>395.0</ele><time>2026-04-18T13:25:26Z</time></trkpt><trkpt lat="44.60256830745462" lon="10.123282481101363"><ele>394.8</ele><time>2026-04-18T13:25:27Z</time></trkpt><trkpt lat="44.602480085020446" lon="10.123213391166098"><ele>394.6</ele><time>2026-04-18T13:25:28Z</time></trkpt><trkpt lat="44.60239064227039" lon="10.123128829998883"><ele>394.4</ele><time>2026-04-18T13:25:29Z</time></trkpt><trkpt lat="44.602296441697035" lon="10.123045880907199"><ele>394.2</ele><time>2026-04-18T13:25:30Z</time></trkpt><trkpt lat="44.602195659483286" lon="10.122959554782431"><ele>394.0</ele><time>2026-04-18T13:25:31Z</time></trkpt><trkpt lat="44.602100593799285" lon="10.122874878082364"><ele>394.0</ele><time>2026-04-18T13:25:32Z</time></trkpt><trkpt lat="44.6020047581386" lon="10.122790831384423"><ele>394.0</ele><time>2026-04-18T13:25:33Z</time></trkpt><trkpt lat="44.60191171172984" lon="10.122710874534054"><ele>394.0</ele><time>2026-04-18T13:25:34Z</time></trkpt><trkpt lat="44.601820610882434" lon="10.122624647057542"><ele>394.0</ele><time>2026-04-18T13:25:35Z</time></trkpt><trkpt lat="44.60173169464767" lon="10.122553553158376"><ele>394.0</ele><time>2026-04-18T13:25:36Z</time></trkpt><trkpt lat="44.60164377703984" lon="10.12247276309253"><ele>394.33333333333337</ele><time>2026-04-18T13:25:37Z</time></trkpt><trkpt lat="44.60156757428149" lon="10.122401217617803"><ele>394.6666666666667</ele><time>2026-04-18T13:25:38Z</time></trkpt><trkpt lat="44.60149040746511" lon="10.122327921712447"><ele>395.0</ele><time>2026-04-18T13:25:39Z</time></trkpt><trkpt lat="44.60143596613237" lon="10.12226389917625"><ele>395.33333333333337</ele><time>2026-04-18T13:25:40Z</time></trkpt><trkpt lat="44.60138648585121" lon="10.122201076330546"><ele>395.6666666666667</ele><time>2026-04-18T13:25:41Z</time></trkpt><trkpt lat="44.601300438447375" lon="10.122117971985748"><ele>396.0</ele><time>2026-04-18T13:25:43Z</time></trkpt><trkpt lat="44.6011930927895" lon="10.122008946272611"><ele>396.6666666666667</ele><time>2026-04-18T13:25:45Z</time></trkpt><trkpt lat="44.60114205050403" lon="10.121931723646552"><ele>397.33333333333337</ele><time>2026-04-18T13:25:46Z</time></trkpt><trkpt lat="44.60109279251706" lon="10.121787237852976"><ele>398.0</ele><time>2026-04-18T13:25:48Z</time></trkpt><trkpt lat="44.60107928575084" lon="10.121654309152158"><ele>398.6666666666667</ele><time>2026-04-18T13:25:49.999Z</time></trkpt><trkpt lat="44.60109926480496" lon="10.121556140035358"><ele>399.33333333333337</ele><time>2026-04-18T13:25:51.999Z</time></trkpt><trkpt lat="44.60113487164428" lon="10.12145514269233"><ele>400.0</ele><time>2026-04-18T13:25:54.999Z</time></trkpt><trkpt lat="44.60114593350099" lon="10.121333620280332"><ele>400.00000000000006</ele><time>2026-04-18T13:25:58.999Z</time></trkpt><trkpt lat="44.60115179475409" lon="10.12121522460045"><ele>400.0</ele><time>2026-04-18T13:26:01.999Z</time></trkpt><trkpt lat="44.60121405835117" lon="10.121150752605976"><ele>400.0</ele><time>2026-04-18T13:26:03.999Z</time></trkpt><trkpt lat="44.60125830954188" lon="10.121074941133351"><ele>400.0</ele><time>2026-04-18T13:26:06.999Z</time></trkpt><trkpt lat="44.601268257269254" lon="10.120966286032337"><ele>400.00000000000006</ele><time>2026-04-18T13:26:10.999Z</time></trkpt><trkpt lat="44.60132739972392" lon="10.120935846956641"><ele>400.0</ele><time>2026-04-18T13:27:06Z</time></trkpt><trkpt lat="44.60136659098003" lon="10.120842680336114"><ele>399.4</ele><time>2026-04-18T13:27:09Z</time></trkpt><trkpt lat="44.60139905195426" lon="10.120764135077685"><ele>398.8</ele><time>2026-04-18T13:27:12Z</time></trkpt><trkpt lat="44.601438478696714" lon="10.12066417187407"><ele>398.20000000000005</ele><time>2026-04-18T13:27:32Z</time></trkpt><trkpt lat="44.60147767452427" lon="10.120563689637086"><ele>397.6</ele><time>2026-04-18T13:27:34Z</time></trkpt><trkpt lat="44.601533447277475" lon="10.12043667839206"><ele>397.0</ele><time>2026-04-18T13:27:36Z</time></trkpt><trkpt lat="44.60160130793814" lon="10.120295964374229"><ele>397.00000000000006</ele><time>2026-04-18T13:27:38Z</time></trkpt><trkpt lat="44.60164635584225" lon="10.120190854368323"><ele>397.0</ele><time>2026-04-18T13:27:39Z</time></trkpt><trkpt lat="44.60168681629733" lon="10.120096438500296"><ele>397.0</ele><time>2026-04-18T13:27:40Z</time></trkpt><trkpt lat="44.60173154874335" lon="10.11999692445681"><ele>397.0</ele><time>2026-04-18T13:27:41Z</time></trkpt><trkpt lat="44.6017805468028" lon="10.11989164167216"><ele>397.00000000000006</ele><time>2026-04-18T13:27:42Z</time></trkpt><trkpt lat="44.60182974929123" lon="10.119781053767253"><ele>397.0</ele><time>2026-04-18T13:27:43Z</time></trkpt><trkpt lat="44.60188459743944" lon="10.119660346223016"><ele>396.6</ele><time>2026-04-18T13:27:44Z</time></trkpt><trkpt lat="44.60194219580817" lon="10.119541201406708"><ele>396.20000000000005</ele><time>2026-04-18T13:27:45Z</time></trkpt><trkpt lat="44.602002159949414" lon="10.11941587298424"><ele>395.8</ele><time>2026-04-18T13:27:46Z</time></trkpt><trkpt lat="44.602061743949974" lon="10.119285029475792"><ele>395.4</ele><time>2026-04-18T13:27:47Z</time></trkpt><trkpt lat="44.602122423326634" lon="10.119160963093426"><ele>395.0</ele><time>2026-04-18T13:27:48Z</time></trkpt><trkpt lat="44.602174203372684" lon="10.119033326003901"><ele>394.6</ele><time>2026-04-18T13:27:49Z</time></trkpt><trkpt lat="44.602225074342" lon="10.118911459368002"><ele>394.2</ele><time>2026-04-18T13:27:50Z</time></trkpt><trkpt lat="44.60228159262266" lon="10.118795500939031"><ele>393.79999999999995</ele><time>2026-04-18T13:27:51Z</time></trkpt><trkpt lat="44.60233654444895" lon="10.118679867320944"><ele>393.4</ele><time>2026-04-18T13:27:52Z</time></trkpt><trkpt lat="44.60239090171621" lon="10.11856222628901"><ele>393.0</ele><time>2026-04-18T13:27:53Z</time></trkpt><trkpt lat="44.60244246923727" lon="10.118444812955856"><ele>393.0</ele><time>2026-04-18T13:27:54Z</time></trkpt><trkpt lat="44.60249784202637" lon="10.11832165409844"><ele>393.0</ele><time>2026-04-18T13:27:55Z</time></trkpt><trkpt lat="44.6025488703114" lon="10.118206709180038"><ele>393.0</ele><time>2026-04-18T13:27:56Z</time></trkpt><trkpt lat="44.60260106213587" lon="10.118084008206898"><ele>393.0</ele><time>2026-04-18T13:27:57Z</time></trkpt><trkpt lat="44.60265511830949" lon="10.11796868141236"><ele>393.0</ele><time>2026-04-18T13:27:57.999Z</time></trkpt><trkpt lat="44.6027009689653" lon="10.117862018420325"><ele>393.4</ele><time>2026-04-18T13:27:58.999Z</time></trkpt><trkpt lat="44.602748804487156" lon="10.11775213506051"><ele>393.79999999999995</ele><time>2026-04-18T13:27:59.999Z</time></trkpt><trkpt lat="44.602798773271566" lon="10.117644272428553"><ele>394.2</ele><time>2026-04-18T13:28:00.999Z</time></trkpt><trkpt lat="44.60284993286584" lon="10.117535661477605"><ele>394.6</ele><time>2026-04-18T13:28:01.999Z</time></trkpt><trkpt lat="44.60289901782085" lon="10.117419834611555"><ele>395.0</ele><time>2026-04-18T13:28:02.999Z</time></trkpt><trkpt lat="44.602954838998244" lon="10.117314780832338"><ele>397.0</ele><time>2026-04-18T13:28:03.999Z</time></trkpt><trkpt lat="44.603020534464505" lon="10.117222313784472"><ele>399.0</ele><time>2026-04-18T13:28:04.999Z</time></trkpt><trkpt lat="44.60309320483854" lon="10.117146500524978"><ele>401.0</ele><time>2026-04-18T13:28:05.999Z</time></trkpt><trkpt lat="44.60317969348366" lon="10.117080648309313"><ele>403.0</ele><time>2026-04-18T13:28:06.999Z</time></trkpt><trkpt lat="44.60327304907036" lon="10.117033910899316"><ele>405.0</ele><time>2026-04-18T13:28:07.999Z</time></trkpt><trkpt lat="44.60337479780114" lon="10.116998079047804"><ele>405.0</ele><time>2026-04-18T13:28:08.999Z</time></trkpt><trkpt lat="44.60347718275476" lon="10.116983256852647"><ele>405.0</ele><time>2026-04-18T13:28:09.999Z</time></trkpt><trkpt lat="44.603593767529645" lon="10.116995638484166"><ele>405.0</ele><time>2026-04-18T13:28:10.999Z</time></trkpt><trkpt lat="44.60370190842281" lon="10.117046757754109"><ele>405.0</ele><time>2026-04-18T13:28:11.999Z</time></trkpt><trkpt lat="44.60380205441998" lon="10.117107367977443"><ele>405.0</ele><time>2026-04-18T13:28:12.999Z</time></trkpt><trkpt lat="44.603895855779236" lon="10.117152614413992"><ele>406.0</ele><time>2026-04-18T13:28:13.999Z</time></trkpt><trkpt lat="44.60399846087988" lon="10.117192187153728"><ele>407.0</ele><time>2026-04-18T13:28:14.999Z</time></trkpt><trkpt lat="44.60409764902078" lon="10.117236336561843"><ele>408.0</ele><time>2026-04-18T13:28:15.999Z</time></trkpt><trkpt lat="44.604200535546305" lon="10.117279589517363"><ele>409.0</ele><time>2026-04-18T13:28:16.999Z</time></trkpt><trkpt lat="44.60430858974108" lon="10.117330560694146"><ele>410.0</ele><time>2026-04-18T13:28:17.999Z</time></trkpt><trkpt lat="44.604414150114124" lon="10.11738105153127"><ele>409.0</ele><time>2026-04-18T13:28:18.999Z</time></trkpt><trkpt lat="44.604518329259584" lon="10.117423273245514"><ele>408.0</ele><time>2026-04-18T13:28:19.999Z</time></trkpt><trkpt lat="44.60461690814964" lon="10.117464423582607"><ele>407.0</ele><time>2026-04-18T13:28:20.999Z</time></trkpt><trkpt lat="44.60472008937224" lon="10.11751039394588"><ele>406.0</ele><time>2026-04-18T13:28:21.999Z</time></trkpt><trkpt lat="44.60482371030644" lon="10.117559248397018"><ele>405.0</ele><time>2026-04-18T13:28:22.999Z</time></trkpt><trkpt lat="44.60492717772385" lon="10.117604721871022"><ele>405.0</ele><time>2026-04-18T13:28:23.999Z</time></trkpt><trkpt lat="44.60503860033928" lon="10.117652351588553"><ele>405.0</ele><time>2026-04-18T13:28:24.999Z</time></trkpt><trkpt lat="44.60515231196392" lon="10.11770195063052"><ele>405.0</ele><time>2026-04-18T13:28:25.999Z</time></trkpt><trkpt lat="44.60527439425814" lon="10.117750544179223"><ele>405.0</ele><time>2026-04-18T13:28:26.999Z</time></trkpt><trkpt lat="44.605401611629745" lon="10.117808474790682"><ele>404.25</ele><time>2026-04-18T13:28:27.999Z</time></trkpt><trkpt lat="44.605530440658114" lon="10.117891863989797"><ele>403.5</ele><time>2026-04-18T13:28:28.999Z</time></trkpt><trkpt lat="44.60565720152416" lon="10.117996140504228"><ele>402.75</ele><time>2026-04-18T13:28:29.999Z</time></trkpt><trkpt lat="44.60577786764297" lon="10.118118456734143"><ele>402.0</ele><time>2026-04-18T13:28:30.999Z</time></trkpt><trkpt lat="44.605893146208864" lon="10.118240588497683"><ele>402.0</ele><time>2026-04-18T13:28:31.999Z</time></trkpt><trkpt lat="44.60600780752967" lon="10.118360366516933"><ele>402.0</ele><time>2026-04-18T13:28:32.999Z</time></trkpt><trkpt lat="44.60612292095496" lon="10.1184754237823"><ele>402.0</ele><time>2026-04-18T13:28:33.999Z</time></trkpt><trkpt lat="44.60622277238802" lon="10.118575202148099"><ele>402.0</ele><time>2026-04-18T13:28:34.999Z</time></trkpt><trkpt lat="44.60630931373955" lon="10.118653052380743"><ele>403.6</ele><time>2026-04-18T13:28:35.999Z</time></trkpt><trkpt lat="44.60639557264405" lon="10.118676980358336"><ele>405.20000000000005</ele><time>2026-04-18T13:28:36.999Z</time></trkpt><trkpt lat="44.6064974212376" lon="10.118639898229059"><ele>406.8</ele><time>2026-04-18T13:28:37.999Z</time></trkpt><trkpt lat="44.606587140649594" lon="10.118539998158157"><ele>408.4</ele><time>2026-04-18T13:28:38.999Z</time></trkpt><trkpt lat="44.6066401511426" lon="10.118388709063584"><ele>410.0</ele><time>2026-04-18T13:28:39.999Z</time></trkpt><trkpt lat="44.606633745323556" lon="10.118202655785215"><ele>413.0</ele><time>2026-04-18T13:28:40.999Z</time></trkpt><trkpt lat="44.60656697117727" lon="10.118025012772893"><ele>416.0</ele><time>2026-04-18T13:28:41.999Z</time></trkpt><trkpt lat="44.606465741537825" lon="10.117857408838224"><ele>419.0</ele><time>2026-04-18T13:28:42.999Z</time></trkpt><trkpt lat="44.606377161251224" lon="10.117683486198006"><ele>419.0</ele><time>2026-04-18T13:28:43.999Z</time></trkpt><trkpt lat="44.60629535915992" lon="10.117507504087154"><ele>419.0</ele><time>2026-04-18T13:28:44.999Z</time></trkpt><trkpt lat="44.6062217548567" lon="10.117341950034449"><ele>419.0</ele><time>2026-04-18T13:28:45.999Z</time></trkpt><trkpt lat="44.60615164627313" lon="10.117174046002281"><ele>419.0</ele><time>2026-04-18T13:28:46.999Z</time></trkpt><trkpt lat="44.60608276062845" lon="10.117010311102465"><ele>419.0</ele><time>2026-04-18T13:28:47.999Z</time></trkpt><trkpt lat="44.60600923345972" lon="10.116872729587458"><ele>419.0</ele><time>2026-04-18T13:28:48.999Z</time></trkpt><trkpt lat="44.60589948185937" lon="10.116770405778569"><ele>419.0</ele><time>2026-04-18T13:28:49.999Z</time></trkpt><trkpt lat="44.60575606762889" lon="10.116720647731233"><ele>419.0</ele><time>2026-04-18T13:28:50.999Z</time></trkpt><trkpt lat="44.60562322868969" lon="10.116690036359008"><ele>419.0</ele><time>2026-04-18T13:28:51.999Z</time></trkpt><trkpt lat="44.60553102352819" lon="10.116638224480702"><ele>419.0</ele><time>2026-04-18T13:28:52.999Z</time></trkpt><trkpt lat="44.605496311127546" lon="10.116522083439735"><ele>419.0</ele><time>2026-04-18T13:28:53.999Z</time></trkpt><trkpt lat="44.60546120804377" lon="10.116429120383417"><ele>419.0</ele><time>2026-04-18T13:28:54.999Z</time></trkpt><trkpt lat="44.605489755433915" lon="10.116288300194181"><ele>419.0</ele><time>2026-04-18T13:28:56Z</time></trkpt><trkpt lat="44.60556645739705" lon="10.11616699942277"><ele>422.25</ele><time>2026-04-18T13:28:57Z</time></trkpt><trkpt lat="44.605679459576876" lon="10.116118657361024"><ele>425.5</ele><time>2026-04-18T13:28:58Z</time></trkpt><trkpt lat="44.605810243768765" lon="10.1161569906283"><ele>428.75</ele><time>2026-04-18T13:28:59Z</time></trkpt><trkpt lat="44.60594366231573" lon="10.116271056357922"><ele>432.0</ele><time>2026-04-18T13:29:00Z</time></trkpt><trkpt lat="44.60607542867277" lon="10.116403069004367"><ele>433.0</ele><time>2026-04-18T13:29:01Z</time></trkpt><trkpt lat="44.60621127733154" lon="10.116510167791589"><ele>434.0</ele><time>2026-04-18T13:29:02Z</time></trkpt><trkpt lat="44.60634352387154" lon="10.116608703966566"><ele>435.0</ele><time>2026-04-18T13:29:03Z</time></trkpt><trkpt lat="44.60646197505442" lon="10.116703793634152"><ele>436.0</ele><time>2026-04-18T13:29:04Z</time></trkpt><trkpt lat="44.606579156453606" lon="10.116792586893492"><ele>434.33333333333337</ele><time>2026-04-18T13:29:05Z</time></trkpt><trkpt lat="44.606717466024605" lon="10.116826592537436"><ele>432.66666666666663</ele><time>2026-04-18T13:29:06Z</time></trkpt><trkpt lat="44.60688956244969" lon="10.116800508037313"><ele>431.0</ele><time>2026-04-18T13:29:07Z</time></trkpt><trkpt lat="44.60706067973242" lon="10.116721858485908"><ele>431.0</ele><time>2026-04-18T13:29:08Z</time></trkpt><trkpt lat="44.60722826389348" lon="10.11663553447638"><ele>431.0</ele><time>2026-04-18T13:29:09Z</time></trkpt><trkpt lat="44.607387027019755" lon="10.116548720913952"><ele>431.0</ele><time>2026-04-18T13:29:10Z</time></trkpt><trkpt lat="44.60754028290906" lon="10.116468100101937"><ele>432.5</ele><time>2026-04-18T13:29:11Z</time></trkpt><trkpt lat="44.60768871264571" lon="10.116426767721501"><ele>434.0</ele><time>2026-04-18T13:29:12Z</time></trkpt><trkpt lat="44.60781547151255" lon="10.11638962185864"><ele>435.5</ele><time>2026-04-18T13:29:13Z</time></trkpt><trkpt lat="44.607927779481315" lon="10.116498020365814"><ele>437.0</ele><time>2026-04-18T13:29:14Z</time></trkpt><trkpt lat="44.60802528692667" lon="10.116658112855522"><ele>437.0</ele><time>2026-04-18T13:29:15Z</time></trkpt><trkpt lat="44.60812306811507" lon="10.116839047120234"><ele>437.0</ele><time>2026-04-18T13:29:16Z</time></trkpt><trkpt lat="44.60820506189915" lon="10.116979344011853"><ele>437.0</ele><time>2026-04-18T13:29:17Z</time></trkpt><trkpt lat="44.60831977334343" lon="10.117040564763341"><ele>437.0</ele><time>2026-04-18T13:29:18Z</time></trkpt><trkpt lat="44.60844468248039" lon="10.117018134737275"><ele>437.0</ele><time>2026-04-18T13:29:19Z</time></trkpt><trkpt lat="44.60855976957839" lon="10.116926911458734"><ele>437.0</ele><time>2026-04-18T13:29:20Z</time></trkpt><trkpt lat="44.608639682563556" lon="10.11677388689837"><ele>437.0</ele><time>2026-04-18T13:29:21Z</time></trkpt><trkpt lat="44.60867058774473" lon="10.116578681649752"><ele>437.0</ele><time>2026-04-18T13:29:22Z</time></trkpt><trkpt lat="44.60865600200329" lon="10.116353611612197"><ele>438.66666666666663</ele><time>2026-04-18T13:29:23Z</time></trkpt><trkpt lat="44.60861438264465" lon="10.116111109605292"><ele>440.33333333333337</ele><time>2026-04-18T13:29:24Z</time></trkpt><trkpt lat="44.60856208286409" lon="10.115876402318955"><ele>442.0</ele><time>2026-04-18T13:29:25Z</time></trkpt><trkpt lat="44.60853275227542" lon="10.115640859278505"><ele>443.5</ele><time>2026-04-18T13:29:26Z</time></trkpt><trkpt lat="44.60849726727447" lon="10.11543066563246"><ele>445.0</ele><time>2026-04-18T13:29:27Z</time></trkpt><trkpt lat="44.608462013852275" lon="10.115225336169757"><ele>446.5</ele><time>2026-04-18T13:29:28Z</time></trkpt><trkpt lat="44.60842937056998" lon="10.115028676055413"><ele>448.0</ele><time>2026-04-18T13:29:29Z</time></trkpt><trkpt lat="44.608414882102515" lon="10.11484509380174"><ele>449.25</ele><time>2026-04-18T13:29:30Z</time></trkpt><trkpt lat="44.60842896655468" lon="10.114686082529687"><ele>450.5</ele><time>2026-04-18T13:29:31Z</time></trkpt><trkpt lat="44.608481264154236" lon="10.114528464907462"><ele>451.75</ele><time>2026-04-18T13:29:32Z</time></trkpt><trkpt lat="44.60856067505504" lon="10.114376066196947"><ele>453.0</ele><time>2026-04-18T13:29:33Z</time></trkpt><trkpt lat="44.608680126819934" lon="10.114260686767148"><ele>453.0</ele><time>2026-04-18T13:29:34Z</time></trkpt><trkpt lat="44.60881465930925" lon="10.114224210299145"><ele>453.0</ele><time>2026-04-18T13:29:35Z</time></trkpt><trkpt lat="44.60895094828886" lon="10.114267268250265"><ele>453.0</ele><time>2026-04-18T13:29:36Z</time></trkpt><trkpt lat="44.60908390567468" lon="10.114378076134866"><ele>453.0</ele><time>2026-04-18T13:29:37Z</time></trkpt><trkpt lat="44.60922535572003" lon="10.114517698377028"><ele>453.0</ele><time>2026-04-18T13:29:38Z</time></trkpt><trkpt lat="44.609361465871125" lon="10.114659746960616"><ele>453.0</ele><time>2026-04-18T13:29:39Z</time></trkpt><trkpt lat="44.60948852741418" lon="10.114782069686079"><ele>453.0</ele><time>2026-04-18T13:29:40Z</time></trkpt><trkpt lat="44.609614247386034" lon="10.114866458880353"><ele>454.25</ele><time>2026-04-18T13:29:41Z</time></trkpt><trkpt lat="44.609757263675625" lon="10.11492418383489"><ele>455.5</ele><time>2026-04-18T13:29:42Z</time></trkpt><trkpt lat="44.609887553178964" lon="10.114924665457089"><ele>456.75</ele><time>2026-04-18T13:29:43Z</time></trkpt><trkpt lat="44.61001949050168" lon="10.114852387887682"><ele>458.0</ele><time>2026-04-18T13:29:44Z</time></trkpt><trkpt lat="44.6101544099907" lon="10.114713430197057"><ele>458.0</ele><time>2026-04-18T13:29:45Z</time></trkpt><trkpt lat="44.61029357303806" lon="10.114615455879711"><ele>458.0</ele><time>2026-04-18T13:29:46Z</time></trkpt><trkpt lat="44.61043781428921" lon="10.114533757960698"><ele>458.0</ele><time>2026-04-18T13:29:47Z</time></trkpt><trkpt lat="44.61059000929213" lon="10.114528820284043"><ele>456.66666666666663</ele><time>2026-04-18T13:29:48Z</time></trkpt><trkpt lat="44.61073613269466" lon="10.11461347701776"><ele>455.33333333333337</ele><time>2026-04-18T13:29:49Z</time></trkpt><trkpt lat="44.61089432126205" lon="10.114693764071815"><ele>454.0</ele><time>2026-04-18T13:29:50Z</time></trkpt><trkpt lat="44.61103203792019" lon="10.114794485307232"><ele>454.0</ele><time>2026-04-18T13:29:51Z</time></trkpt><trkpt lat="44.61115473677776" lon="10.114806263905237"><ele>454.0</ele><time>2026-04-18T13:29:52Z</time></trkpt><trkpt lat="44.61126152737282" lon="10.11473913670464"><ele>454.0</ele><time>2026-04-18T13:29:53Z</time></trkpt><trkpt lat="44.61136582820966" lon="10.114607710082355"><ele>454.0</ele><time>2026-04-18T13:29:54Z</time></trkpt><trkpt lat="44.6114513184231" lon="10.114405411179566"><ele>452.33333333333337</ele><time>2026-04-18T13:29:55Z</time></trkpt><trkpt lat="44.61155299178058" lon="10.114198665866194"><ele>450.66666666666663</ele><time>2026-04-18T13:29:56Z</time></trkpt><trkpt lat="44.61164593040605" lon="10.114009779610939"><ele>449.0</ele><time>2026-04-18T13:29:57Z</time></trkpt><trkpt lat="44.611725379900456" lon="10.113866782658855"><ele>451.0</ele><time>2026-04-18T13:29:58Z</time></trkpt><trkpt lat="44.61187227660234" lon="10.113726772704437"><ele>453.0</ele><time>2026-04-18T13:29:59Z</time></trkpt><trkpt lat="44.61202694038313" lon="10.113663381035805"><ele>455.0</ele><time>2026-04-18T13:30:00Z</time></trkpt><trkpt lat="44.61219207172686" lon="10.113587060220512"><ele>455.0</ele><time>2026-04-18T13:30:01Z</time></trkpt><trkpt lat="44.61235798983415" lon="10.113528003192771"><ele>455.0</ele><time>2026-04-18T13:30:02Z</time></trkpt><trkpt lat="44.612527506145426" lon="10.113456716883235"><ele>455.0</ele><time>2026-04-18T13:30:03Z</time></trkpt><trkpt lat="44.61268376196703" lon="10.113436907839173"><ele>455.0</ele><time>2026-04-18T13:30:04Z</time></trkpt><trkpt lat="44.612856661629145" lon="10.11346670716139"><ele>455.0</ele><time>2026-04-18T13:30:05Z</time></trkpt><trkpt lat="44.61303005362783" lon="10.113481502846382"><ele>455.0</ele><time>2026-04-18T13:30:05.999Z</time></trkpt><trkpt lat="44.613189480779546" lon="10.113467911591309"><ele>455.0</ele><time>2026-04-18T13:30:06.999Z</time></trkpt><trkpt lat="44.613330149519996" lon="10.113474082546277"><ele>455.0</ele><time>2026-04-18T13:30:07.999Z</time></trkpt><trkpt lat="44.61344694735489" lon="10.113525353920632"><ele>455.0</ele><time>2026-04-18T13:30:08.999Z</time></trkpt><trkpt lat="44.61353607705039" lon="10.1136395783528"><ele>455.0</ele><time>2026-04-18T13:30:09.999Z</time></trkpt><trkpt lat="44.61356173589639" lon="10.113820946567962"><ele>455.0</ele><time>2026-04-18T13:30:10.999Z</time></trkpt><trkpt lat="44.61354168878188" lon="10.114010383808752"><ele>455.0</ele><time>2026-04-18T13:30:11.999Z</time></trkpt><trkpt lat="44.61351538647198" lon="10.114169361448669"><ele>455.0</ele><time>2026-04-18T13:30:12.999Z</time></trkpt><trkpt lat="44.613497873418396" lon="10.114293964618069"><ele>455.0</ele><time>2026-04-18T13:30:13.999Z</time></trkpt><trkpt lat="44.61348554044239" lon="10.114381710420986"><ele>455.0</ele><time>2026-04-18T13:30:14.999Z</time></trkpt><trkpt lat="44.61362626276594" lon="10.114498200389898"><ele>454.8</ele><time>2026-04-18T13:30:17.999Z</time></trkpt><trkpt lat="44.61369497024253" lon="10.114516440215807"><ele>454.6</ele><time>2026-04-18T13:30:19.999Z</time></trkpt><trkpt lat="44.613755403638095" lon="10.11442489429166"><ele>454.4</ele><time>2026-04-18T13:30:20.999Z</time></trkpt><trkpt lat="44.613817936676156" lon="10.11431265747108"><ele>454.2</ele><time>2026-04-18T13:30:21.999Z</time></trkpt><trkpt lat="44.61389237050556" lon="10.114184519683873"><ele>454.0</ele><time>2026-04-18T13:30:22.999Z</time></trkpt><trkpt lat="44.61397672910723" lon="10.114043066995299"><ele>456.0</ele><time>2026-04-18T13:30:23.999Z</time></trkpt><trkpt lat="44.61404591452734" lon="10.113878335912277"><ele>458.0</ele><time>2026-04-18T13:30:24.999Z</time></trkpt><trkpt lat="44.61410990077449" lon="10.113698445917706"><ele>460.0</ele><time>2026-04-18T13:30:25.999Z</time></trkpt><trkpt lat="44.614177084388395" lon="10.11349950506425"><ele>462.0</ele><time>2026-04-18T13:30:26.999Z</time></trkpt><trkpt lat="44.61424779988513" lon="10.113308937086838"><ele>461.25</ele><time>2026-04-18T13:30:27.999Z</time></trkpt><trkpt lat="44.614320683347124" lon="10.11313628910701"><ele>460.5</ele><time>2026-04-18T13:30:28.999Z</time></trkpt><trkpt lat="44.61440776526295" lon="10.112979426640523"><ele>459.75</ele><time>2026-04-18T13:30:29.999Z</time></trkpt><trkpt lat="44.61451258378369" lon="10.112848042217385"><ele>459.0</ele><time>2026-04-18T13:30:30.999Z</time></trkpt><trkpt lat="44.6145925964212" lon="10.112736635829494"><ele>459.0</ele><time>2026-04-18T13:30:31.999Z</time></trkpt><trkpt lat="44.61464154409997" lon="10.112603244073433"><ele>459.0</ele><time>2026-04-18T13:30:32.999Z</time></trkpt><trkpt lat="44.61465473339266" lon="10.112448280455196"><ele>459.0</ele><time>2026-04-18T13:30:33.999Z</time></trkpt><trkpt lat="44.614627060153055" lon="10.112286422841967"><ele>459.0</ele><time>2026-04-18T13:30:34.999Z</time></trkpt><trkpt lat="44.61455470308046" lon="10.112150141222559"><ele>462.25</ele><time>2026-04-18T13:30:35.999Z</time></trkpt><trkpt lat="44.61443569520017" lon="10.11206824747644"><ele>465.5</ele><time>2026-04-18T13:30:36.999Z</time></trkpt><trkpt lat="44.614294461818915" lon="10.112049345706941"><ele>468.75</ele><time>2026-04-18T13:30:37.999Z</time></trkpt><trkpt lat="44.614152934739195" lon="10.112045342682961"><ele>472.0</ele><time>2026-04-18T13:30:38.999Z</time></trkpt><trkpt lat="44.61400689384692" lon="10.112026644580714"><ele>472.0</ele><time>2026-04-18T13:30:39.999Z</time></trkpt><trkpt lat="44.61387161923846" lon="10.111988394501049"><ele>472.0</ele><time>2026-04-18T13:30:40.999Z</time></trkpt><trkpt lat="44.613740272047934" lon="10.111935509347449"><ele>472.0</ele><time>2026-04-18T13:30:41.999Z</time></trkpt><trkpt lat="44.61361048177231" lon="10.111857856245765"><ele>472.0</ele><time>2026-04-18T13:30:42.999Z</time></trkpt><trkpt lat="44.61347979939591" lon="10.111767238742582"><ele>473.0</ele><time>2026-04-18T13:30:43.999Z</time></trkpt><trkpt lat="44.61335264426736" lon="10.111686551506228"><ele>474.0</ele><time>2026-04-18T13:30:44.999Z</time></trkpt><trkpt lat="44.6132237622955" lon="10.111610163794806"><ele>475.0</ele><time>2026-04-18T13:30:45.999Z</time></trkpt><trkpt lat="44.613091292892044" lon="10.111540015910894"><ele>476.0</ele><time>2026-04-18T13:30:46.999Z</time></trkpt><trkpt lat="44.6129629552563" lon="10.111485430518249"><ele>476.0</ele><time>2026-04-18T13:30:47.999Z</time></trkpt><trkpt lat="44.61282985718738" lon="10.111446077200974"><ele>476.0</ele><time>2026-04-18T13:30:48.999Z</time></trkpt><trkpt lat="44.612699201455634" lon="10.111416984366441"><ele>476.0</ele><time>2026-04-18T13:30:49.999Z</time></trkpt><trkpt lat="44.6125702668101" lon="10.111369401773443"><ele>476.0</ele><time>2026-04-18T13:30:50.999Z</time></trkpt><trkpt lat="44.612447424256" lon="10.111298317551999"><ele>478.0</ele><time>2026-04-18T13:30:51.999Z</time></trkpt><trkpt lat="44.61233412455084" lon="10.11121102394929"><ele>480.0</ele><time>2026-04-18T13:30:52.999Z</time></trkpt><trkpt lat="44.61222573435586" lon="10.111107806372871"><ele>482.0</ele><time>2026-04-18T13:30:53.999Z</time></trkpt><trkpt lat="44.61211723336615" lon="10.111004511905165"><ele>484.0</ele><time>2026-04-18T13:30:54.999Z</time></trkpt><trkpt lat="44.612006389973814" lon="10.110917604202015"><ele>488.25</ele><time>2026-04-18T13:30:55.999Z</time></trkpt><trkpt lat="44.61189046185569" lon="10.110851712493357"><ele>492.5</ele><time>2026-04-18T13:30:56.999Z</time></trkpt><trkpt lat="44.61176779646168" lon="10.11080621457416"><ele>496.75</ele><time>2026-04-18T13:30:57.999Z</time></trkpt><trkpt lat="44.611637520919984" lon="10.11079041712051"><ele>501.0</ele><time>2026-04-18T13:30:58.999Z</time></trkpt><trkpt lat="44.61150065402304" lon="10.11080122964893"><ele>501.0</ele><time>2026-04-18T13:30:59.999Z</time></trkpt><trkpt lat="44.61136171185407" lon="10.110817023442598"><ele>501.0</ele><time>2026-04-18T13:31:00.999Z</time></trkpt><trkpt lat="44.61122892893562" lon="10.110815968550988"><ele>501.0</ele><time>2026-04-18T13:31:02Z</time></trkpt><trkpt lat="44.61108700040048" lon="10.110807812418884"><ele>501.0</ele><time>2026-04-18T13:31:03Z</time></trkpt><trkpt lat="44.61094025202368" lon="10.11081159123376"><ele>504.66666666666663</ele><time>2026-04-18T13:31:04Z</time></trkpt><trkpt lat="44.61078367578987" lon="10.110809305493255"><ele>508.3333333333333</ele><time>2026-04-18T13:31:05Z</time></trkpt><trkpt lat="44.61062943426427" lon="10.110811609790757"><ele>512.0</ele><time>2026-04-18T13:31:06Z</time></trkpt><trkpt lat="44.61046805895243" lon="10.1108334250817"><ele>512.0</ele><time>2026-04-18T13:31:07Z</time></trkpt><trkpt lat="44.610326551411276" lon="10.11085346543351"><ele>512.0</ele><time>2026-04-18T13:31:08Z</time></trkpt><trkpt lat="44.61018916480594" lon="10.110890813742765"><ele>512.0</ele><time>2026-04-18T13:31:09Z</time></trkpt><trkpt lat="44.61005275596001" lon="10.110923965120389"><ele>512.0</ele><time>2026-04-18T13:31:10Z</time></trkpt><trkpt lat="44.60992012731978" lon="10.110934308066579"><ele>512.5</ele><time>2026-04-18T13:31:11Z</time></trkpt><trkpt lat="44.609802588461115" lon="10.110860448303779"><ele>513.0</ele><time>2026-04-18T13:31:12Z</time></trkpt><trkpt lat="44.60969684516975" lon="10.110766564066628"><ele>513.5</ele><time>2026-04-18T13:31:13Z</time></trkpt><trkpt lat="44.60960014019433" lon="10.110634688869403"><ele>514.0</ele><time>2026-04-18T13:31:14Z</time></trkpt><trkpt lat="44.60954216620264" lon="10.110505315353867"><ele>517.6</ele><time>2026-04-18T13:31:15Z</time></trkpt><trkpt lat="44.60953341627024" lon="10.110412578129598"><ele>521.2</ele><time>2026-04-18T13:31:16Z</time></trkpt><trkpt lat="44.60962632072697" lon="10.110304329054827"><ele>524.8000000000001</ele><time>2026-04-18T13:31:18Z</time></trkpt><trkpt lat="44.60972879819394" lon="10.110345720215088"><ele>528.4</ele><time>2026-04-18T13:31:19Z</time></trkpt><trkpt lat="44.609827766635796" lon="10.110421987620153"><ele>532.0</ele><time>2026-04-18T13:31:20Z</time></trkpt><trkpt lat="44.60994123325785" lon="10.110492991180857"><ele>532.0</ele><time>2026-04-18T13:31:21Z</time></trkpt><trkpt lat="44.61005756707716" lon="10.110543287590875"><ele>532.0</ele><time>2026-04-18T13:31:22Z</time></trkpt><trkpt lat="44.61020319889792" lon="10.110539437702517"><ele>532.0</ele><time>2026-04-18T13:31:23Z</time></trkpt><trkpt lat="44.6103510850322" lon="10.110477145181761"><ele>532.0</ele><time>2026-04-18T13:31:24Z</time></trkpt><trkpt lat="44.61050122818629" lon="10.11040922344499"><ele>531.5</ele><time>2026-04-18T13:31:25Z</time></trkpt><trkpt lat="44.61064529225344" lon="10.110354935594192"><ele>531.0</ele><time>2026-04-18T13:31:26Z</time></trkpt><trkpt lat="44.610775518984575" lon="10.110291000477249"><ele>530.5</ele><time>2026-04-18T13:31:27Z</time></trkpt><trkpt lat="44.6109105410291" lon="10.110249502871877"><ele>530.0</ele><time>2026-04-18T13:31:28Z</time></trkpt><trkpt lat="44.61103259614566" lon="10.110195467710524"><ele>530.0</ele><time>2026-04-18T13:31:29Z</time></trkpt><trkpt lat="44.611136317789814" lon="10.110138750115919"><ele>530.0</ele><time>2026-04-18T13:31:30Z</time></trkpt><trkpt lat="44.611217100696024" lon="10.110044824309558"><ele>530.0</ele><time>2026-04-18T13:31:31Z</time></trkpt><trkpt lat="44.61127547687726" lon="10.109929092824688"><ele>530.0</ele><time>2026-04-18T13:31:32Z</time></trkpt><trkpt lat="44.61130957361685" lon="10.109802081629256"><ele>530.0</ele><time>2026-04-18T13:31:33Z</time></trkpt><trkpt lat="44.611258132546325" lon="10.109652263458743"><ele>528.25</ele><time>2026-04-18T13:31:34Z</time></trkpt><trkpt lat="44.61113911682914" lon="10.10957199243386"><ele>526.5</ele><time>2026-04-18T13:31:35Z</time></trkpt><trkpt lat="44.61100445494031" lon="10.109550456833052"><ele>524.75</ele><time>2026-04-18T13:31:36Z</time></trkpt><trkpt lat="44.61085337874427" lon="10.109557190472389"><ele>523.0</ele><time>2026-04-18T13:31:37Z</time></trkpt><trkpt lat="44.61070219071929" lon="10.109552196122678"><ele>523.0</ele><time>2026-04-18T13:31:38Z</time></trkpt><trkpt lat="44.61056187674119" lon="10.10948633842074"><ele>523.0</ele><time>2026-04-18T13:31:39Z</time></trkpt><trkpt lat="44.61041258855786" lon="10.109386686528124"><ele>523.0</ele><time>2026-04-18T13:31:40Z</time></trkpt><trkpt lat="44.61027385022486" lon="10.109263300290424"><ele>526.3333333333334</ele><time>2026-04-18T13:31:41Z</time></trkpt><trkpt lat="44.6101471687866" lon="10.109123323192545"><ele>529.6666666666666</ele><time>2026-04-18T13:31:42Z</time></trkpt><trkpt lat="44.61003374629426" lon="10.108955169096385"><ele>533.0</ele><time>2026-04-18T13:31:43Z</time></trkpt><trkpt lat="44.609926853535306" lon="10.108778096561505"><ele>533.0</ele><time>2026-04-18T13:31:44Z</time></trkpt><trkpt lat="44.609815965757214" lon="10.10859176683912"><ele>533.0</ele><time>2026-04-18T13:31:45Z</time></trkpt><trkpt lat="44.609709529985246" lon="10.108414943524417"><ele>533.0</ele><time>2026-04-18T13:31:46Z</time></trkpt><trkpt lat="44.60960560686717" lon="10.108244500017907"><ele>537.3333333333333</ele><time>2026-04-18T13:31:47Z</time></trkpt><trkpt lat="44.609491633946895" lon="10.108090339796869"><ele>541.6666666666666</ele><time>2026-04-18T13:31:48Z</time></trkpt><trkpt lat="44.609396171863985" lon="10.107911722230181"><ele>546.0</ele><time>2026-04-18T13:31:49Z</time></trkpt><trkpt lat="44.60929560450823" lon="10.107748617216359"><ele>546.0</ele><time>2026-04-18T13:31:50Z</time></trkpt><trkpt lat="44.60919987023766" lon="10.107575872338252"><ele>546.0</ele><time>2026-04-18T13:31:51Z</time></trkpt><trkpt lat="44.60910249393127" lon="10.107418807624398"><ele>546.0</ele><time>2026-04-18T13:31:52Z</time></trkpt><trkpt lat="44.6090085393996" lon="10.107240571368893"><ele>549.6666666666666</ele><time>2026-04-18T13:31:53Z</time></trkpt><trkpt lat="44.60893067524589" lon="10.107058413399663"><ele>553.3333333333333</ele><time>2026-04-18T13:31:54Z</time></trkpt><trkpt lat="44.60885617785128" lon="10.106850060173821"><ele>557.0</ele><time>2026-04-18T13:31:55Z</time></trkpt><trkpt lat="44.608785935576456" lon="10.106643324555634"><ele>556.3333333333333</ele><time>2026-04-18T13:31:56Z</time></trkpt><trkpt lat="44.608711553436166" lon="10.106439649934874"><ele>555.6666666666666</ele><time>2026-04-18T13:31:57Z</time></trkpt><trkpt lat="44.60864623251812" lon="10.106217936606205"><ele>555.0</ele><time>2026-04-18T13:31:58Z</time></trkpt><trkpt lat="44.608571750755644" lon="10.10600201036508"><ele>555.0</ele><time>2026-04-18T13:31:59Z</time></trkpt><trkpt lat="44.60849103004016" lon="10.105785424760244"><ele>555.0</ele><time>2026-04-18T13:32:00Z</time></trkpt><trkpt lat="44.608425193741695" lon="10.10555818011276"><ele>555.0</ele><time>2026-04-18T13:32:01Z</time></trkpt><trkpt lat="44.60835903861412" lon="10.105337231743775"><ele>554.3333333333334</ele><time>2026-04-18T13:32:02Z</time></trkpt><trkpt lat="44.608288547128765" lon="10.10511929688249"><ele>553.6666666666667</ele><time>2026-04-18T13:32:03Z</time></trkpt><trkpt lat="44.60821813316706" lon="10.104915821655817"><ele>553.0</ele><time>2026-04-18T13:32:04Z</time></trkpt><trkpt lat="44.60815012904691" lon="10.104697724445328"><ele>553.0</ele><time>2026-04-18T13:32:05Z</time></trkpt><trkpt lat="44.60808911856734" lon="10.104479782779475"><ele>553.0</ele><time>2026-04-18T13:32:06Z</time></trkpt><trkpt lat="44.60803312390052" lon="10.104283540734764"><ele>553.0</ele><time>2026-04-18T13:32:07Z</time></trkpt><trkpt lat="44.60797820172476" lon="10.104105269406968"><ele>551.0</ele><time>2026-04-18T13:32:08Z</time></trkpt><trkpt lat="44.60792569046558" lon="10.103943970426451"><ele>549.0</ele><time>2026-04-18T13:32:09Z</time></trkpt><trkpt lat="44.60790892397748" lon="10.103743760396657"><ele>547.0</ele><time>2026-04-18T13:32:10Z</time></trkpt><trkpt lat="44.60789823221603" lon="10.103512330790723"><ele>545.0</ele><time>2026-04-18T13:32:11Z</time></trkpt><trkpt lat="44.607894588861505" lon="10.103276615451234"><ele>544.25</ele><time>2026-04-18T13:32:12Z</time></trkpt><trkpt lat="44.60786463638167" lon="10.103066634934823"><ele>543.5</ele><time>2026-04-18T13:32:13Z</time></trkpt><trkpt lat="44.60784219803865" lon="10.10286608893101"><ele>542.75</ele><time>2026-04-18T13:32:14Z</time></trkpt><trkpt lat="44.60783352136923" lon="10.10269606292549"><ele>542.0</ele><time>2026-04-18T13:32:15Z</time></trkpt><trkpt lat="44.60791375483792" lon="10.10256551759082"><ele>543.0</ele><time>2026-04-18T13:32:15.999Z</time></trkpt><trkpt lat="44.607999245908225" lon="10.102409589288486"><ele>544.0</ele><time>2026-04-18T13:32:16.999Z</time></trkpt><trkpt lat="44.60806680620441" lon="10.102230659763872"><ele>545.0</ele><time>2026-04-18T13:32:17.999Z</time></trkpt><trkpt lat="44.60810626988122" lon="10.102033838923335"><ele>546.0</ele><time>2026-04-18T13:32:18.999Z</time></trkpt><trkpt lat="44.608128412055265" lon="10.101805210657988"><ele>549.3333333333334</ele><time>2026-04-18T13:32:19.999Z</time></trkpt><trkpt lat="44.608160937897125" lon="10.101571894837157"><ele>552.6666666666667</ele><time>2026-04-18T13:32:20.999Z</time></trkpt><trkpt lat="44.60819027407507" lon="10.101346423252895"><ele>556.0</ele><time>2026-04-18T13:32:21.999Z</time></trkpt><trkpt lat="44.60823701020748" lon="10.10114117640743"><ele>556.0</ele><time>2026-04-18T13:32:22.999Z</time></trkpt><trkpt lat="44.608288485253894" lon="10.100973158509229"><ele>556.0</ele><time>2026-04-18T13:32:23.999Z</time></trkpt><trkpt lat="44.608378064634245" lon="10.100836581060722"><ele>556.0</ele><time>2026-04-18T13:32:24.999Z</time></trkpt><trkpt lat="44.608502240805976" lon="10.100736766481537"><ele>556.0</ele><time>2026-04-18T13:32:25.999Z</time></trkpt><trkpt lat="44.608641356794486" lon="10.10062722122165"><ele>551.0</ele><time>2026-04-18T13:32:26.999Z</time></trkpt><trkpt lat="44.608785018201736" lon="10.100541267268799"><ele>546.0</ele><time>2026-04-18T13:32:27.999Z</time></trkpt><trkpt lat="44.608904306478145" lon="10.100448787405305"><ele>541.0</ele><time>2026-04-18T13:32:28.999Z</time></trkpt><trkpt lat="44.60899379088199" lon="10.100361382336956"><ele>536.0</ele><time>2026-04-18T13:32:29.999Z</time></trkpt><trkpt lat="44.60905913838798" lon="10.100288726595725"><ele>536.0</ele><time>2026-04-18T13:32:30.999Z</time></trkpt><trkpt lat="44.60904192131323" lon="10.100144633478015"><ele>536.0</ele><time>2026-04-18T13:32:31.999Z</time></trkpt><trkpt lat="44.60898395559752" lon="10.100022685678162"><ele>536.0</ele><time>2026-04-18T13:32:32.999Z</time></trkpt><trkpt lat="44.608891036906876" lon="10.099901997387976"><ele>536.0</ele><time>2026-04-18T13:32:33.999Z</time></trkpt><trkpt lat="44.60880415244006" lon="10.099784679527033"><ele>534.2</ele><time>2026-04-18T13:32:34.999Z</time></trkpt><trkpt lat="44.60874721144868" lon="10.099651132060789"><ele>532.4000000000001</ele><time>2026-04-18T13:32:35.999Z</time></trkpt><trkpt lat="44.6087687466239" lon="10.09950131774402"><ele>530.6</ele><time>2026-04-18T13:32:36.999Z</time></trkpt><trkpt lat="44.608767805168185" lon="10.099354581201972"><ele>528.8000000000001</ele><time>2026-04-18T13:32:37.999Z</time></trkpt><trkpt lat="44.60878287697332" lon="10.099222506182194"><ele>527.0</ele><time>2026-04-18T13:32:38.999Z</time></trkpt><trkpt lat="44.60875756917206" lon="10.099083722541181"><ele>525.0</ele><time>2026-04-18T13:32:39.999Z</time></trkpt><trkpt lat="44.6086869998263" lon="10.098913808467952"><ele>523.0</ele><time>2026-04-18T13:32:40.999Z</time></trkpt><trkpt lat="44.608585596927384" lon="10.098749068182071"><ele>521.0</ele><time>2026-04-18T13:32:41.999Z</time></trkpt><trkpt lat="44.60847805831289" lon="10.098594471970054"><ele>519.0</ele><time>2026-04-18T13:32:42.999Z</time></trkpt><trkpt lat="44.60837330394211" lon="10.098454547331364"><ele>524.5</ele><time>2026-04-18T13:32:43.999Z</time></trkpt><trkpt lat="44.608266232277536" lon="10.098331364572003"><ele>530.0</ele><time>2026-04-18T13:32:44.999Z</time></trkpt><trkpt lat="44.60814591353853" lon="10.098236912200852"><ele>535.5</ele><time>2026-04-18T13:32:45.999Z</time></trkpt><trkpt lat="44.60803377791653" lon="10.098177182510476"><ele>541.0</ele><time>2026-04-18T13:32:46.999Z</time></trkpt><trkpt lat="44.607957292535914" lon="10.098122779955593"><ele>541.0</ele><time>2026-04-18T13:32:47.999Z</time></trkpt><trkpt lat="44.60789263689899" lon="10.098084602429582"><ele>541.0</ele><time>2026-04-18T13:32:48.999Z</time></trkpt><trkpt lat="44.60788759760619" lon="10.09798210986751"><ele>541.0</ele><time>2026-04-18T13:32:49.999Z</time></trkpt><trkpt lat="44.60792783470869" lon="10.097881786650975"><ele>541.0</ele><time>2026-04-18T13:32:50.999Z</time></trkpt><trkpt lat="44.60801303748421" lon="10.097813286744197"><ele>541.0</ele><time>2026-04-18T13:32:51.999Z</time></trkpt><trkpt lat="44.60812059463442" lon="10.097764999376988"><ele>541.0</ele><time>2026-04-18T13:32:52.999Z</time></trkpt><trkpt lat="44.60821145920857" lon="10.097702026992389"><ele>541.0</ele><time>2026-04-18T13:32:53.999Z</time></trkpt><trkpt lat="44.60827810953753" lon="10.09759827620817"><ele>541.0</ele><time>2026-04-18T13:32:54.999Z</time></trkpt><trkpt lat="44.6083063747252" lon="10.097443182888508"><ele>541.0</ele><time>2026-04-18T13:32:55.999Z</time></trkpt><trkpt lat="44.60830912148379" lon="10.097247902358191"><ele>541.0</ele><time>2026-04-18T13:32:56.999Z</time></trkpt><trkpt lat="44.608319091657485" lon="10.097057953016863"><ele>542.25</ele><time>2026-04-18T13:32:57.999Z</time></trkpt><trkpt lat="44.6083318953053" lon="10.09686397153895"><ele>543.5</ele><time>2026-04-18T13:32:58.999Z</time></trkpt><trkpt lat="44.60833372595245" lon="10.096701085765723"><ele>544.75</ele><time>2026-04-18T13:32:59.999Z</time></trkpt><trkpt lat="44.6083236410788" lon="10.096525914666357"><ele>546.0</ele><time>2026-04-18T13:33:00.999Z</time></trkpt><trkpt lat="44.60828508030224" lon="10.096348104417359"><ele>546.5</ele><time>2026-04-18T13:33:01.999Z</time></trkpt><trkpt lat="44.60824737744785" lon="10.096166860359148"><ele>547.0</ele><time>2026-04-18T13:33:02.999Z</time></trkpt><trkpt lat="44.60820055093402" lon="10.0959806194325"><ele>547.5</ele><time>2026-04-18T13:33:03.999Z</time></trkpt><trkpt lat="44.608157934402115" lon="10.095777769164732"><ele>548.0</ele><time>2026-04-18T13:33:04.999Z</time></trkpt><trkpt lat="44.60812149971015" lon="10.095571499961867"><ele>548.6666666666666</ele><time>2026-04-18T13:33:05.999Z</time></trkpt><trkpt lat="44.608097405908836" lon="10.09536475664204"><ele>549.3333333333334</ele><time>2026-04-18T13:33:07Z</time></trkpt><trkpt lat="44.60808317698597" lon="10.095150314643966"><ele>550.0</ele><time>2026-04-18T13:33:08Z</time></trkpt><trkpt lat="44.60806563422535" lon="10.094936721114507"><ele>550.6666666666667</ele><time>2026-04-18T13:33:09Z</time></trkpt><trkpt lat="44.60804482510252" lon="10.09472115997427"><ele>551.3333333333334</ele><time>2026-04-18T13:33:10Z</time></trkpt><trkpt lat="44.60802024767168" lon="10.094513943907208"><ele>552.0</ele><time>2026-04-18T13:33:11Z</time></trkpt><trkpt lat="44.60799420119353" lon="10.094304700581485"><ele>552.0</ele><time>2026-04-18T13:33:12Z</time></trkpt><trkpt lat="44.607966289398085" lon="10.094099090787909"><ele>552.0</ele><time>2026-04-18T13:33:13Z</time></trkpt><trkpt lat="44.6079496546276" lon="10.09390979960224"><ele>552.0</ele><time>2026-04-18T13:33:14Z</time></trkpt><trkpt lat="44.60795527183199" lon="10.093729645888248"><ele>552.0</ele><time>2026-04-18T13:33:15Z</time></trkpt><trkpt lat="44.60801267671152" lon="10.093546556523988"><ele>552.5</ele><time>2026-04-18T13:33:16Z</time></trkpt><trkpt lat="44.608066143156194" lon="10.093356534192688"><ele>553.0</ele><time>2026-04-18T13:33:17Z</time></trkpt><trkpt lat="44.60812049991491" lon="10.093154014883611"><ele>553.5</ele><time>2026-04-18T13:33:18Z</time></trkpt><trkpt lat="44.608175095923436" lon="10.092963612379046"><ele>554.0</ele><time>2026-04-18T13:33:19Z</time></trkpt><trkpt lat="44.60821957778832" lon="10.092787889521343"><ele>554.25</ele><time>2026-04-18T13:33:20Z</time></trkpt><trkpt lat="44.608239369913335" lon="10.092626551684244"><ele>554.5</ele><time>2026-04-18T13:33:21Z</time></trkpt><trkpt lat="44.608217791130684" lon="10.09244572685581"><ele>554.75</ele><time>2026-04-18T13:33:22Z</time></trkpt><trkpt lat="44.60814598378666" lon="10.092265513169306"><ele>555.0</ele><time>2026-04-18T13:33:23Z</time></trkpt><trkpt lat="44.608046751122814" lon="10.092085266376138"><ele>555.0</ele><time>2026-04-18T13:33:24Z</time></trkpt><trkpt lat="44.6079560196431" lon="10.09190295546771"><ele>555.0</ele><time>2026-04-18T13:33:25Z</time></trkpt><trkpt lat="44.60788435900566" lon="10.091725405338869"><ele>555.0</ele><time>2026-04-18T13:33:26Z</time></trkpt><trkpt lat="44.60781541261731" lon="10.091553290620087"><ele>555.0</ele><time>2026-04-18T13:33:27Z</time></trkpt><trkpt lat="44.60774924885917" lon="10.091382994511433"><ele>559.0</ele><time>2026-04-18T13:33:28Z</time></trkpt><trkpt lat="44.60767720324779" lon="10.09123940334784"><ele>563.0</ele><time>2026-04-18T13:33:29Z</time></trkpt><trkpt lat="44.607574549034595" lon="10.091120086583844"><ele>567.0</ele><time>2026-04-18T13:33:30Z</time></trkpt><trkpt lat="44.607442341589135" lon="10.091027327272462"><ele>571.0</ele><time>2026-04-18T13:33:31Z</time></trkpt><trkpt lat="44.60730239271759" lon="10.090938496300897"><ele>571.0</ele><time>2026-04-18T13:33:32Z</time></trkpt><trkpt lat="44.60717140768869" lon="10.090838462938837"><ele>571.0</ele><time>2026-04-18T13:33:33Z</time></trkpt><trkpt lat="44.607060021112126" lon="10.090736150034688"><ele>571.0</ele><time>2026-04-18T13:33:34Z</time></trkpt><trkpt lat="44.6069818267976" lon="10.090614281212579"><ele>571.0</ele><time>2026-04-18T13:33:35Z</time></trkpt><trkpt lat="44.606986539145495" lon="10.09044455508992"><ele>570.75</ele><time>2026-04-18T13:33:36Z</time></trkpt><trkpt lat="44.60703516047575" lon="10.090280935441564"><ele>570.5</ele><time>2026-04-18T13:33:37Z</time></trkpt><trkpt lat="44.607114106977725" lon="10.090109771204801"><ele>570.25</ele><time>2026-04-18T13:33:38Z</time></trkpt><trkpt lat="44.60717530020203" lon="10.089900986430576"><ele>570.0</ele><time>2026-04-18T13:33:39Z</time></trkpt><trkpt lat="44.607246065711976" lon="10.089707119224618"><ele>574.0</ele><time>2026-04-18T13:33:40Z</time></trkpt><trkpt lat="44.60732794408748" lon="10.089552667145835"><ele>578.0</ele><time>2026-04-18T13:33:41Z</time></trkpt><trkpt lat="44.607407164226416" lon="10.089421365547311"><ele>582.0</ele><time>2026-04-18T13:33:42Z</time></trkpt><trkpt lat="44.60750210693836" lon="10.089337961130216"><ele>586.0</ele><time>2026-04-18T13:33:43Z</time></trkpt><trkpt lat="44.60761854584979" lon="10.08933197227106"><ele>586.0</ele><time>2026-04-18T13:33:44Z</time></trkpt><trkpt lat="44.60775917329273" lon="10.089356129918155"><ele>586.0</ele><time>2026-04-18T13:33:45Z</time></trkpt><trkpt lat="44.60790745859184" lon="10.089375518621287"><ele>586.0</ele><time>2026-04-18T13:33:46Z</time></trkpt><trkpt lat="44.60805360364293" lon="10.089419755117794"><ele>586.0</ele><time>2026-04-18T13:33:47Z</time></trkpt><trkpt lat="44.60819529914387" lon="10.089453445541206"><ele>586.75</ele><time>2026-04-18T13:33:48Z</time></trkpt><trkpt lat="44.608334843162574" lon="10.089491137268096"><ele>587.5</ele><time>2026-04-18T13:33:49Z</time></trkpt><trkpt lat="44.60847351647399" lon="10.089538486859807"><ele>588.25</ele><time>2026-04-18T13:33:50Z</time></trkpt><trkpt lat="44.60861151683271" lon="10.089577644927704"><ele>589.0</ele><time>2026-04-18T13:33:51Z</time></trkpt><trkpt lat="44.60874017962073" lon="10.089609165192865"><ele>586.8</ele><time>2026-04-18T13:33:52Z</time></trkpt><trkpt lat="44.608857142456046" lon="10.089634919909024"><ele>584.5999999999999</ele><time>2026-04-18T13:33:53Z</time></trkpt><trkpt lat="44.60896072572393" lon="10.089646315477612"><ele>582.4</ele><time>2026-04-18T13:33:54Z</time></trkpt><trkpt lat="44.60905053308996" lon="10.089612350470174"><ele>580.1999999999999</ele><time>2026-04-18T13:33:55Z</time></trkpt><trkpt lat="44.60912874737373" lon="10.089496347302948"><ele>578.0</ele><time>2026-04-18T13:33:56Z</time></trkpt><trkpt lat="44.60915253245478" lon="10.089309798290154"><ele>581.6666666666666</ele><time>2026-04-18T13:33:57Z</time></trkpt><trkpt lat="44.60911974907009" lon="10.089089266987779"><ele>585.3333333333334</ele><time>2026-04-18T13:33:58Z</time></trkpt><trkpt lat="44.60908117853165" lon="10.088874032212058"><ele>589.0</ele><time>2026-04-18T13:33:59Z</time></trkpt><trkpt lat="44.60909868617089" lon="10.088680752208615"><ele>589.0</ele><time>2026-04-18T13:34:00Z</time></trkpt><trkpt lat="44.60915345886259" lon="10.08854200424993"><ele>589.0</ele><time>2026-04-18T13:34:01Z</time></trkpt><trkpt lat="44.60926270206897" lon="10.08846785579616"><ele>589.0</ele><time>2026-04-18T13:34:02Z</time></trkpt><trkpt lat="44.60938279640512" lon="10.088377679030256"><ele>589.0</ele><time>2026-04-18T13:34:03Z</time></trkpt><trkpt lat="44.60947652690589" lon="10.088274799990005"><ele>583.75</ele><time>2026-04-18T13:34:04Z</time></trkpt><trkpt lat="44.609546795545256" lon="10.088142943350283"><ele>578.5</ele><time>2026-04-18T13:34:05Z</time></trkpt><trkpt lat="44.609586766404355" lon="10.087959640941513"><ele>573.25</ele><time>2026-04-18T13:34:06Z</time></trkpt><trkpt lat="44.60958712596767" lon="10.087736578975889"><ele>568.0</ele><time>2026-04-18T13:34:07Z</time></trkpt><trkpt lat="44.60956667085301" lon="10.087518662786927"><ele>568.75</ele><time>2026-04-18T13:34:08Z</time></trkpt><trkpt lat="44.60955368554348" lon="10.087317900697165"><ele>569.5</ele><time>2026-04-18T13:34:09Z</time></trkpt><trkpt lat="44.60955792102606" lon="10.08714159806314"><ele>570.25</ele><time>2026-04-18T13:34:10Z</time></trkpt><trkpt lat="44.60955354692546" lon="10.08697946802031"><ele>571.0</ele><time>2026-04-18T13:34:11Z</time></trkpt><trkpt lat="44.60955000776611" lon="10.086813442237446"><ele>571.0</ele><time>2026-04-18T13:34:12Z</time></trkpt><trkpt lat="44.609545463526814" lon="10.086659875263097"><ele>571.0</ele><time>2026-04-18T13:34:13Z</time></trkpt><trkpt lat="44.609540223333546" lon="10.08650533782701"><ele>571.0</ele><time>2026-04-18T13:34:14Z</time></trkpt><trkpt lat="44.60954016852459" lon="10.086346910194118"><ele>571.0</ele><time>2026-04-18T13:34:15Z</time></trkpt><trkpt lat="44.609545339799055" lon="10.08619319138139"><ele>571.0</ele><time>2026-04-18T13:34:16Z</time></trkpt><trkpt lat="44.60955282556416" lon="10.086038659022558"><ele>571.75</ele><time>2026-04-18T13:34:17Z</time></trkpt><trkpt lat="44.60955537409062" lon="10.085887151742154"><ele>572.5</ele><time>2026-04-18T13:34:17.999Z</time></trkpt><trkpt lat="44.609565208348904" lon="10.08573174292294"><ele>573.25</ele><time>2026-04-18T13:34:18.999Z</time></trkpt><trkpt lat="44.60956985407135" lon="10.085573124126636"><ele>574.0</ele><time>2026-04-18T13:34:19.999Z</time></trkpt><trkpt lat="44.6095775372205" lon="10.085408160629651"><ele>574.75</ele><time>2026-04-18T13:34:20.999Z</time></trkpt><trkpt lat="44.609562590778964" lon="10.085234034361811"><ele>575.5</ele><time>2026-04-18T13:34:21.999Z</time></trkpt><trkpt lat="44.60953937627891" lon="10.08505864609397"><ele>576.25</ele><time>2026-04-18T13:34:22.999Z</time></trkpt><trkpt lat="44.60951973411938" lon="10.08488562133682"><ele>577.0</ele><time>2026-04-18T13:34:23.999Z</time></trkpt><trkpt lat="44.609518393684624" lon="10.084708103552321"><ele>578.0</ele><time>2026-04-18T13:34:24.999Z</time></trkpt><trkpt lat="44.60951687255658" lon="10.084544966096757"><ele>579.0</ele><time>2026-04-18T13:34:25.999Z</time></trkpt><trkpt lat="44.60951508399544" lon="10.084400003480605"><ele>580.0</ele><time>2026-04-18T13:34:26.999Z</time></trkpt><trkpt lat="44.60951342559134" lon="10.084269142160421"><ele>581.0</ele><time>2026-04-18T13:34:27.999Z</time></trkpt><trkpt lat="44.6095115634119" lon="10.084157629338707"><ele>582.0</ele><time>2026-04-18T13:34:28.999Z</time></trkpt><trkpt lat="44.60950948315471" lon="10.084053147350993"><ele>582.6666666666666</ele><time>2026-04-18T13:34:29.999Z</time></trkpt><trkpt lat="44.609508040600424" lon="10.083954316143187"><ele>583.3333333333334</ele><time>2026-04-18T13:34:30.999Z</time></trkpt><trkpt lat="44.60950830698282" lon="10.083856626817763"><ele>584.0</ele><time>2026-04-18T13:34:31.999Z</time></trkpt><trkpt lat="44.60949818605553" lon="10.083753076685955"><ele>584.6666666666667</ele><time>2026-04-18T13:34:32.999Z</time></trkpt><trkpt lat="44.60950772687066" lon="10.083654205541873"><ele>585.3333333333334</ele><time>2026-04-18T13:34:33.999Z</time></trkpt><trkpt lat="44.60949854952757" lon="10.083491499495349"><ele>586.0</ele><time>2026-04-18T13:34:35.999Z</time></trkpt><trkpt lat="44.60949336752052" lon="10.08337388484985"><ele>587.6666666666667</ele><time>2026-04-18T13:34:37.999Z</time></trkpt><trkpt lat="44.60949064649174" lon="10.083257323070251"><ele>589.3333333333334</ele><time>2026-04-18T13:34:40.999Z</time></trkpt><trkpt lat="44.60949840260755" lon="10.083163445849808"><ele>591.0</ele><time>2026-04-18T13:34:44.999Z</time></trkpt><trkpt lat="44.609538906969384" lon="10.083044739302784"><ele>592.6666666666666</ele><time>2026-04-18T13:41:51Z</time></trkpt><trkpt lat="44.60959818997198" lon="10.082970225202917"><ele>594.3333333333333</ele><time>2026-04-18T13:41:52Z</time></trkpt><trkpt lat="44.609666205346436" lon="10.082872680837058"><ele>596.0</ele><time>2026-04-18T13:41:53Z</time></trkpt><trkpt lat="44.609750715859896" lon="10.082766559772061"><ele>596.0</ele><time>2026-04-18T13:41:54Z</time></trkpt><trkpt lat="44.60986516723314" lon="10.082641349196164"><ele>596.0</ele><time>2026-04-18T13:41:56Z</time></trkpt><trkpt lat="44.609953125720196" lon="10.082550371943665"><ele>596.0</ele><time>2026-04-18T13:41:57Z</time></trkpt><trkpt lat="44.61006313269561" lon="10.082471573002932"><ele>596.0</ele><time>2026-04-18T13:41:58Z</time></trkpt><trkpt lat="44.610192508452165" lon="10.08242959222435"><ele>598.0</ele><time>2026-04-18T13:41:59Z</time></trkpt><trkpt lat="44.61031255208003" lon="10.082396941560921"><ele>600.0</ele><time>2026-04-18T13:42:00Z</time></trkpt><trkpt lat="44.6104279535816" lon="10.082355692124048"><ele>602.0</ele><time>2026-04-18T13:42:01Z</time></trkpt><trkpt lat="44.610540424776936" lon="10.08226934541624"><ele>604.0</ele><time>2026-04-18T13:42:02Z</time></trkpt><trkpt lat="44.61065374378777" lon="10.082172858920616"><ele>604.0</ele><time>2026-04-18T13:42:03Z</time></trkpt><trkpt lat="44.61076279302809" lon="10.082059283277893"><ele>604.0</ele><time>2026-04-18T13:42:04Z</time></trkpt><trkpt lat="44.6108792041878" lon="10.082017290521843"><ele>604.0</ele><time>2026-04-18T13:42:05Z</time></trkpt><trkpt lat="44.61098313918306" lon="10.082012951447197"><ele>604.0</ele><time>2026-04-18T13:42:06Z</time></trkpt><trkpt lat="44.61109706511336" lon="10.082049658094661"><ele>604.75</ele><time>2026-04-18T13:42:07Z</time></trkpt><trkpt lat="44.61119879283082" lon="10.082129984982656"><ele>605.5</ele><time>2026-04-18T13:42:08Z</time></trkpt><trkpt lat="44.61125038030574" lon="10.082271840793796"><ele>606.25</ele><time>2026-04-18T13:42:09Z</time></trkpt><trkpt lat="44.61132574621766" lon="10.08241826020849"><ele>607.0</ele><time>2026-04-18T13:42:10Z</time></trkpt><trkpt lat="44.61140321303631" lon="10.0825349109268"><ele>607.0</ele><time>2026-04-18T13:42:11Z</time></trkpt><trkpt lat="44.61146744962549" lon="10.082649866070785"><ele>607.0</ele><time>2026-04-18T13:42:12Z</time></trkpt><trkpt lat="44.61153907294528" lon="10.082747481452616"><ele>607.0</ele><time>2026-04-18T13:42:13Z</time></trkpt><trkpt lat="44.611628895463234" lon="10.082840857711044"><ele>607.0</ele><time>2026-04-18T13:42:14Z</time></trkpt><trkpt lat="44.611740956123555" lon="10.082882712842597"><ele>607.0</ele><time>2026-04-18T13:42:15Z</time></trkpt><trkpt lat="44.61187782476454" lon="10.082868060171421"><ele>608.75</ele><time>2026-04-18T13:42:16Z</time></trkpt><trkpt lat="44.61202014530885" lon="10.082842176946176"><ele>610.5</ele><time>2026-04-18T13:42:17Z</time></trkpt><trkpt lat="44.612164812677534" lon="10.08281514883853"><ele>612.25</ele><time>2026-04-18T13:42:18Z</time></trkpt><trkpt lat="44.612307836966416" lon="10.082795662008026"><ele>614.0</ele><time>2026-04-18T13:42:19Z</time></trkpt><trkpt lat="44.61243729477669" lon="10.082777547449416"><ele>614.0</ele><time>2026-04-18T13:42:20Z</time></trkpt><trkpt lat="44.612569124947896" lon="10.08275965847295"><ele>614.0</ele><time>2026-04-18T13:42:21Z</time></trkpt><trkpt lat="44.61270243963169" lon="10.082755962658668"><ele>614.0</ele><time>2026-04-18T13:42:22Z</time></trkpt><trkpt lat="44.612828426170864" lon="10.082816138386027"><ele>614.0</ele><time>2026-04-18T13:42:23Z</time></trkpt><trkpt lat="44.61295062741811" lon="10.08288456612257"><ele>616.5</ele><time>2026-04-18T13:42:24Z</time></trkpt><trkpt lat="44.613092407515175" lon="10.082951449719646"><ele>619.0</ele><time>2026-04-18T13:42:25Z</time></trkpt><trkpt lat="44.61322280605728" lon="10.083031012076404"><ele>621.5</ele><time>2026-04-18T13:42:26Z</time></trkpt><trkpt lat="44.61335203525047" lon="10.083107028343646"><ele>624.0</ele><time>2026-04-18T13:42:27Z</time></trkpt><trkpt lat="44.61348518163965" lon="10.083177174553462"><ele>624.0</ele><time>2026-04-18T13:42:28Z</time></trkpt><trkpt lat="44.61360580985823" lon="10.08324322876098"><ele>624.0</ele><time>2026-04-18T13:42:29Z</time></trkpt><trkpt lat="44.61373477381948" lon="10.083315088970974"><ele>624.0</ele><time>2026-04-18T13:42:30Z</time></trkpt><trkpt lat="44.613868772225274" lon="10.083387876790056"><ele>624.0</ele><time>2026-04-18T13:42:31Z</time></trkpt><trkpt lat="44.61400649002955" lon="10.083460687551737"><ele>623.25</ele><time>2026-04-18T13:42:32Z</time></trkpt><trkpt lat="44.61414548522445" lon="10.083540761425228"><ele>622.5</ele><time>2026-04-18T13:42:33Z</time></trkpt><trkpt lat="44.61426924156105" lon="10.083636800061365"><ele>621.75</ele><time>2026-04-18T13:42:34Z</time></trkpt><trkpt lat="44.61436573435073" lon="10.083776330512503"><ele>621.0</ele><time>2026-04-18T13:42:35Z</time></trkpt><trkpt lat="44.614463038054126" lon="10.083908146827865"><ele>622.5</ele><time>2026-04-18T13:42:36Z</time></trkpt><trkpt lat="44.61458841366156" lon="10.083983681615258"><ele>624.0</ele><time>2026-04-18T13:42:37Z</time></trkpt><trkpt lat="44.614726130024216" lon="10.084017326912916"><ele>625.5</ele><time>2026-04-18T13:42:38Z</time></trkpt><trkpt lat="44.61484770282351" lon="10.084090420255238"><ele>627.0</ele><time>2026-04-18T13:42:39Z</time></trkpt><trkpt lat="44.614928432727865" lon="10.08421646392584"><ele>627.0</ele><time>2026-04-18T13:42:40Z</time></trkpt><trkpt lat="44.61499121961256" lon="10.08436556391445"><ele>627.0</ele><time>2026-04-18T13:42:41Z</time></trkpt><trkpt lat="44.61506176564068" lon="10.08450264123808"><ele>627.0</ele><time>2026-04-18T13:42:41.999Z</time></trkpt><trkpt lat="44.615159933989325" lon="10.084584940388172"><ele>627.0</ele><time>2026-04-18T13:42:42.999Z</time></trkpt><trkpt lat="44.61526858120325" lon="10.084585525549226"><ele>627.75</ele><time>2026-04-18T13:42:43.999Z</time></trkpt><trkpt lat="44.615368091092826" lon="10.084515531065664"><ele>628.5</ele><time>2026-04-18T13:42:44.999Z</time></trkpt><trkpt lat="44.615465722351345" lon="10.08439625697785"><ele>629.25</ele><time>2026-04-18T13:42:45.999Z</time></trkpt><trkpt lat="44.61555546989228" lon="10.084250259025936"><ele>630.0</ele><time>2026-04-18T13:42:46.999Z</time></trkpt><trkpt lat="44.61564981884957" lon="10.084111083834214"><ele>632.75</ele><time>2026-04-18T13:42:47.999Z</time></trkpt><trkpt lat="44.615749543456964" lon="10.08398164924783"><ele>635.5</ele><time>2026-04-18T13:42:48.999Z</time></trkpt><trkpt lat="44.61585154317233" lon="10.083844079746573"><ele>638.25</ele><time>2026-04-18T13:42:49.999Z</time></trkpt><trkpt lat="44.61595512660687" lon="10.083719256994565"><ele>641.0</ele><time>2026-04-18T13:42:50.999Z</time></trkpt><trkpt lat="44.61604034599741" lon="10.083600773836922"><ele>641.0</ele><time>2026-04-18T13:42:51.999Z</time></trkpt><trkpt lat="44.61608394614528" lon="10.083470369744289"><ele>641.0</ele><time>2026-04-18T13:42:52.999Z</time></trkpt><trkpt lat="44.616074899811366" lon="10.08330944428042"><ele>641.0</ele><time>2026-04-18T13:42:53.999Z</time></trkpt><trkpt lat="44.61604284621802" lon="10.083124768230103"><ele>641.0</ele><time>2026-04-18T13:42:54.999Z</time></trkpt><trkpt lat="44.61602716530526" lon="10.08293299400191"><ele>643.25</ele><time>2026-04-18T13:42:55.999Z</time></trkpt><trkpt lat="44.61608833592392" lon="10.082781931481145"><ele>645.5</ele><time>2026-04-18T13:42:56.999Z</time></trkpt><trkpt lat="44.61617506414722" lon="10.082655094964629"><ele>647.75</ele><time>2026-04-18T13:42:57.999Z</time></trkpt><trkpt lat="44.616276347189206" lon="10.082526060846922"><ele>650.0</ele><time>2026-04-18T13:42:58.999Z</time></trkpt><trkpt lat="44.616398278633966" lon="10.08244560398575"><ele>648.75</ele><time>2026-04-18T13:42:59.999Z</time></trkpt><trkpt lat="44.616518536844275" lon="10.082349247815346"><ele>647.5</ele><time>2026-04-18T13:43:00.999Z</time></trkpt><trkpt lat="44.61663319674456" lon="10.082233835473872"><ele>646.25</ele><time>2026-04-18T13:43:01.999Z</time></trkpt><trkpt lat="44.616738697816125" lon="10.08209767407269"><ele>645.0</ele><time>2026-04-18T13:43:02.999Z</time></trkpt><trkpt lat="44.61683158845084" lon="10.08194792202255"><ele>645.0</ele><time>2026-04-18T13:43:03.999Z</time></trkpt><trkpt lat="44.61690444869172" lon="10.081780038108807"><ele>645.0</ele><time>2026-04-18T13:43:04.999Z</time></trkpt><trkpt lat="44.61694451930101" lon="10.081588387520437"><ele>645.0</ele><time>2026-04-18T13:43:05.999Z</time></trkpt><trkpt lat="44.61697188040413" lon="10.081385060074922"><ele>645.0</ele><time>2026-04-18T13:43:06.999Z</time></trkpt><trkpt lat="44.61703127759503" lon="10.081190232118907"><ele>649.0</ele><time>2026-04-18T13:43:07.999Z</time></trkpt><trkpt lat="44.61711608245331" lon="10.08101642609468"><ele>653.0</ele><time>2026-04-18T13:43:08.999Z</time></trkpt><trkpt lat="44.61720276262323" lon="10.080842417447498"><ele>657.0</ele><time>2026-04-18T13:43:09.999Z</time></trkpt><trkpt lat="44.61728508042771" lon="10.080666902026175"><ele>657.0</ele><time>2026-04-18T13:43:10.999Z</time></trkpt><trkpt lat="44.617375736153164" lon="10.08050852492993"><ele>657.0</ele><time>2026-04-18T13:43:11.999Z</time></trkpt><trkpt lat="44.61747053092413" lon="10.080354595849249"><ele>657.0</ele><time>2026-04-18T13:43:12.999Z</time></trkpt><trkpt lat="44.61758967849625" lon="10.080224670157168"><ele>657.0</ele><time>2026-04-18T13:43:13.999Z</time></trkpt><trkpt lat="44.61772206330794" lon="10.080132965662193"><ele>653.75</ele><time>2026-04-18T13:43:14.999Z</time></trkpt><trkpt lat="44.617844893106316" lon="10.080054774704053"><ele>650.5</ele><time>2026-04-18T13:43:15.999Z</time></trkpt><trkpt lat="44.61795345300184" lon="10.079978443153351"><ele>647.25</ele><time>2026-04-18T13:43:16.999Z</time></trkpt><trkpt lat="44.6180315991868" lon="10.07986637562492"><ele>644.0</ele><time>2026-04-18T13:43:17.999Z</time></trkpt><trkpt lat="44.61808492393975" lon="10.079691671810092"><ele>644.0</ele><time>2026-04-18T13:43:18.999Z</time></trkpt><trkpt lat="44.6181401334" lon="10.07947977660724"><ele>644.0</ele><time>2026-04-18T13:43:19.999Z</time></trkpt><trkpt lat="44.61824137735071" lon="10.079299022526087"><ele>644.0</ele><time>2026-04-18T13:43:20.999Z</time></trkpt><trkpt lat="44.61834585648088" lon="10.079107011971391"><ele>646.3333333333333</ele><time>2026-04-18T13:43:21.999Z</time></trkpt><trkpt lat="44.61848726523604" lon="10.07900194516988"><ele>648.6666666666666</ele><time>2026-04-18T13:43:22.999Z</time></trkpt><trkpt lat="44.61864128051911" lon="10.078881061839828"><ele>651.0</ele><time>2026-04-18T13:43:23.999Z</time></trkpt><trkpt lat="44.6188053277022" lon="10.078770633909658"><ele>651.0</ele><time>2026-04-18T13:43:24.999Z</time></trkpt><trkpt lat="44.61896322222193" lon="10.078639438409033"><ele>651.0</ele><time>2026-04-18T13:43:25.999Z</time></trkpt><trkpt lat="44.619105341769824" lon="10.078526836710235"><ele>651.0</ele><time>2026-04-18T13:43:26.999Z</time></trkpt><trkpt lat="44.619231086390116" lon="10.078452904837409"><ele>651.0</ele><time>2026-04-18T13:43:27.999Z</time></trkpt><trkpt lat="44.619334232529646" lon="10.078373510436569"><ele>651.0</ele><time>2026-04-18T13:43:28.999Z</time></trkpt><trkpt lat="44.61942861833881" lon="10.078253762083198"><ele>651.0</ele><time>2026-04-18T13:43:29.999Z</time></trkpt><trkpt lat="44.61952542340656" lon="10.078095539988174"><ele>651.0</ele><time>2026-04-18T13:43:30.999Z</time></trkpt><trkpt lat="44.61963229912776" lon="10.077918251076454"><ele>649.3333333333334</ele><time>2026-04-18T13:43:31.999Z</time></trkpt><trkpt lat="44.61974535920399" lon="10.07774902867278"><ele>647.6666666666667</ele><time>2026-04-18T13:43:32.999Z</time></trkpt><trkpt lat="44.61984774197481" lon="10.077570409641137"><ele>646.0</ele><time>2026-04-18T13:43:33.999Z</time></trkpt><trkpt lat="44.619944592257916" lon="10.077388933382208"><ele>651.5</ele><time>2026-04-18T13:43:34.999Z</time></trkpt><trkpt lat="44.620022098809834" lon="10.077216624056474"><ele>657.0</ele><time>2026-04-18T13:43:35.999Z</time></trkpt><trkpt lat="44.62007834308056" lon="10.07705027522202"><ele>662.5</ele><time>2026-04-18T13:43:37Z</time></trkpt><trkpt lat="44.620129377532514" lon="10.07688956871941"><ele>668.0</ele><time>2026-04-18T13:43:38Z</time></trkpt><trkpt lat="44.6201945939095" lon="10.076736973851943"><ele>668.0</ele><time>2026-04-18T13:43:39Z</time></trkpt><trkpt lat="44.62030819875952" lon="10.076630096926909"><ele>668.0</ele><time>2026-04-18T13:43:40Z</time></trkpt><trkpt lat="44.62042630369789" lon="10.076542266687339"><ele>668.0</ele><time>2026-04-18T13:43:41Z</time></trkpt><trkpt lat="44.620541954185654" lon="10.076534365408719"><ele>668.0</ele><time>2026-04-18T13:43:42Z</time></trkpt><trkpt lat="44.62067835678052" lon="10.076517406137535"><ele>667.75</ele><time>2026-04-18T13:43:43Z</time></trkpt><trkpt lat="44.62082088850653" lon="10.076572966324049"><ele>667.5</ele><time>2026-04-18T13:43:44Z</time></trkpt><trkpt lat="44.62096315998564" lon="10.076605014886313"><ele>667.25</ele><time>2026-04-18T13:43:45Z</time></trkpt><trkpt lat="44.62108310156617" lon="10.076610884788588"><ele>667.0</ele><time>2026-04-18T13:43:46Z</time></trkpt><trkpt lat="44.62120117620512" lon="10.076591901054552"><ele>665.0</ele><time>2026-04-18T13:43:47Z</time></trkpt><trkpt lat="44.62131799239956" lon="10.076511509868602"><ele>663.0</ele><time>2026-04-18T13:43:48Z</time></trkpt><trkpt lat="44.62143534915857" lon="10.076405456606532"><ele>661.0</ele><time>2026-04-18T13:43:49Z</time></trkpt><trkpt lat="44.62152776494845" lon="10.076326232721906"><ele>659.0</ele><time>2026-04-18T13:43:50Z</time></trkpt><trkpt lat="44.62159694630998" lon="10.076271548119292"><ele>659.0</ele><time>2026-04-18T13:43:51Z</time></trkpt><trkpt lat="44.62167419042692" lon="10.076201257222053"><ele>659.0</ele><time>2026-04-18T13:43:53Z</time></trkpt><trkpt lat="44.62172786408227" lon="10.076129288474998"><ele>659.0</ele><time>2026-04-18T13:43:56Z</time></trkpt><trkpt lat="44.62172937828373" lon="10.07601981166187"><ele>659.0</ele><time>2026-04-18T13:44:06Z</time></trkpt><trkpt lat="44.62165932467201" lon="10.075915236575787"><ele>659.0</ele><time>2026-04-18T13:44:07Z</time></trkpt><trkpt lat="44.621576115146176" lon="10.075817751867547"><ele>658.5</ele><time>2026-04-18T13:44:08Z</time></trkpt><trkpt lat="44.6214814257474" lon="10.075686960376492"><ele>658.0</ele><time>2026-04-18T13:44:09Z</time></trkpt><trkpt lat="44.62137636959354" lon="10.075538337004133"><ele>657.5</ele><time>2026-04-18T13:44:10Z</time></trkpt><trkpt lat="44.62126114190885" lon="10.075384998991224"><ele>657.0</ele><time>2026-04-18T13:44:11Z</time></trkpt><trkpt lat="44.62113026669695" lon="10.075214834319333"><ele>659.0</ele><time>2026-04-18T13:44:12Z</time></trkpt><trkpt lat="44.6210052568443" lon="10.07502304691735"><ele>661.0</ele><time>2026-04-18T13:44:13Z</time></trkpt><trkpt lat="44.62091556739409" lon="10.074807522603253"><ele>663.0</ele><time>2026-04-18T13:44:14Z</time></trkpt><trkpt lat="44.620832630945706" lon="10.074574370250605"><ele>663.0</ele><time>2026-04-18T13:44:15Z</time></trkpt><trkpt lat="44.620729828720165" lon="10.074362948663913"><ele>663.0</ele><time>2026-04-18T13:44:16Z</time></trkpt><trkpt lat="44.620581460581825" lon="10.074210701817877"><ele>663.0</ele><time>2026-04-18T13:44:17Z</time></trkpt><trkpt lat="44.62038957868432" lon="10.074121866929374"><ele>667.6666666666666</ele><time>2026-04-18T13:44:18Z</time></trkpt><trkpt lat="44.62019513917456" lon="10.074048505054577"><ele>672.3333333333333</ele><time>2026-04-18T13:44:19Z</time></trkpt><trkpt lat="44.620024372267835" lon="10.073950285733883"><ele>677.0</ele><time>2026-04-18T13:44:20Z</time></trkpt><trkpt lat="44.619904155440466" lon="10.073809103924853"><ele>677.0</ele><time>2026-04-18T13:44:21Z</time></trkpt><trkpt lat="44.61984695142042" lon="10.073620314188831"><ele>677.0</ele><time>2026-04-18T13:44:22Z</time></trkpt><trkpt lat="44.61981263347908" lon="10.073417327290091"><ele>677.0</ele><time>2026-04-18T13:44:23Z</time></trkpt><trkpt lat="44.61981779905949" lon="10.07319570933327"><ele>676.6666666666666</ele><time>2026-04-18T13:44:24Z</time></trkpt><trkpt lat="44.61984312916702" lon="10.072953366632525"><ele>676.3333333333334</ele><time>2026-04-18T13:44:25Z</time></trkpt><trkpt lat="44.61987308257759" lon="10.072706221524381"><ele>676.0</ele><time>2026-04-18T13:44:26Z</time></trkpt><trkpt lat="44.61988156197601" lon="10.072526837330928"><ele>677.75</ele><time>2026-04-18T13:44:27Z</time></trkpt><trkpt lat="44.61985790288277" lon="10.072399377719695"><ele>679.5</ele><time>2026-04-18T13:44:28Z</time></trkpt><trkpt lat="44.61977289026625" lon="10.072319781378944"><ele>681.25</ele><time>2026-04-18T13:44:29Z</time></trkpt><trkpt lat="44.61962668292997" lon="10.072305688824056"><ele>683.0</ele><time>2026-04-18T13:44:30Z</time></trkpt><trkpt lat="44.61943873112623" lon="10.07232233013732"><ele>683.0</ele><time>2026-04-18T13:44:31Z</time></trkpt><trkpt lat="44.61923568700244" lon="10.072316203827885"><ele>683.0</ele><time>2026-04-18T13:44:32Z</time></trkpt><trkpt lat="44.6190290827135" lon="10.072288133175293"><ele>683.0</ele><time>2026-04-18T13:44:33Z</time></trkpt><trkpt lat="44.61881775395374" lon="10.072263188904529"><ele>688.6666666666666</ele><time>2026-04-18T13:44:34Z</time></trkpt><trkpt lat="44.61862676033134" lon="10.072243243359832"><ele>694.3333333333334</ele><time>2026-04-18T13:44:35Z</time></trkpt><trkpt lat="44.61846654507556" lon="10.072217732461233"><ele>700.0</ele><time>2026-04-18T13:44:36Z</time></trkpt><trkpt lat="44.61831658854593" lon="10.072139061395811"><ele>700.0</ele><time>2026-04-18T13:44:37Z</time></trkpt><trkpt lat="44.618186507479074" lon="10.072029885842502"><ele>700.0</ele><time>2026-04-18T13:44:38Z</time></trkpt><trkpt lat="44.618105403635745" lon="10.071876077853032"><ele>700.0</ele><time>2026-04-18T13:44:39Z</time></trkpt><trkpt lat="44.618113067066425" lon="10.071662806159512"><ele>700.0</ele><time>2026-04-18T13:44:40Z</time></trkpt><trkpt lat="44.61817103066229" lon="10.071445382327973"><ele>701.3333333333334</ele><time>2026-04-18T13:44:41Z</time></trkpt><trkpt lat="44.61823112934054" lon="10.071193853446209"><ele>702.6666666666666</ele><time>2026-04-18T13:44:42Z</time></trkpt><trkpt lat="44.61826811660594" lon="10.070933374522085"><ele>704.0</ele><time>2026-04-18T13:44:43Z</time></trkpt><trkpt lat="44.61823375363674" lon="10.070663939288572"><ele>705.3333333333333</ele><time>2026-04-18T13:44:44Z</time></trkpt><trkpt lat="44.61819158619831" lon="10.070379919355016"><ele>706.6666666666666</ele><time>2026-04-18T13:44:45Z</time></trkpt><trkpt lat="44.618209837402595" lon="10.070102143306826"><ele>708.0</ele><time>2026-04-18T13:44:45.999Z</time></trkpt><trkpt lat="44.61826591150148" lon="10.069813421290148"><ele>709.6666666666666</ele><time>2026-04-18T13:44:46.999Z</time></trkpt><trkpt lat="44.61832634122829" lon="10.069568566776407"><ele>711.3333333333333</ele><time>2026-04-18T13:44:47.999Z</time></trkpt><trkpt lat="44.6183668399029" lon="10.069354199589641"><ele>713.0</ele><time>2026-04-18T13:44:48.999Z</time></trkpt><trkpt lat="44.61836919262938" lon="10.06916042997077"><ele>712.6666666666666</ele><time>2026-04-18T13:44:49.999Z</time></trkpt><trkpt lat="44.618316478726975" lon="10.068962512086399"><ele>712.3333333333334</ele><time>2026-04-18T13:44:50.999Z</time></trkpt><trkpt lat="44.618200014461046" lon="10.06877265628338"><ele>712.0</ele><time>2026-04-18T13:44:51.999Z</time></trkpt><trkpt lat="44.6180626426626" lon="10.068587844704663"><ele>712.0</ele><time>2026-04-18T13:44:52.999Z</time></trkpt><trkpt lat="44.61794126206822" lon="10.06838959458423"><ele>712.0</ele><time>2026-04-18T13:44:53.999Z</time></trkpt><trkpt lat="44.61782076946961" lon="10.068182397696438"><ele>712.0</ele><time>2026-04-18T13:44:54.999Z</time></trkpt><trkpt lat="44.61771717494282" lon="10.067962100691442"><ele>715.3333333333334</ele><time>2026-04-18T13:44:55.999Z</time></trkpt><trkpt lat="44.617673154501304" lon="10.067709130863951"><ele>718.6666666666666</ele><time>2026-04-18T13:44:56.999Z</time></trkpt><trkpt lat="44.617620039876904" lon="10.067463683746222"><ele>722.0</ele><time>2026-04-18T13:44:57.999Z</time></trkpt><trkpt lat="44.6175752288964" lon="10.067261654125629"><ele>722.0</ele><time>2026-04-18T13:44:58.999Z</time></trkpt><trkpt lat="44.61746171517591" lon="10.067107780989506"><ele>722.0</ele><time>2026-04-18T13:44:59.999Z</time></trkpt><trkpt lat="44.617280736322535" lon="10.066963791733276"><ele>722.0</ele><time>2026-04-18T13:45:00.999Z</time></trkpt><trkpt lat="44.617103719822616" lon="10.066816692938025"><ele>724.0</ele><time>2026-04-18T13:45:01.999Z</time></trkpt><trkpt lat="44.61696718715685" lon="10.066627473697897"><ele>726.0</ele><time>2026-04-18T13:45:02.999Z</time></trkpt><trkpt lat="44.61685903049252" lon="10.066426607807706"><ele>728.0</ele><time>2026-04-18T13:45:03.999Z</time></trkpt><trkpt lat="44.61672632808079" lon="10.066282700416398"><ele>728.0</ele><time>2026-04-18T13:45:04.999Z</time></trkpt><trkpt lat="44.616536579781595" lon="10.066226762474546"><ele>728.0</ele><time>2026-04-18T13:45:05.999Z</time></trkpt><trkpt lat="44.616319316095435" lon="10.06619741076887"><ele>728.0</ele><time>2026-04-18T13:45:06.999Z</time></trkpt><trkpt lat="44.6161076724463" lon="10.066143033279916"><ele>732.0</ele><time>2026-04-18T13:45:07.999Z</time></trkpt><trkpt lat="44.615902870731574" lon="10.066072631416466"><ele>736.0</ele><time>2026-04-18T13:45:08.999Z</time></trkpt><trkpt lat="44.61571199383312" lon="10.066007213700834"><ele>740.0</ele><time>2026-04-18T13:45:09.999Z</time></trkpt><trkpt lat="44.61554922535028" lon="10.065957137788756"><ele>740.0</ele><time>2026-04-18T13:45:10.999Z</time></trkpt><trkpt lat="44.61541302197449" lon="10.065955378457177"><ele>740.0</ele><time>2026-04-18T13:45:11.999Z</time></trkpt><trkpt lat="44.615284466203136" lon="10.06603986628095"><ele>740.0</ele><time>2026-04-18T13:45:12.999Z</time></trkpt><trkpt lat="44.6151581982728" lon="10.066237703392286"><ele>739.6666666666666</ele><time>2026-04-18T13:45:13.999Z</time></trkpt><trkpt lat="44.61502363392336" lon="10.066475094211857"><ele>739.3333333333334</ele><time>2026-04-18T13:45:14.999Z</time></trkpt><trkpt lat="44.61487273362628" lon="10.066701561782324"><ele>739.0</ele><time>2026-04-18T13:45:15.999Z</time></trkpt><trkpt lat="44.61472308739465" lon="10.066917090191593"><ele>742.3333333333334</ele><time>2026-04-18T13:45:16.999Z</time></trkpt><trkpt lat="44.61459713201687" lon="10.067099423668285"><ele>745.6666666666666</ele><time>2026-04-18T13:45:17.999Z</time></trkpt><trkpt lat="44.614514039074216" lon="10.067265146821004"><ele>749.0</ele><time>2026-04-18T13:45:18.999Z</time></trkpt><trkpt lat="44.61448887142002" lon="10.067461219366269"><ele>752.3333333333333</ele><time>2026-04-18T13:45:19.999Z</time></trkpt><trkpt lat="44.6145351907696" lon="10.067689452149164"><ele>755.6666666666666</ele><time>2026-04-18T13:45:20.999Z</time></trkpt><trkpt lat="44.61459502624986" lon="10.06791909427373"><ele>759.0</ele><time>2026-04-18T13:45:21.999Z</time></trkpt><trkpt lat="44.61455340573982" lon="10.068140312507953"><ele>759.0</ele><time>2026-04-18T13:45:22.999Z</time></trkpt><trkpt lat="44.61444719605487" lon="10.068312500084131"><ele>759.0</ele><time>2026-04-18T13:45:23.999Z</time></trkpt><trkpt lat="44.61429954304709" lon="10.068497612341698"><ele>759.0</ele><time>2026-04-18T13:45:24.999Z</time></trkpt><trkpt lat="44.61414150543385" lon="10.06870516286399"><ele>759.0</ele><time>2026-04-18T13:45:25.999Z</time></trkpt><trkpt lat="44.61396260679882" lon="10.068902554409167"><ele>759.0</ele><time>2026-04-18T13:45:26.999Z</time></trkpt><trkpt lat="44.613801699812136" lon="10.069097435267182"><ele>759.0</ele><time>2026-04-18T13:45:27.999Z</time></trkpt><trkpt lat="44.613637557606545" lon="10.069290550782183"><ele>763.3333333333333</ele><time>2026-04-18T13:45:28.999Z</time></trkpt><trkpt lat="44.61347790447554" lon="10.06947244321888"><ele>767.6666666666666</ele><time>2026-04-18T13:45:29.999Z</time></trkpt><trkpt lat="44.61332230791765" lon="10.06964897840528"><ele>772.0</ele><time>2026-04-18T13:45:30.999Z</time></trkpt><trkpt lat="44.6131571662364" lon="10.069820802376535"><ele>775.3333333333333</ele><time>2026-04-18T13:45:31.999Z</time></trkpt><trkpt lat="44.612975787013106" lon="10.069985040907296"><ele>778.6666666666667</ele><time>2026-04-18T13:45:32.999Z</time></trkpt><trkpt lat="44.61276856489263" lon="10.07008840137512"><ele>782.0</ele><time>2026-04-18T13:45:33.999Z</time></trkpt><trkpt lat="44.61254982951495" lon="10.070134156697161"><ele>782.5</ele><time>2026-04-18T13:45:34.999Z</time></trkpt><trkpt lat="44.61232525128406" lon="10.070128317299808"><ele>783.0</ele><time>2026-04-18T13:45:35.999Z</time></trkpt><trkpt lat="44.61209748820623" lon="10.070065346513786"><ele>781.3333333333333</ele><time>2026-04-18T13:45:36.999Z</time></trkpt><trkpt lat="44.611892248666024" lon="10.070010129849402"><ele>779.6666666666666</ele><time>2026-04-18T13:45:37.999Z</time></trkpt><trkpt lat="44.611711849833014" lon="10.069949429332315"><ele>778.0</ele><time>2026-04-18T13:45:38.999Z</time></trkpt><trkpt lat="44.61157238164998" lon="10.06991022334248"><ele>778.0</ele><time>2026-04-18T13:45:39.999Z</time></trkpt><trkpt lat="44.61145640447347" lon="10.069878690025405"><ele>778.0</ele><time>2026-04-18T13:45:40.999Z</time></trkpt><trkpt lat="44.611352020044095" lon="10.069884747444755"><ele>778.0</ele><time>2026-04-18T13:45:41.999Z</time></trkpt><trkpt lat="44.61126051975929" lon="10.06994273935011"><ele>778.0</ele><time>2026-04-18T13:45:43Z</time></trkpt><trkpt lat="44.61117085513892" lon="10.070054063242463"><ele>778.0</ele><time>2026-04-18T13:45:44Z</time></trkpt><trkpt lat="44.611105535054264" lon="10.070222488525783"><ele>779.0</ele><time>2026-04-18T13:45:45Z</time></trkpt><trkpt lat="44.61107611404028" lon="10.07045545908581"><ele>780.0</ele><time>2026-04-18T13:45:46Z</time></trkpt><trkpt lat="44.611046122463826" lon="10.070711631447073"><ele>781.0</ele><time>2026-04-18T13:45:47Z</time></trkpt><trkpt lat="44.6109956372373" lon="10.070962809747826"><ele>782.6666666666666</ele><time>2026-04-18T13:45:48Z</time></trkpt><trkpt lat="44.61093840267039" lon="10.071204536843897"><ele>784.3333333333333</ele><time>2026-04-18T13:45:49Z</time></trkpt><trkpt lat="44.61087233553403" lon="10.071428824082725"><ele>786.0</ele><time>2026-04-18T13:45:50Z</time></trkpt><trkpt lat="44.61076555187197" lon="10.071584421043637"><ele>786.3333333333333</ele><time>2026-04-18T13:45:51Z</time></trkpt><trkpt lat="44.61063879207854" lon="10.071681639370725"><ele>786.6666666666666</ele><time>2026-04-18T13:45:52Z</time></trkpt><trkpt lat="44.610475408193714" lon="10.071756972097461"><ele>787.0</ele><time>2026-04-18T13:45:53Z</time></trkpt><trkpt lat="44.61029329547994" lon="10.071788239008963"><ele>787.0</ele><time>2026-04-18T13:45:54Z</time></trkpt><trkpt lat="44.61012810002869" lon="10.07175525660497"><ele>787.0</ele><time>2026-04-18T13:45:55Z</time></trkpt><trkpt lat="44.609954167029464" lon="10.071699146184834"><ele>787.0</ele><time>2026-04-18T13:45:56Z</time></trkpt><trkpt lat="44.60976527857178" lon="10.071638688259387"><ele>782.3333333333333</ele><time>2026-04-18T13:45:57Z</time></trkpt><trkpt lat="44.60957411557997" lon="10.071567089271495"><ele>777.6666666666667</ele><time>2026-04-18T13:45:58Z</time></trkpt><trkpt lat="44.60938834795946" lon="10.071510259171921"><ele>773.0</ele><time>2026-04-18T13:45:59Z</time></trkpt><trkpt lat="44.60920107478129" lon="10.071454412468881"><ele>773.0</ele><time>2026-04-18T13:46:00Z</time></trkpt><trkpt lat="44.60902866752508" lon="10.07139853838588"><ele>773.0</ele><time>2026-04-18T13:46:01Z</time></trkpt><trkpt lat="44.60885782035402" lon="10.0713479122735"><ele>773.0</ele><time>2026-04-18T13:46:02Z</time></trkpt><trkpt lat="44.608694452193355" lon="10.0713001650209"><ele>773.0</ele><time>2026-04-18T13:46:03Z</time></trkpt><trkpt lat="44.608533337641525" lon="10.071252704303685"><ele>773.0</ele><time>2026-04-18T13:46:04Z</time></trkpt><trkpt lat="44.60837684248472" lon="10.071217644054537"><ele>773.0</ele><time>2026-04-18T13:46:05Z</time></trkpt><trkpt lat="44.60821556785898" lon="10.07121458545852"><ele>773.0</ele><time>2026-04-18T13:46:06Z</time></trkpt><trkpt lat="44.60806500947069" lon="10.071271902858474"><ele>773.0</ele><time>2026-04-18T13:46:07Z</time></trkpt><trkpt lat="44.60792171830724" lon="10.071396679530052"><ele>773.0</ele><time>2026-04-18T13:46:08Z</time></trkpt><trkpt lat="44.60780146546008" lon="10.071569738980731"><ele>774.5</ele><time>2026-04-18T13:46:09Z</time></trkpt><trkpt lat="44.60769589379772" lon="10.071753456024243"><ele>776.0</ele><time>2026-04-18T13:46:10Z</time></trkpt><trkpt lat="44.60756540220493" lon="10.071868949667714"><ele>777.5</ele><time>2026-04-18T13:46:11Z</time></trkpt><trkpt lat="44.60745235924605" lon="10.071899733611307"><ele>779.0</ele><time>2026-04-18T13:46:12Z</time></trkpt><trkpt lat="44.60732747626149" lon="10.071897911083664"><ele>779.0</ele><time>2026-04-18T13:46:13Z</time></trkpt><trkpt lat="44.607181720135955" lon="10.071918144359845"><ele>779.0</ele><time>2026-04-18T13:46:14Z</time></trkpt><trkpt lat="44.607023502885966" lon="10.07191744447308"><ele>779.0</ele><time>2026-04-18T13:46:15Z</time></trkpt><trkpt lat="44.60686460075187" lon="10.071923627875718"><ele>776.25</ele><time>2026-04-18T13:46:16Z</time></trkpt><trkpt lat="44.606717525149584" lon="10.071918503051455"><ele>773.5</ele><time>2026-04-18T13:46:17Z</time></trkpt><trkpt lat="44.606583611136145" lon="10.071902324033042"><ele>770.75</ele><time>2026-04-18T13:46:18Z</time></trkpt><trkpt lat="44.60645720884898" lon="10.071876786022754"><ele>768.0</ele><time>2026-04-18T13:46:19Z</time></trkpt><trkpt lat="44.60634452428099" lon="10.0718347869814"><ele>768.0</ele><time>2026-04-18T13:46:20Z</time></trkpt><trkpt lat="44.60626982083457" lon="10.071782817596565"><ele>768.0</ele><time>2026-04-18T13:46:21Z</time></trkpt><trkpt lat="44.60620730741934" lon="10.071715248407537"><ele>768.0</ele><time>2026-04-18T13:46:23Z</time></trkpt><trkpt lat="44.606143966722215" lon="10.071688243136785"><ele>768.0</ele><time>2026-04-18T13:46:26Z</time></trkpt><trkpt lat="44.60626170124082" lon="10.071852562766788"><ele>768.0</ele><time>2026-04-18T13:46:32Z</time></trkpt><trkpt lat="44.606390919583575" lon="10.071888850087936"><ele>768.0</ele><time>2026-04-18T13:46:33Z</time></trkpt><trkpt lat="44.60650732939105" lon="10.071945478765082"><ele>768.0</ele><time>2026-04-18T13:46:34Z</time></trkpt><trkpt lat="44.60667441801323" lon="10.07196585251148"><ele>768.0</ele><time>2026-04-18T13:46:35Z</time></trkpt><trkpt lat="44.60685335164553" lon="10.071947735369429"><ele>771.6666666666667</ele><time>2026-04-18T13:46:36Z</time></trkpt><trkpt lat="44.60701640118352" lon="10.071941890205421"><ele>775.3333333333334</ele><time>2026-04-18T13:46:37Z</time></trkpt><trkpt lat="44.60719808434204" lon="10.071947730942702"><ele>779.0</ele><time>2026-04-18T13:46:38Z</time></trkpt><trkpt lat="44.607358868560965" lon="10.071955137384462"><ele>779.0</ele><time>2026-04-18T13:46:39Z</time></trkpt><trkpt lat="44.60750660508956" lon="10.07194661155146"><ele>779.0</ele><time>2026-04-18T13:46:40Z</time></trkpt><trkpt lat="44.607650952402324" lon="10.071902961282817"><ele>779.0</ele><time>2026-04-18T13:46:41Z</time></trkpt><trkpt lat="44.60777648847768" lon="10.0717658426717"><ele>777.0</ele><time>2026-04-18T13:46:42Z</time></trkpt><trkpt lat="44.60789550086147" lon="10.071558203717428"><ele>775.0</ele><time>2026-04-18T13:46:43Z</time></trkpt><trkpt lat="44.60801863955746" lon="10.071373189854432"><ele>773.0</ele><time>2026-04-18T13:46:44Z</time></trkpt><trkpt lat="44.608176218104845" lon="10.071289680512912"><ele>773.0</ele><time>2026-04-18T13:46:45Z</time></trkpt><trkpt lat="44.608347884752455" lon="10.071265768673634"><ele>773.0</ele><time>2026-04-18T13:46:46Z</time></trkpt><trkpt lat="44.608539176611764" lon="10.071309215882327"><ele>773.0</ele><time>2026-04-18T13:46:47Z</time></trkpt><trkpt lat="44.60872386847169" lon="10.071345299823015"><ele>773.0</ele><time>2026-04-18T13:46:48Z</time></trkpt><trkpt lat="44.608902110147994" lon="10.071418720851913"><ele>773.0</ele><time>2026-04-18T13:46:49Z</time></trkpt><trkpt lat="44.60908392103325" lon="10.0714813169886"><ele>773.0</ele><time>2026-04-18T13:46:50Z</time></trkpt><trkpt lat="44.60926594008347" lon="10.071534715447216"><ele>773.0</ele><time>2026-04-18T13:46:51Z</time></trkpt><trkpt lat="44.6094543448693" lon="10.071586502130438"><ele>773.0</ele><time>2026-04-18T13:46:52Z</time></trkpt><trkpt lat="44.609632941118306" lon="10.071647735493858"><ele>773.0</ele><time>2026-04-18T13:46:52.999Z</time></trkpt><trkpt lat="44.60980872891545" lon="10.071710001646435"><ele>777.6666666666667</ele><time>2026-04-18T13:46:53.999Z</time></trkpt><trkpt lat="44.60998486164882" lon="10.071763620410545"><ele>782.3333333333333</ele><time>2026-04-18T13:46:54.999Z</time></trkpt><trkpt lat="44.610163031705554" lon="10.071813062989856"><ele>787.0</ele><time>2026-04-18T13:46:55.999Z</time></trkpt><trkpt lat="44.61032681097613" lon="10.071842393380502"><ele>788.3333333333333</ele><time>2026-04-18T13:46:56.999Z</time></trkpt><trkpt lat="44.610483390690995" lon="10.071828471482851"><ele>789.6666666666667</ele><time>2026-04-18T13:46:57.999Z</time></trkpt><trkpt lat="44.610648807410286" lon="10.071758563516362"><ele>791.0</ele><time>2026-04-18T13:46:58.999Z</time></trkpt><trkpt lat="44.61080068583164" lon="10.071639116166837"><ele>789.3333333333334</ele><time>2026-04-18T13:46:59.999Z</time></trkpt><trkpt lat="44.61092140408234" lon="10.071470583681538"><ele>787.6666666666667</ele><time>2026-04-18T13:47:00.999Z</time></trkpt><trkpt lat="44.61099450300531" lon="10.071238676073861"><ele>786.0</ele><time>2026-04-18T13:47:01.999Z</time></trkpt><trkpt lat="44.61102500676675" lon="10.070967523293005"><ele>784.3333333333333</ele><time>2026-04-18T13:47:02.999Z</time></trkpt><trkpt lat="44.61106049113445" lon="10.070697092106823"><ele>782.6666666666666</ele><time>2026-04-18T13:47:03.999Z</time></trkpt><trkpt lat="44.611100961314605" lon="10.07046187706269"><ele>781.0</ele><time>2026-04-18T13:47:04.999Z</time></trkpt><trkpt lat="44.611138522299925" lon="10.07025377357924"><ele>780.25</ele><time>2026-04-18T13:47:05.999Z</time></trkpt><trkpt lat="44.61118874246053" lon="10.07007473940726"><ele>779.5</ele><time>2026-04-18T13:47:06.999Z</time></trkpt><trkpt lat="44.6112690128502" lon="10.069962766716209"><ele>778.75</ele><time>2026-04-18T13:47:07.999Z</time></trkpt><trkpt lat="44.61139003778743" lon="10.069909551946465"><ele>778.0</ele><time>2026-04-18T13:47:08.999Z</time></trkpt><trkpt lat="44.61154156511317" lon="10.069966346575448"><ele>779.6666666666666</ele><time>2026-04-18T13:47:09.999Z</time></trkpt><trkpt lat="44.611711198507294" lon="10.070010171548427"><ele>781.3333333333333</ele><time>2026-04-18T13:47:10.999Z</time></trkpt><trkpt lat="44.61189265817544" lon="10.07007723604092"><ele>783.0</ele><time>2026-04-18T13:47:11.999Z</time></trkpt><trkpt lat="44.612076558091765" lon="10.07012285477511"><ele>783.0</ele><time>2026-04-18T13:47:12.999Z</time></trkpt><trkpt lat="44.61225654429004" lon="10.07016290054706"><ele>783.0</ele><time>2026-04-18T13:47:13.999Z</time></trkpt><trkpt lat="44.612435639340696" lon="10.070199073162097"><ele>783.0</ele><time>2026-04-18T13:47:14.999Z</time></trkpt><trkpt lat="44.61261260039212" lon="10.07020134564949"><ele>783.0</ele><time>2026-04-18T13:47:15.999Z</time></trkpt><trkpt lat="44.61277996765518" lon="10.070142549742528"><ele>783.0</ele><time>2026-04-18T13:47:16.999Z</time></trkpt><trkpt lat="44.61294321575526" lon="10.070060823340333"><ele>783.0</ele><time>2026-04-18T13:47:17.999Z</time></trkpt><trkpt lat="44.613089867178914" lon="10.06994070717615"><ele>779.3333333333333</ele><time>2026-04-18T13:47:18.999Z</time></trkpt><trkpt lat="44.61322612290804" lon="10.069797691602536"><ele>775.6666666666666</ele><time>2026-04-18T13:47:19.999Z</time></trkpt><trkpt lat="44.613368522057065" lon="10.06964465395662"><ele>772.0</ele><time>2026-04-18T13:47:20.999Z</time></trkpt><trkpt lat="44.61350522063957" lon="10.069488669477586"><ele>772.0</ele><time>2026-04-18T13:47:21.999Z</time></trkpt><trkpt lat="44.61364437791539" lon="10.069332246356169"><ele>772.0</ele><time>2026-04-18T13:47:22.999Z</time></trkpt><trkpt lat="44.613781258290146" lon="10.06916803719085"><ele>772.0</ele><time>2026-04-18T13:47:23.999Z</time></trkpt><trkpt lat="44.613909100714885" lon="10.069017351938715"><ele>767.6666666666666</ele><time>2026-04-18T13:47:24.999Z</time></trkpt><trkpt lat="44.614035165563045" lon="10.068876758551601"><ele>763.3333333333333</ele><time>2026-04-18T13:47:25.999Z</time></trkpt><trkpt lat="44.61415047107045" lon="10.06873950867992"><ele>759.0</ele><time>2026-04-18T13:47:26.999Z</time></trkpt><trkpt lat="44.61426634860634" lon="10.068600232355635"><ele>759.0</ele><time>2026-04-18T13:47:27.999Z</time></trkpt><trkpt lat="44.61438428705543" lon="10.068459310366912"><ele>759.0</ele><time>2026-04-18T13:47:28.999Z</time></trkpt><trkpt lat="44.61448541948097" lon="10.068323452406503"><ele>759.0</ele><time>2026-04-18T13:47:29.999Z</time></trkpt><trkpt lat="44.61457175419034" lon="10.06819024668382"><ele>759.0</ele><time>2026-04-18T13:47:30.999Z</time></trkpt><trkpt lat="44.614624599242816" lon="10.068048905670864"><ele>759.0</ele><time>2026-04-18T13:47:31.999Z</time></trkpt><trkpt lat="44.61463653579665" lon="10.067878223750853"><ele>759.0</ele><time>2026-04-18T13:47:32.999Z</time></trkpt><trkpt lat="44.61460646066334" lon="10.06769814025977"><ele>759.0</ele><time>2026-04-18T13:47:33.999Z</time></trkpt><trkpt lat="44.61456648955919" lon="10.06751605547379"><ele>759.0</ele><time>2026-04-18T13:47:34.999Z</time></trkpt><trkpt lat="44.61454865955484" lon="10.06734210735353"><ele>756.5</ele><time>2026-04-18T13:47:35.999Z</time></trkpt><trkpt lat="44.614574310939" lon="10.067171720622907"><ele>754.0</ele><time>2026-04-18T13:47:36.999Z</time></trkpt><trkpt lat="44.614671810934105" lon="10.067050555525258"><ele>751.5</ele><time>2026-04-18T13:47:37.999Z</time></trkpt><trkpt lat="44.61476253008998" lon="10.06689175111502"><ele>749.0</ele><time>2026-04-18T13:47:38.999Z</time></trkpt><trkpt lat="44.61487335076956" lon="10.066763569906557"><ele>749.0</ele><time>2026-04-18T13:47:39.999Z</time></trkpt><trkpt lat="44.61497075616049" lon="10.066628497054634"><ele>749.0</ele><time>2026-04-18T13:47:40.999Z</time></trkpt><trkpt lat="44.615063086792496" lon="10.066490892881452"><ele>749.0</ele><time>2026-04-18T13:47:41.999Z</time></trkpt><trkpt lat="44.615154317076296" lon="10.066357977315194"><ele>749.0</ele><time>2026-04-18T13:47:42.999Z</time></trkpt><trkpt lat="44.61523814134076" lon="10.066226934285991"><ele>746.75</ele><time>2026-04-18T13:47:43.999Z</time></trkpt><trkpt lat="44.615312497868175" lon="10.06610486946766"><ele>744.5</ele><time>2026-04-18T13:47:44.999Z</time></trkpt><trkpt lat="44.615406363318876" lon="10.06601420691341"><ele>742.25</ele><time>2026-04-18T13:47:45.999Z</time></trkpt><trkpt lat="44.615539988351635" lon="10.065996178277148"><ele>740.0</ele><time>2026-04-18T13:47:46.999Z</time></trkpt><trkpt lat="44.61568033455418" lon="10.066042967151697"><ele>740.0</ele><time>2026-04-18T13:47:47.999Z</time></trkpt><trkpt lat="44.615828389783374" lon="10.066068760504105"><ele>740.0</ele><time>2026-04-18T13:47:49Z</time></trkpt><trkpt lat="44.615961006065604" lon="10.066132542535685"><ele>740.0</ele><time>2026-04-18T13:47:50Z</time></trkpt><trkpt lat="44.61608933119994" lon="10.066170603117312"><ele>740.0</ele><time>2026-04-18T13:47:51Z</time></trkpt><trkpt lat="44.61621880591728" lon="10.066202596774746"><ele>737.0</ele><time>2026-04-18T13:47:52Z</time></trkpt><trkpt lat="44.61634826753695" lon="10.06623891142663"><ele>734.0</ele><time>2026-04-18T13:47:53Z</time></trkpt><trkpt lat="44.616475749802895" lon="10.066285442897259"><ele>731.0</ele><time>2026-04-18T13:47:54Z</time></trkpt><trkpt lat="44.61659963787054" lon="10.06632752270568"><ele>728.0</ele><time>2026-04-18T13:47:55Z</time></trkpt><trkpt lat="44.61672373226735" lon="10.066374837752106"><ele>728.0</ele><time>2026-04-18T13:47:56Z</time></trkpt><trkpt lat="44.61683925996623" lon="10.066458350305398"><ele>728.0</ele><time>2026-04-18T13:47:57Z</time></trkpt><trkpt lat="44.616945200289265" lon="10.066600223267821"><ele>728.0</ele><time>2026-04-18T13:47:58Z</time></trkpt><trkpt lat="44.61704749854406" lon="10.06677826506728"><ele>728.0</ele><time>2026-04-18T13:47:59Z</time></trkpt><trkpt lat="44.61716018141026" lon="10.066946400593242"><ele>726.5</ele><time>2026-04-18T13:48:00Z</time></trkpt><trkpt lat="44.617288213974504" lon="10.067069742254557"><ele>725.0</ele><time>2026-04-18T13:48:01Z</time></trkpt><trkpt lat="44.61742038234958" lon="10.067170505193118"><ele>723.5</ele><time>2026-04-18T13:48:02Z</time></trkpt><trkpt lat="44.61751928301195" lon="10.067254142182954"><ele>722.0</ele><time>2026-04-18T13:48:03Z</time></trkpt><trkpt lat="44.61758477370029" lon="10.067376340530455"><ele>723.5</ele><time>2026-04-18T13:48:04Z</time></trkpt><trkpt lat="44.61762208144608" lon="10.06754799057275"><ele>725.0</ele><time>2026-04-18T13:48:05Z</time></trkpt><trkpt lat="44.61765323561454" lon="10.067744141119757"><ele>726.5</ele><time>2026-04-18T13:48:06Z</time></trkpt><trkpt lat="44.617688445157654" lon="10.067945965972207"><ele>728.0</ele><time>2026-04-18T13:48:07Z</time></trkpt><trkpt lat="44.617744372174556" lon="10.06813131899086"><ele>722.6666666666666</ele><time>2026-04-18T13:48:08Z</time></trkpt><trkpt lat="44.617833061581685" lon="10.068299510230627"><ele>717.3333333333334</ele><time>2026-04-18T13:48:09Z</time></trkpt><trkpt lat="44.61793748125726" lon="10.068451054403187"><ele>712.0</ele><time>2026-04-18T13:48:10Z</time></trkpt><trkpt lat="44.61803764814275" lon="10.068612478685829"><ele>712.0</ele><time>2026-04-18T13:48:11Z</time></trkpt><trkpt lat="44.61813201328062" lon="10.068777328030643"><ele>712.0</ele><time>2026-04-18T13:48:12Z</time></trkpt><trkpt lat="44.61822010858228" lon="10.068940976744535"><ele>712.0</ele><time>2026-04-18T13:48:13Z</time></trkpt><trkpt lat="44.61829489733612" lon="10.069083703669206"><ele>712.0</ele><time>2026-04-18T13:48:14Z</time></trkpt><trkpt lat="44.61834331620744" lon="10.069216434794907"><ele>712.25</ele><time>2026-04-18T13:48:15Z</time></trkpt><trkpt lat="44.61831777498858" lon="10.069376114428522"><ele>712.5</ele><time>2026-04-18T13:48:16Z</time></trkpt><trkpt lat="44.61829668024831" lon="10.069576121247371"><ele>712.75</ele><time>2026-04-18T13:48:17Z</time></trkpt><trkpt lat="44.618243126366494" lon="10.069787885504452"><ele>713.0</ele><time>2026-04-18T13:48:18Z</time></trkpt><trkpt lat="44.61820688233991" lon="10.070006434246615"><ele>711.3333333333333</ele><time>2026-04-18T13:48:19Z</time></trkpt><trkpt lat="44.61817413777257" lon="10.070221017837245"><ele>709.6666666666666</ele><time>2026-04-18T13:48:20Z</time></trkpt><trkpt lat="44.61815502888057" lon="10.07044865370201"><ele>708.0</ele><time>2026-04-18T13:48:21Z</time></trkpt><trkpt lat="44.61816857317887" lon="10.070685870913865"><ele>706.6666666666666</ele><time>2026-04-18T13:48:22Z</time></trkpt><trkpt lat="44.61820645668843" lon="10.070919327562367"><ele>705.3333333333333</ele><time>2026-04-18T13:48:23Z</time></trkpt><trkpt lat="44.618217353098004" lon="10.071131850464642"><ele>704.0</ele><time>2026-04-18T13:48:24Z</time></trkpt><trkpt lat="44.61815873641616" lon="10.071343576488953"><ele>704.0</ele><time>2026-04-18T13:48:25Z</time></trkpt><trkpt lat="44.61811318015757" lon="10.071556215913223"><ele>704.0</ele><time>2026-04-18T13:48:26Z</time></trkpt><trkpt lat="44.61807436663337" lon="10.071723083840865"><ele>704.0</ele><time>2026-04-18T13:48:27Z</time></trkpt><trkpt lat="44.618072622314244" lon="10.071866538332031"><ele>704.0</ele><time>2026-04-18T13:48:28Z</time></trkpt><trkpt lat="44.618113090667244" lon="10.072002308388585"><ele>703.0</ele><time>2026-04-18T13:48:29Z</time></trkpt><trkpt lat="44.618199379344915" lon="10.072118060286993"><ele>702.0</ele><time>2026-04-18T13:48:30Z</time></trkpt><trkpt lat="44.6183285484423" lon="10.072207706265239"><ele>701.0</ele><time>2026-04-18T13:48:31Z</time></trkpt><trkpt lat="44.61847581815144" lon="10.072260176928932"><ele>700.0</ele><time>2026-04-18T13:48:32Z</time></trkpt><trkpt lat="44.61863358242348" lon="10.072283921860187"><ele>694.3333333333334</ele><time>2026-04-18T13:48:33Z</time></trkpt><trkpt lat="44.61879550623849" lon="10.072296894773839"><ele>688.6666666666666</ele><time>2026-04-18T13:48:34Z</time></trkpt><trkpt lat="44.61894647254142" lon="10.072308889815199"><ele>683.0</ele><time>2026-04-18T13:48:35Z</time></trkpt><trkpt lat="44.619096903906545" lon="10.072323291612948"><ele>683.0</ele><time>2026-04-18T13:48:36Z</time></trkpt><trkpt lat="44.61924628360659" lon="10.07233196384806"><ele>683.0</ele><time>2026-04-18T13:48:37Z</time></trkpt><trkpt lat="44.61938919027554" lon="10.072337404641406"><ele>683.0</ele><time>2026-04-18T13:48:38Z</time></trkpt><trkpt lat="44.61952790772208" lon="10.0723506364435"><ele>683.0</ele><time>2026-04-18T13:48:39Z</time></trkpt><trkpt lat="44.61964559322861" lon="10.072362112704171"><ele>681.5999999999999</ele><time>2026-04-18T13:48:40Z</time></trkpt><trkpt lat="44.61973802988703" lon="10.072379810878617"><ele>680.1999999999999</ele><time>2026-04-18T13:48:41Z</time></trkpt><trkpt lat="44.61981281216993" lon="10.072424917610105"><ele>678.8</ele><time>2026-04-18T13:48:42Z</time></trkpt><trkpt lat="44.619859412404175" lon="10.072529280477857"><ele>677.4</ele><time>2026-04-18T13:48:43Z</time></trkpt><trkpt lat="44.61986065398631" lon="10.072681905096493"><ele>676.0</ele><time>2026-04-18T13:48:44Z</time></trkpt><trkpt lat="44.61981269870792" lon="10.072844395785632"><ele>676.0</ele><time>2026-04-18T13:48:45Z</time></trkpt><trkpt lat="44.619799245198266" lon="10.073024112111696"><ele>676.0</ele><time>2026-04-18T13:48:46Z</time></trkpt><trkpt lat="44.61978267355107" lon="10.073211695341408"><ele>676.0</ele><time>2026-04-18T13:48:47Z</time></trkpt><trkpt lat="44.61977840513038" lon="10.073393160549735"><ele>676.0</ele><time>2026-04-18T13:48:48Z</time></trkpt><trkpt lat="44.61979868110811" lon="10.073576284005732"><ele>676.25</ele><time>2026-04-18T13:48:49Z</time></trkpt><trkpt lat="44.619856100598405" lon="10.073759148088943"><ele>676.5</ele><time>2026-04-18T13:48:50Z</time></trkpt><trkpt lat="44.61994647206262" lon="10.073927505410156"><ele>676.75</ele><time>2026-04-18T13:48:51Z</time></trkpt><trkpt lat="44.62006145045506" lon="10.074048698108273"><ele>677.0</ele><time>2026-04-18T13:48:52Z</time></trkpt><trkpt lat="44.62018984877331" lon="10.074120572294433"><ele>673.5</ele><time>2026-04-18T13:48:53Z</time></trkpt><trkpt lat="44.62032394059248" lon="10.07416463235586"><ele>670.0</ele><time>2026-04-18T13:48:54Z</time></trkpt><trkpt lat="44.62044845279575" lon="10.07424281476201"><ele>666.5</ele><time>2026-04-18T13:48:55Z</time></trkpt><trkpt lat="44.62057782625805" lon="10.074313000488276"><ele>663.0</ele><time>2026-04-18T13:48:56Z</time></trkpt><trkpt lat="44.62069083114079" lon="10.074411019367313"><ele>663.0</ele><time>2026-04-18T13:48:57Z</time></trkpt><trkpt lat="44.620783339159864" lon="10.07455915676099"><ele>663.0</ele><time>2026-04-18T13:48:57.999Z</time></trkpt><trkpt lat="44.620856334457336" lon="10.074739366106542"><ele>663.0</ele><time>2026-04-18T13:48:58.999Z</time></trkpt><trkpt lat="44.620927857901414" lon="10.074904277952703"><ele>663.0</ele><time>2026-04-18T13:48:59.999Z</time></trkpt><trkpt lat="44.62099850849574" lon="10.075072383322047"><ele>664.6666666666666</ele><time>2026-04-18T13:49:00.999Z</time></trkpt><trkpt lat="44.62111514635635" lon="10.075233678769655"><ele>666.3333333333333</ele><time>2026-04-18T13:49:01.999Z</time></trkpt><trkpt lat="44.62125867071786" lon="10.075440566495063"><ele>668.0</ele><time>2026-04-18T13:49:02.999Z</time></trkpt><trkpt lat="44.62141141650359" lon="10.075653527079744"><ele>665.0</ele><time>2026-04-18T13:49:03.999Z</time></trkpt><trkpt lat="44.62156394241026" lon="10.07584570765392"><ele>662.0</ele><time>2026-04-18T13:49:04.999Z</time></trkpt><trkpt lat="44.62168852982921" lon="10.076033994584698"><ele>659.0</ele><time>2026-04-18T13:49:05.999Z</time></trkpt><trkpt lat="44.62179601835928" lon="10.076189767195794"><ele>659.0</ele><time>2026-04-18T13:49:06.999Z</time></trkpt><trkpt lat="44.621896985493805" lon="10.076332320414009"><ele>659.0</ele><time>2026-04-18T13:49:07.999Z</time></trkpt><trkpt lat="44.6219778425193" lon="10.076449176667259"><ele>659.0</ele><time>2026-04-18T13:49:08.999Z</time></trkpt><trkpt lat="44.62205260698506" lon="10.076529437678872"><ele>659.0</ele><time>2026-04-18T13:49:09.999Z</time></trkpt><trkpt lat="44.62214268970173" lon="10.076560809458503"><ele>659.0</ele><time>2026-04-18T13:49:10.999Z</time></trkpt><trkpt lat="44.62224175145969" lon="10.07652667252335"><ele>658.5</ele><time>2026-04-18T13:49:11.999Z</time></trkpt><trkpt lat="44.6223422193736" lon="10.076413601346621"><ele>658.0</ele><time>2026-04-18T13:49:12.999Z</time></trkpt><trkpt lat="44.62243133143665" lon="10.076245864344648"><ele>657.5</ele><time>2026-04-18T13:49:13.999Z</time></trkpt><trkpt lat="44.622538738948364" lon="10.076128604233862"><ele>657.0</ele><time>2026-04-18T13:49:14.999Z</time></trkpt><trkpt lat="44.62264758681994" lon="10.076065485190796"><ele>657.0</ele><time>2026-04-18T13:49:15.999Z</time></trkpt><trkpt lat="44.62277349009896" lon="10.0760429963089"><ele>657.0</ele><time>2026-04-18T13:49:16.999Z</time></trkpt><trkpt lat="44.62289713712547" lon="10.076033244677765"><ele>657.0</ele><time>2026-04-18T13:49:17.999Z</time></trkpt><trkpt lat="44.62301560902669" lon="10.076070548616459"><ele>657.0</ele><time>2026-04-18T13:49:18.999Z</time></trkpt><trkpt lat="44.6231340113131" lon="10.076116396574832"><ele>656.0</ele><time>2026-04-18T13:49:19.999Z</time></trkpt><trkpt lat="44.62325599061831" lon="10.076190340631682"><ele>655.0</ele><time>2026-04-18T13:49:20.999Z</time></trkpt><trkpt lat="44.623369627752695" lon="10.07629042748831"><ele>654.0</ele><time>2026-04-18T13:49:21.999Z</time></trkpt><trkpt lat="44.62348525121186" lon="10.076412767726461"><ele>653.0</ele><time>2026-04-18T13:49:22.999Z</time></trkpt><trkpt lat="44.62358505513238" lon="10.076557150477699"><ele>652.0</ele><time>2026-04-18T13:49:23.999Z</time></trkpt><trkpt lat="44.623641978001636" lon="10.076727496660592"><ele>651.0</ele><time>2026-04-18T13:49:24.999Z</time></trkpt><trkpt lat="44.62363919614548" lon="10.076942274204509"><ele>650.0</ele><time>2026-04-18T13:49:25.999Z</time></trkpt><trkpt lat="44.623609691542214" lon="10.077147957682229"><ele>649.0</ele><time>2026-04-18T13:49:26.999Z</time></trkpt><trkpt lat="44.62359569909196" lon="10.07731299401013"><ele>649.25</ele><time>2026-04-18T13:49:27.999Z</time></trkpt><trkpt lat="44.623608247967184" lon="10.077455267338056"><ele>649.5</ele><time>2026-04-18T13:49:28.999Z</time></trkpt><trkpt lat="44.6236589787796" lon="10.077596728344806"><ele>649.75</ele><time>2026-04-18T13:49:29.999Z</time></trkpt><trkpt lat="44.62376738414656" lon="10.077725065377706"><ele>650.0</ele><time>2026-04-18T13:49:30.999Z</time></trkpt><trkpt lat="44.6238916531598" lon="10.077832202570189"><ele>650.0</ele><time>2026-04-18T13:49:31.999Z</time></trkpt><trkpt lat="44.62399806997326" lon="10.077955863229638"><ele>650.0</ele><time>2026-04-18T13:49:32.999Z</time></trkpt><trkpt lat="44.624036259020855" lon="10.078134731222773"><ele>650.0</ele><time>2026-04-18T13:49:33.999Z</time></trkpt><trkpt lat="44.62404693474273" lon="10.07830451489542"><ele>650.0</ele><time>2026-04-18T13:49:34.999Z</time></trkpt><trkpt lat="44.62403940267449" lon="10.078476030515027"><ele>649.5</ele><time>2026-04-18T13:49:35.999Z</time></trkpt><trkpt lat="44.62405599142552" lon="10.078646127496926"><ele>649.0</ele><time>2026-04-18T13:49:36.999Z</time></trkpt><trkpt lat="44.62410451774659" lon="10.078797442829298"><ele>648.5</ele><time>2026-04-18T13:49:37.999Z</time></trkpt><trkpt lat="44.624202343816435" lon="10.078912353753662"><ele>648.0</ele><time>2026-04-18T13:49:38.999Z</time></trkpt><trkpt lat="44.62431329890091" lon="10.078983612338"><ele>648.0</ele><time>2026-04-18T13:49:39.999Z</time></trkpt><trkpt lat="44.624418653909295" lon="10.079056594463335"><ele>648.0</ele><time>2026-04-18T13:49:40.999Z</time></trkpt><trkpt lat="44.62451786325845" lon="10.079118166370982"><ele>648.0</ele><time>2026-04-18T13:49:41.999Z</time></trkpt><trkpt lat="44.62463303698531" lon="10.079139373092131"><ele>648.0</ele><time>2026-04-18T13:49:42.999Z</time></trkpt><trkpt lat="44.6247663641359" lon="10.079079862047653"><ele>646.3333333333334</ele><time>2026-04-18T13:49:43.999Z</time></trkpt><trkpt lat="44.624936902924276" lon="10.078929568583812"><ele>644.6666666666667</ele><time>2026-04-18T13:49:44.999Z</time></trkpt><trkpt lat="44.625148087777525" lon="10.078807194082815"><ele>643.0</ele><time>2026-04-18T13:49:45.999Z</time></trkpt><trkpt lat="44.625361558457556" lon="10.078663603632899"><ele>639.6666666666667</ele><time>2026-04-18T13:49:46.999Z</time></trkpt><trkpt lat="44.62558645221086" lon="10.078517793477278"><ele>636.3333333333334</ele><time>2026-04-18T13:49:47.999Z</time></trkpt><trkpt lat="44.6257681347693" lon="10.078421385571891"><ele>633.0</ele><time>2026-04-18T13:49:48.999Z</time></trkpt><trkpt lat="44.62591899575829" lon="10.078265805239603"><ele>633.0</ele><time>2026-04-18T13:49:49.999Z</time></trkpt><trkpt lat="44.62612130035256" lon="10.078417942806514"><ele>633.0</ele><time>2026-04-18T13:49:50.999Z</time></trkpt><trkpt lat="44.62633747544483" lon="10.078567188630664"><ele>634.5</ele><time>2026-04-18T13:49:51.999Z</time></trkpt><trkpt lat="44.626539317732814" lon="10.078782399922959"><ele>636.0</ele><time>2026-04-18T13:49:52.999Z</time></trkpt><trkpt lat="44.62670289644024" lon="10.078982154290323"><ele>635.0</ele><time>2026-04-18T13:49:53.999Z</time></trkpt><trkpt lat="44.62692480718681" lon="10.07919321379351"><ele>634.0</ele><time>2026-04-18T13:49:55Z</time></trkpt><trkpt lat="44.62706873689248" lon="10.079342349813833"><ele>633.0</ele><time>2026-04-18T13:49:56Z</time></trkpt><trkpt lat="44.62724870943676" lon="10.079527780793253"><ele>633.0</ele><time>2026-04-18T13:49:57Z</time></trkpt><trkpt lat="44.627425120590985" lon="10.079617034321963"><ele>633.0</ele><time>2026-04-18T13:49:58Z</time></trkpt><trkpt lat="44.62764791597738" lon="10.079620701998131"><ele>633.0</ele><time>2026-04-18T13:49:59Z</time></trkpt><trkpt lat="44.62787013605815" lon="10.079608579172382"><ele>631.75</ele><time>2026-04-18T13:50:00Z</time></trkpt><trkpt lat="44.628026736808685" lon="10.079673013579962"><ele>630.5</ele><time>2026-04-18T13:50:01Z</time></trkpt><trkpt lat="44.6281259971846" lon="10.079767630810037"><ele>629.25</ele><time>2026-04-18T13:50:02Z</time></trkpt><trkpt lat="44.62820991270369" lon="10.079937462465965"><ele>628.0</ele><time>2026-04-18T13:50:03Z</time></trkpt><trkpt lat="44.62830945755124" lon="10.08008263770353"><ele>625.75</ele><time>2026-04-18T13:50:04Z</time></trkpt><trkpt lat="44.628420522378306" lon="10.080156126360484"><ele>623.5</ele><time>2026-04-18T13:50:05Z</time></trkpt><trkpt lat="44.628554876275146" lon="10.080130201765641"><ele>621.25</ele><time>2026-04-18T13:50:06Z</time></trkpt><trkpt lat="44.62867431219011" lon="10.08002117337654"><ele>619.0</ele><time>2026-04-18T13:50:07Z</time></trkpt><trkpt lat="44.628732631283164" lon="10.079827890425488"><ele>617.0</ele><time>2026-04-18T13:50:08Z</time></trkpt><trkpt lat="44.62874892009564" lon="10.0796026333258"><ele>615.0</ele><time>2026-04-18T13:50:09Z</time></trkpt><trkpt lat="44.62876839192575" lon="10.079380070665524"><ele>613.0</ele><time>2026-04-18T13:50:10Z</time></trkpt><trkpt lat="44.628840267164634" lon="10.079227740890538"><ele>613.0</ele><time>2026-04-18T13:50:11Z</time></trkpt><trkpt lat="44.62895255946061" lon="10.079119678671844"><ele>613.0</ele><time>2026-04-18T13:50:12Z</time></trkpt><trkpt lat="44.62911718977253" lon="10.079114462752514"><ele>613.0</ele><time>2026-04-18T13:50:13Z</time></trkpt><trkpt lat="44.62932315978057" lon="10.07913389467752"><ele>610.0</ele><time>2026-04-18T13:50:14Z</time></trkpt><trkpt lat="44.62951601137405" lon="10.079147330719234"><ele>607.0</ele><time>2026-04-18T13:50:15Z</time></trkpt><trkpt lat="44.62970198737245" lon="10.079135308335518"><ele>604.0</ele><time>2026-04-18T13:50:16Z</time></trkpt><trkpt lat="44.629873417044394" lon="10.079125767004685"><ele>608.3333333333334</ele><time>2026-04-18T13:50:17Z</time></trkpt><trkpt lat="44.630032271651004" lon="10.079046676680925"><ele>612.6666666666666</ele><time>2026-04-18T13:50:18Z</time></trkpt><trkpt lat="44.63017303276131" lon="10.078859072298522"><ele>617.0</ele><time>2026-04-18T13:50:19Z</time></trkpt><trkpt lat="44.63026957565688" lon="10.078596772842673"><ele>615.6666666666666</ele><time>2026-04-18T13:50:20Z</time></trkpt><trkpt lat="44.63039000647733" lon="10.078425415126638"><ele>614.3333333333334</ele><time>2026-04-18T13:50:21Z</time></trkpt><trkpt lat="44.630533053598704" lon="10.07831673607876"><ele>613.0</ele><time>2026-04-18T13:50:22Z</time></trkpt><trkpt lat="44.6306823197115" lon="10.07824133223054"><ele>613.0</ele><time>2026-04-18T13:50:23Z</time></trkpt><trkpt lat="44.63082672205261" lon="10.078233909311583"><ele>613.0</ele><time>2026-04-18T13:50:24Z</time></trkpt><trkpt lat="44.63095830939281" lon="10.078309172073885"><ele>613.0</ele><time>2026-04-18T13:50:25Z</time></trkpt><trkpt lat="44.63108782554676" lon="10.078459161979215"><ele>610.0</ele><time>2026-04-18T13:50:26Z</time></trkpt><trkpt lat="44.631201065503284" lon="10.078627129446463"><ele>607.0</ele><time>2026-04-18T13:50:27Z</time></trkpt><trkpt lat="44.63130443551085" lon="10.078770299802976"><ele>604.0</ele><time>2026-04-18T13:50:28Z</time></trkpt><trkpt lat="44.63140397386445" lon="10.078875572428368"><ele>601.0</ele><time>2026-04-18T13:50:29Z</time></trkpt><trkpt lat="44.63148194348297" lon="10.07898575890295"><ele>601.0</ele><time>2026-04-18T13:50:30Z</time></trkpt><trkpt lat="44.63156783397859" lon="10.079079733948744"><ele>601.0</ele><time>2026-04-18T13:50:31Z</time></trkpt><trkpt lat="44.63166577351007" lon="10.079140391409206"><ele>601.0</ele><time>2026-04-18T13:50:32Z</time></trkpt><trkpt lat="44.63177597191895" lon="10.079168498858953"><ele>601.0</ele><time>2026-04-18T13:50:33Z</time></trkpt><trkpt lat="44.63190753070946" lon="10.07916859258327"><ele>598.6666666666667</ele><time>2026-04-18T13:50:34Z</time></trkpt><trkpt lat="44.63205196418021" lon="10.079133837171932"><ele>596.3333333333334</ele><time>2026-04-18T13:50:35Z</time></trkpt><trkpt lat="44.632213839589404" lon="10.079091813505134"><ele>594.0</ele><time>2026-04-18T13:50:36Z</time></trkpt><trkpt lat="44.632388185554255" lon="10.079044034178839"><ele>594.0</ele><time>2026-04-18T13:50:37Z</time></trkpt><trkpt lat="44.63258125089372" lon="10.079037374740864"><ele>594.0</ele><time>2026-04-18T13:50:38Z</time></trkpt><trkpt lat="44.632788623015244" lon="10.079008329301434"><ele>594.0</ele><time>2026-04-18T13:50:39Z</time></trkpt><trkpt lat="44.63304279085504" lon="10.078973417797357"><ele>591.0</ele><time>2026-04-18T13:50:40Z</time></trkpt><trkpt lat="44.63328620683202" lon="10.078939983096012"><ele>588.0</ele><time>2026-04-18T13:50:41Z</time></trkpt><trkpt lat="44.63351791359148" lon="10.078908156790936"><ele>587.3333333333334</ele><time>2026-04-18T13:50:42Z</time></trkpt><trkpt lat="44.63373965608091" lon="10.07886954392681"><ele>586.6666666666667</ele><time>2026-04-18T13:50:43Z</time></trkpt><trkpt lat="44.63396422448293" lon="10.078857799969118"><ele>586.0</ele><time>2026-04-18T13:50:44Z</time></trkpt><trkpt lat="44.63419306013326" lon="10.078817025189245"><ele>586.0</ele><time>2026-04-18T13:50:45Z</time></trkpt><trkpt lat="44.634411729299266" lon="10.078778836255301"><ele>586.0</ele><time>2026-04-18T13:50:46Z</time></trkpt><trkpt lat="44.63461798671038" lon="10.07874797864262"><ele>586.0</ele><time>2026-04-18T13:50:47Z</time></trkpt><trkpt lat="44.63481657659124" lon="10.078710198652038"><ele>585.0</ele><time>2026-04-18T13:50:48Z</time></trkpt><trkpt lat="44.63500274410387" lon="10.078762512002637"><ele>584.0</ele><time>2026-04-18T13:50:49Z</time></trkpt><trkpt lat="44.63520129060597" lon="10.078854313605614"><ele>583.0</ele><time>2026-04-18T13:50:50Z</time></trkpt><trkpt lat="44.63539999488457" lon="10.079014440849654"><ele>584.5</ele><time>2026-04-18T13:50:51Z</time></trkpt><trkpt lat="44.63562069723977" lon="10.07921223558452"><ele>586.0</ele><time>2026-04-18T13:50:52Z</time></trkpt><trkpt lat="44.63585022563654" lon="10.079361055126114"><ele>586.0</ele><time>2026-04-18T13:50:53Z</time></trkpt><trkpt lat="44.63608976772763" lon="10.07944424369424"><ele>586.0</ele><time>2026-04-18T13:50:54Z</time></trkpt><trkpt lat="44.63635427740064" lon="10.079489653792008"><ele>583.0</ele><time>2026-04-18T13:50:55Z</time></trkpt><trkpt lat="44.63658933936714" lon="10.079539235213597"><ele>580.0</ele><time>2026-04-18T13:50:56Z</time></trkpt><trkpt lat="44.63681066060865" lon="10.07959418595521"><ele>581.0</ele><time>2026-04-18T13:50:57Z</time></trkpt><trkpt lat="44.63703254691072" lon="10.079619107416775"><ele>582.0</ele><time>2026-04-18T13:50:58Z</time></trkpt><trkpt lat="44.637269743375526" lon="10.079595573937578"><ele>582.0</ele><time>2026-04-18T13:50:59Z</time></trkpt><trkpt lat="44.637514753496184" lon="10.079516555846507"><ele>582.0</ele><time>2026-04-18T13:51:00Z</time></trkpt><trkpt lat="44.63776464194393" lon="10.079438054746651"><ele>581.0</ele><time>2026-04-18T13:51:01Z</time></trkpt><trkpt lat="44.638008705102905" lon="10.079373157214096"><ele>580.0</ele><time>2026-04-18T13:51:02Z</time></trkpt><trkpt lat="44.63824977743597" lon="10.079315021558417"><ele>580.0</ele><time>2026-04-18T13:51:02.999Z</time></trkpt><trkpt lat="44.63848790005885" lon="10.079261138980783"><ele>580.0</ele><time>2026-04-18T13:51:03.999Z</time></trkpt><trkpt lat="44.63872631502381" lon="10.079216252965546"><ele>580.5</ele><time>2026-04-18T13:51:04.999Z</time></trkpt><trkpt lat="44.63897453990741" lon="10.07919463763063"><ele>581.0</ele><time>2026-04-18T13:51:05.999Z</time></trkpt><trkpt lat="44.63921791329009" lon="10.079198262221905"><ele>579.5</ele><time>2026-04-18T13:51:06.999Z</time></trkpt><trkpt lat="44.63946848340283" lon="10.07921662468501"><ele>578.0</ele><time>2026-04-18T13:51:07.999Z</time></trkpt><trkpt lat="44.6397090326853" lon="10.079232245704231"><ele>578.0</ele><time>2026-04-18T13:51:08.999Z</time></trkpt><trkpt lat="44.639926435721385" lon="10.07924312178854"><ele>578.0</ele><time>2026-04-18T13:51:09.999Z</time></trkpt><trkpt lat="44.64013129582799" lon="10.079244089364584"><ele>578.0</ele><time>2026-04-18T13:51:10.999Z</time></trkpt><trkpt lat="44.64033337629961" lon="10.079197269063698"><ele>573.0</ele><time>2026-04-18T13:51:11.999Z</time></trkpt><trkpt lat="44.64052895914109" lon="10.079055586467138"><ele>568.0</ele><time>2026-04-18T13:51:12.999Z</time></trkpt><trkpt lat="44.64071133580955" lon="10.07884056721421"><ele>568.0</ele><time>2026-04-18T13:51:13.999Z</time></trkpt><trkpt lat="44.64090067949755" lon="10.078626953708394"><ele>568.0</ele><time>2026-04-18T13:51:14.999Z</time></trkpt><trkpt lat="44.641098305167084" lon="10.078470539423412"><ele>567.3333333333334</ele><time>2026-04-18T13:51:15.999Z</time></trkpt><trkpt lat="44.641271017738234" lon="10.078313696801278"><ele>566.6666666666666</ele><time>2026-04-18T13:51:16.999Z</time></trkpt><trkpt lat="44.64142260634603" lon="10.078183086228774"><ele>566.0</ele><time>2026-04-18T13:51:17.999Z</time></trkpt><trkpt lat="44.64154702877266" lon="10.078073776771927"><ele>564.0</ele><time>2026-04-18T13:51:18.999Z</time></trkpt><trkpt lat="44.6416939747036" lon="10.078115164196182"><ele>562.0</ele><time>2026-04-18T13:51:19.999Z</time></trkpt><trkpt lat="44.64186472887803" lon="10.078217413491975"><ele>560.0</ele><time>2026-04-18T13:51:20.999Z</time></trkpt><trkpt lat="44.64207277047248" lon="10.078308123009913"><ele>560.0</ele><time>2026-04-18T13:51:21.999Z</time></trkpt><trkpt lat="44.64228736927163" lon="10.078382593853599"><ele>560.0</ele><time>2026-04-18T13:51:22.999Z</time></trkpt><trkpt lat="44.64250593483989" lon="10.07839913845269"><ele>560.0</ele><time>2026-04-18T13:51:23.999Z</time></trkpt><trkpt lat="44.64270684186715" lon="10.078336879119076"><ele>555.6666666666666</ele><time>2026-04-18T13:51:24.999Z</time></trkpt><trkpt lat="44.64288811028551" lon="10.078181667209961"><ele>551.3333333333334</ele><time>2026-04-18T13:51:25.999Z</time></trkpt><trkpt lat="44.64303691171813" lon="10.077949047643177"><ele>547.0</ele><time>2026-04-18T13:51:26.999Z</time></trkpt><trkpt lat="44.64315688194905" lon="10.077691436093485"><ele>547.0</ele><time>2026-04-18T13:51:27.999Z</time></trkpt><trkpt lat="44.6432526641862" lon="10.07746650132278"><ele>547.0</ele><time>2026-04-18T13:51:28.999Z</time></trkpt><trkpt lat="44.64335085650714" lon="10.07733727902496"><ele>547.0</ele><time>2026-04-18T13:51:29.999Z</time></trkpt><trkpt lat="44.643435181832935" lon="10.077257693809004"><ele>547.0</ele><time>2026-04-18T13:51:30.999Z</time></trkpt><trkpt lat="44.64353352441488" lon="10.077236576644632"><ele>544.3333333333334</ele><time>2026-04-18T13:51:31.999Z</time></trkpt><trkpt lat="44.643663446139904" lon="10.077350238969798"><ele>541.6666666666666</ele><time>2026-04-18T13:51:32.999Z</time></trkpt><trkpt lat="44.64384603751165" lon="10.07743068380646"><ele>539.0</ele><time>2026-04-18T13:51:33.999Z</time></trkpt><trkpt lat="44.64401884809866" lon="10.077518653681757"><ele>539.0</ele><time>2026-04-18T13:51:34.999Z</time></trkpt><trkpt lat="44.64414657327876" lon="10.077630024131436"><ele>539.0</ele><time>2026-04-18T13:51:35.999Z</time></trkpt><trkpt lat="44.644233619991056" lon="10.077778077541465"><ele>539.0</ele><time>2026-04-18T13:51:36.999Z</time></trkpt><trkpt lat="44.64424689065122" lon="10.078000053776595"><ele>539.0</ele><time>2026-04-18T13:51:37.999Z</time></trkpt><trkpt lat="44.64424416752078" lon="10.078258026399741"><ele>540.0</ele><time>2026-04-18T13:51:38.999Z</time></trkpt><trkpt lat="44.64423795329563" lon="10.078511592846295"><ele>541.0</ele><time>2026-04-18T13:51:39.999Z</time></trkpt><trkpt lat="44.64423387796979" lon="10.07873610166988"><ele>542.0</ele><time>2026-04-18T13:51:40.999Z</time></trkpt><trkpt lat="44.64425989411381" lon="10.078936112493805"><ele>541.3333333333333</ele><time>2026-04-18T13:51:41.999Z</time></trkpt><trkpt lat="44.64432641055014" lon="10.079139328938501"><ele>540.6666666666666</ele><time>2026-04-18T13:51:42.999Z</time></trkpt><trkpt lat="44.644452395091164" lon="10.079328712250625"><ele>540.0</ele><time>2026-04-18T13:51:43.999Z</time></trkpt><trkpt lat="44.644634631499024" lon="10.079446626417505"><ele>529.5</ele><time>2026-04-18T13:51:44.999Z</time></trkpt><trkpt lat="44.64486069436772" lon="10.079516245018446"><ele>519.0</ele><time>2026-04-18T13:51:45.999Z</time></trkpt><trkpt lat="44.6450915853082" lon="10.079597466316235"><ele>509.0</ele><time>2026-04-18T13:51:46.999Z</time></trkpt><trkpt lat="44.64531165634898" lon="10.079704426461813"><ele>499.0</ele><time>2026-04-18T13:51:47.999Z</time></trkpt><trkpt lat="44.64553138600002" lon="10.079818523303281"><ele>510.5</ele><time>2026-04-18T13:51:48.999Z</time></trkpt><trkpt lat="44.64575047164002" lon="10.079934513616445"><ele>522.0</ele><time>2026-04-18T13:51:49.999Z</time></trkpt><trkpt lat="44.64595547238696" lon="10.080095559903947"><ele>512.6666666666666</ele><time>2026-04-18T13:51:50.999Z</time></trkpt><trkpt lat="44.64616062424905" lon="10.080236476345375"><ele>503.3333333333333</ele><time>2026-04-18T13:51:51.999Z</time></trkpt><trkpt lat="44.64635196562516" lon="10.08037146325918"><ele>494.0</ele><time>2026-04-18T13:51:52.999Z</time></trkpt><trkpt lat="44.646535817458805" lon="10.080497669027675"><ele>494.0</ele><time>2026-04-18T13:51:53.999Z</time></trkpt><trkpt lat="44.64670943772556" lon="10.0806254811805"><ele>494.0</ele><time>2026-04-18T13:51:54.999Z</time></trkpt><trkpt lat="44.64685242930783" lon="10.080785022640237"><ele>494.0</ele><time>2026-04-18T13:51:55.999Z</time></trkpt><trkpt lat="44.646980987739816" lon="10.080992714314217"><ele>491.3333333333333</ele><time>2026-04-18T13:51:56.999Z</time></trkpt><trkpt lat="44.64710868323952" lon="10.081206467076251"><ele>488.66666666666663</ele><time>2026-04-18T13:51:57.999Z</time></trkpt><trkpt lat="44.64723852274713" lon="10.081399452784796"><ele>486.0</ele><time>2026-04-18T13:51:58.999Z</time></trkpt><trkpt lat="44.64731915700255" lon="10.081633048310831"><ele>492.33333333333337</ele><time>2026-04-18T13:51:59.999Z</time></trkpt><trkpt lat="44.64740884305268" lon="10.081840441263145"><ele>498.6666666666667</ele><time>2026-04-18T13:52:01Z</time></trkpt><trkpt lat="44.64749898737328" lon="10.08202798376398"><ele>505.0</ele><time>2026-04-18T13:52:02Z</time></trkpt><trkpt lat="44.64761576982663" lon="10.082160379214942"><ele>505.0</ele><time>2026-04-18T13:52:03Z</time></trkpt><trkpt lat="44.64773862181091" lon="10.08222275886368"><ele>505.0</ele><time>2026-04-18T13:52:04Z</time></trkpt><trkpt lat="44.64785961029274" lon="10.082209736289155"><ele>505.0</ele><time>2026-04-18T13:52:05Z</time></trkpt><trkpt lat="44.64798476419085" lon="10.082094727558578"><ele>505.0</ele><time>2026-04-18T13:52:06Z</time></trkpt><trkpt lat="44.6480921556837" lon="10.081919831163374"><ele>501.33333333333337</ele><time>2026-04-18T13:52:07Z</time></trkpt><trkpt lat="44.64821264008298" lon="10.081756506231736"><ele>497.66666666666663</ele><time>2026-04-18T13:52:08Z</time></trkpt><trkpt lat="44.648353261478775" lon="10.08157574190645"><ele>494.0</ele><time>2026-04-18T13:52:09Z</time></trkpt><trkpt lat="44.6485122208497" lon="10.081375106994226"><ele>490.66666666666663</ele><time>2026-04-18T13:52:10Z</time></trkpt><trkpt lat="44.64867076994563" lon="10.081172105923798"><ele>487.33333333333337</ele><time>2026-04-18T13:52:11Z</time></trkpt><trkpt lat="44.6488074231671" lon="10.080982517261138"><ele>484.0</ele><time>2026-04-18T13:52:12Z</time></trkpt><trkpt lat="44.64895239385728" lon="10.08083706478581"><ele>484.0</ele><time>2026-04-18T13:52:13Z</time></trkpt><trkpt lat="44.649098537262134" lon="10.08078174590863"><ele>484.0</ele><time>2026-04-18T13:52:14Z</time></trkpt><trkpt lat="44.64923188282004" lon="10.080799683512758"><ele>484.0</ele><time>2026-04-18T13:52:15Z</time></trkpt><trkpt lat="44.64939353640001" lon="10.08089854371506"><ele>480.33333333333337</ele><time>2026-04-18T13:52:16Z</time></trkpt><trkpt lat="44.64959996392236" lon="10.080986429267655"><ele>476.66666666666663</ele><time>2026-04-18T13:52:17Z</time></trkpt><trkpt lat="44.64981588647524" lon="10.081045096542667"><ele>473.0</ele><time>2026-04-18T13:52:18Z</time></trkpt><trkpt lat="44.65002839152786" lon="10.081085399931093"><ele>473.0</ele><time>2026-04-18T13:52:19Z</time></trkpt><trkpt lat="44.65020564415899" lon="10.081242124014407"><ele>473.0</ele><time>2026-04-18T13:52:20Z</time></trkpt><trkpt lat="44.650416974905674" lon="10.08141804462159"><ele>472.5</ele><time>2026-04-18T13:52:21Z</time></trkpt><trkpt lat="44.65060485629995" lon="10.081580785879686"><ele>472.0</ele><time>2026-04-18T13:52:22Z</time></trkpt><trkpt lat="44.65083837990844" lon="10.081636339212524"><ele>467.0</ele><time>2026-04-18T13:52:23Z</time></trkpt><trkpt lat="44.65113243428904" lon="10.08163692131811"><ele>462.0</ele><time>2026-04-18T13:52:24Z</time></trkpt><trkpt lat="44.65138433734867" lon="10.081654705923887"><ele>462.0</ele><time>2026-04-18T13:52:25Z</time></trkpt><trkpt lat="44.65160973057986" lon="10.081691486659924"><ele>462.0</ele><time>2026-04-18T13:52:26Z</time></trkpt><trkpt lat="44.65179324977401" lon="10.081779164252554"><ele>462.0</ele><time>2026-04-18T13:52:27Z</time></trkpt><trkpt lat="44.65197628225119" lon="10.081907470419523"><ele>460.33333333333337</ele><time>2026-04-18T13:52:28Z</time></trkpt><trkpt lat="44.65215013859939" lon="10.082120834647666"><ele>458.6666666666667</ele><time>2026-04-18T13:52:29Z</time></trkpt><trkpt lat="44.65225257048673" lon="10.082374134642807"><ele>457.0</ele><time>2026-04-18T13:52:30Z</time></trkpt><trkpt lat="44.65234089771561" lon="10.08258932634199"><ele>457.0</ele><time>2026-04-18T13:52:31Z</time></trkpt><trkpt lat="44.652393530811345" lon="10.082749487071007"><ele>457.0</ele><time>2026-04-18T13:52:32Z</time></trkpt><trkpt lat="44.652497488659" lon="10.082852042253768"><ele>457.0</ele><time>2026-04-18T13:52:33Z</time></trkpt><trkpt lat="44.652669986305824" lon="10.082904140760755"><ele>457.0</ele><time>2026-04-18T13:52:34Z</time></trkpt><trkpt lat="44.65288496521536" lon="10.082918197849203"><ele>453.33333333333337</ele><time>2026-04-18T13:52:35Z</time></trkpt><trkpt lat="44.65309608759857" lon="10.082879597677161"><ele>449.66666666666663</ele><time>2026-04-18T13:52:36Z</time></trkpt><trkpt lat="44.65329417372596" lon="10.082885298174105"><ele>446.0</ele><time>2026-04-18T13:52:37Z</time></trkpt><trkpt lat="44.653450054239535" lon="10.082976385921409"><ele>446.0</ele><time>2026-04-18T13:52:38Z</time></trkpt><trkpt lat="44.65360666268804" lon="10.083100029653618"><ele>446.0</ele><time>2026-04-18T13:52:39Z</time></trkpt><trkpt lat="44.653758760749625" lon="10.08320947212212"><ele>446.0</ele><time>2026-04-18T13:52:40Z</time></trkpt><trkpt lat="44.65388810575006" lon="10.08330966791159"><ele>446.5</ele><time>2026-04-18T13:52:41Z</time></trkpt><trkpt lat="44.65402373038584" lon="10.08337096249055"><ele>447.0</ele><time>2026-04-18T13:52:42Z</time></trkpt><trkpt lat="44.654153085197635" lon="10.083406495407116"><ele>447.5</ele><time>2026-04-18T13:52:43Z</time></trkpt><trkpt lat="44.654277118061295" lon="10.083447555197468"><ele>448.0</ele><time>2026-04-18T13:52:44Z</time></trkpt><trkpt lat="44.654409560418" lon="10.083507413566787"><ele>443.75</ele><time>2026-04-18T13:52:45Z</time></trkpt><trkpt lat="44.65452738119284" lon="10.083626414927135"><ele>439.5</ele><time>2026-04-18T13:52:46Z</time></trkpt><trkpt lat="44.65462413103681" lon="10.083765952680514"><ele>435.25</ele><time>2026-04-18T13:52:47Z</time></trkpt><trkpt lat="44.65471738237687" lon="10.083898251303197"><ele>431.0</ele><time>2026-04-18T13:52:48Z</time></trkpt><trkpt lat="44.654813980937504" lon="10.084008923214542"><ele>431.0</ele><time>2026-04-18T13:52:49Z</time></trkpt><trkpt lat="44.65494478811744" lon="10.084057581082524"><ele>431.0</ele><time>2026-04-18T13:52:50Z</time></trkpt><trkpt lat="44.65508167636719" lon="10.084077606710427"><ele>431.0</ele><time>2026-04-18T13:52:51Z</time></trkpt><trkpt lat="44.65520515547448" lon="10.084077163626167"><ele>431.0</ele><time>2026-04-18T13:52:52Z</time></trkpt><trkpt lat="44.65532165076488" lon="10.0840449592116"><ele>431.20000000000005</ele><time>2026-04-18T13:52:53Z</time></trkpt><trkpt lat="44.65543489386982" lon="10.0840325944105"><ele>431.40000000000003</ele><time>2026-04-18T13:52:54Z</time></trkpt><trkpt lat="44.65553143749917" lon="10.0840606815002"><ele>431.6</ele><time>2026-04-18T13:52:55Z</time></trkpt><trkpt lat="44.655611405332145" lon="10.084077318918977"><ele>431.8</ele><time>2026-04-18T13:52:56Z</time></trkpt><trkpt lat="44.65567459574835" lon="10.084172566677296"><ele>432.0</ele><time>2026-04-18T13:52:57Z</time></trkpt><trkpt lat="44.655705059903894" lon="10.08433469798069"><ele>432.0</ele><time>2026-04-18T13:52:58Z</time></trkpt><trkpt lat="44.65569986165345" lon="10.084525554554554"><ele>432.0</ele><time>2026-04-18T13:52:59Z</time></trkpt><trkpt lat="44.65570562899952" lon="10.084790992603452"><ele>432.0</ele><time>2026-04-18T13:53:00Z</time></trkpt><trkpt lat="44.65572702885413" lon="10.085078620473062"><ele>432.75</ele><time>2026-04-18T13:53:01Z</time></trkpt><trkpt lat="44.65571610341801" lon="10.08533101911054"><ele>433.5</ele><time>2026-04-18T13:53:02Z</time></trkpt><trkpt lat="44.655717817573766" lon="10.085532544659229"><ele>434.25</ele><time>2026-04-18T13:53:03Z</time></trkpt><trkpt lat="44.65573316789338" lon="10.085693128404657"><ele>435.0</ele><time>2026-04-18T13:53:04Z</time></trkpt><trkpt lat="44.65578646584946" lon="10.08582034695824"><ele>435.33333333333337</ele><time>2026-04-18T13:53:05Z</time></trkpt><trkpt lat="44.65591282342496" lon="10.085910375931796"><ele>435.6666666666667</ele><time>2026-04-18T13:53:06Z</time></trkpt><trkpt lat="44.65609643124756" lon="10.085938965216842"><ele>436.0</ele><time>2026-04-18T13:53:07Z</time></trkpt><trkpt lat="44.6563034261101" lon="10.085940177079186"><ele>431.75</ele><time>2026-04-18T13:53:08Z</time></trkpt><trkpt lat="44.65647526867123" lon="10.085956565522658"><ele>427.5</ele><time>2026-04-18T13:53:09Z</time></trkpt><trkpt lat="44.65661168463051" lon="10.086000285328602"><ele>423.25</ele><time>2026-04-18T13:53:09.999Z</time></trkpt><trkpt lat="44.65668340019346" lon="10.086141339321095"><ele>419.0</ele><time>2026-04-18T13:53:10.999Z</time></trkpt><trkpt lat="44.65671015605152" lon="10.086346988868808"><ele>420.66666666666663</ele><time>2026-04-18T13:53:11.999Z</time></trkpt><trkpt lat="44.656771620453064" lon="10.086607374884322"><ele>422.33333333333337</ele><time>2026-04-18T13:53:12.999Z</time></trkpt><trkpt lat="44.65681550042881" lon="10.086869906480935"><ele>424.0</ele><time>2026-04-18T13:53:13.999Z</time></trkpt><trkpt lat="44.65686383534207" lon="10.087065732745085"><ele>424.0</ele><time>2026-04-18T13:53:14.999Z</time></trkpt><trkpt lat="44.65692376605434" lon="10.087204439487882"><ele>424.0</ele><time>2026-04-18T13:53:15.999Z</time></trkpt><trkpt lat="44.6570355933188" lon="10.08732878767336"><ele>424.0</ele><time>2026-04-18T13:53:16.999Z</time></trkpt><trkpt lat="44.657240737709735" lon="10.087372854570079"><ele>421.0</ele><time>2026-04-18T13:53:17.999Z</time></trkpt><trkpt lat="44.65742219587796" lon="10.087392134554479"><ele>418.0</ele><time>2026-04-18T13:53:18.999Z</time></trkpt><trkpt lat="44.65753859363458" lon="10.087466171106016"><ele>415.0</ele><time>2026-04-18T13:53:19.999Z</time></trkpt><trkpt lat="44.65762336359378" lon="10.087567533043952"><ele>412.0</ele><time>2026-04-18T13:53:20.999Z</time></trkpt><trkpt lat="44.65764155749461" lon="10.087764174419421"><ele>412.0</ele><time>2026-04-18T13:53:21.999Z</time></trkpt><trkpt lat="44.657558583030955" lon="10.087968609069843"><ele>412.0</ele><time>2026-04-18T13:53:22.999Z</time></trkpt><trkpt lat="44.657495772903" lon="10.088203874333457"><ele>412.0</ele><time>2026-04-18T13:53:23.999Z</time></trkpt><trkpt lat="44.65743116443363" lon="10.088364924931696"><ele>411.8</ele><time>2026-04-18T13:53:24.999Z</time></trkpt><trkpt lat="44.65742385718677" lon="10.088485548701978"><ele>411.6</ele><time>2026-04-18T13:53:25.999Z</time></trkpt><trkpt lat="44.65748463856079" lon="10.088595020125014"><ele>411.40000000000003</ele><time>2026-04-18T13:53:26.999Z</time></trkpt><trkpt lat="44.657588071369034" lon="10.088640889799823"><ele>411.20000000000005</ele><time>2026-04-18T13:53:27.999Z</time></trkpt><trkpt lat="44.65769441395084" lon="10.088584498873447"><ele>411.0</ele><time>2026-04-18T13:53:28.999Z</time></trkpt><trkpt lat="44.657748378636974" lon="10.088420564953585"><ele>411.33333333333337</ele><time>2026-04-18T13:53:29.999Z</time></trkpt><trkpt lat="44.657766621311055" lon="10.088172392283724"><ele>411.6666666666667</ele><time>2026-04-18T13:53:30.999Z</time></trkpt><trkpt lat="44.65782359883952" lon="10.087916701836496"><ele>412.0</ele><time>2026-04-18T13:53:31.999Z</time></trkpt><trkpt lat="44.657901711696326" lon="10.08768064193852"><ele>407.8</ele><time>2026-04-18T13:53:32.999Z</time></trkpt><trkpt lat="44.65794282398334" lon="10.087470146628961"><ele>403.6</ele><time>2026-04-18T13:53:33.999Z</time></trkpt><trkpt lat="44.65798386068794" lon="10.087337879127944"><ele>399.40000000000003</ele><time>2026-04-18T13:53:34.999Z</time></trkpt><trkpt lat="44.65805755245603" lon="10.087255690053475"><ele>395.20000000000005</ele><time>2026-04-18T13:53:36.999Z</time></trkpt><trkpt lat="44.65811803899541" lon="10.087360868826773"><ele>391.0</ele><time>2026-04-18T13:53:37.999Z</time></trkpt><trkpt lat="44.65812704725201" lon="10.08752944836209"><ele>391.0</ele><time>2026-04-18T13:53:38.999Z</time></trkpt><trkpt lat="44.65809159972445" lon="10.08777192329903"><ele>391.0</ele><time>2026-04-18T13:53:39.999Z</time></trkpt><trkpt lat="44.65806764865892" lon="10.088048771055659"><ele>391.0</ele><time>2026-04-18T13:53:40.999Z</time></trkpt><trkpt lat="44.6580696324472" lon="10.088335654472694"><ele>389.6666666666667</ele><time>2026-04-18T13:53:41.999Z</time></trkpt><trkpt lat="44.65809884928268" lon="10.088614445011391"><ele>388.33333333333337</ele><time>2026-04-18T13:53:42.999Z</time></trkpt><trkpt lat="44.65816908836153" lon="10.088911829407136"><ele>387.0</ele><time>2026-04-18T13:53:43.999Z</time></trkpt><trkpt lat="44.65824612616317" lon="10.08917204300416"><ele>386.75</ele><time>2026-04-18T13:53:44.999Z</time></trkpt><trkpt lat="44.65830287599126" lon="10.089410127699335"><ele>386.5</ele><time>2026-04-18T13:53:45.999Z</time></trkpt><trkpt lat="44.658340585156395" lon="10.089587792893106"><ele>386.25</ele><time>2026-04-18T13:53:46.999Z</time></trkpt><trkpt lat="44.658357462461154" lon="10.089726380380855"><ele>386.0</ele><time>2026-04-18T13:53:47.999Z</time></trkpt><trkpt lat="44.658388437211265" lon="10.089842564039971"><ele>384.8</ele><time>2026-04-18T13:53:48.999Z</time></trkpt><trkpt lat="44.65845159490727" lon="10.089926044835366"><ele>383.6</ele><time>2026-04-18T13:53:49.999Z</time></trkpt><trkpt lat="44.65854581028105" lon="10.08994708828125"><ele>382.4</ele><time>2026-04-18T13:53:50.999Z</time></trkpt><trkpt lat="44.658645354002395" lon="10.089887691838225"><ele>381.2</ele><time>2026-04-18T13:53:51.999Z</time></trkpt><trkpt lat="44.65870545415331" lon="10.089747346623753"><ele>380.0</ele><time>2026-04-18T13:53:52.999Z</time></trkpt><trkpt lat="44.658689550749045" lon="10.089560395342263"><ele>382.0</ele><time>2026-04-18T13:53:53.999Z</time></trkpt><trkpt lat="44.65860587155652" lon="10.089364941758742"><ele>384.0</ele><time>2026-04-18T13:53:54.999Z</time></trkpt><trkpt lat="44.65856297669743" lon="10.089142097944308"><ele>386.0</ele><time>2026-04-18T13:53:55.999Z</time></trkpt><trkpt lat="44.65856229229394" lon="10.088907469601333"><ele>386.3333333333333</ele><time>2026-04-18T13:53:56.999Z</time></trkpt><trkpt lat="44.658595399228545" lon="10.088676577356715"><ele>386.66666666666663</ele><time>2026-04-18T13:53:57.999Z</time></trkpt><trkpt lat="44.65866583701369" lon="10.088430404146642"><ele>387.0</ele><time>2026-04-18T13:53:58.999Z</time></trkpt><trkpt lat="44.658747602467884" lon="10.088200767221458"><ele>381.3333333333333</ele><time>2026-04-18T13:53:59.999Z</time></trkpt><trkpt lat="44.658846553749285" lon="10.087994580926111"><ele>375.66666666666663</ele><time>2026-04-18T13:54:00.999Z</time></trkpt><trkpt lat="44.65896623952861" lon="10.087816261357174"><ele>370.0</ele><time>2026-04-18T13:54:01.999Z</time></trkpt><trkpt lat="44.65911123270424" lon="10.08764947815217"><ele>370.0</ele><time>2026-04-18T13:54:02.999Z</time></trkpt><trkpt lat="44.65926619697373" lon="10.087495762095642"><ele>370.0</ele><time>2026-04-18T13:54:03.999Z</time></trkpt><trkpt lat="44.659417907809285" lon="10.087341858200311"><ele>370.0</ele><time>2026-04-18T13:54:04.999Z</time></trkpt><trkpt lat="44.65955816881574" lon="10.087199569016443"><ele>365.5</ele><time>2026-04-18T13:54:05.999Z</time></trkpt><trkpt lat="44.65968807674556" lon="10.087068572054054"><ele>361.0</ele><time>2026-04-18T13:54:07Z</time></trkpt><trkpt lat="44.65978953730512" lon="10.08696673850341"><ele>356.5</ele><time>2026-04-18T13:54:08Z</time></trkpt><trkpt lat="44.65986962125618" lon="10.086885846313516"><ele>352.0</ele><time>2026-04-18T13:54:09Z</time></trkpt><trkpt lat="44.65993027177697" lon="10.086828894644954"><ele>352.0</ele><time>2026-04-18T13:54:10Z</time></trkpt><trkpt lat="44.660006477085396" lon="10.086945499897157"><ele>352.0</ele><time>2026-04-18T13:54:12Z</time></trkpt><trkpt lat="44.65996509962838" lon="10.087092952467872"><ele>352.0</ele><time>2026-04-18T13:54:13Z</time></trkpt><trkpt lat="44.65986923636387" lon="10.08727343947521"><ele>352.0</ele><time>2026-04-18T13:54:14Z</time></trkpt><trkpt lat="44.65975846817556" lon="10.087484331591762"><ele>351.66666666666663</ele><time>2026-04-18T13:54:15Z</time></trkpt><trkpt lat="44.65966256518161" lon="10.087723350012004"><ele>351.3333333333333</ele><time>2026-04-18T13:54:16Z</time></trkpt><trkpt lat="44.659579214535704" lon="10.08795125405449"><ele>351.0</ele><time>2026-04-18T13:54:17Z</time></trkpt><trkpt lat="44.65952371480885" lon="10.088168041564916"><ele>349.3333333333333</ele><time>2026-04-18T13:54:18Z</time></trkpt><trkpt lat="44.65951953967476" lon="10.088417762085248"><ele>347.66666666666663</ele><time>2026-04-18T13:54:19Z</time></trkpt><trkpt lat="44.65960125195769" lon="10.088674997131063"><ele>346.0</ele><time>2026-04-18T13:54:20Z</time></trkpt><trkpt lat="44.659722736554144" lon="10.088935970172466"><ele>343.0</ele><time>2026-04-18T13:54:21Z</time></trkpt><trkpt lat="44.65982492934785" lon="10.089212819248601"><ele>340.0</ele><time>2026-04-18T13:54:22Z</time></trkpt><trkpt lat="44.65993458255059" lon="10.089496883953343"><ele>340.0</ele><time>2026-04-18T13:54:23Z</time></trkpt><trkpt lat="44.66007194396407" lon="10.08978538921553"><ele>340.0</ele><time>2026-04-18T13:54:24Z</time></trkpt><trkpt lat="44.660201027935884" lon="10.090048535352356"><ele>334.66666666666663</ele><time>2026-04-18T13:54:25Z</time></trkpt><trkpt lat="44.66030079978744" lon="10.090282520761399"><ele>329.3333333333333</ele><time>2026-04-18T13:54:26Z</time></trkpt><trkpt lat="44.6604323584939" lon="10.09054929497333"><ele>324.0</ele><time>2026-04-18T13:54:27Z</time></trkpt><trkpt lat="44.660535584115934" lon="10.09078669584661"><ele>324.0</ele><time>2026-04-18T13:54:28Z</time></trkpt><trkpt lat="44.660592180522755" lon="10.091026884556376"><ele>324.0</ele><time>2026-04-18T13:54:29Z</time></trkpt><trkpt lat="44.66064441495605" lon="10.091245898732915"><ele>324.0</ele><time>2026-04-18T13:54:30Z</time></trkpt><trkpt lat="44.66068524731666" lon="10.091434631667935"><ele>324.0</ele><time>2026-04-18T13:54:31Z</time></trkpt><trkpt lat="44.66071086456473" lon="10.091613803712153"><ele>324.0</ele><time>2026-04-18T13:54:32Z</time></trkpt><trkpt lat="44.66072888281602" lon="10.091771793888725"><ele>324.0</ele><time>2026-04-18T13:54:33Z</time></trkpt><trkpt lat="44.66073695293739" lon="10.091906718009124"><ele>324.0</ele><time>2026-04-18T13:54:34Z</time></trkpt><trkpt lat="44.660743383014434" lon="10.092026441052443"><ele>324.0</ele><time>2026-04-18T13:54:35Z</time></trkpt><trkpt lat="44.660751169466785" lon="10.092122472485551"><ele>324.0</ele><time>2026-04-18T13:54:36Z</time></trkpt><trkpt lat="44.66077869517332" lon="10.092209919822562"><ele>324.0</ele><time>2026-04-18T13:54:37Z</time></trkpt><trkpt lat="44.66083582051033" lon="10.092284006316085"><ele>324.0</ele><time>2026-04-18T13:54:38Z</time></trkpt><trkpt lat="44.66091752287089" lon="10.092311438057186"><ele>324.0</ele><time>2026-04-18T13:54:39Z</time></trkpt><trkpt lat="44.6610142011978" lon="10.092256640394789"><ele>324.0</ele><time>2026-04-18T13:54:40Z</time></trkpt><trkpt lat="44.66109540153086" lon="10.092150426711239"><ele>324.0</ele><time>2026-04-18T13:54:41Z</time></trkpt><trkpt lat="44.66109006821462" lon="10.091954821752243"><ele>324.0</ele><time>2026-04-18T13:54:42Z</time></trkpt><trkpt lat="44.66105484474156" lon="10.091779278927232"><ele>324.0</ele><time>2026-04-18T13:54:43Z</time></trkpt><trkpt lat="44.661059707793754" lon="10.0916283456969"><ele>324.0</ele><time>2026-04-18T13:54:44Z</time></trkpt><trkpt lat="44.66105984705281" lon="10.091486003164666"><ele>324.0</ele><time>2026-04-18T13:54:45Z</time></trkpt><trkpt lat="44.661070201060326" lon="10.091290379378588"><ele>324.0</ele><time>2026-04-18T13:54:46Z</time></trkpt><trkpt lat="44.66108246338179" lon="10.091056623722151"><ele>324.0</ele><time>2026-04-18T13:54:47Z</time></trkpt><trkpt lat="44.661095226612545" lon="10.090817103739885"><ele>324.0</ele><time>2026-04-18T13:54:48Z</time></trkpt><trkpt lat="44.66110111825398" lon="10.090587719408527"><ele>319.0</ele><time>2026-04-18T13:54:49Z</time></trkpt><trkpt lat="44.661122732162276" lon="10.090381664222193"><ele>314.0</ele><time>2026-04-18T13:54:50Z</time></trkpt><trkpt lat="44.6611835770479" lon="10.090216460647754"><ele>309.0</ele><time>2026-04-18T13:54:51Z</time></trkpt><trkpt lat="44.66125655781679" lon="10.090094915346874"><ele>304.0</ele><time>2026-04-18T13:54:52Z</time></trkpt><trkpt lat="44.66134412562292" lon="10.090010032775702"><ele>304.0</ele><time>2026-04-18T13:54:53Z</time></trkpt><trkpt lat="44.661432612278524" lon="10.089943605954907"><ele>304.0</ele><time>2026-04-18T13:54:54Z</time></trkpt><trkpt lat="44.66151919861399" lon="10.089870697760919"><ele>304.0</ele><time>2026-04-18T13:54:55Z</time></trkpt><trkpt lat="44.66160048730308" lon="10.089792434785076"><ele>304.0</ele><time>2026-04-18T13:54:56Z</time></trkpt><trkpt lat="44.66168498939733" lon="10.089714305796896"><ele>304.0</ele><time>2026-04-18T13:54:57Z</time></trkpt><trkpt lat="44.661768214192044" lon="10.089642806850975"><ele>303.8333333333333</ele><time>2026-04-18T13:54:58Z</time></trkpt><trkpt lat="44.661852009573465" lon="10.089573054274023"><ele>303.66666666666663</ele><time>2026-04-18T13:54:59Z</time></trkpt><trkpt lat="44.6619314793624" lon="10.08949932281643"><ele>303.5</ele><time>2026-04-18T13:55:00Z</time></trkpt><trkpt lat="44.662010619281006" lon="10.089428637492228"><ele>303.3333333333333</ele><time>2026-04-18T13:55:01Z</time></trkpt><trkpt lat="44.66209020064779" lon="10.08938482963465"><ele>303.1666666666667</ele><time>2026-04-18T13:55:02Z</time></trkpt><trkpt lat="44.66216179564303" lon="10.089354374912022"><ele>303.0</ele><time>2026-04-18T13:55:03Z</time></trkpt><trkpt lat="44.66223916000941" lon="10.08933699466697"><ele>303.0</ele><time>2026-04-18T13:55:04Z</time></trkpt><trkpt lat="44.6623214377819" lon="10.089336702834135"><ele>303.0</ele><time>2026-04-18T13:55:05Z</time></trkpt><trkpt lat="44.66240438775839" lon="10.089354553985714"><ele>303.0</ele><time>2026-04-18T13:55:06Z</time></trkpt><trkpt lat="44.66248032264611" lon="10.08937107168425"><ele>303.0</ele><time>2026-04-18T13:55:07Z</time></trkpt><trkpt lat="44.66255847002578" lon="10.089374023891414"><ele>303.0</ele><time>2026-04-18T13:55:08Z</time></trkpt><trkpt lat="44.66263545747194" lon="10.089376754262043"><ele>303.0</ele><time>2026-04-18T13:55:09Z</time></trkpt><trkpt lat="44.66271804125704" lon="10.089387103832681"><ele>302.2</ele><time>2026-04-18T13:55:10Z</time></trkpt><trkpt lat="44.66281209031035" lon="10.089397818615007"><ele>301.4</ele><time>2026-04-18T13:55:11Z</time></trkpt><trkpt lat="44.66290938796862" lon="10.089406788850939"><ele>300.59999999999997</ele><time>2026-04-18T13:55:11.999Z</time></trkpt><trkpt lat="44.66300206900462" lon="10.089422687365923"><ele>299.8</ele><time>2026-04-18T13:55:12.999Z</time></trkpt><trkpt lat="44.66309056132962" lon="10.089475996664644"><ele>299.0</ele><time>2026-04-18T13:55:13.999Z</time></trkpt><trkpt lat="44.66314739869923" lon="10.08958421961506"><ele>299.0</ele><time>2026-04-18T13:55:14.999Z</time></trkpt><trkpt lat="44.66316415454905" lon="10.089730086602591"><ele>299.0</ele><time>2026-04-18T13:55:15.999Z</time></trkpt><trkpt lat="44.663136738619215" lon="10.089880871882833"><ele>299.0</ele><time>2026-04-18T13:55:16.999Z</time></trkpt><trkpt lat="44.66307489947435" lon="10.090026816313518"><ele>299.0</ele><time>2026-04-18T13:55:17.999Z</time></trkpt><trkpt lat="44.66298207349845" lon="10.090150690416321"><ele>296.75</ele><time>2026-04-18T13:55:18.999Z</time></trkpt><trkpt lat="44.66289424969086" lon="10.09027831954699"><ele>294.5</ele><time>2026-04-18T13:55:19.999Z</time></trkpt><trkpt lat="44.662824519253526" lon="10.090406062151018"><ele>292.25</ele><time>2026-04-18T13:55:20.999Z</time></trkpt><trkpt lat="44.662754757582235" lon="10.090532270390403"><ele>290.0</ele><time>2026-04-18T13:55:21.999Z</time></trkpt><trkpt lat="44.66268685882161" lon="10.090654547492203"><ele>288.6</ele><time>2026-04-18T13:55:22.999Z</time></trkpt><trkpt lat="44.66262110965998" lon="10.090772921470725"><ele>287.2</ele><time>2026-04-18T13:55:23.999Z</time></trkpt><trkpt lat="44.66256401497904" lon="10.090897206734299"><ele>285.8</ele><time>2026-04-18T13:55:24.999Z</time></trkpt><trkpt lat="44.66253666052996" lon="10.091049810086737"><ele>284.4</ele><time>2026-04-18T13:55:25.999Z</time></trkpt><trkpt lat="44.66254949969627" lon="10.09122321092502"><ele>283.0</ele><time>2026-04-18T13:55:26.999Z</time></trkpt><trkpt lat="44.66259861604764" lon="10.091400151133632"><ele>283.0</ele><time>2026-04-18T13:55:27.999Z</time></trkpt><trkpt lat="44.662676714696545" lon="10.091573309507586"><ele>283.0</ele><time>2026-04-18T13:55:28.999Z</time></trkpt><trkpt lat="44.66273642101496" lon="10.091754554552855"><ele>283.0</ele><time>2026-04-18T13:55:29.999Z</time></trkpt><trkpt lat="44.66279532911278" lon="10.091934094597184"><ele>283.0</ele><time>2026-04-18T13:55:30.999Z</time></trkpt><trkpt lat="44.66284836747613" lon="10.092113036595093"><ele>279.5</ele><time>2026-04-18T13:55:31.999Z</time></trkpt><trkpt lat="44.66290310014798" lon="10.092285235190978"><ele>276.0</ele><time>2026-04-18T13:55:32.999Z</time></trkpt><trkpt lat="44.662960093330355" lon="10.092453736409656"><ele>272.5</ele><time>2026-04-18T13:55:33.999Z</time></trkpt><trkpt lat="44.663020631107976" lon="10.092607229067553"><ele>269.0</ele><time>2026-04-18T13:55:34.999Z</time></trkpt><trkpt lat="44.66310111251872" lon="10.092759411886346"><ele>268.33333333333337</ele><time>2026-04-18T13:55:35.999Z</time></trkpt><trkpt lat="44.66321095054905" lon="10.092883324971485"><ele>267.6666666666667</ele><time>2026-04-18T13:55:36.999Z</time></trkpt><trkpt lat="44.66334318976344" lon="10.092972474814387"><ele>267.0</ele><time>2026-04-18T13:55:37.999Z</time></trkpt><trkpt lat="44.663505019265926" lon="10.093014200029218"><ele>264.6666666666667</ele><time>2026-04-18T13:55:38.999Z</time></trkpt><trkpt lat="44.66367057815203" lon="10.093033780444813"><ele>262.33333333333337</ele><time>2026-04-18T13:55:39.999Z</time></trkpt><trkpt lat="44.66383278971716" lon="10.093043998615272"><ele>260.0</ele><time>2026-04-18T13:55:40.999Z</time></trkpt><trkpt lat="44.66400742121122" lon="10.093065174222964"><ele>260.0</ele><time>2026-04-18T13:55:41.999Z</time></trkpt><trkpt lat="44.66416110925992" lon="10.093091607604688"><ele>260.0</ele><time>2026-04-18T13:55:42.999Z</time></trkpt><trkpt lat="44.664323938763836" lon="10.093114823133687"><ele>260.0</ele><time>2026-04-18T13:55:43.999Z</time></trkpt><trkpt lat="44.664479760086024" lon="10.093142308730767"><ele>257.33333333333337</ele><time>2026-04-18T13:55:44.999Z</time></trkpt><trkpt lat="44.66463488321485" lon="10.093166120895122"><ele>254.66666666666669</ele><time>2026-04-18T13:55:45.999Z</time></trkpt><trkpt lat="44.66479850325325" lon="10.093191262387181"><ele>252.0</ele><time>2026-04-18T13:55:46.999Z</time></trkpt><trkpt lat="44.664941962671136" lon="10.093212364564936"><ele>252.0</ele><time>2026-04-18T13:55:47.999Z</time></trkpt><trkpt lat="44.665090399385974" lon="10.093222747543843"><ele>252.0</ele><time>2026-04-18T13:55:48.999Z</time></trkpt><trkpt lat="44.665239821929845" lon="10.093200996903944"><ele>252.0</ele><time>2026-04-18T13:55:49.999Z</time></trkpt><trkpt lat="44.66538236504536" lon="10.093171446423053"><ele>252.0</ele><time>2026-04-18T13:55:50.999Z</time></trkpt><trkpt lat="44.66552245562758" lon="10.093129765698375"><ele>250.0</ele><time>2026-04-18T13:55:51.999Z</time></trkpt><trkpt lat="44.665657792337086" lon="10.093108811548115"><ele>248.0</ele><time>2026-04-18T13:55:52.999Z</time></trkpt><trkpt lat="44.66578596958778" lon="10.093092879336385"><ele>246.0</ele><time>2026-04-18T13:55:53.999Z</time></trkpt><trkpt lat="44.66589719832142" lon="10.093126354788764"><ele>244.0</ele><time>2026-04-18T13:55:54.999Z</time></trkpt><trkpt lat="44.66599727634089" lon="10.093255708576502"><ele>240.66666666666666</ele><time>2026-04-18T13:55:55.999Z</time></trkpt><trkpt lat="44.666126218775425" lon="10.093412342387046"><ele>237.33333333333331</ele><time>2026-04-18T13:55:56.999Z</time></trkpt><trkpt lat="44.66625009411124" lon="10.093612569438992"><ele>234.0</ele><time>2026-04-18T13:55:57.999Z</time></trkpt><trkpt lat="44.66639685840107" lon="10.093779656415721"><ele>234.0</ele><time>2026-04-18T13:55:58.999Z</time></trkpt><trkpt lat="44.666565310475036" lon="10.093925526153509"><ele>234.0</ele><time>2026-04-18T13:55:59.999Z</time></trkpt><trkpt lat="44.666746217708415" lon="10.094052387785762"><ele>234.0</ele><time>2026-04-18T13:56:00.999Z</time></trkpt><trkpt lat="44.66692151373987" lon="10.094200481755028"><ele>231.0</ele><time>2026-04-18T13:56:01.999Z</time></trkpt><trkpt lat="44.667084532913535" lon="10.094352942275437"><ele>228.0</ele><time>2026-04-18T13:56:02.999Z</time></trkpt><trkpt lat="44.66725469388239" lon="10.094491311954632"><ele>225.0</ele><time>2026-04-18T13:56:03.999Z</time></trkpt><trkpt lat="44.66741301043808" lon="10.09461915539683"><ele>225.0</ele><time>2026-04-18T13:56:04.999Z</time></trkpt><trkpt lat="44.667565725262776" lon="10.094750596105067"><ele>225.0</ele><time>2026-04-18T13:56:05.999Z</time></trkpt><trkpt lat="44.66771034003745" lon="10.094881077068628"><ele>225.0</ele><time>2026-04-18T13:56:06.999Z</time></trkpt><trkpt lat="44.667860758243386" lon="10.094998247251166"><ele>223.0</ele><time>2026-04-18T13:56:07.999Z</time></trkpt><trkpt lat="44.66802564562926" lon="10.095095785207507"><ele>221.0</ele><time>2026-04-18T13:56:08.999Z</time></trkpt><trkpt lat="44.66820579324511" lon="10.095166108775132"><ele>219.0</ele><time>2026-04-18T13:56:09.999Z</time></trkpt><trkpt lat="44.66838025158322" lon="10.095239751914647"><ele>219.0</ele><time>2026-04-18T13:56:10.999Z</time></trkpt><trkpt lat="44.668539484663434" lon="10.09533915724783"><ele>219.0</ele><time>2026-04-18T13:56:11.999Z</time></trkpt><trkpt lat="44.66870483481647" lon="10.095397135793947"><ele>219.0</ele><time>2026-04-18T13:56:13Z</time></trkpt><trkpt lat="44.668849632901555" lon="10.095495773485636"><ele>216.33333333333331</ele><time>2026-04-18T13:56:14Z</time></trkpt><trkpt lat="44.66898536436186" lon="10.095632697999486"><ele>213.66666666666666</ele><time>2026-04-18T13:56:15Z</time></trkpt><trkpt lat="44.66912334852777" lon="10.095800844065446"><ele>211.0</ele><time>2026-04-18T13:56:16Z</time></trkpt><trkpt lat="44.66922941787873" lon="10.09599299276319"><ele>211.0</ele><time>2026-04-18T13:56:17Z</time></trkpt><trkpt lat="44.669335240654036" lon="10.096171854121286"><ele>211.0</ele><time>2026-04-18T13:56:18Z</time></trkpt><trkpt lat="44.669420042967474" lon="10.096343634829765"><ele>211.0</ele><time>2026-04-18T13:56:19Z</time></trkpt><trkpt lat="44.66946669542037" lon="10.096506218837485"><ele>211.0</ele><time>2026-04-18T13:56:20Z</time></trkpt><trkpt lat="44.669449878961856" lon="10.096685676978849"><ele>210.33333333333331</ele><time>2026-04-18T13:56:21Z</time></trkpt><trkpt lat="44.66942610682493" lon="10.096912893126014"><ele>209.66666666666669</ele><time>2026-04-18T13:56:22Z</time></trkpt><trkpt lat="44.66936371367366" lon="10.097161395863422"><ele>209.0</ele><time>2026-04-18T13:56:23Z</time></trkpt><trkpt lat="44.66931905220469" lon="10.097413616683532"><ele>207.33333333333334</ele><time>2026-04-18T13:56:24Z</time></trkpt><trkpt lat="44.66928017114615" lon="10.097649201937443"><ele>205.66666666666669</ele><time>2026-04-18T13:56:25Z</time></trkpt><trkpt lat="44.669232727723156" lon="10.097877461235933"><ele>204.0</ele><time>2026-04-18T13:56:26Z</time></trkpt><trkpt lat="44.66918843017108" lon="10.098094887684889"><ele>202.75</ele><time>2026-04-18T13:56:27Z</time></trkpt><trkpt lat="44.66916021454404" lon="10.098286941417928"><ele>201.5</ele><time>2026-04-18T13:56:28Z</time></trkpt><trkpt lat="44.66916153422714" lon="10.098451993672974"><ele>200.25</ele><time>2026-04-18T13:56:29Z</time></trkpt><trkpt lat="44.66919723425692" lon="10.098590464232387"><ele>199.0</ele><time>2026-04-18T13:56:30Z</time></trkpt><trkpt lat="44.66928141477884" lon="10.098699879936815"><ele>199.0</ele><time>2026-04-18T13:56:31Z</time></trkpt><trkpt lat="44.66941147696073" lon="10.098762378670123"><ele>199.0</ele><time>2026-04-18T13:56:32Z</time></trkpt><trkpt lat="44.66954563639123" lon="10.098745860080053"><ele>199.0</ele><time>2026-04-18T13:56:33Z</time></trkpt><trkpt lat="44.66966705689617" lon="10.09865994256044"><ele>199.0</ele><time>2026-04-18T13:56:34Z</time></trkpt><trkpt lat="44.669760479879564" lon="10.098489685283853"><ele>197.33333333333331</ele><time>2026-04-18T13:56:35Z</time></trkpt><trkpt lat="44.66984140420615" lon="10.09827125525736"><ele>195.66666666666669</ele><time>2026-04-18T13:56:36Z</time></trkpt><trkpt lat="44.66992874847567" lon="10.098055767836984"><ele>194.0</ele><time>2026-04-18T13:56:37Z</time></trkpt><trkpt lat="44.670028676125646" lon="10.097870138375482"><ele>194.0</ele><time>2026-04-18T13:56:38Z</time></trkpt><trkpt lat="44.670147107114055" lon="10.097711981580343"><ele>194.0</ele><time>2026-04-18T13:56:39Z</time></trkpt><trkpt lat="44.67027539219459" lon="10.097555018911637"><ele>194.0</ele><time>2026-04-18T13:56:40Z</time></trkpt><trkpt lat="44.670392697355425" lon="10.097390498839795"><ele>190.66666666666669</ele><time>2026-04-18T13:56:41Z</time></trkpt><trkpt lat="44.67049966787262" lon="10.097190226507715"><ele>187.33333333333334</ele><time>2026-04-18T13:56:42Z</time></trkpt><trkpt lat="44.67062645014857" lon="10.096956762762337"><ele>184.0</ele><time>2026-04-18T13:56:43Z</time></trkpt><trkpt lat="44.6707452310683" lon="10.096692144604997"><ele>183.66666666666669</ele><time>2026-04-18T13:56:44Z</time></trkpt><trkpt lat="44.67085403718641" lon="10.096458476937356"><ele>183.33333333333334</ele><time>2026-04-18T13:56:45Z</time></trkpt><trkpt lat="44.67095394084561" lon="10.09624272276393"><ele>183.0</ele><time>2026-04-18T13:56:46Z</time></trkpt><trkpt lat="44.671041915906144" lon="10.096066663717577"><ele>181.75</ele><time>2026-04-18T13:56:47Z</time></trkpt><trkpt lat="44.67114316477059" lon="10.095947425980212"><ele>180.5</ele><time>2026-04-18T13:56:48Z</time></trkpt><trkpt lat="44.67126237117247" lon="10.095880580655333"><ele>179.25</ele><time>2026-04-18T13:56:49Z</time></trkpt><trkpt lat="44.671397307951075" lon="10.095929154426795"><ele>178.0</ele><time>2026-04-18T13:56:50Z</time></trkpt><trkpt lat="44.671535377900135" lon="10.096083519163713"><ele>178.0</ele><time>2026-04-18T13:56:51Z</time></trkpt><trkpt lat="44.67171573115778" lon="10.096234844750459"><ele>178.0</ele><time>2026-04-18T13:56:52Z</time></trkpt><trkpt lat="44.67186152960389" lon="10.096393855412716"><ele>178.0</ele><time>2026-04-18T13:56:53Z</time></trkpt><trkpt lat="44.67197851097223" lon="10.096551003820927"><ele>175.33333333333334</ele><time>2026-04-18T13:56:54Z</time></trkpt><trkpt lat="44.67206623805971" lon="10.096715016854"><ele>172.66666666666666</ele><time>2026-04-18T13:56:55Z</time></trkpt><trkpt lat="44.67211469956053" lon="10.096906035579698"><ele>170.0</ele><time>2026-04-18T13:56:56Z</time></trkpt><trkpt lat="44.6721542599871" lon="10.097137889625781"><ele>170.0</ele><time>2026-04-18T13:56:57Z</time></trkpt><trkpt lat="44.67216115016173" lon="10.09737348967008"><ele>170.0</ele><time>2026-04-18T13:56:58Z</time></trkpt><trkpt lat="44.67217412424119" lon="10.097583407536554"><ele>170.0</ele><time>2026-04-18T13:56:59Z</time></trkpt><trkpt lat="44.67220950267052" lon="10.097737782098838"><ele>170.0</ele><time>2026-04-18T13:57:00Z</time></trkpt><trkpt lat="44.672285851464615" lon="10.097859162177228"><ele>169.0</ele><time>2026-04-18T13:57:01Z</time></trkpt><trkpt lat="44.67241934045862" lon="10.09791070156705"><ele>168.0</ele><time>2026-04-18T13:57:02Z</time></trkpt><trkpt lat="44.67258661857187" lon="10.097861097428142"><ele>167.0</ele><time>2026-04-18T13:57:03Z</time></trkpt><trkpt lat="44.67275721424548" lon="10.097744725843038"><ele>164.66666666666666</ele><time>2026-04-18T13:57:04Z</time></trkpt><trkpt lat="44.6729227907716" lon="10.09762666387871"><ele>162.33333333333334</ele><time>2026-04-18T13:57:05Z</time></trkpt><trkpt lat="44.67309978253455" lon="10.097542088753853"><ele>160.0</ele><time>2026-04-18T13:57:06Z</time></trkpt><trkpt lat="44.673275325528245" lon="10.09745173050667"><ele>160.0</ele><time>2026-04-18T13:57:07Z</time></trkpt><trkpt lat="44.673410159593274" lon="10.097381588453397"><ele>160.0</ele><time>2026-04-18T13:57:08Z</time></trkpt><trkpt lat="44.673560786369386" lon="10.097305609449979"><ele>160.0</ele><time>2026-04-18T13:57:09Z</time></trkpt><trkpt lat="44.67371058689772" lon="10.097236041684038"><ele>160.0</ele><time>2026-04-18T13:57:10Z</time></trkpt><trkpt lat="44.673844271263626" lon="10.097169635696059"><ele>160.0</ele><time>2026-04-18T13:57:11Z</time></trkpt><trkpt lat="44.673976862027956" lon="10.09709880593266"><ele>160.0</ele><time>2026-04-18T13:57:12Z</time></trkpt><trkpt lat="44.67410260409229" lon="10.097027962414437"><ele>160.0</ele><time>2026-04-18T13:57:13Z</time></trkpt><trkpt lat="44.674234633256305" lon="10.096960220230333"><ele>160.0</ele><time>2026-04-18T13:57:14Z</time></trkpt><trkpt lat="44.67436893492733" lon="10.096892950451096"><ele>160.0</ele><time>2026-04-18T13:57:15Z</time></trkpt><trkpt lat="44.67450097960956" lon="10.096821824870556"><ele>160.0</ele><time>2026-04-18T13:57:16Z</time></trkpt><trkpt lat="44.674644098399526" lon="10.096750076859061"><ele>160.0</ele><time>2026-04-18T13:57:17Z</time></trkpt><trkpt lat="44.67477448085372" lon="10.096681364615705"><ele>160.0</ele><time>2026-04-18T13:57:18Z</time></trkpt><trkpt lat="44.67491732786241" lon="10.09661466511859"><ele>160.0</ele><time>2026-04-18T13:57:19Z</time></trkpt><trkpt lat="44.67505486785828" lon="10.096543613566018"><ele>160.0</ele><time>2026-04-18T13:57:20Z</time></trkpt><trkpt lat="44.67518308056931" lon="10.09647228628371"><ele>160.0</ele><time>2026-04-18T13:57:20.999Z</time></trkpt><trkpt lat="44.67531367510027" lon="10.096400915954366"><ele>159.25</ele><time>2026-04-18T13:57:21.999Z</time></trkpt><trkpt lat="44.67544615487419" lon="10.096333266207623"><ele>158.5</ele><time>2026-04-18T13:57:22.999Z</time></trkpt><trkpt lat="44.67557546098692" lon="10.09627005822299"><ele>157.75</ele><time>2026-04-18T13:57:23.999Z</time></trkpt><trkpt lat="44.67570515864168" lon="10.096207225091797"><ele>157.0</ele><time>2026-04-18T13:57:24.999Z</time></trkpt><trkpt lat="44.67583539815162" lon="10.096138898756227"><ele>157.0</ele><time>2026-04-18T13:57:25.999Z</time></trkpt><trkpt lat="44.675967689478924" lon="10.096078290552914"><ele>157.0</ele><time>2026-04-18T13:57:26.999Z</time></trkpt><trkpt lat="44.67610271214606" lon="10.096004194065625"><ele>157.0</ele><time>2026-04-18T13:57:27.999Z</time></trkpt><trkpt lat="44.67623382015022" lon="10.095934752933704"><ele>157.0</ele><time>2026-04-18T13:57:28.999Z</time></trkpt><trkpt lat="44.67636870607291" lon="10.095867944326304"><ele>156.5</ele><time>2026-04-18T13:57:29.999Z</time></trkpt><trkpt lat="44.67650356944062" lon="10.095791687948845"><ele>156.0</ele><time>2026-04-18T13:57:30.999Z</time></trkpt><trkpt lat="44.67663463565677" lon="10.095723801444263"><ele>155.5</ele><time>2026-04-18T13:57:31.999Z</time></trkpt><trkpt lat="44.67676274776992" lon="10.095657943096725"><ele>155.0</ele><time>2026-04-18T13:57:32.999Z</time></trkpt><trkpt lat="44.6768992327385" lon="10.095589505668118"><ele>154.5</ele><time>2026-04-18T13:57:33.999Z</time></trkpt><trkpt lat="44.67703394464082" lon="10.095522543259035"><ele>154.0</ele><time>2026-04-18T13:57:34.999Z</time></trkpt><trkpt lat="44.677163749847814" lon="10.095448790333009"><ele>153.5</ele><time>2026-04-18T13:57:35.999Z</time></trkpt><trkpt lat="44.67729304585112" lon="10.09537826193301"><ele>153.0</ele><time>2026-04-18T13:57:36.999Z</time></trkpt><trkpt lat="44.67742209371877" lon="10.09531075896933"><ele>153.0</ele><time>2026-04-18T13:57:37.999Z</time></trkpt><trkpt lat="44.67755643990051" lon="10.095239818512598"><ele>153.0</ele><time>2026-04-18T13:57:38.999Z</time></trkpt><trkpt lat="44.67768942574856" lon="10.095174437120422"><ele>153.0</ele><time>2026-04-18T13:57:39.999Z</time></trkpt><trkpt lat="44.67781582221172" lon="10.095110436955535"><ele>153.0</ele><time>2026-04-18T13:57:40.999Z</time></trkpt><trkpt lat="44.67793474923561" lon="10.09503787141043"><ele>152.25</ele><time>2026-04-18T13:57:41.999Z</time></trkpt><trkpt lat="44.678064681108644" lon="10.094977766499191"><ele>151.5</ele><time>2026-04-18T13:57:42.999Z</time></trkpt><trkpt lat="44.67819049743415" lon="10.094915315182028"><ele>150.75</ele><time>2026-04-18T13:57:43.999Z</time></trkpt><trkpt lat="44.67833110869831" lon="10.094837901334364"><ele>150.0</ele><time>2026-04-18T13:57:44.999Z</time></trkpt><trkpt lat="44.67846181479544" lon="10.094766654517011"><ele>149.5</ele><time>2026-04-18T13:57:45.999Z</time></trkpt><trkpt lat="44.67858418488761" lon="10.094694655612935"><ele>149.0</ele><time>2026-04-18T13:57:46.999Z</time></trkpt><trkpt lat="44.67869949824786" lon="10.094636415714534"><ele>148.5</ele><time>2026-04-18T13:57:47.999Z</time></trkpt><trkpt lat="44.678816396655634" lon="10.09456847655076"><ele>148.0</ele><time>2026-04-18T13:57:48.999Z</time></trkpt><trkpt lat="44.67891938252493" lon="10.094503036574496"><ele>148.0</ele><time>2026-04-18T13:57:49.999Z</time></trkpt><trkpt lat="44.6790183640372" lon="10.094470044004991"><ele>148.0</ele><time>2026-04-18T13:57:50.999Z</time></trkpt><trkpt lat="44.67914022925656" lon="10.094457597922082"><ele>148.0</ele><time>2026-04-18T13:57:51.999Z</time></trkpt><trkpt lat="44.67927124587603" lon="10.09447543110453"><ele>148.0</ele><time>2026-04-18T13:57:52.999Z</time></trkpt><trkpt lat="44.67941051047606" lon="10.094506591261567"><ele>148.0</ele><time>2026-04-18T13:57:53.999Z</time></trkpt><trkpt lat="44.67955011410878" lon="10.094585329493697"><ele>148.0</ele><time>2026-04-18T13:57:54.999Z</time></trkpt><trkpt lat="44.679677612928934" lon="10.094703048639701"><ele>148.0</ele><time>2026-04-18T13:57:55.999Z</time></trkpt><trkpt lat="44.67981100663817" lon="10.094810145680606"><ele>148.0</ele><time>2026-04-18T13:57:56.999Z</time></trkpt><trkpt lat="44.67995837443296" lon="10.094901766149041"><ele>148.0</ele><time>2026-04-18T13:57:57.999Z</time></trkpt><trkpt lat="44.68011344067888" lon="10.094987904645498"><ele>148.0</ele><time>2026-04-18T13:57:58.999Z</time></trkpt><trkpt lat="44.68026677661441" lon="10.095070552582127"><ele>147.0</ele><time>2026-04-18T13:57:59.999Z</time></trkpt><trkpt lat="44.68042062450752" lon="10.095148967449841"><ele>146.0</ele><time>2026-04-18T13:58:00.999Z</time></trkpt><trkpt lat="44.680575335501246" lon="10.095233110357997"><ele>145.0</ele><time>2026-04-18T13:58:01.999Z</time></trkpt><trkpt lat="44.680719363237394" lon="10.095305111639707"><ele>145.0</ele><time>2026-04-18T13:58:02.999Z</time></trkpt><trkpt lat="44.68087972873774" lon="10.09538965260663"><ele>145.0</ele><time>2026-04-18T13:58:03.999Z</time></trkpt><trkpt lat="44.68103493290088" lon="10.095466127265672"><ele>145.0</ele><time>2026-04-18T13:58:04.999Z</time></trkpt><trkpt lat="44.68119246944628" lon="10.095547386085666"><ele>145.25</ele><time>2026-04-18T13:58:05.999Z</time></trkpt><trkpt lat="44.68134173533064" lon="10.095617775608673"><ele>145.5</ele><time>2026-04-18T13:58:06.999Z</time></trkpt><trkpt lat="44.68148739433116" lon="10.095679281263843"><ele>145.75</ele><time>2026-04-18T13:58:07.999Z</time></trkpt><trkpt lat="44.681617251017784" lon="10.095719079851944"><ele>146.0</ele><time>2026-04-18T13:58:08.999Z</time></trkpt><trkpt lat="44.68178840641466" lon="10.095754493581914"><ele>147.0</ele><time>2026-04-18T13:58:09.999Z</time></trkpt><trkpt lat="44.681951870457496" lon="10.09581621412339"><ele>148.0</ele><time>2026-04-18T13:58:10.999Z</time></trkpt><trkpt lat="44.682107543814425" lon="10.095859325667135"><ele>149.0</ele><time>2026-04-18T13:58:11.999Z</time></trkpt><trkpt lat="44.68226479342322" lon="10.095895372528947"><ele>149.0</ele><time>2026-04-18T13:58:12.999Z</time></trkpt><trkpt lat="44.6824309099038" lon="10.09593302971619"><ele>149.0</ele><time>2026-04-18T13:58:13.999Z</time></trkpt><trkpt lat="44.68258652728966" lon="10.095951528497393"><ele>149.0</ele><time>2026-04-18T13:58:14.999Z</time></trkpt><trkpt lat="44.68275022341305" lon="10.09599156742994"><ele>148.0</ele><time>2026-04-18T13:58:15.999Z</time></trkpt><trkpt lat="44.682917431251504" lon="10.096030471708216"><ele>147.0</ele><time>2026-04-18T13:58:16.999Z</time></trkpt><trkpt lat="44.68308816807389" lon="10.09606945121153"><ele>146.0</ele><time>2026-04-18T13:58:17.999Z</time></trkpt><trkpt lat="44.68325911136964" lon="10.096108518968917"><ele>146.0</ele><time>2026-04-18T13:58:19Z</time></trkpt><trkpt lat="44.68342928399079" lon="10.096145738166646"><ele>146.0</ele><time>2026-04-18T13:58:20Z</time></trkpt><trkpt lat="44.683601262470106" lon="10.096179427511235"><ele>146.0</ele><time>2026-04-18T13:58:21Z</time></trkpt><trkpt lat="44.683772678804694" lon="10.096220541112137"><ele>146.0</ele><time>2026-04-18T13:58:22Z</time></trkpt><trkpt lat="44.683955640156576" lon="10.096264478347443"><ele>146.0</ele><time>2026-04-18T13:58:23Z</time></trkpt><trkpt lat="44.684139940493324" lon="10.096306476697812"><ele>146.0</ele><time>2026-04-18T13:58:24Z</time></trkpt><trkpt lat="44.68433197672756" lon="10.096349360236143"><ele>145.66666666666666</ele><time>2026-04-18T13:58:25Z</time></trkpt><trkpt lat="44.68452948246746" lon="10.096395882816335"><ele>145.33333333333334</ele><time>2026-04-18T13:58:26Z</time></trkpt><trkpt lat="44.68470757163117" lon="10.096425913751814"><ele>145.0</ele><time>2026-04-18T13:58:27Z</time></trkpt><trkpt lat="44.684861526881406" lon="10.096469258538498"><ele>145.0</ele><time>2026-04-18T13:58:28Z</time></trkpt><trkpt lat="44.685040365909295" lon="10.096508404747274"><ele>145.0</ele><time>2026-04-18T13:58:29Z</time></trkpt><trkpt lat="44.685292180591745" lon="10.0965615991782"><ele>145.0</ele><time>2026-04-18T13:58:30Z</time></trkpt><trkpt lat="44.68549040482863" lon="10.096602438566029"><ele>146.0</ele><time>2026-04-18T13:58:31Z</time></trkpt><trkpt lat="44.685684787961065" lon="10.096643248685117"><ele>147.0</ele><time>2026-04-18T13:58:32Z</time></trkpt><trkpt lat="44.68588136698088" lon="10.096690817873839"><ele>148.0</ele><time>2026-04-18T13:58:33Z</time></trkpt><trkpt lat="44.68608004017237" lon="10.096737331406242"><ele>147.0</ele><time>2026-04-18T13:58:34Z</time></trkpt><trkpt lat="44.686274951218834" lon="10.096773212462873"><ele>146.0</ele><time>2026-04-18T13:58:35Z</time></trkpt><trkpt lat="44.68646998067665" lon="10.096820873702866"><ele>145.0</ele><time>2026-04-18T13:58:36Z</time></trkpt><trkpt lat="44.68666338955584" lon="10.09686813988143"><ele>145.0</ele><time>2026-04-18T13:58:37Z</time></trkpt><trkpt lat="44.686846302861" lon="10.096908426883925"><ele>145.0</ele><time>2026-04-18T13:58:38Z</time></trkpt><trkpt lat="44.68702537377873" lon="10.096950378236048"><ele>145.0</ele><time>2026-04-18T13:58:39Z</time></trkpt><trkpt lat="44.687205627046986" lon="10.096988485588591"><ele>144.0</ele><time>2026-04-18T13:58:40Z</time></trkpt><trkpt lat="44.68739591601861" lon="10.097025266207645"><ele>143.0</ele><time>2026-04-18T13:58:41Z</time></trkpt><trkpt lat="44.687585080389475" lon="10.097061520595203"><ele>142.0</ele><time>2026-04-18T13:58:42Z</time></trkpt><trkpt lat="44.68776978183993" lon="10.097094656508034"><ele>141.66666666666669</ele><time>2026-04-18T13:58:43Z</time></trkpt><trkpt lat="44.687957164069815" lon="10.097134087484404"><ele>141.33333333333334</ele><time>2026-04-18T13:58:44Z</time></trkpt><trkpt lat="44.688135303674585" lon="10.097174674480886"><ele>141.0</ele><time>2026-04-18T13:58:45Z</time></trkpt><trkpt lat="44.6883066354969" lon="10.097213659986593"><ele>141.0</ele><time>2026-04-18T13:58:46Z</time></trkpt><trkpt lat="44.68846929086327" lon="10.097253601168452"><ele>141.0</ele><time>2026-04-18T13:58:47Z</time></trkpt><trkpt lat="44.68862243228698" lon="10.097293145766434"><ele>141.0</ele><time>2026-04-18T13:58:48Z</time></trkpt><trkpt lat="44.68876319758708" lon="10.097321020302003"><ele>141.0</ele><time>2026-04-18T13:58:49Z</time></trkpt><trkpt lat="44.6888949580266" lon="10.097353457694359"><ele>141.0</ele><time>2026-04-18T13:58:50Z</time></trkpt><trkpt lat="44.68901380116184" lon="10.097380498251576"><ele>141.0</ele><time>2026-04-18T13:58:51Z</time></trkpt><trkpt lat="44.689126686197135" lon="10.097416764009832"><ele>141.0</ele><time>2026-04-18T13:58:52Z</time></trkpt><trkpt lat="44.689233471483874" lon="10.097439589833323"><ele>143.0</ele><time>2026-04-18T13:58:53Z</time></trkpt><trkpt lat="44.689330074945325" lon="10.097467071211545"><ele>145.0</ele><time>2026-04-18T13:58:54Z</time></trkpt><trkpt lat="44.689410213191245" lon="10.097495579086202"><ele>147.0</ele><time>2026-04-18T13:58:55Z</time></trkpt><trkpt lat="44.689498620556236" lon="10.097524174140236"><ele>149.0</ele><time>2026-04-18T13:58:56Z</time></trkpt><trkpt lat="44.68958693668851" lon="10.09756046128154"><ele>151.0</ele><time>2026-04-18T13:58:57Z</time></trkpt><trkpt lat="44.68967599098873" lon="10.09761368144908"><ele>151.8</ele><time>2026-04-18T13:58:58Z</time></trkpt><trkpt lat="44.68976665944215" lon="10.097682784055893"><ele>152.6</ele><time>2026-04-18T13:58:59Z</time></trkpt><trkpt lat="44.689847665673604" lon="10.09776463518362"><ele>153.4</ele><time>2026-04-18T13:59:00Z</time></trkpt><trkpt lat="44.68991896235655" lon="10.097850470897276"><ele>154.2</ele><time>2026-04-18T13:59:01Z</time></trkpt><trkpt lat="44.68997398247978" lon="10.097937722376892"><ele>155.0</ele><time>2026-04-18T13:59:02Z</time></trkpt><trkpt lat="44.69002189029938" lon="10.0980317969847"><ele>155.0</ele><time>2026-04-18T13:59:03Z</time></trkpt><trkpt lat="44.69007069302409" lon="10.098133118224473"><ele>155.0</ele><time>2026-04-18T13:59:04Z</time></trkpt><trkpt lat="44.69012191474202" lon="10.098257911105698"><ele>155.0</ele><time>2026-04-18T13:59:05Z</time></trkpt><trkpt lat="44.69016655852353" lon="10.098391070003546"><ele>155.0</ele><time>2026-04-18T13:59:06Z</time></trkpt><trkpt lat="44.69020562481005" lon="10.098539535905863"><ele>155.0</ele><time>2026-04-18T13:59:07Z</time></trkpt><trkpt lat="44.69023412650185" lon="10.098689160978825"><ele>155.0</ele><time>2026-04-18T13:59:08Z</time></trkpt><trkpt lat="44.690265133061466" lon="10.09883920436929"><ele>155.0</ele><time>2026-04-18T13:59:09Z</time></trkpt><trkpt lat="44.690293958068516" lon="10.098994091996616"><ele>155.0</ele><time>2026-04-18T13:59:10Z</time></trkpt><trkpt lat="44.69032822621393" lon="10.099144643192712"><ele>155.0</ele><time>2026-04-18T13:59:11Z</time></trkpt><trkpt lat="44.69036215473173" lon="10.099283524493433"><ele>155.0</ele><time>2026-04-18T13:59:12Z</time></trkpt><trkpt lat="44.69039260693452" lon="10.099416783153277"><ele>155.0</ele><time>2026-04-18T13:59:13Z</time></trkpt><trkpt lat="44.690422160417654" lon="10.09954795682835"><ele>155.0</ele><time>2026-04-18T13:59:14Z</time></trkpt><trkpt lat="44.69045933391584" lon="10.099683706381015"><ele>155.0</ele><time>2026-04-18T13:59:15Z</time></trkpt><trkpt lat="44.6904954714727" lon="10.099817237627523"><ele>155.0</ele><time>2026-04-18T13:59:16Z</time></trkpt><trkpt lat="44.69052672751195" lon="10.099949545196907"><ele>155.0</ele><time>2026-04-18T13:59:17Z</time></trkpt><trkpt lat="44.69055939816654" lon="10.100099784575606"><ele>155.6</ele><time>2026-04-18T13:59:18Z</time></trkpt><trkpt lat="44.69059220577566" lon="10.100249629907452"><ele>156.2</ele><time>2026-04-18T13:59:19Z</time></trkpt><trkpt lat="44.69062605329583" lon="10.100400589099586"><ele>156.8</ele><time>2026-04-18T13:59:20Z</time></trkpt><trkpt lat="44.6906601930099" lon="10.100547918993588"><ele>157.4</ele><time>2026-04-18T13:59:21Z</time></trkpt><trkpt lat="44.69069566303141" lon="10.100693705568627"><ele>158.0</ele><time>2026-04-18T13:59:22Z</time></trkpt><trkpt lat="44.69073123106309" lon="10.100840857967677"><ele>158.60000000000002</ele><time>2026-04-18T13:59:23Z</time></trkpt><trkpt lat="44.6907662545283" lon="10.100984163269976"><ele>159.20000000000002</ele><time>2026-04-18T13:59:24Z</time></trkpt><trkpt lat="44.690805119749854" lon="10.101134424166649"><ele>159.8</ele><time>2026-04-18T13:59:24.999Z</time></trkpt><trkpt lat="44.69085341429849" lon="10.101273806503615"><ele>160.4</ele><time>2026-04-18T13:59:25.999Z</time></trkpt><trkpt lat="44.69090955426264" lon="10.101395549212521"><ele>161.0</ele><time>2026-04-18T13:59:26.999Z</time></trkpt><trkpt lat="44.69097530090283" lon="10.101506020468069"><ele>161.60000000000002</ele><time>2026-04-18T13:59:27.999Z</time></trkpt><trkpt lat="44.69104323970282" lon="10.101618516116526"><ele>162.2</ele><time>2026-04-18T13:59:28.999Z</time></trkpt><trkpt lat="44.691107123013204" lon="10.101723555472857"><ele>162.8</ele><time>2026-04-18T13:59:29.999Z</time></trkpt><trkpt lat="44.691167919281085" lon="10.101827202933348"><ele>163.39999999999998</ele><time>2026-04-18T13:59:30.999Z</time></trkpt><trkpt lat="44.691231116010975" lon="10.101919103803965"><ele>164.0</ele><time>2026-04-18T13:59:31.999Z</time></trkpt><trkpt lat="44.69129364302657" lon="10.102022231762595"><ele>163.39999999999998</ele><time>2026-04-18T13:59:32.999Z</time></trkpt><trkpt lat="44.691358358694885" lon="10.102129526558338"><ele>162.8</ele><time>2026-04-18T13:59:33.999Z</time></trkpt><trkpt lat="44.691425767478826" lon="10.102235452067628"><ele>162.2</ele><time>2026-04-18T13:59:34.999Z</time></trkpt><trkpt lat="44.69149064964993" lon="10.102328289042736"><ele>161.60000000000002</ele><time>2026-04-18T13:59:35.999Z</time></trkpt><trkpt lat="44.691544231608795" lon="10.102423425654026"><ele>161.0</ele><time>2026-04-18T13:59:36.999Z</time></trkpt><trkpt lat="44.691603443337826" lon="10.10251839585372"><ele>161.0</ele><time>2026-04-18T13:59:37.999Z</time></trkpt><trkpt lat="44.69166312549517" lon="10.102617694140067"><ele>161.0</ele><time>2026-04-18T13:59:38.999Z</time></trkpt><trkpt lat="44.69172388861291" lon="10.102715854166807"><ele>161.0</ele><time>2026-04-18T13:59:39.999Z</time></trkpt><trkpt lat="44.691780889640675" lon="10.10280666523839"><ele>161.0</ele><time>2026-04-18T13:59:40.999Z</time></trkpt><trkpt lat="44.69183896005678" lon="10.102890526840076"><ele>161.0</ele><time>2026-04-18T13:59:41.999Z</time></trkpt><trkpt lat="44.69190930882497" lon="10.102989934204244"><ele>159.66666666666666</ele><time>2026-04-18T13:59:42.999Z</time></trkpt><trkpt lat="44.69197483276005" lon="10.103096023166314"><ele>158.33333333333331</ele><time>2026-04-18T13:59:43.999Z</time></trkpt><trkpt lat="44.69201423012697" lon="10.10316962638251"><ele>157.0</ele><time>2026-04-18T13:59:44.999Z</time></trkpt><trkpt lat="44.692067359929005" lon="10.10325437061781"><ele>155.66666666666666</ele><time>2026-04-18T13:59:47.999Z</time></trkpt><trkpt lat="44.69211484376291" lon="10.103322975060742"><ele>154.33333333333334</ele><time>2026-04-18T13:59:52.999Z</time></trkpt><trkpt lat="44.69217801213327" lon="10.10342090911421"><ele>153.0</ele><time>2026-04-18T13:59:55.999Z</time></trkpt><trkpt lat="44.6922233740666" lon="10.103506829581692"><ele>153.0</ele><time>2026-04-18T14:00:00.999Z</time></trkpt><trkpt lat="44.692281114521364" lon="10.103598739108248"><ele>153.0</ele><time>2026-04-18T14:00:02.999Z</time></trkpt><trkpt lat="44.69232817252901" lon="10.103698069550573"><ele>153.0</ele><time>2026-04-18T14:00:03.999Z</time></trkpt><trkpt lat="44.69239416127647" lon="10.10380096321075"><ele>153.0</ele><time>2026-04-18T14:00:04.999Z</time></trkpt><trkpt lat="44.69246528786859" lon="10.103886588886912"><ele>153.0</ele><time>2026-04-18T14:00:05.999Z</time></trkpt><trkpt lat="44.6925187354321" lon="10.103982119669576"><ele>152.8</ele><time>2026-04-18T14:00:06.999Z</time></trkpt><trkpt lat="44.692586772605104" lon="10.104094808173604"><ele>152.60000000000002</ele><time>2026-04-18T14:00:07.999Z</time></trkpt><trkpt lat="44.69265948275585" lon="10.10420180684284"><ele>152.39999999999998</ele><time>2026-04-18T14:00:08.999Z</time></trkpt><trkpt lat="44.69273039997251" lon="10.104309015769157"><ele>152.2</ele><time>2026-04-18T14:00:09.999Z</time></trkpt><trkpt lat="44.69280643738833" lon="10.104433593334283"><ele>152.0</ele><time>2026-04-18T14:00:10.999Z</time></trkpt><trkpt lat="44.692886959877335" lon="10.104554405961592"><ele>152.0</ele><time>2026-04-18T14:00:11.999Z</time></trkpt><trkpt lat="44.69296664556128" lon="10.10466382549546"><ele>152.0</ele><time>2026-04-18T14:00:12.999Z</time></trkpt><trkpt lat="44.6930079633928" lon="10.104805203765787"><ele>152.0</ele><time>2026-04-18T14:00:13.999Z</time></trkpt><trkpt lat="44.69306515094323" lon="10.10492901374584"><ele>152.0</ele><time>2026-04-18T14:00:14.999Z</time></trkpt><trkpt lat="44.6931199817892" lon="10.105022951371279"><ele>152.0</ele><time>2026-04-18T14:00:16.999Z</time></trkpt><trkpt lat="44.693180410020716" lon="10.105194633962727"><ele>153.33333333333331</ele><time>2026-04-18T14:00:17.999Z</time></trkpt><trkpt lat="44.693260068608964" lon="10.105386071617527"><ele>154.66666666666666</ele><time>2026-04-18T14:00:18.999Z</time></trkpt><trkpt lat="44.69337228780483" lon="10.105657275094382"><ele>156.0</ele><time>2026-04-18T14:00:19.999Z</time></trkpt><trkpt lat="44.69350661675831" lon="10.105981911882289"><ele>156.0</ele><time>2026-04-18T14:00:20.999Z</time></trkpt><trkpt lat="44.69363715312118" lon="10.106269057963758"><ele>156.0</ele><time>2026-04-18T14:00:21.999Z</time></trkpt><trkpt lat="44.693731973917096" lon="10.10653300467157"><ele>156.66666666666666</ele><time>2026-04-18T14:00:22.999Z</time></trkpt><trkpt lat="44.69382251953059" lon="10.106780223465346"><ele>157.33333333333331</ele><time>2026-04-18T14:00:23.999Z</time></trkpt><trkpt lat="44.693907697592216" lon="10.107052295588094"><ele>158.0</ele><time>2026-04-18T14:00:25Z</time></trkpt><trkpt lat="44.69397022188404" lon="10.107331022732522"><ele>159.0</ele><time>2026-04-18T14:00:26Z</time></trkpt><trkpt lat="44.69403203012406" lon="10.107576840644517"><ele>160.0</ele><time>2026-04-18T14:00:27Z</time></trkpt><trkpt lat="44.69409385275996" lon="10.107827273453779"><ele>161.0</ele><time>2026-04-18T14:00:28Z</time></trkpt><trkpt lat="44.69415445257797" lon="10.108059952324881"><ele>162.33333333333331</ele><time>2026-04-18T14:00:29Z</time></trkpt><trkpt lat="44.6942024540086" lon="10.108269640728892"><ele>163.66666666666666</ele><time>2026-04-18T14:00:30Z</time></trkpt><trkpt lat="44.69425403132759" lon="10.10847104165237"><ele>165.0</ele><time>2026-04-18T14:00:31Z</time></trkpt><trkpt lat="44.694326856940684" lon="10.10866954830305"><ele>165.0</ele><time>2026-04-18T14:00:32Z</time></trkpt><trkpt lat="44.694413816106014" lon="10.108823173025225"><ele>165.0</ele><time>2026-04-18T14:00:33Z</time></trkpt><trkpt lat="44.69450761239533" lon="10.10894207797338"><ele>165.0</ele><time>2026-04-18T14:00:34Z</time></trkpt><trkpt lat="44.69461798830887" lon="10.109042876742066"><ele>165.0</ele><time>2026-04-18T14:00:35Z</time></trkpt><trkpt lat="44.69475797535422" lon="10.109118928142408"><ele>160.66666666666666</ele><time>2026-04-18T14:00:36Z</time></trkpt><trkpt lat="44.694888702456886" lon="10.109212557071592"><ele>156.33333333333331</ele><time>2026-04-18T14:00:37Z</time></trkpt><trkpt lat="44.695001141968994" lon="10.109371334990966"><ele>152.0</ele><time>2026-04-18T14:00:38Z</time></trkpt><trkpt lat="44.69510834874293" lon="10.109579138186783"><ele>152.0</ele><time>2026-04-18T14:00:39Z</time></trkpt><trkpt lat="44.69520591940968" lon="10.10977887366377"><ele>152.0</ele><time>2026-04-18T14:00:40Z</time></trkpt><trkpt lat="44.69529024734712" lon="10.109982613295902"><ele>152.0</ele><time>2026-04-18T14:00:41Z</time></trkpt><trkpt lat="44.69537047145458" lon="10.11016952818164"><ele>149.66666666666666</ele><time>2026-04-18T14:00:42Z</time></trkpt><trkpt lat="44.69545061830465" lon="10.110360551213667"><ele>147.33333333333334</ele><time>2026-04-18T14:00:43Z</time></trkpt><trkpt lat="44.69553023886478" lon="10.110548249215245"><ele>145.0</ele><time>2026-04-18T14:00:44Z</time></trkpt><trkpt lat="44.695609011878524" lon="10.110721411343254"><ele>146.5</ele><time>2026-04-18T14:00:45Z</time></trkpt><trkpt lat="44.695690598870385" lon="10.11089499533527"><ele>148.0</ele><time>2026-04-18T14:00:46Z</time></trkpt><trkpt lat="44.69576718680823" lon="10.111061544531275"><ele>149.5</ele><time>2026-04-18T14:00:47Z</time></trkpt><trkpt lat="44.6958548510144" lon="10.111239294044013"><ele>151.0</ele><time>2026-04-18T14:00:48Z</time></trkpt><trkpt lat="44.695950344113726" lon="10.111422220735738"><ele>152.66666666666669</ele><time>2026-04-18T14:00:49Z</time></trkpt><trkpt lat="44.696045241806914" lon="10.111596562218207"><ele>154.33333333333334</ele><time>2026-04-18T14:00:50Z</time></trkpt><trkpt lat="44.696139481930416" lon="10.111777687249202"><ele>156.0</ele><time>2026-04-18T14:00:51Z</time></trkpt><trkpt lat="44.69623406021421" lon="10.111954585341827"><ele>153.33333333333334</ele><time>2026-04-18T14:00:52Z</time></trkpt><trkpt lat="44.69632798133811" lon="10.112132525957332"><ele>150.66666666666669</ele><time>2026-04-18T14:00:53Z</time></trkpt><trkpt lat="44.696445310007775" lon="10.112304528197562"><ele>148.0</ele><time>2026-04-18T14:00:54Z</time></trkpt><trkpt lat="44.69658546008858" lon="10.112486100939638"><ele>148.0</ele><time>2026-04-18T14:00:55Z</time></trkpt><trkpt lat="44.696731214700144" lon="10.112623505148312"><ele>148.0</ele><time>2026-04-18T14:00:56Z</time></trkpt><trkpt lat="44.69684288486987" lon="10.11268332661987"><ele>148.0</ele><time>2026-04-18T14:00:57Z</time></trkpt><trkpt lat="44.69699737580619" lon="10.112746604608425"><ele>146.66666666666669</ele><time>2026-04-18T14:00:58Z</time></trkpt><trkpt lat="44.69715609491597" lon="10.11279243560897"><ele>145.33333333333334</ele><time>2026-04-18T14:00:59Z</time></trkpt><trkpt lat="44.69732069492945" lon="10.112817621021534"><ele>144.0</ele><time>2026-04-18T14:01:00Z</time></trkpt><trkpt lat="44.69748194568303" lon="10.112842372121676"><ele>144.0</ele><time>2026-04-18T14:01:01Z</time></trkpt><trkpt lat="44.69761994477687" lon="10.11286474918868"><ele>144.0</ele><time>2026-04-18T14:01:02Z</time></trkpt><trkpt lat="44.69775777089396" lon="10.112892240886946"><ele>144.0</ele><time>2026-04-18T14:01:03Z</time></trkpt><trkpt lat="44.69790841927474" lon="10.11292513120434"><ele>144.0</ele><time>2026-04-18T14:01:04Z</time></trkpt><trkpt lat="44.69806133157279" lon="10.112954554895923"><ele>142.66666666666666</ele><time>2026-04-18T14:01:05Z</time></trkpt><trkpt lat="44.69821829726138" lon="10.112985989839185"><ele>141.33333333333331</ele><time>2026-04-18T14:01:06Z</time></trkpt><trkpt lat="44.69837114937862" lon="10.113012869965381"><ele>140.0</ele><time>2026-04-18T14:01:07Z</time></trkpt><trkpt lat="44.69853316689554" lon="10.113032795114886"><ele>139.0</ele><time>2026-04-18T14:01:08Z</time></trkpt><trkpt lat="44.698692415044334" lon="10.113082504006979"><ele>138.0</ele><time>2026-04-18T14:01:09Z</time></trkpt><trkpt lat="44.69884524212984" lon="10.113094269117735"><ele>137.0</ele><time>2026-04-18T14:01:10Z</time></trkpt><trkpt lat="44.69898625088333" lon="10.113146947707003"><ele>137.0</ele><time>2026-04-18T14:01:11Z</time></trkpt><trkpt lat="44.69907317557436" lon="10.113181658276533"><ele>137.0</ele><time>2026-04-18T14:01:12Z</time></trkpt><trkpt lat="44.699206836257524" lon="10.113256284000727"><ele>137.0</ele><time>2026-04-18T14:01:13Z</time></trkpt><trkpt lat="44.699321395154" lon="10.113330137048187"><ele>137.0</ele><time>2026-04-18T14:01:14Z</time></trkpt><trkpt lat="44.69963329422907" lon="10.11333761082708"><ele>138.33333333333331</ele><time>2026-04-18T14:01:15Z</time></trkpt><trkpt lat="44.699769120415425" lon="10.11343703059749"><ele>139.66666666666666</ele><time>2026-04-18T14:01:16Z</time></trkpt><trkpt lat="44.69990060648454" lon="10.11356550580689"><ele>141.0</ele><time>2026-04-18T14:01:17Z</time></trkpt><trkpt lat="44.700020175075935" lon="10.113730472105082"><ele>141.0</ele><time>2026-04-18T14:01:18Z</time></trkpt><trkpt lat="44.70012135123383" lon="10.113908525500513"><ele>141.0</ele><time>2026-04-18T14:01:19Z</time></trkpt><trkpt lat="44.70021071163626" lon="10.114110603869262"><ele>141.0</ele><time>2026-04-18T14:01:20Z</time></trkpt><trkpt lat="44.70027958963201" lon="10.114326005375627"><ele>141.33333333333334</ele><time>2026-04-18T14:01:21Z</time></trkpt><trkpt lat="44.700344558283234" lon="10.114551421031658"><ele>141.66666666666669</ele><time>2026-04-18T14:01:22Z</time></trkpt><trkpt lat="44.70040502556227" lon="10.114781327287615"><ele>142.0</ele><time>2026-04-18T14:01:23Z</time></trkpt><trkpt lat="44.700466269445556" lon="10.115014156425518"><ele>142.0</ele><time>2026-04-18T14:01:24Z</time></trkpt><trkpt lat="44.700534291605294" lon="10.115228183327607"><ele>142.0</ele><time>2026-04-18T14:01:25Z</time></trkpt><trkpt lat="44.70056455241827" lon="10.115450369248965"><ele>142.0</ele><time>2026-04-18T14:01:26Z</time></trkpt><trkpt lat="44.70059707605306" lon="10.115668393430262"><ele>142.66666666666669</ele><time>2026-04-18T14:01:27Z</time></trkpt><trkpt lat="44.700632421871845" lon="10.11588703097847"><ele>143.33333333333334</ele><time>2026-04-18T14:01:28Z</time></trkpt><trkpt lat="44.7006446530521" lon="10.116117473122124"><ele>144.0</ele><time>2026-04-18T14:01:29Z</time></trkpt><trkpt lat="44.700663997711665" lon="10.116343150352597"><ele>144.0</ele><time>2026-04-18T14:01:30Z</time></trkpt><trkpt lat="44.70069183889826" lon="10.11656267684901"><ele>144.0</ele><time>2026-04-18T14:01:31Z</time></trkpt><trkpt lat="44.70073492365023" lon="10.116782660936424"><ele>144.0</ele><time>2026-04-18T14:01:32Z</time></trkpt><trkpt lat="44.70077967860842" lon="10.116996380987867"><ele>144.66666666666666</ele><time>2026-04-18T14:01:33Z</time></trkpt><trkpt lat="44.700832825882756" lon="10.11720659974633"><ele>145.33333333333331</ele><time>2026-04-18T14:01:33.999Z</time></trkpt><trkpt lat="44.70088153421188" lon="10.117427862815639"><ele>146.0</ele><time>2026-04-18T14:01:34.999Z</time></trkpt><trkpt lat="44.70092471619932" lon="10.117657703635276"><ele>146.33333333333331</ele><time>2026-04-18T14:01:35.999Z</time></trkpt><trkpt lat="44.70096593619609" lon="10.117884956765861"><ele>146.66666666666666</ele><time>2026-04-18T14:01:36.999Z</time></trkpt><trkpt lat="44.700977081012084" lon="10.118112182353983"><ele>147.0</ele><time>2026-04-18T14:01:37.999Z</time></trkpt><trkpt lat="44.701009077259535" lon="10.118335123531269"><ele>147.25</ele><time>2026-04-18T14:01:38.999Z</time></trkpt><trkpt lat="44.70101813841884" lon="10.118542937815905"><ele>147.5</ele><time>2026-04-18T14:01:39.999Z</time></trkpt><trkpt lat="44.70103171771626" lon="10.118734610752217"><ele>147.75</ele><time>2026-04-18T14:01:40.999Z</time></trkpt><trkpt lat="44.70104156764484" lon="10.118923218560283"><ele>148.0</ele><time>2026-04-18T14:01:41.999Z</time></trkpt><trkpt lat="44.7010466407188" lon="10.119121261221268"><ele>148.0</ele><time>2026-04-18T14:01:42.999Z</time></trkpt><trkpt lat="44.70105668063342" lon="10.119316360401337"><ele>148.0</ele><time>2026-04-18T14:01:43.999Z</time></trkpt><trkpt lat="44.70106634947488" lon="10.119497706273755"><ele>148.0</ele><time>2026-04-18T14:01:44.999Z</time></trkpt><trkpt lat="44.70104372095739" lon="10.119694425489781"><ele>148.0</ele><time>2026-04-18T14:01:45.999Z</time></trkpt><trkpt lat="44.70100711197811" lon="10.119901245593804"><ele>147.0</ele><time>2026-04-18T14:01:46.999Z</time></trkpt><trkpt lat="44.70095259724457" lon="10.120120540447264"><ele>146.0</ele><time>2026-04-18T14:01:47.999Z</time></trkpt><trkpt lat="44.70090356305469" lon="10.120314356292761"><ele>145.0</ele><time>2026-04-18T14:01:48.999Z</time></trkpt><trkpt lat="44.700860813721896" lon="10.120516251203762"><ele>145.0</ele><time>2026-04-18T14:01:49.999Z</time></trkpt><trkpt lat="44.700829551245626" lon="10.12072367241295"><ele>145.0</ele><time>2026-04-18T14:01:50.999Z</time></trkpt><trkpt lat="44.700811791892434" lon="10.120926949675352"><ele>145.0</ele><time>2026-04-18T14:01:51.999Z</time></trkpt><trkpt lat="44.700810564391396" lon="10.121131371470977"><ele>145.0</ele><time>2026-04-18T14:01:52.999Z</time></trkpt><trkpt lat="44.70080535955596" lon="10.121331186402246"><ele>143.5</ele><time>2026-04-18T14:01:53.999Z</time></trkpt><trkpt lat="44.70082160791026" lon="10.121522093829977"><ele>142.0</ele><time>2026-04-18T14:01:54.999Z</time></trkpt><trkpt lat="44.7008453552509" lon="10.12172710510969"><ele>140.5</ele><time>2026-04-18T14:01:55.999Z</time></trkpt><trkpt lat="44.70088118213488" lon="10.121929972421297"><ele>139.0</ele><time>2026-04-18T14:01:56.999Z</time></trkpt><trkpt lat="44.700921112730065" lon="10.122126625530104"><ele>139.25</ele><time>2026-04-18T14:01:57.999Z</time></trkpt><trkpt lat="44.70096311313826" lon="10.122311493480938"><ele>139.5</ele><time>2026-04-18T14:01:58.999Z</time></trkpt><trkpt lat="44.70101012981445" lon="10.122488662332811"><ele>139.75</ele><time>2026-04-18T14:01:59.999Z</time></trkpt><trkpt lat="44.70105857244429" lon="10.122655491003242"><ele>140.0</ele><time>2026-04-18T14:02:00.999Z</time></trkpt><trkpt lat="44.70111024987047" lon="10.122820227011687"><ele>140.5</ele><time>2026-04-18T14:02:01.999Z</time></trkpt><trkpt lat="44.70116406928396" lon="10.122982978006872"><ele>141.0</ele><time>2026-04-18T14:02:02.999Z</time></trkpt><trkpt lat="44.7012187676296" lon="10.123154076128438"><ele>141.5</ele><time>2026-04-18T14:02:03.999Z</time></trkpt><trkpt lat="44.701280453313906" lon="10.123314498475604"><ele>142.0</ele><time>2026-04-18T14:02:04.999Z</time></trkpt><trkpt lat="44.70133500232101" lon="10.123483115514572"><ele>143.0</ele><time>2026-04-18T14:02:05.999Z</time></trkpt><trkpt lat="44.70139601010313" lon="10.123629787325774"><ele>144.0</ele><time>2026-04-18T14:02:06.999Z</time></trkpt><trkpt lat="44.70144379461935" lon="10.12377493546144"><ele>145.0</ele><time>2026-04-18T14:02:07.999Z</time></trkpt><trkpt lat="44.70151095569957" lon="10.12392113184917"><ele>146.0</ele><time>2026-04-18T14:02:08.999Z</time></trkpt><trkpt lat="44.70157685612108" lon="10.124068400465717"><ele>146.0</ele><time>2026-04-18T14:02:09.999Z</time></trkpt><trkpt lat="44.7016449408616" lon="10.124208724235043"><ele>146.0</ele><time>2026-04-18T14:02:10.999Z</time></trkpt><trkpt lat="44.70171028543381" lon="10.124352296560046"><ele>146.0</ele><time>2026-04-18T14:02:11.999Z</time></trkpt><trkpt lat="44.70178363361044" lon="10.124500713924043"><ele>146.0</ele><time>2026-04-18T14:02:12.999Z</time></trkpt><trkpt lat="44.70185754699116" lon="10.124656947974504"><ele>145.5</ele><time>2026-04-18T14:02:13.999Z</time></trkpt><trkpt lat="44.70192920116927" lon="10.124816798448478"><ele>145.0</ele><time>2026-04-18T14:02:14.999Z</time></trkpt><trkpt lat="44.70200249047984" lon="10.124979201591554"><ele>144.5</ele><time>2026-04-18T14:02:15.999Z</time></trkpt><trkpt lat="44.70207773102623" lon="10.125151502127714"><ele>144.0</ele><time>2026-04-18T14:02:16.999Z</time></trkpt><trkpt lat="44.702154164619536" lon="10.125319005950306"><ele>143.75</ele><time>2026-04-18T14:02:17.999Z</time></trkpt><trkpt lat="44.70223482223232" lon="10.125484899321359"><ele>143.5</ele><time>2026-04-18T14:02:18.999Z</time></trkpt><trkpt lat="44.70231315847886" lon="10.125656142786495"><ele>143.25</ele><time>2026-04-18T14:02:19.999Z</time></trkpt><trkpt lat="44.70239583383814" lon="10.125829557974827"><ele>143.0</ele><time>2026-04-18T14:02:20.999Z</time></trkpt><trkpt lat="44.702469583293805" lon="10.125996270979751"><ele>143.4</ele><time>2026-04-18T14:02:21.999Z</time></trkpt><trkpt lat="44.70253916905758" lon="10.126149562040293"><ele>143.8</ele><time>2026-04-18T14:02:22.999Z</time></trkpt><trkpt lat="44.7025963512351" lon="10.126280996998208"><ele>144.2</ele><time>2026-04-18T14:02:23.999Z</time></trkpt><trkpt lat="44.70262330632792" lon="10.126371997421893"><ele>144.6</ele><time>2026-04-18T14:02:24.999Z</time></trkpt><trkpt lat="44.702625414057714" lon="10.126466410532464"><ele>145.0</ele><time>2026-04-18T14:02:27.999Z</time></trkpt><trkpt lat="44.70264509086198" lon="10.126634391113354"><ele>145.0</ele><time>2026-04-18T14:02:29.999Z</time></trkpt><trkpt lat="44.7026806377922" lon="10.126730170594678"><ele>145.0</ele><time>2026-04-18T14:02:31Z</time></trkpt><trkpt lat="44.70274001022741" lon="10.126793283505219"><ele>145.0</ele><time>2026-04-18T14:02:32Z</time></trkpt><trkpt lat="44.70282219475914" lon="10.126865876121993"><ele>145.0</ele><time>2026-04-18T14:02:33Z</time></trkpt><trkpt lat="44.70290442714" lon="10.126980759538043"><ele>145.0</ele><time>2026-04-18T14:02:34Z</time></trkpt><trkpt lat="44.70297717055418" lon="10.12712554252495"><ele>144.5</ele><time>2026-04-18T14:02:35Z</time></trkpt><trkpt lat="44.70303815298166" lon="10.127283458672848"><ele>144.0</ele><time>2026-04-18T14:02:36Z</time></trkpt><trkpt lat="44.703101064041824" lon="10.127430189235417"><ele>143.5</ele><time>2026-04-18T14:02:37Z</time></trkpt><trkpt lat="44.70316322162023" lon="10.127562960024981"><ele>143.0</ele><time>2026-04-18T14:02:38Z</time></trkpt><trkpt lat="44.703226479180636" lon="10.127700445341159"><ele>143.0</ele><time>2026-04-18T14:02:39Z</time></trkpt><trkpt lat="44.70329271856481" lon="10.12785386604902"><ele>143.0</ele><time>2026-04-18T14:02:40Z</time></trkpt><trkpt lat="44.70335849998586" lon="10.128008318904303"><ele>143.0</ele><time>2026-04-18T14:02:41Z</time></trkpt><trkpt lat="44.70342955060398" lon="10.128156696075541"><ele>143.0</ele><time>2026-04-18T14:02:42Z</time></trkpt><trkpt lat="44.70350362181915" lon="10.128308645606396"><ele>142.75</ele><time>2026-04-18T14:02:43Z</time></trkpt><trkpt lat="44.703574264392536" lon="10.128469836041779"><ele>142.5</ele><time>2026-04-18T14:02:44Z</time></trkpt><trkpt lat="44.703654290327286" lon="10.12864017974664"><ele>142.25</ele><time>2026-04-18T14:02:45Z</time></trkpt><trkpt lat="44.70373638355057" lon="10.128815498224366"><ele>142.0</ele><time>2026-04-18T14:02:46Z</time></trkpt><trkpt lat="44.7038210363597" lon="10.12900197154665"><ele>141.33333333333334</ele><time>2026-04-18T14:02:47Z</time></trkpt><trkpt lat="44.70390704202224" lon="10.129189515480295"><ele>140.66666666666666</ele><time>2026-04-18T14:02:48Z</time></trkpt><trkpt lat="44.70399320278409" lon="10.129387306821984"><ele>140.0</ele><time>2026-04-18T14:02:49Z</time></trkpt><trkpt lat="44.70408033566286" lon="10.129586922681376"><ele>140.0</ele><time>2026-04-18T14:02:50Z</time></trkpt><trkpt lat="44.70417326731342" lon="10.12978143232731"><ele>140.0</ele><time>2026-04-18T14:02:51Z</time></trkpt><trkpt lat="44.704266938608015" lon="10.129977717274885"><ele>140.0</ele><time>2026-04-18T14:02:52Z</time></trkpt><trkpt lat="44.70435748355267" lon="10.130166120840709"><ele>139.33333333333331</ele><time>2026-04-18T14:02:53Z</time></trkpt><trkpt lat="44.70444881513503" lon="10.130355663591212"><ele>138.66666666666666</ele><time>2026-04-18T14:02:54Z</time></trkpt><trkpt lat="44.70454037159741" lon="10.130541447324498"><ele>138.0</ele><time>2026-04-18T14:02:55Z</time></trkpt><trkpt lat="44.70463173990173" lon="10.130729695281135"><ele>138.0</ele><time>2026-04-18T14:02:56Z</time></trkpt><trkpt lat="44.70472588932054" lon="10.130910879613035"><ele>138.0</ele><time>2026-04-18T14:02:57Z</time></trkpt><trkpt lat="44.70481532369896" lon="10.131099268034635"><ele>138.0</ele><time>2026-04-18T14:02:58Z</time></trkpt><trkpt lat="44.70490265563969" lon="10.131271441146318"><ele>138.0</ele><time>2026-04-18T14:02:59Z</time></trkpt><trkpt lat="44.7049925236044" lon="10.131443114002396"><ele>138.0</ele><time>2026-04-18T14:03:00Z</time></trkpt><trkpt lat="44.705083142860715" lon="10.131626689298242"><ele>138.0</ele><time>2026-04-18T14:03:01Z</time></trkpt><trkpt lat="44.705167448965625" lon="10.131808460823041"><ele>138.66666666666666</ele><time>2026-04-18T14:03:02Z</time></trkpt><trkpt lat="44.70525658391322" lon="10.131991399483013"><ele>139.33333333333331</ele><time>2026-04-18T14:03:03Z</time></trkpt><trkpt lat="44.705352215163494" lon="10.132187593240412"><ele>140.0</ele><time>2026-04-18T14:03:04Z</time></trkpt><trkpt lat="44.705445067672954" lon="10.1323686774679"><ele>140.66666666666666</ele><time>2026-04-18T14:03:05Z</time></trkpt><trkpt lat="44.70553756438805" lon="10.13255111878089"><ele>141.33333333333334</ele><time>2026-04-18T14:03:06Z</time></trkpt><trkpt lat="44.70562941424893" lon="10.132739217673935"><ele>142.0</ele><time>2026-04-18T14:03:07Z</time></trkpt><trkpt lat="44.70572312395786" lon="10.13292822831131"><ele>142.0</ele><time>2026-04-18T14:03:08Z</time></trkpt><trkpt lat="44.705809720980085" lon="10.13310241417066"><ele>142.0</ele><time>2026-04-18T14:03:09Z</time></trkpt><trkpt lat="44.705897465414445" lon="10.133291427596353"><ele>142.0</ele><time>2026-04-18T14:03:10Z</time></trkpt><trkpt lat="44.70599489102554" lon="10.133481288174268"><ele>141.66666666666669</ele><time>2026-04-18T14:03:11Z</time></trkpt><trkpt lat="44.706103216275494" lon="10.133672990676056"><ele>141.33333333333334</ele><time>2026-04-18T14:03:12Z</time></trkpt><trkpt lat="44.70619667530037" lon="10.1338546982833"><ele>141.0</ele><time>2026-04-18T14:03:13Z</time></trkpt><trkpt lat="44.70629859256023" lon="10.134039621733903"><ele>141.66666666666666</ele><time>2026-04-18T14:03:14Z</time></trkpt><trkpt lat="44.70639954774095" lon="10.134218251182784"><ele>142.33333333333331</ele><time>2026-04-18T14:03:15Z</time></trkpt><trkpt lat="44.706503120709236" lon="10.134408435038315"><ele>143.0</ele><time>2026-04-18T14:03:16Z</time></trkpt><trkpt lat="44.70659936240418" lon="10.134597966995132"><ele>143.0</ele><time>2026-04-18T14:03:17Z</time></trkpt><trkpt lat="44.70670407975333" lon="10.134788286756221"><ele>143.0</ele><time>2026-04-18T14:03:18Z</time></trkpt><trkpt lat="44.706814070354305" lon="10.13497744270095"><ele>143.0</ele><time>2026-04-18T14:03:19Z</time></trkpt><trkpt lat="44.70691690132107" lon="10.135170179711082"><ele>140.66666666666666</ele><time>2026-04-18T14:03:20Z</time></trkpt><trkpt lat="44.707022670357354" lon="10.135362166805644"><ele>138.33333333333334</ele><time>2026-04-18T14:03:21Z</time></trkpt><trkpt lat="44.70712235391609" lon="10.135560962013363"><ele>136.0</ele><time>2026-04-18T14:03:22Z</time></trkpt><trkpt lat="44.70722789024312" lon="10.13576016846953"><ele>136.0</ele><time>2026-04-18T14:03:23Z</time></trkpt><trkpt lat="44.70733357100591" lon="10.135958062666248"><ele>136.0</ele><time>2026-04-18T14:03:24Z</time></trkpt><trkpt lat="44.70744041514385" lon="10.136152558537953"><ele>136.0</ele><time>2026-04-18T14:03:25Z</time></trkpt><trkpt lat="44.707550612408106" lon="10.136344603734333"><ele>136.0</ele><time>2026-04-18T14:03:26Z</time></trkpt><trkpt lat="44.7076540980115" lon="10.136540041935794"><ele>136.0</ele><time>2026-04-18T14:03:27Z</time></trkpt><trkpt lat="44.70775510815606" lon="10.136738086582378"><ele>136.0</ele><time>2026-04-18T14:03:28Z</time></trkpt><trkpt lat="44.70786103196974" lon="10.13694007948274"><ele>136.66666666666669</ele><time>2026-04-18T14:03:29Z</time></trkpt><trkpt lat="44.70796679482898" lon="10.13714168728436"><ele>137.33333333333334</ele><time>2026-04-18T14:03:30Z</time></trkpt><trkpt lat="44.7080760250032" lon="10.137343818344112"><ele>138.0</ele><time>2026-04-18T14:03:31Z</time></trkpt><trkpt lat="44.70818382739293" lon="10.137550867715303"><ele>138.33333333333334</ele><time>2026-04-18T14:03:32Z</time></trkpt><trkpt lat="44.70829346096741" lon="10.137757805707656"><ele>138.66666666666669</ele><time>2026-04-18T14:03:33Z</time></trkpt><trkpt lat="44.70840127533521" lon="10.137958407634912"><ele>139.0</ele><time>2026-04-18T14:03:34Z</time></trkpt><trkpt lat="44.70849688596558" lon="10.138147780125584"><ele>138.33333333333334</ele><time>2026-04-18T14:03:35Z</time></trkpt><trkpt lat="44.70859026817041" lon="10.138322608383621"><ele>137.66666666666666</ele><time>2026-04-18T14:03:36Z</time></trkpt><trkpt lat="44.708684412405134" lon="10.138505023976156"><ele>137.0</ele><time>2026-04-18T14:03:37Z</time></trkpt><trkpt lat="44.70877736231153" lon="10.138676962308516"><ele>137.0</ele><time>2026-04-18T14:03:38Z</time></trkpt><trkpt lat="44.70886990874307" lon="10.138851036048825"><ele>137.0</ele><time>2026-04-18T14:03:39Z</time></trkpt><trkpt lat="44.70896158999224" lon="10.139024025199982"><ele>137.0</ele><time>2026-04-18T14:03:40Z</time></trkpt><trkpt lat="44.70905163061062" lon="10.139193746864715"><ele>137.66666666666666</ele><time>2026-04-18T14:03:40.999Z</time></trkpt><trkpt lat="44.70914370714014" lon="10.139363194788606"><ele>138.33333333333334</ele><time>2026-04-18T14:03:41.999Z</time></trkpt><trkpt lat="44.70924074156574" lon="10.139529283898275"><ele>139.0</ele><time>2026-04-18T14:03:42.999Z</time></trkpt><trkpt lat="44.7093492677916" lon="10.139689441131933"><ele>137.66666666666669</ele><time>2026-04-18T14:03:43.999Z</time></trkpt><trkpt lat="44.709465802815885" lon="10.139835139196835"><ele>136.33333333333334</ele><time>2026-04-18T14:03:44.999Z</time></trkpt><trkpt lat="44.709588003238906" lon="10.139976795683726"><ele>135.0</ele><time>2026-04-18T14:03:45.999Z</time></trkpt><trkpt lat="44.70971016089438" lon="10.140122578287682"><ele>135.0</ele><time>2026-04-18T14:03:46.999Z</time></trkpt><trkpt lat="44.709834815218194" lon="10.140258970205874"><ele>135.0</ele><time>2026-04-18T14:03:47.999Z</time></trkpt><trkpt lat="44.70995447914433" lon="10.140384529833113"><ele>135.0</ele><time>2026-04-18T14:03:48.999Z</time></trkpt><trkpt lat="44.71007776978171" lon="10.140514683131993"><ele>135.0</ele><time>2026-04-18T14:03:49.999Z</time></trkpt><trkpt lat="44.71019904006788" lon="10.140644811174223"><ele>135.0</ele><time>2026-04-18T14:03:50.999Z</time></trkpt><trkpt lat="44.71028965949534" lon="10.140750479915635"><ele>135.0</ele><time>2026-04-18T14:03:51.999Z</time></trkpt><trkpt lat="44.71035500436793" lon="10.140836151532772"><ele>135.0</ele><time>2026-04-18T14:03:53.999Z</time></trkpt><trkpt lat="44.710427721864846" lon="10.140910163396368"><ele>135.0</ele><time>2026-04-18T14:03:55.999Z</time></trkpt><trkpt lat="44.71052030663895" lon="10.141038752125224"><ele>135.0</ele><time>2026-04-18T14:03:57.999Z</time></trkpt><trkpt lat="44.710585884542176" lon="10.141155310450024"><ele>135.0</ele><time>2026-04-18T14:03:58.999Z</time></trkpt><trkpt lat="44.710668515159504" lon="10.141292685243364"><ele>135.0</ele><time>2026-04-18T14:03:59.999Z</time></trkpt><trkpt lat="44.71074984428342" lon="10.141446112565731"><ele>135.0</ele><time>2026-04-18T14:04:00.999Z</time></trkpt><trkpt lat="44.71085023724656" lon="10.14158933081114"><ele>135.0</ele><time>2026-04-18T14:04:01.999Z</time></trkpt><trkpt lat="44.71093653691801" lon="10.141746716965914"><ele>135.0</ele><time>2026-04-18T14:04:02.999Z</time></trkpt><trkpt lat="44.7110390486112" lon="10.141890843492265"><ele>135.0</ele><time>2026-04-18T14:04:03.999Z</time></trkpt><trkpt lat="44.71112393638717" lon="10.142054007859832"><ele>135.0</ele><time>2026-04-18T14:04:04.999Z</time></trkpt><trkpt lat="44.71121786432088" lon="10.142191433971302"><ele>135.0</ele><time>2026-04-18T14:04:05.999Z</time></trkpt><trkpt lat="44.711335410759034" lon="10.142297463765159"><ele>135.0</ele><time>2026-04-18T14:04:06.999Z</time></trkpt><trkpt lat="44.71144317092591" lon="10.142417881430594"><ele>135.0</ele><time>2026-04-18T14:04:07.999Z</time></trkpt><trkpt lat="44.71154616447952" lon="10.142526639900405"><ele>135.0</ele><time>2026-04-18T14:04:08.999Z</time></trkpt><trkpt lat="44.711666433938895" lon="10.142661849551155"><ele>135.0</ele><time>2026-04-18T14:04:09.999Z</time></trkpt><trkpt lat="44.71179268097632" lon="10.142783106430517"><ele>135.0</ele><time>2026-04-18T14:04:10.999Z</time></trkpt><trkpt lat="44.71191399038396" lon="10.142881061318949"><ele>135.0</ele><time>2026-04-18T14:04:11.999Z</time></trkpt><trkpt lat="44.71202024479431" lon="10.142999395054789"><ele>135.0</ele><time>2026-04-18T14:04:12.999Z</time></trkpt><trkpt lat="44.71212123168218" lon="10.143111195705755"><ele>134.75</ele><time>2026-04-18T14:04:13.999Z</time></trkpt><trkpt lat="44.71222189703557" lon="10.143222430432456"><ele>134.5</ele><time>2026-04-18T14:04:14.999Z</time></trkpt><trkpt lat="44.71232448761243" lon="10.143324198824402"><ele>134.25</ele><time>2026-04-18T14:04:15.999Z</time></trkpt><trkpt lat="44.712418446594114" lon="10.143427685959347"><ele>134.0</ele><time>2026-04-18T14:04:16.999Z</time></trkpt><trkpt lat="44.71251676913681" lon="10.14354248552204"><ele>134.0</ele><time>2026-04-18T14:04:17.999Z</time></trkpt><trkpt lat="44.71260981641666" lon="10.14367609895707"><ele>134.0</ele><time>2026-04-18T14:04:18.999Z</time></trkpt><trkpt lat="44.712689902949414" lon="10.143807091985707"><ele>134.0</ele><time>2026-04-18T14:04:19.999Z</time></trkpt><trkpt lat="44.712762835479005" lon="10.143961525054289"><ele>134.0</ele><time>2026-04-18T14:04:20.999Z</time></trkpt><trkpt lat="44.712829988010064" lon="10.144117588840041"><ele>133.0</ele><time>2026-04-18T14:04:21.999Z</time></trkpt><trkpt lat="44.7128868103068" lon="10.144272051222334"><ele>132.0</ele><time>2026-04-18T14:04:22.999Z</time></trkpt><trkpt lat="44.712945367720295" lon="10.144421341043039"><ele>131.0</ele><time>2026-04-18T14:04:23.999Z</time></trkpt><trkpt lat="44.71300491983821" lon="10.144574791948983"><ele>130.0</ele><time>2026-04-18T14:04:24.999Z</time></trkpt><trkpt lat="44.713061250170256" lon="10.144724388820997"><ele>130.0</ele><time>2026-04-18T14:04:25.999Z</time></trkpt><trkpt lat="44.71312687995087" lon="10.144861950673711"><ele>130.0</ele><time>2026-04-18T14:04:26.999Z</time></trkpt><trkpt lat="44.71318759281376" lon="10.144996437497673"><ele>130.0</ele><time>2026-04-18T14:04:27.999Z</time></trkpt><trkpt lat="44.71325122199947" lon="10.145148034076644"><ele>130.0</ele><time>2026-04-18T14:04:28.999Z</time></trkpt><trkpt lat="44.71330945840057" lon="10.145308902964327"><ele>130.25</ele><time>2026-04-18T14:04:29.999Z</time></trkpt><trkpt lat="44.71338320795533" lon="10.145477310290126"><ele>130.5</ele><time>2026-04-18T14:04:30.999Z</time></trkpt><trkpt lat="44.71347804360158" lon="10.145642313446537"><ele>130.75</ele><time>2026-04-18T14:04:31.999Z</time></trkpt><trkpt lat="44.71355364944409" lon="10.145818561662967"><ele>131.0</ele><time>2026-04-18T14:04:32.999Z</time></trkpt><trkpt lat="44.713635747787464" lon="10.14599498922844"><ele>129.66666666666666</ele><time>2026-04-18T14:04:33.999Z</time></trkpt><trkpt lat="44.71371873135325" lon="10.146178116272518"><ele>128.33333333333334</ele><time>2026-04-18T14:04:34.999Z</time></trkpt><trkpt lat="44.71380507612439" lon="10.146361671564888"><ele>127.0</ele><time>2026-04-18T14:04:35.999Z</time></trkpt><trkpt lat="44.713897774664424" lon="10.146543049910132"><ele>128.33333333333334</ele><time>2026-04-18T14:04:37Z</time></trkpt><trkpt lat="44.713978859423584" lon="10.146721616353531"><ele>129.66666666666666</ele><time>2026-04-18T14:04:38Z</time></trkpt><trkpt lat="44.71406386249557" lon="10.14689602522945"><ele>131.0</ele><time>2026-04-18T14:04:39Z</time></trkpt><trkpt lat="44.71414649820734" lon="10.147072870613666"><ele>131.0</ele><time>2026-04-18T14:04:40Z</time></trkpt><trkpt lat="44.71423241966574" lon="10.147247502847302"><ele>131.0</ele><time>2026-04-18T14:04:41Z</time></trkpt><trkpt lat="44.71431578851768" lon="10.147429233407351"><ele>131.0</ele><time>2026-04-18T14:04:42Z</time></trkpt><trkpt lat="44.71440322611488" lon="10.147607264079905"><ele>129.33333333333331</ele><time>2026-04-18T14:04:43Z</time></trkpt><trkpt lat="44.714497285285084" lon="10.147790324720756"><ele>127.66666666666666</ele><time>2026-04-18T14:04:44Z</time></trkpt><trkpt lat="44.7145903427326" lon="10.147991349009228"><ele>126.0</ele><time>2026-04-18T14:04:45Z</time></trkpt><trkpt lat="44.71467968338681" lon="10.148183657671094"><ele>126.33333333333334</ele><time>2026-04-18T14:04:46Z</time></trkpt><trkpt lat="44.71475847197355" lon="10.148392921863199"><ele>126.66666666666667</ele><time>2026-04-18T14:04:47Z</time></trkpt><trkpt lat="44.71483196226893" lon="10.148615907564157"><ele>127.0</ele><time>2026-04-18T14:04:48Z</time></trkpt><trkpt lat="44.71489674442553" lon="10.14885041468022"><ele>127.33333333333334</ele><time>2026-04-18T14:04:49Z</time></trkpt><trkpt lat="44.714950789908" lon="10.149095750533405"><ele>127.66666666666666</ele><time>2026-04-18T14:04:50Z</time></trkpt><trkpt lat="44.71500950196535" lon="10.149336571106469"><ele>128.0</ele><time>2026-04-18T14:04:51Z</time></trkpt><trkpt lat="44.71507510288239" lon="10.149569324629924"><ele>128.0</ele><time>2026-04-18T14:04:52Z</time></trkpt><trkpt lat="44.71513819371865" lon="10.149807178429082"><ele>128.0</ele><time>2026-04-18T14:04:53Z</time></trkpt><trkpt lat="44.71519794068416" lon="10.150046625962952"><ele>128.0</ele><time>2026-04-18T14:04:54Z</time></trkpt><trkpt lat="44.71526250764036" lon="10.150284269872705"><ele>127.66666666666666</ele><time>2026-04-18T14:04:55Z</time></trkpt><trkpt lat="44.71533818260489" lon="10.150504128349866"><ele>127.33333333333334</ele><time>2026-04-18T14:04:56Z</time></trkpt><trkpt lat="44.715430501900954" lon="10.150710490996765"><ele>127.0</ele><time>2026-04-18T14:04:57Z</time></trkpt><trkpt lat="44.715534296371246" lon="10.150909528549366"><ele>127.66666666666667</ele><time>2026-04-18T14:04:58Z</time></trkpt><trkpt lat="44.715644618619514" lon="10.151107134645756"><ele>128.33333333333334</ele><time>2026-04-18T14:04:59Z</time></trkpt><trkpt lat="44.71575357015892" lon="10.151310386667381"><ele>129.0</ele><time>2026-04-18T14:05:00Z</time></trkpt><trkpt lat="44.71585478340226" lon="10.151512449572442"><ele>129.66666666666666</ele><time>2026-04-18T14:05:01Z</time></trkpt><trkpt lat="44.715954377977255" lon="10.151715029916046"><ele>130.33333333333331</ele><time>2026-04-18T14:05:02Z</time></trkpt><trkpt lat="44.71605676279194" lon="10.15191231103506"><ele>131.0</ele><time>2026-04-18T14:05:03Z</time></trkpt><trkpt lat="44.71615612299508" lon="10.152102419163413"><ele>131.66666666666666</ele><time>2026-04-18T14:05:04Z</time></trkpt><trkpt lat="44.716251970481466" lon="10.152287806701422"><ele>132.33333333333334</ele><time>2026-04-18T14:05:05Z</time></trkpt><trkpt lat="44.71634236073583" lon="10.152463019430575"><ele>133.0</ele><time>2026-04-18T14:05:06Z</time></trkpt><trkpt lat="44.71643565861577" lon="10.152637329898244"><ele>133.0</ele><time>2026-04-18T14:05:07Z</time></trkpt><trkpt lat="44.71652769752874" lon="10.152817040905767"><ele>133.0</ele><time>2026-04-18T14:05:08Z</time></trkpt><trkpt lat="44.71662262507656" lon="10.153000439841128"><ele>133.0</ele><time>2026-04-18T14:05:09Z</time></trkpt><trkpt lat="44.71671464064382" lon="10.153182111468384"><ele>132.0</ele><time>2026-04-18T14:05:10Z</time></trkpt><trkpt lat="44.71680457793418" lon="10.153377855566145"><ele>131.0</ele><time>2026-04-18T14:05:11Z</time></trkpt><trkpt lat="44.71689233736723" lon="10.153563949809463"><ele>130.0</ele><time>2026-04-18T14:05:12Z</time></trkpt><trkpt lat="44.71697528554416" lon="10.153770260705175"><ele>129.66666666666669</ele><time>2026-04-18T14:05:13Z</time></trkpt><trkpt lat="44.717053164936786" lon="10.153979463883372"><ele>129.33333333333334</ele><time>2026-04-18T14:05:14Z</time></trkpt><trkpt lat="44.717132453090805" lon="10.154196847914605"><ele>129.0</ele><time>2026-04-18T14:05:15Z</time></trkpt><trkpt lat="44.71721193983629" lon="10.154416731565112"><ele>129.0</ele><time>2026-04-18T14:05:16Z</time></trkpt><trkpt lat="44.71728909967797" lon="10.15463905752445"><ele>129.0</ele><time>2026-04-18T14:05:17Z</time></trkpt><trkpt lat="44.717373349887794" lon="10.15486837980971"><ele>129.0</ele><time>2026-04-18T14:05:18Z</time></trkpt><trkpt lat="44.71745598997549" lon="10.155090229339775"><ele>128.33333333333334</ele><time>2026-04-18T14:05:19Z</time></trkpt><trkpt lat="44.71754082381861" lon="10.155321040365079"><ele>127.66666666666667</ele><time>2026-04-18T14:05:20Z</time></trkpt><trkpt lat="44.71762461196804" lon="10.155554530995841"><ele>127.0</ele><time>2026-04-18T14:05:21Z</time></trkpt><trkpt lat="44.7177050720097" lon="10.15579090491676"><ele>127.0</ele><time>2026-04-18T14:05:22Z</time></trkpt><trkpt lat="44.71778523626782" lon="10.156022736700866"><ele>127.0</ele><time>2026-04-18T14:05:23Z</time></trkpt><trkpt lat="44.717866684164015" lon="10.15625780303862"><ele>127.0</ele><time>2026-04-18T14:05:24Z</time></trkpt><trkpt lat="44.71795684238516" lon="10.156488522284233"><ele>127.33333333333334</ele><time>2026-04-18T14:05:25Z</time></trkpt><trkpt lat="44.718036141838766" lon="10.156716843371969"><ele>127.66666666666666</ele><time>2026-04-18T14:05:26Z</time></trkpt><trkpt lat="44.71812121984909" lon="10.156956332961933"><ele>128.0</ele><time>2026-04-18T14:05:27Z</time></trkpt><trkpt lat="44.71821086606829" lon="10.157184251363661"><ele>127.33333333333333</ele><time>2026-04-18T14:05:28Z</time></trkpt><trkpt lat="44.71829670046747" lon="10.15741292912996"><ele>126.66666666666666</ele><time>2026-04-18T14:05:29Z</time></trkpt><trkpt lat="44.71838196442632" lon="10.157644750636491"><ele>126.0</ele><time>2026-04-18T14:05:30Z</time></trkpt><trkpt lat="44.71846504237829" lon="10.157868887024277"><ele>126.0</ele><time>2026-04-18T14:05:31Z</time></trkpt><trkpt lat="44.71854153794271" lon="10.158088714793081"><ele>126.0</ele><time>2026-04-18T14:05:32Z</time></trkpt><trkpt lat="44.718620270078574" lon="10.15830596145139"><ele>126.0</ele><time>2026-04-18T14:05:33Z</time></trkpt><trkpt lat="44.71869689609672" lon="10.158528511375954"><ele>124.66666666666666</ele><time>2026-04-18T14:05:34Z</time></trkpt><trkpt lat="44.71877495518624" lon="10.158743452849485"><ele>123.33333333333333</ele><time>2026-04-18T14:05:35Z</time></trkpt><trkpt lat="44.71886488472416" lon="10.158961867646976"><ele>122.0</ele><time>2026-04-18T14:05:36Z</time></trkpt><trkpt lat="44.71895042882776" lon="10.159190762847398"><ele>121.66666666666666</ele><time>2026-04-18T14:05:37Z</time></trkpt><trkpt lat="44.71905005493949" lon="10.159444567543884"><ele>121.33333333333334</ele><time>2026-04-18T14:05:38Z</time></trkpt><trkpt lat="44.719136533725944" lon="10.159732513564368"><ele>121.0</ele><time>2026-04-18T14:05:39Z</time></trkpt><trkpt lat="44.71923016343131" lon="10.16000111268146"><ele>121.0</ele><time>2026-04-18T14:05:40Z</time></trkpt><trkpt lat="44.71932684426273" lon="10.160281846632444"><ele>121.0</ele><time>2026-04-18T14:05:41Z</time></trkpt><trkpt lat="44.7194222260903" lon="10.160560640377465"><ele>121.0</ele><time>2026-04-18T14:05:42Z</time></trkpt><trkpt lat="44.71951928543773" lon="10.16083878205344"><ele>121.0</ele><time>2026-04-18T14:05:43Z</time></trkpt><trkpt lat="44.71960524988181" lon="10.161115547137223"><ele>121.0</ele><time>2026-04-18T14:05:44Z</time></trkpt><trkpt lat="44.71969339769345" lon="10.161377323009317"><ele>121.0</ele><time>2026-04-18T14:05:45Z</time></trkpt><trkpt lat="44.71977455543139" lon="10.16163778187081"><ele>121.66666666666667</ele><time>2026-04-18T14:05:46Z</time></trkpt><trkpt lat="44.71986212452776" lon="10.161908674920925"><ele>122.33333333333334</ele><time>2026-04-18T14:05:47Z</time></trkpt><trkpt lat="44.719948112924236" lon="10.16216308391165"><ele>123.0</ele><time>2026-04-18T14:05:48Z</time></trkpt><trkpt lat="44.72003626960703" lon="10.162411342708584"><ele>123.33333333333334</ele><time>2026-04-18T14:05:49Z</time></trkpt><trkpt lat="44.720115891202184" lon="10.162655928506885"><ele>123.66666666666667</ele><time>2026-04-18T14:05:50Z</time></trkpt><trkpt lat="44.72019377697112" lon="10.162887981500466"><ele>124.0</ele><time>2026-04-18T14:05:51Z</time></trkpt><trkpt lat="44.720268172325575" lon="10.163126066161404"><ele>123.0</ele><time>2026-04-18T14:05:51.999Z</time></trkpt><trkpt lat="44.720349635712" lon="10.163366395874167"><ele>122.0</ele><time>2026-04-18T14:05:52.999Z</time></trkpt><trkpt lat="44.72042890736808" lon="10.163620814976378"><ele>121.0</ele><time>2026-04-18T14:05:53.999Z</time></trkpt><trkpt lat="44.720512974372646" lon="10.163872237116824"><ele>120.66666666666667</ele><time>2026-04-18T14:05:54.999Z</time></trkpt><trkpt lat="44.72059384817252" lon="10.164115505982842"><ele>120.33333333333334</ele><time>2026-04-18T14:05:55.999Z</time></trkpt><trkpt lat="44.72067013417493" lon="10.164367855468218"><ele>120.0</ele><time>2026-04-18T14:05:56.999Z</time></trkpt><trkpt lat="44.72074622898914" lon="10.164614847124815"><ele>120.0</ele><time>2026-04-18T14:05:57.999Z</time></trkpt><trkpt lat="44.72082111853296" lon="10.164862408052826"><ele>120.0</ele><time>2026-04-18T14:05:58.999Z</time></trkpt><trkpt lat="44.72089667634643" lon="10.165104377828067"><ele>120.0</ele><time>2026-04-18T14:05:59.999Z</time></trkpt><trkpt lat="44.72096838526293" lon="10.165338374416457"><ele>119.66666666666666</ele><time>2026-04-18T14:06:00.999Z</time></trkpt><trkpt lat="44.72104102341546" lon="10.16556752355204"><ele>119.33333333333333</ele><time>2026-04-18T14:06:01.999Z</time></trkpt><trkpt lat="44.721107107163355" lon="10.165803619763446"><ele>119.0</ele><time>2026-04-18T14:06:02.999Z</time></trkpt><trkpt lat="44.72117782964761" lon="10.166026701458192"><ele>118.66666666666666</ele><time>2026-04-18T14:06:03.999Z</time></trkpt><trkpt lat="44.72124850777958" lon="10.166242119113"><ele>118.33333333333334</ele><time>2026-04-18T14:06:04.999Z</time></trkpt><trkpt lat="44.72130320886246" lon="10.166448168070167"><ele>118.0</ele><time>2026-04-18T14:06:05.999Z</time></trkpt><trkpt lat="44.72135367477151" lon="10.166649521104034"><ele>117.66666666666667</ele><time>2026-04-18T14:06:06.999Z</time></trkpt><trkpt lat="44.72141688459503" lon="10.166863449855498"><ele>117.33333333333334</ele><time>2026-04-18T14:06:07.999Z</time></trkpt><trkpt lat="44.72147980674237" lon="10.167076230673835"><ele>117.0</ele><time>2026-04-18T14:06:08.999Z</time></trkpt><trkpt lat="44.721548462842975" lon="10.167295124771435"><ele>117.33333333333334</ele><time>2026-04-18T14:06:09.999Z</time></trkpt><trkpt lat="44.721622835207356" lon="10.167507042231529"><ele>117.66666666666667</ele><time>2026-04-18T14:06:10.999Z</time></trkpt><trkpt lat="44.7217082365115" lon="10.167712819973094"><ele>118.0</ele><time>2026-04-18T14:06:11.999Z</time></trkpt><trkpt lat="44.72179310438676" lon="10.167918074665163"><ele>118.0</ele><time>2026-04-18T14:06:12.999Z</time></trkpt><trkpt lat="44.721873136238806" lon="10.168120788479342"><ele>118.0</ele><time>2026-04-18T14:06:13.999Z</time></trkpt><trkpt lat="44.72195135663073" lon="10.168332784586063"><ele>118.0</ele><time>2026-04-18T14:06:14.999Z</time></trkpt><trkpt lat="44.72203194342175" lon="10.168547315158014"><ele>118.33333333333334</ele><time>2026-04-18T14:06:15.999Z</time></trkpt><trkpt lat="44.7221161399682" lon="10.168767752579663"><ele>118.66666666666666</ele><time>2026-04-18T14:06:16.999Z</time></trkpt><trkpt lat="44.72220212281691" lon="10.168983670164032"><ele>119.0</ele><time>2026-04-18T14:06:17.999Z</time></trkpt><trkpt lat="44.72228776370476" lon="10.16920048973228"><ele>119.0</ele><time>2026-04-18T14:06:18.999Z</time></trkpt><trkpt lat="44.722376070305096" lon="10.169416990099455"><ele>119.0</ele><time>2026-04-18T14:06:19.999Z</time></trkpt><trkpt lat="44.722457070779036" lon="10.169624905832038"><ele>119.0</ele><time>2026-04-18T14:06:20.999Z</time></trkpt><trkpt lat="44.72253869474662" lon="10.169838054627052"><ele>119.0</ele><time>2026-04-18T14:06:21.999Z</time></trkpt><trkpt lat="44.72261422986601" lon="10.170032361454497"><ele>119.0</ele><time>2026-04-18T14:06:22.999Z</time></trkpt><trkpt lat="44.72268275244137" lon="10.170215615605258"><ele>119.0</ele><time>2026-04-18T14:06:23.999Z</time></trkpt><trkpt lat="44.72275481594621" lon="10.170412191041937"><ele>118.33333333333333</ele><time>2026-04-18T14:06:24.999Z</time></trkpt><trkpt lat="44.72283531917509" lon="10.170603199713097"><ele>117.66666666666666</ele><time>2026-04-18T14:06:25.999Z</time></trkpt><trkpt lat="44.72291429062757" lon="10.170792744472667"><ele>117.0</ele><time>2026-04-18T14:06:26.999Z</time></trkpt><trkpt lat="44.722972971992746" lon="10.170979959786894"><ele>117.0</ele><time>2026-04-18T14:06:27.999Z</time></trkpt><trkpt lat="44.72305602385144" lon="10.171152855208774"><ele>117.0</ele><time>2026-04-18T14:06:28.999Z</time></trkpt><trkpt lat="44.723122769904414" lon="10.171341415555009"><ele>117.0</ele><time>2026-04-18T14:06:29.999Z</time></trkpt><trkpt lat="44.72319112630304" lon="10.171520544671502"><ele>117.0</ele><time>2026-04-18T14:06:30.999Z</time></trkpt><trkpt lat="44.72326027838087" lon="10.171692420075761"><ele>117.25</ele><time>2026-04-18T14:06:31.999Z</time></trkpt><trkpt lat="44.72332663304033" lon="10.171853163046572"><ele>117.5</ele><time>2026-04-18T14:06:32.999Z</time></trkpt><trkpt lat="44.72338689225496" lon="10.172012850835628"><ele>117.75</ele><time>2026-04-18T14:06:33.999Z</time></trkpt><trkpt lat="44.723448502747075" lon="10.172178090179093"><ele>118.0</ele><time>2026-04-18T14:06:34.999Z</time></trkpt><trkpt lat="44.72350902337284" lon="10.17233710255136"><ele>118.0</ele><time>2026-04-18T14:06:35.999Z</time></trkpt><trkpt lat="44.723569905421186" lon="10.172489732326168"><ele>118.0</ele><time>2026-04-18T14:06:36.999Z</time></trkpt><trkpt lat="44.723629083220615" lon="10.172629232939103"><ele>118.0</ele><time>2026-04-18T14:06:37.999Z</time></trkpt><trkpt lat="44.72368790550922" lon="10.172768078916658"><ele>118.0</ele><time>2026-04-18T14:06:38.999Z</time></trkpt><trkpt lat="44.72374841038395" lon="10.172917254924316"><ele>118.0</ele><time>2026-04-18T14:06:39.999Z</time></trkpt><trkpt lat="44.72381124526463" lon="10.173059394612562"><ele>118.0</ele><time>2026-04-18T14:06:40.999Z</time></trkpt><trkpt lat="44.72387111136241" lon="10.173199590457076"><ele>118.0</ele><time>2026-04-18T14:06:41.999Z</time></trkpt><trkpt lat="44.72393076079561" lon="10.173331881352476"><ele>118.0</ele><time>2026-04-18T14:06:43Z</time></trkpt><trkpt lat="44.72398689274796" lon="10.173467807130404"><ele>118.0</ele><time>2026-04-18T14:06:44Z</time></trkpt><trkpt lat="44.7240446536667" lon="10.17361809572485"><ele>118.00000000000001</ele><time>2026-04-18T14:06:45Z</time></trkpt><trkpt lat="44.72409951090655" lon="10.173755701196399"><ele>118.00000000000001</ele><time>2026-04-18T14:06:46Z</time></trkpt><trkpt lat="44.72414832107481" lon="10.173885432464461"><ele>118.0</ele><time>2026-04-18T14:06:47Z</time></trkpt><trkpt lat="44.724193871597684" lon="10.174023049046353"><ele>118.0</ele><time>2026-04-18T14:06:48Z</time></trkpt><trkpt lat="44.724244910305224" lon="10.174148432325195"><ele>118.0</ele><time>2026-04-18T14:06:49Z</time></trkpt><trkpt lat="44.72429347000434" lon="10.174270998543498"><ele>118.0</ele><time>2026-04-18T14:06:50Z</time></trkpt><trkpt lat="44.7243581889837" lon="10.174412104465206"><ele>118.0</ele><time>2026-04-18T14:06:51Z</time></trkpt><trkpt lat="44.72442287083389" lon="10.174592619905534"><ele>118.0</ele><time>2026-04-18T14:06:52Z</time></trkpt><trkpt lat="44.724490803857215" lon="10.174778501678682"><ele>118.0</ele><time>2026-04-18T14:06:53Z</time></trkpt><trkpt lat="44.724573980487996" lon="10.17497633470063"><ele>118.0</ele><time>2026-04-18T14:06:54Z</time></trkpt><trkpt lat="44.7246629489027" lon="10.17518586134927"><ele>118.0</ele><time>2026-04-18T14:06:55Z</time></trkpt><trkpt lat="44.724744724462525" lon="10.175380607570062"><ele>118.0</ele><time>2026-04-18T14:06:56Z</time></trkpt><trkpt lat="44.72482703668819" lon="10.175577094052299"><ele>118.0</ele><time>2026-04-18T14:06:57Z</time></trkpt><trkpt lat="44.724912170997804" lon="10.175772252251713"><ele>118.0</ele><time>2026-04-18T14:06:58Z</time></trkpt><trkpt lat="44.72500694958346" lon="10.175979890151957"><ele>118.0</ele><time>2026-04-18T14:06:59Z</time></trkpt><trkpt lat="44.72510478200826" lon="10.176191587430957"><ele>118.0</ele><time>2026-04-18T14:07:00Z</time></trkpt><trkpt lat="44.72520756710724" lon="10.176407995398804"><ele>118.0</ele><time>2026-04-18T14:07:01Z</time></trkpt><trkpt lat="44.72531166409385" lon="10.176621276971842"><ele>116.66666666666667</ele><time>2026-04-18T14:07:02Z</time></trkpt><trkpt lat="44.725420398235855" lon="10.176837570654826"><ele>115.33333333333334</ele><time>2026-04-18T14:07:03Z</time></trkpt><trkpt lat="44.72552634944029" lon="10.177059529312507"><ele>114.0</ele><time>2026-04-18T14:07:04Z</time></trkpt><trkpt lat="44.72563232401138" lon="10.177286254044867"><ele>114.33333333333334</ele><time>2026-04-18T14:07:05Z</time></trkpt><trkpt lat="44.725732124875876" lon="10.177499444670374"><ele>114.66666666666667</ele><time>2026-04-18T14:07:06Z</time></trkpt><trkpt lat="44.72583613640124" lon="10.177721358290372"><ele>115.0</ele><time>2026-04-18T14:07:07Z</time></trkpt><trkpt lat="44.72594292024013" lon="10.177941163999765"><ele>115.0</ele><time>2026-04-18T14:07:08Z</time></trkpt><trkpt lat="44.726047960246696" lon="10.178145526421535"><ele>115.0</ele><time>2026-04-18T14:07:09Z</time></trkpt><trkpt lat="44.72616047252828" lon="10.178352586360761"><ele>115.0</ele><time>2026-04-18T14:07:10Z</time></trkpt><trkpt lat="44.726278837040546" lon="10.178547406369724"><ele>114.66666666666667</ele><time>2026-04-18T14:07:11Z</time></trkpt><trkpt lat="44.72639909391938" lon="10.178732524931196"><ele>114.33333333333334</ele><time>2026-04-18T14:07:12Z</time></trkpt><trkpt lat="44.72651674646406" lon="10.178905654485693"><ele>114.0</ele><time>2026-04-18T14:07:13Z</time></trkpt><trkpt lat="44.72663689235103" lon="10.179067854851796"><ele>114.66666666666666</ele><time>2026-04-18T14:07:14Z</time></trkpt><trkpt lat="44.72675727589206" lon="10.179228729072062"><ele>115.33333333333333</ele><time>2026-04-18T14:07:15Z</time></trkpt><trkpt lat="44.726878160263986" lon="10.179385797102343"><ele>116.0</ele><time>2026-04-18T14:07:16Z</time></trkpt><trkpt lat="44.72700059007228" lon="10.179539638062172"><ele>115.33333333333333</ele><time>2026-04-18T14:07:17Z</time></trkpt><trkpt lat="44.72712255962204" lon="10.17968627665423"><ele>114.66666666666666</ele><time>2026-04-18T14:07:18Z</time></trkpt><trkpt lat="44.72724535345818" lon="10.179829210918166"><ele>114.0</ele><time>2026-04-18T14:07:19Z</time></trkpt><trkpt lat="44.72736270103147" lon="10.179962374410957"><ele>114.0</ele><time>2026-04-18T14:07:20Z</time></trkpt><trkpt lat="44.72748135318759" lon="10.180092411165656"><ele>114.0</ele><time>2026-04-18T14:07:21Z</time></trkpt><trkpt lat="44.72760839558982" lon="10.180236679429319"><ele>114.0</ele><time>2026-04-18T14:07:22Z</time></trkpt><trkpt lat="44.727735555340786" lon="10.18038092139115"><ele>114.33333333333334</ele><time>2026-04-18T14:07:23Z</time></trkpt><trkpt lat="44.72786912460605" lon="10.180527210113757"><ele>114.66666666666667</ele><time>2026-04-18T14:07:24Z</time></trkpt><trkpt lat="44.727997028937665" lon="10.180673134050256"><ele>115.0</ele><time>2026-04-18T14:07:25Z</time></trkpt><trkpt lat="44.72812819493761" lon="10.180820617841754"><ele>115.0</ele><time>2026-04-18T14:07:26Z</time></trkpt><trkpt lat="44.72826298576551" lon="10.180964568281262"><ele>115.0</ele><time>2026-04-18T14:07:27Z</time></trkpt><trkpt lat="44.728403282796435" lon="10.18111538104173"><ele>115.0</ele><time>2026-04-18T14:07:28Z</time></trkpt><trkpt lat="44.7285558546137" lon="10.181290839342884"><ele>114.5</ele><time>2026-04-18T14:07:29Z</time></trkpt><trkpt lat="44.72873301448947" lon="10.181497462238255"><ele>114.0</ele><time>2026-04-18T14:07:30Z</time></trkpt><trkpt lat="44.72893779783412" lon="10.18172700446246"><ele>114.0</ele><time>2026-04-18T14:07:31Z</time></trkpt><trkpt lat="44.72916686262684" lon="10.181973494058397"><ele>114.0</ele><time>2026-04-18T14:07:32Z</time></trkpt><trkpt lat="44.72941993342843" lon="10.182222053797917"><ele>114.0</ele><time>2026-04-18T14:07:33Z</time></trkpt><trkpt lat="44.72966641132279" lon="10.182511599491455"><ele>114.0</ele><time>2026-04-18T14:07:34Z</time></trkpt><trkpt lat="44.72991680310707" lon="10.18278676700135"><ele>114.0</ele><time>2026-04-18T14:07:35Z</time></trkpt><trkpt lat="44.73016258682995" lon="10.18304491492916"><ele>114.0</ele><time>2026-04-18T14:07:36Z</time></trkpt><trkpt lat="44.73039419777889" lon="10.18327668873382"><ele>112.5</ele><time>2026-04-18T14:07:37Z</time></trkpt><trkpt lat="44.73064150665186" lon="10.183510023674563"><ele>111.0</ele><time>2026-04-18T14:07:38Z</time></trkpt><trkpt lat="44.73089678551226" lon="10.18371412268709"><ele>111.0</ele><time>2026-04-18T14:07:39Z</time></trkpt><trkpt lat="44.73112793991443" lon="10.183891111337626"><ele>111.0</ele><time>2026-04-18T14:07:40Z</time></trkpt><trkpt lat="44.73130901228363" lon="10.184035751777893"><ele>112.33333333333334</ele><time>2026-04-18T14:07:41Z</time></trkpt><trkpt lat="44.73148088992299" lon="10.184169295519354"><ele>113.66666666666667</ele><time>2026-04-18T14:07:42Z</time></trkpt><trkpt lat="44.73163469115811" lon="10.18428681295943"><ele>115.0</ele><time>2026-04-18T14:07:43Z</time></trkpt><trkpt lat="44.73177043621903" lon="10.184388249976388"><ele>113.33333333333334</ele><time>2026-04-18T14:07:44Z</time></trkpt><trkpt lat="44.73190631909211" lon="10.184489384871604"><ele>111.66666666666666</ele><time>2026-04-18T14:07:45Z</time></trkpt><trkpt lat="44.73204151127673" lon="10.18460908512254"><ele>110.0</ele><time>2026-04-18T14:07:46Z</time></trkpt><trkpt lat="44.732166147460504" lon="10.184780093054442"><ele>111.0</ele><time>2026-04-18T14:07:47Z</time></trkpt><trkpt lat="44.73230702971229" lon="10.184937832365634"><ele>112.0</ele><time>2026-04-18T14:07:48Z</time></trkpt><trkpt lat="44.732424409862496" lon="10.185110748502767"><ele>113.0</ele><time>2026-04-18T14:07:49Z</time></trkpt><trkpt lat="44.732549835031996" lon="10.185273879023176"><ele>113.0</ele><time>2026-04-18T14:07:50Z</time></trkpt><trkpt lat="44.73266733739697" lon="10.185427029064504"><ele>113.0</ele><time>2026-04-18T14:07:51Z</time></trkpt><trkpt lat="44.73278933423754" lon="10.185588276834338"><ele>113.0</ele><time>2026-04-18T14:07:52Z</time></trkpt><trkpt lat="44.732906221768566" lon="10.18574865837981"><ele>112.66666666666666</ele><time>2026-04-18T14:07:53Z</time></trkpt><trkpt lat="44.73301924836417" lon="10.185893474314248"><ele>112.33333333333334</ele><time>2026-04-18T14:07:54Z</time></trkpt><trkpt lat="44.73313139500723" lon="10.186021452618544"><ele>112.0</ele><time>2026-04-18T14:07:55Z</time></trkpt><trkpt lat="44.733258992284725" lon="10.18615819608231"><ele>112.0</ele><time>2026-04-18T14:07:56Z</time></trkpt><trkpt lat="44.73339346919242" lon="10.18629038714404"><ele>112.0</ele><time>2026-04-18T14:07:57Z</time></trkpt><trkpt lat="44.73353815924497" lon="10.186423482020718"><ele>112.0</ele><time>2026-04-18T14:07:58Z</time></trkpt><trkpt lat="44.73367424842187" lon="10.186550053526382"><ele>112.33333333333334</ele><time>2026-04-18T14:07:59Z</time></trkpt><trkpt lat="44.73380968408166" lon="10.186681134433254"><ele>112.66666666666666</ele><time>2026-04-18T14:08:00Z</time></trkpt><trkpt lat="44.73394187002036" lon="10.186807650106243"><ele>113.0</ele><time>2026-04-18T14:08:01Z</time></trkpt><trkpt lat="44.73408486239324" lon="10.186940559664654"><ele>113.0</ele><time>2026-04-18T14:08:02Z</time></trkpt><trkpt lat="44.734229665885806" lon="10.187073518391383"><ele>113.0</ele><time>2026-04-18T14:08:03Z</time></trkpt><trkpt lat="44.73436864306487" lon="10.187199120758331"><ele>113.0</ele><time>2026-04-18T14:08:04Z</time></trkpt><trkpt lat="44.73450097586414" lon="10.187319368939416"><ele>112.75</ele><time>2026-04-18T14:08:05Z</time></trkpt><trkpt lat="44.734625320192016" lon="10.187428985224138"><ele>112.5</ele><time>2026-04-18T14:08:05.999Z</time></trkpt><trkpt lat="44.73474779291905" lon="10.187537975194273"><ele>112.25</ele><time>2026-04-18T14:08:06.999Z</time></trkpt><trkpt lat="44.73487554997729" lon="10.187650856568311"><ele>112.0</ele><time>2026-04-18T14:08:07.999Z</time></trkpt><trkpt lat="44.735006584394874" lon="10.187766333112021"><ele>112.0</ele><time>2026-04-18T14:08:08.999Z</time></trkpt><trkpt lat="44.73512928859419" lon="10.187870349958011"><ele>112.0</ele><time>2026-04-18T14:08:09.999Z</time></trkpt><trkpt lat="44.73525047550615" lon="10.187963709464857"><ele>112.0</ele><time>2026-04-18T14:08:10.999Z</time></trkpt><trkpt lat="44.73537142707121" lon="10.188065571568393"><ele>112.0</ele><time>2026-04-18T14:08:11.999Z</time></trkpt><trkpt lat="44.735488923597025" lon="10.188169022890529"><ele>112.5</ele><time>2026-04-18T14:08:12.999Z</time></trkpt><trkpt lat="44.735597705811394" lon="10.188272459908346"><ele>113.0</ele><time>2026-04-18T14:08:13.999Z</time></trkpt><trkpt lat="44.73570236838918" lon="10.188369452804212"><ele>113.5</ele><time>2026-04-18T14:08:14.999Z</time></trkpt><trkpt lat="44.73581476567182" lon="10.188470225195045"><ele>114.0</ele><time>2026-04-18T14:08:15.999Z</time></trkpt><trkpt lat="44.73593001286765" lon="10.188570808843684"><ele>114.0</ele><time>2026-04-18T14:08:16.999Z</time></trkpt><trkpt lat="44.73604638336088" lon="10.18867008441899"><ele>114.0</ele><time>2026-04-18T14:08:17.999Z</time></trkpt><trkpt lat="44.73616107685619" lon="10.188768728865892"><ele>114.0</ele><time>2026-04-18T14:08:18.999Z</time></trkpt><trkpt lat="44.7362781429729" lon="10.188870891039102"><ele>114.0</ele><time>2026-04-18T14:08:19.999Z</time></trkpt><trkpt lat="44.736398576592734" lon="10.188975128198084"><ele>114.0</ele><time>2026-04-18T14:08:20.999Z</time></trkpt><trkpt lat="44.736520056233154" lon="10.189081457264539"><ele>114.0</ele><time>2026-04-18T14:08:21.999Z</time></trkpt><trkpt lat="44.73664211522362" lon="10.189192200862365"><ele>114.0</ele><time>2026-04-18T14:08:22.999Z</time></trkpt><trkpt lat="44.73676752813857" lon="10.189309691410426"><ele>114.0</ele><time>2026-04-18T14:08:23.999Z</time></trkpt><trkpt lat="44.736898870423715" lon="10.189424421356955"><ele>114.0</ele><time>2026-04-18T14:08:24.999Z</time></trkpt><trkpt lat="44.73702745978761" lon="10.189530993868829"><ele>114.0</ele><time>2026-04-18T14:08:25.999Z</time></trkpt><trkpt lat="44.73715380932583" lon="10.189638115318083"><ele>114.0</ele><time>2026-04-18T14:08:26.999Z</time></trkpt><trkpt lat="44.73727427581188" lon="10.189734541832173"><ele>114.0</ele><time>2026-04-18T14:08:27.999Z</time></trkpt><trkpt lat="44.73739649927266" lon="10.18984008804294"><ele>114.25</ele><time>2026-04-18T14:08:28.999Z</time></trkpt><trkpt lat="44.73752256658087" lon="10.189943820362618"><ele>114.5</ele><time>2026-04-18T14:08:29.999Z</time></trkpt><trkpt lat="44.737644943183426" lon="10.190039207136913"><ele>114.75</ele><time>2026-04-18T14:08:30.999Z</time></trkpt><trkpt lat="44.7377600636116" lon="10.19014106968891"><ele>115.0</ele><time>2026-04-18T14:08:31.999Z</time></trkpt><trkpt lat="44.73786715249301" lon="10.190243209422015"><ele>115.0</ele><time>2026-04-18T14:08:32.999Z</time></trkpt><trkpt lat="44.73796850498914" lon="10.190328449700827"><ele>115.0</ele><time>2026-04-18T14:08:33.999Z</time></trkpt><trkpt lat="44.7380541740279" lon="10.190403590443934"><ele>115.0</ele><time>2026-04-18T14:08:34.999Z</time></trkpt><trkpt lat="44.738123011123854" lon="10.190467365046663"><ele>115.0</ele><time>2026-04-18T14:08:35.999Z</time></trkpt><trkpt lat="44.738170399629134" lon="10.190542644177194"><ele>115.0</ele><time>2026-04-18T14:08:36.999Z</time></trkpt><trkpt lat="44.73814728502766" lon="10.190772268497247"><ele>115.0</ele><time>2026-04-18T14:08:38.999Z</time></trkpt><trkpt lat="44.73808512944424" lon="10.19095216826288"><ele>115.0</ele><time>2026-04-18T14:08:39.999Z</time></trkpt><trkpt lat="44.73801967619825" lon="10.191166445373693"><ele>115.0</ele><time>2026-04-18T14:08:40.999Z</time></trkpt><trkpt lat="44.73794598001892" lon="10.191387351495658"><ele>114.66666666666667</ele><time>2026-04-18T14:08:41.999Z</time></trkpt><trkpt lat="44.73787568837736" lon="10.191627935815605"><ele>114.33333333333334</ele><time>2026-04-18T14:08:42.999Z</time></trkpt><trkpt lat="44.737815600084" lon="10.191851200225031"><ele>114.0</ele><time>2026-04-18T14:08:43.999Z</time></trkpt><trkpt lat="44.73775435321667" lon="10.192049612719508"><ele>114.25</ele><time>2026-04-18T14:08:44.999Z</time></trkpt><trkpt lat="44.737692194457495" lon="10.192233349899908"><ele>114.5</ele><time>2026-04-18T14:08:45.999Z</time></trkpt><trkpt lat="44.7375895912049" lon="10.192326549911987"><ele>114.75</ele><time>2026-04-18T14:08:46.999Z</time></trkpt><trkpt lat="44.737467088778104" lon="10.19239917709815"><ele>115.0</ele><time>2026-04-18T14:08:47.999Z</time></trkpt><trkpt lat="44.737302939730945" lon="10.192394440858052"><ele>115.0</ele><time>2026-04-18T14:08:49Z</time></trkpt><trkpt lat="44.737110060971325" lon="10.19238997419182"><ele>115.0</ele><time>2026-04-18T14:08:50Z</time></trkpt><trkpt lat="44.736928071628505" lon="10.192355757837845"><ele>115.0</ele><time>2026-04-18T14:08:51Z</time></trkpt><trkpt lat="44.73677651261481" lon="10.192334348803367"><ele>115.5</ele><time>2026-04-18T14:08:52Z</time></trkpt><trkpt lat="44.73665496984122" lon="10.192329379080125"><ele>116.0</ele><time>2026-04-18T14:08:53Z</time></trkpt><trkpt lat="44.73653868817152" lon="10.192334413603426"><ele>116.5</ele><time>2026-04-18T14:08:54Z</time></trkpt><trkpt lat="44.736413001779454" lon="10.192301884495322"><ele>117.0</ele><time>2026-04-18T14:08:55Z</time></trkpt><trkpt lat="44.73624585615619" lon="10.192289292904476"><ele>117.0</ele><time>2026-04-18T14:08:56Z</time></trkpt><trkpt lat="44.73605571763824" lon="10.192298986372"><ele>117.0</ele><time>2026-04-18T14:08:57Z</time></trkpt><trkpt lat="44.735866501950824" lon="10.192266059131088"><ele>117.0</ele><time>2026-04-18T14:08:58Z</time></trkpt><trkpt lat="44.735655073763375" lon="10.192238174294502"><ele>118.66666666666666</ele><time>2026-04-18T14:08:59Z</time></trkpt><trkpt lat="44.73543767454076" lon="10.192205365353393"><ele>120.33333333333333</ele><time>2026-04-18T14:09:00Z</time></trkpt><trkpt lat="44.73522660227955" lon="10.192180876076018"><ele>122.0</ele><time>2026-04-18T14:09:01Z</time></trkpt><trkpt lat="44.73501098762564" lon="10.192167507357407"><ele>124.0</ele><time>2026-04-18T14:09:02Z</time></trkpt><trkpt lat="44.734807177749275" lon="10.192185672036606"><ele>126.0</ele><time>2026-04-18T14:09:03Z</time></trkpt><trkpt lat="44.734606267044796" lon="10.192239401202938"><ele>128.0</ele><time>2026-04-18T14:09:04Z</time></trkpt><trkpt lat="44.7344166816996" lon="10.192338507019114"><ele>127.0</ele><time>2026-04-18T14:09:05Z</time></trkpt><trkpt lat="44.734222822728455" lon="10.192449695526069"><ele>126.0</ele><time>2026-04-18T14:09:06Z</time></trkpt><trkpt lat="44.73402922361183" lon="10.192539948053652"><ele>125.0</ele><time>2026-04-18T14:09:07Z</time></trkpt><trkpt lat="44.733806759769756" lon="10.192611778928027"><ele>125.0</ele><time>2026-04-18T14:09:08Z</time></trkpt><trkpt lat="44.73357685098188" lon="10.192674102194994"><ele>125.0</ele><time>2026-04-18T14:09:09Z</time></trkpt><trkpt lat="44.73336509228418" lon="10.192729927604535"><ele>127.5</ele><time>2026-04-18T14:09:10Z</time></trkpt><trkpt lat="44.73313611644571" lon="10.192795011372844"><ele>130.0</ele><time>2026-04-18T14:09:11Z</time></trkpt><trkpt lat="44.73292107940244" lon="10.192857175357558"><ele>131.33333333333334</ele><time>2026-04-18T14:09:12Z</time></trkpt><trkpt lat="44.73271922972906" lon="10.192932038535757"><ele>132.66666666666666</ele><time>2026-04-18T14:09:13Z</time></trkpt><trkpt lat="44.732519609627516" lon="10.19304102779647"><ele>134.0</ele><time>2026-04-18T14:09:14Z</time></trkpt><trkpt lat="44.73231804531844" lon="10.193182769405732"><ele>130.0</ele><time>2026-04-18T14:09:15Z</time></trkpt><trkpt lat="44.73209196356916" lon="10.193297392281046"><ele>126.0</ele><time>2026-04-18T14:09:16Z</time></trkpt><trkpt lat="44.731877488186406" lon="10.193424828017038"><ele>126.0</ele><time>2026-04-18T14:09:17Z</time></trkpt><trkpt lat="44.73165133890645" lon="10.193563744559782"><ele>126.0</ele><time>2026-04-18T14:09:18Z</time></trkpt><trkpt lat="44.73144076320874" lon="10.193690750672083"><ele>126.0</ele><time>2026-04-18T14:09:19Z</time></trkpt><trkpt lat="44.73124532761949" lon="10.193805854732371"><ele>126.0</ele><time>2026-04-18T14:09:20Z</time></trkpt><trkpt lat="44.73106385342192" lon="10.193912067411885"><ele>126.0</ele><time>2026-04-18T14:09:21Z</time></trkpt><trkpt lat="44.73086528630894" lon="10.19402267810097"><ele>125.66666666666666</ele><time>2026-04-18T14:09:22Z</time></trkpt><trkpt lat="44.730662422483086" lon="10.19413156455412"><ele>125.33333333333333</ele><time>2026-04-18T14:09:23Z</time></trkpt><trkpt lat="44.73045802773363" lon="10.194239857321584"><ele>125.0</ele><time>2026-04-18T14:09:24Z</time></trkpt><trkpt lat="44.7302686824553" lon="10.194351737826445"><ele>126.66666666666666</ele><time>2026-04-18T14:09:25Z</time></trkpt><trkpt lat="44.73006888900551" lon="10.194449257253728"><ele>128.33333333333334</ele><time>2026-04-18T14:09:26Z</time></trkpt><trkpt lat="44.72989718258998" lon="10.194514977206032"><ele>130.0</ele><time>2026-04-18T14:09:27Z</time></trkpt><trkpt lat="44.729736948354685" lon="10.194603446565758"><ele>130.0</ele><time>2026-04-18T14:09:28Z</time></trkpt><trkpt lat="44.729544911645654" lon="10.194536472977138"><ele>130.0</ele><time>2026-04-18T14:09:29Z</time></trkpt><trkpt lat="44.72935117365534" lon="10.194478248156837"><ele>130.0</ele><time>2026-04-18T14:09:30Z</time></trkpt><trkpt lat="44.72914904422004" lon="10.194424188761893"><ele>130.33333333333334</ele><time>2026-04-18T14:09:31Z</time></trkpt><trkpt lat="44.72893105530304" lon="10.194380115838195"><ele>130.66666666666666</ele><time>2026-04-18T14:09:32Z</time></trkpt><trkpt lat="44.72872766209013" lon="10.194331594356717"><ele>131.0</ele><time>2026-04-18T14:09:33Z</time></trkpt><trkpt lat="44.72851984331578" lon="10.194278433665518"><ele>131.0</ele><time>2026-04-18T14:09:34Z</time></trkpt><trkpt lat="44.728306251974836" lon="10.194223255549096"><ele>131.0</ele><time>2026-04-18T14:09:35Z</time></trkpt><trkpt lat="44.72810210335675" lon="10.19417136037108"><ele>131.0</ele><time>2026-04-18T14:09:36Z</time></trkpt><trkpt lat="44.727885583538274" lon="10.19412658225486"><ele>131.0</ele><time>2026-04-18T14:09:37Z</time></trkpt><trkpt lat="44.72768207994168" lon="10.194081299847321"><ele>131.0</ele><time>2026-04-18T14:09:38Z</time></trkpt><trkpt lat="44.72747497520579" lon="10.19403823688712"><ele>131.0</ele><time>2026-04-18T14:09:39Z</time></trkpt><trkpt lat="44.72727224618329" lon="10.193999941448933"><ele>133.0</ele><time>2026-04-18T14:09:40Z</time></trkpt><trkpt lat="44.72707047769034" lon="10.193960002307074"><ele>135.0</ele><time>2026-04-18T14:09:41Z</time></trkpt><trkpt lat="44.72686398572328" lon="10.193924025452741"><ele>137.0</ele><time>2026-04-18T14:09:42Z</time></trkpt><trkpt lat="44.72665716170621" lon="10.193885068717682"><ele>137.0</ele><time>2026-04-18T14:09:43Z</time></trkpt><trkpt lat="44.72646775707885" lon="10.19385326862876"><ele>137.0</ele><time>2026-04-18T14:09:44Z</time></trkpt><trkpt lat="44.72628872008092" lon="10.193811251637976"><ele>137.0</ele><time>2026-04-18T14:09:45Z</time></trkpt><trkpt lat="44.7261260393732" lon="10.193779170547966"><ele>137.0</ele><time>2026-04-18T14:09:46Z</time></trkpt><trkpt lat="44.72598342369478" lon="10.193754206534992"><ele>137.0</ele><time>2026-04-18T14:09:47Z</time></trkpt><trkpt lat="44.72584780419491" lon="10.193758539766998"><ele>137.0</ele><time>2026-04-18T14:09:48Z</time></trkpt><trkpt lat="44.72571158121108" lon="10.193839153517299"><ele>137.0</ele><time>2026-04-18T14:09:49Z</time></trkpt><trkpt lat="44.725565814926654" lon="10.193974909815331"><ele>135.66666666666666</ele><time>2026-04-18T14:09:50Z</time></trkpt><trkpt lat="44.72542015493956" lon="10.194072580697426"><ele>134.33333333333334</ele><time>2026-04-18T14:09:51Z</time></trkpt><trkpt lat="44.725261459643114" lon="10.194067048864936"><ele>133.0</ele><time>2026-04-18T14:09:52Z</time></trkpt><trkpt lat="44.725090838889926" lon="10.194035609344711"><ele>133.0</ele><time>2026-04-18T14:09:53Z</time></trkpt><trkpt lat="44.72490661157813" lon="10.194034990254007"><ele>133.0</ele><time>2026-04-18T14:09:54Z</time></trkpt><trkpt lat="44.724723117357584" lon="10.194101047566722"><ele>133.0</ele><time>2026-04-18T14:09:55Z</time></trkpt><trkpt lat="44.7245182346673" lon="10.194223819294136"><ele>132.66666666666669</ele><time>2026-04-18T14:09:56Z</time></trkpt><trkpt lat="44.72430754377383" lon="10.194309257787532"><ele>132.33333333333334</ele><time>2026-04-18T14:09:57Z</time></trkpt><trkpt lat="44.72409002540888" lon="10.194320185358546"><ele>132.0</ele><time>2026-04-18T14:09:58Z</time></trkpt><trkpt lat="44.723883132500475" lon="10.194310282220762"><ele>132.0</ele><time>2026-04-18T14:09:59Z</time></trkpt><trkpt lat="44.723691893534905" lon="10.19427171061662"><ele>132.0</ele><time>2026-04-18T14:10:00Z</time></trkpt><trkpt lat="44.72350357906413" lon="10.194204480941426"><ele>132.0</ele><time>2026-04-18T14:10:01Z</time></trkpt><trkpt lat="44.72331315013642" lon="10.194123606371237"><ele>132.33333333333334</ele><time>2026-04-18T14:10:02Z</time></trkpt><trkpt lat="44.723125756338675" lon="10.194056541624237"><ele>132.66666666666669</ele><time>2026-04-18T14:10:03Z</time></trkpt><trkpt lat="44.722961751850704" lon="10.193957095939757"><ele>133.0</ele><time>2026-04-18T14:10:04Z</time></trkpt><trkpt lat="44.72281443758577" lon="10.193821376076128"><ele>133.66666666666669</ele><time>2026-04-18T14:10:05Z</time></trkpt><trkpt lat="44.72267453245073" lon="10.193652428998462"><ele>134.33333333333334</ele><time>2026-04-18T14:10:06Z</time></trkpt><trkpt lat="44.72254271698055" lon="10.19350007088834"><ele>135.0</ele><time>2026-04-18T14:10:07Z</time></trkpt><trkpt lat="44.72241734310915" lon="10.193373435558309"><ele>135.0</ele><time>2026-04-18T14:10:08Z</time></trkpt><trkpt lat="44.722288199262074" lon="10.193262811487283"><ele>135.0</ele><time>2026-04-18T14:10:09Z</time></trkpt><trkpt lat="44.72212481837349" lon="10.19318366569014"><ele>135.0</ele><time>2026-04-18T14:10:10Z</time></trkpt><trkpt lat="44.72194731927111" lon="10.193093914015938"><ele>136.33333333333334</ele><time>2026-04-18T14:10:11Z</time></trkpt><trkpt lat="44.721760501132565" lon="10.192978946203665"><ele>137.66666666666669</ele><time>2026-04-18T14:10:12Z</time></trkpt><trkpt lat="44.721589496295934" lon="10.192839301287727"><ele>139.0</ele><time>2026-04-18T14:10:13Z</time></trkpt><trkpt lat="44.72143607339993" lon="10.192689574797726"><ele>139.0</ele><time>2026-04-18T14:10:14Z</time></trkpt><trkpt lat="44.721289944614306" lon="10.19256634698008"><ele>139.0</ele><time>2026-04-18T14:10:15Z</time></trkpt><trkpt lat="44.721151149190725" lon="10.192452277024033"><ele>139.0</ele><time>2026-04-18T14:10:16Z</time></trkpt><trkpt lat="44.72101251967462" lon="10.192349791374456"><ele>140.0</ele><time>2026-04-18T14:10:17Z</time></trkpt><trkpt lat="44.72087121085038" lon="10.192232680568193"><ele>141.0</ele><time>2026-04-18T14:10:18Z</time></trkpt><trkpt lat="44.72074044149497" lon="10.192118155567757"><ele>142.0</ele><time>2026-04-18T14:10:19Z</time></trkpt><trkpt lat="44.72060920688852" lon="10.192021804961568"><ele>142.0</ele><time>2026-04-18T14:10:19.999Z</time></trkpt><trkpt lat="44.72046464753476" lon="10.191950241396993"><ele>142.0</ele><time>2026-04-18T14:10:20.999Z</time></trkpt><trkpt lat="44.72033405910984" lon="10.191890720993182"><ele>142.0</ele><time>2026-04-18T14:10:21.999Z</time></trkpt><trkpt lat="44.720215348857" lon="10.191807682529921"><ele>142.0</ele><time>2026-04-18T14:10:22.999Z</time></trkpt><trkpt lat="44.720101241786594" lon="10.191665602745989"><ele>141.33333333333334</ele><time>2026-04-18T14:10:23.999Z</time></trkpt><trkpt lat="44.72000036508546" lon="10.191476660226773"><ele>140.66666666666666</ele><time>2026-04-18T14:10:24.999Z</time></trkpt><trkpt lat="44.71988433887324" lon="10.19128656932363"><ele>140.0</ele><time>2026-04-18T14:10:25.999Z</time></trkpt><trkpt lat="44.71976276500338" lon="10.19108505754741"><ele>140.0</ele><time>2026-04-18T14:10:26.999Z</time></trkpt><trkpt lat="44.71964048096219" lon="10.190894740440372"><ele>140.0</ele><time>2026-04-18T14:10:27.999Z</time></trkpt><trkpt lat="44.71950795472368" lon="10.190692467225105"><ele>140.0</ele><time>2026-04-18T14:10:28.999Z</time></trkpt><trkpt lat="44.71937706767835" lon="10.190484251972405"><ele>140.0</ele><time>2026-04-18T14:10:29.999Z</time></trkpt><trkpt lat="44.71927334228248" lon="10.190289521459365"><ele>140.0</ele><time>2026-04-18T14:10:30.999Z</time></trkpt><trkpt lat="44.719177569806696" lon="10.190146243701975"><ele>140.0</ele><time>2026-04-18T14:10:31.999Z</time></trkpt><trkpt lat="44.719055674343394" lon="10.189823248429319"><ele>140.0</ele><time>2026-04-18T14:10:32.999Z</time></trkpt><trkpt lat="44.71892872765178" lon="10.189615124967073"><ele>140.0</ele><time>2026-04-18T14:10:33.999Z</time></trkpt><trkpt lat="44.71876456119419" lon="10.189439015429707"><ele>140.0</ele><time>2026-04-18T14:10:34.999Z</time></trkpt><trkpt lat="44.71859395453606" lon="10.189264866294867"><ele>140.0</ele><time>2026-04-18T14:10:35.999Z</time></trkpt><trkpt lat="44.718418834470825" lon="10.189091780851111"><ele>140.0</ele><time>2026-04-18T14:10:36.999Z</time></trkpt><trkpt lat="44.718248636276655" lon="10.188921724915899"><ele>140.0</ele><time>2026-04-18T14:10:37.999Z</time></trkpt><trkpt lat="44.718077260963476" lon="10.188743870698113"><ele>140.0</ele><time>2026-04-18T14:10:38.999Z</time></trkpt><trkpt lat="44.71790647824177" lon="10.188565489629479"><ele>140.0</ele><time>2026-04-18T14:10:39.999Z</time></trkpt><trkpt lat="44.717733005810175" lon="10.188393044805103"><ele>140.0</ele><time>2026-04-18T14:10:40.999Z</time></trkpt><trkpt lat="44.71756149054083" lon="10.188216359178039"><ele>139.66666666666666</ele><time>2026-04-18T14:10:41.999Z</time></trkpt><trkpt lat="44.717391631343354" lon="10.188038344337427"><ele>139.33333333333334</ele><time>2026-04-18T14:10:42.999Z</time></trkpt><trkpt lat="44.71722192493272" lon="10.187861450669505"><ele>139.0</ele><time>2026-04-18T14:10:43.999Z</time></trkpt><trkpt lat="44.71705276708774" lon="10.187693273587575"><ele>139.33333333333334</ele><time>2026-04-18T14:10:44.999Z</time></trkpt><trkpt lat="44.71689055936952" lon="10.187542678255054"><ele>139.66666666666666</ele><time>2026-04-18T14:10:45.999Z</time></trkpt><trkpt lat="44.716736164285415" lon="10.187395706617725"><ele>140.0</ele><time>2026-04-18T14:10:46.999Z</time></trkpt><trkpt lat="44.71660020351175" lon="10.187231868333372"><ele>140.0</ele><time>2026-04-18T14:10:47.999Z</time></trkpt><trkpt lat="44.716493620073976" lon="10.187046502036726"><ele>140.0</ele><time>2026-04-18T14:10:48.999Z</time></trkpt><trkpt lat="44.71643932219575" lon="10.18684229228121"><ele>140.0</ele><time>2026-04-18T14:10:49.999Z</time></trkpt><trkpt lat="44.716426978382565" lon="10.186635192322253"><ele>141.0</ele><time>2026-04-18T14:10:50.999Z</time></trkpt><trkpt lat="44.71641183155467" lon="10.186431092247282"><ele>142.0</ele><time>2026-04-18T14:10:51.999Z</time></trkpt><trkpt lat="44.71639098377619" lon="10.18622469098868"><ele>143.0</ele><time>2026-04-18T14:10:52.999Z</time></trkpt><trkpt lat="44.71634673427306" lon="10.186029060576702"><ele>144.0</ele><time>2026-04-18T14:10:53.999Z</time></trkpt><trkpt lat="44.7162641908402" lon="10.185843898652067"><ele>144.0</ele><time>2026-04-18T14:10:55Z</time></trkpt><trkpt lat="44.716153012428514" lon="10.185726463083205"><ele>144.0</ele><time>2026-04-18T14:10:56Z</time></trkpt><trkpt lat="44.716034616396016" lon="10.185598024665156"><ele>144.0</ele><time>2026-04-18T14:10:57Z</time></trkpt><trkpt lat="44.71591719768285" lon="10.185461890788414"><ele>144.0</ele><time>2026-04-18T14:10:58Z</time></trkpt><trkpt lat="44.71579594596245" lon="10.185304992667554"><ele>144.0</ele><time>2026-04-18T14:10:59Z</time></trkpt><trkpt lat="44.71567469214914" lon="10.185152733889133"><ele>144.0</ele><time>2026-04-18T14:11:00Z</time></trkpt><trkpt lat="44.71554977814169" lon="10.184993041150758"><ele>144.0</ele><time>2026-04-18T14:11:01Z</time></trkpt><trkpt lat="44.71541834058725" lon="10.184828421169021"><ele>144.33333333333334</ele><time>2026-04-18T14:11:02Z</time></trkpt><trkpt lat="44.71528735799529" lon="10.184658685087134"><ele>144.66666666666669</ele><time>2026-04-18T14:11:03Z</time></trkpt><trkpt lat="44.71515657474892" lon="10.184491079871039"><ele>145.0</ele><time>2026-04-18T14:11:04Z</time></trkpt><trkpt lat="44.71502991384014" lon="10.184328232591522"><ele>145.0</ele><time>2026-04-18T14:11:05Z</time></trkpt><trkpt lat="44.71490450429343" lon="10.18416060252067"><ele>145.0</ele><time>2026-04-18T14:11:06Z</time></trkpt><trkpt lat="44.714779014535495" lon="10.184000199284867"><ele>145.0</ele><time>2026-04-18T14:11:07Z</time></trkpt><trkpt lat="44.71465923800566" lon="10.183849327338917"><ele>145.5</ele><time>2026-04-18T14:11:08Z</time></trkpt><trkpt lat="44.71454333822164" lon="10.183702413257436"><ele>146.0</ele><time>2026-04-18T14:11:09Z</time></trkpt><trkpt lat="44.714426949597076" lon="10.183594624273429"><ele>146.5</ele><time>2026-04-18T14:11:10Z</time></trkpt><trkpt lat="44.71428983257951" lon="10.183540578126422"><ele>147.0</ele><time>2026-04-18T14:11:11Z</time></trkpt><trkpt lat="44.71412437798089" lon="10.183528122060059"><ele>147.0</ele><time>2026-04-18T14:11:12Z</time></trkpt><trkpt lat="44.7139538800983" lon="10.183529369562905"><ele>147.0</ele><time>2026-04-18T14:11:13Z</time></trkpt><trkpt lat="44.713789195236636" lon="10.18353836691258"><ele>147.0</ele><time>2026-04-18T14:11:14Z</time></trkpt><trkpt lat="44.7136283015005" lon="10.183562977550926"><ele>148.0</ele><time>2026-04-18T14:11:15Z</time></trkpt><trkpt lat="44.71346232456158" lon="10.183592697820483"><ele>149.0</ele><time>2026-04-18T14:11:16Z</time></trkpt><trkpt lat="44.713298126524435" lon="10.18359546904236"><ele>150.0</ele><time>2026-04-18T14:11:17Z</time></trkpt><trkpt lat="44.713133477234024" lon="10.183612361160757"><ele>150.0</ele><time>2026-04-18T14:11:18Z</time></trkpt><trkpt lat="44.71297242159742" lon="10.183632510966289"><ele>150.0</ele><time>2026-04-18T14:11:19Z</time></trkpt><trkpt lat="44.71281009685384" lon="10.183651738841416"><ele>150.0</ele><time>2026-04-18T14:11:20Z</time></trkpt><trkpt lat="44.71265030121476" lon="10.183690587606991"><ele>152.66666666666666</ele><time>2026-04-18T14:11:21Z</time></trkpt><trkpt lat="44.71248589471116" lon="10.18370576736498"><ele>155.33333333333331</ele><time>2026-04-18T14:11:22Z</time></trkpt><trkpt lat="44.71233705286247" lon="10.183720105543578"><ele>158.0</ele><time>2026-04-18T14:11:23Z</time></trkpt><trkpt lat="44.71219663148527" lon="10.183730496085307"><ele>158.0</ele><time>2026-04-18T14:11:24Z</time></trkpt><trkpt lat="44.71206250312738" lon="10.183734986692729"><ele>158.0</ele><time>2026-04-18T14:11:25Z</time></trkpt><trkpt lat="44.711915975092424" lon="10.18372732487191"><ele>158.0</ele><time>2026-04-18T14:11:26Z</time></trkpt><trkpt lat="44.71175850516336" lon="10.183709768103007"><ele>158.0</ele><time>2026-04-18T14:11:27Z</time></trkpt><trkpt lat="44.711590858936816" lon="10.183679251107472"><ele>158.33333333333331</ele><time>2026-04-18T14:11:28Z</time></trkpt><trkpt lat="44.711425064581924" lon="10.183619053224112"><ele>158.66666666666666</ele><time>2026-04-18T14:11:29Z</time></trkpt><trkpt lat="44.7112445125396" lon="10.18358928894972"><ele>159.0</ele><time>2026-04-18T14:11:30Z</time></trkpt><trkpt lat="44.711060240608575" lon="10.183537463179167"><ele>158.33333333333334</ele><time>2026-04-18T14:11:31Z</time></trkpt><trkpt lat="44.710874605870266" lon="10.18348818934606"><ele>157.66666666666669</ele><time>2026-04-18T14:11:32Z</time></trkpt><trkpt lat="44.71068000268026" lon="10.183434123936765"><ele>157.0</ele><time>2026-04-18T14:11:33Z</time></trkpt><trkpt lat="44.710501528428274" lon="10.183378624684291"><ele>157.0</ele><time>2026-04-18T14:11:34Z</time></trkpt><trkpt lat="44.710317492152086" lon="10.183328087658005"><ele>157.0</ele><time>2026-04-18T14:11:35Z</time></trkpt><trkpt lat="44.71013901949678" lon="10.183283851391261"><ele>157.0</ele><time>2026-04-18T14:11:36Z</time></trkpt><trkpt lat="44.70992548529289" lon="10.183229188437506"><ele>156.33333333333334</ele><time>2026-04-18T14:11:37Z</time></trkpt><trkpt lat="44.709749911916376" lon="10.183182070463968"><ele>155.66666666666666</ele><time>2026-04-18T14:11:38Z</time></trkpt><trkpt lat="44.70957995465538" lon="10.183136632552733"><ele>155.0</ele><time>2026-04-18T14:11:39Z</time></trkpt><trkpt lat="44.70942530170979" lon="10.183121825339885"><ele>154.66666666666666</ele><time>2026-04-18T14:11:40Z</time></trkpt><trkpt lat="44.70928062201991" lon="10.18316163953906"><ele>154.33333333333334</ele><time>2026-04-18T14:11:41Z</time></trkpt><trkpt lat="44.70912821310162" lon="10.183242813681908"><ele>154.0</ele><time>2026-04-18T14:11:42Z</time></trkpt><trkpt lat="44.708965577694265" lon="10.183307792622045"><ele>154.0</ele><time>2026-04-18T14:11:43Z</time></trkpt><trkpt lat="44.708805372161194" lon="10.18334576457497"><ele>154.0</ele><time>2026-04-18T14:11:44Z</time></trkpt><trkpt lat="44.70863468052527" lon="10.183399425563614"><ele>154.0</ele><time>2026-04-18T14:11:45Z</time></trkpt><trkpt lat="44.70846182201309" lon="10.183373069981146"><ele>154.33333333333334</ele><time>2026-04-18T14:11:46Z</time></trkpt><trkpt lat="44.708292921542835" lon="10.183377889458967"><ele>154.66666666666666</ele><time>2026-04-18T14:11:47Z</time></trkpt><trkpt lat="44.70813764415152" lon="10.18339404211712"><ele>155.0</ele><time>2026-04-18T14:11:48Z</time></trkpt><trkpt lat="44.70798619476725" lon="10.183488773297858"><ele>155.0</ele><time>2026-04-18T14:11:49Z</time></trkpt><trkpt lat="44.707834870091474" lon="10.183636400128355"><ele>155.0</ele><time>2026-04-18T14:11:50Z</time></trkpt><trkpt lat="44.707672587197706" lon="10.183741739247354"><ele>155.0</ele><time>2026-04-18T14:11:51Z</time></trkpt><trkpt lat="44.70750835764192" lon="10.183812571707344"><ele>154.75</ele><time>2026-04-18T14:11:52Z</time></trkpt><trkpt lat="44.70735231511188" lon="10.183840808902685"><ele>154.5</ele><time>2026-04-18T14:11:53Z</time></trkpt><trkpt lat="44.70722312770996" lon="10.183835440328455"><ele>154.25</ele><time>2026-04-18T14:11:54Z</time></trkpt><trkpt lat="44.70711585152165" lon="10.183750606857204"><ele>154.0</ele><time>2026-04-18T14:11:55Z</time></trkpt><trkpt lat="44.707018304058224" lon="10.183611684755466"><ele>154.33333333333334</ele><time>2026-04-18T14:11:56Z</time></trkpt><trkpt lat="44.706901633188515" lon="10.183438029860236"><ele>154.66666666666666</ele><time>2026-04-18T14:11:57Z</time></trkpt><trkpt lat="44.70681131128191" lon="10.183223828922161"><ele>155.0</ele><time>2026-04-18T14:11:58Z</time></trkpt><trkpt lat="44.706736687183614" lon="10.182984597228105"><ele>155.0</ele><time>2026-04-18T14:11:59Z</time></trkpt><trkpt lat="44.706682903174396" lon="10.182731432269382"><ele>155.0</ele><time>2026-04-18T14:12:00Z</time></trkpt><trkpt lat="44.7066318726623" lon="10.182500495208028"><ele>155.0</ele><time>2026-04-18T14:12:01Z</time></trkpt><trkpt lat="44.70658172526977" lon="10.182286842436364"><ele>155.0</ele><time>2026-04-18T14:12:02Z</time></trkpt><trkpt lat="44.70653328397593" lon="10.182061753795997"><ele>155.0</ele><time>2026-04-18T14:12:03Z</time></trkpt><trkpt lat="44.706504745721055" lon="10.181835947083277"><ele>155.0</ele><time>2026-04-18T14:12:04Z</time></trkpt><trkpt lat="44.70650335727522" lon="10.181599894053507"><ele>156.0</ele><time>2026-04-18T14:12:05Z</time></trkpt><trkpt lat="44.7065215704106" lon="10.181353620129473"><ele>157.0</ele><time>2026-04-18T14:12:06Z</time></trkpt><trkpt lat="44.70653360675136" lon="10.181126326321774"><ele>158.0</ele><time>2026-04-18T14:12:07Z</time></trkpt><trkpt lat="44.706515256036525" lon="10.180924268832278"><ele>158.0</ele><time>2026-04-18T14:12:08Z</time></trkpt><trkpt lat="44.70646700118824" lon="10.180761590833905"><ele>158.0</ele><time>2026-04-18T14:12:09Z</time></trkpt><trkpt lat="44.70640547903178" lon="10.18066559760601"><ele>158.0</ele><time>2026-04-18T14:12:10Z</time></trkpt><trkpt lat="44.706352082703184" lon="10.180581941846036"><ele>158.0</ele><time>2026-04-18T14:12:12Z</time></trkpt><trkpt lat="44.706255994445584" lon="10.180686234833303"><ele>158.0</ele><time>2026-04-18T14:12:15Z</time></trkpt><trkpt lat="44.70620020230564" lon="10.18073417168281"><ele>158.0</ele><time>2026-04-18T14:12:19Z</time></trkpt><trkpt lat="44.706117206182505" lon="10.180792964432575"><ele>158.0</ele><time>2026-04-18T14:12:38.999Z</time></trkpt><trkpt lat="44.706010887773054" lon="10.180775000137162"><ele>158.0</ele><time>2026-04-18T14:12:40.999Z</time></trkpt><trkpt lat="44.705946390696774" lon="10.180741087134502"><ele>158.0</ele><time>2026-04-18T14:12:41.999Z</time></trkpt><trkpt lat="44.70588838354282" lon="10.180698089676392"><ele>158.0</ele><time>2026-04-18T14:12:42.999Z</time></trkpt><trkpt lat="44.70582329731789" lon="10.180675409865568"><ele>158.0</ele><time>2026-04-18T14:12:43.999Z</time></trkpt><trkpt lat="44.705765641008476" lon="10.180624798754947"><ele>158.5</ele><time>2026-04-18T14:12:44.999Z</time></trkpt><trkpt lat="44.70567845612159" lon="10.180570549854076"><ele>159.0</ele><time>2026-04-18T14:12:45.999Z</time></trkpt><trkpt lat="44.70560198906187" lon="10.180525163622145"><ele>159.5</ele><time>2026-04-18T14:12:46.999Z</time></trkpt><trkpt lat="44.70552696314136" lon="10.180469492973254"><ele>160.0</ele><time>2026-04-18T14:12:47.999Z</time></trkpt><trkpt lat="44.705452505292826" lon="10.180397131249586"><ele>160.5</ele><time>2026-04-18T14:12:48.999Z</time></trkpt><trkpt lat="44.70537157781445" lon="10.180339706629558"><ele>161.0</ele><time>2026-04-18T14:12:49.999Z</time></trkpt><trkpt lat="44.705300805539494" lon="10.180289465633992"><ele>163.0</ele><time>2026-04-18T14:12:50.999Z</time></trkpt><trkpt lat="44.70521582468665" lon="10.180258023735368"><ele>165.0</ele><time>2026-04-18T14:12:51.999Z</time></trkpt><trkpt lat="44.705139670011825" lon="10.180213692060182"><ele>167.0</ele><time>2026-04-18T14:12:52.999Z</time></trkpt><trkpt lat="44.705071323403686" lon="10.180168047600732"><ele>169.0</ele><time>2026-04-18T14:12:53.999Z</time></trkpt><trkpt lat="44.70494635055979" lon="10.180101539648556"><ele>171.0</ele><time>2026-04-18T14:12:55.999Z</time></trkpt><trkpt lat="44.70487880149753" lon="10.180049183831617"><ele>171.0</ele><time>2026-04-18T14:12:56.999Z</time></trkpt><trkpt lat="44.70480524142491" lon="10.180013726549454"><ele>171.0</ele><time>2026-04-18T14:12:57.999Z</time></trkpt><trkpt lat="44.70472229783649" lon="10.179976980444184"><ele>171.0</ele><time>2026-04-18T14:12:58.999Z</time></trkpt><trkpt lat="44.70463939608131" lon="10.179977149182923"><ele>171.0</ele><time>2026-04-18T14:12:59.999Z</time></trkpt><trkpt lat="44.70457438626297" lon="10.179968015844128"><ele>171.0</ele><time>2026-04-18T14:13:01Z</time></trkpt><trkpt lat="44.70449500148344" lon="10.179947205621934"><ele>171.0</ele><time>2026-04-18T14:13:02Z</time></trkpt><trkpt lat="44.70441670314764" lon="10.179994917997307"><ele>173.5</ele><time>2026-04-18T14:13:03Z</time></trkpt><trkpt lat="44.70434413959347" lon="10.18002536143307"><ele>176.0</ele><time>2026-04-18T14:13:04Z</time></trkpt><trkpt lat="44.70425269333017" lon="10.180048340620335"><ele>178.5</ele><time>2026-04-18T14:13:05Z</time></trkpt><trkpt lat="44.70418327111748" lon="10.180107837684671"><ele>181.0</ele><time>2026-04-18T14:13:06Z</time></trkpt><trkpt lat="44.70408864964792" lon="10.18013698232222"><ele>183.5</ele><time>2026-04-18T14:13:07Z</time></trkpt><trkpt lat="44.70401776856817" lon="10.180201554401009"><ele>186.0</ele><time>2026-04-18T14:13:08Z</time></trkpt><trkpt lat="44.703939123482826" lon="10.180242720648181"><ele>186.0</ele><time>2026-04-18T14:13:09Z</time></trkpt><trkpt lat="44.70385592940615" lon="10.180290985396745"><ele>186.0</ele><time>2026-04-18T14:13:11Z</time></trkpt><trkpt lat="44.703771287297066" lon="10.180325282168464"><ele>186.0</ele><time>2026-04-18T14:13:13Z</time></trkpt><trkpt lat="44.70369528012401" lon="10.180312423045491"><ele>186.0</ele><time>2026-04-18T14:13:15Z</time></trkpt><trkpt lat="44.703631741195636" lon="10.180190810891684"><ele>186.0</ele><time>2026-04-18T14:13:17Z</time></trkpt><trkpt lat="44.70361441669651" lon="10.18003293940184"><ele>186.0</ele><time>2026-04-18T14:13:19Z</time></trkpt><trkpt lat="44.70358926017127" lon="10.179944891855271"><ele>186.0</ele><time>2026-04-18T14:13:20Z</time></trkpt><trkpt lat="44.70355498836133" lon="10.179868808351832"><ele>186.0</ele><time>2026-04-18T14:13:21Z</time></trkpt><trkpt lat="44.7034712003877" lon="10.179738247492548"><ele>186.0</ele><time>2026-04-18T14:13:23Z</time></trkpt><trkpt lat="44.703409929502264" lon="10.179698017334795"><ele>186.0</ele><time>2026-04-18T14:13:24Z</time></trkpt><trkpt lat="44.703351060925684" lon="10.179664047378424"><ele>186.0</ele><time>2026-04-18T14:13:25Z</time></trkpt><trkpt lat="44.70328858945254" lon="10.17964231798159"><ele>186.66666666666666</ele><time>2026-04-18T14:13:26Z</time></trkpt><trkpt lat="44.70321700178286" lon="10.179621651334132"><ele>187.33333333333334</ele><time>2026-04-18T14:13:27Z</time></trkpt><trkpt lat="44.70314693920415" lon="10.179596039739334"><ele>188.0</ele><time>2026-04-18T14:13:28Z</time></trkpt><trkpt lat="44.70302769172583" lon="10.179563213730242"><ele>188.66666666666669</ele><time>2026-04-18T14:13:30Z</time></trkpt><trkpt lat="44.70296398827008" lon="10.179545941486525"><ele>189.33333333333334</ele><time>2026-04-18T14:13:31Z</time></trkpt><trkpt lat="44.7028949017845" lon="10.179542722559335"><ele>190.0</ele><time>2026-04-18T14:13:32Z</time></trkpt><trkpt lat="44.70282249892568" lon="10.179544717937786"><ele>190.0</ele><time>2026-04-18T14:13:33Z</time></trkpt><trkpt lat="44.70275379631125" lon="10.179521692729372"><ele>190.0</ele><time>2026-04-18T14:13:34Z</time></trkpt><trkpt lat="44.70268483279298" lon="10.179500609717477"><ele>190.0</ele><time>2026-04-18T14:13:35Z</time></trkpt><trkpt lat="44.70262155620382" lon="10.179483863786258"><ele>190.0</ele><time>2026-04-18T14:13:36Z</time></trkpt><trkpt lat="44.7025613140156" lon="10.179445214834335"><ele>190.0</ele><time>2026-04-18T14:13:37Z</time></trkpt><trkpt lat="44.702476081739526" lon="10.179443386007247"><ele>190.0</ele><time>2026-04-18T14:13:38Z</time></trkpt><trkpt lat="44.70241362647288" lon="10.179421171020332"><ele>190.0</ele><time>2026-04-18T14:13:39Z</time></trkpt><trkpt lat="44.70234404028998" lon="10.179391005245435"><ele>192.66666666666669</ele><time>2026-04-18T14:13:40Z</time></trkpt><trkpt lat="44.70226255632529" lon="10.179366919115699"><ele>195.33333333333334</ele><time>2026-04-18T14:13:41Z</time></trkpt><trkpt lat="44.70218129345706" lon="10.179344827659465"><ele>198.0</ele><time>2026-04-18T14:13:42Z</time></trkpt><trkpt lat="44.70209580327246" lon="10.179304797840059"><ele>200.66666666666669</ele><time>2026-04-18T14:13:43Z</time></trkpt><trkpt lat="44.70200407249887" lon="10.179286445572558"><ele>203.33333333333334</ele><time>2026-04-18T14:13:44Z</time></trkpt><trkpt lat="44.701916025710354" lon="10.17925552281561"><ele>206.0</ele><time>2026-04-18T14:13:45Z</time></trkpt><trkpt lat="44.70183886375321" lon="10.1792336000705"><ele>208.33333333333334</ele><time>2026-04-18T14:13:46Z</time></trkpt><trkpt lat="44.70176810770332" lon="10.17920279608172"><ele>210.66666666666669</ele><time>2026-04-18T14:13:47Z</time></trkpt><trkpt lat="44.70168093807862" lon="10.179202681892646"><ele>213.0</ele><time>2026-04-18T14:13:48Z</time></trkpt><trkpt lat="44.70160055282162" lon="10.179163679113781"><ele>215.33333333333331</ele><time>2026-04-18T14:13:49Z</time></trkpt><trkpt lat="44.70152174526963" lon="10.179141941161989"><ele>217.66666666666666</ele><time>2026-04-18T14:13:50Z</time></trkpt><trkpt lat="44.701448580416994" lon="10.179120963672624"><ele>220.0</ele><time>2026-04-18T14:13:51Z</time></trkpt><trkpt lat="44.70131589202714" lon="10.179080614267649"><ele>219.99999999999997</ele><time>2026-04-18T14:13:53Z</time></trkpt><trkpt lat="44.701245268814375" lon="10.179056142098686"><ele>220.0</ele><time>2026-04-18T14:13:54Z</time></trkpt><trkpt lat="44.70115271188093" lon="10.17904906683873"><ele>220.0</ele><time>2026-04-18T14:13:55Z</time></trkpt><trkpt lat="44.70107263466883" lon="10.179001749258012"><ele>220.0</ele><time>2026-04-18T14:13:56Z</time></trkpt><trkpt lat="44.70100129587952" lon="10.178997105493583"><ele>219.99999999999997</ele><time>2026-04-18T14:13:57Z</time></trkpt><trkpt lat="44.70094067237059" lon="10.178973157179009"><ele>220.0</ele><time>2026-04-18T14:13:58Z</time></trkpt><trkpt lat="44.70086135832645" lon="10.178952618782324"><ele>219.66666666666666</ele><time>2026-04-18T14:13:59Z</time></trkpt><trkpt lat="44.7007719514912" lon="10.178923796180088"><ele>219.33333333333331</ele><time>2026-04-18T14:14:00Z</time></trkpt><trkpt lat="44.70067814848217" lon="10.178894587368358"><ele>219.0</ele><time>2026-04-18T14:14:01Z</time></trkpt><trkpt lat="44.700603207716505" lon="10.178867991333739"><ele>218.66666666666669</ele><time>2026-04-18T14:14:02Z</time></trkpt><trkpt lat="44.7005155998314" lon="10.17884108928605"><ele>218.33333333333334</ele><time>2026-04-18T14:14:03Z</time></trkpt><trkpt lat="44.700444308877664" lon="10.178815374191519"><ele>218.0</ele><time>2026-04-18T14:14:04Z</time></trkpt><trkpt lat="44.700374821155116" lon="10.178792529134078"><ele>218.00000000000003</ele><time>2026-04-18T14:14:05Z</time></trkpt><trkpt lat="44.70030041734178" lon="10.178768457863203"><ele>218.0</ele><time>2026-04-18T14:14:06Z</time></trkpt><trkpt lat="44.700229390651536" lon="10.178745908404784"><ele>218.0</ele><time>2026-04-18T14:14:07Z</time></trkpt><trkpt lat="44.70011439827791" lon="10.178782009841505"><ele>218.0</ele><time>2026-04-18T14:14:09Z</time></trkpt><trkpt lat="44.70007971502521" lon="10.178860167005563"><ele>218.00000000000003</ele><time>2026-04-18T14:14:10Z</time></trkpt><trkpt lat="44.70007796674695" lon="10.178967645495643"><ele>218.0</ele><time>2026-04-18T14:14:11Z</time></trkpt><trkpt lat="44.70007858010206" lon="10.179060625505198"><ele>222.60000000000002</ele><time>2026-04-18T14:14:12Z</time></trkpt><trkpt lat="44.700067378587256" lon="10.179204685558203"><ele>227.20000000000002</ele><time>2026-04-18T14:14:14Z</time></trkpt><trkpt lat="44.70002219523386" lon="10.179283474703938"><ele>231.8</ele><time>2026-04-18T14:14:16Z</time></trkpt><trkpt lat="44.69992610540778" lon="10.179290060931377"><ele>236.4</ele><time>2026-04-18T14:14:18Z</time></trkpt><trkpt lat="44.69983264623006" lon="10.179402279998882"><ele>241.0</ele><time>2026-04-18T14:14:20Z</time></trkpt><trkpt lat="44.69976846543111" lon="10.179486814279084"><ele>240.99999999999997</ele><time>2026-04-18T14:14:22Z</time></trkpt><trkpt lat="44.699681460359116" lon="10.179445913664985"><ele>241.0</ele><time>2026-04-18T14:14:24Z</time></trkpt><trkpt lat="44.69961273296487" lon="10.179387055153489"><ele>241.0</ele><time>2026-04-18T14:14:26Z</time></trkpt><trkpt lat="44.69953812226926" lon="10.179320660999919"><ele>241.0</ele><time>2026-04-18T14:14:29Z</time></trkpt><trkpt lat="44.69945627071639" lon="10.179290494617474"><ele>240.99999999999997</ele><time>2026-04-18T14:14:31Z</time></trkpt><trkpt lat="44.6993849319716" lon="10.17921140247611"><ele>241.0</ele><time>2026-04-18T14:14:33Z</time></trkpt><trkpt lat="44.69930893700758" lon="10.179181271699159"><ele>240.60000000000002</ele><time>2026-04-18T14:14:35Z</time></trkpt><trkpt lat="44.69920913645884" lon="10.179109759316802"><ele>240.20000000000002</ele><time>2026-04-18T14:14:37Z</time></trkpt><trkpt lat="44.69909120114701" lon="10.179039008495085"><ele>239.79999999999998</ele><time>2026-04-18T14:14:39Z</time></trkpt><trkpt lat="44.698990708143896" lon="10.178944729374257"><ele>239.39999999999998</ele><time>2026-04-18T14:14:40.999Z</time></trkpt><trkpt lat="44.6989205578705" lon="10.178870462251993"><ele>239.0</ele><time>2026-04-18T14:14:42.999Z</time></trkpt><trkpt lat="44.69882939580735" lon="10.17875777516246"><ele>239.0</ele><time>2026-04-18T14:14:44.999Z</time></trkpt><trkpt lat="44.69873363596615" lon="10.178683623726135"><ele>238.99999999999997</ele><time>2026-04-18T14:14:46.999Z</time></trkpt><trkpt lat="44.698675623455664" lon="10.1786477595103"><ele>238.99999999999997</ele><time>2026-04-18T14:14:47.999Z</time></trkpt><trkpt lat="44.6985720438661" lon="10.178608911059372"><ele>239.0</ele><time>2026-04-18T14:14:49.999Z</time></trkpt><trkpt lat="44.698464649735314" lon="10.178528354668146"><ele>239.0</ele><time>2026-04-18T14:14:51.999Z</time></trkpt><trkpt lat="44.69835712944739" lon="10.178464397906252"><ele>239.79999999999998</ele><time>2026-04-18T14:14:53.999Z</time></trkpt><trkpt lat="44.69825389803903" lon="10.17839325004169"><ele>240.59999999999997</ele><time>2026-04-18T14:14:55.999Z</time></trkpt><trkpt lat="44.698153534851855" lon="10.17832085251091"><ele>241.4</ele><time>2026-04-18T14:14:57.999Z</time></trkpt><trkpt lat="44.69809641754605" lon="10.178279573418466"><ele>242.2</ele><time>2026-04-18T14:14:58.999Z</time></trkpt><trkpt lat="44.69800274259478" lon="10.178220255300005"><ele>243.0</ele><time>2026-04-18T14:15:00.999Z</time></trkpt><trkpt lat="44.697884661409425" lon="10.178148677158875"><ele>243.0</ele><time>2026-04-18T14:15:02.999Z</time></trkpt><trkpt lat="44.697826407224056" lon="10.178113555180097"><ele>243.0</ele><time>2026-04-18T14:15:03.999Z</time></trkpt><trkpt lat="44.69774338142435" lon="10.17806349822898"><ele>243.0</ele><time>2026-04-18T14:15:05.999Z</time></trkpt><trkpt lat="44.69763809744688" lon="10.178003611566053"><ele>243.0</ele><time>2026-04-18T14:15:08Z</time></trkpt><trkpt lat="44.69754977648859" lon="10.177953567756433"><ele>243.0</ele><time>2026-04-18T14:15:10Z</time></trkpt><trkpt lat="44.69748455349188" lon="10.17792809830293"><ele>243.0</ele><time>2026-04-18T14:15:12Z</time></trkpt><trkpt lat="44.697403236074024" lon="10.17788501084565"><ele>244.5</ele><time>2026-04-18T14:15:14Z</time></trkpt><trkpt lat="44.697323013449086" lon="10.17782820418684"><ele>246.0</ele><time>2026-04-18T14:15:16Z</time></trkpt><trkpt lat="44.69721402137685" lon="10.17773742701697"><ele>247.5</ele><time>2026-04-18T14:15:18Z</time></trkpt><trkpt lat="44.69715266839652" lon="10.177679244595932"><ele>249.0</ele><time>2026-04-18T14:15:19Z</time></trkpt><trkpt lat="44.69709872593646" lon="10.177632412703"><ele>250.5</ele><time>2026-04-18T14:15:20Z</time></trkpt><trkpt lat="44.697039852957786" lon="10.177584120612991"><ele>252.0</ele><time>2026-04-18T14:15:21Z</time></trkpt><trkpt lat="44.696932746762215" lon="10.177503504761773"><ele>252.6</ele><time>2026-04-18T14:15:23Z</time></trkpt><trkpt lat="44.69683331598596" lon="10.17743968251654"><ele>253.2</ele><time>2026-04-18T14:15:25Z</time></trkpt><trkpt lat="44.69675012940925" lon="10.177380153374289"><ele>253.8</ele><time>2026-04-18T14:15:27Z</time></trkpt><trkpt lat="44.696680255620144" lon="10.17733143872625"><ele>254.4</ele><time>2026-04-18T14:15:42Z</time></trkpt><trkpt lat="44.69658423103938" lon="10.177271201001219"><ele>255.0</ele><time>2026-04-18T14:15:44Z</time></trkpt><trkpt lat="44.696516990188805" lon="10.177234744419135"><ele>255.0</ele><time>2026-04-18T14:15:45Z</time></trkpt><trkpt lat="44.69644691699766" lon="10.177191788671024"><ele>255.0</ele><time>2026-04-18T14:15:46Z</time></trkpt><trkpt lat="44.69637375402234" lon="10.177154436742493"><ele>255.0</ele><time>2026-04-18T14:15:47Z</time></trkpt><trkpt lat="44.696309888556236" lon="10.17711957915177"><ele>255.0</ele><time>2026-04-18T14:15:48Z</time></trkpt><trkpt lat="44.69625264954121" lon="10.177080231967171"><ele>255.0</ele><time>2026-04-18T14:15:49Z</time></trkpt><trkpt lat="44.696172915496675" lon="10.176974682183209"><ele>255.0</ele><time>2026-04-18T14:15:51Z</time></trkpt><trkpt lat="44.6961480954217" lon="10.17682932649051"><ele>255.0</ele><time>2026-04-18T14:15:53Z</time></trkpt><trkpt lat="44.69617313871954" lon="10.176733108597059"><ele>255.0</ele><time>2026-04-18T14:15:54Z</time></trkpt><trkpt lat="44.69616792608106" lon="10.176640493590773"><ele>255.0</ele><time>2026-04-18T14:15:55Z</time></trkpt><trkpt lat="44.696172498250334" lon="10.176529204149867"><ele>255.0</ele><time>2026-04-18T14:15:56Z</time></trkpt><trkpt lat="44.69616643878886" lon="10.176422614189566"><ele>255.0</ele><time>2026-04-18T14:15:57Z</time></trkpt><trkpt lat="44.69612589812843" lon="10.176278558062702"><ele>255.0</ele><time>2026-04-18T14:15:59Z</time></trkpt><trkpt lat="44.696057790394455" lon="10.176183830222307"><ele>257.3333333333333</ele><time>2026-04-18T14:16:01Z</time></trkpt><trkpt lat="44.695991746063115" lon="10.176160064013244"><ele>259.6666666666667</ele><time>2026-04-18T14:16:03Z</time></trkpt><trkpt lat="44.695918170299194" lon="10.176237430447651"><ele>262.0</ele><time>2026-04-18T14:16:05Z</time></trkpt><trkpt lat="44.69584079790377" lon="10.176282341924386"><ele>264.33333333333337</ele><time>2026-04-18T14:16:07Z</time></trkpt><trkpt lat="44.69577354560251" lon="10.176304223663852"><ele>266.6666666666667</ele><time>2026-04-18T14:16:09Z</time></trkpt><trkpt lat="44.69571624040665" lon="10.176353815040367"><ele>269.0</ele><time>2026-04-18T14:16:11Z</time></trkpt><trkpt lat="44.69579654968899" lon="10.176290025671733"><ele>269.0</ele><time>2026-04-18T14:16:28Z</time></trkpt><trkpt lat="44.695885853551296" lon="10.176260434175214"><ele>269.0</ele><time>2026-04-18T14:16:30Z</time></trkpt><trkpt lat="44.69595026705107" lon="10.176217087579966"><ele>269.0</ele><time>2026-04-18T14:16:32Z</time></trkpt><trkpt lat="44.695903040110515" lon="10.176073462880836"><ele>269.0</ele><time>2026-04-18T14:16:39Z</time></trkpt><trkpt lat="44.695901365481994" lon="10.175975010243064"><ele>269.0</ele><time>2026-04-18T14:16:40Z</time></trkpt><trkpt lat="44.695848992053186" lon="10.175923202791761"><ele>269.0</ele><time>2026-04-18T14:16:41Z</time></trkpt><trkpt lat="44.69574901493676" lon="10.175854446953519"><ele>269.0</ele><time>2026-04-18T14:16:43Z</time></trkpt><trkpt lat="44.69565788327845" lon="10.175813512178125"><ele>269.0</ele><time>2026-04-18T14:16:45Z</time></trkpt><trkpt lat="44.69556563714534" lon="10.17578079031241"><ele>269.0</ele><time>2026-04-18T14:16:47Z</time></trkpt><trkpt lat="44.69547180885339" lon="10.175769048505977"><ele>269.0</ele><time>2026-04-18T14:16:48.999Z</time></trkpt><trkpt lat="44.69538758223912" lon="10.175789023098035"><ele>269.0</ele><time>2026-04-18T14:16:50.999Z</time></trkpt><trkpt lat="44.69529375874567" lon="10.175790973506853"><ele>267.4</ele><time>2026-04-18T14:16:52.999Z</time></trkpt><trkpt lat="44.69518703494118" lon="10.175798143158461"><ele>265.79999999999995</ele><time>2026-04-18T14:16:54.999Z</time></trkpt><trkpt lat="44.695080264333725" lon="10.175803202932771"><ele>264.20000000000005</ele><time>2026-04-18T14:16:56.999Z</time></trkpt><trkpt lat="44.69496162294359" lon="10.175810102941481"><ele>262.6</ele><time>2026-04-18T14:16:58.999Z</time></trkpt><trkpt lat="44.69485588662038" lon="10.175806967714811"><ele>261.0</ele><time>2026-04-18T14:17:00.999Z</time></trkpt><trkpt lat="44.69475047256182" lon="10.175811128170459"><ele>261.0</ele><time>2026-04-18T14:17:02.999Z</time></trkpt><trkpt lat="44.69468689518716" lon="10.17578924007644"><ele>261.0</ele><time>2026-04-18T14:17:03.999Z</time></trkpt><trkpt lat="44.694579673903775" lon="10.175791966614037"><ele>261.0</ele><time>2026-04-18T14:17:05.999Z</time></trkpt><trkpt lat="44.69446869788941" lon="10.175798338167173"><ele>261.0</ele><time>2026-04-18T14:17:07.999Z</time></trkpt><trkpt lat="44.69440854176763" lon="10.175830378844728"><ele>261.0</ele><time>2026-04-18T14:17:08.999Z</time></trkpt><trkpt lat="44.6943018608369" lon="10.1757883723029"><ele>258.8</ele><time>2026-04-18T14:17:10.999Z</time></trkpt><trkpt lat="44.69423674096694" lon="10.175764814708598"><ele>256.6</ele><time>2026-04-18T14:17:11.999Z</time></trkpt><trkpt lat="44.69412188722382" lon="10.175704212253837"><ele>254.4</ele><time>2026-04-18T14:17:14Z</time></trkpt><trkpt lat="44.69400461794246" lon="10.175629396851233"><ele>252.2</ele><time>2026-04-18T14:17:16Z</time></trkpt><trkpt lat="44.693928268390344" lon="10.175618188879069"><ele>250.0</ele><time>2026-04-18T14:17:17Z</time></trkpt><trkpt lat="44.693862434133756" lon="10.175585963735452"><ele>249.57142857142856</ele><time>2026-04-18T14:17:18Z</time></trkpt><trkpt lat="44.69379823332786" lon="10.175551825245217"><ele>249.14285714285717</ele><time>2026-04-18T14:17:19Z</time></trkpt><trkpt lat="44.69373024052993" lon="10.175519276817148"><ele>248.71428571428572</ele><time>2026-04-18T14:17:20Z</time></trkpt><trkpt lat="44.69365589268761" lon="10.175491363808591"><ele>248.28571428571428</ele><time>2026-04-18T14:17:21Z</time></trkpt><trkpt lat="44.69358632314495" lon="10.17542878252968"><ele>247.85714285714283</ele><time>2026-04-18T14:17:22Z</time></trkpt><trkpt lat="44.69352924670595" lon="10.17536909303614"><ele>247.42857142857144</ele><time>2026-04-18T14:17:23Z</time></trkpt><trkpt lat="44.69347057084223" lon="10.1753287588629"><ele>247.0</ele><time>2026-04-18T14:17:24Z</time></trkpt><trkpt lat="44.69340355704748" lon="10.175299468019205"><ele>248.8</ele><time>2026-04-18T14:17:25Z</time></trkpt><trkpt lat="44.6932809103882" lon="10.175286892958034"><ele>250.6</ele><time>2026-04-18T14:17:27Z</time></trkpt><trkpt lat="44.69316681204265" lon="10.175270591169038"><ele>252.40000000000003</ele><time>2026-04-18T14:17:29Z</time></trkpt><trkpt lat="44.69310512887935" lon="10.175236148990768"><ele>254.20000000000002</ele><time>2026-04-18T14:17:30Z</time></trkpt><trkpt lat="44.693045740322596" lon="10.17518091213425"><ele>256.0</ele><time>2026-04-18T14:17:31Z</time></trkpt><trkpt lat="44.69297678532166" lon="10.175106867063278"><ele>255.99999999999997</ele><time>2026-04-18T14:17:32Z</time></trkpt><trkpt lat="44.69292176943627" lon="10.175030100470236"><ele>256.0</ele><time>2026-04-18T14:17:33Z</time></trkpt><trkpt lat="44.692874104293224" lon="10.17495453493712"><ele>256.0</ele><time>2026-04-18T14:17:34Z</time></trkpt><trkpt lat="44.69282779011983" lon="10.174870540985486"><ele>256.0</ele><time>2026-04-18T14:17:35Z</time></trkpt><trkpt lat="44.692791909406694" lon="10.174792263681686"><ele>255.99999999999997</ele><time>2026-04-18T14:17:36Z</time></trkpt><trkpt lat="44.69270834246586" lon="10.174668732150908"><ele>256.0</ele><time>2026-04-18T14:17:38Z</time></trkpt><trkpt lat="44.69265875614392" lon="10.174608057650431"><ele>257.16666666666663</ele><time>2026-04-18T14:17:39Z</time></trkpt><trkpt lat="44.69259451872082" lon="10.1745516763883"><ele>258.3333333333333</ele><time>2026-04-18T14:17:40Z</time></trkpt><trkpt lat="44.69253719045877" lon="10.17449999877499"><ele>259.5</ele><time>2026-04-18T14:17:41Z</time></trkpt><trkpt lat="44.6924687875067" lon="10.174446434645288"><ele>260.6666666666667</ele><time>2026-04-18T14:17:42Z</time></trkpt><trkpt lat="44.692398170271666" lon="10.174401743122136"><ele>261.83333333333337</ele><time>2026-04-18T14:17:43Z</time></trkpt><trkpt lat="44.69226912135306" lon="10.17434552102585"><ele>263.0</ele><time>2026-04-18T14:17:45Z</time></trkpt><trkpt lat="44.69219722318759" lon="10.174317197059816"><ele>263.0</ele><time>2026-04-18T14:17:46Z</time></trkpt><trkpt lat="44.692117550774974" lon="10.174293225261966"><ele>263.0</ele><time>2026-04-18T14:17:47Z</time></trkpt><trkpt lat="44.69204756347233" lon="10.174269359216908"><ele>263.0</ele><time>2026-04-18T14:17:48Z</time></trkpt><trkpt lat="44.69197024211317" lon="10.174217513638117"><ele>263.0</ele><time>2026-04-18T14:17:49Z</time></trkpt><trkpt lat="44.69189726088244" lon="10.174185623367363"><ele>263.0</ele><time>2026-04-18T14:17:50Z</time></trkpt><trkpt lat="44.69182420841974" lon="10.174170031579159"><ele>263.0</ele><time>2026-04-18T14:17:51Z</time></trkpt><trkpt lat="44.6917598947623" lon="10.174156036172633"><ele>264.1666666666667</ele><time>2026-04-18T14:17:52Z</time></trkpt><trkpt lat="44.69168680720859" lon="10.174149146891525"><ele>265.33333333333337</ele><time>2026-04-18T14:17:53Z</time></trkpt><trkpt lat="44.69161803862913" lon="10.174137361617449"><ele>266.5</ele><time>2026-04-18T14:17:54Z</time></trkpt><trkpt lat="44.69154079288514" lon="10.174196164926753"><ele>267.6666666666667</ele><time>2026-04-18T14:17:55Z</time></trkpt><trkpt lat="44.69146006196927" lon="10.174254991136367"><ele>268.8333333333333</ele><time>2026-04-18T14:17:56Z</time></trkpt><trkpt lat="44.69138094260149" lon="10.174285881537982"><ele>270.0</ele><time>2026-04-18T14:17:57Z</time></trkpt><trkpt lat="44.69129642133787" lon="10.174338398113514"><ele>270.0</ele><time>2026-04-18T14:17:58Z</time></trkpt><trkpt lat="44.69122926348915" lon="10.174400972829883"><ele>270.0</ele><time>2026-04-18T14:17:59Z</time></trkpt><trkpt lat="44.69114383906724" lon="10.174449608082075"><ele>270.0</ele><time>2026-04-18T14:18:00Z</time></trkpt><trkpt lat="44.69106733671979" lon="10.174469012308041"><ele>270.0</ele><time>2026-04-18T14:18:01Z</time></trkpt><trkpt lat="44.69098584591161" lon="10.174489678230263"><ele>270.0</ele><time>2026-04-18T14:18:02Z</time></trkpt><trkpt lat="44.69089544033919" lon="10.174509784740323"><ele>270.0</ele><time>2026-04-18T14:18:03Z</time></trkpt><trkpt lat="44.69080147350497" lon="10.174552001576965"><ele>270.4</ele><time>2026-04-18T14:18:04Z</time></trkpt><trkpt lat="44.690714232323536" lon="10.174588503239422"><ele>270.8</ele><time>2026-04-18T14:18:05Z</time></trkpt><trkpt lat="44.69062265255066" lon="10.174602525029929"><ele>271.2</ele><time>2026-04-18T14:18:06Z</time></trkpt><trkpt lat="44.6905319723151" lon="10.17463612328127"><ele>271.6</ele><time>2026-04-18T14:18:07Z</time></trkpt><trkpt lat="44.69044391320618" lon="10.174666685366626"><ele>272.0</ele><time>2026-04-18T14:18:08Z</time></trkpt><trkpt lat="44.690351092924544" lon="10.174698077299038"><ele>272.0</ele><time>2026-04-18T14:18:09Z</time></trkpt><trkpt lat="44.690266303128794" lon="10.174726753310086"><ele>272.0</ele><time>2026-04-18T14:18:10Z</time></trkpt><trkpt lat="44.690183450542534" lon="10.174778061064831"><ele>272.0</ele><time>2026-04-18T14:18:11Z</time></trkpt><trkpt lat="44.690102843514666" lon="10.174785602517339"><ele>272.0</ele><time>2026-04-18T14:18:12Z</time></trkpt><trkpt lat="44.69000614976421" lon="10.174842396777755"><ele>272.0</ele><time>2026-04-18T14:18:13Z</time></trkpt><trkpt lat="44.68989384011225" lon="10.174869693768178"><ele>274.33333333333337</ele><time>2026-04-18T14:18:14Z</time></trkpt><trkpt lat="44.68981677840255" lon="10.174898704083578"><ele>276.6666666666667</ele><time>2026-04-18T14:18:15Z</time></trkpt><trkpt lat="44.68974210780902" lon="10.174950841557212"><ele>279.0</ele><time>2026-04-18T14:18:16Z</time></trkpt><trkpt lat="44.68965012928891" lon="10.174978928075605"><ele>281.3333333333333</ele><time>2026-04-18T14:18:17Z</time></trkpt><trkpt lat="44.6895713889427" lon="10.175009688640678"><ele>283.66666666666663</ele><time>2026-04-18T14:18:18Z</time></trkpt><trkpt lat="44.689483557145365" lon="10.175047718850012"><ele>286.0</ele><time>2026-04-18T14:18:19Z</time></trkpt><trkpt lat="44.689395270645306" lon="10.17508016290646"><ele>286.8333333333333</ele><time>2026-04-18T14:18:20Z</time></trkpt><trkpt lat="44.689317449542635" lon="10.175114194990085"><ele>287.66666666666663</ele><time>2026-04-18T14:18:21Z</time></trkpt><trkpt lat="44.68922854421732" lon="10.175146639626657"><ele>288.5</ele><time>2026-04-18T14:18:22Z</time></trkpt><trkpt lat="44.689154189590916" lon="10.175176341695606"><ele>289.3333333333333</ele><time>2026-04-18T14:18:23Z</time></trkpt><trkpt lat="44.68907452127393" lon="10.175203091648413"><ele>290.1666666666667</ele><time>2026-04-18T14:18:24Z</time></trkpt><trkpt lat="44.688995354563986" lon="10.17520916485665"><ele>291.0</ele><time>2026-04-18T14:18:25Z</time></trkpt><trkpt lat="44.68892423732559" lon="10.175231844467403"><ele>291.0</ele><time>2026-04-18T14:18:26Z</time></trkpt><trkpt lat="44.688842388949126" lon="10.175250626471831"><ele>291.0</ele><time>2026-04-18T14:18:27Z</time></trkpt><trkpt lat="44.688772929417986" lon="10.175268329716218"><ele>291.0</ele><time>2026-04-18T14:18:28Z</time></trkpt><trkpt lat="44.68865964093265" lon="10.175303440542875"><ele>291.0</ele><time>2026-04-18T14:18:30Z</time></trkpt><trkpt lat="44.68858093763032" lon="10.175358037332387"><ele>291.0</ele><time>2026-04-18T14:18:32Z</time></trkpt><trkpt lat="44.6885025412386" lon="10.17546815790716"><ele>291.8333333333333</ele><time>2026-04-18T14:18:34Z</time></trkpt><trkpt lat="44.68842565056236" lon="10.175502728897438"><ele>292.6666666666667</ele><time>2026-04-18T14:18:36Z</time></trkpt><trkpt lat="44.68834283101187" lon="10.175528331205822"><ele>293.5</ele><time>2026-04-18T14:18:38Z</time></trkpt><trkpt lat="44.68826314398434" lon="10.175521620122685"><ele>294.33333333333337</ele><time>2026-04-18T14:18:40Z</time></trkpt><trkpt lat="44.68819264281017" lon="10.175545155717982"><ele>295.1666666666667</ele><time>2026-04-18T14:18:42Z</time></trkpt><trkpt lat="44.68810375305445" lon="10.175606531741792"><ele>296.0</ele><time>2026-04-18T14:18:44Z</time></trkpt><trkpt lat="44.688092169418866" lon="10.17569667401817"><ele>296.0</ele><time>2026-04-18T14:18:45Z</time></trkpt><trkpt lat="44.688022968435035" lon="10.17581125459526"><ele>296.0</ele><time>2026-04-18T14:18:46.999Z</time></trkpt><trkpt lat="44.687957838950474" lon="10.17594026964402"><ele>296.0</ele><time>2026-04-18T14:18:48.999Z</time></trkpt><trkpt lat="44.68791339564017" lon="10.176020891529845"><ele>296.0</ele><time>2026-04-18T14:18:49.999Z</time></trkpt><trkpt lat="44.68784971693366" lon="10.176172388918726"><ele>296.0</ele><time>2026-04-18T14:18:51.999Z</time></trkpt><trkpt lat="44.68779924164271" lon="10.176239858616436"><ele>296.14285714285717</ele><time>2026-04-18T14:18:52.999Z</time></trkpt><trkpt lat="44.687759256952575" lon="10.176319724061328"><ele>296.2857142857143</ele><time>2026-04-18T14:18:53.999Z</time></trkpt><trkpt lat="44.687724829414414" lon="10.176413550972235"><ele>296.42857142857144</ele><time>2026-04-18T14:18:54.999Z</time></trkpt><trkpt lat="44.687685971012" lon="10.176504080748353"><ele>296.57142857142856</ele><time>2026-04-18T14:18:55.999Z</time></trkpt><trkpt lat="44.68764521579858" lon="10.176579324639805"><ele>296.7142857142857</ele><time>2026-04-18T14:18:56.999Z</time></trkpt><trkpt lat="44.68760351948517" lon="10.17665926910867"><ele>296.8571428571429</ele><time>2026-04-18T14:18:57.999Z</time></trkpt><trkpt lat="44.68756504443933" lon="10.176740684343535"><ele>297.0</ele><time>2026-04-18T14:18:58.999Z</time></trkpt><trkpt lat="44.6874908177169" lon="10.176897263835375"><ele>297.0</ele><time>2026-04-18T14:19:00.999Z</time></trkpt><trkpt lat="44.687463348878595" lon="10.176995132550344"><ele>297.0</ele><time>2026-04-18T14:19:01.999Z</time></trkpt><trkpt lat="44.68744642897373" lon="10.177092272652212"><ele>297.0</ele><time>2026-04-18T14:19:02.999Z</time></trkpt><trkpt lat="44.687426700151434" lon="10.177188133469839"><ele>297.0</ele><time>2026-04-18T14:19:03.999Z</time></trkpt><trkpt lat="44.68740623013123" lon="10.1772743378246"><ele>297.0</ele><time>2026-04-18T14:19:04.999Z</time></trkpt><trkpt lat="44.687387939044" lon="10.177371926402245"><ele>297.0</ele><time>2026-04-18T14:19:05.999Z</time></trkpt><trkpt lat="44.687372910783935" lon="10.177463782237288"><ele>297.0</ele><time>2026-04-18T14:19:06.999Z</time></trkpt><trkpt lat="44.68735396042969" lon="10.177556619876974"><ele>296.4</ele><time>2026-04-18T14:19:07.999Z</time></trkpt><trkpt lat="44.68733345392369" lon="10.17764591606438"><ele>295.79999999999995</ele><time>2026-04-18T14:19:08.999Z</time></trkpt><trkpt lat="44.68730144558238" lon="10.177801910410523"><ele>295.2</ele><time>2026-04-18T14:19:10.999Z</time></trkpt><trkpt lat="44.687288049106" lon="10.17795974012006"><ele>294.59999999999997</ele><time>2026-04-18T14:19:12.999Z</time></trkpt><trkpt lat="44.68728749839755" lon="10.178133649610043"><ele>294.0</ele><time>2026-04-18T14:19:14.999Z</time></trkpt><trkpt lat="44.68726367989457" lon="10.178236376610133"><ele>292.8333333333333</ele><time>2026-04-18T14:19:15.999Z</time></trkpt><trkpt lat="44.68725002280793" lon="10.178335802077115"><ele>291.6666666666667</ele><time>2026-04-18T14:19:16.999Z</time></trkpt><trkpt lat="44.68724177578069" lon="10.17845347313613"><ele>290.5</ele><time>2026-04-18T14:19:17.999Z</time></trkpt><trkpt lat="44.68722172015974" lon="10.178554902018808"><ele>289.33333333333337</ele><time>2026-04-18T14:19:19Z</time></trkpt><trkpt lat="44.68719000659973" lon="10.178637554458383"><ele>288.1666666666667</ele><time>2026-04-18T14:19:20Z</time></trkpt><trkpt lat="44.6871836714111" lon="10.178731320587794"><ele>287.0</ele><time>2026-04-18T14:19:21Z</time></trkpt><trkpt lat="44.68713788949381" lon="10.17890949206275"><ele>286.4</ele><time>2026-04-18T14:19:23Z</time></trkpt><trkpt lat="44.68712581203456" lon="10.179026906428506"><ele>285.79999999999995</ele><time>2026-04-18T14:19:24Z</time></trkpt><trkpt lat="44.68709255908993" lon="10.179141256647025"><ele>285.2</ele><time>2026-04-18T14:19:25Z</time></trkpt><trkpt lat="44.68706981573459" lon="10.179232298139178"><ele>284.59999999999997</ele><time>2026-04-18T14:19:26Z</time></trkpt><trkpt lat="44.68703264910702" lon="10.179381319237384"><ele>284.0</ele><time>2026-04-18T14:19:28Z</time></trkpt><trkpt lat="44.68701103470151" lon="10.179535395948122"><ele>284.0</ele><time>2026-04-18T14:19:30Z</time></trkpt><trkpt lat="44.68699046173898" lon="10.179631326633253"><ele>284.0</ele><time>2026-04-18T14:19:31Z</time></trkpt><trkpt lat="44.68697070108997" lon="10.179738898340233"><ele>284.0</ele><time>2026-04-18T14:19:32Z</time></trkpt><trkpt lat="44.686950559671" lon="10.179848833194121"><ele>284.0</ele><time>2026-04-18T14:19:33Z</time></trkpt><trkpt lat="44.68693027953189" lon="10.17995993992492"><ele>284.0</ele><time>2026-04-18T14:19:34Z</time></trkpt><trkpt lat="44.68691249902016" lon="10.180060144793428"><ele>284.0</ele><time>2026-04-18T14:19:35Z</time></trkpt><trkpt lat="44.686899852049066" lon="10.180176356420137"><ele>287.2</ele><time>2026-04-18T14:19:36Z</time></trkpt><trkpt lat="44.686880451836984" lon="10.18029064174937"><ele>290.4</ele><time>2026-04-18T14:19:37Z</time></trkpt><trkpt lat="44.686849081283775" lon="10.18040991578619"><ele>293.6</ele><time>2026-04-18T14:19:38Z</time></trkpt><trkpt lat="44.68684930003559" lon="10.180526308896203"><ele>296.8</ele><time>2026-04-18T14:19:39Z</time></trkpt><trkpt lat="44.68683325301701" lon="10.180631626836263"><ele>300.0</ele><time>2026-04-18T14:19:40Z</time></trkpt><trkpt lat="44.68680373903372" lon="10.180790967888155"><ele>300.0</ele><time>2026-04-18T14:19:42Z</time></trkpt><trkpt lat="44.686774741526676" lon="10.180876885666722"><ele>300.0</ele><time>2026-04-18T14:19:43Z</time></trkpt><trkpt lat="44.686776774838926" lon="10.180970311730459"><ele>300.0</ele><time>2026-04-18T14:19:44Z</time></trkpt><trkpt lat="44.68677142593346" lon="10.181152007713486"><ele>300.0</ele><time>2026-04-18T14:19:46Z</time></trkpt><trkpt lat="44.68675168337127" lon="10.181269971477217"><ele>300.0</ele><time>2026-04-18T14:19:47Z</time></trkpt><trkpt lat="44.68676156079071" lon="10.181387083723966"><ele>300.0</ele><time>2026-04-18T14:19:48Z</time></trkpt><trkpt lat="44.68675292354827" lon="10.181485956094319"><ele>300.2857142857143</ele><time>2026-04-18T14:19:49Z</time></trkpt><trkpt lat="44.686747352784025" lon="10.181593034204298"><ele>300.57142857142856</ele><time>2026-04-18T14:19:50Z</time></trkpt><trkpt lat="44.68673172832031" lon="10.181694023911513"><ele>300.8571428571429</ele><time>2026-04-18T14:19:51Z</time></trkpt><trkpt lat="44.686728691794585" lon="10.181790749970725"><ele>301.1428571428571</ele><time>2026-04-18T14:19:52Z</time></trkpt><trkpt lat="44.68672589845395" lon="10.181879729580547"><ele>301.42857142857144</ele><time>2026-04-18T14:19:53Z</time></trkpt><trkpt lat="44.68672233444035" lon="10.18197538488223"><ele>301.7142857142857</ele><time>2026-04-18T14:19:54Z</time></trkpt><trkpt lat="44.68673136024593" lon="10.18206580640502"><ele>302.0</ele><time>2026-04-18T14:19:55Z</time></trkpt><trkpt lat="44.686730720494985" lon="10.182164622062889"><ele>302.00000000000006</ele><time>2026-04-18T14:19:56Z</time></trkpt><trkpt lat="44.6867226140477" lon="10.182272186775037"><ele>302.0</ele><time>2026-04-18T14:19:57Z</time></trkpt><trkpt lat="44.68673923954608" lon="10.18237179000226"><ele>302.0</ele><time>2026-04-18T14:19:58Z</time></trkpt><trkpt lat="44.686737672429395" lon="10.182484093410242"><ele>302.0</ele><time>2026-04-18T14:19:59Z</time></trkpt><trkpt lat="44.68672572288116" lon="10.182584851494093"><ele>302.0</ele><time>2026-04-18T14:20:00Z</time></trkpt><trkpt lat="44.68672523167828" lon="10.182681955493967"><ele>302.00000000000006</ele><time>2026-04-18T14:20:01Z</time></trkpt><trkpt lat="44.68673947876805" lon="10.182778189768742"><ele>302.0</ele><time>2026-04-18T14:20:02Z</time></trkpt><trkpt lat="44.68674003571345" lon="10.182884512846645"><ele>301.8571428571429</ele><time>2026-04-18T14:20:03Z</time></trkpt><trkpt lat="44.686739092015976" lon="10.182977493000662"><ele>301.7142857142857</ele><time>2026-04-18T14:20:04Z</time></trkpt><trkpt lat="44.68674031558521" lon="10.18307932993056"><ele>301.57142857142856</ele><time>2026-04-18T14:20:05Z</time></trkpt><trkpt lat="44.68673844963112" lon="10.18317322117526"><ele>301.42857142857144</ele><time>2026-04-18T14:20:06Z</time></trkpt><trkpt lat="44.686728306871835" lon="10.183262580926888"><ele>301.2857142857143</ele><time>2026-04-18T14:20:07Z</time></trkpt><trkpt lat="44.68674703721511" lon="10.183387125563874"><ele>301.14285714285717</ele><time>2026-04-18T14:20:08Z</time></trkpt><trkpt lat="44.68674994136979" lon="10.18347869143067"><ele>301.0</ele><time>2026-04-18T14:20:09Z</time></trkpt><trkpt lat="44.68675166019345" lon="10.183584252391988"><ele>300.66666666666663</ele><time>2026-04-18T14:20:10Z</time></trkpt><trkpt lat="44.68675171720994" lon="10.183685493847731"><ele>300.3333333333333</ele><time>2026-04-18T14:20:11Z</time></trkpt><trkpt lat="44.686760421549685" lon="10.183776775688582"><ele>300.0</ele><time>2026-04-18T14:20:12Z</time></trkpt><trkpt lat="44.686771955413526" lon="10.183922921331396"><ele>299.6666666666667</ele><time>2026-04-18T14:20:14Z</time></trkpt><trkpt lat="44.68676675887044" lon="10.184059893317752"><ele>299.33333333333337</ele><time>2026-04-18T14:20:16Z</time></trkpt><trkpt lat="44.68676266707392" lon="10.184157091030958"><ele>299.0</ele><time>2026-04-18T14:20:19Z</time></trkpt><trkpt lat="44.686758683167014" lon="10.184251725620259"><ele>297.8</ele><time>2026-04-18T14:20:22Z</time></trkpt><trkpt lat="44.68683854570499" lon="10.184337515505337"><ele>296.59999999999997</ele><time>2026-04-18T14:20:23Z</time></trkpt><trkpt lat="44.68690876757144" lon="10.184428912387139"><ele>295.4</ele><time>2026-04-18T14:20:24Z</time></trkpt><trkpt lat="44.68699508726935" lon="10.184511438197884"><ele>294.2</ele><time>2026-04-18T14:20:25Z</time></trkpt><trkpt lat="44.68707562265098" lon="10.18462617452486"><ele>293.0</ele><time>2026-04-18T14:20:26Z</time></trkpt><trkpt lat="44.687143582250776" lon="10.184719257258203"><ele>292.5</ele><time>2026-04-18T14:20:27Z</time></trkpt><trkpt lat="44.6871881009077" lon="10.184826581800172"><ele>292.0</ele><time>2026-04-18T14:20:28Z</time></trkpt><trkpt lat="44.687236339870694" lon="10.184913465733871"><ele>291.5</ele><time>2026-04-18T14:20:29Z</time></trkpt><trkpt lat="44.68727227536224" lon="10.185006750499769"><ele>291.0</ele><time>2026-04-18T14:20:30Z</time></trkpt><trkpt lat="44.687324038781306" lon="10.185102475518724"><ele>290.5</ele><time>2026-04-18T14:20:31Z</time></trkpt><trkpt lat="44.687366322108225" lon="10.185197454170462"><ele>290.0</ele><time>2026-04-18T14:20:32Z</time></trkpt><trkpt lat="44.68742729127477" lon="10.18526866148585"><ele>290.0</ele><time>2026-04-18T14:20:33Z</time></trkpt><trkpt lat="44.68751830351325" lon="10.185320696596579"><ele>290.0</ele><time>2026-04-18T14:20:34Z</time></trkpt><trkpt lat="44.687615126784" lon="10.185324638120413"><ele>290.0</ele><time>2026-04-18T14:20:35Z</time></trkpt><trkpt lat="44.68772053981535" lon="10.185282973666123"><ele>290.0</ele><time>2026-04-18T14:20:36Z</time></trkpt><trkpt lat="44.68784575909466" lon="10.185253407628938"><ele>290.0</ele><time>2026-04-18T14:20:37Z</time></trkpt><trkpt lat="44.687968873190556" lon="10.185281886561476"><ele>288.0</ele><time>2026-04-18T14:20:38Z</time></trkpt><trkpt lat="44.68808736708617" lon="10.185278246269824"><ele>286.0</ele><time>2026-04-18T14:20:39Z</time></trkpt><trkpt lat="44.6881854078997" lon="10.1853062396841"><ele>284.0</ele><time>2026-04-18T14:20:40Z</time></trkpt><trkpt lat="44.688261757049474" lon="10.185357146186124"><ele>282.0</ele><time>2026-04-18T14:20:41Z</time></trkpt><trkpt lat="44.688357684701344" lon="10.185406746515588"><ele>280.0</ele><time>2026-04-18T14:20:42Z</time></trkpt><trkpt lat="44.68845605531432" lon="10.185440551586108"><ele>280.0</ele><time>2026-04-18T14:20:43Z</time></trkpt><trkpt lat="44.68854557230247" lon="10.185482516048245"><ele>280.0</ele><time>2026-04-18T14:20:43.999Z</time></trkpt><trkpt lat="44.68862571457663" lon="10.185534110298445"><ele>280.0</ele><time>2026-04-18T14:20:44.999Z</time></trkpt><trkpt lat="44.68869863251742" lon="10.185598794093979"><ele>280.0</ele><time>2026-04-18T14:20:45.999Z</time></trkpt><trkpt lat="44.68875701843073" lon="10.185676592404345"><ele>280.0</ele><time>2026-04-18T14:20:46.999Z</time></trkpt><trkpt lat="44.688799253304495" lon="10.185795673029757"><ele>280.0</ele><time>2026-04-18T14:20:47.999Z</time></trkpt><trkpt lat="44.688859993263854" lon="10.185918095272868"><ele>282.0</ele><time>2026-04-18T14:20:48.999Z</time></trkpt><trkpt lat="44.688932276029455" lon="10.186021815537863"><ele>284.0</ele><time>2026-04-18T14:20:49.999Z</time></trkpt><trkpt lat="44.68900476753232" lon="10.186133405093114"><ele>286.0</ele><time>2026-04-18T14:20:50.999Z</time></trkpt><trkpt lat="44.68912345895989" lon="10.1862239794327"><ele>288.0</ele><time>2026-04-18T14:20:51.999Z</time></trkpt><trkpt lat="44.689252028881434" lon="10.186295160410308"><ele>288.0</ele><time>2026-04-18T14:20:52.999Z</time></trkpt><trkpt lat="44.68937435259934" lon="10.186363975553943"><ele>288.0</ele><time>2026-04-18T14:20:53.999Z</time></trkpt><trkpt lat="44.689508914874814" lon="10.186422109535078"><ele>288.0</ele><time>2026-04-18T14:20:54.999Z</time></trkpt><trkpt lat="44.689659273965624" lon="10.186430146122794"><ele>288.0</ele><time>2026-04-18T14:20:55.999Z</time></trkpt><trkpt lat="44.689792867868825" lon="10.186431029421053"><ele>287.75</ele><time>2026-04-18T14:20:56.999Z</time></trkpt><trkpt lat="44.689925469184104" lon="10.186405076220774"><ele>287.5</ele><time>2026-04-18T14:20:57.999Z</time></trkpt><trkpt lat="44.69005744001527" lon="10.186397142742038"><ele>287.25</ele><time>2026-04-18T14:20:58.999Z</time></trkpt><trkpt lat="44.69019697354624" lon="10.186379394584314"><ele>287.0</ele><time>2026-04-18T14:20:59.999Z</time></trkpt><trkpt lat="44.690334865292854" lon="10.186358804954144"><ele>287.0</ele><time>2026-04-18T14:21:00.999Z</time></trkpt><trkpt lat="44.69043511462039" lon="10.186384639967162"><ele>287.0</ele><time>2026-04-18T14:21:01.999Z</time></trkpt><trkpt lat="44.69050894770622" lon="10.186412769274666"><ele>287.0</ele><time>2026-04-18T14:21:02.999Z</time></trkpt><trkpt lat="44.69057702705244" lon="10.186453340292365"><ele>287.0</ele><time>2026-04-18T14:21:03.999Z</time></trkpt><trkpt lat="44.690600597044224" lon="10.186599414175552"><ele>287.0</ele><time>2026-04-18T14:21:04.999Z</time></trkpt><trkpt lat="44.69062531021919" lon="10.186759941978725"><ele>288.5</ele><time>2026-04-18T14:21:05.999Z</time></trkpt><trkpt lat="44.690662216688146" lon="10.186954702364162"><ele>290.0</ele><time>2026-04-18T14:21:06.999Z</time></trkpt><trkpt lat="44.69072034472548" lon="10.187143248414639"><ele>291.5</ele><time>2026-04-18T14:21:07.999Z</time></trkpt><trkpt lat="44.69077594810878" lon="10.187306237032816"><ele>293.0</ele><time>2026-04-18T14:21:08.999Z</time></trkpt><trkpt lat="44.690809163809966" lon="10.18746528683557"><ele>293.0</ele><time>2026-04-18T14:21:09.999Z</time></trkpt><trkpt lat="44.69083711119297" lon="10.187614916691619"><ele>293.0</ele><time>2026-04-18T14:21:10.999Z</time></trkpt><trkpt lat="44.69084135295841" lon="10.187777801546758"><ele>293.0</ele><time>2026-04-18T14:21:11.999Z</time></trkpt><trkpt lat="44.69083567942935" lon="10.18797937929169"><ele>293.0</ele><time>2026-04-18T14:21:12.999Z</time></trkpt><trkpt lat="44.69083928753234" lon="10.188164739802534"><ele>291.5</ele><time>2026-04-18T14:21:13.999Z</time></trkpt><trkpt lat="44.69082735402885" lon="10.188333086971802"><ele>290.0</ele><time>2026-04-18T14:21:14.999Z</time></trkpt><trkpt lat="44.690838918837706" lon="10.188495322868288"><ele>288.5</ele><time>2026-04-18T14:21:15.999Z</time></trkpt><trkpt lat="44.690881317371826" lon="10.188666410691512"><ele>287.0</ele><time>2026-04-18T14:21:16.999Z</time></trkpt><trkpt lat="44.69095155447932" lon="10.188826333508153"><ele>287.0</ele><time>2026-04-18T14:21:17.999Z</time></trkpt><trkpt lat="44.69103590406521" lon="10.188983994312474"><ele>287.0</ele><time>2026-04-18T14:21:18.999Z</time></trkpt><trkpt lat="44.69111859927447" lon="10.189142596180616"><ele>287.0</ele><time>2026-04-18T14:21:19.999Z</time></trkpt><trkpt lat="44.69121744559201" lon="10.18928302768147"><ele>287.0</ele><time>2026-04-18T14:21:20.999Z</time></trkpt><trkpt lat="44.691337899167245" lon="10.189413750908312"><ele>286.0</ele><time>2026-04-18T14:21:21.999Z</time></trkpt><trkpt lat="44.69146982202862" lon="10.189524317022775"><ele>285.0</ele><time>2026-04-18T14:21:22.999Z</time></trkpt><trkpt lat="44.6916055317232" lon="10.189608528049733"><ele>284.0</ele><time>2026-04-18T14:21:23.999Z</time></trkpt><trkpt lat="44.6917487855948" lon="10.189676560082246"><ele>284.0</ele><time>2026-04-18T14:21:25Z</time></trkpt><trkpt lat="44.69185645945705" lon="10.189767601093745"><ele>284.0</ele><time>2026-04-18T14:21:26Z</time></trkpt><trkpt lat="44.69192118243036" lon="10.189855745904847"><ele>284.0</ele><time>2026-04-18T14:21:27Z</time></trkpt><trkpt lat="44.69196252783764" lon="10.189964654603235"><ele>284.0</ele><time>2026-04-18T14:21:28Z</time></trkpt><trkpt lat="44.691985933521494" lon="10.190109165614887"><ele>284.0</ele><time>2026-04-18T14:21:29Z</time></trkpt><trkpt lat="44.69204464421769" lon="10.190259051868257"><ele>285.25</ele><time>2026-04-18T14:21:30Z</time></trkpt><trkpt lat="44.69211001265841" lon="10.19039330373804"><ele>286.5</ele><time>2026-04-18T14:21:31Z</time></trkpt><trkpt lat="44.692209473906324" lon="10.190490281709407"><ele>287.75</ele><time>2026-04-18T14:21:32Z</time></trkpt><trkpt lat="44.69234300265128" lon="10.190544189006102"><ele>289.0</ele><time>2026-04-18T14:21:33Z</time></trkpt><trkpt lat="44.69248095492969" lon="10.190575775031478"><ele>289.0</ele><time>2026-04-18T14:21:34Z</time></trkpt><trkpt lat="44.69262399479961" lon="10.190604035058975"><ele>289.0</ele><time>2026-04-18T14:21:35Z</time></trkpt><trkpt lat="44.69277648809023" lon="10.190636483641127"><ele>289.0</ele><time>2026-04-18T14:21:36Z</time></trkpt><trkpt lat="44.692909353391144" lon="10.190696253864765"><ele>289.0</ele><time>2026-04-18T14:21:37Z</time></trkpt><trkpt lat="44.69301471652601" lon="10.19073870497725"><ele>290.59999999999997</ele><time>2026-04-18T14:21:38Z</time></trkpt><trkpt lat="44.69309504860724" lon="10.190792476000784"><ele>292.2</ele><time>2026-04-18T14:21:39Z</time></trkpt><trkpt lat="44.6931818935591" lon="10.190873450065235"><ele>293.79999999999995</ele><time>2026-04-18T14:21:40Z</time></trkpt><trkpt lat="44.69325550284218" lon="10.19100209452548"><ele>295.4</ele><time>2026-04-18T14:21:41Z</time></trkpt><trkpt lat="44.69334771804398" lon="10.191147942082939"><ele>297.0</ele><time>2026-04-18T14:21:42Z</time></trkpt><trkpt lat="44.69343971322499" lon="10.19129865016921"><ele>297.0</ele><time>2026-04-18T14:21:43Z</time></trkpt><trkpt lat="44.69352867589669" lon="10.191444706023393"><ele>297.0</ele><time>2026-04-18T14:21:44Z</time></trkpt><trkpt lat="44.693614675066726" lon="10.19158437639891"><ele>297.0</ele><time>2026-04-18T14:21:45Z</time></trkpt><trkpt lat="44.69369547796731" lon="10.191722215184837"><ele>297.0</ele><time>2026-04-18T14:21:46Z</time></trkpt><trkpt lat="44.69376280939692" lon="10.191872955365607"><ele>294.75</ele><time>2026-04-18T14:21:47Z</time></trkpt><trkpt lat="44.69380803625291" lon="10.192037693870523"><ele>292.5</ele><time>2026-04-18T14:21:48Z</time></trkpt><trkpt lat="44.69383043087162" lon="10.19221478884912"><ele>290.25</ele><time>2026-04-18T14:21:49Z</time></trkpt><trkpt lat="44.6938344556368" lon="10.192380344165112"><ele>288.0</ele><time>2026-04-18T14:21:50Z</time></trkpt><trkpt lat="44.693846341639535" lon="10.192526487797444"><ele>288.0</ele><time>2026-04-18T14:21:51Z</time></trkpt><trkpt lat="44.693888835691546" lon="10.192670737876051"><ele>288.0</ele><time>2026-04-18T14:21:52Z</time></trkpt><trkpt lat="44.69393800656736" lon="10.192801367151134"><ele>288.0</ele><time>2026-04-18T14:21:53Z</time></trkpt><trkpt lat="44.69399469547025" lon="10.192942432821003"><ele>288.0</ele><time>2026-04-18T14:21:54Z</time></trkpt><trkpt lat="44.69408593964446" lon="10.193085715518873"><ele>288.25</ele><time>2026-04-18T14:21:55Z</time></trkpt><trkpt lat="44.69416771028181" lon="10.193227757254684"><ele>288.5</ele><time>2026-04-18T14:21:56Z</time></trkpt><trkpt lat="44.694239966809356" lon="10.193364695412361"><ele>288.75</ele><time>2026-04-18T14:21:57Z</time></trkpt><trkpt lat="44.69428595613035" lon="10.193516080248159"><ele>289.0</ele><time>2026-04-18T14:21:58Z</time></trkpt><trkpt lat="44.69431196739917" lon="10.193685030745238"><ele>289.0</ele><time>2026-04-18T14:21:59Z</time></trkpt><trkpt lat="44.69434588902082" lon="10.193877928809199"><ele>289.0</ele><time>2026-04-18T14:22:00Z</time></trkpt><trkpt lat="44.69439750299456" lon="10.19406376672271"><ele>289.0</ele><time>2026-04-18T14:22:01Z</time></trkpt><trkpt lat="44.694441282410615" lon="10.194248974439517"><ele>289.0</ele><time>2026-04-18T14:22:02Z</time></trkpt><trkpt lat="44.694496095799316" lon="10.194439225734811"><ele>285.5</ele><time>2026-04-18T14:22:03Z</time></trkpt><trkpt lat="44.69455520396491" lon="10.194619618481719"><ele>282.0</ele><time>2026-04-18T14:22:04Z</time></trkpt><trkpt lat="44.6946295278346" lon="10.194796396379315"><ele>278.5</ele><time>2026-04-18T14:22:05Z</time></trkpt><trkpt lat="44.69471045603029" lon="10.19496614788757"><ele>275.0</ele><time>2026-04-18T14:22:06Z</time></trkpt><trkpt lat="44.69479488314718" lon="10.195133565668085"><ele>275.0</ele><time>2026-04-18T14:22:07Z</time></trkpt><trkpt lat="44.69486336700325" lon="10.195314080034784"><ele>275.0</ele><time>2026-04-18T14:22:08Z</time></trkpt><trkpt lat="44.69494213819005" lon="10.195474955831243"><ele>275.0</ele><time>2026-04-18T14:22:09Z</time></trkpt><trkpt lat="44.69502256126539" lon="10.195638415704089"><ele>275.0</ele><time>2026-04-18T14:22:10Z</time></trkpt><trkpt lat="44.695101863586665" lon="10.195797129348966"><ele>274.0</ele><time>2026-04-18T14:22:11Z</time></trkpt><trkpt lat="44.69518201175349" lon="10.19596108851243"><ele>273.0</ele><time>2026-04-18T14:22:12Z</time></trkpt><trkpt lat="44.69526144331549" lon="10.196111671334059"><ele>272.0</ele><time>2026-04-18T14:22:13Z</time></trkpt><trkpt lat="44.69535799803939" lon="10.196241992830512"><ele>271.0</ele><time>2026-04-18T14:22:14Z</time></trkpt><trkpt lat="44.69544884191944" lon="10.19637410036433"><ele>273.2</ele><time>2026-04-18T14:22:15Z</time></trkpt><trkpt lat="44.695507015568744" lon="10.19651169350494"><ele>275.40000000000003</ele><time>2026-04-18T14:22:16Z</time></trkpt><trkpt lat="44.69556425352483" lon="10.196616842864824"><ele>277.6</ele><time>2026-04-18T14:22:17Z</time></trkpt><trkpt lat="44.69553638588746" lon="10.196745474332145"><ele>279.8</ele><time>2026-04-18T14:22:18Z</time></trkpt><trkpt lat="44.69554298332415" lon="10.196894127815352"><ele>282.0</ele><time>2026-04-18T14:22:19Z</time></trkpt><trkpt lat="44.695557430710004" lon="10.197062854438498"><ele>282.0</ele><time>2026-04-18T14:22:20Z</time></trkpt><trkpt lat="44.6956037117436" lon="10.197227789256596"><ele>282.0</ele><time>2026-04-18T14:22:21Z</time></trkpt><trkpt lat="44.69566879622874" lon="10.197363745600946"><ele>282.0</ele><time>2026-04-18T14:22:22Z</time></trkpt><trkpt lat="44.69575362382835" lon="10.197464626695"><ele>282.0</ele><time>2026-04-18T14:22:23Z</time></trkpt><trkpt lat="44.695863797625755" lon="10.197532446011131"><ele>282.5</ele><time>2026-04-18T14:22:24Z</time></trkpt><trkpt lat="44.69600092246179" lon="10.197585186830562"><ele>283.0</ele><time>2026-04-18T14:22:25Z</time></trkpt><trkpt lat="44.69614101998761" lon="10.1976763280565"><ele>283.5</ele><time>2026-04-18T14:22:26Z</time></trkpt><trkpt lat="44.69627332701575" lon="10.197714076072335"><ele>284.0</ele><time>2026-04-18T14:22:27Z</time></trkpt><trkpt lat="44.69638091129038" lon="10.197768871032272"><ele>284.0</ele><time>2026-04-18T14:22:28Z</time></trkpt><trkpt lat="44.696492554985525" lon="10.197810790427985"><ele>284.0</ele><time>2026-04-18T14:22:29Z</time></trkpt><trkpt lat="44.69662453752972" lon="10.19785080142926"><ele>284.0</ele><time>2026-04-18T14:22:30Z</time></trkpt><trkpt lat="44.69676653722969" lon="10.19788490906105"><ele>284.0</ele><time>2026-04-18T14:22:31Z</time></trkpt><trkpt lat="44.6969147075414" lon="10.197923121105418"><ele>284.0</ele><time>2026-04-18T14:22:32Z</time></trkpt><trkpt lat="44.697049884871596" lon="10.197959047146831"><ele>284.0</ele><time>2026-04-18T14:22:33Z</time></trkpt><trkpt lat="44.6971615827619" lon="10.197989286952609"><ele>284.0</ele><time>2026-04-18T14:22:34Z</time></trkpt><trkpt lat="44.697239279493274" lon="10.198060320856802"><ele>284.0</ele><time>2026-04-18T14:22:35Z</time></trkpt><trkpt lat="44.69731100303979" lon="10.198103278045775"><ele>284.0</ele><time>2026-04-18T14:22:36Z</time></trkpt><trkpt lat="44.69733554077327" lon="10.198202056489848"><ele>284.0</ele><time>2026-04-18T14:22:37Z</time></trkpt><trkpt lat="44.69732027558402" lon="10.198299544336829"><ele>284.0</ele><time>2026-04-18T14:22:38Z</time></trkpt><trkpt lat="44.69726659430673" lon="10.198374531807508"><ele>284.0</ele><time>2026-04-18T14:22:39Z</time></trkpt><trkpt lat="44.69717402264545" lon="10.198391179735431"><ele>284.0</ele><time>2026-04-18T14:22:40Z</time></trkpt><trkpt lat="44.69708533857393" lon="10.1984456100248"><ele>284.0</ele><time>2026-04-18T14:22:41Z</time></trkpt><trkpt lat="44.69700842824253" lon="10.198523399697297"><ele>284.0</ele><time>2026-04-18T14:22:42Z</time></trkpt><trkpt lat="44.69693238979363" lon="10.198583999869156"><ele>286.0</ele><time>2026-04-18T14:22:43Z</time></trkpt><trkpt lat="44.69686776678123" lon="10.19866979369774"><ele>288.0</ele><time>2026-04-18T14:22:44Z</time></trkpt><trkpt lat="44.69679252570331" lon="10.1987398487067"><ele>290.0</ele><time>2026-04-18T14:22:45Z</time></trkpt><trkpt lat="44.69679569918709" lon="10.198929114763228"><ele>292.0</ele><time>2026-04-18T14:22:45.999Z</time></trkpt><trkpt lat="44.69679228979037" lon="10.199124130749736"><ele>292.0</ele><time>2026-04-18T14:22:46.999Z</time></trkpt><trkpt lat="44.69677992237964" lon="10.199327310577534"><ele>292.0</ele><time>2026-04-18T14:22:47.999Z</time></trkpt><trkpt lat="44.69678141719795" lon="10.199534865709996"><ele>292.0</ele><time>2026-04-18T14:22:48.999Z</time></trkpt><trkpt lat="44.696780537417006" lon="10.199744234245697"><ele>292.0</ele><time>2026-04-18T14:22:49.999Z</time></trkpt><trkpt lat="44.69681108966511" lon="10.19993930203288"><ele>293.0</ele><time>2026-04-18T14:22:50.999Z</time></trkpt><trkpt lat="44.69679669541139" lon="10.200112787121466"><ele>294.0</ele><time>2026-04-18T14:22:51.999Z</time></trkpt><trkpt lat="44.69678691627323" lon="10.200270310481931"><ele>295.0</ele><time>2026-04-18T14:22:52.999Z</time></trkpt><trkpt lat="44.69676744376505" lon="10.200396960414471"><ele>296.0</ele><time>2026-04-18T14:22:53.999Z</time></trkpt><trkpt lat="44.696740920221046" lon="10.200509443808926"><ele>297.0</ele><time>2026-04-18T14:22:54.999Z</time></trkpt><trkpt lat="44.69669572685892" lon="10.200612523466324"><ele>297.5</ele><time>2026-04-18T14:22:55.999Z</time></trkpt><trkpt lat="44.69663795142116" lon="10.20073768840887"><ele>298.0</ele><time>2026-04-18T14:22:56.999Z</time></trkpt><trkpt lat="44.69657411465803" lon="10.200868937332128"><ele>298.5</ele><time>2026-04-18T14:22:57.999Z</time></trkpt><trkpt lat="44.696519402519606" lon="10.201021771535233"><ele>299.0</ele><time>2026-04-18T14:22:58.999Z</time></trkpt><trkpt lat="44.69644368247408" lon="10.201168080819356"><ele>299.0</ele><time>2026-04-18T14:22:59.999Z</time></trkpt><trkpt lat="44.696370061679964" lon="10.201323262393004"><ele>299.0</ele><time>2026-04-18T14:23:00.999Z</time></trkpt><trkpt lat="44.69631470594309" lon="10.201501295962165"><ele>299.0</ele><time>2026-04-18T14:23:01.999Z</time></trkpt><trkpt lat="44.69629603354709" lon="10.201687322239033"><ele>299.0</ele><time>2026-04-18T14:23:02.999Z</time></trkpt><trkpt lat="44.6962979277501" lon="10.201862129658883"><ele>297.25</ele><time>2026-04-18T14:23:03.999Z</time></trkpt><trkpt lat="44.69634344861655" lon="10.202024594133144"><ele>295.5</ele><time>2026-04-18T14:23:04.999Z</time></trkpt><trkpt lat="44.696430371007025" lon="10.20216571632931"><ele>293.75</ele><time>2026-04-18T14:23:05.999Z</time></trkpt><trkpt lat="44.69653622827872" lon="10.202295004652186"><ele>292.0</ele><time>2026-04-18T14:23:06.999Z</time></trkpt><trkpt lat="44.6966181574535" lon="10.202437429376007"><ele>291.75</ele><time>2026-04-18T14:23:07.999Z</time></trkpt><trkpt lat="44.69669354620874" lon="10.20257565496959"><ele>291.5</ele><time>2026-04-18T14:23:08.999Z</time></trkpt><trkpt lat="44.69674633380108" lon="10.202728089386772"><ele>291.25</ele><time>2026-04-18T14:23:09.999Z</time></trkpt><trkpt lat="44.6967929280874" lon="10.202884987983802"><ele>291.0</ele><time>2026-04-18T14:23:10.999Z</time></trkpt><trkpt lat="44.69684013523708" lon="10.203056879361329"><ele>290.25</ele><time>2026-04-18T14:23:11.999Z</time></trkpt><trkpt lat="44.69691619972778" lon="10.20322036270248"><ele>289.5</ele><time>2026-04-18T14:23:12.999Z</time></trkpt><trkpt lat="44.69699747771061" lon="10.20338096286113"><ele>288.75</ele><time>2026-04-18T14:23:13.999Z</time></trkpt><trkpt lat="44.69710483970775" lon="10.203529767525932"><ele>288.0</ele><time>2026-04-18T14:23:14.999Z</time></trkpt><trkpt lat="44.69721984744698" lon="10.203662905480526"><ele>288.0</ele><time>2026-04-18T14:23:15.999Z</time></trkpt><trkpt lat="44.69733435681938" lon="10.20380529558811"><ele>288.0</ele><time>2026-04-18T14:23:16.999Z</time></trkpt><trkpt lat="44.69741865191223" lon="10.203973499385917"><ele>288.0</ele><time>2026-04-18T14:23:17.999Z</time></trkpt><trkpt lat="44.69748270380034" lon="10.204138383456623"><ele>288.0</ele><time>2026-04-18T14:23:18.999Z</time></trkpt><trkpt lat="44.69753455517951" lon="10.204310437056359"><ele>290.4</ele><time>2026-04-18T14:23:19.999Z</time></trkpt><trkpt lat="44.697581172802025" lon="10.204445825178565"><ele>292.8</ele><time>2026-04-18T14:23:20.999Z</time></trkpt><trkpt lat="44.69759975239843" lon="10.20460259379307"><ele>295.2</ele><time>2026-04-18T14:23:22.999Z</time></trkpt><trkpt lat="44.69763537992464" lon="10.20476338873068"><ele>297.6</ele><time>2026-04-18T14:23:24.999Z</time></trkpt><trkpt lat="44.69765681223263" lon="10.20486864971823"><ele>300.0</ele><time>2026-04-18T14:23:25.999Z</time></trkpt><trkpt lat="44.697675773741246" lon="10.204986150175305"><ele>300.0</ele><time>2026-04-18T14:23:26.999Z</time></trkpt><trkpt lat="44.69769796253627" lon="10.205112448810135"><ele>300.0</ele><time>2026-04-18T14:23:27.999Z</time></trkpt><trkpt lat="44.697725652666584" lon="10.205248531253847"><ele>300.0</ele><time>2026-04-18T14:23:28.999Z</time></trkpt><trkpt lat="44.69775220034063" lon="10.20538429736182"><ele>300.0</ele><time>2026-04-18T14:23:29.999Z</time></trkpt><trkpt lat="44.69779194676679" lon="10.205512656396039"><ele>300.0</ele><time>2026-04-18T14:23:31Z</time></trkpt><trkpt lat="44.69783814087041" lon="10.205664903126527"><ele>300.0</ele><time>2026-04-18T14:23:32Z</time></trkpt><trkpt lat="44.69788499365611" lon="10.205823891005258"><ele>300.0</ele><time>2026-04-18T14:23:33Z</time></trkpt><trkpt lat="44.697940646156724" lon="10.205993214964158"><ele>300.0</ele><time>2026-04-18T14:23:34Z</time></trkpt><trkpt lat="44.69800906112789" lon="10.20615907292615"><ele>300.0</ele><time>2026-04-18T14:23:35Z</time></trkpt><trkpt lat="44.6980759329219" lon="10.206325642809839"><ele>300.0</ele><time>2026-04-18T14:23:36Z</time></trkpt><trkpt lat="44.69815106581105" lon="10.206493855984819"><ele>300.0</ele><time>2026-04-18T14:23:37Z</time></trkpt><trkpt lat="44.698219973335824" lon="10.206655152877897"><ele>300.0</ele><time>2026-04-18T14:23:38Z</time></trkpt><trkpt lat="44.69828804993541" lon="10.206817145023985"><ele>300.0</ele><time>2026-04-18T14:23:39Z</time></trkpt><trkpt lat="44.6983566434859" lon="10.206972434084427"><ele>299.25</ele><time>2026-04-18T14:23:40Z</time></trkpt><trkpt lat="44.69842379366347" lon="10.207123342895336"><ele>298.5</ele><time>2026-04-18T14:23:41Z</time></trkpt><trkpt lat="44.69848362414367" lon="10.207287195795306"><ele>297.75</ele><time>2026-04-18T14:23:42Z</time></trkpt><trkpt lat="44.69855844299019" lon="10.207446514812524"><ele>297.0</ele><time>2026-04-18T14:23:43Z</time></trkpt><trkpt lat="44.69862766444238" lon="10.207616924252104"><ele>294.25</ele><time>2026-04-18T14:23:44Z</time></trkpt><trkpt lat="44.69869364982709" lon="10.207786531280174"><ele>291.5</ele><time>2026-04-18T14:23:45Z</time></trkpt><trkpt lat="44.69876574315516" lon="10.207961503830994"><ele>288.75</ele><time>2026-04-18T14:23:46Z</time></trkpt><trkpt lat="44.6988459338955" lon="10.20813800948377"><ele>286.0</ele><time>2026-04-18T14:23:47Z</time></trkpt><trkpt lat="44.69891908666571" lon="10.208297605545921"><ele>285.75</ele><time>2026-04-18T14:23:48Z</time></trkpt><trkpt lat="44.69900966299933" lon="10.208449646815938"><ele>285.5</ele><time>2026-04-18T14:23:49Z</time></trkpt><trkpt lat="44.699094935982686" lon="10.20860929358164"><ele>285.25</ele><time>2026-04-18T14:23:50Z</time></trkpt><trkpt lat="44.69918106050078" lon="10.208779452009685"><ele>285.0</ele><time>2026-04-18T14:23:51Z</time></trkpt><trkpt lat="44.6992676391047" lon="10.208940201994533"><ele>284.8</ele><time>2026-04-18T14:23:52Z</time></trkpt><trkpt lat="44.69934928481084" lon="10.209089590478166"><ele>284.6</ele><time>2026-04-18T14:23:53Z</time></trkpt><trkpt lat="44.699427949748106" lon="10.209240506951307"><ele>284.4</ele><time>2026-04-18T14:23:54Z</time></trkpt><trkpt lat="44.69949010540063" lon="10.209360118905055"><ele>284.2</ele><time>2026-04-18T14:23:55Z</time></trkpt><trkpt lat="44.699536689416455" lon="10.209445120129448"><ele>284.0</ele><time>2026-04-18T14:23:56Z</time></trkpt><trkpt lat="44.69959028612576" lon="10.209580678476598"><ele>283.8</ele><time>2026-04-18T14:23:58Z</time></trkpt><trkpt lat="44.69954876675122" lon="10.209678389681727"><ele>283.59999999999997</ele><time>2026-04-18T14:23:59Z</time></trkpt><trkpt lat="44.69953521608089" lon="10.209786488387872"><ele>283.4</ele><time>2026-04-18T14:24:00Z</time></trkpt><trkpt lat="44.69950745473477" lon="10.209914083754217"><ele>283.2</ele><time>2026-04-18T14:24:01Z</time></trkpt><trkpt lat="44.69947074018941" lon="10.210058022558677"><ele>283.0</ele><time>2026-04-18T14:24:02Z</time></trkpt><trkpt lat="44.6994167529213" lon="10.210200761198383"><ele>282.2</ele><time>2026-04-18T14:24:03Z</time></trkpt><trkpt lat="44.6993591590969" lon="10.210341131470372"><ele>281.4</ele><time>2026-04-18T14:24:04Z</time></trkpt><trkpt lat="44.699306023818" lon="10.210470795320624"><ele>280.59999999999997</ele><time>2026-04-18T14:24:05Z</time></trkpt><trkpt lat="44.6992522266063" lon="10.21059066432717"><ele>279.8</ele><time>2026-04-18T14:24:06Z</time></trkpt><trkpt lat="44.69920032778107" lon="10.210696440979374"><ele>279.0</ele><time>2026-04-18T14:24:07Z</time></trkpt><trkpt lat="44.69913345994559" lon="10.210794451033331"><ele>277.2</ele><time>2026-04-18T14:24:08Z</time></trkpt><trkpt lat="44.69907825990202" lon="10.21090339047032"><ele>275.4</ele><time>2026-04-18T14:24:09Z</time></trkpt><trkpt lat="44.69901750654318" lon="10.211006613243114"><ele>273.6</ele><time>2026-04-18T14:24:10Z</time></trkpt><trkpt lat="44.698957184516615" lon="10.211109292559142"><ele>271.8</ele><time>2026-04-18T14:24:11Z</time></trkpt><trkpt lat="44.698874307749946" lon="10.211184532051316"><ele>270.0</ele><time>2026-04-18T14:24:12Z</time></trkpt><trkpt lat="44.69879252900809" lon="10.211262651947052"><ele>270.0</ele><time>2026-04-18T14:24:13Z</time></trkpt><trkpt lat="44.698729576032974" lon="10.211361662640362"><ele>270.0</ele><time>2026-04-18T14:24:14Z</time></trkpt><trkpt lat="44.69868659149448" lon="10.2114843492227"><ele>270.0</ele><time>2026-04-18T14:24:15Z</time></trkpt><trkpt lat="44.69868415280484" lon="10.21164496776813"><ele>270.0</ele><time>2026-04-18T14:24:16Z</time></trkpt><trkpt lat="44.698668465615896" lon="10.211799426785634"><ele>270.0</ele><time>2026-04-18T14:24:17Z</time></trkpt><trkpt lat="44.69865781591052" lon="10.211958708848313"><ele>268.0</ele><time>2026-04-18T14:24:18Z</time></trkpt><trkpt lat="44.69865652188349" lon="10.212116021443169"><ele>266.0</ele><time>2026-04-18T14:24:19Z</time></trkpt><trkpt lat="44.69864820749814" lon="10.212248143599947"><ele>264.0</ele><time>2026-04-18T14:24:20Z</time></trkpt><trkpt lat="44.698656073138" lon="10.212363937770592"><ele>262.0</ele><time>2026-04-18T14:24:21Z</time></trkpt><trkpt lat="44.698697276491544" lon="10.212473305942565"><ele>260.0</ele><time>2026-04-18T14:24:22Z</time></trkpt><trkpt lat="44.698768376751424" lon="10.212562901591689"><ele>258.4</ele><time>2026-04-18T14:24:23Z</time></trkpt><trkpt lat="44.698879170630825" lon="10.212617269087422"><ele>256.8</ele><time>2026-04-18T14:24:24Z</time></trkpt><trkpt lat="44.69895819460478" lon="10.212711306102795"><ele>255.2</ele><time>2026-04-18T14:24:25Z</time></trkpt><trkpt lat="44.699013721006416" lon="10.212762481146338"><ele>253.6</ele><time>2026-04-18T14:24:26Z</time></trkpt><trkpt lat="44.699019305590014" lon="10.212878142915724"><ele>252.0</ele><time>2026-04-18T14:24:27Z</time></trkpt><trkpt lat="44.69896765285574" lon="10.213025864955139"><ele>249.0</ele><time>2026-04-18T14:24:28Z</time></trkpt><trkpt lat="44.69897643023953" lon="10.213189014701316"><ele>246.0</ele><time>2026-04-18T14:24:29Z</time></trkpt><trkpt lat="44.69898661658581" lon="10.213360637437786"><ele>243.0</ele><time>2026-04-18T14:24:30Z</time></trkpt><trkpt lat="44.69901202117119" lon="10.213531574347444"><ele>240.0</ele><time>2026-04-18T14:24:31Z</time></trkpt><trkpt lat="44.699045355869984" lon="10.213702859039694"><ele>240.0</ele><time>2026-04-18T14:24:32Z</time></trkpt><trkpt lat="44.69908991733689" lon="10.213860110734919"><ele>240.0</ele><time>2026-04-18T14:24:33Z</time></trkpt><trkpt lat="44.69913390536957" lon="10.214014196024975"><ele>240.0</ele><time>2026-04-18T14:24:34Z</time></trkpt><trkpt lat="44.69916672240474" lon="10.214162978535265"><ele>240.0</ele><time>2026-04-18T14:24:35Z</time></trkpt><trkpt lat="44.699216367324716" lon="10.214294696421176"><ele>239.6</ele><time>2026-04-18T14:24:36Z</time></trkpt><trkpt lat="44.69925283878607" lon="10.214417478990825"><ele>239.2</ele><time>2026-04-18T14:24:37Z</time></trkpt><trkpt lat="44.699297011215485" lon="10.214526708223541"><ele>238.8</ele><time>2026-04-18T14:24:38Z</time></trkpt><trkpt lat="44.6993481449444" lon="10.21463981425755"><ele>238.4</ele><time>2026-04-18T14:24:39Z</time></trkpt><trkpt lat="44.699453266372764" lon="10.214704930152333"><ele>238.0</ele><time>2026-04-18T14:24:40Z</time></trkpt><trkpt lat="44.699553635061854" lon="10.214803785829957"><ele>236.75</ele><time>2026-04-18T14:24:41Z</time></trkpt><trkpt lat="44.699658232674054" lon="10.214884979243541"><ele>235.5</ele><time>2026-04-18T14:24:42Z</time></trkpt><trkpt lat="44.69975378624503" lon="10.214961422035648"><ele>234.25</ele><time>2026-04-18T14:24:43Z</time></trkpt><trkpt lat="44.69986244949793" lon="10.215050131432369"><ele>233.0</ele><time>2026-04-18T14:24:44Z</time></trkpt><trkpt lat="44.699962694951175" lon="10.21513012971629"><ele>233.0</ele><time>2026-04-18T14:24:45Z</time></trkpt><trkpt lat="44.70006058838726" lon="10.215204591315151"><ele>233.0</ele><time>2026-04-18T14:24:46Z</time></trkpt><trkpt lat="44.70016123740093" lon="10.215260630048633"><ele>233.0</ele><time>2026-04-18T14:24:46.999Z</time></trkpt><trkpt lat="44.70025167539109" lon="10.215329873060288"><ele>233.0</ele><time>2026-04-18T14:24:47.999Z</time></trkpt><trkpt lat="44.700346762401935" lon="10.215406694455973"><ele>233.0</ele><time>2026-04-18T14:24:48.999Z</time></trkpt><trkpt lat="44.700441037935676" lon="10.215481902786976"><ele>232.5</ele><time>2026-04-18T14:24:49.999Z</time></trkpt><trkpt lat="44.70053571580627" lon="10.215557854794612"><ele>232.0</ele><time>2026-04-18T14:24:50.999Z</time></trkpt><trkpt lat="44.70063206974726" lon="10.215638463326156"><ele>231.5</ele><time>2026-04-18T14:24:51.999Z</time></trkpt><trkpt lat="44.70073068860128" lon="10.21571763527382"><ele>231.0</ele><time>2026-04-18T14:24:52.999Z</time></trkpt><trkpt lat="44.70083295384114" lon="10.21579808558494"><ele>229.75</ele><time>2026-04-18T14:24:53.999Z</time></trkpt><trkpt lat="44.700937253794685" lon="10.215886520105029"><ele>228.5</ele><time>2026-04-18T14:24:54.999Z</time></trkpt><trkpt lat="44.701038590807926" lon="10.215972102372511"><ele>227.25</ele><time>2026-04-18T14:24:55.999Z</time></trkpt><trkpt lat="44.70114011078699" lon="10.216050646745408"><ele>226.0</ele><time>2026-04-18T14:24:56.999Z</time></trkpt><trkpt lat="44.70123139755032" lon="10.216154414849264"><ele>225.4</ele><time>2026-04-18T14:24:57.999Z</time></trkpt><trkpt lat="44.70131939650839" lon="10.216227519004494"><ele>224.8</ele><time>2026-04-18T14:24:58.999Z</time></trkpt><trkpt lat="44.70140698615997" lon="10.216298494716614"><ele>224.20000000000002</ele><time>2026-04-18T14:24:59.999Z</time></trkpt><trkpt lat="44.70148331816621" lon="10.216358909583407"><ele>223.60000000000002</ele><time>2026-04-18T14:25:00.999Z</time></trkpt><trkpt lat="44.70154257587152" lon="10.21640581005232"><ele>223.0</ele><time>2026-04-18T14:25:01.999Z</time></trkpt><trkpt lat="44.7015868089872" lon="10.216546400471744"><ele>223.0</ele><time>2026-04-18T14:25:03.999Z</time></trkpt><trkpt lat="44.70155078345008" lon="10.216664324300316"><ele>223.0</ele><time>2026-04-18T14:25:04.999Z</time></trkpt><trkpt lat="44.701553876517636" lon="10.216824603235132"><ele>223.0</ele><time>2026-04-18T14:25:05.999Z</time></trkpt><trkpt lat="44.701536795085524" lon="10.216987875147417"><ele>223.0</ele><time>2026-04-18T14:25:06.999Z</time></trkpt><trkpt lat="44.70152422467221" lon="10.217157571060572"><ele>223.0</ele><time>2026-04-18T14:25:07.999Z</time></trkpt><trkpt lat="44.70151293943877" lon="10.217320109880923"><ele>222.4</ele><time>2026-04-18T14:25:08.999Z</time></trkpt><trkpt lat="44.70149887959575" lon="10.2174754360775"><ele>221.8</ele><time>2026-04-18T14:25:09.999Z</time></trkpt><trkpt lat="44.70148252832353" lon="10.217631307300628"><ele>221.2</ele><time>2026-04-18T14:25:10.999Z</time></trkpt><trkpt lat="44.70147105839963" lon="10.217783977651827"><ele>220.6</ele><time>2026-04-18T14:25:11.999Z</time></trkpt><trkpt lat="44.701466837312665" lon="10.217938295997289"><ele>220.0</ele><time>2026-04-18T14:25:12.999Z</time></trkpt><trkpt lat="44.70146584360815" lon="10.21808901963127"><ele>218.8</ele><time>2026-04-18T14:25:13.999Z</time></trkpt><trkpt lat="44.70146590208757" lon="10.218241592484386"><ele>217.6</ele><time>2026-04-18T14:25:14.999Z</time></trkpt><trkpt lat="44.70146952518951" lon="10.218396927315782"><ele>216.39999999999998</ele><time>2026-04-18T14:25:15.999Z</time></trkpt><trkpt lat="44.701471632561905" lon="10.218557029871944"><ele>215.2</ele><time>2026-04-18T14:25:16.999Z</time></trkpt><trkpt lat="44.70147789435556" lon="10.218720457407352"><ele>214.0</ele><time>2026-04-18T14:25:17.999Z</time></trkpt><trkpt lat="44.70147190077758" lon="10.218882176844424"><ele>212.0</ele><time>2026-04-18T14:25:18.999Z</time></trkpt><trkpt lat="44.70146975377753" lon="10.219050401097263"><ele>210.0</ele><time>2026-04-18T14:25:19.999Z</time></trkpt><trkpt lat="44.70147424369556" lon="10.219214559287284"><ele>208.0</ele><time>2026-04-18T14:25:20.999Z</time></trkpt><trkpt lat="44.7014572133551" lon="10.219368191552093"><ele>206.0</ele><time>2026-04-18T14:25:21.999Z</time></trkpt><trkpt lat="44.701430696630275" lon="10.2195202220215"><ele>206.0</ele><time>2026-04-18T14:25:22.999Z</time></trkpt><trkpt lat="44.70138420977398" lon="10.219670870615383"><ele>206.0</ele><time>2026-04-18T14:25:23.999Z</time></trkpt><trkpt lat="44.70133971870656" lon="10.21983270186231"><ele>206.0</ele><time>2026-04-18T14:25:24.999Z</time></trkpt><trkpt lat="44.701298874895976" lon="10.219997229609286"><ele>206.0</ele><time>2026-04-18T14:25:25.999Z</time></trkpt><trkpt lat="44.70125185210947" lon="10.220156065153787"><ele>205.25</ele><time>2026-04-18T14:25:26.999Z</time></trkpt><trkpt lat="44.70120725622082" lon="10.2203176088636"><ele>204.5</ele><time>2026-04-18T14:25:27.999Z</time></trkpt><trkpt lat="44.70115841518437" lon="10.220475254114538"><ele>203.75</ele><time>2026-04-18T14:25:28.999Z</time></trkpt><trkpt lat="44.70110877640064" lon="10.220622678079962"><ele>203.0</ele><time>2026-04-18T14:25:29.999Z</time></trkpt><trkpt lat="44.70106578820342" lon="10.220778160710678"><ele>201.75</ele><time>2026-04-18T14:25:30.999Z</time></trkpt><trkpt lat="44.70100672729763" lon="10.220920168899463"><ele>200.5</ele><time>2026-04-18T14:25:31.999Z</time></trkpt><trkpt lat="44.70097359759409" lon="10.221069293652445"><ele>199.25</ele><time>2026-04-18T14:25:32.999Z</time></trkpt><trkpt lat="44.70092370088381" lon="10.221217615536384"><ele>198.0</ele><time>2026-04-18T14:25:33.999Z</time></trkpt><trkpt lat="44.70088742440089" lon="10.221371977133396"><ele>196.83333333333334</ele><time>2026-04-18T14:25:34.999Z</time></trkpt><trkpt lat="44.700858051564296" lon="10.221518172299984"><ele>195.66666666666666</ele><time>2026-04-18T14:25:35.999Z</time></trkpt><trkpt lat="44.700835675640455" lon="10.221643266589096"><ele>194.5</ele><time>2026-04-18T14:25:37Z</time></trkpt><trkpt lat="44.700812593786495" lon="10.221747813280636"><ele>193.33333333333331</ele><time>2026-04-18T14:25:38Z</time></trkpt><trkpt lat="44.70079127506476" lon="10.221846228635348"><ele>192.16666666666666</ele><time>2026-04-18T14:25:39Z</time></trkpt><trkpt lat="44.7007745855335" lon="10.221933736784074"><ele>191.0</ele><time>2026-04-18T14:25:40Z</time></trkpt><trkpt lat="44.70075509946687" lon="10.222065155195011"><ele>191.0</ele><time>2026-04-18T14:25:42Z</time></trkpt><trkpt lat="44.70093483888917" lon="10.222152201651848"><ele>191.0</ele><time>2026-04-18T14:25:47Z</time></trkpt><trkpt lat="44.70104500049273" lon="10.222160370453711"><ele>191.0</ele><time>2026-04-18T14:25:48Z</time></trkpt><trkpt lat="44.701156591457455" lon="10.222196043513955"><ele>191.0</ele><time>2026-04-18T14:25:49Z</time></trkpt><trkpt lat="44.701288052815386" lon="10.222254330350099"><ele>191.66666666666666</ele><time>2026-04-18T14:25:50Z</time></trkpt><trkpt lat="44.70146187249074" lon="10.222292944319316"><ele>192.33333333333331</ele><time>2026-04-18T14:25:51Z</time></trkpt><trkpt lat="44.70161214157878" lon="10.222340807948358"><ele>193.0</ele><time>2026-04-18T14:25:52Z</time></trkpt><trkpt lat="44.70178930567624" lon="10.222396179661533"><ele>192.33333333333331</ele><time>2026-04-18T14:25:53Z</time></trkpt><trkpt lat="44.70197037347677" lon="10.222455823259153"><ele>191.66666666666666</ele><time>2026-04-18T14:25:54Z</time></trkpt><trkpt lat="44.702161727675936" lon="10.222518553325424"><ele>191.0</ele><time>2026-04-18T14:25:55Z</time></trkpt><trkpt lat="44.70234197868878" lon="10.222573833242608"><ele>191.0</ele><time>2026-04-18T14:25:56Z</time></trkpt><trkpt lat="44.70249518883431" lon="10.222677226549369"><ele>191.0</ele><time>2026-04-18T14:25:57Z</time></trkpt><trkpt lat="44.702656437031855" lon="10.222776514210434"><ele>191.0</ele><time>2026-04-18T14:25:58Z</time></trkpt><trkpt lat="44.70282745846624" lon="10.222894714520265"><ele>190.33333333333331</ele><time>2026-04-18T14:25:59Z</time></trkpt><trkpt lat="44.703005292732186" lon="10.222996560154225"><ele>189.66666666666666</ele><time>2026-04-18T14:26:00Z</time></trkpt><trkpt lat="44.70316172981771" lon="10.223109065147552"><ele>189.0</ele><time>2026-04-18T14:26:01Z</time></trkpt><trkpt lat="44.70330254386607" lon="10.22320506463996"><ele>189.0</ele><time>2026-04-18T14:26:02Z</time></trkpt><trkpt lat="44.70343243611855" lon="10.223297050235704"><ele>189.0</ele><time>2026-04-18T14:26:03Z</time></trkpt><trkpt lat="44.70355053330771" lon="10.223382588342034"><ele>189.0</ele><time>2026-04-18T14:26:04Z</time></trkpt><trkpt lat="44.70367156180524" lon="10.223474314271089"><ele>189.0</ele><time>2026-04-18T14:26:05Z</time></trkpt><trkpt lat="44.70380780057722" lon="10.223578550230647"><ele>192.33333333333331</ele><time>2026-04-18T14:26:06Z</time></trkpt><trkpt lat="44.70395196688632" lon="10.22368604209259"><ele>195.66666666666666</ele><time>2026-04-18T14:26:07Z</time></trkpt><trkpt lat="44.704093043294634" lon="10.223784769225219"><ele>199.0</ele><time>2026-04-18T14:26:08Z</time></trkpt><trkpt lat="44.70423547115951" lon="10.223877400772173"><ele>199.0</ele><time>2026-04-18T14:26:09Z</time></trkpt><trkpt lat="44.70439332670505" lon="10.223942012944072"><ele>199.0</ele><time>2026-04-18T14:26:10Z</time></trkpt><trkpt lat="44.70456196358779" lon="10.223971606568794"><ele>199.0</ele><time>2026-04-18T14:26:11Z</time></trkpt><trkpt lat="44.7047370464991" lon="10.223965185952164"><ele>198.0</ele><time>2026-04-18T14:26:12Z</time></trkpt><trkpt lat="44.70492072227946" lon="10.22394540406091"><ele>197.0</ele><time>2026-04-18T14:26:13Z</time></trkpt><trkpt lat="44.70510814895091" lon="10.223935542471528"><ele>196.0</ele><time>2026-04-18T14:26:14Z</time></trkpt><trkpt lat="44.7053012871871" lon="10.223930208919581"><ele>194.66666666666666</ele><time>2026-04-18T14:26:15Z</time></trkpt><trkpt lat="44.70549102974855" lon="10.22394481549103"><ele>193.33333333333331</ele><time>2026-04-18T14:26:16Z</time></trkpt><trkpt lat="44.70568690908533" lon="10.223946253280973"><ele>192.0</ele><time>2026-04-18T14:26:17Z</time></trkpt><trkpt lat="44.70588735239959" lon="10.223973123218114"><ele>191.33333333333334</ele><time>2026-04-18T14:26:18Z</time></trkpt><trkpt lat="44.70606337794041" lon="10.224006952069777"><ele>190.66666666666669</ele><time>2026-04-18T14:26:19Z</time></trkpt><trkpt lat="44.70625335724289" lon="10.224033649403596"><ele>190.0</ele><time>2026-04-18T14:26:20Z</time></trkpt><trkpt lat="44.706452254387585" lon="10.224065381723033"><ele>190.0</ele><time>2026-04-18T14:26:21Z</time></trkpt><trkpt lat="44.70665336634153" lon="10.224091926581345"><ele>190.0</ele><time>2026-04-18T14:26:22Z</time></trkpt><trkpt lat="44.706855915608145" lon="10.224123433165595"><ele>190.0</ele><time>2026-04-18T14:26:23Z</time></trkpt><trkpt lat="44.70705492713496" lon="10.224147974704428"><ele>188.0</ele><time>2026-04-18T14:26:24Z</time></trkpt><trkpt lat="44.70725418758696" lon="10.224181250284802"><ele>186.0</ele><time>2026-04-18T14:26:25Z</time></trkpt><trkpt lat="44.707454819232375" lon="10.224207500854991"><ele>184.0</ele><time>2026-04-18T14:26:26Z</time></trkpt><trkpt lat="44.70765852633779" lon="10.224229033438126"><ele>182.66666666666669</ele><time>2026-04-18T14:26:27Z</time></trkpt><trkpt lat="44.707852072407306" lon="10.224256812174765"><ele>181.33333333333334</ele><time>2026-04-18T14:26:28Z</time></trkpt><trkpt lat="44.70805002851718" lon="10.224286637347287"><ele>180.0</ele><time>2026-04-18T14:26:29Z</time></trkpt><trkpt lat="44.70825195077453" lon="10.224316985610528"><ele>180.0</ele><time>2026-04-18T14:26:30Z</time></trkpt><trkpt lat="44.70845534881595" lon="10.224345658956484"><ele>180.0</ele><time>2026-04-18T14:26:31Z</time></trkpt><trkpt lat="44.70865882199266" lon="10.22436384123323"><ele>180.0</ele><time>2026-04-18T14:26:32Z</time></trkpt><trkpt lat="44.70886003314525" lon="10.22438587161117"><ele>179.66666666666666</ele><time>2026-04-18T14:26:33Z</time></trkpt><trkpt lat="44.7090622381285" lon="10.224408798019185"><ele>179.33333333333331</ele><time>2026-04-18T14:26:34Z</time></trkpt><trkpt lat="44.70925971956187" lon="10.224435450472633"><ele>179.0</ele><time>2026-04-18T14:26:35Z</time></trkpt><trkpt lat="44.70944382995926" lon="10.224469895195934"><ele>178.66666666666666</ele><time>2026-04-18T14:26:36Z</time></trkpt><trkpt lat="44.70962122707296" lon="10.224500001112371"><ele>178.33333333333334</ele><time>2026-04-18T14:26:37Z</time></trkpt><trkpt lat="44.709783755376336" lon="10.22452945056913"><ele>178.0</ele><time>2026-04-18T14:26:38Z</time></trkpt><trkpt lat="44.70991362376038" lon="10.224527232758271"><ele>178.0</ele><time>2026-04-18T14:26:39Z</time></trkpt><trkpt lat="44.71004019014746" lon="10.224547778461835"><ele>178.0</ele><time>2026-04-18T14:26:40Z</time></trkpt><trkpt lat="44.710162436760235" lon="10.224561038627185"><ele>178.0</ele><time>2026-04-18T14:26:41Z</time></trkpt><trkpt lat="44.71028909120603" lon="10.224583424615338"><ele>178.0</ele><time>2026-04-18T14:26:42Z</time></trkpt><trkpt lat="44.710412768439724" lon="10.224604297961411"><ele>178.0</ele><time>2026-04-18T14:26:43Z</time></trkpt><trkpt lat="44.71054483953267" lon="10.224613439895247"><ele>178.0</ele><time>2026-04-18T14:26:44Z</time></trkpt><trkpt lat="44.71067803365574" lon="10.224636213400805"><ele>178.0</ele><time>2026-04-18T14:26:45Z</time></trkpt><trkpt lat="44.710810994679065" lon="10.224655593675708"><ele>178.0</ele><time>2026-04-18T14:26:46Z</time></trkpt><trkpt lat="44.7109466860602" lon="10.224668678171337"><ele>177.75</ele><time>2026-04-18T14:26:47Z</time></trkpt><trkpt lat="44.711081202888735" lon="10.224687997720837"><ele>177.5</ele><time>2026-04-18T14:26:48Z</time></trkpt><trkpt lat="44.7112272095935" lon="10.224714167124754"><ele>177.25</ele><time>2026-04-18T14:26:49Z</time></trkpt><trkpt lat="44.7113729580702" lon="10.224735847978355"><ele>177.0</ele><time>2026-04-18T14:26:50Z</time></trkpt><trkpt lat="44.711523817647425" lon="10.224757003373625"><ele>177.0</ele><time>2026-04-18T14:26:51Z</time></trkpt><trkpt lat="44.711670943819456" lon="10.224771028070503"><ele>177.0</ele><time>2026-04-18T14:26:52Z</time></trkpt><trkpt lat="44.71182107785478" lon="10.224787315382454"><ele>177.0</ele><time>2026-04-18T14:26:53Z</time></trkpt><trkpt lat="44.71197009725088" lon="10.224815101751993"><ele>177.0</ele><time>2026-04-18T14:26:54Z</time></trkpt><trkpt lat="44.712120968014766" lon="10.224838913391748"><ele>176.0</ele><time>2026-04-18T14:26:55Z</time></trkpt><trkpt lat="44.71227584076322" lon="10.224859710916048"><ele>175.0</ele><time>2026-04-18T14:26:55.999Z</time></trkpt><trkpt lat="44.71242464069298" lon="10.224879398098814"><ele>174.0</ele><time>2026-04-18T14:26:56.999Z</time></trkpt><trkpt lat="44.712572401936434" lon="10.224901597647088"><ele>174.0</ele><time>2026-04-18T14:26:57.999Z</time></trkpt><trkpt lat="44.71271766372017" lon="10.224922885801732"><ele>174.0</ele><time>2026-04-18T14:26:58.999Z</time></trkpt><trkpt lat="44.71286047924042" lon="10.224940933777795"><ele>174.0</ele><time>2026-04-18T14:26:59.999Z</time></trkpt><trkpt lat="44.713002602437285" lon="10.224959796441002"><ele>174.0</ele><time>2026-04-18T14:27:00.999Z</time></trkpt><trkpt lat="44.713146092427706" lon="10.224979639665587"><ele>174.0</ele><time>2026-04-18T14:27:01.999Z</time></trkpt><trkpt lat="44.713293798170426" lon="10.224998155436003"><ele>174.0</ele><time>2026-04-18T14:27:02.999Z</time></trkpt><trkpt lat="44.71343816202748" lon="10.225023724289175"><ele>174.0</ele><time>2026-04-18T14:27:03.999Z</time></trkpt><trkpt lat="44.71357481645488" lon="10.225039097062645"><ele>174.0</ele><time>2026-04-18T14:27:04.999Z</time></trkpt><trkpt lat="44.713699302186924" lon="10.225041104737489"><ele>174.0</ele><time>2026-04-18T14:27:05.999Z</time></trkpt><trkpt lat="44.71382017213511" lon="10.225073682310947"><ele>174.0</ele><time>2026-04-18T14:27:06.999Z</time></trkpt><trkpt lat="44.71392804817667" lon="10.225091432700436"><ele>174.0</ele><time>2026-04-18T14:27:07.999Z</time></trkpt><trkpt lat="44.71402250457946" lon="10.22510063883065"><ele>174.0</ele><time>2026-04-18T14:27:08.999Z</time></trkpt><trkpt lat="44.71410521782102" lon="10.225110764550694"><ele>174.0</ele><time>2026-04-18T14:27:09.999Z</time></trkpt><trkpt lat="44.71419786882712" lon="10.225131295592966"><ele>174.0</ele><time>2026-04-18T14:27:11.999Z</time></trkpt><trkpt lat="44.71427915950951" lon="10.225181791816013"><ele>174.0</ele><time>2026-04-18T14:27:15.999Z</time></trkpt><trkpt lat="44.71439913153972" lon="10.225172254427184"><ele>174.0</ele><time>2026-04-18T14:27:17.999Z</time></trkpt><trkpt lat="44.71447068298206" lon="10.225212330852399"><ele>174.0</ele><time>2026-04-18T14:27:18.999Z</time></trkpt><trkpt lat="44.71456253073871" lon="10.225239980120813"><ele>174.0</ele><time>2026-04-18T14:27:19.999Z</time></trkpt><trkpt lat="44.71464122078152" lon="10.225253811666699"><ele>173.33333333333334</ele><time>2026-04-18T14:27:20.999Z</time></trkpt><trkpt lat="44.71473260267958" lon="10.225297425051608"><ele>172.66666666666666</ele><time>2026-04-18T14:27:21.999Z</time></trkpt><trkpt lat="44.71481520217718" lon="10.225317666514488"><ele>172.0</ele><time>2026-04-18T14:27:22.999Z</time></trkpt><trkpt lat="44.71490337557418" lon="10.225328590071566"><ele>171.33333333333331</ele><time>2026-04-18T14:27:23.999Z</time></trkpt><trkpt lat="44.71498370609118" lon="10.225357985093488"><ele>170.66666666666666</ele><time>2026-04-18T14:27:24.999Z</time></trkpt><trkpt lat="44.7150557348669" lon="10.225374818729293"><ele>170.0</ele><time>2026-04-18T14:27:25.999Z</time></trkpt><trkpt lat="44.7151333476692" lon="10.225404650165553"><ele>170.0</ele><time>2026-04-18T14:27:26.999Z</time></trkpt><trkpt lat="44.71520934072224" lon="10.2254266660614"><ele>170.0</ele><time>2026-04-18T14:27:27.999Z</time></trkpt><trkpt lat="44.71528404446109" lon="10.225450116408398"><ele>170.0</ele><time>2026-04-18T14:27:28.999Z</time></trkpt><trkpt lat="44.71536786563017" lon="10.225474836301057"><ele>170.0</ele><time>2026-04-18T14:27:29.999Z</time></trkpt><trkpt lat="44.71545056006825" lon="10.225502296268036"><ele>170.0</ele><time>2026-04-18T14:27:30.999Z</time></trkpt><trkpt lat="44.71553735952201" lon="10.22552443907422"><ele>170.0</ele><time>2026-04-18T14:27:31.999Z</time></trkpt><trkpt lat="44.71563155361126" lon="10.225565907388539"><ele>169.8</ele><time>2026-04-18T14:27:32.999Z</time></trkpt><trkpt lat="44.71572645758956" lon="10.225598507618766"><ele>169.6</ele><time>2026-04-18T14:27:33.999Z</time></trkpt><trkpt lat="44.715825412753915" lon="10.225617078944053"><ele>169.39999999999998</ele><time>2026-04-18T14:27:34.999Z</time></trkpt><trkpt lat="44.715926652455195" lon="10.225644973948626"><ele>169.2</ele><time>2026-04-18T14:27:35.999Z</time></trkpt><trkpt lat="44.71602448021956" lon="10.225668626376928"><ele>169.0</ele><time>2026-04-18T14:27:36.999Z</time></trkpt><trkpt lat="44.71612076823964" lon="10.225698086156799"><ele>168.66666666666669</ele><time>2026-04-18T14:27:37.999Z</time></trkpt><trkpt lat="44.71621192530056" lon="10.2257321731078"><ele>168.33333333333334</ele><time>2026-04-18T14:27:38.999Z</time></trkpt><trkpt lat="44.71629400505149" lon="10.22576325940007"><ele>168.0</ele><time>2026-04-18T14:27:39.999Z</time></trkpt><trkpt lat="44.71637341262825" lon="10.22579731876434"><ele>167.66666666666666</ele><time>2026-04-18T14:27:40.999Z</time></trkpt><trkpt lat="44.71645383094151" lon="10.22585447421948"><ele>167.33333333333331</ele><time>2026-04-18T14:27:41.999Z</time></trkpt><trkpt lat="44.71652653047496" lon="10.225935335580353"><ele>167.0</ele><time>2026-04-18T14:27:43Z</time></trkpt><trkpt lat="44.716592249330056" lon="10.226028869270124"><ele>167.0</ele><time>2026-04-18T14:27:44Z</time></trkpt><trkpt lat="44.71666934664667" lon="10.226122405072484"><ele>167.0</ele><time>2026-04-18T14:27:45Z</time></trkpt><trkpt lat="44.71676289566525" lon="10.226204679731996"><ele>167.0</ele><time>2026-04-18T14:27:46Z</time></trkpt><trkpt lat="44.71686718097841" lon="10.226302378151587"><ele>167.0</ele><time>2026-04-18T14:27:47Z</time></trkpt><trkpt lat="44.71697096060272" lon="10.22642473948324"><ele>167.0</ele><time>2026-04-18T14:27:48Z</time></trkpt><trkpt lat="44.717076917656115" lon="10.226560725746182"><ele>167.0</ele><time>2026-04-18T14:27:49Z</time></trkpt><trkpt lat="44.71718142272282" lon="10.226691316607596"><ele>167.0</ele><time>2026-04-18T14:27:50Z</time></trkpt><trkpt lat="44.71729339008976" lon="10.226822077119351"><ele>167.0</ele><time>2026-04-18T14:27:51Z</time></trkpt><trkpt lat="44.71739739929992" lon="10.226952711082982"><ele>167.0</ele><time>2026-04-18T14:27:52Z</time></trkpt><trkpt lat="44.717500932354476" lon="10.227080844002403"><ele>167.0</ele><time>2026-04-18T14:27:53Z</time></trkpt><trkpt lat="44.71760779415037" lon="10.22721700779143"><ele>167.0</ele><time>2026-04-18T14:27:54Z</time></trkpt><trkpt lat="44.7177122689919" lon="10.227345026623519"><ele>167.0</ele><time>2026-04-18T14:27:55Z</time></trkpt><trkpt lat="44.71782485491026" lon="10.227467030423199"><ele>167.66666666666666</ele><time>2026-04-18T14:27:56Z</time></trkpt><trkpt lat="44.71795078631135" lon="10.227565273952658"><ele>168.33333333333334</ele><time>2026-04-18T14:27:57Z</time></trkpt><trkpt lat="44.718093951702706" lon="10.22764839487729"><ele>169.0</ele><time>2026-04-18T14:27:58Z</time></trkpt><trkpt lat="44.71824894514368" lon="10.227699658878105"><ele>169.0</ele><time>2026-04-18T14:27:59Z</time></trkpt><trkpt lat="44.71839705951869" lon="10.227743315483417"><ele>169.0</ele><time>2026-04-18T14:28:00Z</time></trkpt><trkpt lat="44.718527196802256" lon="10.227774446277772"><ele>169.0</ele><time>2026-04-18T14:28:01Z</time></trkpt><trkpt lat="44.71866281214086" lon="10.22780379817749"><ele>169.0</ele><time>2026-04-18T14:28:02Z</time></trkpt><trkpt lat="44.718799709808884" lon="10.22783163295847"><ele>168.75</ele><time>2026-04-18T14:28:03Z</time></trkpt><trkpt lat="44.71892884031918" lon="10.227859943734165"><ele>168.5</ele><time>2026-04-18T14:28:04Z</time></trkpt><trkpt lat="44.719051026295475" lon="10.227892140282494"><ele>168.25</ele><time>2026-04-18T14:28:05Z</time></trkpt><trkpt lat="44.719186921398716" lon="10.227922630747594"><ele>168.0</ele><time>2026-04-18T14:28:06Z</time></trkpt><trkpt lat="44.7193316944053" lon="10.22794668139767"><ele>166.66666666666666</ele><time>2026-04-18T14:28:07Z</time></trkpt><trkpt lat="44.719481267973954" lon="10.227964648114174"><ele>165.33333333333331</ele><time>2026-04-18T14:28:08Z</time></trkpt><trkpt lat="44.719641322544135" lon="10.227978518652904"><ele>164.0</ele><time>2026-04-18T14:28:09Z</time></trkpt><trkpt lat="44.71980988242179" lon="10.22798236059291"><ele>164.0</ele><time>2026-04-18T14:28:10Z</time></trkpt><trkpt lat="44.719969992438386" lon="10.22799157525178"><ele>164.0</ele><time>2026-04-18T14:28:11Z</time></trkpt><trkpt lat="44.72012086011455" lon="10.22800045880529"><ele>164.0</ele><time>2026-04-18T14:28:12Z</time></trkpt><trkpt lat="44.72027927968644" lon="10.228004936059307"><ele>163.0</ele><time>2026-04-18T14:28:13Z</time></trkpt><trkpt lat="44.72044142420853" lon="10.228011688430536"><ele>162.0</ele><time>2026-04-18T14:28:14Z</time></trkpt><trkpt lat="44.72059638790542" lon="10.228017776962682"><ele>161.0</ele><time>2026-04-18T14:28:15Z</time></trkpt><trkpt lat="44.72075509672575" lon="10.228023990247472"><ele>161.0</ele><time>2026-04-18T14:28:16Z</time></trkpt><trkpt lat="44.72091804266313" lon="10.228027381555554"><ele>161.0</ele><time>2026-04-18T14:28:17Z</time></trkpt><trkpt lat="44.7210677502033" lon="10.228025556220462"><ele>161.0</ele><time>2026-04-18T14:28:18Z</time></trkpt><trkpt lat="44.7212126122673" lon="10.22802648934161"><ele>160.25</ele><time>2026-04-18T14:28:19Z</time></trkpt><trkpt lat="44.721344041342924" lon="10.228028048329104"><ele>159.5</ele><time>2026-04-18T14:28:20Z</time></trkpt><trkpt lat="44.72147131463096" lon="10.228027444409642"><ele>158.75</ele><time>2026-04-18T14:28:21Z</time></trkpt><trkpt lat="44.721592039685405" lon="10.228024786259564"><ele>158.0</ele><time>2026-04-18T14:28:22Z</time></trkpt><trkpt lat="44.72172163282605" lon="10.228025055122668"><ele>158.0</ele><time>2026-04-18T14:28:23Z</time></trkpt><trkpt lat="44.72185255642865" lon="10.228032171751392"><ele>158.0</ele><time>2026-04-18T14:28:24Z</time></trkpt><trkpt lat="44.72197186580806" lon="10.228047893996182"><ele>158.0</ele><time>2026-04-18T14:28:25Z</time></trkpt><trkpt lat="44.72208480334807" lon="10.2280775475586"><ele>158.0</ele><time>2026-04-18T14:28:26Z</time></trkpt><trkpt lat="44.72217436542729" lon="10.228122786277007"><ele>157.6</ele><time>2026-04-18T14:28:27Z</time></trkpt><trkpt lat="44.722225247605465" lon="10.228187747379597"><ele>157.20000000000002</ele><time>2026-04-18T14:28:28Z</time></trkpt><trkpt lat="44.722310149880784" lon="10.228305281737187"><ele>156.8</ele><time>2026-04-18T14:28:30Z</time></trkpt><trkpt lat="44.72238046424947" lon="10.228366343937392"><ele>156.4</ele><time>2026-04-18T14:28:31Z</time></trkpt><trkpt lat="44.722469991876224" lon="10.228372046026724"><ele>156.0</ele><time>2026-04-18T14:28:32Z</time></trkpt><trkpt lat="44.72257045768715" lon="10.228297667820966"><ele>156.0</ele><time>2026-04-18T14:28:33Z</time></trkpt><trkpt lat="44.72268072536016" lon="10.228187932669426"><ele>156.0</ele><time>2026-04-18T14:28:34Z</time></trkpt><trkpt lat="44.722824222636575" lon="10.228104467492905"><ele>156.0</ele><time>2026-04-18T14:28:35Z</time></trkpt><trkpt lat="44.72299309996779" lon="10.228062073817139"><ele>155.33333333333334</ele><time>2026-04-18T14:28:36Z</time></trkpt><trkpt lat="44.72317607346289" lon="10.228020551234417"><ele>154.66666666666669</ele><time>2026-04-18T14:28:37Z</time></trkpt><trkpt lat="44.723373202718264" lon="10.227973512177467"><ele>154.0</ele><time>2026-04-18T14:28:38Z</time></trkpt><trkpt lat="44.723558216420855" lon="10.227926132317108"><ele>154.0</ele><time>2026-04-18T14:28:39Z</time></trkpt><trkpt lat="44.723734550600696" lon="10.227880848080424"><ele>154.0</ele><time>2026-04-18T14:28:40Z</time></trkpt><trkpt lat="44.72391165547142" lon="10.227838792986319"><ele>154.0</ele><time>2026-04-18T14:28:41Z</time></trkpt><trkpt lat="44.72409047536073" lon="10.227789967041739"><ele>154.0</ele><time>2026-04-18T14:28:42Z</time></trkpt><trkpt lat="44.72427940575885" lon="10.227744600305586"><ele>154.0</ele><time>2026-04-18T14:28:43Z</time></trkpt><trkpt lat="44.72446654581077" lon="10.227699169110156"><ele>154.0</ele><time>2026-04-18T14:28:44Z</time></trkpt><trkpt lat="44.72465431461013" lon="10.22765420733214"><ele>153.33333333333334</ele><time>2026-04-18T14:28:45Z</time></trkpt><trkpt lat="44.7248345275326" lon="10.22760931262057"><ele>152.66666666666666</ele><time>2026-04-18T14:28:46Z</time></trkpt><trkpt lat="44.7250192775081" lon="10.227555679106775"><ele>152.0</ele><time>2026-04-18T14:28:47Z</time></trkpt><trkpt lat="44.72519244105155" lon="10.227521802361776"><ele>152.0</ele><time>2026-04-18T14:28:48Z</time></trkpt><trkpt lat="44.72536217116074" lon="10.22748146267009"><ele>152.0</ele><time>2026-04-18T14:28:49Z</time></trkpt><trkpt lat="44.72553094714144" lon="10.227440946001908"><ele>152.0</ele><time>2026-04-18T14:28:50Z</time></trkpt><trkpt lat="44.72570019316938" lon="10.227397505766808"><ele>152.0</ele><time>2026-04-18T14:28:51Z</time></trkpt><trkpt lat="44.72586238918502" lon="10.227359105818856"><ele>152.0</ele><time>2026-04-18T14:28:52Z</time></trkpt><trkpt lat="44.726017350264" lon="10.227320781541717"><ele>152.0</ele><time>2026-04-18T14:28:53Z</time></trkpt><trkpt lat="44.7261679245385" lon="10.227284406434627"><ele>150.66666666666666</ele><time>2026-04-18T14:28:54Z</time></trkpt><trkpt lat="44.72632543039444" lon="10.227243350447269"><ele>149.33333333333334</ele><time>2026-04-18T14:28:55Z</time></trkpt><trkpt lat="44.72649146503647" lon="10.227202479747563"><ele>148.0</ele><time>2026-04-18T14:28:56Z</time></trkpt><trkpt lat="44.72666059748603" lon="10.227164402878701"><ele>148.0</ele><time>2026-04-18T14:28:57Z</time></trkpt><trkpt lat="44.726825677323696" lon="10.227124557456674"><ele>148.0</ele><time>2026-04-18T14:28:58Z</time></trkpt><trkpt lat="44.726989635639775" lon="10.227091516928072"><ele>148.0</ele><time>2026-04-18T14:28:59Z</time></trkpt><trkpt lat="44.727159077606636" lon="10.227049093474289"><ele>148.33333333333334</ele><time>2026-04-18T14:29:00Z</time></trkpt><trkpt lat="44.72731765121708" lon="10.22701090956371"><ele>148.66666666666666</ele><time>2026-04-18T14:29:01Z</time></trkpt><trkpt lat="44.727477919808116" lon="10.226978093145615"><ele>149.0</ele><time>2026-04-18T14:29:01.999Z</time></trkpt><trkpt lat="44.72763767251206" lon="10.226937069187338"><ele>149.33333333333331</ele><time>2026-04-18T14:29:02.999Z</time></trkpt><trkpt lat="44.72780511840476" lon="10.226890047080698"><ele>149.66666666666666</ele><time>2026-04-18T14:29:03.999Z</time></trkpt><trkpt lat="44.727976048929726" lon="10.22685198825345"><ele>150.0</ele><time>2026-04-18T14:29:04.999Z</time></trkpt><trkpt lat="44.728148804862464" lon="10.226811727277338"><ele>150.0</ele><time>2026-04-18T14:29:05.999Z</time></trkpt><trkpt lat="44.72832027603501" lon="10.226768402711327"><ele>150.0</ele><time>2026-04-18T14:29:06.999Z</time></trkpt><trkpt lat="44.72849588397476" lon="10.226725227573208"><ele>150.0</ele><time>2026-04-18T14:29:07.999Z</time></trkpt><trkpt lat="44.72867186729589" lon="10.226683076355569"><ele>148.0</ele><time>2026-04-18T14:29:08.999Z</time></trkpt><trkpt lat="44.728849413600784" lon="10.226647434935192"><ele>146.0</ele><time>2026-04-18T14:29:09.999Z</time></trkpt><trkpt lat="44.72902495546972" lon="10.22660865837138"><ele>144.0</ele><time>2026-04-18T14:29:10.999Z</time></trkpt><trkpt lat="44.72920061399937" lon="10.226574461296039"><ele>144.0</ele><time>2026-04-18T14:29:11.999Z</time></trkpt><trkpt lat="44.7293813909975" lon="10.22654815388537"><ele>144.0</ele><time>2026-04-18T14:29:12.999Z</time></trkpt><trkpt lat="44.72955751614117" lon="10.226520015286141"><ele>144.0</ele><time>2026-04-18T14:29:13.999Z</time></trkpt><trkpt lat="44.72974341165808" lon="10.226487174737956"><ele>144.0</ele><time>2026-04-18T14:29:14.999Z</time></trkpt><trkpt lat="44.72992604107686" lon="10.226450669214673"><ele>144.0</ele><time>2026-04-18T14:29:15.999Z</time></trkpt><trkpt lat="44.7301086332901" lon="10.226416969179406"><ele>144.0</ele><time>2026-04-18T14:29:16.999Z</time></trkpt><trkpt lat="44.730287184955536" lon="10.226378427259863"><ele>144.0</ele><time>2026-04-18T14:29:17.999Z</time></trkpt><trkpt lat="44.7304710125697" lon="10.226336209040952"><ele>144.0</ele><time>2026-04-18T14:29:18.999Z</time></trkpt><trkpt lat="44.730648422807725" lon="10.226284906430491"><ele>144.0</ele><time>2026-04-18T14:29:19.999Z</time></trkpt><trkpt lat="44.73082736533068" lon="10.226213062936276"><ele>144.0</ele><time>2026-04-18T14:29:20.999Z</time></trkpt><trkpt lat="44.73099907123838" lon="10.226124120519025"><ele>144.0</ele><time>2026-04-18T14:29:21.999Z</time></trkpt><trkpt lat="44.73117163110414" lon="10.226028323440948"><ele>144.0</ele><time>2026-04-18T14:29:22.999Z</time></trkpt><trkpt lat="44.731344023575154" lon="10.225945501099636"><ele>144.33333333333334</ele><time>2026-04-18T14:29:23.999Z</time></trkpt><trkpt lat="44.73151675586522" lon="10.225847906978483"><ele>144.66666666666669</ele><time>2026-04-18T14:29:24.999Z</time></trkpt><trkpt lat="44.731689336193156" lon="10.22576210365345"><ele>145.0</ele><time>2026-04-18T14:29:25.999Z</time></trkpt><trkpt lat="44.7318730206266" lon="10.22570769039285"><ele>144.66666666666669</ele><time>2026-04-18T14:29:26.999Z</time></trkpt><trkpt lat="44.73205904517094" lon="10.22567071826243"><ele>144.33333333333334</ele><time>2026-04-18T14:29:27.999Z</time></trkpt><trkpt lat="44.7322441602063" lon="10.225653692450853"><ele>144.0</ele><time>2026-04-18T14:29:28.999Z</time></trkpt><trkpt lat="44.732429868596796" lon="10.225639936101004"><ele>142.33333333333334</ele><time>2026-04-18T14:29:29.999Z</time></trkpt><trkpt lat="44.732611029086165" lon="10.225621951378303"><ele>140.66666666666669</ele><time>2026-04-18T14:29:30.999Z</time></trkpt><trkpt lat="44.732793269423105" lon="10.225604999618893"><ele>139.0</ele><time>2026-04-18T14:29:31.999Z</time></trkpt><trkpt lat="44.73296742610241" lon="10.225589738332824"><ele>138.33333333333334</ele><time>2026-04-18T14:29:32.999Z</time></trkpt><trkpt lat="44.73314333447842" lon="10.225570876226476"><ele>137.66666666666666</ele><time>2026-04-18T14:29:33.999Z</time></trkpt><trkpt lat="44.733303732223376" lon="10.225559071399111"><ele>137.0</ele><time>2026-04-18T14:29:34.999Z</time></trkpt><trkpt lat="44.73345800073558" lon="10.225543240009035"><ele>136.0</ele><time>2026-04-18T14:29:35.999Z</time></trkpt><trkpt lat="44.73361702383322" lon="10.225535038900963"><ele>135.0</ele><time>2026-04-18T14:29:36.999Z</time></trkpt><trkpt lat="44.73377221612527" lon="10.22551853922391"><ele>134.0</ele><time>2026-04-18T14:29:37.999Z</time></trkpt><trkpt lat="44.733930227851424" lon="10.22550083244483"><ele>134.0</ele><time>2026-04-18T14:29:38.999Z</time></trkpt><trkpt lat="44.73408846615961" lon="10.225482626164375"><ele>134.0</ele><time>2026-04-18T14:29:39.999Z</time></trkpt><trkpt lat="44.7342499886145" lon="10.225472510496639"><ele>134.0</ele><time>2026-04-18T14:29:40.999Z</time></trkpt><trkpt lat="44.73440829887048" lon="10.225463970692878"><ele>134.0</ele><time>2026-04-18T14:29:41.999Z</time></trkpt><trkpt lat="44.73457182417018" lon="10.225455497190419"><ele>134.0</ele><time>2026-04-18T14:29:42.999Z</time></trkpt><trkpt lat="44.734730884129505" lon="10.225442642816176"><ele>134.0</ele><time>2026-04-18T14:29:43.999Z</time></trkpt><trkpt lat="44.734887069292526" lon="10.225432615583138"><ele>134.0</ele><time>2026-04-18T14:29:44.999Z</time></trkpt><trkpt lat="44.73504101853572" lon="10.22542893105149"><ele>134.0</ele><time>2026-04-18T14:29:45.999Z</time></trkpt><trkpt lat="44.735188543047585" lon="10.22542358942408"><ele>134.0</ele><time>2026-04-18T14:29:46.999Z</time></trkpt><trkpt lat="44.73533622239923" lon="10.225408265695618"><ele>133.75</ele><time>2026-04-18T14:29:47.999Z</time></trkpt><trkpt lat="44.73548297288514" lon="10.225389932344067"><ele>133.5</ele><time>2026-04-18T14:29:49Z</time></trkpt><trkpt lat="44.73562497708939" lon="10.2253832644956"><ele>133.25</ele><time>2026-04-18T14:29:50Z</time></trkpt><trkpt lat="44.73576799632808" lon="10.225381075535498"><ele>133.0</ele><time>2026-04-18T14:29:51Z</time></trkpt><trkpt lat="44.73591297055328" lon="10.225373519155502"><ele>132.75</ele><time>2026-04-18T14:29:52Z</time></trkpt><trkpt lat="44.7360589154223" lon="10.225361435979606"><ele>132.5</ele><time>2026-04-18T14:29:53Z</time></trkpt><trkpt lat="44.73620494746116" lon="10.225349793140698"><ele>132.25</ele><time>2026-04-18T14:29:54Z</time></trkpt><trkpt lat="44.736353581728906" lon="10.225340806765287"><ele>132.0</ele><time>2026-04-18T14:29:55Z</time></trkpt><trkpt lat="44.73650309747859" lon="10.225332091681512"><ele>132.0</ele><time>2026-04-18T14:29:56Z</time></trkpt><trkpt lat="44.736656077489904" lon="10.225319970665678"><ele>132.0</ele><time>2026-04-18T14:29:57Z</time></trkpt><trkpt lat="44.73681100005931" lon="10.225308313171539"><ele>132.0</ele><time>2026-04-18T14:29:58Z</time></trkpt><trkpt lat="44.73696415012927" lon="10.225297225398789"><ele>131.66666666666666</ele><time>2026-04-18T14:29:59Z</time></trkpt><trkpt lat="44.737124196508596" lon="10.225292318545405"><ele>131.33333333333331</ele><time>2026-04-18T14:30:00Z</time></trkpt><trkpt lat="44.73728162942201" lon="10.225288245245792"><ele>131.0</ele><time>2026-04-18T14:30:01Z</time></trkpt><trkpt lat="44.73744250121517" lon="10.225282414699146"><ele>131.0</ele><time>2026-04-18T14:30:02Z</time></trkpt><trkpt lat="44.73760293812381" lon="10.225269991105753"><ele>131.0</ele><time>2026-04-18T14:30:03Z</time></trkpt><trkpt lat="44.73776314698805" lon="10.225261549825099"><ele>131.0</ele><time>2026-04-18T14:30:04Z</time></trkpt><trkpt lat="44.73793093998341" lon="10.225251618701819"><ele>130.0</ele><time>2026-04-18T14:30:05Z</time></trkpt><trkpt lat="44.7380926974275" lon="10.225237106945713"><ele>129.0</ele><time>2026-04-18T14:30:06Z</time></trkpt><trkpt lat="44.738255379809104" lon="10.225222997474638"><ele>128.0</ele><time>2026-04-18T14:30:07Z</time></trkpt><trkpt lat="44.73841908808572" lon="10.225212925316029"><ele>127.66666666666666</ele><time>2026-04-18T14:30:08Z</time></trkpt><trkpt lat="44.73859251442816" lon="10.225200922295679"><ele>127.33333333333334</ele><time>2026-04-18T14:30:09Z</time></trkpt><trkpt lat="44.73876272029457" lon="10.225192786714464"><ele>127.0</ele><time>2026-04-18T14:30:10Z</time></trkpt><trkpt lat="44.738933213336225" lon="10.225182267029233"><ele>127.0</ele><time>2026-04-18T14:30:11Z</time></trkpt><trkpt lat="44.73910906705544" lon="10.225171931507708"><ele>127.0</ele><time>2026-04-18T14:30:12Z</time></trkpt><trkpt lat="44.739291522949145" lon="10.225164030455453"><ele>127.0</ele><time>2026-04-18T14:30:13Z</time></trkpt><trkpt lat="44.73947115072779" lon="10.225159629428788"><ele>127.33333333333334</ele><time>2026-04-18T14:30:14Z</time></trkpt><trkpt lat="44.739653724156625" lon="10.225149113551819"><ele>127.66666666666666</ele><time>2026-04-18T14:30:15Z</time></trkpt><trkpt lat="44.73983842541673" lon="10.225132990141617"><ele>128.0</ele><time>2026-04-18T14:30:16Z</time></trkpt><trkpt lat="44.740028710251345" lon="10.225115956513745"><ele>128.0</ele><time>2026-04-18T14:30:17Z</time></trkpt><trkpt lat="44.74021743915701" lon="10.225106423014076"><ele>128.0</ele><time>2026-04-18T14:30:18Z</time></trkpt><trkpt lat="44.74040265838492" lon="10.225098608018715"><ele>128.0</ele><time>2026-04-18T14:30:19Z</time></trkpt><trkpt lat="44.74058975219447" lon="10.225090183675414"><ele>128.0</ele><time>2026-04-18T14:30:20Z</time></trkpt><trkpt lat="44.74077924588761" lon="10.225078400489858"><ele>128.0</ele><time>2026-04-18T14:30:21Z</time></trkpt><trkpt lat="44.7409612868656" lon="10.22506616854865"><ele>128.0</ele><time>2026-04-18T14:30:22Z</time></trkpt><trkpt lat="44.74113005574821" lon="10.225053723110175"><ele>127.66666666666666</ele><time>2026-04-18T14:30:23Z</time></trkpt><trkpt lat="44.74129345718577" lon="10.225046768217922"><ele>127.33333333333334</ele><time>2026-04-18T14:30:24Z</time></trkpt><trkpt lat="44.74145630515661" lon="10.225032587452569"><ele>127.0</ele><time>2026-04-18T14:30:25Z</time></trkpt><trkpt lat="44.74160803444513" lon="10.225023575645544"><ele>127.0</ele><time>2026-04-18T14:30:26Z</time></trkpt><trkpt lat="44.741761123340055" lon="10.225015263325089"><ele>127.0</ele><time>2026-04-18T14:30:27Z</time></trkpt><trkpt lat="44.74190820519618" lon="10.225008503447828"><ele>127.0</ele><time>2026-04-18T14:30:28Z</time></trkpt><trkpt lat="44.7420552991076" lon="10.225000368972822"><ele>127.0</ele><time>2026-04-18T14:30:29Z</time></trkpt><trkpt lat="44.74219940877106" lon="10.224992449504649"><ele>126.75</ele><time>2026-04-18T14:30:30Z</time></trkpt><trkpt lat="44.742332871486084" lon="10.224987247000607"><ele>126.5</ele><time>2026-04-18T14:30:31Z</time></trkpt><trkpt lat="44.742458475954464" lon="10.224977958750358"><ele>126.25</ele><time>2026-04-18T14:30:32Z</time></trkpt><trkpt lat="44.742580952701694" lon="10.224969014850219"><ele>126.0</ele><time>2026-04-18T14:30:33Z</time></trkpt><trkpt lat="44.742691447563814" lon="10.224957316865444"><ele>125.6</ele><time>2026-04-18T14:30:34Z</time></trkpt><trkpt lat="44.742789246711936" lon="10.224946018471073"><ele>125.19999999999999</ele><time>2026-04-18T14:30:35Z</time></trkpt><trkpt lat="44.74287628156891" lon="10.224945136700244"><ele>124.80000000000001</ele><time>2026-04-18T14:30:36Z</time></trkpt><trkpt lat="44.742965976817004" lon="10.224945954192341"><ele>124.4</ele><time>2026-04-18T14:30:37Z</time></trkpt><trkpt lat="44.743072755990184" lon="10.22493878720805"><ele>124.0</ele><time>2026-04-18T14:30:38Z</time></trkpt><trkpt lat="44.743182891735515" lon="10.224932205584954"><ele>124.0</ele><time>2026-04-18T14:30:39Z</time></trkpt><trkpt lat="44.74329414892866" lon="10.224926776839423"><ele>124.0</ele><time>2026-04-18T14:30:40Z</time></trkpt><trkpt lat="44.743401229741565" lon="10.224920547419035"><ele>124.0</ele><time>2026-04-18T14:30:41Z</time></trkpt><trkpt lat="44.74350363284545" lon="10.224915739508617"><ele>124.0</ele><time>2026-04-18T14:30:42Z</time></trkpt><trkpt lat="44.74360326309696" lon="10.224913754364303"><ele>124.0</ele><time>2026-04-18T14:30:43Z</time></trkpt><trkpt lat="44.74368971858888" lon="10.22490621611552"><ele>124.0</ele><time>2026-04-18T14:30:44Z</time></trkpt><trkpt lat="44.743780265757216" lon="10.224891961782197"><ele>124.0</ele><time>2026-04-18T14:30:45Z</time></trkpt><trkpt lat="44.7438630671962" lon="10.224886284693612"><ele>124.0</ele><time>2026-04-18T14:30:46Z</time></trkpt><trkpt lat="44.74393781893568" lon="10.22489727081777"><ele>124.0</ele><time>2026-04-18T14:30:47Z</time></trkpt><trkpt lat="44.7440512543085" lon="10.224936639129655"><ele>124.0</ele><time>2026-04-18T14:30:49Z</time></trkpt><trkpt lat="44.74416893297849" lon="10.225008217711832"><ele>124.0</ele><time>2026-04-18T14:30:51Z</time></trkpt><trkpt lat="44.74429055575218" lon="10.224988086871548"><ele>124.0</ele><time>2026-04-18T14:30:53Z</time></trkpt><trkpt lat="44.744341377352136" lon="10.224909507114843"><ele>124.0</ele><time>2026-04-18T14:30:54Z</time></trkpt><trkpt lat="44.74435599479628" lon="10.224804988343218"><ele>124.0</ele><time>2026-04-18T14:30:55Z</time></trkpt><trkpt lat="44.74439167912571" lon="10.224695765610337"><ele>124.0</ele><time>2026-04-18T14:30:56Z</time></trkpt><trkpt lat="44.74449811041027" lon="10.224639589727659"><ele>123.80000000000001</ele><time>2026-04-18T14:30:57Z</time></trkpt><trkpt lat="44.74458856296672" lon="10.224577676255391"><ele>123.60000000000001</ele><time>2026-04-18T14:30:58Z</time></trkpt><trkpt lat="44.74467759728786" lon="10.224517930367998"><ele>123.4</ele><time>2026-04-18T14:30:59Z</time></trkpt><trkpt lat="44.7447776117197" lon="10.224450548633408"><ele>123.2</ele><time>2026-04-18T14:31:00Z</time></trkpt><trkpt lat="44.74486968835455" lon="10.224381280464003"><ele>123.0</ele><time>2026-04-18T14:31:01Z</time></trkpt><trkpt lat="44.74496006162601" lon="10.224313032636735"><ele>123.0</ele><time>2026-04-18T14:31:02Z</time></trkpt><trkpt lat="44.74505549435019" lon="10.224242179249746"><ele>123.0</ele><time>2026-04-18T14:31:03Z</time></trkpt><trkpt lat="44.745155352713795" lon="10.224167134542645"><ele>123.0</ele><time>2026-04-18T14:31:04Z</time></trkpt><trkpt lat="44.745256210242395" lon="10.224093131404395"><ele>123.0</ele><time>2026-04-18T14:31:05Z</time></trkpt><trkpt lat="44.74536213252633" lon="10.224020210132588"><ele>122.75</ele><time>2026-04-18T14:31:06Z</time></trkpt><trkpt lat="44.74546916753901" lon="10.223949393645867"><ele>122.5</ele><time>2026-04-18T14:31:07Z</time></trkpt><trkpt lat="44.74557511131571" lon="10.223883124773236"><ele>122.25</ele><time>2026-04-18T14:31:08Z</time></trkpt><trkpt lat="44.745673852345895" lon="10.223830346534973"><ele>122.0</ele><time>2026-04-18T14:31:09Z</time></trkpt><trkpt lat="44.745780647551264" lon="10.223782354962603"><ele>122.0</ele><time>2026-04-18T14:31:09.999Z</time></trkpt><trkpt lat="44.74589019627243" lon="10.22373803518648"><ele>122.0</ele><time>2026-04-18T14:31:10.999Z</time></trkpt><trkpt lat="44.74600530147975" lon="10.223698655793871"><ele>122.0</ele><time>2026-04-18T14:31:11.999Z</time></trkpt><trkpt lat="44.746125769536576" lon="10.223674292467264"><ele>122.0</ele><time>2026-04-18T14:31:12.999Z</time></trkpt><trkpt lat="44.74625095983076" lon="10.223665457885717"><ele>121.75</ele><time>2026-04-18T14:31:13.999Z</time></trkpt><trkpt lat="44.74638418980642" lon="10.223668601772863"><ele>121.5</ele><time>2026-04-18T14:31:14.999Z</time></trkpt><trkpt lat="44.74652203676456" lon="10.223676386319907"><ele>121.25</ele><time>2026-04-18T14:31:15.999Z</time></trkpt><trkpt lat="44.746655853084725" lon="10.223683311145855"><ele>121.0</ele><time>2026-04-18T14:31:16.999Z</time></trkpt><trkpt lat="44.746787831419404" lon="10.223694976888098"><ele>121.0</ele><time>2026-04-18T14:31:17.999Z</time></trkpt><trkpt lat="44.74691994044066" lon="10.223708437974635"><ele>121.0</ele><time>2026-04-18T14:31:18.999Z</time></trkpt><trkpt lat="44.747037890688034" lon="10.223732469252262"><ele>121.0</ele><time>2026-04-18T14:31:19.999Z</time></trkpt><trkpt lat="44.74714862160048" lon="10.223749328134307"><ele>121.0</ele><time>2026-04-18T14:31:20.999Z</time></trkpt><trkpt lat="44.74724028371936" lon="10.223761197617025"><ele>121.00000000000001</ele><time>2026-04-18T14:31:21.999Z</time></trkpt><trkpt lat="44.74730402243598" lon="10.22376549579102"><ele>121.0</ele><time>2026-04-18T14:31:22.999Z</time></trkpt><trkpt lat="44.74742595918721" lon="10.223774072186801"><ele>121.0</ele><time>2026-04-18T14:31:24.999Z</time></trkpt><trkpt lat="44.747545053367766" lon="10.22378640674434"><ele>121.0</ele><time>2026-04-18T14:31:26.999Z</time></trkpt><trkpt lat="44.747613303372155" lon="10.223793600319189"><ele>121.00000000000001</ele><time>2026-04-18T14:31:27.999Z</time></trkpt><trkpt lat="44.74768286178779" lon="10.223803062886383"><ele>121.0</ele><time>2026-04-18T14:31:28.999Z</time></trkpt><trkpt lat="44.74775650610543" lon="10.223813205631052"><ele>120.66666666666667</ele><time>2026-04-18T14:31:29.999Z</time></trkpt><trkpt lat="44.74784862878865" lon="10.22382296132475"><ele>120.33333333333334</ele><time>2026-04-18T14:31:30.999Z</time></trkpt><trkpt lat="44.747929878206904" lon="10.223830654894117"><ele>120.0</ele><time>2026-04-18T14:31:31.999Z</time></trkpt><trkpt lat="44.7480182231086" lon="10.223849466337795"><ele>119.66666666666666</ele><time>2026-04-18T14:31:32.999Z</time></trkpt><trkpt lat="44.748111552452706" lon="10.223859612283887"><ele>119.33333333333333</ele><time>2026-04-18T14:31:33.999Z</time></trkpt><trkpt lat="44.74820112120493" lon="10.223864030088247"><ele>119.0</ele><time>2026-04-18T14:31:34.999Z</time></trkpt><trkpt lat="44.748301444835995" lon="10.223883941580528"><ele>119.0</ele><time>2026-04-18T14:31:35.999Z</time></trkpt><trkpt lat="44.7484037082227" lon="10.22389808485607"><ele>119.0</ele><time>2026-04-18T14:31:36.999Z</time></trkpt><trkpt lat="44.74850635102406" lon="10.223910866410183"><ele>119.0</ele><time>2026-04-18T14:31:37.999Z</time></trkpt><trkpt lat="44.74860719244312" lon="10.223919511420663"><ele>119.0</ele><time>2026-04-18T14:31:38.999Z</time></trkpt><trkpt lat="44.74869880196645" lon="10.223927235204926"><ele>119.0</ele><time>2026-04-18T14:31:39.999Z</time></trkpt><trkpt lat="44.748788159846946" lon="10.223937490349355"><ele>119.0</ele><time>2026-04-18T14:31:40.999Z</time></trkpt><trkpt lat="44.748880806154666" lon="10.223950898662492"><ele>119.0</ele><time>2026-04-18T14:31:41.999Z</time></trkpt><trkpt lat="44.74897279188787" lon="10.223963518070812"><ele>119.0</ele><time>2026-04-18T14:31:42.999Z</time></trkpt><trkpt lat="44.74907950556191" lon="10.223981977908245"><ele>119.0</ele><time>2026-04-18T14:31:43.999Z</time></trkpt><trkpt lat="44.74918642515825" lon="10.22399679451528"><ele>119.0</ele><time>2026-04-18T14:31:44.999Z</time></trkpt><trkpt lat="44.7492994399668" lon="10.2240154771841"><ele>118.6</ele><time>2026-04-18T14:31:45.999Z</time></trkpt><trkpt lat="44.74940441167656" lon="10.224034560016646"><ele>118.2</ele><time>2026-04-18T14:31:46.999Z</time></trkpt><trkpt lat="44.74951897099491" lon="10.224050230322279"><ele>117.79999999999998</ele><time>2026-04-18T14:31:47.999Z</time></trkpt><trkpt lat="44.74963122309758" lon="10.22406590516669"><ele>117.39999999999999</ele><time>2026-04-18T14:31:48.999Z</time></trkpt><trkpt lat="44.74974059139141" lon="10.22408170158671"><ele>117.0</ele><time>2026-04-18T14:31:49.999Z</time></trkpt><trkpt lat="44.74985458276945" lon="10.224096394723126"><ele>117.0</ele><time>2026-04-18T14:31:50.999Z</time></trkpt><trkpt lat="44.749970346331324" lon="10.224108836793883"><ele>117.0</ele><time>2026-04-18T14:31:51.999Z</time></trkpt><trkpt lat="44.75008576459195" lon="10.22411905418172"><ele>117.0</ele><time>2026-04-18T14:31:52.999Z</time></trkpt><trkpt lat="44.75019383502151" lon="10.224131139062045"><ele>117.0</ele><time>2026-04-18T14:31:53.999Z</time></trkpt><trkpt lat="44.75030394114648" lon="10.224146275504667"><ele>117.0</ele><time>2026-04-18T14:31:55Z</time></trkpt><trkpt lat="44.75041777025663" lon="10.224159748898778"><ele>117.0</ele><time>2026-04-18T14:31:56Z</time></trkpt><trkpt lat="44.75053223562454" lon="10.224174541437488"><ele>117.0</ele><time>2026-04-18T14:31:57Z</time></trkpt><trkpt lat="44.75064933840231" lon="10.224192680722833"><ele>117.0</ele><time>2026-04-18T14:31:58Z</time></trkpt><trkpt lat="44.75076971710142" lon="10.224211928074524"><ele>117.0</ele><time>2026-04-18T14:31:59Z</time></trkpt><trkpt lat="44.75089829431535" lon="10.224231781632149"><ele>117.0</ele><time>2026-04-18T14:32:00Z</time></trkpt><trkpt lat="44.75102773593789" lon="10.224244559606273"><ele>117.0</ele><time>2026-04-18T14:32:01Z</time></trkpt><trkpt lat="44.751152121372975" lon="10.224254550117623"><ele>117.0</ele><time>2026-04-18T14:32:02Z</time></trkpt><trkpt lat="44.751273559580625" lon="10.224269022674095"><ele>117.0</ele><time>2026-04-18T14:32:03Z</time></trkpt><trkpt lat="44.7513900788971" lon="10.224283172604592"><ele>116.99999999999999</ele><time>2026-04-18T14:32:04Z</time></trkpt><trkpt lat="44.751494869226775" lon="10.224290987605013"><ele>116.99999999999999</ele><time>2026-04-18T14:32:05Z</time></trkpt><trkpt lat="44.751591726903754" lon="10.224303507914428"><ele>117.0</ele><time>2026-04-18T14:32:06Z</time></trkpt><trkpt lat="44.75168843296175" lon="10.224318659834069"><ele>117.0</ele><time>2026-04-18T14:32:07Z</time></trkpt><trkpt lat="44.751784665000145" lon="10.224326854346163"><ele>116.8</ele><time>2026-04-18T14:32:08Z</time></trkpt><trkpt lat="44.751883032131296" lon="10.224337392117175"><ele>116.6</ele><time>2026-04-18T14:32:09Z</time></trkpt><trkpt lat="44.75197394648006" lon="10.22435602039871"><ele>116.39999999999999</ele><time>2026-04-18T14:32:10Z</time></trkpt><trkpt lat="44.75205746933944" lon="10.224378642835765"><ele>116.19999999999999</ele><time>2026-04-18T14:32:11Z</time></trkpt><trkpt lat="44.752129923192044" lon="10.224396857283962"><ele>116.0</ele><time>2026-04-18T14:32:12Z</time></trkpt><trkpt lat="44.75222973345608" lon="10.224423915018512"><ele>115.99999999999999</ele><time>2026-04-18T14:32:14Z</time></trkpt><trkpt lat="44.75229215623147" lon="10.224472821034011"><ele>116.0</ele><time>2026-04-18T14:32:17Z</time></trkpt><trkpt lat="44.752343304806224" lon="10.224526538494407"><ele>116.0</ele><time>2026-04-18T14:32:19Z</time></trkpt><trkpt lat="44.75243333943992" lon="10.224619163287098"><ele>116.0</ele><time>2026-04-18T14:32:21Z</time></trkpt><trkpt lat="44.75249384205987" lon="10.224650601223225"><ele>115.99999999999999</ele><time>2026-04-18T14:32:22Z</time></trkpt><trkpt lat="44.75256107247954" lon="10.224692946296019"><ele>116.0</ele><time>2026-04-18T14:32:23Z</time></trkpt><trkpt lat="44.75263627076751" lon="10.224762021466306"><ele>116.0</ele><time>2026-04-18T14:32:24Z</time></trkpt><trkpt lat="44.75270180859194" lon="10.224851738627384"><ele>116.0</ele><time>2026-04-18T14:32:25Z</time></trkpt><trkpt lat="44.75276917397356" lon="10.224957778872172"><ele>116.0</ele><time>2026-04-18T14:32:26Z</time></trkpt><trkpt lat="44.75283491200254" lon="10.225086712145252"><ele>116.0</ele><time>2026-04-18T14:32:27Z</time></trkpt><trkpt lat="44.75290352549978" lon="10.225229343550378"><ele>116.0</ele><time>2026-04-18T14:32:28Z</time></trkpt><trkpt lat="44.75297761965153" lon="10.22538208003606"><ele>116.0</ele><time>2026-04-18T14:32:29Z</time></trkpt><trkpt lat="44.753042780636086" lon="10.22552519315918"><ele>116.0</ele><time>2026-04-18T14:32:30Z</time></trkpt><trkpt lat="44.75311336723287" lon="10.22566521312197"><ele>116.0</ele><time>2026-04-18T14:32:31Z</time></trkpt><trkpt lat="44.753180086713" lon="10.225806255114847"><ele>116.0</ele><time>2026-04-18T14:32:32Z</time></trkpt><trkpt lat="44.75324183210254" lon="10.225936891383489"><ele>116.0</ele><time>2026-04-18T14:32:33Z</time></trkpt><trkpt lat="44.75329721868921" lon="10.226052865386492"><ele>116.0</ele><time>2026-04-18T14:32:34Z</time></trkpt><trkpt lat="44.7533496772215" lon="10.226161567070566"><ele>116.0</ele><time>2026-04-18T14:32:35Z</time></trkpt><trkpt lat="44.75339806460531" lon="10.226269809552436"><ele>116.0</ele><time>2026-04-18T14:32:36Z</time></trkpt><trkpt lat="44.7534487569541" lon="10.226389890122212"><ele>116.0</ele><time>2026-04-18T14:32:37Z</time></trkpt><trkpt lat="44.75349900630156" lon="10.226510093969093"><ele>115.83333333333333</ele><time>2026-04-18T14:32:38Z</time></trkpt><trkpt lat="44.75354748424959" lon="10.226615800254379"><ele>115.66666666666666</ele><time>2026-04-18T14:32:39Z</time></trkpt><trkpt lat="44.75359138084739" lon="10.226714198935023"><ele>115.5</ele><time>2026-04-18T14:32:40Z</time></trkpt><trkpt lat="44.75363557007279" lon="10.226804235059635"><ele>115.33333333333334</ele><time>2026-04-18T14:32:41Z</time></trkpt><trkpt lat="44.75367969536308" lon="10.226887435986319"><ele>115.16666666666667</ele><time>2026-04-18T14:32:42Z</time></trkpt><trkpt lat="44.753738667147665" lon="10.226969070683447"><ele>115.0</ele><time>2026-04-18T14:32:44Z</time></trkpt><trkpt lat="44.75379018777143" lon="10.227038649644706"><ele>115.0</ele><time>2026-04-18T14:32:48Z</time></trkpt><trkpt lat="44.75383937768815" lon="10.227131110180235"><ele>115.0</ele><time>2026-04-18T14:32:52Z</time></trkpt><trkpt lat="44.75388550366608" lon="10.227262211362325"><ele>115.0</ele><time>2026-04-18T14:32:54Z</time></trkpt><trkpt lat="44.753923796866644" lon="10.227337901893144"><ele>115.0</ele><time>2026-04-18T14:32:55Z</time></trkpt><trkpt lat="44.753981050219586" lon="10.227440481543617"><ele>115.0</ele><time>2026-04-18T14:32:56Z</time></trkpt><trkpt lat="44.7540377118679" lon="10.227571832518649"><ele>114.75</ele><time>2026-04-18T14:32:57Z</time></trkpt><trkpt lat="44.75408391882526" lon="10.227709509188768"><ele>114.5</ele><time>2026-04-18T14:32:58Z</time></trkpt><trkpt lat="44.75414273946623" lon="10.227868834998073"><ele>114.25</ele><time>2026-04-18T14:32:59Z</time></trkpt><trkpt lat="44.75422167439221" lon="10.228074288653383"><ele>114.0</ele><time>2026-04-18T14:33:00Z</time></trkpt><trkpt lat="44.75431091265345" lon="10.22829197075967"><ele>113.75</ele><time>2026-04-18T14:33:01Z</time></trkpt><trkpt lat="44.75437521668178" lon="10.228408138837437"><ele>113.5</ele><time>2026-04-18T14:33:02Z</time></trkpt><trkpt lat="44.754456323655965" lon="10.22857675379167"><ele>113.25</ele><time>2026-04-18T14:33:03Z</time></trkpt><trkpt lat="44.75453444506222" lon="10.228744411670345"><ele>113.0</ele><time>2026-04-18T14:33:04Z</time></trkpt><trkpt lat="44.754611617440055" lon="10.228909405880527"><ele>112.75</ele><time>2026-04-18T14:33:05Z</time></trkpt><trkpt lat="44.75468823295136" lon="10.229069895694742"><ele>112.5</ele><time>2026-04-18T14:33:06Z</time></trkpt><trkpt lat="44.75476034681412" lon="10.229226671429016"><ele>112.25</ele><time>2026-04-18T14:33:07Z</time></trkpt><trkpt lat="44.75483412925636" lon="10.229386645105766"><ele>112.0</ele><time>2026-04-18T14:33:08Z</time></trkpt><trkpt lat="44.754904670350726" lon="10.22954619563826"><ele>112.0</ele><time>2026-04-18T14:33:09Z</time></trkpt><trkpt lat="44.75497818495383" lon="10.229703230331967"><ele>112.0</ele><time>2026-04-18T14:33:10Z</time></trkpt><trkpt lat="44.7550479980042" lon="10.229854893004688"><ele>112.0</ele><time>2026-04-18T14:33:11Z</time></trkpt><trkpt lat="44.75511982638687" lon="10.230012022250694"><ele>112.0</ele><time>2026-04-18T14:33:11.999Z</time></trkpt><trkpt lat="44.75519641315547" lon="10.230173873788432"><ele>112.0</ele><time>2026-04-18T14:33:12.999Z</time></trkpt><trkpt lat="44.755271140602595" lon="10.230329509956691"><ele>112.0</ele><time>2026-04-18T14:33:13.999Z</time></trkpt><trkpt lat="44.75535230039427" lon="10.230467746437753"><ele>112.0</ele><time>2026-04-18T14:33:14.999Z</time></trkpt><trkpt lat="44.75544589782169" lon="10.230608012510006"><ele>112.0</ele><time>2026-04-18T14:33:15.999Z</time></trkpt><trkpt lat="44.75552278368749" lon="10.230761217157857"><ele>112.0</ele><time>2026-04-18T14:33:16.999Z</time></trkpt><trkpt lat="44.75556801067169" lon="10.230917390305226"><ele>112.0</ele><time>2026-04-18T14:33:17.999Z</time></trkpt><trkpt lat="44.75560972475563" lon="10.231080528039461"><ele>112.0</ele><time>2026-04-18T14:33:18.999Z</time></trkpt><trkpt lat="44.7556566325858" lon="10.23124490431052"><ele>112.0</ele><time>2026-04-18T14:33:19.999Z</time></trkpt><trkpt lat="44.7557300909642" lon="10.231390741261071"><ele>111.5</ele><time>2026-04-18T14:33:20.999Z</time></trkpt><trkpt lat="44.75582869250288" lon="10.231515555601208"><ele>111.0</ele><time>2026-04-18T14:33:21.999Z</time></trkpt><trkpt lat="44.755939501868156" lon="10.231618302385586"><ele>110.5</ele><time>2026-04-18T14:33:22.999Z</time></trkpt><trkpt lat="44.75605235157073" lon="10.231705907282384"><ele>110.0</ele><time>2026-04-18T14:33:23.999Z</time></trkpt><trkpt lat="44.7561196943196" lon="10.23184633427327"><ele>109.5</ele><time>2026-04-18T14:33:24.999Z</time></trkpt><trkpt lat="44.75616911764588" lon="10.232011769415408"><ele>109.0</ele><time>2026-04-18T14:33:25.999Z</time></trkpt><trkpt lat="44.75621299463739" lon="10.232180117076204"><ele>108.5</ele><time>2026-04-18T14:33:26.999Z</time></trkpt><trkpt lat="44.75625379271595" lon="10.232336241445704"><ele>108.0</ele><time>2026-04-18T14:33:27.999Z</time></trkpt><trkpt lat="44.75629909782625" lon="10.23248567957742"><ele>108.0</ele><time>2026-04-18T14:33:28.999Z</time></trkpt><trkpt lat="44.75635121484253" lon="10.232634683752961"><ele>108.0</ele><time>2026-04-18T14:33:29.999Z</time></trkpt><trkpt lat="44.75641256307312" lon="10.232794992598235"><ele>108.0</ele><time>2026-04-18T14:33:30.999Z</time></trkpt><trkpt lat="44.75648851430875" lon="10.232965081354214"><ele>108.0</ele><time>2026-04-18T14:33:31.999Z</time></trkpt><trkpt lat="44.75656750369077" lon="10.233135559749124"><ele>109.0</ele><time>2026-04-18T14:33:32.999Z</time></trkpt><trkpt lat="44.75664846937752" lon="10.233314735342908"><ele>110.0</ele><time>2026-04-18T14:33:33.999Z</time></trkpt><trkpt lat="44.756734603394314" lon="10.233502122237613"><ele>111.0</ele><time>2026-04-18T14:33:34.999Z</time></trkpt><trkpt lat="44.756815440284264" lon="10.233684834393692"><ele>111.0</ele><time>2026-04-18T14:33:35.999Z</time></trkpt><trkpt lat="44.75690011744908" lon="10.23386693855242"><ele>111.0</ele><time>2026-04-18T14:33:36.999Z</time></trkpt><trkpt lat="44.75698820746537" lon="10.234054223270235"><ele>111.0</ele><time>2026-04-18T14:33:37.999Z</time></trkpt><trkpt lat="44.757077185089834" lon="10.234244342584196"><ele>111.0</ele><time>2026-04-18T14:33:38.999Z</time></trkpt><trkpt lat="44.75716186039245" lon="10.234424255318734"><ele>111.0</ele><time>2026-04-18T14:33:39.999Z</time></trkpt><trkpt lat="44.75724028537692" lon="10.234605192618918"><ele>111.0</ele><time>2026-04-18T14:33:40.999Z</time></trkpt><trkpt lat="44.757329690243765" lon="10.234790760669624"><ele>111.0</ele><time>2026-04-18T14:33:41.999Z</time></trkpt><trkpt lat="44.75741561086773" lon="10.234975967827262"><ele>111.0</ele><time>2026-04-18T14:33:42.999Z</time></trkpt><trkpt lat="44.757502770724706" lon="10.2351649297071"><ele>111.0</ele><time>2026-04-18T14:33:43.999Z</time></trkpt><trkpt lat="44.75758733767634" lon="10.235347115933493"><ele>111.0</ele><time>2026-04-18T14:33:44.999Z</time></trkpt><trkpt lat="44.75767310779665" lon="10.235536664249457"><ele>111.0</ele><time>2026-04-18T14:33:45.999Z</time></trkpt><trkpt lat="44.75776115642736" lon="10.23572012624804"><ele>111.0</ele><time>2026-04-18T14:33:46.999Z</time></trkpt><trkpt lat="44.757845236413914" lon="10.23589953480168"><ele>110.25</ele><time>2026-04-18T14:33:47.999Z</time></trkpt><trkpt lat="44.757917317458244" lon="10.236065334123749"><ele>109.5</ele><time>2026-04-18T14:33:48.999Z</time></trkpt><trkpt lat="44.75799052552381" lon="10.23622868288942"><ele>108.75</ele><time>2026-04-18T14:33:49.999Z</time></trkpt><trkpt lat="44.75805870501784" lon="10.236376439896857"><ele>108.0</ele><time>2026-04-18T14:33:50.999Z</time></trkpt><trkpt lat="44.75811689238608" lon="10.236511156046738"><ele>108.0</ele><time>2026-04-18T14:33:51.999Z</time></trkpt><trkpt lat="44.75815750535665" lon="10.236604874745545"><ele>108.00000000000001</ele><time>2026-04-18T14:33:52.999Z</time></trkpt><trkpt lat="44.75822081378647" lon="10.236755988293341"><ele>108.00000000000001</ele><time>2026-04-18T14:33:54.999Z</time></trkpt><trkpt lat="44.75826333139851" lon="10.236841095148462"><ele>108.0</ele><time>2026-04-18T14:33:55.999Z</time></trkpt><trkpt lat="44.75832010478069" lon="10.236955530461561"><ele>108.0</ele><time>2026-04-18T14:33:56.999Z</time></trkpt><trkpt lat="44.75839100297753" lon="10.23710415428451"><ele>108.0</ele><time>2026-04-18T14:33:57.999Z</time></trkpt><trkpt lat="44.75847958016943" lon="10.237281324746549"><ele>108.0</ele><time>2026-04-18T14:33:58.999Z</time></trkpt><trkpt lat="44.75856053036981" lon="10.23745870896935"><ele>108.0</ele><time>2026-04-18T14:33:59.999Z</time></trkpt><trkpt lat="44.75865294147105" lon="10.237664413693066"><ele>108.0</ele><time>2026-04-18T14:34:01Z</time></trkpt><trkpt lat="44.758746932318616" lon="10.237886571790822"><ele>108.0</ele><time>2026-04-18T14:34:02Z</time></trkpt><trkpt lat="44.758838705769534" lon="10.238083517641302"><ele>108.0</ele><time>2026-04-18T14:34:03Z</time></trkpt><trkpt lat="44.758932431745215" lon="10.238282818625445"><ele>108.0</ele><time>2026-04-18T14:34:04Z</time></trkpt><trkpt lat="44.75902389755599" lon="10.238484801227512"><ele>108.0</ele><time>2026-04-18T14:34:05Z</time></trkpt><trkpt lat="44.75911523499164" lon="10.238685301598984"><ele>108.0</ele><time>2026-04-18T14:34:06Z</time></trkpt><trkpt lat="44.75921115120904" lon="10.23888877158436"><ele>108.0</ele><time>2026-04-18T14:34:07Z</time></trkpt><trkpt lat="44.759311158346506" lon="10.239100602023388"><ele>108.0</ele><time>2026-04-18T14:34:08Z</time></trkpt><trkpt lat="44.75940902348817" lon="10.239305770158923"><ele>108.0</ele><time>2026-04-18T14:34:09Z</time></trkpt><trkpt lat="44.75950955316793" lon="10.239520325945856"><ele>107.66666666666666</ele><time>2026-04-18T14:34:10Z</time></trkpt><trkpt lat="44.75960769913813" lon="10.239732391705976"><ele>107.33333333333333</ele><time>2026-04-18T14:34:11Z</time></trkpt><trkpt lat="44.75970596829221" lon="10.239940098649155"><ele>107.0</ele><time>2026-04-18T14:34:12Z</time></trkpt><trkpt lat="44.75980298202824" lon="10.240143869062894"><ele>108.33333333333333</ele><time>2026-04-18T14:34:13Z</time></trkpt><trkpt lat="44.75990112853403" lon="10.240356249969857"><ele>109.66666666666666</ele><time>2026-04-18T14:34:14Z</time></trkpt><trkpt lat="44.75999886346163" lon="10.240566501939172"><ele>111.0</ele><time>2026-04-18T14:34:15Z</time></trkpt><trkpt lat="44.76009630219232" lon="10.240780585761259"><ele>111.0</ele><time>2026-04-18T14:34:16Z</time></trkpt><trkpt lat="44.760192770456925" lon="10.24099536366051"><ele>111.0</ele><time>2026-04-18T14:34:17Z</time></trkpt><trkpt lat="44.76029209451949" lon="10.24120566574452"><ele>111.0</ele><time>2026-04-18T14:34:18Z</time></trkpt><trkpt lat="44.76039064192859" lon="10.241418967234951"><ele>110.33333333333334</ele><time>2026-04-18T14:34:19Z</time></trkpt><trkpt lat="44.76049145206301" lon="10.241625732288972"><ele>109.66666666666667</ele><time>2026-04-18T14:34:20Z</time></trkpt><trkpt lat="44.76058774866347" lon="10.241836346112377"><ele>109.0</ele><time>2026-04-18T14:34:21Z</time></trkpt><trkpt lat="44.76068414311304" lon="10.24204794187585"><ele>109.0</ele><time>2026-04-18T14:34:22Z</time></trkpt><trkpt lat="44.76078633468024" lon="10.242269182624106"><ele>109.0</ele><time>2026-04-18T14:34:23Z</time></trkpt><trkpt lat="44.760882011551814" lon="10.242475605539731"><ele>109.0</ele><time>2026-04-18T14:34:24Z</time></trkpt><trkpt lat="44.76097843743201" lon="10.242674609205816"><ele>108.0</ele><time>2026-04-18T14:34:25Z</time></trkpt><trkpt lat="44.76108179688381" lon="10.242888634782512"><ele>107.0</ele><time>2026-04-18T14:34:26Z</time></trkpt><trkpt lat="44.761176600655816" lon="10.24309107377878"><ele>106.0</ele><time>2026-04-18T14:34:27Z</time></trkpt><trkpt lat="44.76127459453896" lon="10.243307600386137"><ele>105.0</ele><time>2026-04-18T14:34:28Z</time></trkpt><trkpt lat="44.76137301674779" lon="10.243527223729485"><ele>104.0</ele><time>2026-04-18T14:34:29Z</time></trkpt><trkpt lat="44.76146568793723" lon="10.243731162603291"><ele>103.0</ele><time>2026-04-18T14:34:30Z</time></trkpt><trkpt lat="44.7615545180498" lon="10.24392209450055"><ele>102.66666666666667</ele><time>2026-04-18T14:34:31Z</time></trkpt><trkpt lat="44.76164248463287" lon="10.244109524372218"><ele>102.33333333333334</ele><time>2026-04-18T14:34:32Z</time></trkpt><trkpt lat="44.76173173863262" lon="10.244301467668892"><ele>102.0</ele><time>2026-04-18T14:34:33Z</time></trkpt><trkpt lat="44.76182262945288" lon="10.244501096613341"><ele>102.0</ele><time>2026-04-18T14:34:34Z</time></trkpt><trkpt lat="44.761908892830505" lon="10.2446884199964"><ele>102.0</ele><time>2026-04-18T14:34:35Z</time></trkpt><trkpt lat="44.761991585292286" lon="10.244870537999368"><ele>102.0</ele><time>2026-04-18T14:34:36Z</time></trkpt><trkpt lat="44.762075668025375" lon="10.24505827889529"><ele>102.0</ele><time>2026-04-18T14:34:37Z</time></trkpt><trkpt lat="44.76216621593039" lon="10.245247398694138"><ele>102.0</ele><time>2026-04-18T14:34:38Z</time></trkpt><trkpt lat="44.76225919042756" lon="10.245428619039672"><ele>102.0</ele><time>2026-04-18T14:34:39Z</time></trkpt><trkpt lat="44.76234935528684" lon="10.245608909669949"><ele>102.5</ele><time>2026-04-18T14:34:40Z</time></trkpt><trkpt lat="44.76243813608084" lon="10.245791415127526"><ele>103.0</ele><time>2026-04-18T14:34:41Z</time></trkpt><trkpt lat="44.76251879156651" lon="10.245967609490354"><ele>103.5</ele><time>2026-04-18T14:34:42Z</time></trkpt><trkpt lat="44.7625925370883" lon="10.246135743393726"><ele>104.0</ele><time>2026-04-18T14:34:43Z</time></trkpt><trkpt lat="44.76267008214763" lon="10.246307148579506"><ele>103.75</ele><time>2026-04-18T14:34:44Z</time></trkpt><trkpt lat="44.762753774296165" lon="10.246479721575112"><ele>103.5</ele><time>2026-04-18T14:34:45Z</time></trkpt><trkpt lat="44.762833148833636" lon="10.246640985245788"><ele>103.25</ele><time>2026-04-18T14:34:46Z</time></trkpt><trkpt lat="44.762910318773685" lon="10.246804949247776"><ele>103.0</ele><time>2026-04-18T14:34:47Z</time></trkpt><trkpt lat="44.76298778308395" lon="10.246972464111863"><ele>103.0</ele><time>2026-04-18T14:34:48Z</time></trkpt><trkpt lat="44.763069029874465" lon="10.2471445832867"><ele>103.0</ele><time>2026-04-18T14:34:49Z</time></trkpt><trkpt lat="44.7631500630547" lon="10.247316603797977"><ele>103.0</ele><time>2026-04-18T14:34:50Z</time></trkpt><trkpt lat="44.7632358701941" lon="10.247489050872796"><ele>103.0</ele><time>2026-04-18T14:34:51Z</time></trkpt><trkpt lat="44.76331425298655" lon="10.247654466529717"><ele>103.5</ele><time>2026-04-18T14:34:52Z</time></trkpt><trkpt lat="44.76338284488286" lon="10.247820440624116"><ele>104.0</ele><time>2026-04-18T14:34:53Z</time></trkpt><trkpt lat="44.763453241968975" lon="10.247965588089775"><ele>104.5</ele><time>2026-04-18T14:34:54Z</time></trkpt><trkpt lat="44.76351798495718" lon="10.24811627986792"><ele>105.0</ele><time>2026-04-18T14:34:55Z</time></trkpt><trkpt lat="44.763589530446325" lon="10.248255693400324"><ele>104.0</ele><time>2026-04-18T14:34:56Z</time></trkpt><trkpt lat="44.76366212549515" lon="10.248406875878631"><ele>103.0</ele><time>2026-04-18T14:34:57Z</time></trkpt><trkpt lat="44.763737448391566" lon="10.24856059983447"><ele>102.0</ele><time>2026-04-18T14:34:58Z</time></trkpt><trkpt lat="44.76381182744222" lon="10.248716879061028"><ele>101.0</ele><time>2026-04-18T14:34:59Z</time></trkpt><trkpt lat="44.763884497196365" lon="10.248883705019155"><ele>101.25</ele><time>2026-04-18T14:35:00Z</time></trkpt><trkpt lat="44.763962463105415" lon="10.249041439391338"><ele>101.5</ele><time>2026-04-18T14:35:01Z</time></trkpt><trkpt lat="44.7640386878114" lon="10.249209035998497"><ele>101.75</ele><time>2026-04-18T14:35:02Z</time></trkpt><trkpt lat="44.76411377236832" lon="10.249364073348934"><ele>102.0</ele><time>2026-04-18T14:35:03Z</time></trkpt><trkpt lat="44.76419848708812" lon="10.249530738637073"><ele>102.0</ele><time>2026-04-18T14:35:04Z</time></trkpt><trkpt lat="44.764273765182786" lon="10.249699006861704"><ele>102.0</ele><time>2026-04-18T14:35:05Z</time></trkpt><trkpt lat="44.76434936597794" lon="10.24986621819809"><ele>102.0</ele><time>2026-04-18T14:35:06Z</time></trkpt><trkpt lat="44.76442487953228" lon="10.25002565954285"><ele>102.0</ele><time>2026-04-18T14:35:07Z</time></trkpt><trkpt lat="44.76450090223092" lon="10.25018640023575"><ele>101.0</ele><time>2026-04-18T14:35:08Z</time></trkpt><trkpt lat="44.76457764570407" lon="10.250351533783927"><ele>100.0</ele><time>2026-04-18T14:35:09Z</time></trkpt><trkpt lat="44.76465665143468" lon="10.250518451878847"><ele>99.0</ele><time>2026-04-18T14:35:10Z</time></trkpt><trkpt lat="44.764734948255686" lon="10.250689759168795"><ele>98.0</ele><time>2026-04-18T14:35:11Z</time></trkpt><trkpt lat="44.76481588373086" lon="10.250871802805186"><ele>98.0</ele><time>2026-04-18T14:35:12Z</time></trkpt><trkpt lat="44.76489570360717" lon="10.251055680579778"><ele>98.0</ele><time>2026-04-18T14:35:13Z</time></trkpt><trkpt lat="44.764975172409095" lon="10.251237280606885"><ele>98.0</ele><time>2026-04-18T14:35:14Z</time></trkpt><trkpt lat="44.76505934392008" lon="10.251418911562908"><ele>98.33333333333333</ele><time>2026-04-18T14:35:14.999Z</time></trkpt><trkpt lat="44.76514628994782" lon="10.25160341903456"><ele>98.66666666666666</ele><time>2026-04-18T14:35:15.999Z</time></trkpt><trkpt lat="44.765230349268656" lon="10.251787279190433"><ele>99.0</ele><time>2026-04-18T14:35:16.999Z</time></trkpt><trkpt lat="44.76531344230279" lon="10.251973107655708"><ele>98.66666666666666</ele><time>2026-04-18T14:35:17.999Z</time></trkpt><trkpt lat="44.76539515920231" lon="10.252151377987891"><ele>98.33333333333333</ele><time>2026-04-18T14:35:18.999Z</time></trkpt><trkpt lat="44.765477866078854" lon="10.252332801559792"><ele>98.0</ele><time>2026-04-18T14:35:19.999Z</time></trkpt><trkpt lat="44.76555639297791" lon="10.252510575155899"><ele>98.0</ele><time>2026-04-18T14:35:20.999Z</time></trkpt><trkpt lat="44.76563774672112" lon="10.252690604343291"><ele>98.0</ele><time>2026-04-18T14:35:21.999Z</time></trkpt><trkpt lat="44.76571780166186" lon="10.252874486417728"><ele>98.0</ele><time>2026-04-18T14:35:22.999Z</time></trkpt><trkpt lat="44.76580062451046" lon="10.253056709445207"><ele>98.0</ele><time>2026-04-18T14:35:23.999Z</time></trkpt><trkpt lat="44.76588447179152" lon="10.253235974055427"><ele>98.0</ele><time>2026-04-18T14:35:24.999Z</time></trkpt><trkpt lat="44.76596481017108" lon="10.253404466103063"><ele>98.0</ele><time>2026-04-18T14:35:25.999Z</time></trkpt><trkpt lat="44.76603842662133" lon="10.253561862534294"><ele>98.0</ele><time>2026-04-18T14:35:26.999Z</time></trkpt><trkpt lat="44.766108747036064" lon="10.253710384972683"><ele>98.2</ele><time>2026-04-18T14:35:27.999Z</time></trkpt><trkpt lat="44.766175451738704" lon="10.253853773495521"><ele>98.4</ele><time>2026-04-18T14:35:28.999Z</time></trkpt><trkpt lat="44.76623146872865" lon="10.253978843917752"><ele>98.60000000000001</ele><time>2026-04-18T14:35:29.999Z</time></trkpt><trkpt lat="44.766277394691976" lon="10.254072282125719"><ele>98.80000000000001</ele><time>2026-04-18T14:35:30.999Z</time></trkpt><trkpt lat="44.76632030586519" lon="10.25416483072989"><ele>99.0</ele><time>2026-04-18T14:35:32.999Z</time></trkpt><trkpt lat="44.76635474195799" lon="10.254245030044622"><ele>98.25</ele><time>2026-04-18T14:35:35.999Z</time></trkpt><trkpt lat="44.76654967101049" lon="10.254106623536716"><ele>97.5</ele><time>2026-04-18T14:35:38.999Z</time></trkpt><trkpt lat="44.76664566342556" lon="10.25408594271911"><ele>96.75</ele><time>2026-04-18T14:35:39.999Z</time></trkpt><trkpt lat="44.76675061485959" lon="10.25407834023285"><ele>96.0</ele><time>2026-04-18T14:35:40.999Z</time></trkpt><trkpt lat="44.76688645035453" lon="10.254126589741386"><ele>96.0</ele><time>2026-04-18T14:35:41.999Z</time></trkpt><trkpt lat="44.767028986221526" lon="10.254152415699297"><ele>96.0</ele><time>2026-04-18T14:35:42.999Z</time></trkpt><trkpt lat="44.76718808363503" lon="10.254202403844749"><ele>96.0</ele><time>2026-04-18T14:35:43.999Z</time></trkpt><trkpt lat="44.7673705281908" lon="10.254260503379523"><ele>96.0</ele><time>2026-04-18T14:35:44.999Z</time></trkpt><trkpt lat="44.76755915383745" lon="10.254310636319186"><ele>96.0</ele><time>2026-04-18T14:35:45.999Z</time></trkpt><trkpt lat="44.767752867490934" lon="10.254373180734714"><ele>96.0</ele><time>2026-04-18T14:35:46.999Z</time></trkpt><trkpt lat="44.76793428377659" lon="10.254424906972146"><ele>96.0</ele><time>2026-04-18T14:35:47.999Z</time></trkpt><trkpt lat="44.76810146053605" lon="10.254466930130254"><ele>96.0</ele><time>2026-04-18T14:35:48.999Z</time></trkpt><trkpt lat="44.7682617146096" lon="10.254505241526147"><ele>96.0</ele><time>2026-04-18T14:35:49.999Z</time></trkpt><trkpt lat="44.76841535267961" lon="10.254545341399147"><ele>94.66666666666667</ele><time>2026-04-18T14:35:50.999Z</time></trkpt><trkpt lat="44.76857113714907" lon="10.254585592028223"><ele>93.33333333333334</ele><time>2026-04-18T14:35:51.999Z</time></trkpt><trkpt lat="44.76871257235337" lon="10.254624612855494"><ele>92.0</ele><time>2026-04-18T14:35:52.999Z</time></trkpt><trkpt lat="44.7688574774961" lon="10.254661315985768"><ele>92.0</ele><time>2026-04-18T14:35:53.999Z</time></trkpt><trkpt lat="44.76899634949364" lon="10.254693689826043"><ele>92.0</ele><time>2026-04-18T14:35:54.999Z</time></trkpt><trkpt lat="44.76913049114677" lon="10.254731128656527"><ele>92.0</ele><time>2026-04-18T14:35:55.999Z</time></trkpt><trkpt lat="44.76926970390097" lon="10.254772470093283"><ele>92.0</ele><time>2026-04-18T14:35:56.999Z</time></trkpt><trkpt lat="44.76939286152151" lon="10.25481046845732"><ele>92.0</ele><time>2026-04-18T14:35:57.999Z</time></trkpt><trkpt lat="44.76951687702061" lon="10.254846962403114"><ele>92.0</ele><time>2026-04-18T14:35:58.999Z</time></trkpt><trkpt lat="44.76963360184901" lon="10.254873666833456"><ele>92.0</ele><time>2026-04-18T14:35:59.999Z</time></trkpt><trkpt lat="44.769753941877056" lon="10.25490932913453"><ele>92.0</ele><time>2026-04-18T14:36:00.999Z</time></trkpt><trkpt lat="44.769873645808936" lon="10.254946917064286"><ele>92.0</ele><time>2026-04-18T14:36:01.999Z</time></trkpt><trkpt lat="44.769997642793356" lon="10.254985101840262"><ele>92.0</ele><time>2026-04-18T14:36:02.999Z</time></trkpt><trkpt lat="44.77010972702141" lon="10.25501375864708"><ele>92.0</ele><time>2026-04-18T14:36:03.999Z</time></trkpt><trkpt lat="44.77022034467731" lon="10.255049977554407"><ele>92.0</ele><time>2026-04-18T14:36:04.999Z</time></trkpt><trkpt lat="44.77032513947347" lon="10.255079592388949"><ele>92.0</ele><time>2026-04-18T14:36:05.999Z</time></trkpt><trkpt lat="44.77043274067703" lon="10.255113542825855"><ele>92.0</ele><time>2026-04-18T14:36:07Z</time></trkpt><trkpt lat="44.77053580489963" lon="10.255144586223327"><ele>92.0</ele><time>2026-04-18T14:36:08Z</time></trkpt><trkpt lat="44.77061786987979" lon="10.255193685406947"><ele>92.0</ele><time>2026-04-18T14:36:09Z</time></trkpt><trkpt lat="44.770687758335825" lon="10.25519940283619"><ele>92.0</ele><time>2026-04-18T14:36:10Z</time></trkpt><trkpt lat="44.77069539612162" lon="10.255411404596718"><ele>92.0</ele><time>2026-04-18T14:36:11Z</time></trkpt><trkpt lat="44.77068809766732" lon="10.255549146034545"><ele>92.0</ele><time>2026-04-18T14:36:12Z</time></trkpt><trkpt lat="44.77067121469803" lon="10.255709001961488"><ele>92.0</ele><time>2026-04-18T14:36:13Z</time></trkpt><trkpt lat="44.770647473987545" lon="10.255859281552407"><ele>92.0</ele><time>2026-04-18T14:36:14Z</time></trkpt><trkpt lat="44.77061891958415" lon="10.256025734470029"><ele>92.0</ele><time>2026-04-18T14:36:15Z</time></trkpt><trkpt lat="44.77059930905652" lon="10.256193457435236"><ele>92.0</ele><time>2026-04-18T14:36:16Z</time></trkpt><trkpt lat="44.770579982857264" lon="10.256356198558814"><ele>92.0</ele><time>2026-04-18T14:36:17Z</time></trkpt><trkpt lat="44.770557021999224" lon="10.256513241272437"><ele>92.0</ele><time>2026-04-18T14:36:18Z</time></trkpt><trkpt lat="44.77053957552947" lon="10.256653727720796"><ele>92.0</ele><time>2026-04-18T14:36:19Z</time></trkpt><trkpt lat="44.770558713038575" lon="10.256796955398086"><ele>92.0</ele><time>2026-04-18T14:36:20Z</time></trkpt><trkpt lat="44.77062243212743" lon="10.256935303093574"><ele>92.0</ele><time>2026-04-18T14:36:21Z</time></trkpt><trkpt lat="44.770706131092815" lon="10.257082178793755"><ele>92.0</ele><time>2026-04-18T14:36:22Z</time></trkpt><trkpt lat="44.77078073031329" lon="10.257243184678286"><ele>92.0</ele><time>2026-04-18T14:36:23Z</time></trkpt><trkpt lat="44.77085424511137" lon="10.257414640378828"><ele>92.0</ele><time>2026-04-18T14:36:24Z</time></trkpt><trkpt lat="44.770937403979865" lon="10.257589277553933"><ele>91.75</ele><time>2026-04-18T14:36:25Z</time></trkpt><trkpt lat="44.77101714305008" lon="10.25776322234644"><ele>91.5</ele><time>2026-04-18T14:36:26Z</time></trkpt><trkpt lat="44.771099058587964" lon="10.257942166075438"><ele>91.25</ele><time>2026-04-18T14:36:27Z</time></trkpt><trkpt lat="44.77118532572796" lon="10.25811587102233"><ele>91.0</ele><time>2026-04-18T14:36:28Z</time></trkpt><trkpt lat="44.771269168420645" lon="10.258284888608525"><ele>90.0</ele><time>2026-04-18T14:36:29Z</time></trkpt><trkpt lat="44.7713609120677" lon="10.258458420232046"><ele>89.0</ele><time>2026-04-18T14:36:30Z</time></trkpt><trkpt lat="44.771442590049176" lon="10.258641752666318"><ele>88.0</ele><time>2026-04-18T14:36:31Z</time></trkpt><trkpt lat="44.77152312541976" lon="10.258828405680099"><ele>89.0</ele><time>2026-04-18T14:36:32Z</time></trkpt><trkpt lat="44.77160758939864" lon="10.25900735409525"><ele>90.0</ele><time>2026-04-18T14:36:33Z</time></trkpt><trkpt lat="44.771696662572516" lon="10.259187083459823"><ele>91.0</ele><time>2026-04-18T14:36:34Z</time></trkpt><trkpt lat="44.77178866475187" lon="10.259373452756028"><ele>90.0</ele><time>2026-04-18T14:36:35Z</time></trkpt><trkpt lat="44.77187802119601" lon="10.259551036167718"><ele>89.0</ele><time>2026-04-18T14:36:36Z</time></trkpt><trkpt lat="44.77196150209674" lon="10.259724081057211"><ele>88.0</ele><time>2026-04-18T14:36:37Z</time></trkpt><trkpt lat="44.772044632983665" lon="10.259900194450399"><ele>88.0</ele><time>2026-04-18T14:36:38Z</time></trkpt><trkpt lat="44.77212540234783" lon="10.260085287886561"><ele>88.0</ele><time>2026-04-18T14:36:39Z</time></trkpt><trkpt lat="44.772213906621154" lon="10.260268139202458"><ele>88.0</ele><time>2026-04-18T14:36:40Z</time></trkpt><trkpt lat="44.7722964641437" lon="10.260453234930777"><ele>88.66666666666666</ele><time>2026-04-18T14:36:41Z</time></trkpt><trkpt lat="44.77238782777384" lon="10.260635637392756"><ele>89.33333333333333</ele><time>2026-04-18T14:36:42Z</time></trkpt><trkpt lat="44.77247903206831" lon="10.26082358057497"><ele>90.0</ele><time>2026-04-18T14:36:43Z</time></trkpt><trkpt lat="44.77256722569905" lon="10.2610075131696"><ele>90.0</ele><time>2026-04-18T14:36:44Z</time></trkpt><trkpt lat="44.77265843876658" lon="10.261189270046875"><ele>90.0</ele><time>2026-04-18T14:36:45Z</time></trkpt><trkpt lat="44.77274739175933" lon="10.261371401224151"><ele>90.0</ele><time>2026-04-18T14:36:46Z</time></trkpt><trkpt lat="44.77283489882087" lon="10.26155213355857"><ele>89.33333333333333</ele><time>2026-04-18T14:36:47Z</time></trkpt><trkpt lat="44.77291988265744" lon="10.261733189817317"><ele>88.66666666666666</ele><time>2026-04-18T14:36:48Z</time></trkpt><trkpt lat="44.77300435200638" lon="10.26190634197255"><ele>88.0</ele><time>2026-04-18T14:36:49Z</time></trkpt><trkpt lat="44.773090171658545" lon="10.2620890245565"><ele>88.0</ele><time>2026-04-18T14:36:50Z</time></trkpt><trkpt lat="44.773175877133106" lon="10.262269251454516"><ele>88.0</ele><time>2026-04-18T14:36:51Z</time></trkpt><trkpt lat="44.77326068493532" lon="10.262448393143758"><ele>88.0</ele><time>2026-04-18T14:36:52Z</time></trkpt><trkpt lat="44.773341939472346" lon="10.262619485696984"><ele>88.0</ele><time>2026-04-18T14:36:53Z</time></trkpt><trkpt lat="44.773419643821754" lon="10.262779576729466"><ele>88.0</ele><time>2026-04-18T14:36:54Z</time></trkpt><trkpt lat="44.77348769370664" lon="10.262927278917033"><ele>88.0</ele><time>2026-04-18T14:36:55Z</time></trkpt><trkpt lat="44.77356201564453" lon="10.26307087142393"><ele>88.0</ele><time>2026-04-18T14:36:56Z</time></trkpt><trkpt lat="44.77362827203469" lon="10.263207781769125"><ele>87.4</ele><time>2026-04-18T14:36:57Z</time></trkpt><trkpt lat="44.773686506717354" lon="10.263333743143741"><ele>86.80000000000001</ele><time>2026-04-18T14:36:58Z</time></trkpt><trkpt lat="44.77373403173246" lon="10.263454087476067"><ele>86.2</ele><time>2026-04-18T14:36:59Z</time></trkpt><trkpt lat="44.77377170451048" lon="10.263543799082544"><ele>85.6</ele><time>2026-04-18T14:37:00Z</time></trkpt><trkpt lat="44.77382306630048" lon="10.263640699139092"><ele>85.0</ele><time>2026-04-18T14:37:02Z</time></trkpt><trkpt lat="44.77395861419203" lon="10.263476704224676"><ele>85.0</ele><time>2026-04-18T14:37:04Z</time></trkpt><trkpt lat="44.77398426008707" lon="10.263333803996304"><ele>85.0</ele><time>2026-04-18T14:37:06Z</time></trkpt><trkpt lat="44.77398810636639" lon="10.263218609745028"><ele>85.0</ele><time>2026-04-18T14:37:08Z</time></trkpt><trkpt lat="44.774005675066114" lon="10.263124799476568"><ele>85.0</ele><time>2026-04-18T14:37:33.999Z</time></trkpt><trkpt lat="44.77385825718725" lon="10.263032501544904"><ele>85.0</ele><time>2026-04-18T14:37:36.999Z</time></trkpt><trkpt lat="44.77376933790434" lon="10.262992384152284"><ele>86.0</ele><time>2026-04-18T14:37:38.999Z</time></trkpt><trkpt lat="44.773667286103894" lon="10.26296546364667"><ele>86.0</ele><time>2026-04-18T14:37:40.999Z</time></trkpt><trkpt lat="44.77367510382694" lon="10.262855723229686"><ele>86.0</ele><time>2026-04-18T14:37:41.999Z</time></trkpt><trkpt lat="44.77362661939671" lon="10.262753966999423"><ele>86.0</ele><time>2026-04-18T14:37:43.999Z</time></trkpt><trkpt lat="44.773578117799985" lon="10.262652171638049"><ele>86.0</ele><time>2026-04-18T14:37:45.999Z</time></trkpt></trkseg></trk></gpx>